<?xml version="1.0" encoding="UTF-8" standalone="no" ?>
<gpx xmlns="http://www.topografix.com/GPX/1/1" xmlns:xsi="http://www.w3.org/2001/XMLSchema-instance" xsi:schemaLocation="http://www.topografix.com/GPX/1/1 http://www.topografix.com/GPX/1/1/gpx.xsd" version="1.1" creator="VisuGPX - https://www.visugpx.com">
  <metadata>
    <name>HRP2023-J05</name>
  </metadata>
  <trk>
    <name><![CDATA[HRP2023-J05]]></name>
    <extensions>
      <line xmlns="http://www.topografix.com/GPX/gpx_style/0/2">
        <color>0000FF</color>
        <width>4</width>
      </line>
    </extensions>
    <trkseg>
      <trkpt lat="42.47602" lon="2.41285">
        <ele>2266</ele>
        <time>2023-07-17T04:06:49Z</time>
      </trkpt>
      <trkpt lat="42.47572" lon="2.41266">
        <ele>2267.4</ele>
        <time>2023-07-17T04:07:26Z</time>
      </trkpt>
      <trkpt lat="42.47539" lon="2.41287">
        <ele>2268.3</ele>
        <time>2023-07-17T04:08:03Z</time>
      </trkpt>
      <trkpt lat="42.47506" lon="2.41345">
        <ele>2268.4</ele>
        <time>2023-07-17T04:08:40Z</time>
      </trkpt>
      <trkpt lat="42.47498" lon="2.41399">
        <ele>2267.9</ele>
        <time>2023-07-17T04:09:17Z</time>
      </trkpt>
      <trkpt lat="42.47477" lon="2.41498">
        <ele>2263.2</ele>
        <time>2023-07-17T04:09:54Z</time>
      </trkpt>
      <trkpt lat="42.47471" lon="2.41575">
        <ele>2259.5</ele>
        <time>2023-07-17T04:10:31Z</time>
      </trkpt>
      <trkpt lat="42.47469" lon="2.41658">
        <ele>2256.4</ele>
        <time>2023-07-17T04:11:08Z</time>
      </trkpt>
      <trkpt lat="42.47468" lon="2.41736">
        <ele>2262.9</ele>
        <time>2023-07-17T04:11:45Z</time>
      </trkpt>
      <trkpt lat="42.47491" lon="2.4177">
        <ele>2257.3</ele>
        <time>2023-07-17T04:12:22Z</time>
      </trkpt>
      <trkpt lat="42.47518" lon="2.418">
        <ele>2250.3</ele>
        <time>2023-07-17T04:12:59Z</time>
      </trkpt>
      <trkpt lat="42.47569" lon="2.41867">
        <ele>2234.7</ele>
        <time>2023-07-17T04:13:36Z</time>
      </trkpt>
      <trkpt lat="42.47594" lon="2.41875">
        <ele>2222.9</ele>
        <time>2023-07-17T04:14:13Z</time>
      </trkpt>
      <trkpt lat="42.47621" lon="2.41796">
        <ele>2213.3</ele>
        <time>2023-07-17T04:14:50Z</time>
      </trkpt>
      <trkpt lat="42.47621" lon="2.41796">
        <ele>2213.3</ele>
        <time>2023-07-17T04:27:43Z</time>
      </trkpt>
      <trkpt lat="42.47599" lon="2.41843">
        <ele>2220.6</ele>
        <time>2023-07-17T04:29:14Z</time>
      </trkpt>
      <trkpt lat="42.4759" lon="2.41897">
        <ele>2226.3</ele>
        <time>2023-07-17T04:30:45Z</time>
      </trkpt>
      <trkpt lat="42.47586" lon="2.41972">
        <ele>2230.7</ele>
        <time>2023-07-17T04:32:16Z</time>
      </trkpt>
      <trkpt lat="42.47593" lon="2.42064">
        <ele>2239.2</ele>
        <time>2023-07-17T04:33:47Z</time>
      </trkpt>
      <trkpt lat="42.47601" lon="2.42126">
        <ele>2243.4</ele>
        <time>2023-07-17T04:35:18Z</time>
      </trkpt>
      <trkpt lat="42.4759" lon="2.42146">
        <ele>2249.3</ele>
        <time>2023-07-17T04:36:49Z</time>
      </trkpt>
      <trkpt lat="42.47563" lon="2.42101">
        <ele>2252.1</ele>
        <time>2023-07-17T04:38:20Z</time>
      </trkpt>
      <trkpt lat="42.47507" lon="2.42092">
        <ele>2259.1</ele>
        <time>2023-07-17T04:39:51Z</time>
      </trkpt>
      <trkpt lat="42.47439" lon="2.42043">
        <ele>2265.2</ele>
        <time>2023-07-17T04:41:22Z</time>
      </trkpt>
      <trkpt lat="42.47384" lon="2.42">
        <ele>2271.6</ele>
        <time>2023-07-17T04:42:53Z</time>
      </trkpt>
      <trkpt lat="42.47327" lon="2.41952">
        <ele>2276.5</ele>
        <time>2023-07-17T04:44:24Z</time>
      </trkpt>
      <trkpt lat="42.47249" lon="2.41871">
        <ele>2280.4</ele>
        <time>2023-07-17T04:45:55Z</time>
      </trkpt>
      <trkpt lat="42.47191" lon="2.41819">
        <ele>2282.8</ele>
        <time>2023-07-17T04:47:26Z</time>
      </trkpt>
      <trkpt lat="42.47137" lon="2.41772">
        <ele>2286.2</ele>
        <time>2023-07-17T04:48:57Z</time>
      </trkpt>
      <trkpt lat="42.47074" lon="2.4174">
        <ele>2290</ele>
        <time>2023-07-17T04:50:28Z</time>
      </trkpt>
      <trkpt lat="42.4699" lon="2.41697">
        <ele>2292.4</ele>
        <time>2023-07-17T04:51:59Z</time>
      </trkpt>
      <trkpt lat="42.46792" lon="2.4145">
        <ele>2289.2</ele>
        <time>2023-07-17T04:53:30Z</time>
      </trkpt>
      <trkpt lat="42.46716" lon="2.41287">
        <ele>2276.4</ele>
        <time>2023-07-17T04:55:01Z</time>
      </trkpt>
      <trkpt lat="42.46615" lon="2.4112">
        <ele>2259.7</ele>
        <time>2023-07-17T04:56:32Z</time>
      </trkpt>
      <trkpt lat="42.46561" lon="2.40957">
        <ele>2248.2</ele>
        <time>2023-07-17T04:58:03Z</time>
      </trkpt>
      <trkpt lat="42.46491" lon="2.40794">
        <ele>2229.9</ele>
        <time>2023-07-17T04:59:34Z</time>
      </trkpt>
      <trkpt lat="42.46431" lon="2.40772">
        <ele>2230.2</ele>
        <time>2023-07-17T05:01:05Z</time>
      </trkpt>
      <trkpt lat="42.46384" lon="2.40789">
        <ele>2230.2</ele>
        <time>2023-07-17T05:02:36Z</time>
      </trkpt>
      <trkpt lat="42.46361" lon="2.40725">
        <ele>2229.1</ele>
        <time>2023-07-17T05:04:07Z</time>
      </trkpt>
      <trkpt lat="42.46339" lon="2.40635">
        <ele>2233</ele>
        <time>2023-07-17T05:05:38Z</time>
      </trkpt>
      <trkpt lat="42.4632" lon="2.4048">
        <ele>2239.8</ele>
        <time>2023-07-17T05:07:09Z</time>
      </trkpt>
      <trkpt lat="42.46289" lon="2.4036">
        <ele>2246.4</ele>
        <time>2023-07-17T05:08:40Z</time>
      </trkpt>
      <trkpt lat="42.46235" lon="2.40309">
        <ele>2249.4</ele>
        <time>2023-07-17T05:10:11Z</time>
      </trkpt>
      <trkpt lat="42.46171" lon="2.40232">
        <ele>2250.7</ele>
        <time>2023-07-17T05:11:42Z</time>
      </trkpt>
      <trkpt lat="42.46095" lon="2.40202">
        <ele>2255.7</ele>
        <time>2023-07-17T05:13:13Z</time>
      </trkpt>
      <trkpt lat="42.46045" lon="2.40167">
        <ele>2260.7</ele>
        <time>2023-07-17T05:14:44Z</time>
      </trkpt>
      <trkpt lat="42.46023" lon="2.40081">
        <ele>2264.1</ele>
        <time>2023-07-17T05:16:15Z</time>
      </trkpt>
      <trkpt lat="42.4594" lon="2.40008">
        <ele>2269.8</ele>
        <time>2023-07-17T05:17:46Z</time>
      </trkpt>
      <trkpt lat="42.45896" lon="2.39905">
        <ele>2274.3</ele>
        <time>2023-07-17T05:19:17Z</time>
      </trkpt>
      <trkpt lat="42.45861" lon="2.3979">
        <ele>2276.6</ele>
        <time>2023-07-17T05:20:48Z</time>
      </trkpt>
      <trkpt lat="42.45782" lon="2.39687">
        <ele>2281.6</ele>
        <time>2023-07-17T05:22:19Z</time>
      </trkpt>
      <trkpt lat="42.4569" lon="2.39588">
        <ele>2295.9</ele>
        <time>2023-07-17T05:23:50Z</time>
      </trkpt>
      <trkpt lat="42.45671" lon="2.39476">
        <ele>2294.1</ele>
        <time>2023-07-17T05:25:21Z</time>
      </trkpt>
      <trkpt lat="42.45643" lon="2.3942">
        <ele>2291.4</ele>
        <time>2023-07-17T05:26:52Z</time>
      </trkpt>
      <trkpt lat="42.45548" lon="2.39365">
        <ele>2291.9</ele>
        <time>2023-07-17T05:28:23Z</time>
      </trkpt>
      <trkpt lat="42.45546" lon="2.3935">
        <ele>2292.8000488281</ele>
        <time>2023-07-17T05:30:19.000Z</time>
      </trkpt>
      <trkpt lat="42.45543" lon="2.39348">
        <ele>2292.6000976562</ele>
        <time>2023-07-17T05:30:26.000Z</time>
      </trkpt>
      <trkpt lat="42.45539" lon="2.39344">
        <ele>2292.8000488281</ele>
        <time>2023-07-17T05:30:31.000Z</time>
      </trkpt>
      <trkpt lat="42.45533" lon="2.39337">
        <ele>2293.1999511719</ele>
        <time>2023-07-17T05:30:37.000Z</time>
      </trkpt>
      <trkpt lat="42.45528" lon="2.39328">
        <ele>2292</ele>
        <time>2023-07-17T05:30:44.000Z</time>
      </trkpt>
      <trkpt lat="42.45527" lon="2.39327">
        <ele>2291.6000976562</ele>
        <time>2023-07-17T05:30:45.000Z</time>
      </trkpt>
      <trkpt lat="42.45521" lon="2.39315">
        <ele>2291</ele>
        <time>2023-07-17T05:30:54.000Z</time>
      </trkpt>
      <trkpt lat="42.4552" lon="2.39312">
        <ele>2290.3999023438</ele>
        <time>2023-07-17T05:30:56.000Z</time>
      </trkpt>
      <trkpt lat="42.45518" lon="2.39305">
        <ele>2290</ele>
        <time>2023-07-17T05:31:01.000Z</time>
      </trkpt>
      <trkpt lat="42.45518" lon="2.39304">
        <ele>2290</ele>
        <time>2023-07-17T05:31:07.000Z</time>
      </trkpt>
      <trkpt lat="42.45515" lon="2.39298">
        <ele>2289.8000488281</ele>
        <time>2023-07-17T05:31:12.000Z</time>
      </trkpt>
      <trkpt lat="42.45511" lon="2.39293">
        <ele>2289.3999023438</ele>
        <time>2023-07-17T05:31:16.000Z</time>
      </trkpt>
      <trkpt lat="42.45509" lon="2.3929">
        <ele>2289</ele>
        <time>2023-07-17T05:31:19.000Z</time>
      </trkpt>
      <trkpt lat="42.45504" lon="2.39281">
        <ele>2288.6000976562</ele>
        <time>2023-07-17T05:31:25.000Z</time>
      </trkpt>
      <trkpt lat="42.45502" lon="2.39277">
        <ele>2288.3999023438</ele>
        <time>2023-07-17T05:31:29.000Z</time>
      </trkpt>
      <trkpt lat="42.45495" lon="2.39267">
        <ele>2287.6000976562</ele>
        <time>2023-07-17T05:31:37.000Z</time>
      </trkpt>
      <trkpt lat="42.45491" lon="2.39259">
        <ele>2287.1999511719</ele>
        <time>2023-07-17T05:31:43.000Z</time>
      </trkpt>
      <trkpt lat="42.45488" lon="2.39253">
        <ele>2286.6000976562</ele>
        <time>2023-07-17T05:31:47.000Z</time>
      </trkpt>
      <trkpt lat="42.45486" lon="2.3925">
        <ele>2286.1999511719</ele>
        <time>2023-07-17T05:31:50.000Z</time>
      </trkpt>
      <trkpt lat="42.45483" lon="2.39245">
        <ele>2286</ele>
        <time>2023-07-17T05:31:54.000Z</time>
      </trkpt>
      <trkpt lat="42.45475" lon="2.39232">
        <ele>2285.1999511719</ele>
        <time>2023-07-17T05:32:04.000Z</time>
      </trkpt>
      <trkpt lat="42.45474" lon="2.39231">
        <ele>2285</ele>
        <time>2023-07-17T05:32:05.000Z</time>
      </trkpt>
      <trkpt lat="42.45466" lon="2.39218">
        <ele>2284.1999511719</ele>
        <time>2023-07-17T05:32:14.000Z</time>
      </trkpt>
      <trkpt lat="42.45464" lon="2.39215">
        <ele>2284.1999511719</ele>
        <time>2023-07-17T05:32:17.000Z</time>
      </trkpt>
      <trkpt lat="42.45457" lon="2.39204">
        <ele>2283.6000976562</ele>
        <time>2023-07-17T05:32:26.000Z</time>
      </trkpt>
      <trkpt lat="42.4545" lon="2.39195">
        <ele>2283.1999511719</ele>
        <time>2023-07-17T05:32:35.000Z</time>
      </trkpt>
      <trkpt lat="42.45449" lon="2.39194">
        <ele>2283</ele>
        <time>2023-07-17T05:32:36.000Z</time>
      </trkpt>
      <trkpt lat="42.45444" lon="2.39186">
        <ele>2282.3999023438</ele>
        <time>2023-07-17T05:32:42.000Z</time>
      </trkpt>
      <trkpt lat="42.4544" lon="2.3918">
        <ele>2282</ele>
        <time>2023-07-17T05:32:47.000Z</time>
      </trkpt>
      <trkpt lat="42.45437" lon="2.39173">
        <ele>2281.3999023438</ele>
        <time>2023-07-17T05:32:52.000Z</time>
      </trkpt>
      <trkpt lat="42.45432" lon="2.39165">
        <ele>2280.8000488281</ele>
        <time>2023-07-17T05:32:59.000Z</time>
      </trkpt>
      <trkpt lat="42.4543" lon="2.39161">
        <ele>2280.1999511719</ele>
        <time>2023-07-17T05:33:03.000Z</time>
      </trkpt>
      <trkpt lat="42.45426" lon="2.39155">
        <ele>2279.8000488281</ele>
        <time>2023-07-17T05:33:08.000Z</time>
      </trkpt>
      <trkpt lat="42.45422" lon="2.3915">
        <ele>2279.8000488281</ele>
        <time>2023-07-17T05:33:14.000Z</time>
      </trkpt>
      <trkpt lat="42.45416" lon="2.3914">
        <ele>2280</ele>
        <time>2023-07-17T05:33:21.000Z</time>
      </trkpt>
      <trkpt lat="42.45408" lon="2.39129">
        <ele>2279.1999511719</ele>
        <time>2023-07-17T05:33:29.000Z</time>
      </trkpt>
      <trkpt lat="42.45399" lon="2.39119">
        <ele>2279</ele>
        <time>2023-07-17T05:33:39.000Z</time>
      </trkpt>
      <trkpt lat="42.45397" lon="2.39116">
        <ele>2281.1999511719</ele>
        <time>2023-07-17T05:33:41.000Z</time>
      </trkpt>
      <trkpt lat="42.45392" lon="2.3911">
        <ele>2281.6000976562</ele>
        <time>2023-07-17T05:33:47.000Z</time>
      </trkpt>
      <trkpt lat="42.45384" lon="2.39106">
        <ele>2280.3999023438</ele>
        <time>2023-07-17T05:33:54.000Z</time>
      </trkpt>
      <trkpt lat="42.45383" lon="2.39106">
        <ele>2278.8000488281</ele>
        <time>2023-07-17T05:33:55.000Z</time>
      </trkpt>
      <trkpt lat="42.45382" lon="2.39105">
        <ele>2277.6000976562</ele>
        <time>2023-07-17T05:33:56.000Z</time>
      </trkpt>
      <trkpt lat="42.45377" lon="2.39103">
        <ele>2276.8000488281</ele>
        <time>2023-07-17T05:34:01.000Z</time>
      </trkpt>
      <trkpt lat="42.45369" lon="2.39097">
        <ele>2277.8000488281</ele>
        <time>2023-07-17T05:34:08.000Z</time>
      </trkpt>
      <trkpt lat="42.45359" lon="2.39094">
        <ele>2277.8000488281</ele>
        <time>2023-07-17T05:34:16.000Z</time>
      </trkpt>
      <trkpt lat="42.45346" lon="2.39093">
        <ele>2277</ele>
        <time>2023-07-17T05:34:25.000Z</time>
      </trkpt>
      <trkpt lat="42.4534" lon="2.39093">
        <ele>2276.6000976562</ele>
        <time>2023-07-17T05:34:31.000Z</time>
      </trkpt>
      <trkpt lat="42.4534" lon="2.39093">
        <ele>2276.6000976562</ele>
        <time>2023-07-17T05:34:32.000Z</time>
      </trkpt>
      <trkpt lat="42.45328" lon="2.39091">
        <ele>2276.1999511719</ele>
        <time>2023-07-17T05:34:40.000Z</time>
      </trkpt>
      <trkpt lat="42.45324" lon="2.3909">
        <ele>2275.6000976562</ele>
        <time>2023-07-17T05:34:43.000Z</time>
      </trkpt>
      <trkpt lat="42.45322" lon="2.39089">
        <ele>2274.1999511719</ele>
        <time>2023-07-17T05:34:45.000Z</time>
      </trkpt>
      <trkpt lat="42.4532" lon="2.39088">
        <ele>2273</ele>
        <time>2023-07-17T05:34:47.000Z</time>
      </trkpt>
      <trkpt lat="42.45313" lon="2.39086">
        <ele>2271.8000488281</ele>
        <time>2023-07-17T05:34:52.000Z</time>
      </trkpt>
      <trkpt lat="42.45312" lon="2.39086">
        <ele>2271.1999511719</ele>
        <time>2023-07-17T05:34:53.000Z</time>
      </trkpt>
      <trkpt lat="42.4531" lon="2.39084">
        <ele>2270.8000488281</ele>
        <time>2023-07-17T05:34:55.000Z</time>
      </trkpt>
      <trkpt lat="42.45301" lon="2.39083">
        <ele>2271</ele>
        <time>2023-07-17T05:35:03.000Z</time>
      </trkpt>
      <trkpt lat="42.45292" lon="2.39081">
        <ele>2271.3999023438</ele>
        <time>2023-07-17T05:35:10.000Z</time>
      </trkpt>
      <trkpt lat="42.45287" lon="2.3908">
        <ele>2272.1999511719</ele>
        <time>2023-07-17T05:35:15.000Z</time>
      </trkpt>
      <trkpt lat="42.45286" lon="2.3908">
        <ele>2272.1999511719</ele>
        <time>2023-07-17T05:35:17.000Z</time>
      </trkpt>
      <trkpt lat="42.45277" lon="2.39081">
        <ele>2272.1999511719</ele>
        <time>2023-07-17T05:35:24.000Z</time>
      </trkpt>
      <trkpt lat="42.45267" lon="2.39086">
        <ele>2271.1999511719</ele>
        <time>2023-07-17T05:35:32.000Z</time>
      </trkpt>
      <trkpt lat="42.45264" lon="2.39088">
        <ele>2270.8000488281</ele>
        <time>2023-07-17T05:35:34.000Z</time>
      </trkpt>
      <trkpt lat="42.45261" lon="2.39092">
        <ele>2269.8000488281</ele>
        <time>2023-07-17T05:35:38.000Z</time>
      </trkpt>
      <trkpt lat="42.45259" lon="2.39093">
        <ele>2269.6000976562</ele>
        <time>2023-07-17T05:35:40.000Z</time>
      </trkpt>
      <trkpt lat="42.45251" lon="2.39099">
        <ele>2269.1999511719</ele>
        <time>2023-07-17T05:35:47.000Z</time>
      </trkpt>
      <trkpt lat="42.45247" lon="2.39101">
        <ele>2268.6000976562</ele>
        <time>2023-07-17T05:35:49.000Z</time>
      </trkpt>
      <trkpt lat="42.4524" lon="2.39104">
        <ele>2267.3999023438</ele>
        <time>2023-07-17T05:35:54.000Z</time>
      </trkpt>
      <trkpt lat="42.45237" lon="2.39105">
        <ele>2266.1999511719</ele>
        <time>2023-07-17T05:35:57.000Z</time>
      </trkpt>
      <trkpt lat="42.4523" lon="2.39108">
        <ele>2266</ele>
        <time>2023-07-17T05:36:03.000Z</time>
      </trkpt>
      <trkpt lat="42.4522" lon="2.39109">
        <ele>2265.1999511719</ele>
        <time>2023-07-17T05:36:11.000Z</time>
      </trkpt>
      <trkpt lat="42.45218" lon="2.3911">
        <ele>2264.8000488281</ele>
        <time>2023-07-17T05:36:13.000Z</time>
      </trkpt>
      <trkpt lat="42.45216" lon="2.39112">
        <ele>2264.1999511719</ele>
        <time>2023-07-17T05:36:15.000Z</time>
      </trkpt>
      <trkpt lat="42.45211" lon="2.39115">
        <ele>2264.3999023438</ele>
        <time>2023-07-17T05:36:21.000Z</time>
      </trkpt>
      <trkpt lat="42.45208" lon="2.39116">
        <ele>2265.1999511719</ele>
        <time>2023-07-17T05:36:23.000Z</time>
      </trkpt>
      <trkpt lat="42.45202" lon="2.39118">
        <ele>2264</ele>
        <time>2023-07-17T05:36:29.000Z</time>
      </trkpt>
      <trkpt lat="42.45201" lon="2.39118">
        <ele>2263.8000488281</ele>
        <time>2023-07-17T05:36:30.000Z</time>
      </trkpt>
      <trkpt lat="42.45189" lon="2.39119">
        <ele>2263.1999511719</ele>
        <time>2023-07-17T05:36:39.000Z</time>
      </trkpt>
      <trkpt lat="42.45177" lon="2.39118">
        <ele>2263.3999023438</ele>
        <time>2023-07-17T05:36:49.000Z</time>
      </trkpt>
      <trkpt lat="42.4517" lon="2.39116">
        <ele>2263</ele>
        <time>2023-07-17T05:36:56.000Z</time>
      </trkpt>
      <trkpt lat="42.45166" lon="2.39115">
        <ele>2262.8000488281</ele>
        <time>2023-07-17T05:36:59.000Z</time>
      </trkpt>
      <trkpt lat="42.45154" lon="2.39113">
        <ele>2262.3999023438</ele>
        <time>2023-07-17T05:37:08.000Z</time>
      </trkpt>
      <trkpt lat="42.45143" lon="2.39113">
        <ele>2262</ele>
        <time>2023-07-17T05:37:17.000Z</time>
      </trkpt>
      <trkpt lat="42.45141" lon="2.39113">
        <ele>2261.8000488281</ele>
        <time>2023-07-17T05:37:19.000Z</time>
      </trkpt>
      <trkpt lat="42.45132" lon="2.39111">
        <ele>2262.1999511719</ele>
        <time>2023-07-17T05:37:28.000Z</time>
      </trkpt>
      <trkpt lat="42.45123" lon="2.3911">
        <ele>2262.3999023438</ele>
        <time>2023-07-17T05:37:35.000Z</time>
      </trkpt>
      <trkpt lat="42.45116" lon="2.39108">
        <ele>2262.1999511719</ele>
        <time>2023-07-17T05:37:41.000Z</time>
      </trkpt>
      <trkpt lat="42.45108" lon="2.39101">
        <ele>2261.6000976562</ele>
        <time>2023-07-17T05:37:49.000Z</time>
      </trkpt>
      <trkpt lat="42.45102" lon="2.39095">
        <ele>2261</ele>
        <time>2023-07-17T05:37:56.000Z</time>
      </trkpt>
      <trkpt lat="42.45101" lon="2.39094">
        <ele>2260.8000488281</ele>
        <time>2023-07-17T05:37:57.000Z</time>
      </trkpt>
      <trkpt lat="42.45091" lon="2.39085">
        <ele>2260.1999511719</ele>
        <time>2023-07-17T05:38:05.000Z</time>
      </trkpt>
      <trkpt lat="42.45089" lon="2.39082">
        <ele>2259.8000488281</ele>
        <time>2023-07-17T05:38:09.000Z</time>
      </trkpt>
      <trkpt lat="42.45088" lon="2.39077">
        <ele>2259.3999023438</ele>
        <time>2023-07-17T05:38:13.000Z</time>
      </trkpt>
      <trkpt lat="42.45082" lon="2.39067">
        <ele>2258.8000488281</ele>
        <time>2023-07-17T05:38:20.000Z</time>
      </trkpt>
      <trkpt lat="42.45082" lon="2.39066">
        <ele>2258.8000488281</ele>
        <time>2023-07-17T05:38:21.000Z</time>
      </trkpt>
      <trkpt lat="42.45076" lon="2.39057">
        <ele>2258.1999511719</ele>
        <time>2023-07-17T05:38:29.000Z</time>
      </trkpt>
      <trkpt lat="42.4507" lon="2.39045">
        <ele>2258.6000976562</ele>
        <time>2023-07-17T05:38:38.000Z</time>
      </trkpt>
      <trkpt lat="42.45064" lon="2.39034">
        <ele>2257.8000488281</ele>
        <time>2023-07-17T05:38:46.000Z</time>
      </trkpt>
      <trkpt lat="42.45059" lon="2.39026">
        <ele>2257</ele>
        <time>2023-07-17T05:38:53.000Z</time>
      </trkpt>
      <trkpt lat="42.45057" lon="2.39026">
        <ele>2256.6000976562</ele>
        <time>2023-07-17T05:38:55.000Z</time>
      </trkpt>
      <trkpt lat="42.45049" lon="2.39029">
        <ele>2255.8000488281</ele>
        <time>2023-07-17T05:39:01.000Z</time>
      </trkpt>
      <trkpt lat="42.45048" lon="2.39029">
        <ele>2255.6000976562</ele>
        <time>2023-07-17T05:39:02.000Z</time>
      </trkpt>
      <trkpt lat="42.4504" lon="2.39034">
        <ele>2254.8000488281</ele>
        <time>2023-07-17T05:39:10.000Z</time>
      </trkpt>
      <trkpt lat="42.45037" lon="2.39036">
        <ele>2254.6000976562</ele>
        <time>2023-07-17T05:39:13.000Z</time>
      </trkpt>
      <trkpt lat="42.45032" lon="2.39037">
        <ele>2254</ele>
        <time>2023-07-17T05:39:17.000Z</time>
      </trkpt>
      <trkpt lat="42.45026" lon="2.39039">
        <ele>2253.6000976562</ele>
        <time>2023-07-17T05:39:21.000Z</time>
      </trkpt>
      <trkpt lat="42.45024" lon="2.39041">
        <ele>2253.3999023438</ele>
        <time>2023-07-17T05:39:24.000Z</time>
      </trkpt>
      <trkpt lat="42.45018" lon="2.39046">
        <ele>2253.1999511719</ele>
        <time>2023-07-17T05:39:31.000Z</time>
      </trkpt>
      <trkpt lat="42.45007" lon="2.39051">
        <ele>2252.8000488281</ele>
        <time>2023-07-17T05:39:41.000Z</time>
      </trkpt>
      <trkpt lat="42.45003" lon="2.39052">
        <ele>2252.3999023438</ele>
        <time>2023-07-17T05:39:44.000Z</time>
      </trkpt>
      <trkpt lat="42.44996" lon="2.39053">
        <ele>2251.3999023438</ele>
        <time>2023-07-17T05:39:49.000Z</time>
      </trkpt>
      <trkpt lat="42.44992" lon="2.39053">
        <ele>2251.3999023438</ele>
        <time>2023-07-17T05:39:55.000Z</time>
      </trkpt>
      <trkpt lat="42.44991" lon="2.39053">
        <ele>2251.1999511719</ele>
        <time>2023-07-17T05:39:56.000Z</time>
      </trkpt>
      <trkpt lat="42.44987" lon="2.39055">
        <ele>2250.1999511719</ele>
        <time>2023-07-17T05:40:02.000Z</time>
      </trkpt>
      <trkpt lat="42.44979" lon="2.39058">
        <ele>2249.6000976562</ele>
        <time>2023-07-17T05:40:08.000Z</time>
      </trkpt>
      <trkpt lat="42.44973" lon="2.39063">
        <ele>2249.3999023438</ele>
        <time>2023-07-17T05:40:15.000Z</time>
      </trkpt>
      <trkpt lat="42.44963" lon="2.39065">
        <ele>2249.3999023438</ele>
        <time>2023-07-17T05:40:23.000Z</time>
      </trkpt>
      <trkpt lat="42.44961" lon="2.39066">
        <ele>2249</ele>
        <time>2023-07-17T05:40:25.000Z</time>
      </trkpt>
      <trkpt lat="42.44955" lon="2.39068">
        <ele>2249</ele>
        <time>2023-07-17T05:40:30.000Z</time>
      </trkpt>
      <trkpt lat="42.44951" lon="2.39069">
        <ele>2248.6000976562</ele>
        <time>2023-07-17T05:40:37.000Z</time>
      </trkpt>
      <trkpt lat="42.44951" lon="2.39068">
        <ele>2248.1999511719</ele>
        <time>2023-07-17T05:40:42.000Z</time>
      </trkpt>
      <trkpt lat="42.44952" lon="2.39067">
        <ele>2248.1999511719</ele>
        <time>2023-07-17T05:40:44.000Z</time>
      </trkpt>
      <trkpt lat="42.44953" lon="2.39066">
        <ele>2248.1999511719</ele>
        <time>2023-07-17T05:40:45.000Z</time>
      </trkpt>
      <trkpt lat="42.44953" lon="2.39064">
        <ele>2249.6000976562</ele>
        <time>2023-07-17T05:40:51.000Z</time>
      </trkpt>
      <trkpt lat="42.44953" lon="2.39065">
        <ele>2249</ele>
        <time>2023-07-17T05:40:59.000Z</time>
      </trkpt>
      <trkpt lat="42.44955" lon="2.39065">
        <ele>2248</ele>
        <time>2023-07-17T05:41:06.000Z</time>
      </trkpt>
      <trkpt lat="42.44956" lon="2.39065">
        <ele>2248</ele>
        <time>2023-07-17T05:41:07.000Z</time>
      </trkpt>
      <trkpt lat="42.4496" lon="2.39068">
        <ele>2248</ele>
        <time>2023-07-17T05:41:15.000Z</time>
      </trkpt>
      <trkpt lat="42.44965" lon="2.3907">
        <ele>2247.8000488281</ele>
        <time>2023-07-17T05:41:21.000Z</time>
      </trkpt>
      <trkpt lat="42.44969" lon="2.39075">
        <ele>2248.1999511719</ele>
        <time>2023-07-17T05:41:27.000Z</time>
      </trkpt>
      <trkpt lat="42.44972" lon="2.39078">
        <ele>2249</ele>
        <time>2023-07-17T05:41:31.000Z</time>
      </trkpt>
      <trkpt lat="42.44976" lon="2.39078">
        <ele>2249.8000488281</ele>
        <time>2023-07-17T05:41:34.000Z</time>
      </trkpt>
      <trkpt lat="42.44976" lon="2.39077">
        <ele>2250.1999511719</ele>
        <time>2023-07-17T05:41:35.000Z</time>
      </trkpt>
      <trkpt lat="42.4498" lon="2.39077">
        <ele>2251.6000976562</ele>
        <time>2023-07-17T05:41:38.000Z</time>
      </trkpt>
      <trkpt lat="42.44982" lon="2.39078">
        <ele>2252</ele>
        <time>2023-07-17T05:41:40.000Z</time>
      </trkpt>
      <trkpt lat="42.44989" lon="2.39078">
        <ele>2252.1999511719</ele>
        <time>2023-07-17T05:41:47.000Z</time>
      </trkpt>
      <trkpt lat="42.44989" lon="2.39079">
        <ele>2252.6000976562</ele>
        <time>2023-07-17T05:41:55.000Z</time>
      </trkpt>
      <trkpt lat="42.44989" lon="2.3908">
        <ele>2252.6000976562</ele>
        <time>2023-07-17T05:42:03.000Z</time>
      </trkpt>
      <trkpt lat="42.44988" lon="2.3908">
        <ele>2252.1999511719</ele>
        <time>2023-07-17T05:42:10.000Z</time>
      </trkpt>
      <trkpt lat="42.44989" lon="2.3908">
        <ele>2252.1999511719</ele>
        <time>2023-07-17T05:42:20.000Z</time>
      </trkpt>
      <trkpt lat="42.44988" lon="2.3908">
        <ele>2251.6000976562</ele>
        <time>2023-07-17T05:42:28.000Z</time>
      </trkpt>
      <trkpt lat="42.44988" lon="2.39081">
        <ele>2252</ele>
        <time>2023-07-17T05:42:36.000Z</time>
      </trkpt>
      <trkpt lat="42.44988" lon="2.3908">
        <ele>2252.3999023438</ele>
        <time>2023-07-17T05:42:43.000Z</time>
      </trkpt>
      <trkpt lat="42.44991" lon="2.39079">
        <ele>2252.6000976562</ele>
        <time>2023-07-17T05:42:52.000Z</time>
      </trkpt>
      <trkpt lat="42.44991" lon="2.39075">
        <ele>2252.3999023438</ele>
        <time>2023-07-17T05:42:57.000Z</time>
      </trkpt>
      <trkpt lat="42.44991" lon="2.39078">
        <ele>2252</ele>
        <time>2023-07-17T05:43:05.000Z</time>
      </trkpt>
      <trkpt lat="42.44989" lon="2.39079">
        <ele>2252</ele>
        <time>2023-07-17T05:43:16.000Z</time>
      </trkpt>
      <trkpt lat="42.4499" lon="2.39077">
        <ele>2252.6000976562</ele>
        <time>2023-07-17T05:43:25.000Z</time>
      </trkpt>
      <trkpt lat="42.4499" lon="2.39079">
        <ele>2252.3999023438</ele>
        <time>2023-07-17T05:43:33.000Z</time>
      </trkpt>
      <trkpt lat="42.44991" lon="2.3908">
        <ele>2252.1999511719</ele>
        <time>2023-07-17T05:43:41.000Z</time>
      </trkpt>
      <trkpt lat="42.44992" lon="2.39082">
        <ele>2252.3999023438</ele>
        <time>2023-07-17T05:43:52.000Z</time>
      </trkpt>
      <trkpt lat="42.44991" lon="2.3908">
        <ele>2252.1999511719</ele>
        <time>2023-07-17T05:43:58.000Z</time>
      </trkpt>
      <trkpt lat="42.4499" lon="2.39078">
        <ele>2252.3999023438</ele>
        <time>2023-07-17T05:44:10.000Z</time>
      </trkpt>
      <trkpt lat="42.4499" lon="2.3908">
        <ele>2252.3999023438</ele>
        <time>2023-07-17T05:44:17.000Z</time>
      </trkpt>
      <trkpt lat="42.44989" lon="2.39079">
        <ele>2251.8000488281</ele>
        <time>2023-07-17T05:44:25.000Z</time>
      </trkpt>
      <trkpt lat="42.44989" lon="2.39082">
        <ele>2252</ele>
        <time>2023-07-17T05:44:34.000Z</time>
      </trkpt>
      <trkpt lat="42.44992" lon="2.39085">
        <ele>2252</ele>
        <time>2023-07-17T05:44:42.000Z</time>
      </trkpt>
      <trkpt lat="42.44989" lon="2.3908">
        <ele>2252</ele>
        <time>2023-07-17T05:44:51.000Z</time>
      </trkpt>
      <trkpt lat="42.44988" lon="2.3908">
        <ele>2252.1999511719</ele>
        <time>2023-07-17T05:45:00.000Z</time>
      </trkpt>
      <trkpt lat="42.44988" lon="2.39079">
        <ele>2252.8000488281</ele>
        <time>2023-07-17T05:45:07.000Z</time>
      </trkpt>
      <trkpt lat="42.44988" lon="2.3908">
        <ele>2252.8000488281</ele>
        <time>2023-07-17T05:45:10.000Z</time>
      </trkpt>
      <trkpt lat="42.4499" lon="2.39081">
        <ele>2253</ele>
        <time>2023-07-17T05:45:19.000Z</time>
      </trkpt>
      <trkpt lat="42.44988" lon="2.39082">
        <ele>2252</ele>
        <time>2023-07-17T05:45:29.000Z</time>
      </trkpt>
      <trkpt lat="42.44989" lon="2.39081">
        <ele>2252.3999023438</ele>
        <time>2023-07-17T05:45:40.000Z</time>
      </trkpt>
      <trkpt lat="42.44989" lon="2.39081">
        <ele>2252.6000976562</ele>
        <time>2023-07-17T05:45:50.000Z</time>
      </trkpt>
      <trkpt lat="42.4499" lon="2.39082">
        <ele>2252.3999023438</ele>
        <time>2023-07-17T05:45:59.000Z</time>
      </trkpt>
      <trkpt lat="42.44989" lon="2.39081">
        <ele>2252.6000976562</ele>
        <time>2023-07-17T05:46:08.000Z</time>
      </trkpt>
      <trkpt lat="42.44987" lon="2.39078">
        <ele>2252.6000976562</ele>
        <time>2023-07-17T05:46:19.000Z</time>
      </trkpt>
      <trkpt lat="42.44987" lon="2.3908">
        <ele>2252.6000976562</ele>
        <time>2023-07-17T05:46:28.000Z</time>
      </trkpt>
      <trkpt lat="42.4499" lon="2.39078">
        <ele>2252.8000488281</ele>
        <time>2023-07-17T05:46:35.000Z</time>
      </trkpt>
      <trkpt lat="42.44991" lon="2.39079">
        <ele>2253</ele>
        <time>2023-07-17T05:46:43.000Z</time>
      </trkpt>
      <trkpt lat="42.4499" lon="2.3908">
        <ele>2251.8000488281</ele>
        <time>2023-07-17T05:46:53.000Z</time>
      </trkpt>
      <trkpt lat="42.44989" lon="2.39081">
        <ele>2251.6000976562</ele>
        <time>2023-07-17T05:47:03.000Z</time>
      </trkpt>
      <trkpt lat="42.44989" lon="2.39081">
        <ele>2251.6000976562</ele>
        <time>2023-07-17T05:47:13.000Z</time>
      </trkpt>
      <trkpt lat="42.44991" lon="2.39079">
        <ele>2252.8000488281</ele>
        <time>2023-07-17T05:47:21.000Z</time>
      </trkpt>
      <trkpt lat="42.44991" lon="2.39079">
        <ele>2252.8000488281</ele>
        <time>2023-07-17T05:47:22.000Z</time>
      </trkpt>
      <trkpt lat="42.44991" lon="2.39078">
        <ele>2252.6000976562</ele>
        <time>2023-07-17T05:47:31.000Z</time>
      </trkpt>
      <trkpt lat="42.44992" lon="2.39078">
        <ele>2252.1999511719</ele>
        <time>2023-07-17T05:47:41.000Z</time>
      </trkpt>
      <trkpt lat="42.44992" lon="2.39079">
        <ele>2251.3999023438</ele>
        <time>2023-07-17T05:47:46.000Z</time>
      </trkpt>
      <trkpt lat="42.4499" lon="2.3908">
        <ele>2251.1999511719</ele>
        <time>2023-07-17T05:47:50.000Z</time>
      </trkpt>
      <trkpt lat="42.44987" lon="2.3908">
        <ele>2251.8000488281</ele>
        <time>2023-07-17T05:47:59.000Z</time>
      </trkpt>
      <trkpt lat="42.44986" lon="2.39079">
        <ele>2252.3999023438</ele>
        <time>2023-07-17T05:48:06.000Z</time>
      </trkpt>
      <trkpt lat="42.44986" lon="2.39078">
        <ele>2253</ele>
        <time>2023-07-17T05:48:09.000Z</time>
      </trkpt>
      <trkpt lat="42.44987" lon="2.39081">
        <ele>2253.1999511719</ele>
        <time>2023-07-17T05:48:19.000Z</time>
      </trkpt>
      <trkpt lat="42.44987" lon="2.39083">
        <ele>2252.8000488281</ele>
        <time>2023-07-17T05:48:28.000Z</time>
      </trkpt>
      <trkpt lat="42.44987" lon="2.39083">
        <ele>2252.1999511719</ele>
        <time>2023-07-17T05:48:34.000Z</time>
      </trkpt>
      <trkpt lat="42.44987" lon="2.39079">
        <ele>2252.1999511719</ele>
        <time>2023-07-17T05:48:43.000Z</time>
      </trkpt>
      <trkpt lat="42.44987" lon="2.39077">
        <ele>2252.3999023438</ele>
        <time>2023-07-17T05:48:50.000Z</time>
      </trkpt>
      <trkpt lat="42.44989" lon="2.39082">
        <ele>2253</ele>
        <time>2023-07-17T05:48:59.000Z</time>
      </trkpt>
      <trkpt lat="42.44989" lon="2.39084">
        <ele>2253.3999023438</ele>
        <time>2023-07-17T05:49:06.000Z</time>
      </trkpt>
      <trkpt lat="42.44988" lon="2.39083">
        <ele>2253.6000976562</ele>
        <time>2023-07-17T05:49:14.000Z</time>
      </trkpt>
      <trkpt lat="42.44988" lon="2.39083">
        <ele>2253.6000976562</ele>
        <time>2023-07-17T05:49:15.000Z</time>
      </trkpt>
      <trkpt lat="42.44988" lon="2.39081">
        <ele>2253</ele>
        <time>2023-07-17T05:49:24.000Z</time>
      </trkpt>
      <trkpt lat="42.44987" lon="2.39076">
        <ele>2253.1999511719</ele>
        <time>2023-07-17T05:49:31.000Z</time>
      </trkpt>
      <trkpt lat="42.44989" lon="2.39079">
        <ele>2253.3999023438</ele>
        <time>2023-07-17T05:49:40.000Z</time>
      </trkpt>
      <trkpt lat="42.44989" lon="2.39081">
        <ele>2253</ele>
        <time>2023-07-17T05:49:49.000Z</time>
      </trkpt>
      <trkpt lat="42.44989" lon="2.39081">
        <ele>2252.6000976562</ele>
        <time>2023-07-17T05:49:58.000Z</time>
      </trkpt>
      <trkpt lat="42.44991" lon="2.39081">
        <ele>2252.6000976562</ele>
        <time>2023-07-17T05:50:04.000Z</time>
      </trkpt>
      <trkpt lat="42.44992" lon="2.39082">
        <ele>2252.6000976562</ele>
        <time>2023-07-17T05:50:06.000Z</time>
      </trkpt>
      <trkpt lat="42.44989" lon="2.3908">
        <ele>2252.8000488281</ele>
        <time>2023-07-17T05:50:16.000Z</time>
      </trkpt>
      <trkpt lat="42.44989" lon="2.3908">
        <ele>2252.3999023438</ele>
        <time>2023-07-17T05:50:25.000Z</time>
      </trkpt>
      <trkpt lat="42.44989" lon="2.3908">
        <ele>2252.6000976562</ele>
        <time>2023-07-17T05:50:32.000Z</time>
      </trkpt>
      <trkpt lat="42.4499" lon="2.39083">
        <ele>2252.6000976562</ele>
        <time>2023-07-17T05:50:42.000Z</time>
      </trkpt>
      <trkpt lat="42.44989" lon="2.3908">
        <ele>2253</ele>
        <time>2023-07-17T05:50:55.000Z</time>
      </trkpt>
      <trkpt lat="42.44989" lon="2.39078">
        <ele>2253.6000976562</ele>
        <time>2023-07-17T05:51:02.000Z</time>
      </trkpt>
      <trkpt lat="42.44989" lon="2.39079">
        <ele>2253</ele>
        <time>2023-07-17T05:51:11.000Z</time>
      </trkpt>
      <trkpt lat="42.44988" lon="2.3908">
        <ele>2252.6000976562</ele>
        <time>2023-07-17T05:51:21.000Z</time>
      </trkpt>
      <trkpt lat="42.44988" lon="2.3908">
        <ele>2252.3999023438</ele>
        <time>2023-07-17T05:51:22.000Z</time>
      </trkpt>
      <trkpt lat="42.44989" lon="2.39079">
        <ele>2252.6000976562</ele>
        <time>2023-07-17T05:51:31.000Z</time>
      </trkpt>
      <trkpt lat="42.44989" lon="2.39078">
        <ele>2252.1999511719</ele>
        <time>2023-07-17T05:51:38.000Z</time>
      </trkpt>
      <trkpt lat="42.44989" lon="2.39079">
        <ele>2252.3999023438</ele>
        <time>2023-07-17T05:51:47.000Z</time>
      </trkpt>
      <trkpt lat="42.4499" lon="2.39079">
        <ele>2253</ele>
        <time>2023-07-17T05:51:57.000Z</time>
      </trkpt>
      <trkpt lat="42.44991" lon="2.3908">
        <ele>2253.1999511719</ele>
        <time>2023-07-17T05:52:05.000Z</time>
      </trkpt>
      <trkpt lat="42.44989" lon="2.39079">
        <ele>2253.1999511719</ele>
        <time>2023-07-17T05:52:14.000Z</time>
      </trkpt>
      <trkpt lat="42.44988" lon="2.39078">
        <ele>2253.6000976562</ele>
        <time>2023-07-17T05:52:17.000Z</time>
      </trkpt>
      <trkpt lat="42.4499" lon="2.39078">
        <ele>2253.8000488281</ele>
        <time>2023-07-17T05:52:22.000Z</time>
      </trkpt>
      <trkpt lat="42.4499" lon="2.39078">
        <ele>2253.8000488281</ele>
        <time>2023-07-17T05:52:29.000Z</time>
      </trkpt>
      <trkpt lat="42.44989" lon="2.39077">
        <ele>2253</ele>
        <time>2023-07-17T05:52:36.000Z</time>
      </trkpt>
      <trkpt lat="42.44988" lon="2.39076">
        <ele>2253.6000976562</ele>
        <time>2023-07-17T05:52:47.000Z</time>
      </trkpt>
      <trkpt lat="42.44987" lon="2.3908">
        <ele>2253.8000488281</ele>
        <time>2023-07-17T05:52:56.000Z</time>
      </trkpt>
      <trkpt lat="42.44988" lon="2.39079">
        <ele>2253.6000976562</ele>
        <time>2023-07-17T05:53:04.000Z</time>
      </trkpt>
      <trkpt lat="42.44989" lon="2.39079">
        <ele>2252.8000488281</ele>
        <time>2023-07-17T05:53:15.000Z</time>
      </trkpt>
      <trkpt lat="42.44985" lon="2.3908">
        <ele>2253.1999511719</ele>
        <time>2023-07-17T05:53:24.000Z</time>
      </trkpt>
      <trkpt lat="42.44988" lon="2.3908">
        <ele>2253</ele>
        <time>2023-07-17T05:53:32.000Z</time>
      </trkpt>
      <trkpt lat="42.44993" lon="2.3908">
        <ele>2253.1999511719</ele>
        <time>2023-07-17T05:53:43.000Z</time>
      </trkpt>
      <trkpt lat="42.4499" lon="2.39081">
        <ele>2253.6000976562</ele>
        <time>2023-07-17T05:53:54.000Z</time>
      </trkpt>
      <trkpt lat="42.4499" lon="2.39077">
        <ele>2254.1999511719</ele>
        <time>2023-07-17T05:54:01.000Z</time>
      </trkpt>
      <trkpt lat="42.4499" lon="2.3908">
        <ele>2254.1999511719</ele>
        <time>2023-07-17T05:54:11.000Z</time>
      </trkpt>
      <trkpt lat="42.44991" lon="2.39082">
        <ele>2253.3999023438</ele>
        <time>2023-07-17T05:54:23.000Z</time>
      </trkpt>
      <trkpt lat="42.44988" lon="2.39085">
        <ele>2253.3999023438</ele>
        <time>2023-07-17T05:54:33.000Z</time>
      </trkpt>
      <trkpt lat="42.44989" lon="2.39083">
        <ele>2253.1999511719</ele>
        <time>2023-07-17T05:54:43.000Z</time>
      </trkpt>
      <trkpt lat="42.44988" lon="2.39084">
        <ele>2253.8000488281</ele>
        <time>2023-07-17T05:54:54.000Z</time>
      </trkpt>
      <trkpt lat="42.44988" lon="2.39084">
        <ele>2254.1999511719</ele>
        <time>2023-07-17T05:55:05.000Z</time>
      </trkpt>
      <trkpt lat="42.44989" lon="2.39085">
        <ele>2253.6000976562</ele>
        <time>2023-07-17T05:55:15.000Z</time>
      </trkpt>
      <trkpt lat="42.44989" lon="2.39083">
        <ele>2253.8000488281</ele>
        <time>2023-07-17T05:55:25.000Z</time>
      </trkpt>
      <trkpt lat="42.44987" lon="2.39081">
        <ele>2253</ele>
        <time>2023-07-17T05:55:33.000Z</time>
      </trkpt>
      <trkpt lat="42.4499" lon="2.39081">
        <ele>2253.6000976562</ele>
        <time>2023-07-17T05:55:42.000Z</time>
      </trkpt>
      <trkpt lat="42.4499" lon="2.3908">
        <ele>2253.6000976562</ele>
        <time>2023-07-17T05:55:51.000Z</time>
      </trkpt>
      <trkpt lat="42.44991" lon="2.3908">
        <ele>2253.3999023438</ele>
        <time>2023-07-17T05:56:00.000Z</time>
      </trkpt>
      <trkpt lat="42.44989" lon="2.3908">
        <ele>2253.8000488281</ele>
        <time>2023-07-17T05:56:08.000Z</time>
      </trkpt>
      <trkpt lat="42.44988" lon="2.39079">
        <ele>2254</ele>
        <time>2023-07-17T05:56:16.000Z</time>
      </trkpt>
      <trkpt lat="42.4499" lon="2.39084">
        <ele>2253.8000488281</ele>
        <time>2023-07-17T05:56:24.000Z</time>
      </trkpt>
      <trkpt lat="42.4499" lon="2.39082">
        <ele>2253.3999023438</ele>
        <time>2023-07-17T05:56:32.000Z</time>
      </trkpt>
      <trkpt lat="42.4499" lon="2.39081">
        <ele>2253.3999023438</ele>
        <time>2023-07-17T05:56:43.000Z</time>
      </trkpt>
      <trkpt lat="42.4499" lon="2.39079">
        <ele>2253.6000976562</ele>
        <time>2023-07-17T05:56:51.000Z</time>
      </trkpt>
      <trkpt lat="42.4499" lon="2.39078">
        <ele>2253</ele>
        <time>2023-07-17T05:56:59.000Z</time>
      </trkpt>
      <trkpt lat="42.44989" lon="2.39081">
        <ele>2253.6000976562</ele>
        <time>2023-07-17T05:57:07.000Z</time>
      </trkpt>
      <trkpt lat="42.44989" lon="2.39081">
        <ele>2253.8000488281</ele>
        <time>2023-07-17T05:57:16.000Z</time>
      </trkpt>
      <trkpt lat="42.44991" lon="2.39083">
        <ele>2254</ele>
        <time>2023-07-17T05:57:25.000Z</time>
      </trkpt>
      <trkpt lat="42.44989" lon="2.39079">
        <ele>2253.6000976562</ele>
        <time>2023-07-17T05:57:34.000Z</time>
      </trkpt>
      <trkpt lat="42.44991" lon="2.3908">
        <ele>2253.3999023438</ele>
        <time>2023-07-17T05:57:43.000Z</time>
      </trkpt>
      <trkpt lat="42.4499" lon="2.39079">
        <ele>2253.6000976562</ele>
        <time>2023-07-17T05:57:51.000Z</time>
      </trkpt>
      <trkpt lat="42.44988" lon="2.3908">
        <ele>2254.1999511719</ele>
        <time>2023-07-17T05:58:01.000Z</time>
      </trkpt>
      <trkpt lat="42.4499" lon="2.39079">
        <ele>2254.3999023438</ele>
        <time>2023-07-17T05:58:09.000Z</time>
      </trkpt>
      <trkpt lat="42.44989" lon="2.39079">
        <ele>2254.6000976562</ele>
        <time>2023-07-17T05:58:13.000Z</time>
      </trkpt>
      <trkpt lat="42.44988" lon="2.39079">
        <ele>2254.6000976562</ele>
        <time>2023-07-17T05:58:17.000Z</time>
      </trkpt>
      <trkpt lat="42.4499" lon="2.39078">
        <ele>2254</ele>
        <time>2023-07-17T05:58:24.000Z</time>
      </trkpt>
      <trkpt lat="42.4499" lon="2.39079">
        <ele>2254.1999511719</ele>
        <time>2023-07-17T05:58:31.000Z</time>
      </trkpt>
      <trkpt lat="42.4499" lon="2.39078">
        <ele>2254.1999511719</ele>
        <time>2023-07-17T05:58:37.000Z</time>
      </trkpt>
      <trkpt lat="42.44991" lon="2.39078">
        <ele>2254.1999511719</ele>
        <time>2023-07-17T05:58:44.000Z</time>
      </trkpt>
      <trkpt lat="42.4499" lon="2.39078">
        <ele>2253.6000976562</ele>
        <time>2023-07-17T05:58:50.000Z</time>
      </trkpt>
      <trkpt lat="42.4499" lon="2.39079">
        <ele>2253.3999023438</ele>
        <time>2023-07-17T05:58:53.000Z</time>
      </trkpt>
      <trkpt lat="42.44988" lon="2.3908">
        <ele>2252.6000976562</ele>
        <time>2023-07-17T05:58:59.000Z</time>
      </trkpt>
      <trkpt lat="42.44988" lon="2.39079">
        <ele>2252.3999023438</ele>
        <time>2023-07-17T05:59:00.000Z</time>
      </trkpt>
      <trkpt lat="42.44989" lon="2.39079">
        <ele>2253.6000976562</ele>
        <time>2023-07-17T05:59:06.000Z</time>
      </trkpt>
      <trkpt lat="42.44989" lon="2.39079">
        <ele>2253.6000976562</ele>
        <time>2023-07-17T05:59:08.000Z</time>
      </trkpt>
      <trkpt lat="42.44988" lon="2.39078">
        <ele>2254</ele>
        <time>2023-07-17T05:59:16.000Z</time>
      </trkpt>
      <trkpt lat="42.4499" lon="2.39081">
        <ele>2253.6000976562</ele>
        <time>2023-07-17T05:59:24.000Z</time>
      </trkpt>
      <trkpt lat="42.44986" lon="2.39079">
        <ele>2253</ele>
        <time>2023-07-17T05:59:32.000Z</time>
      </trkpt>
      <trkpt lat="42.44985" lon="2.39078">
        <ele>2253.3999023438</ele>
        <time>2023-07-17T05:59:41.000Z</time>
      </trkpt>
      <trkpt lat="42.44989" lon="2.39077">
        <ele>2253</ele>
        <time>2023-07-17T05:59:48.000Z</time>
      </trkpt>
      <trkpt lat="42.44988" lon="2.39079">
        <ele>2253</ele>
        <time>2023-07-17T05:59:57.000Z</time>
      </trkpt>
      <trkpt lat="42.44987" lon="2.39078">
        <ele>2253.3999023438</ele>
        <time>2023-07-17T06:00:08.000Z</time>
      </trkpt>
      <trkpt lat="42.44988" lon="2.39078">
        <ele>2253.8000488281</ele>
        <time>2023-07-17T06:00:19.000Z</time>
      </trkpt>
      <trkpt lat="42.44986" lon="2.39077">
        <ele>2253.1999511719</ele>
        <time>2023-07-17T06:00:26.000Z</time>
      </trkpt>
      <trkpt lat="42.44986" lon="2.39078">
        <ele>2253.6000976562</ele>
        <time>2023-07-17T06:00:35.000Z</time>
      </trkpt>
      <trkpt lat="42.44986" lon="2.39077">
        <ele>2253.6000976562</ele>
        <time>2023-07-17T06:00:42.000Z</time>
      </trkpt>
      <trkpt lat="42.44988" lon="2.39078">
        <ele>2253.8000488281</ele>
        <time>2023-07-17T06:00:51.000Z</time>
      </trkpt>
      <trkpt lat="42.44988" lon="2.39078">
        <ele>2253</ele>
        <time>2023-07-17T06:01:00.000Z</time>
      </trkpt>
      <trkpt lat="42.44987" lon="2.3908">
        <ele>2252.6000976562</ele>
        <time>2023-07-17T06:01:09.000Z</time>
      </trkpt>
      <trkpt lat="42.44988" lon="2.39081">
        <ele>2252.8000488281</ele>
        <time>2023-07-17T06:01:17.000Z</time>
      </trkpt>
      <trkpt lat="42.44989" lon="2.39079">
        <ele>2253.1999511719</ele>
        <time>2023-07-17T06:01:28.000Z</time>
      </trkpt>
      <trkpt lat="42.44987" lon="2.39078">
        <ele>2253.6000976562</ele>
        <time>2023-07-17T06:01:37.000Z</time>
      </trkpt>
      <trkpt lat="42.44987" lon="2.39078">
        <ele>2253.6000976562</ele>
        <time>2023-07-17T06:01:45.000Z</time>
      </trkpt>
      <trkpt lat="42.44986" lon="2.39078">
        <ele>2253.8000488281</ele>
        <time>2023-07-17T06:01:54.000Z</time>
      </trkpt>
      <trkpt lat="42.44988" lon="2.39079">
        <ele>2253.6000976562</ele>
        <time>2023-07-17T06:02:00.000Z</time>
      </trkpt>
      <trkpt lat="42.44988" lon="2.39077">
        <ele>2253.1999511719</ele>
        <time>2023-07-17T06:02:06.000Z</time>
      </trkpt>
      <trkpt lat="42.44988" lon="2.39078">
        <ele>2253</ele>
        <time>2023-07-17T06:02:14.000Z</time>
      </trkpt>
      <trkpt lat="42.44987" lon="2.3908">
        <ele>2252.3999023438</ele>
        <time>2023-07-17T06:02:18.000Z</time>
      </trkpt>
      <trkpt lat="42.44986" lon="2.39081">
        <ele>2252.3999023438</ele>
        <time>2023-07-17T06:02:21.000Z</time>
      </trkpt>
      <trkpt lat="42.44981" lon="2.39079">
        <ele>2252</ele>
        <time>2023-07-17T06:02:28.000Z</time>
      </trkpt>
      <trkpt lat="42.44979" lon="2.39078">
        <ele>2251.3999023438</ele>
        <time>2023-07-17T06:02:31.000Z</time>
      </trkpt>
      <trkpt lat="42.44976" lon="2.39077">
        <ele>2251</ele>
        <time>2023-07-17T06:02:36.000Z</time>
      </trkpt>
      <trkpt lat="42.4497" lon="2.39073">
        <ele>2250.1999511719</ele>
        <time>2023-07-17T06:02:43.000Z</time>
      </trkpt>
      <trkpt lat="42.4497" lon="2.39071">
        <ele>2250.3999023438</ele>
        <time>2023-07-17T06:02:50.000Z</time>
      </trkpt>
      <trkpt lat="42.4497" lon="2.39072">
        <ele>2250.8000488281</ele>
        <time>2023-07-17T06:03:01.000Z</time>
      </trkpt>
      <trkpt lat="42.44971" lon="2.39074">
        <ele>2251.1999511719</ele>
        <time>2023-07-17T06:03:08.000Z</time>
      </trkpt>
      <trkpt lat="42.4497" lon="2.39073">
        <ele>2251.3999023438</ele>
        <time>2023-07-17T06:03:13.000Z</time>
      </trkpt>
      <trkpt lat="42.44963" lon="2.39077">
        <ele>2250.8000488281</ele>
        <time>2023-07-17T06:03:19.000Z</time>
      </trkpt>
      <trkpt lat="42.44959" lon="2.39083">
        <ele>2250.1999511719</ele>
        <time>2023-07-17T06:03:25.000Z</time>
      </trkpt>
      <trkpt lat="42.44958" lon="2.39085">
        <ele>2249.8000488281</ele>
        <time>2023-07-17T06:03:26.000Z</time>
      </trkpt>
      <trkpt lat="42.44956" lon="2.39088">
        <ele>2249</ele>
        <time>2023-07-17T06:03:29.000Z</time>
      </trkpt>
      <trkpt lat="42.44956" lon="2.39094">
        <ele>2248.1999511719</ele>
        <time>2023-07-17T06:03:36.000Z</time>
      </trkpt>
      <trkpt lat="42.44954" lon="2.3909">
        <ele>2249.1999511719</ele>
        <time>2023-07-17T06:03:43.000Z</time>
      </trkpt>
      <trkpt lat="42.44956" lon="2.39084">
        <ele>2249.3999023438</ele>
        <time>2023-07-17T06:03:50.000Z</time>
      </trkpt>
      <trkpt lat="42.44957" lon="2.3908">
        <ele>2250.1999511719</ele>
        <time>2023-07-17T06:03:54.000Z</time>
      </trkpt>
      <trkpt lat="42.44958" lon="2.39075">
        <ele>2250.3999023438</ele>
        <time>2023-07-17T06:03:58.000Z</time>
      </trkpt>
      <trkpt lat="42.4496" lon="2.39064">
        <ele>2250.6000976562</ele>
        <time>2023-07-17T06:04:06.000Z</time>
      </trkpt>
      <trkpt lat="42.4496" lon="2.39053">
        <ele>2250.6000976562</ele>
        <time>2023-07-17T06:04:13.000Z</time>
      </trkpt>
      <trkpt lat="42.44963" lon="2.39043">
        <ele>2250.3999023438</ele>
        <time>2023-07-17T06:04:21.000Z</time>
      </trkpt>
      <trkpt lat="42.44966" lon="2.39029">
        <ele>2250.6000976562</ele>
        <time>2023-07-17T06:04:31.000Z</time>
      </trkpt>
      <trkpt lat="42.44964" lon="2.39019">
        <ele>2250.8000488281</ele>
        <time>2023-07-17T06:04:40.000Z</time>
      </trkpt>
      <trkpt lat="42.44956" lon="2.3902">
        <ele>2251</ele>
        <time>2023-07-17T06:04:46.000Z</time>
      </trkpt>
      <trkpt lat="42.44955" lon="2.39021">
        <ele>2251.1999511719</ele>
        <time>2023-07-17T06:04:48.000Z</time>
      </trkpt>
      <trkpt lat="42.44951" lon="2.39024">
        <ele>2251.1999511719</ele>
        <time>2023-07-17T06:04:55.000Z</time>
      </trkpt>
      <trkpt lat="42.44949" lon="2.39022">
        <ele>2250.8000488281</ele>
        <time>2023-07-17T06:04:59.000Z</time>
      </trkpt>
      <trkpt lat="42.44947" lon="2.39018">
        <ele>2250.3999023438</ele>
        <time>2023-07-17T06:05:02.000Z</time>
      </trkpt>
      <trkpt lat="42.44947" lon="2.39012">
        <ele>2250.6000976562</ele>
        <time>2023-07-17T06:05:11.000Z</time>
      </trkpt>
      <trkpt lat="42.44946" lon="2.39002">
        <ele>2250.1999511719</ele>
        <time>2023-07-17T06:05:19.000Z</time>
      </trkpt>
      <trkpt lat="42.44949" lon="2.38996">
        <ele>2251.1999511719</ele>
        <time>2023-07-17T06:05:27.000Z</time>
      </trkpt>
      <trkpt lat="42.44951" lon="2.3898">
        <ele>2250.3999023438</ele>
        <time>2023-07-17T06:05:38.000Z</time>
      </trkpt>
      <trkpt lat="42.44951" lon="2.38972">
        <ele>2251</ele>
        <time>2023-07-17T06:05:44.000Z</time>
      </trkpt>
      <trkpt lat="42.4495" lon="2.38963">
        <ele>2250.3999023438</ele>
        <time>2023-07-17T06:05:50.000Z</time>
      </trkpt>
      <trkpt lat="42.4495" lon="2.38962">
        <ele>2250.1999511719</ele>
        <time>2023-07-17T06:05:51.000Z</time>
      </trkpt>
      <trkpt lat="42.44953" lon="2.38951">
        <ele>2249.6000976562</ele>
        <time>2023-07-17T06:05:58.000Z</time>
      </trkpt>
      <trkpt lat="42.44953" lon="2.3894">
        <ele>2250.3999023438</ele>
        <time>2023-07-17T06:06:07.000Z</time>
      </trkpt>
      <trkpt lat="42.44952" lon="2.38933">
        <ele>2251</ele>
        <time>2023-07-17T06:06:13.000Z</time>
      </trkpt>
      <trkpt lat="42.4495" lon="2.38923">
        <ele>2250.8000488281</ele>
        <time>2023-07-17T06:06:20.000Z</time>
      </trkpt>
      <trkpt lat="42.44947" lon="2.38911">
        <ele>2250.8000488281</ele>
        <time>2023-07-17T06:06:28.000Z</time>
      </trkpt>
      <trkpt lat="42.44947" lon="2.38902">
        <ele>2250.8000488281</ele>
        <time>2023-07-17T06:06:35.000Z</time>
      </trkpt>
      <trkpt lat="42.44946" lon="2.3889">
        <ele>2250.1999511719</ele>
        <time>2023-07-17T06:06:43.000Z</time>
      </trkpt>
      <trkpt lat="42.44945" lon="2.38883">
        <ele>2250.6000976562</ele>
        <time>2023-07-17T06:06:48.000Z</time>
      </trkpt>
      <trkpt lat="42.44944" lon="2.38878">
        <ele>2250.8000488281</ele>
        <time>2023-07-17T06:06:51.000Z</time>
      </trkpt>
      <trkpt lat="42.44944" lon="2.38866">
        <ele>2251</ele>
        <time>2023-07-17T06:06:59.000Z</time>
      </trkpt>
      <trkpt lat="42.44944" lon="2.38861">
        <ele>2251.1999511719</ele>
        <time>2023-07-17T06:07:02.000Z</time>
      </trkpt>
      <trkpt lat="42.44944" lon="2.38856">
        <ele>2251.6000976562</ele>
        <time>2023-07-17T06:07:06.000Z</time>
      </trkpt>
      <trkpt lat="42.44944" lon="2.38847">
        <ele>2251.1999511719</ele>
        <time>2023-07-17T06:07:14.000Z</time>
      </trkpt>
      <trkpt lat="42.44943" lon="2.38836">
        <ele>2250.3999023438</ele>
        <time>2023-07-17T06:07:21.000Z</time>
      </trkpt>
      <trkpt lat="42.44945" lon="2.38826">
        <ele>2250.6000976562</ele>
        <time>2023-07-17T06:07:29.000Z</time>
      </trkpt>
      <trkpt lat="42.44946" lon="2.3882">
        <ele>2250.1999511719</ele>
        <time>2023-07-17T06:07:34.000Z</time>
      </trkpt>
      <trkpt lat="42.44947" lon="2.38815">
        <ele>2250.1999511719</ele>
        <time>2023-07-17T06:07:37.000Z</time>
      </trkpt>
      <trkpt lat="42.44946" lon="2.38811">
        <ele>2250.3999023438</ele>
        <time>2023-07-17T06:07:41.000Z</time>
      </trkpt>
      <trkpt lat="42.44946" lon="2.38809">
        <ele>2250.6000976562</ele>
        <time>2023-07-17T06:07:44.000Z</time>
      </trkpt>
      <trkpt lat="42.44946" lon="2.38806">
        <ele>2250.3999023438</ele>
        <time>2023-07-17T06:07:52.000Z</time>
      </trkpt>
      <trkpt lat="42.44947" lon="2.38797">
        <ele>2249.6000976562</ele>
        <time>2023-07-17T06:08:01.000Z</time>
      </trkpt>
      <trkpt lat="42.44948" lon="2.38792">
        <ele>2249.1999511719</ele>
        <time>2023-07-17T06:08:05.000Z</time>
      </trkpt>
      <trkpt lat="42.44948" lon="2.38786">
        <ele>2249</ele>
        <time>2023-07-17T06:08:10.000Z</time>
      </trkpt>
      <trkpt lat="42.44947" lon="2.38781">
        <ele>2248</ele>
        <time>2023-07-17T06:08:16.000Z</time>
      </trkpt>
      <trkpt lat="42.44947" lon="2.3878">
        <ele>2248</ele>
        <time>2023-07-17T06:08:17.000Z</time>
      </trkpt>
      <trkpt lat="42.44946" lon="2.38775">
        <ele>2248.1999511719</ele>
        <time>2023-07-17T06:08:22.000Z</time>
      </trkpt>
      <trkpt lat="42.44944" lon="2.38761">
        <ele>2247.3999023438</ele>
        <time>2023-07-17T06:08:32.000Z</time>
      </trkpt>
      <trkpt lat="42.44942" lon="2.38753">
        <ele>2247</ele>
        <time>2023-07-17T06:08:36.000Z</time>
      </trkpt>
      <trkpt lat="42.44942" lon="2.38744">
        <ele>2246.3999023438</ele>
        <time>2023-07-17T06:08:42.000Z</time>
      </trkpt>
      <trkpt lat="42.44942" lon="2.38743">
        <ele>2246.1999511719</ele>
        <time>2023-07-17T06:08:48.000Z</time>
      </trkpt>
      <trkpt lat="42.44939" lon="2.38733">
        <ele>2245.6000976562</ele>
        <time>2023-07-17T06:08:58.000Z</time>
      </trkpt>
      <trkpt lat="42.44936" lon="2.38725">
        <ele>2244.8000488281</ele>
        <time>2023-07-17T06:09:06.000Z</time>
      </trkpt>
      <trkpt lat="42.44936" lon="2.38724">
        <ele>2244.6000976562</ele>
        <time>2023-07-17T06:09:07.000Z</time>
      </trkpt>
      <trkpt lat="42.44932" lon="2.38713">
        <ele>2244.3999023438</ele>
        <time>2023-07-17T06:09:16.000Z</time>
      </trkpt>
      <trkpt lat="42.44928" lon="2.38703">
        <ele>2244.8000488281</ele>
        <time>2023-07-17T06:09:25.000Z</time>
      </trkpt>
      <trkpt lat="42.44923" lon="2.3869">
        <ele>2244.1999511719</ele>
        <time>2023-07-17T06:09:35.000Z</time>
      </trkpt>
      <trkpt lat="42.4492" lon="2.3868">
        <ele>2244</ele>
        <time>2023-07-17T06:09:42.000Z</time>
      </trkpt>
      <trkpt lat="42.44919" lon="2.38668">
        <ele>2243.8000488281</ele>
        <time>2023-07-17T06:09:51.000Z</time>
      </trkpt>
      <trkpt lat="42.44919" lon="2.38666">
        <ele>2243.6000976562</ele>
        <time>2023-07-17T06:09:52.000Z</time>
      </trkpt>
      <trkpt lat="42.44919" lon="2.38657">
        <ele>2243</ele>
        <time>2023-07-17T06:10:00.000Z</time>
      </trkpt>
      <trkpt lat="42.44918" lon="2.38649">
        <ele>2242.6000976562</ele>
        <time>2023-07-17T06:10:06.000Z</time>
      </trkpt>
      <trkpt lat="42.44918" lon="2.38645">
        <ele>2242.3999023438</ele>
        <time>2023-07-17T06:10:09.000Z</time>
      </trkpt>
      <trkpt lat="42.44917" lon="2.38632">
        <ele>2242.6000976562</ele>
        <time>2023-07-17T06:10:17.000Z</time>
      </trkpt>
      <trkpt lat="42.44915" lon="2.38616">
        <ele>2242.6000976562</ele>
        <time>2023-07-17T06:10:27.000Z</time>
      </trkpt>
      <trkpt lat="42.44914" lon="2.38605">
        <ele>2241.8000488281</ele>
        <time>2023-07-17T06:10:35.000Z</time>
      </trkpt>
      <trkpt lat="42.44912" lon="2.38592">
        <ele>2241.6000976562</ele>
        <time>2023-07-17T06:10:43.000Z</time>
      </trkpt>
      <trkpt lat="42.44911" lon="2.38589">
        <ele>2241.3999023438</ele>
        <time>2023-07-17T06:10:45.000Z</time>
      </trkpt>
      <trkpt lat="42.44908" lon="2.38575">
        <ele>2241</ele>
        <time>2023-07-17T06:10:54.000Z</time>
      </trkpt>
      <trkpt lat="42.44905" lon="2.38563">
        <ele>2241.1999511719</ele>
        <time>2023-07-17T06:11:02.000Z</time>
      </trkpt>
      <trkpt lat="42.44904" lon="2.38552">
        <ele>2241.1999511719</ele>
        <time>2023-07-17T06:11:10.000Z</time>
      </trkpt>
      <trkpt lat="42.44901" lon="2.3854">
        <ele>2241.1999511719</ele>
        <time>2023-07-17T06:11:17.000Z</time>
      </trkpt>
      <trkpt lat="42.44896" lon="2.38523">
        <ele>2241</ele>
        <time>2023-07-17T06:11:28.000Z</time>
      </trkpt>
      <trkpt lat="42.44892" lon="2.3851">
        <ele>2241</ele>
        <time>2023-07-17T06:11:37.000Z</time>
      </trkpt>
      <trkpt lat="42.44887" lon="2.38495">
        <ele>2242</ele>
        <time>2023-07-17T06:11:48.000Z</time>
      </trkpt>
      <trkpt lat="42.44883" lon="2.38483">
        <ele>2242</ele>
        <time>2023-07-17T06:11:56.000Z</time>
      </trkpt>
      <trkpt lat="42.44877" lon="2.3847">
        <ele>2240.3999023438</ele>
        <time>2023-07-17T06:12:06.000Z</time>
      </trkpt>
      <trkpt lat="42.44869" lon="2.38457">
        <ele>2240.3999023438</ele>
        <time>2023-07-17T06:12:15.000Z</time>
      </trkpt>
      <trkpt lat="42.44864" lon="2.38443">
        <ele>2240.6000976562</ele>
        <time>2023-07-17T06:12:24.000Z</time>
      </trkpt>
      <trkpt lat="42.44861" lon="2.38428">
        <ele>2240</ele>
        <time>2023-07-17T06:12:33.000Z</time>
      </trkpt>
      <trkpt lat="42.4486" lon="2.38423">
        <ele>2239.3999023438</ele>
        <time>2023-07-17T06:12:36.000Z</time>
      </trkpt>
      <trkpt lat="42.44859" lon="2.38417">
        <ele>2239.1999511719</ele>
        <time>2023-07-17T06:12:40.000Z</time>
      </trkpt>
      <trkpt lat="42.44857" lon="2.38404">
        <ele>2239</ele>
        <time>2023-07-17T06:12:49.000Z</time>
      </trkpt>
      <trkpt lat="42.44853" lon="2.3839">
        <ele>2239.1999511719</ele>
        <time>2023-07-17T06:12:58.000Z</time>
      </trkpt>
      <trkpt lat="42.44852" lon="2.38378">
        <ele>2238.3999023438</ele>
        <time>2023-07-17T06:13:06.000Z</time>
      </trkpt>
      <trkpt lat="42.44852" lon="2.38377">
        <ele>2238.1999511719</ele>
        <time>2023-07-17T06:13:07.000Z</time>
      </trkpt>
      <trkpt lat="42.44852" lon="2.38368">
        <ele>2237.1999511719</ele>
        <time>2023-07-17T06:13:14.000Z</time>
      </trkpt>
      <trkpt lat="42.44852" lon="2.38365">
        <ele>2237</ele>
        <time>2023-07-17T06:13:16.000Z</time>
      </trkpt>
      <trkpt lat="42.44851" lon="2.38348">
        <ele>2236.3999023438</ele>
        <time>2023-07-17T06:13:27.000Z</time>
      </trkpt>
      <trkpt lat="42.44851" lon="2.38338">
        <ele>2236.3999023438</ele>
        <time>2023-07-17T06:13:35.000Z</time>
      </trkpt>
      <trkpt lat="42.44851" lon="2.38331">
        <ele>2236.1999511719</ele>
        <time>2023-07-17T06:13:40.000Z</time>
      </trkpt>
      <trkpt lat="42.44851" lon="2.38329">
        <ele>2236</ele>
        <time>2023-07-17T06:13:42.000Z</time>
      </trkpt>
      <trkpt lat="42.44849" lon="2.3832">
        <ele>2236.6000976562</ele>
        <time>2023-07-17T06:13:49.000Z</time>
      </trkpt>
      <trkpt lat="42.44848" lon="2.38311">
        <ele>2235.1999511719</ele>
        <time>2023-07-17T06:13:57.000Z</time>
      </trkpt>
      <trkpt lat="42.44845" lon="2.38299">
        <ele>2236.1999511719</ele>
        <time>2023-07-17T06:14:07.000Z</time>
      </trkpt>
      <trkpt lat="42.44845" lon="2.38293">
        <ele>2235.8000488281</ele>
        <time>2023-07-17T06:14:15.000Z</time>
      </trkpt>
      <trkpt lat="42.44845" lon="2.38281">
        <ele>2235.8000488281</ele>
        <time>2023-07-17T06:14:24.000Z</time>
      </trkpt>
      <trkpt lat="42.44845" lon="2.38278">
        <ele>2235</ele>
        <time>2023-07-17T06:14:27.000Z</time>
      </trkpt>
      <trkpt lat="42.44845" lon="2.38268">
        <ele>2234.3999023438</ele>
        <time>2023-07-17T06:14:33.000Z</time>
      </trkpt>
      <trkpt lat="42.44845" lon="2.38263">
        <ele>2234.1999511719</ele>
        <time>2023-07-17T06:14:37.000Z</time>
      </trkpt>
      <trkpt lat="42.44845" lon="2.3826">
        <ele>2234.1999511719</ele>
        <time>2023-07-17T06:14:40.000Z</time>
      </trkpt>
      <trkpt lat="42.44845" lon="2.38251">
        <ele>2233.8000488281</ele>
        <time>2023-07-17T06:14:46.000Z</time>
      </trkpt>
      <trkpt lat="42.44845" lon="2.3825">
        <ele>2233.8000488281</ele>
        <time>2023-07-17T06:14:47.000Z</time>
      </trkpt>
      <trkpt lat="42.44844" lon="2.38237">
        <ele>2234.1999511719</ele>
        <time>2023-07-17T06:14:56.000Z</time>
      </trkpt>
      <trkpt lat="42.44842" lon="2.38226">
        <ele>2233.6000976562</ele>
        <time>2023-07-17T06:15:04.000Z</time>
      </trkpt>
      <trkpt lat="42.44839" lon="2.38213">
        <ele>2233.8000488281</ele>
        <time>2023-07-17T06:15:14.000Z</time>
      </trkpt>
      <trkpt lat="42.44835" lon="2.38201">
        <ele>2233.6000976562</ele>
        <time>2023-07-17T06:15:23.000Z</time>
      </trkpt>
      <trkpt lat="42.44831" lon="2.3819">
        <ele>2233.8000488281</ele>
        <time>2023-07-17T06:15:32.000Z</time>
      </trkpt>
      <trkpt lat="42.44828" lon="2.38179">
        <ele>2233.1999511719</ele>
        <time>2023-07-17T06:15:40.000Z</time>
      </trkpt>
      <trkpt lat="42.44828" lon="2.38171">
        <ele>2234</ele>
        <time>2023-07-17T06:15:47.000Z</time>
      </trkpt>
      <trkpt lat="42.44826" lon="2.38158">
        <ele>2233.6000976562</ele>
        <time>2023-07-17T06:15:55.000Z</time>
      </trkpt>
      <trkpt lat="42.44825" lon="2.38143">
        <ele>2232.8000488281</ele>
        <time>2023-07-17T06:16:05.000Z</time>
      </trkpt>
      <trkpt lat="42.44825" lon="2.38142">
        <ele>2232.8000488281</ele>
        <time>2023-07-17T06:16:06.000Z</time>
      </trkpt>
      <trkpt lat="42.44824" lon="2.38132">
        <ele>2232.3999023438</ele>
        <time>2023-07-17T06:16:13.000Z</time>
      </trkpt>
      <trkpt lat="42.44822" lon="2.3812">
        <ele>2231.6000976562</ele>
        <time>2023-07-17T06:16:21.000Z</time>
      </trkpt>
      <trkpt lat="42.44821" lon="2.38107">
        <ele>2232.3999023438</ele>
        <time>2023-07-17T06:16:30.000Z</time>
      </trkpt>
      <trkpt lat="42.44821" lon="2.38102">
        <ele>2233</ele>
        <time>2023-07-17T06:16:33.000Z</time>
      </trkpt>
      <trkpt lat="42.44819" lon="2.38093">
        <ele>2232.6000976562</ele>
        <time>2023-07-17T06:16:39.000Z</time>
      </trkpt>
      <trkpt lat="42.44814" lon="2.3808">
        <ele>2232</ele>
        <time>2023-07-17T06:16:48.000Z</time>
      </trkpt>
      <trkpt lat="42.44811" lon="2.38074">
        <ele>2232</ele>
        <time>2023-07-17T06:16:53.000Z</time>
      </trkpt>
      <trkpt lat="42.44811" lon="2.38072">
        <ele>2231.8000488281</ele>
        <time>2023-07-17T06:16:55.000Z</time>
      </trkpt>
      <trkpt lat="42.44809" lon="2.38068">
        <ele>2230.8000488281</ele>
        <time>2023-07-17T06:16:58.000Z</time>
      </trkpt>
      <trkpt lat="42.44806" lon="2.38058">
        <ele>2230.3999023438</ele>
        <time>2023-07-17T06:17:04.000Z</time>
      </trkpt>
      <trkpt lat="42.44801" lon="2.38047">
        <ele>2230.1999511719</ele>
        <time>2023-07-17T06:17:12.000Z</time>
      </trkpt>
      <trkpt lat="42.44798" lon="2.38037">
        <ele>2230.3999023438</ele>
        <time>2023-07-17T06:17:20.000Z</time>
      </trkpt>
      <trkpt lat="42.44797" lon="2.38025">
        <ele>2229.6000976562</ele>
        <time>2023-07-17T06:17:30.000Z</time>
      </trkpt>
      <trkpt lat="42.44794" lon="2.38008">
        <ele>2229.1999511719</ele>
        <time>2023-07-17T06:17:39.000Z</time>
      </trkpt>
      <trkpt lat="42.44791" lon="2.37998">
        <ele>2229.3999023438</ele>
        <time>2023-07-17T06:17:47.000Z</time>
      </trkpt>
      <trkpt lat="42.44789" lon="2.37982">
        <ele>2230.1999511719</ele>
        <time>2023-07-17T06:17:57.000Z</time>
      </trkpt>
      <trkpt lat="42.44788" lon="2.37974">
        <ele>2230.6000976562</ele>
        <time>2023-07-17T06:18:02.000Z</time>
      </trkpt>
      <trkpt lat="42.44787" lon="2.37964">
        <ele>2231.1999511719</ele>
        <time>2023-07-17T06:18:08.000Z</time>
      </trkpt>
      <trkpt lat="42.44785" lon="2.37952">
        <ele>2231.3999023438</ele>
        <time>2023-07-17T06:18:16.000Z</time>
      </trkpt>
      <trkpt lat="42.44784" lon="2.37942">
        <ele>2231.3999023438</ele>
        <time>2023-07-17T06:18:24.000Z</time>
      </trkpt>
      <trkpt lat="42.44783" lon="2.37932">
        <ele>2231.6000976562</ele>
        <time>2023-07-17T06:18:31.000Z</time>
      </trkpt>
      <trkpt lat="42.44783" lon="2.3793">
        <ele>2231.6000976562</ele>
        <time>2023-07-17T06:18:32.000Z</time>
      </trkpt>
      <trkpt lat="42.44783" lon="2.37925">
        <ele>2233.1999511719</ele>
        <time>2023-07-17T06:18:36.000Z</time>
      </trkpt>
      <trkpt lat="42.44782" lon="2.37921">
        <ele>2234.1999511719</ele>
        <time>2023-07-17T06:18:39.000Z</time>
      </trkpt>
      <trkpt lat="42.44782" lon="2.37919">
        <ele>2234.3999023438</ele>
        <time>2023-07-17T06:18:41.000Z</time>
      </trkpt>
      <trkpt lat="42.44781" lon="2.37918">
        <ele>2234.3999023438</ele>
        <time>2023-07-17T06:18:42.000Z</time>
      </trkpt>
      <trkpt lat="42.44781" lon="2.37912">
        <ele>2234.8000488281</ele>
        <time>2023-07-17T06:18:47.000Z</time>
      </trkpt>
      <trkpt lat="42.44781" lon="2.37904">
        <ele>2233</ele>
        <time>2023-07-17T06:18:53.000Z</time>
      </trkpt>
      <trkpt lat="42.44781" lon="2.37902">
        <ele>2232.8000488281</ele>
        <time>2023-07-17T06:18:54.000Z</time>
      </trkpt>
      <trkpt lat="42.4478" lon="2.37891">
        <ele>2232.8000488281</ele>
        <time>2023-07-17T06:19:02.000Z</time>
      </trkpt>
      <trkpt lat="42.44777" lon="2.37874">
        <ele>2232.3999023438</ele>
        <time>2023-07-17T06:19:13.000Z</time>
      </trkpt>
      <trkpt lat="42.44775" lon="2.37863">
        <ele>2232.3999023438</ele>
        <time>2023-07-17T06:19:22.000Z</time>
      </trkpt>
      <trkpt lat="42.44774" lon="2.37858">
        <ele>2232</ele>
        <time>2023-07-17T06:19:26.000Z</time>
      </trkpt>
      <trkpt lat="42.44772" lon="2.37851">
        <ele>2231.6000976562</ele>
        <time>2023-07-17T06:19:30.000Z</time>
      </trkpt>
      <trkpt lat="42.4477" lon="2.37834">
        <ele>2231.8000488281</ele>
        <time>2023-07-17T06:19:40.000Z</time>
      </trkpt>
      <trkpt lat="42.44767" lon="2.37821">
        <ele>2232.6000976562</ele>
        <time>2023-07-17T06:19:50.000Z</time>
      </trkpt>
      <trkpt lat="42.44767" lon="2.37813">
        <ele>2233</ele>
        <time>2023-07-17T06:19:55.000Z</time>
      </trkpt>
      <trkpt lat="42.44767" lon="2.37806">
        <ele>2233.3999023438</ele>
        <time>2023-07-17T06:19:59.000Z</time>
      </trkpt>
      <trkpt lat="42.44766" lon="2.37794">
        <ele>2233.6000976562</ele>
        <time>2023-07-17T06:20:07.000Z</time>
      </trkpt>
      <trkpt lat="42.44765" lon="2.37788">
        <ele>2234</ele>
        <time>2023-07-17T06:20:11.000Z</time>
      </trkpt>
      <trkpt lat="42.44764" lon="2.37782">
        <ele>2235.1999511719</ele>
        <time>2023-07-17T06:20:15.000Z</time>
      </trkpt>
      <trkpt lat="42.44764" lon="2.37781">
        <ele>2235.1999511719</ele>
        <time>2023-07-17T06:20:16.000Z</time>
      </trkpt>
      <trkpt lat="42.44761" lon="2.37767">
        <ele>2235.8000488281</ele>
        <time>2023-07-17T06:20:25.000Z</time>
      </trkpt>
      <trkpt lat="42.4476" lon="2.37766">
        <ele>2236.1999511719</ele>
        <time>2023-07-17T06:20:27.000Z</time>
      </trkpt>
      <trkpt lat="42.44759" lon="2.3776">
        <ele>2237.6000976562</ele>
        <time>2023-07-17T06:20:31.000Z</time>
      </trkpt>
      <trkpt lat="42.44758" lon="2.37757">
        <ele>2237.3999023438</ele>
        <time>2023-07-17T06:20:34.000Z</time>
      </trkpt>
      <trkpt lat="42.44756" lon="2.37752">
        <ele>2235.6000976562</ele>
        <time>2023-07-17T06:20:38.000Z</time>
      </trkpt>
      <trkpt lat="42.44756" lon="2.37751">
        <ele>2234.3999023438</ele>
        <time>2023-07-17T06:20:40.000Z</time>
      </trkpt>
      <trkpt lat="42.44755" lon="2.37749">
        <ele>2234.3999023438</ele>
        <time>2023-07-17T06:20:42.000Z</time>
      </trkpt>
      <trkpt lat="42.44752" lon="2.37746">
        <ele>2233</ele>
        <time>2023-07-17T06:20:46.000Z</time>
      </trkpt>
      <trkpt lat="42.44751" lon="2.37746">
        <ele>2232.6000976562</ele>
        <time>2023-07-17T06:20:50.000Z</time>
      </trkpt>
      <trkpt lat="42.4475" lon="2.37746">
        <ele>2233.8000488281</ele>
        <time>2023-07-17T06:20:53.000Z</time>
      </trkpt>
      <trkpt lat="42.44753" lon="2.37747">
        <ele>2233.6000976562</ele>
        <time>2023-07-17T06:20:57.000Z</time>
      </trkpt>
      <trkpt lat="42.44754" lon="2.37746">
        <ele>2234.8000488281</ele>
        <time>2023-07-17T06:21:02.000Z</time>
      </trkpt>
      <trkpt lat="42.44752" lon="2.37744">
        <ele>2234.6000976562</ele>
        <time>2023-07-17T06:21:06.000Z</time>
      </trkpt>
      <trkpt lat="42.44752" lon="2.37746">
        <ele>2234.6000976562</ele>
        <time>2023-07-17T06:21:15.000Z</time>
      </trkpt>
      <trkpt lat="42.44751" lon="2.37745">
        <ele>2235.8000488281</ele>
        <time>2023-07-17T06:21:23.000Z</time>
      </trkpt>
      <trkpt lat="42.44751" lon="2.37745">
        <ele>2236</ele>
        <time>2023-07-17T06:21:25.000Z</time>
      </trkpt>
      <trkpt lat="42.44751" lon="2.37746">
        <ele>2234.8000488281</ele>
        <time>2023-07-17T06:21:32.000Z</time>
      </trkpt>
      <trkpt lat="42.4475" lon="2.37746">
        <ele>2234.6000976562</ele>
        <time>2023-07-17T06:21:35.000Z</time>
      </trkpt>
      <trkpt lat="42.4475" lon="2.37747">
        <ele>2233.3999023438</ele>
        <time>2023-07-17T06:21:39.000Z</time>
      </trkpt>
      <trkpt lat="42.4475" lon="2.37747">
        <ele>2233.8000488281</ele>
        <time>2023-07-17T06:21:45.000Z</time>
      </trkpt>
      <trkpt lat="42.4475" lon="2.37746">
        <ele>2232.8000488281</ele>
        <time>2023-07-17T06:21:55.000Z</time>
      </trkpt>
      <trkpt lat="42.4475" lon="2.37746">
        <ele>2232.3999023438</ele>
        <time>2023-07-17T06:21:59.000Z</time>
      </trkpt>
      <trkpt lat="42.4475" lon="2.37745">
        <ele>2232.6000976562</ele>
        <time>2023-07-17T06:22:04.000Z</time>
      </trkpt>
      <trkpt lat="42.44747" lon="2.37742">
        <ele>2231.3999023438</ele>
        <time>2023-07-17T06:22:10.000Z</time>
      </trkpt>
      <trkpt lat="42.44747" lon="2.37742">
        <ele>2231</ele>
        <time>2023-07-17T06:22:11.000Z</time>
      </trkpt>
      <trkpt lat="42.44744" lon="2.37741">
        <ele>2230.1999511719</ele>
        <time>2023-07-17T06:22:15.000Z</time>
      </trkpt>
      <trkpt lat="42.44741" lon="2.3774">
        <ele>2229.1999511719</ele>
        <time>2023-07-17T06:22:18.000Z</time>
      </trkpt>
      <trkpt lat="42.4474" lon="2.3774">
        <ele>2229.1999511719</ele>
        <time>2023-07-17T06:22:19.000Z</time>
      </trkpt>
      <trkpt lat="42.44729" lon="2.37741">
        <ele>2229.1999511719</ele>
        <time>2023-07-17T06:22:27.000Z</time>
      </trkpt>
      <trkpt lat="42.44728" lon="2.37741">
        <ele>2228.6000976562</ele>
        <time>2023-07-17T06:22:33.000Z</time>
      </trkpt>
      <trkpt lat="42.44727" lon="2.37742">
        <ele>2229.1999511719</ele>
        <time>2023-07-17T06:22:42.000Z</time>
      </trkpt>
      <trkpt lat="42.44723" lon="2.37739">
        <ele>2227.1999511719</ele>
        <time>2023-07-17T06:22:45.000Z</time>
      </trkpt>
      <trkpt lat="42.44721" lon="2.37737">
        <ele>2225.6000976562</ele>
        <time>2023-07-17T06:22:47.000Z</time>
      </trkpt>
      <trkpt lat="42.44718" lon="2.37735">
        <ele>2225</ele>
        <time>2023-07-17T06:22:49.000Z</time>
      </trkpt>
      <trkpt lat="42.44712" lon="2.37729">
        <ele>2226.1999511719</ele>
        <time>2023-07-17T06:22:56.000Z</time>
      </trkpt>
      <trkpt lat="42.44704" lon="2.37723">
        <ele>2224.8000488281</ele>
        <time>2023-07-17T06:23:04.000Z</time>
      </trkpt>
      <trkpt lat="42.44701" lon="2.3772">
        <ele>2224.6000976562</ele>
        <time>2023-07-17T06:23:07.000Z</time>
      </trkpt>
      <trkpt lat="42.44695" lon="2.37716">
        <ele>2224.1999511719</ele>
        <time>2023-07-17T06:23:12.000Z</time>
      </trkpt>
      <trkpt lat="42.44692" lon="2.37714">
        <ele>2224</ele>
        <time>2023-07-17T06:23:16.000Z</time>
      </trkpt>
      <trkpt lat="42.4469" lon="2.37714">
        <ele>2223.6000976562</ele>
        <time>2023-07-17T06:23:18.000Z</time>
      </trkpt>
      <trkpt lat="42.44683" lon="2.37711">
        <ele>2222.1999511719</ele>
        <time>2023-07-17T06:23:24.000Z</time>
      </trkpt>
      <trkpt lat="42.44682" lon="2.37709">
        <ele>2221.1999511719</ele>
        <time>2023-07-17T06:23:26.000Z</time>
      </trkpt>
      <trkpt lat="42.44676" lon="2.37705">
        <ele>2220</ele>
        <time>2023-07-17T06:23:32.000Z</time>
      </trkpt>
      <trkpt lat="42.44673" lon="2.37704">
        <ele>2219.8000488281</ele>
        <time>2023-07-17T06:23:34.000Z</time>
      </trkpt>
      <trkpt lat="42.44663" lon="2.37703">
        <ele>2219.6000976562</ele>
        <time>2023-07-17T06:23:41.000Z</time>
      </trkpt>
      <trkpt lat="42.44658" lon="2.37702">
        <ele>2219</ele>
        <time>2023-07-17T06:23:47.000Z</time>
      </trkpt>
      <trkpt lat="42.44656" lon="2.37701">
        <ele>2217.8000488281</ele>
        <time>2023-07-17T06:23:49.000Z</time>
      </trkpt>
      <trkpt lat="42.4465" lon="2.37693">
        <ele>2216.3999023438</ele>
        <time>2023-07-17T06:23:56.000Z</time>
      </trkpt>
      <trkpt lat="42.44648" lon="2.37692">
        <ele>2214.8000488281</ele>
        <time>2023-07-17T06:23:58.000Z</time>
      </trkpt>
      <trkpt lat="42.44639" lon="2.37686">
        <ele>2215.3999023438</ele>
        <time>2023-07-17T06:24:06.000Z</time>
      </trkpt>
      <trkpt lat="42.44637" lon="2.37681">
        <ele>2213.8000488281</ele>
        <time>2023-07-17T06:24:09.000Z</time>
      </trkpt>
      <trkpt lat="42.44634" lon="2.37677">
        <ele>2212</ele>
        <time>2023-07-17T06:24:12.000Z</time>
      </trkpt>
      <trkpt lat="42.44633" lon="2.37677">
        <ele>2211.6000976562</ele>
        <time>2023-07-17T06:24:13.000Z</time>
      </trkpt>
      <trkpt lat="42.44623" lon="2.3767">
        <ele>2212.6000976562</ele>
        <time>2023-07-17T06:24:21.000Z</time>
      </trkpt>
      <trkpt lat="42.44609" lon="2.37662">
        <ele>2212.6000976562</ele>
        <time>2023-07-17T06:24:33.000Z</time>
      </trkpt>
      <trkpt lat="42.44605" lon="2.37659">
        <ele>2213.1999511719</ele>
        <time>2023-07-17T06:24:37.000Z</time>
      </trkpt>
      <trkpt lat="42.446" lon="2.37656">
        <ele>2213.1999511719</ele>
        <time>2023-07-17T06:24:42.000Z</time>
      </trkpt>
      <trkpt lat="42.44593" lon="2.37649">
        <ele>2213.3999023438</ele>
        <time>2023-07-17T06:24:49.000Z</time>
      </trkpt>
      <trkpt lat="42.44582" lon="2.37643">
        <ele>2212.6000976562</ele>
        <time>2023-07-17T06:24:56.000Z</time>
      </trkpt>
      <trkpt lat="42.44579" lon="2.37639">
        <ele>2212</ele>
        <time>2023-07-17T06:25:02.000Z</time>
      </trkpt>
      <trkpt lat="42.44578" lon="2.37638">
        <ele>2212.1999511719</ele>
        <time>2023-07-17T06:25:03.000Z</time>
      </trkpt>
      <trkpt lat="42.44569" lon="2.37628">
        <ele>2212.8000488281</ele>
        <time>2023-07-17T06:25:13.000Z</time>
      </trkpt>
      <trkpt lat="42.44562" lon="2.3762">
        <ele>2212.8000488281</ele>
        <time>2023-07-17T06:25:22.000Z</time>
      </trkpt>
      <trkpt lat="42.44554" lon="2.37611">
        <ele>2212.8000488281</ele>
        <time>2023-07-17T06:25:30.000Z</time>
      </trkpt>
      <trkpt lat="42.44551" lon="2.37607">
        <ele>2213.1999511719</ele>
        <time>2023-07-17T06:25:33.000Z</time>
      </trkpt>
      <trkpt lat="42.44546" lon="2.37602">
        <ele>2212.1999511719</ele>
        <time>2023-07-17T06:25:39.000Z</time>
      </trkpt>
      <trkpt lat="42.44546" lon="2.37601">
        <ele>2212.1999511719</ele>
        <time>2023-07-17T06:25:40.000Z</time>
      </trkpt>
      <trkpt lat="42.4454" lon="2.37596">
        <ele>2212.3999023438</ele>
        <time>2023-07-17T06:25:47.000Z</time>
      </trkpt>
      <trkpt lat="42.44533" lon="2.37587">
        <ele>2213.1999511719</ele>
        <time>2023-07-17T06:25:55.000Z</time>
      </trkpt>
      <trkpt lat="42.44532" lon="2.37586">
        <ele>2213.3999023438</ele>
        <time>2023-07-17T06:25:56.000Z</time>
      </trkpt>
      <trkpt lat="42.44524" lon="2.37577">
        <ele>2213.1999511719</ele>
        <time>2023-07-17T06:26:03.000Z</time>
      </trkpt>
      <trkpt lat="42.4452" lon="2.37572">
        <ele>2212.1999511719</ele>
        <time>2023-07-17T06:26:09.000Z</time>
      </trkpt>
      <trkpt lat="42.44517" lon="2.3757">
        <ele>2212</ele>
        <time>2023-07-17T06:26:11.000Z</time>
      </trkpt>
      <trkpt lat="42.44509" lon="2.37566">
        <ele>2213.1999511719</ele>
        <time>2023-07-17T06:26:18.000Z</time>
      </trkpt>
      <trkpt lat="42.44508" lon="2.37563">
        <ele>2213.8000488281</ele>
        <time>2023-07-17T06:26:20.000Z</time>
      </trkpt>
      <trkpt lat="42.44501" lon="2.37553">
        <ele>2214</ele>
        <time>2023-07-17T06:26:29.000Z</time>
      </trkpt>
      <trkpt lat="42.44495" lon="2.37544">
        <ele>2213.1999511719</ele>
        <time>2023-07-17T06:26:38.000Z</time>
      </trkpt>
      <trkpt lat="42.4449" lon="2.37538">
        <ele>2213.1999511719</ele>
        <time>2023-07-17T06:26:45.000Z</time>
      </trkpt>
      <trkpt lat="42.44482" lon="2.3753">
        <ele>2212.6000976562</ele>
        <time>2023-07-17T06:26:53.000Z</time>
      </trkpt>
      <trkpt lat="42.44475" lon="2.37523">
        <ele>2212.1999511719</ele>
        <time>2023-07-17T06:27:02.000Z</time>
      </trkpt>
      <trkpt lat="42.44474" lon="2.37522">
        <ele>2212</ele>
        <time>2023-07-17T06:27:04.000Z</time>
      </trkpt>
      <trkpt lat="42.44469" lon="2.37514">
        <ele>2212</ele>
        <time>2023-07-17T06:27:10.000Z</time>
      </trkpt>
      <trkpt lat="42.44464" lon="2.37507">
        <ele>2213.1999511719</ele>
        <time>2023-07-17T06:27:17.000Z</time>
      </trkpt>
      <trkpt lat="42.44463" lon="2.37506">
        <ele>2213.1999511719</ele>
        <time>2023-07-17T06:27:18.000Z</time>
      </trkpt>
      <trkpt lat="42.44454" lon="2.37499">
        <ele>2212.3999023438</ele>
        <time>2023-07-17T06:27:28.000Z</time>
      </trkpt>
      <trkpt lat="42.44445" lon="2.37492">
        <ele>2212.8000488281</ele>
        <time>2023-07-17T06:27:37.000Z</time>
      </trkpt>
      <trkpt lat="42.44439" lon="2.37488">
        <ele>2213.1999511719</ele>
        <time>2023-07-17T06:27:44.000Z</time>
      </trkpt>
      <trkpt lat="42.44435" lon="2.37479">
        <ele>2212</ele>
        <time>2023-07-17T06:27:52.000Z</time>
      </trkpt>
      <trkpt lat="42.4443" lon="2.37472">
        <ele>2211.1999511719</ele>
        <time>2023-07-17T06:28:00.000Z</time>
      </trkpt>
      <trkpt lat="42.44428" lon="2.37471">
        <ele>2210.8000488281</ele>
        <time>2023-07-17T06:28:01.000Z</time>
      </trkpt>
      <trkpt lat="42.44423" lon="2.37468">
        <ele>2210.8000488281</ele>
        <time>2023-07-17T06:28:07.000Z</time>
      </trkpt>
      <trkpt lat="42.44417" lon="2.37463">
        <ele>2210.8000488281</ele>
        <time>2023-07-17T06:28:14.000Z</time>
      </trkpt>
      <trkpt lat="42.44411" lon="2.37454">
        <ele>2210.3999023438</ele>
        <time>2023-07-17T06:28:22.000Z</time>
      </trkpt>
      <trkpt lat="42.44409" lon="2.37452">
        <ele>2209.8000488281</ele>
        <time>2023-07-17T06:28:25.000Z</time>
      </trkpt>
      <trkpt lat="42.44407" lon="2.37447">
        <ele>2209.6000976562</ele>
        <time>2023-07-17T06:28:29.000Z</time>
      </trkpt>
      <trkpt lat="42.44401" lon="2.37437">
        <ele>2209.1999511719</ele>
        <time>2023-07-17T06:28:36.000Z</time>
      </trkpt>
      <trkpt lat="42.44398" lon="2.37435">
        <ele>2208.6000976562</ele>
        <time>2023-07-17T06:28:39.000Z</time>
      </trkpt>
      <trkpt lat="42.44394" lon="2.37429">
        <ele>2208</ele>
        <time>2023-07-17T06:28:45.000Z</time>
      </trkpt>
      <trkpt lat="42.44387" lon="2.37423">
        <ele>2207.3999023438</ele>
        <time>2023-07-17T06:28:52.000Z</time>
      </trkpt>
      <trkpt lat="42.44387" lon="2.37423">
        <ele>2207.3999023438</ele>
        <time>2023-07-17T06:28:53.000Z</time>
      </trkpt>
      <trkpt lat="42.44379" lon="2.37419">
        <ele>2207</ele>
        <time>2023-07-17T06:29:00.000Z</time>
      </trkpt>
      <trkpt lat="42.44369" lon="2.37412">
        <ele>2206.6000976562</ele>
        <time>2023-07-17T06:29:08.000Z</time>
      </trkpt>
      <trkpt lat="42.44363" lon="2.37409">
        <ele>2206.8000488281</ele>
        <time>2023-07-17T06:29:16.000Z</time>
      </trkpt>
      <trkpt lat="42.44358" lon="2.37402">
        <ele>2206.1999511719</ele>
        <time>2023-07-17T06:29:22.000Z</time>
      </trkpt>
      <trkpt lat="42.44355" lon="2.37397">
        <ele>2205.8000488281</ele>
        <time>2023-07-17T06:29:24.000Z</time>
      </trkpt>
      <trkpt lat="42.44348" lon="2.3739">
        <ele>2205.3999023438</ele>
        <time>2023-07-17T06:29:33.000Z</time>
      </trkpt>
      <trkpt lat="42.44342" lon="2.37383">
        <ele>2205</ele>
        <time>2023-07-17T06:29:42.000Z</time>
      </trkpt>
      <trkpt lat="42.44336" lon="2.37377">
        <ele>2203.8000488281</ele>
        <time>2023-07-17T06:29:49.000Z</time>
      </trkpt>
      <trkpt lat="42.44335" lon="2.37376">
        <ele>2203.8000488281</ele>
        <time>2023-07-17T06:29:50.000Z</time>
      </trkpt>
      <trkpt lat="42.4433" lon="2.37369">
        <ele>2203.6000976562</ele>
        <time>2023-07-17T06:29:57.000Z</time>
      </trkpt>
      <trkpt lat="42.44327" lon="2.37367">
        <ele>2202.8000488281</ele>
        <time>2023-07-17T06:30:03.000Z</time>
      </trkpt>
      <trkpt lat="42.44326" lon="2.37366">
        <ele>2202.1999511719</ele>
        <time>2023-07-17T06:30:06.000Z</time>
      </trkpt>
      <trkpt lat="42.44324" lon="2.37364">
        <ele>2201.6000976562</ele>
        <time>2023-07-17T06:30:09.000Z</time>
      </trkpt>
      <trkpt lat="42.44321" lon="2.37361">
        <ele>2201.1999511719</ele>
        <time>2023-07-17T06:30:13.000Z</time>
      </trkpt>
      <trkpt lat="42.44312" lon="2.37355">
        <ele>2200.6000976562</ele>
        <time>2023-07-17T06:30:21.000Z</time>
      </trkpt>
      <trkpt lat="42.44307" lon="2.37349">
        <ele>2200.3999023438</ele>
        <time>2023-07-17T06:30:27.000Z</time>
      </trkpt>
      <trkpt lat="42.443" lon="2.37341">
        <ele>2200.1999511719</ele>
        <time>2023-07-17T06:30:34.000Z</time>
      </trkpt>
      <trkpt lat="42.4429" lon="2.37336">
        <ele>2199.8000488281</ele>
        <time>2023-07-17T06:30:43.000Z</time>
      </trkpt>
      <trkpt lat="42.44287" lon="2.37332">
        <ele>2199.3999023438</ele>
        <time>2023-07-17T06:30:47.000Z</time>
      </trkpt>
      <trkpt lat="42.44284" lon="2.37327">
        <ele>2198.8000488281</ele>
        <time>2023-07-17T06:30:51.000Z</time>
      </trkpt>
      <trkpt lat="42.44281" lon="2.37321">
        <ele>2198.1999511719</ele>
        <time>2023-07-17T06:30:56.000Z</time>
      </trkpt>
      <trkpt lat="42.44278" lon="2.37317">
        <ele>2197.6000976562</ele>
        <time>2023-07-17T06:31:00.000Z</time>
      </trkpt>
      <trkpt lat="42.44271" lon="2.3731">
        <ele>2197.8000488281</ele>
        <time>2023-07-17T06:31:07.000Z</time>
      </trkpt>
      <trkpt lat="42.44266" lon="2.37309">
        <ele>2198</ele>
        <time>2023-07-17T06:31:15.000Z</time>
      </trkpt>
      <trkpt lat="42.4426" lon="2.37301">
        <ele>2197.1999511719</ele>
        <time>2023-07-17T06:31:22.000Z</time>
      </trkpt>
      <trkpt lat="42.44259" lon="2.373">
        <ele>2197</ele>
        <time>2023-07-17T06:31:23.000Z</time>
      </trkpt>
      <trkpt lat="42.44253" lon="2.37294">
        <ele>2196.6000976562</ele>
        <time>2023-07-17T06:31:31.000Z</time>
      </trkpt>
      <trkpt lat="42.44245" lon="2.3729">
        <ele>2196.1999511719</ele>
        <time>2023-07-17T06:31:39.000Z</time>
      </trkpt>
      <trkpt lat="42.44244" lon="2.37289">
        <ele>2196.1999511719</ele>
        <time>2023-07-17T06:31:40.000Z</time>
      </trkpt>
      <trkpt lat="42.44236" lon="2.37278">
        <ele>2195.6000976562</ele>
        <time>2023-07-17T06:31:49.000Z</time>
      </trkpt>
      <trkpt lat="42.44231" lon="2.37273">
        <ele>2195.6000976562</ele>
        <time>2023-07-17T06:31:56.000Z</time>
      </trkpt>
      <trkpt lat="42.44226" lon="2.37268">
        <ele>2195.3999023438</ele>
        <time>2023-07-17T06:32:02.000Z</time>
      </trkpt>
      <trkpt lat="42.44226" lon="2.37267">
        <ele>2195.1999511719</ele>
        <time>2023-07-17T06:32:03.000Z</time>
      </trkpt>
      <trkpt lat="42.44223" lon="2.37261">
        <ele>2195.6000976562</ele>
        <time>2023-07-17T06:32:11.000Z</time>
      </trkpt>
      <trkpt lat="42.44214" lon="2.37253">
        <ele>2195.6000976562</ele>
        <time>2023-07-17T06:32:20.000Z</time>
      </trkpt>
      <trkpt lat="42.44208" lon="2.37247">
        <ele>2194.6000976562</ele>
        <time>2023-07-17T06:32:28.000Z</time>
      </trkpt>
      <trkpt lat="42.44203" lon="2.37244">
        <ele>2194.8000488281</ele>
        <time>2023-07-17T06:32:35.000Z</time>
      </trkpt>
      <trkpt lat="42.44196" lon="2.37237">
        <ele>2193.8000488281</ele>
        <time>2023-07-17T06:32:47.000Z</time>
      </trkpt>
      <trkpt lat="42.44194" lon="2.37228">
        <ele>2193.3999023438</ele>
        <time>2023-07-17T06:32:55.000Z</time>
      </trkpt>
      <trkpt lat="42.44189" lon="2.37219">
        <ele>2193.3999023438</ele>
        <time>2023-07-17T06:33:03.000Z</time>
      </trkpt>
      <trkpt lat="42.44184" lon="2.37213">
        <ele>2193.3999023438</ele>
        <time>2023-07-17T06:33:12.000Z</time>
      </trkpt>
      <trkpt lat="42.44182" lon="2.37208">
        <ele>2193.8000488281</ele>
        <time>2023-07-17T06:33:18.000Z</time>
      </trkpt>
      <trkpt lat="42.44178" lon="2.37203">
        <ele>2194</ele>
        <time>2023-07-17T06:33:25.000Z</time>
      </trkpt>
      <trkpt lat="42.44176" lon="2.37196">
        <ele>2193.8000488281</ele>
        <time>2023-07-17T06:33:34.000Z</time>
      </trkpt>
      <trkpt lat="42.44169" lon="2.37192">
        <ele>2195</ele>
        <time>2023-07-17T06:33:45.000Z</time>
      </trkpt>
      <trkpt lat="42.44163" lon="2.37184">
        <ele>2196</ele>
        <time>2023-07-17T06:33:54.000Z</time>
      </trkpt>
      <trkpt lat="42.44161" lon="2.3718">
        <ele>2197.1999511719</ele>
        <time>2023-07-17T06:34:02.000Z</time>
      </trkpt>
      <trkpt lat="42.4416" lon="2.37179">
        <ele>2197.6000976562</ele>
        <time>2023-07-17T06:34:04.000Z</time>
      </trkpt>
      <trkpt lat="42.44157" lon="2.37178">
        <ele>2198</ele>
        <time>2023-07-17T06:34:12.000Z</time>
      </trkpt>
      <trkpt lat="42.44156" lon="2.37178">
        <ele>2198.1999511719</ele>
        <time>2023-07-17T06:34:13.000Z</time>
      </trkpt>
      <trkpt lat="42.44152" lon="2.37175">
        <ele>2198.6000976562</ele>
        <time>2023-07-17T06:34:20.000Z</time>
      </trkpt>
      <trkpt lat="42.44151" lon="2.37175">
        <ele>2199.3999023438</ele>
        <time>2023-07-17T06:34:25.000Z</time>
      </trkpt>
      <trkpt lat="42.4415" lon="2.37174">
        <ele>2199.8000488281</ele>
        <time>2023-07-17T06:34:27.000Z</time>
      </trkpt>
      <trkpt lat="42.44146" lon="2.37171">
        <ele>2200.3999023438</ele>
        <time>2023-07-17T06:34:31.000Z</time>
      </trkpt>
      <trkpt lat="42.44145" lon="2.37167">
        <ele>2200.6000976562</ele>
        <time>2023-07-17T06:34:35.000Z</time>
      </trkpt>
      <trkpt lat="42.44141" lon="2.37159">
        <ele>2200.8000488281</ele>
        <time>2023-07-17T06:34:42.000Z</time>
      </trkpt>
      <trkpt lat="42.44132" lon="2.37151">
        <ele>2201.1999511719</ele>
        <time>2023-07-17T06:34:51.000Z</time>
      </trkpt>
      <trkpt lat="42.44127" lon="2.37149">
        <ele>2201.1999511719</ele>
        <time>2023-07-17T06:34:57.000Z</time>
      </trkpt>
      <trkpt lat="42.44127" lon="2.37145">
        <ele>2201</ele>
        <time>2023-07-17T06:35:04.000Z</time>
      </trkpt>
      <trkpt lat="42.44124" lon="2.37142">
        <ele>2200.6000976562</ele>
        <time>2023-07-17T06:35:11.000Z</time>
      </trkpt>
      <trkpt lat="42.44123" lon="2.37134">
        <ele>2200.3999023438</ele>
        <time>2023-07-17T06:35:18.000Z</time>
      </trkpt>
      <trkpt lat="42.44119" lon="2.37127">
        <ele>2199.6000976562</ele>
        <time>2023-07-17T06:35:26.000Z</time>
      </trkpt>
      <trkpt lat="42.44118" lon="2.37124">
        <ele>2199.3999023438</ele>
        <time>2023-07-17T06:35:32.000Z</time>
      </trkpt>
      <trkpt lat="42.44117" lon="2.37123">
        <ele>2199</ele>
        <time>2023-07-17T06:35:35.000Z</time>
      </trkpt>
      <trkpt lat="42.44115" lon="2.37124">
        <ele>2198.6000976562</ele>
        <time>2023-07-17T06:35:41.000Z</time>
      </trkpt>
      <trkpt lat="42.44117" lon="2.37122">
        <ele>2198.6000976562</ele>
        <time>2023-07-17T06:35:48.000Z</time>
      </trkpt>
      <trkpt lat="42.44117" lon="2.37121">
        <ele>2198.3999023438</ele>
        <time>2023-07-17T06:35:51.000Z</time>
      </trkpt>
      <trkpt lat="42.44116" lon="2.3712">
        <ele>2198</ele>
        <time>2023-07-17T06:35:56.000Z</time>
      </trkpt>
      <trkpt lat="42.44116" lon="2.37122">
        <ele>2198.8000488281</ele>
        <time>2023-07-17T06:36:05.000Z</time>
      </trkpt>
      <trkpt lat="42.44115" lon="2.37118">
        <ele>2199.1999511719</ele>
        <time>2023-07-17T06:36:13.000Z</time>
      </trkpt>
      <trkpt lat="42.44114" lon="2.37116">
        <ele>2199.6000976562</ele>
        <time>2023-07-17T06:36:17.000Z</time>
      </trkpt>
      <trkpt lat="42.44113" lon="2.37115">
        <ele>2199.8000488281</ele>
        <time>2023-07-17T06:36:20.000Z</time>
      </trkpt>
      <trkpt lat="42.44112" lon="2.37115">
        <ele>2200.6000976562</ele>
        <time>2023-07-17T06:36:23.000Z</time>
      </trkpt>
      <trkpt lat="42.44112" lon="2.37114">
        <ele>2201.1999511719</ele>
        <time>2023-07-17T06:36:28.000Z</time>
      </trkpt>
      <trkpt lat="42.4411" lon="2.37112">
        <ele>2201.1999511719</ele>
        <time>2023-07-17T06:36:35.000Z</time>
      </trkpt>
      <trkpt lat="42.44109" lon="2.37109">
        <ele>2201.8000488281</ele>
        <time>2023-07-17T06:36:38.000Z</time>
      </trkpt>
      <trkpt lat="42.44108" lon="2.37105">
        <ele>2201.8000488281</ele>
        <time>2023-07-17T06:36:43.000Z</time>
      </trkpt>
      <trkpt lat="42.44108" lon="2.37101">
        <ele>2201.8000488281</ele>
        <time>2023-07-17T06:36:50.000Z</time>
      </trkpt>
      <trkpt lat="42.44105" lon="2.37098">
        <ele>2202.3999023438</ele>
        <time>2023-07-17T06:36:55.000Z</time>
      </trkpt>
      <trkpt lat="42.44103" lon="2.37095">
        <ele>2202.8000488281</ele>
        <time>2023-07-17T06:36:58.000Z</time>
      </trkpt>
      <trkpt lat="42.44101" lon="2.37091">
        <ele>2203</ele>
        <time>2023-07-17T06:37:02.000Z</time>
      </trkpt>
      <trkpt lat="42.441" lon="2.37086">
        <ele>2203.6000976562</ele>
        <time>2023-07-17T06:37:09.000Z</time>
      </trkpt>
      <trkpt lat="42.44097" lon="2.3708">
        <ele>2202.6000976562</ele>
        <time>2023-07-17T06:37:17.000Z</time>
      </trkpt>
      <trkpt lat="42.44096" lon="2.37075">
        <ele>2202.6000976562</ele>
        <time>2023-07-17T06:37:25.000Z</time>
      </trkpt>
      <trkpt lat="42.44095" lon="2.3707">
        <ele>2203.3999023438</ele>
        <time>2023-07-17T06:37:31.000Z</time>
      </trkpt>
      <trkpt lat="42.44093" lon="2.37064">
        <ele>2202.8000488281</ele>
        <time>2023-07-17T06:37:39.000Z</time>
      </trkpt>
      <trkpt lat="42.44096" lon="2.37057">
        <ele>2202</ele>
        <time>2023-07-17T06:37:47.000Z</time>
      </trkpt>
      <trkpt lat="42.44096" lon="2.37055">
        <ele>2201.8000488281</ele>
        <time>2023-07-17T06:37:49.000Z</time>
      </trkpt>
      <trkpt lat="42.44092" lon="2.37053">
        <ele>2201</ele>
        <time>2023-07-17T06:37:54.000Z</time>
      </trkpt>
      <trkpt lat="42.44093" lon="2.37051">
        <ele>2200.6000976562</ele>
        <time>2023-07-17T06:37:56.000Z</time>
      </trkpt>
      <trkpt lat="42.44092" lon="2.37045">
        <ele>2200</ele>
        <time>2023-07-17T06:38:04.000Z</time>
      </trkpt>
      <trkpt lat="42.4409" lon="2.37037">
        <ele>2200</ele>
        <time>2023-07-17T06:38:12.000Z</time>
      </trkpt>
      <trkpt lat="42.44086" lon="2.37032">
        <ele>2199.8000488281</ele>
        <time>2023-07-17T06:38:18.000Z</time>
      </trkpt>
      <trkpt lat="42.44076" lon="2.37032">
        <ele>2201.6000976562</ele>
        <time>2023-07-17T06:38:30.000Z</time>
      </trkpt>
      <trkpt lat="42.44077" lon="2.37032">
        <ele>2201.8000488281</ele>
        <time>2023-07-17T06:38:31.000Z</time>
      </trkpt>
      <trkpt lat="42.44075" lon="2.37034">
        <ele>2202.8000488281</ele>
        <time>2023-07-17T06:38:37.000Z</time>
      </trkpt>
      <trkpt lat="42.44073" lon="2.37029">
        <ele>2204</ele>
        <time>2023-07-17T06:38:44.000Z</time>
      </trkpt>
      <trkpt lat="42.44069" lon="2.3703">
        <ele>2205</ele>
        <time>2023-07-17T06:38:51.000Z</time>
      </trkpt>
      <trkpt lat="42.44069" lon="2.3703">
        <ele>2205.3999023438</ele>
        <time>2023-07-17T06:38:52.000Z</time>
      </trkpt>
      <trkpt lat="42.44069" lon="2.37029">
        <ele>2206.8000488281</ele>
        <time>2023-07-17T06:39:01.000Z</time>
      </trkpt>
      <trkpt lat="42.44066" lon="2.37026">
        <ele>2207.3999023438</ele>
        <time>2023-07-17T06:39:07.000Z</time>
      </trkpt>
      <trkpt lat="42.44066" lon="2.37026">
        <ele>2207.8000488281</ele>
        <time>2023-07-17T06:39:09.000Z</time>
      </trkpt>
      <trkpt lat="42.44064" lon="2.3702">
        <ele>2208</ele>
        <time>2023-07-17T06:39:17.000Z</time>
      </trkpt>
      <trkpt lat="42.44055" lon="2.37015">
        <ele>2208.1999511719</ele>
        <time>2023-07-17T06:39:25.000Z</time>
      </trkpt>
      <trkpt lat="42.44054" lon="2.37014">
        <ele>2208.6000976562</ele>
        <time>2023-07-17T06:39:27.000Z</time>
      </trkpt>
      <trkpt lat="42.44051" lon="2.37009">
        <ele>2209.1999511719</ele>
        <time>2023-07-17T06:39:32.000Z</time>
      </trkpt>
      <trkpt lat="42.44049" lon="2.37004">
        <ele>2208.8000488281</ele>
        <time>2023-07-17T06:39:40.000Z</time>
      </trkpt>
      <trkpt lat="42.44043" lon="2.36989">
        <ele>2208.6000976562</ele>
        <time>2023-07-17T06:39:51.000Z</time>
      </trkpt>
      <trkpt lat="42.4404" lon="2.36984">
        <ele>2208</ele>
        <time>2023-07-17T06:40:01.000Z</time>
      </trkpt>
      <trkpt lat="42.4404" lon="2.36982">
        <ele>2207.6000976562</ele>
        <time>2023-07-17T06:40:03.000Z</time>
      </trkpt>
      <trkpt lat="42.44036" lon="2.36974">
        <ele>2207.6000976562</ele>
        <time>2023-07-17T06:40:10.000Z</time>
      </trkpt>
      <trkpt lat="42.44033" lon="2.36959">
        <ele>2208</ele>
        <time>2023-07-17T06:40:21.000Z</time>
      </trkpt>
      <trkpt lat="42.4403" lon="2.36949">
        <ele>2207.1999511719</ele>
        <time>2023-07-17T06:40:28.000Z</time>
      </trkpt>
      <trkpt lat="42.44026" lon="2.3694">
        <ele>2207.1999511719</ele>
        <time>2023-07-17T06:40:35.000Z</time>
      </trkpt>
      <trkpt lat="42.44023" lon="2.36936">
        <ele>2206.3999023438</ele>
        <time>2023-07-17T06:40:39.000Z</time>
      </trkpt>
      <trkpt lat="42.44021" lon="2.36932">
        <ele>2206.3999023438</ele>
        <time>2023-07-17T06:40:43.000Z</time>
      </trkpt>
      <trkpt lat="42.44018" lon="2.36925">
        <ele>2207.1999511719</ele>
        <time>2023-07-17T06:40:50.000Z</time>
      </trkpt>
      <trkpt lat="42.44018" lon="2.36924">
        <ele>2207.3999023438</ele>
        <time>2023-07-17T06:40:52.000Z</time>
      </trkpt>
      <trkpt lat="42.44016" lon="2.36914">
        <ele>2207.6000976562</ele>
        <time>2023-07-17T06:40:58.000Z</time>
      </trkpt>
      <trkpt lat="42.44012" lon="2.36902">
        <ele>2207.1999511719</ele>
        <time>2023-07-17T06:41:05.000Z</time>
      </trkpt>
      <trkpt lat="42.44007" lon="2.36897">
        <ele>2207.3999023438</ele>
        <time>2023-07-17T06:41:12.000Z</time>
      </trkpt>
      <trkpt lat="42.44" lon="2.36889">
        <ele>2207</ele>
        <time>2023-07-17T06:41:20.000Z</time>
      </trkpt>
      <trkpt lat="42.43995" lon="2.36881">
        <ele>2207</ele>
        <time>2023-07-17T06:41:28.000Z</time>
      </trkpt>
      <trkpt lat="42.43991" lon="2.36873">
        <ele>2206.3999023438</ele>
        <time>2023-07-17T06:41:37.000Z</time>
      </trkpt>
      <trkpt lat="42.43984" lon="2.36862">
        <ele>2206.8000488281</ele>
        <time>2023-07-17T06:41:46.000Z</time>
      </trkpt>
      <trkpt lat="42.43981" lon="2.36856">
        <ele>2206.1999511719</ele>
        <time>2023-07-17T06:41:54.000Z</time>
      </trkpt>
      <trkpt lat="42.43974" lon="2.36847">
        <ele>2206.3999023438</ele>
        <time>2023-07-17T06:42:02.000Z</time>
      </trkpt>
      <trkpt lat="42.43971" lon="2.36838">
        <ele>2207.6000976562</ele>
        <time>2023-07-17T06:42:12.000Z</time>
      </trkpt>
      <trkpt lat="42.43964" lon="2.36826">
        <ele>2207.8000488281</ele>
        <time>2023-07-17T06:42:20.000Z</time>
      </trkpt>
      <trkpt lat="42.43956" lon="2.36819">
        <ele>2207</ele>
        <time>2023-07-17T06:42:27.000Z</time>
      </trkpt>
      <trkpt lat="42.43954" lon="2.36816">
        <ele>2206.3999023438</ele>
        <time>2023-07-17T06:42:30.000Z</time>
      </trkpt>
      <trkpt lat="42.43953" lon="2.3681">
        <ele>2206.6000976562</ele>
        <time>2023-07-17T06:42:36.000Z</time>
      </trkpt>
      <trkpt lat="42.43953" lon="2.36802">
        <ele>2206.8000488281</ele>
        <time>2023-07-17T06:42:42.000Z</time>
      </trkpt>
      <trkpt lat="42.43949" lon="2.36791">
        <ele>2207.3999023438</ele>
        <time>2023-07-17T06:42:52.000Z</time>
      </trkpt>
      <trkpt lat="42.43948" lon="2.3679">
        <ele>2207.3999023438</ele>
        <time>2023-07-17T06:42:53.000Z</time>
      </trkpt>
      <trkpt lat="42.43945" lon="2.36781">
        <ele>2208</ele>
        <time>2023-07-17T06:43:01.000Z</time>
      </trkpt>
      <trkpt lat="42.43947" lon="2.36776">
        <ele>2207</ele>
        <time>2023-07-17T06:43:10.000Z</time>
      </trkpt>
      <trkpt lat="42.43946" lon="2.36766">
        <ele>2207.1999511719</ele>
        <time>2023-07-17T06:43:20.000Z</time>
      </trkpt>
      <trkpt lat="42.43943" lon="2.36757">
        <ele>2208.3999023438</ele>
        <time>2023-07-17T06:43:28.000Z</time>
      </trkpt>
      <trkpt lat="42.43942" lon="2.36745">
        <ele>2207</ele>
        <time>2023-07-17T06:43:37.000Z</time>
      </trkpt>
      <trkpt lat="42.43937" lon="2.36737">
        <ele>2206.3999023438</ele>
        <time>2023-07-17T06:43:45.000Z</time>
      </trkpt>
      <trkpt lat="42.4393" lon="2.36733">
        <ele>2207</ele>
        <time>2023-07-17T06:43:54.000Z</time>
      </trkpt>
      <trkpt lat="42.43926" lon="2.36729">
        <ele>2207.3999023438</ele>
        <time>2023-07-17T06:44:00.000Z</time>
      </trkpt>
      <trkpt lat="42.43926" lon="2.36729">
        <ele>2207.6000976562</ele>
        <time>2023-07-17T06:44:01.000Z</time>
      </trkpt>
      <trkpt lat="42.43924" lon="2.36724">
        <ele>2208.6000976562</ele>
        <time>2023-07-17T06:44:08.000Z</time>
      </trkpt>
      <trkpt lat="42.43924" lon="2.36722">
        <ele>2209</ele>
        <time>2023-07-17T06:44:10.000Z</time>
      </trkpt>
      <trkpt lat="42.43921" lon="2.36719">
        <ele>2209.8000488281</ele>
        <time>2023-07-17T06:44:15.000Z</time>
      </trkpt>
      <trkpt lat="42.4392" lon="2.36718">
        <ele>2209.8000488281</ele>
        <time>2023-07-17T06:44:17.000Z</time>
      </trkpt>
      <trkpt lat="42.43916" lon="2.36711">
        <ele>2210.6000976562</ele>
        <time>2023-07-17T06:44:25.000Z</time>
      </trkpt>
      <trkpt lat="42.43913" lon="2.36705">
        <ele>2210.8000488281</ele>
        <time>2023-07-17T06:44:33.000Z</time>
      </trkpt>
      <trkpt lat="42.4391" lon="2.36702">
        <ele>2211.6000976562</ele>
        <time>2023-07-17T06:44:40.000Z</time>
      </trkpt>
      <trkpt lat="42.43909" lon="2.36701">
        <ele>2212</ele>
        <time>2023-07-17T06:44:42.000Z</time>
      </trkpt>
      <trkpt lat="42.43907" lon="2.36695">
        <ele>2212.8000488281</ele>
        <time>2023-07-17T06:44:48.000Z</time>
      </trkpt>
      <trkpt lat="42.43906" lon="2.36694">
        <ele>2213</ele>
        <time>2023-07-17T06:44:49.000Z</time>
      </trkpt>
      <trkpt lat="42.43903" lon="2.36688">
        <ele>2213.3999023438</ele>
        <time>2023-07-17T06:44:55.000Z</time>
      </trkpt>
      <trkpt lat="42.43896" lon="2.36683">
        <ele>2213.1999511719</ele>
        <time>2023-07-17T06:45:03.000Z</time>
      </trkpt>
      <trkpt lat="42.43891" lon="2.36681">
        <ele>2214</ele>
        <time>2023-07-17T06:45:11.000Z</time>
      </trkpt>
      <trkpt lat="42.43891" lon="2.3668">
        <ele>2214</ele>
        <time>2023-07-17T06:45:12.000Z</time>
      </trkpt>
      <trkpt lat="42.43885" lon="2.36673">
        <ele>2215</ele>
        <time>2023-07-17T06:45:20.000Z</time>
      </trkpt>
      <trkpt lat="42.43884" lon="2.36673">
        <ele>2215</ele>
        <time>2023-07-17T06:45:21.000Z</time>
      </trkpt>
      <trkpt lat="42.43881" lon="2.36664">
        <ele>2216.3999023438</ele>
        <time>2023-07-17T06:45:29.000Z</time>
      </trkpt>
      <trkpt lat="42.43879" lon="2.36663">
        <ele>2217.3999023438</ele>
        <time>2023-07-17T06:45:32.000Z</time>
      </trkpt>
      <trkpt lat="42.43878" lon="2.36662">
        <ele>2218.3999023438</ele>
        <time>2023-07-17T06:45:37.000Z</time>
      </trkpt>
      <trkpt lat="42.43876" lon="2.3666">
        <ele>2219.6000976562</ele>
        <time>2023-07-17T06:45:40.000Z</time>
      </trkpt>
      <trkpt lat="42.4387" lon="2.36658">
        <ele>2220.3999023438</ele>
        <time>2023-07-17T06:45:46.000Z</time>
      </trkpt>
      <trkpt lat="42.43869" lon="2.36658">
        <ele>2220.8000488281</ele>
        <time>2023-07-17T06:45:49.000Z</time>
      </trkpt>
      <trkpt lat="42.43868" lon="2.36658">
        <ele>2221.8000488281</ele>
        <time>2023-07-17T06:45:55.000Z</time>
      </trkpt>
      <trkpt lat="42.43868" lon="2.36658">
        <ele>2221.8000488281</ele>
        <time>2023-07-17T06:45:56.000Z</time>
      </trkpt>
      <trkpt lat="42.43863" lon="2.36657">
        <ele>2222.8000488281</ele>
        <time>2023-07-17T06:46:04.000Z</time>
      </trkpt>
      <trkpt lat="42.43862" lon="2.36656">
        <ele>2223</ele>
        <time>2023-07-17T06:46:05.000Z</time>
      </trkpt>
      <trkpt lat="42.43857" lon="2.36649">
        <ele>2223.1999511719</ele>
        <time>2023-07-17T06:46:12.000Z</time>
      </trkpt>
      <trkpt lat="42.43856" lon="2.36646">
        <ele>2224</ele>
        <time>2023-07-17T06:46:18.000Z</time>
      </trkpt>
      <trkpt lat="42.43856" lon="2.36644">
        <ele>2224.3999023438</ele>
        <time>2023-07-17T06:46:20.000Z</time>
      </trkpt>
      <trkpt lat="42.43853" lon="2.36642">
        <ele>2224.8000488281</ele>
        <time>2023-07-17T06:46:28.000Z</time>
      </trkpt>
      <trkpt lat="42.4385" lon="2.36641">
        <ele>2225</ele>
        <time>2023-07-17T06:46:33.000Z</time>
      </trkpt>
      <trkpt lat="42.43847" lon="2.36642">
        <ele>2226</ele>
        <time>2023-07-17T06:46:36.000Z</time>
      </trkpt>
      <trkpt lat="42.43845" lon="2.36641">
        <ele>2227</ele>
        <time>2023-07-17T06:46:40.000Z</time>
      </trkpt>
      <trkpt lat="42.43845" lon="2.3664">
        <ele>2227.8000488281</ele>
        <time>2023-07-17T06:46:42.000Z</time>
      </trkpt>
      <trkpt lat="42.43845" lon="2.3664">
        <ele>2228.1999511719</ele>
        <time>2023-07-17T06:46:43.000Z</time>
      </trkpt>
      <trkpt lat="42.43842" lon="2.36633">
        <ele>2229.1999511719</ele>
        <time>2023-07-17T06:46:49.000Z</time>
      </trkpt>
      <trkpt lat="42.43836" lon="2.3663">
        <ele>2230.1999511719</ele>
        <time>2023-07-17T06:46:55.000Z</time>
      </trkpt>
      <trkpt lat="42.43836" lon="2.3663">
        <ele>2230.6000976562</ele>
        <time>2023-07-17T06:46:56.000Z</time>
      </trkpt>
      <trkpt lat="42.43834" lon="2.36627">
        <ele>2231.3999023438</ele>
        <time>2023-07-17T06:47:01.000Z</time>
      </trkpt>
      <trkpt lat="42.43833" lon="2.36625">
        <ele>2231.6000976562</ele>
        <time>2023-07-17T06:47:04.000Z</time>
      </trkpt>
      <trkpt lat="42.4383" lon="2.3662">
        <ele>2232</ele>
        <time>2023-07-17T06:47:11.000Z</time>
      </trkpt>
      <trkpt lat="42.4383" lon="2.36613">
        <ele>2232</ele>
        <time>2023-07-17T06:47:17.000Z</time>
      </trkpt>
      <trkpt lat="42.43827" lon="2.36603">
        <ele>2231.1999511719</ele>
        <time>2023-07-17T06:47:26.000Z</time>
      </trkpt>
      <trkpt lat="42.43825" lon="2.366">
        <ele>2231.1999511719</ele>
        <time>2023-07-17T06:47:32.000Z</time>
      </trkpt>
      <trkpt lat="42.43823" lon="2.36597">
        <ele>2231.3999023438</ele>
        <time>2023-07-17T06:47:37.000Z</time>
      </trkpt>
      <trkpt lat="42.4382" lon="2.36589">
        <ele>2231.8000488281</ele>
        <time>2023-07-17T06:47:43.000Z</time>
      </trkpt>
      <trkpt lat="42.43816" lon="2.36581">
        <ele>2231.8000488281</ele>
        <time>2023-07-17T06:47:52.000Z</time>
      </trkpt>
      <trkpt lat="42.43813" lon="2.36577">
        <ele>2232.6000976562</ele>
        <time>2023-07-17T06:47:56.000Z</time>
      </trkpt>
      <trkpt lat="42.43811" lon="2.36575">
        <ele>2234</ele>
        <time>2023-07-17T06:48:00.000Z</time>
      </trkpt>
      <trkpt lat="42.43804" lon="2.36569">
        <ele>2233.6000976562</ele>
        <time>2023-07-17T06:48:07.000Z</time>
      </trkpt>
      <trkpt lat="42.43798" lon="2.36559">
        <ele>2233.1999511719</ele>
        <time>2023-07-17T06:48:15.000Z</time>
      </trkpt>
      <trkpt lat="42.43797" lon="2.36556">
        <ele>2233</ele>
        <time>2023-07-17T06:48:17.000Z</time>
      </trkpt>
      <trkpt lat="42.43789" lon="2.36545">
        <ele>2231.6000976562</ele>
        <time>2023-07-17T06:48:26.000Z</time>
      </trkpt>
      <trkpt lat="42.43785" lon="2.36536">
        <ele>2231</ele>
        <time>2023-07-17T06:48:32.000Z</time>
      </trkpt>
      <trkpt lat="42.4378" lon="2.36528">
        <ele>2231</ele>
        <time>2023-07-17T06:48:39.000Z</time>
      </trkpt>
      <trkpt lat="42.43771" lon="2.36526">
        <ele>2232.3999023438</ele>
        <time>2023-07-17T06:48:46.000Z</time>
      </trkpt>
      <trkpt lat="42.43762" lon="2.36524">
        <ele>2232.6000976562</ele>
        <time>2023-07-17T06:48:52.000Z</time>
      </trkpt>
      <trkpt lat="42.4376" lon="2.36524">
        <ele>2232.6000976562</ele>
        <time>2023-07-17T06:48:54.000Z</time>
      </trkpt>
      <trkpt lat="42.43752" lon="2.36518">
        <ele>2233</ele>
        <time>2023-07-17T06:49:02.000Z</time>
      </trkpt>
      <trkpt lat="42.43752" lon="2.36517">
        <ele>2233</ele>
        <time>2023-07-17T06:49:08.000Z</time>
      </trkpt>
      <trkpt lat="42.43748" lon="2.36515">
        <ele>2232.8000488281</ele>
        <time>2023-07-17T06:49:14.000Z</time>
      </trkpt>
      <trkpt lat="42.43747" lon="2.36515">
        <ele>2232.8000488281</ele>
        <time>2023-07-17T06:49:15.000Z</time>
      </trkpt>
      <trkpt lat="42.43746" lon="2.36518">
        <ele>2233.3999023438</ele>
        <time>2023-07-17T06:49:27.000Z</time>
      </trkpt>
      <trkpt lat="42.43746" lon="2.36518">
        <ele>2233.6000976562</ele>
        <time>2023-07-17T06:49:28.000Z</time>
      </trkpt>
      <trkpt lat="42.43745" lon="2.36521">
        <ele>2233.6000976562</ele>
        <time>2023-07-17T06:49:36.000Z</time>
      </trkpt>
      <trkpt lat="42.43743" lon="2.36519">
        <ele>2234.3999023438</ele>
        <time>2023-07-17T06:49:45.000Z</time>
      </trkpt>
      <trkpt lat="42.4374" lon="2.36515">
        <ele>2234.1999511719</ele>
        <time>2023-07-17T06:49:52.000Z</time>
      </trkpt>
      <trkpt lat="42.43743" lon="2.36518">
        <ele>2233.3999023438</ele>
        <time>2023-07-17T06:50:01.000Z</time>
      </trkpt>
      <trkpt lat="42.43744" lon="2.36521">
        <ele>2235</ele>
        <time>2023-07-17T06:50:08.000Z</time>
      </trkpt>
      <trkpt lat="42.43745" lon="2.36521">
        <ele>2235.8000488281</ele>
        <time>2023-07-17T06:50:09.000Z</time>
      </trkpt>
      <trkpt lat="42.43748" lon="2.36517">
        <ele>2235.8000488281</ele>
        <time>2023-07-17T06:50:19.000Z</time>
      </trkpt>
      <trkpt lat="42.4375" lon="2.36515">
        <ele>2233.8000488281</ele>
        <time>2023-07-17T06:50:23.000Z</time>
      </trkpt>
      <trkpt lat="42.4375" lon="2.36515">
        <ele>2233.3999023438</ele>
        <time>2023-07-17T06:50:26.000Z</time>
      </trkpt>
      <trkpt lat="42.4375" lon="2.36517">
        <ele>2233</ele>
        <time>2023-07-17T06:50:34.000Z</time>
      </trkpt>
      <trkpt lat="42.43752" lon="2.36517">
        <ele>2233</ele>
        <time>2023-07-17T06:50:41.000Z</time>
      </trkpt>
      <trkpt lat="42.4375" lon="2.36515">
        <ele>2233.1999511719</ele>
        <time>2023-07-17T06:50:50.000Z</time>
      </trkpt>
      <trkpt lat="42.4375" lon="2.36519">
        <ele>2232.8000488281</ele>
        <time>2023-07-17T06:50:59.000Z</time>
      </trkpt>
      <trkpt lat="42.4375" lon="2.36519">
        <ele>2232.6000976562</ele>
        <time>2023-07-17T06:51:00.000Z</time>
      </trkpt>
      <trkpt lat="42.43749" lon="2.36512">
        <ele>2232.6000976562</ele>
        <time>2023-07-17T06:51:07.000Z</time>
      </trkpt>
      <trkpt lat="42.43751" lon="2.36509">
        <ele>2232.8000488281</ele>
        <time>2023-07-17T06:51:13.000Z</time>
      </trkpt>
      <trkpt lat="42.43754" lon="2.36502">
        <ele>2233</ele>
        <time>2023-07-17T06:51:20.000Z</time>
      </trkpt>
      <trkpt lat="42.43754" lon="2.36496">
        <ele>2234.3999023438</ele>
        <time>2023-07-17T06:51:24.000Z</time>
      </trkpt>
      <trkpt lat="42.43755" lon="2.36494">
        <ele>2235.3999023438</ele>
        <time>2023-07-17T06:51:28.000Z</time>
      </trkpt>
      <trkpt lat="42.43755" lon="2.36495">
        <ele>2235.3999023438</ele>
        <time>2023-07-17T06:51:29.000Z</time>
      </trkpt>
      <trkpt lat="42.43755" lon="2.36495">
        <ele>2235.6000976562</ele>
        <time>2023-07-17T06:51:31.000Z</time>
      </trkpt>
      <trkpt lat="42.43755" lon="2.36492">
        <ele>2235.1999511719</ele>
        <time>2023-07-17T06:51:34.000Z</time>
      </trkpt>
      <trkpt lat="42.43757" lon="2.36486">
        <ele>2235</ele>
        <time>2023-07-17T06:51:41.000Z</time>
      </trkpt>
      <trkpt lat="42.43758" lon="2.36482">
        <ele>2234.3999023438</ele>
        <time>2023-07-17T06:51:44.000Z</time>
      </trkpt>
      <trkpt lat="42.4376" lon="2.36475">
        <ele>2234.3999023438</ele>
        <time>2023-07-17T06:51:48.000Z</time>
      </trkpt>
      <trkpt lat="42.4376" lon="2.3647">
        <ele>2233.1999511719</ele>
        <time>2023-07-17T06:51:52.000Z</time>
      </trkpt>
      <trkpt lat="42.4376" lon="2.36467">
        <ele>2232.6000976562</ele>
        <time>2023-07-17T06:51:54.000Z</time>
      </trkpt>
      <trkpt lat="42.4376" lon="2.3646">
        <ele>2232.8000488281</ele>
        <time>2023-07-17T06:52:00.000Z</time>
      </trkpt>
      <trkpt lat="42.43759" lon="2.36453">
        <ele>2234.6000976562</ele>
        <time>2023-07-17T06:52:05.000Z</time>
      </trkpt>
      <trkpt lat="42.43759" lon="2.3645">
        <ele>2234.6000976562</ele>
        <time>2023-07-17T06:52:07.000Z</time>
      </trkpt>
      <trkpt lat="42.43757" lon="2.36438">
        <ele>2233.8000488281</ele>
        <time>2023-07-17T06:52:16.000Z</time>
      </trkpt>
      <trkpt lat="42.43756" lon="2.36426">
        <ele>2234</ele>
        <time>2023-07-17T06:52:24.000Z</time>
      </trkpt>
      <trkpt lat="42.43754" lon="2.36417">
        <ele>2235</ele>
        <time>2023-07-17T06:52:31.000Z</time>
      </trkpt>
      <trkpt lat="42.43756" lon="2.36407">
        <ele>2234.6000976562</ele>
        <time>2023-07-17T06:52:38.000Z</time>
      </trkpt>
      <trkpt lat="42.43756" lon="2.36397">
        <ele>2234.6000976562</ele>
        <time>2023-07-17T06:52:46.000Z</time>
      </trkpt>
      <trkpt lat="42.43752" lon="2.36382">
        <ele>2234.8000488281</ele>
        <time>2023-07-17T06:52:56.000Z</time>
      </trkpt>
      <trkpt lat="42.4375" lon="2.36369">
        <ele>2234.8000488281</ele>
        <time>2023-07-17T06:53:07.000Z</time>
      </trkpt>
      <trkpt lat="42.43747" lon="2.36363">
        <ele>2233.3999023438</ele>
        <time>2023-07-17T06:53:13.000Z</time>
      </trkpt>
      <trkpt lat="42.43745" lon="2.36359">
        <ele>2233</ele>
        <time>2023-07-17T06:53:16.000Z</time>
      </trkpt>
      <trkpt lat="42.43743" lon="2.36352">
        <ele>2233</ele>
        <time>2023-07-17T06:53:25.000Z</time>
      </trkpt>
      <trkpt lat="42.4374" lon="2.36342">
        <ele>2233.3999023438</ele>
        <time>2023-07-17T06:53:32.000Z</time>
      </trkpt>
      <trkpt lat="42.4374" lon="2.36332">
        <ele>2232.3999023438</ele>
        <time>2023-07-17T06:53:38.000Z</time>
      </trkpt>
      <trkpt lat="42.43738" lon="2.36325">
        <ele>2232</ele>
        <time>2023-07-17T06:53:41.000Z</time>
      </trkpt>
      <trkpt lat="42.43736" lon="2.36312">
        <ele>2232.8000488281</ele>
        <time>2023-07-17T06:53:51.000Z</time>
      </trkpt>
      <trkpt lat="42.43733" lon="2.36302">
        <ele>2232</ele>
        <time>2023-07-17T06:54:00.000Z</time>
      </trkpt>
      <trkpt lat="42.43732" lon="2.363">
        <ele>2233.3999023438</ele>
        <time>2023-07-17T06:54:08.000Z</time>
      </trkpt>
      <trkpt lat="42.43732" lon="2.363">
        <ele>2233.3999023438</ele>
        <time>2023-07-17T06:54:09.000Z</time>
      </trkpt>
      <trkpt lat="42.43731" lon="2.36294">
        <ele>2232.8000488281</ele>
        <time>2023-07-17T06:54:15.000Z</time>
      </trkpt>
      <trkpt lat="42.4373" lon="2.36293">
        <ele>2232.1999511719</ele>
        <time>2023-07-17T06:54:16.000Z</time>
      </trkpt>
      <trkpt lat="42.43728" lon="2.36282">
        <ele>2232</ele>
        <time>2023-07-17T06:54:23.000Z</time>
      </trkpt>
      <trkpt lat="42.43724" lon="2.36269">
        <ele>2231.8000488281</ele>
        <time>2023-07-17T06:54:31.000Z</time>
      </trkpt>
      <trkpt lat="42.43718" lon="2.36256">
        <ele>2231.3999023438</ele>
        <time>2023-07-17T06:54:39.000Z</time>
      </trkpt>
      <trkpt lat="42.43716" lon="2.36245">
        <ele>2231.8000488281</ele>
        <time>2023-07-17T06:54:46.000Z</time>
      </trkpt>
      <trkpt lat="42.43715" lon="2.36237">
        <ele>2232</ele>
        <time>2023-07-17T06:54:52.000Z</time>
      </trkpt>
      <trkpt lat="42.43714" lon="2.36234">
        <ele>2231</ele>
        <time>2023-07-17T06:54:55.000Z</time>
      </trkpt>
      <trkpt lat="42.43712" lon="2.36229">
        <ele>2230.6000976562</ele>
        <time>2023-07-17T06:54:59.000Z</time>
      </trkpt>
      <trkpt lat="42.43707" lon="2.36219">
        <ele>2230.1999511719</ele>
        <time>2023-07-17T06:55:06.000Z</time>
      </trkpt>
      <trkpt lat="42.43704" lon="2.36208">
        <ele>2230.8000488281</ele>
        <time>2023-07-17T06:55:14.000Z</time>
      </trkpt>
      <trkpt lat="42.43704" lon="2.36206">
        <ele>2230.8000488281</ele>
        <time>2023-07-17T06:55:18.000Z</time>
      </trkpt>
      <trkpt lat="42.43704" lon="2.36205">
        <ele>2230.8000488281</ele>
        <time>2023-07-17T06:55:20.000Z</time>
      </trkpt>
      <trkpt lat="42.437" lon="2.36197">
        <ele>2232</ele>
        <time>2023-07-17T06:55:26.000Z</time>
      </trkpt>
      <trkpt lat="42.43696" lon="2.36186">
        <ele>2230.8000488281</ele>
        <time>2023-07-17T06:55:34.000Z</time>
      </trkpt>
      <trkpt lat="42.43693" lon="2.36175">
        <ele>2230.3999023438</ele>
        <time>2023-07-17T06:55:41.000Z</time>
      </trkpt>
      <trkpt lat="42.43691" lon="2.36168">
        <ele>2229</ele>
        <time>2023-07-17T06:55:46.000Z</time>
      </trkpt>
      <trkpt lat="42.4369" lon="2.36165">
        <ele>2228.6000976562</ele>
        <time>2023-07-17T06:55:48.000Z</time>
      </trkpt>
      <trkpt lat="42.43685" lon="2.36153">
        <ele>2228.3999023438</ele>
        <time>2023-07-17T06:55:56.000Z</time>
      </trkpt>
      <trkpt lat="42.43685" lon="2.36152">
        <ele>2227.8000488281</ele>
        <time>2023-07-17T06:55:57.000Z</time>
      </trkpt>
      <trkpt lat="42.43684" lon="2.36148">
        <ele>2226.8000488281</ele>
        <time>2023-07-17T06:56:00.000Z</time>
      </trkpt>
      <trkpt lat="42.43682" lon="2.36141">
        <ele>2227</ele>
        <time>2023-07-17T06:56:05.000Z</time>
      </trkpt>
      <trkpt lat="42.43679" lon="2.3613">
        <ele>2226.8000488281</ele>
        <time>2023-07-17T06:56:12.000Z</time>
      </trkpt>
      <trkpt lat="42.43673" lon="2.36121">
        <ele>2226</ele>
        <time>2023-07-17T06:56:20.000Z</time>
      </trkpt>
      <trkpt lat="42.43667" lon="2.3611">
        <ele>2226.3999023438</ele>
        <time>2023-07-17T06:56:28.000Z</time>
      </trkpt>
      <trkpt lat="42.43662" lon="2.361">
        <ele>2227</ele>
        <time>2023-07-17T06:56:36.000Z</time>
      </trkpt>
      <trkpt lat="42.43658" lon="2.36093">
        <ele>2226.8000488281</ele>
        <time>2023-07-17T06:56:43.000Z</time>
      </trkpt>
      <trkpt lat="42.4365" lon="2.36082">
        <ele>2226.8000488281</ele>
        <time>2023-07-17T06:56:52.000Z</time>
      </trkpt>
      <trkpt lat="42.43642" lon="2.36071">
        <ele>2227.3999023438</ele>
        <time>2023-07-17T06:57:01.000Z</time>
      </trkpt>
      <trkpt lat="42.43637" lon="2.36066">
        <ele>2227.8000488281</ele>
        <time>2023-07-17T06:57:07.000Z</time>
      </trkpt>
      <trkpt lat="42.43634" lon="2.36063">
        <ele>2227.8000488281</ele>
        <time>2023-07-17T06:57:10.000Z</time>
      </trkpt>
      <trkpt lat="42.43629" lon="2.36055">
        <ele>2228.8000488281</ele>
        <time>2023-07-17T06:57:16.000Z</time>
      </trkpt>
      <trkpt lat="42.43624" lon="2.36046">
        <ele>2227.8000488281</ele>
        <time>2023-07-17T06:57:23.000Z</time>
      </trkpt>
      <trkpt lat="42.43617" lon="2.36036">
        <ele>2226.3999023438</ele>
        <time>2023-07-17T06:57:31.000Z</time>
      </trkpt>
      <trkpt lat="42.43617" lon="2.36035">
        <ele>2226</ele>
        <time>2023-07-17T06:57:32.000Z</time>
      </trkpt>
      <trkpt lat="42.43613" lon="2.36028">
        <ele>2225.3999023438</ele>
        <time>2023-07-17T06:57:38.000Z</time>
      </trkpt>
      <trkpt lat="42.43612" lon="2.36026">
        <ele>2225.1999511719</ele>
        <time>2023-07-17T06:57:39.000Z</time>
      </trkpt>
      <trkpt lat="42.43608" lon="2.36021">
        <ele>2225.1999511719</ele>
        <time>2023-07-17T06:57:44.000Z</time>
      </trkpt>
      <trkpt lat="42.43602" lon="2.36012">
        <ele>2226</ele>
        <time>2023-07-17T06:57:51.000Z</time>
      </trkpt>
      <trkpt lat="42.43601" lon="2.36008">
        <ele>2226.3999023438</ele>
        <time>2023-07-17T06:57:54.000Z</time>
      </trkpt>
      <trkpt lat="42.43598" lon="2.36002">
        <ele>2227</ele>
        <time>2023-07-17T06:57:58.000Z</time>
      </trkpt>
      <trkpt lat="42.43595" lon="2.35995">
        <ele>2227</ele>
        <time>2023-07-17T06:58:04.000Z</time>
      </trkpt>
      <trkpt lat="42.43592" lon="2.35981">
        <ele>2227.3999023438</ele>
        <time>2023-07-17T06:58:12.000Z</time>
      </trkpt>
      <trkpt lat="42.43591" lon="2.3598">
        <ele>2227.6000976562</ele>
        <time>2023-07-17T06:58:13.000Z</time>
      </trkpt>
      <trkpt lat="42.43587" lon="2.35971">
        <ele>2226.8000488281</ele>
        <time>2023-07-17T06:58:19.000Z</time>
      </trkpt>
      <trkpt lat="42.43583" lon="2.3596">
        <ele>2228.1999511719</ele>
        <time>2023-07-17T06:58:27.000Z</time>
      </trkpt>
      <trkpt lat="42.43582" lon="2.35957">
        <ele>2228.8000488281</ele>
        <time>2023-07-17T06:58:31.000Z</time>
      </trkpt>
      <trkpt lat="42.43581" lon="2.35951">
        <ele>2230.1999511719</ele>
        <time>2023-07-17T06:58:35.000Z</time>
      </trkpt>
      <trkpt lat="42.4358" lon="2.35946">
        <ele>2231.3999023438</ele>
        <time>2023-07-17T06:58:38.000Z</time>
      </trkpt>
      <trkpt lat="42.43579" lon="2.3594">
        <ele>2231.6000976562</ele>
        <time>2023-07-17T06:58:43.000Z</time>
      </trkpt>
      <trkpt lat="42.43577" lon="2.3593">
        <ele>2231.8000488281</ele>
        <time>2023-07-17T06:58:50.000Z</time>
      </trkpt>
      <trkpt lat="42.43573" lon="2.3592">
        <ele>2232</ele>
        <time>2023-07-17T06:58:59.000Z</time>
      </trkpt>
      <trkpt lat="42.43572" lon="2.35909">
        <ele>2232.1999511719</ele>
        <time>2023-07-17T06:59:06.000Z</time>
      </trkpt>
      <trkpt lat="42.43572" lon="2.35895">
        <ele>2231.6000976562</ele>
        <time>2023-07-17T06:59:14.000Z</time>
      </trkpt>
      <trkpt lat="42.4357" lon="2.35885">
        <ele>2231.8000488281</ele>
        <time>2023-07-17T06:59:21.000Z</time>
      </trkpt>
      <trkpt lat="42.4357" lon="2.35874">
        <ele>2231.1999511719</ele>
        <time>2023-07-17T06:59:28.000Z</time>
      </trkpt>
      <trkpt lat="42.43568" lon="2.35861">
        <ele>2232.1999511719</ele>
        <time>2023-07-17T06:59:38.000Z</time>
      </trkpt>
      <trkpt lat="42.43565" lon="2.35854">
        <ele>2232.3999023438</ele>
        <time>2023-07-17T06:59:43.000Z</time>
      </trkpt>
      <trkpt lat="42.43564" lon="2.35841">
        <ele>2232.3999023438</ele>
        <time>2023-07-17T06:59:51.000Z</time>
      </trkpt>
      <trkpt lat="42.43564" lon="2.3584">
        <ele>2232.3999023438</ele>
        <time>2023-07-17T06:59:52.000Z</time>
      </trkpt>
      <trkpt lat="42.43564" lon="2.35833">
        <ele>2232.8000488281</ele>
        <time>2023-07-17T06:59:58.000Z</time>
      </trkpt>
      <trkpt lat="42.43563" lon="2.3583">
        <ele>2233.6000976562</ele>
        <time>2023-07-17T07:00:01.000Z</time>
      </trkpt>
      <trkpt lat="42.43562" lon="2.35824">
        <ele>2234.3999023438</ele>
        <time>2023-07-17T07:00:07.000Z</time>
      </trkpt>
      <trkpt lat="42.43561" lon="2.35823">
        <ele>2234.6000976562</ele>
        <time>2023-07-17T07:00:10.000Z</time>
      </trkpt>
      <trkpt lat="42.43558" lon="2.35817">
        <ele>2235.6000976562</ele>
        <time>2023-07-17T07:00:16.000Z</time>
      </trkpt>
      <trkpt lat="42.43553" lon="2.35807">
        <ele>2236.1999511719</ele>
        <time>2023-07-17T07:00:24.000Z</time>
      </trkpt>
      <trkpt lat="42.4355" lon="2.358">
        <ele>2236.8000488281</ele>
        <time>2023-07-17T07:00:30.000Z</time>
      </trkpt>
      <trkpt lat="42.4355" lon="2.35797">
        <ele>2237.6000976562</ele>
        <time>2023-07-17T07:00:33.000Z</time>
      </trkpt>
      <trkpt lat="42.4355" lon="2.35794">
        <ele>2238.1999511719</ele>
        <time>2023-07-17T07:00:35.000Z</time>
      </trkpt>
      <trkpt lat="42.43549" lon="2.35786">
        <ele>2239</ele>
        <time>2023-07-17T07:00:41.000Z</time>
      </trkpt>
      <trkpt lat="42.43548" lon="2.35775">
        <ele>2239.3999023438</ele>
        <time>2023-07-17T07:00:50.000Z</time>
      </trkpt>
      <trkpt lat="42.43546" lon="2.35769">
        <ele>2240.3999023438</ele>
        <time>2023-07-17T07:00:55.000Z</time>
      </trkpt>
      <trkpt lat="42.43544" lon="2.35766">
        <ele>2240.6000976562</ele>
        <time>2023-07-17T07:00:59.000Z</time>
      </trkpt>
      <trkpt lat="42.43542" lon="2.35759">
        <ele>2241.1999511719</ele>
        <time>2023-07-17T07:01:06.000Z</time>
      </trkpt>
      <trkpt lat="42.43537" lon="2.35752">
        <ele>2241.6000976562</ele>
        <time>2023-07-17T07:01:13.000Z</time>
      </trkpt>
      <trkpt lat="42.43537" lon="2.35751">
        <ele>2241.8000488281</ele>
        <time>2023-07-17T07:01:14.000Z</time>
      </trkpt>
      <trkpt lat="42.43536" lon="2.35749">
        <ele>2243.1999511719</ele>
        <time>2023-07-17T07:01:17.000Z</time>
      </trkpt>
      <trkpt lat="42.43536" lon="2.35747">
        <ele>2244.3999023438</ele>
        <time>2023-07-17T07:01:18.000Z</time>
      </trkpt>
      <trkpt lat="42.43535" lon="2.35743">
        <ele>2244.6000976562</ele>
        <time>2023-07-17T07:01:20.000Z</time>
      </trkpt>
      <trkpt lat="42.43531" lon="2.35735">
        <ele>2243.6000976562</ele>
        <time>2023-07-17T07:01:26.000Z</time>
      </trkpt>
      <trkpt lat="42.4353" lon="2.35732">
        <ele>2243</ele>
        <time>2023-07-17T07:01:28.000Z</time>
      </trkpt>
      <trkpt lat="42.43528" lon="2.35724">
        <ele>2244.1999511719</ele>
        <time>2023-07-17T07:01:35.000Z</time>
      </trkpt>
      <trkpt lat="42.43525" lon="2.3571">
        <ele>2243.1999511719</ele>
        <time>2023-07-17T07:01:43.000Z</time>
      </trkpt>
      <trkpt lat="42.43525" lon="2.35709">
        <ele>2243.1999511719</ele>
        <time>2023-07-17T07:01:44.000Z</time>
      </trkpt>
      <trkpt lat="42.43521" lon="2.35703">
        <ele>2243</ele>
        <time>2023-07-17T07:01:50.000Z</time>
      </trkpt>
      <trkpt lat="42.43518" lon="2.357">
        <ele>2244.6000976562</ele>
        <time>2023-07-17T07:01:54.000Z</time>
      </trkpt>
      <trkpt lat="42.43517" lon="2.35697">
        <ele>2245</ele>
        <time>2023-07-17T07:01:57.000Z</time>
      </trkpt>
      <trkpt lat="42.43512" lon="2.35685">
        <ele>2245.8000488281</ele>
        <time>2023-07-17T07:02:05.000Z</time>
      </trkpt>
      <trkpt lat="42.43512" lon="2.35683">
        <ele>2246</ele>
        <time>2023-07-17T07:02:06.000Z</time>
      </trkpt>
      <trkpt lat="42.4351" lon="2.35679">
        <ele>2247.1999511719</ele>
        <time>2023-07-17T07:02:09.000Z</time>
      </trkpt>
      <trkpt lat="42.43507" lon="2.35674">
        <ele>2247.6000976562</ele>
        <time>2023-07-17T07:02:14.000Z</time>
      </trkpt>
      <trkpt lat="42.43504" lon="2.35663">
        <ele>2248</ele>
        <time>2023-07-17T07:02:21.000Z</time>
      </trkpt>
      <trkpt lat="42.43502" lon="2.35659">
        <ele>2248.1999511719</ele>
        <time>2023-07-17T07:02:25.000Z</time>
      </trkpt>
      <trkpt lat="42.43502" lon="2.35652">
        <ele>2248.1999511719</ele>
        <time>2023-07-17T07:02:30.000Z</time>
      </trkpt>
      <trkpt lat="42.435" lon="2.35646">
        <ele>2246.6000976562</ele>
        <time>2023-07-17T07:02:34.000Z</time>
      </trkpt>
      <trkpt lat="42.43498" lon="2.35641">
        <ele>2246.8000488281</ele>
        <time>2023-07-17T07:02:38.000Z</time>
      </trkpt>
      <trkpt lat="42.43495" lon="2.35634">
        <ele>2247.1999511719</ele>
        <time>2023-07-17T07:02:44.000Z</time>
      </trkpt>
      <trkpt lat="42.43491" lon="2.35626">
        <ele>2246</ele>
        <time>2023-07-17T07:02:51.000Z</time>
      </trkpt>
      <trkpt lat="42.43482" lon="2.35609">
        <ele>2246.3999023438</ele>
        <time>2023-07-17T07:03:01.000Z</time>
      </trkpt>
      <trkpt lat="42.43478" lon="2.35597">
        <ele>2247.1999511719</ele>
        <time>2023-07-17T07:03:09.000Z</time>
      </trkpt>
      <trkpt lat="42.43475" lon="2.35585">
        <ele>2248</ele>
        <time>2023-07-17T07:03:19.000Z</time>
      </trkpt>
      <trkpt lat="42.43471" lon="2.35575">
        <ele>2248.6000976562</ele>
        <time>2023-07-17T07:03:25.000Z</time>
      </trkpt>
      <trkpt lat="42.4347" lon="2.35574">
        <ele>2249</ele>
        <time>2023-07-17T07:03:26.000Z</time>
      </trkpt>
      <trkpt lat="42.43469" lon="2.35572">
        <ele>2250.6000976562</ele>
        <time>2023-07-17T07:03:28.000Z</time>
      </trkpt>
      <trkpt lat="42.43467" lon="2.3557">
        <ele>2251.8000488281</ele>
        <time>2023-07-17T07:03:30.000Z</time>
      </trkpt>
      <trkpt lat="42.43466" lon="2.35566">
        <ele>2251.8000488281</ele>
        <time>2023-07-17T07:03:32.000Z</time>
      </trkpt>
      <trkpt lat="42.43464" lon="2.35563">
        <ele>2249.8000488281</ele>
        <time>2023-07-17T07:03:35.000Z</time>
      </trkpt>
      <trkpt lat="42.43462" lon="2.3556">
        <ele>2248.3999023438</ele>
        <time>2023-07-17T07:03:38.000Z</time>
      </trkpt>
      <trkpt lat="42.43461" lon="2.35559">
        <ele>2248.1999511719</ele>
        <time>2023-07-17T07:03:39.000Z</time>
      </trkpt>
      <trkpt lat="42.43459" lon="2.35554">
        <ele>2247</ele>
        <time>2023-07-17T07:03:43.000Z</time>
      </trkpt>
      <trkpt lat="42.43458" lon="2.35551">
        <ele>2246</ele>
        <time>2023-07-17T07:03:45.000Z</time>
      </trkpt>
      <trkpt lat="42.43455" lon="2.3554">
        <ele>2245.1999511719</ele>
        <time>2023-07-17T07:03:52.000Z</time>
      </trkpt>
      <trkpt lat="42.43455" lon="2.35538">
        <ele>2244.8000488281</ele>
        <time>2023-07-17T07:03:53.000Z</time>
      </trkpt>
      <trkpt lat="42.43453" lon="2.3553">
        <ele>2243.6000976562</ele>
        <time>2023-07-17T07:03:58.000Z</time>
      </trkpt>
      <trkpt lat="42.43453" lon="2.35526">
        <ele>2243.6000976562</ele>
        <time>2023-07-17T07:04:00.000Z</time>
      </trkpt>
      <trkpt lat="42.43452" lon="2.35511">
        <ele>2243.8000488281</ele>
        <time>2023-07-17T07:04:08.000Z</time>
      </trkpt>
      <trkpt lat="42.43451" lon="2.35503">
        <ele>2243.6000976562</ele>
        <time>2023-07-17T07:04:15.000Z</time>
      </trkpt>
      <trkpt lat="42.43448" lon="2.35495">
        <ele>2244.3999023438</ele>
        <time>2023-07-17T07:04:22.000Z</time>
      </trkpt>
      <trkpt lat="42.43448" lon="2.35494">
        <ele>2244.6000976562</ele>
        <time>2023-07-17T07:04:23.000Z</time>
      </trkpt>
      <trkpt lat="42.43446" lon="2.35488">
        <ele>2245.8000488281</ele>
        <time>2023-07-17T07:04:28.000Z</time>
      </trkpt>
      <trkpt lat="42.43445" lon="2.35487">
        <ele>2246.1999511719</ele>
        <time>2023-07-17T07:04:29.000Z</time>
      </trkpt>
      <trkpt lat="42.43444" lon="2.35483">
        <ele>2246.8000488281</ele>
        <time>2023-07-17T07:04:32.000Z</time>
      </trkpt>
      <trkpt lat="42.43443" lon="2.35475">
        <ele>2247.6000976562</ele>
        <time>2023-07-17T07:04:37.000Z</time>
      </trkpt>
      <trkpt lat="42.43442" lon="2.35474">
        <ele>2248</ele>
        <time>2023-07-17T07:04:38.000Z</time>
      </trkpt>
      <trkpt lat="42.43442" lon="2.35464">
        <ele>2248.3999023438</ele>
        <time>2023-07-17T07:04:45.000Z</time>
      </trkpt>
      <trkpt lat="42.43441" lon="2.35461">
        <ele>2249</ele>
        <time>2023-07-17T07:04:47.000Z</time>
      </trkpt>
      <trkpt lat="42.4344" lon="2.35457">
        <ele>2250.1999511719</ele>
        <time>2023-07-17T07:04:51.000Z</time>
      </trkpt>
      <trkpt lat="42.43437" lon="2.35451">
        <ele>2251.1999511719</ele>
        <time>2023-07-17T07:04:55.000Z</time>
      </trkpt>
      <trkpt lat="42.43435" lon="2.35446">
        <ele>2252</ele>
        <time>2023-07-17T07:04:59.000Z</time>
      </trkpt>
      <trkpt lat="42.43432" lon="2.35439">
        <ele>2250</ele>
        <time>2023-07-17T07:05:05.000Z</time>
      </trkpt>
      <trkpt lat="42.43432" lon="2.35437">
        <ele>2250</ele>
        <time>2023-07-17T07:05:06.000Z</time>
      </trkpt>
      <trkpt lat="42.43428" lon="2.35425">
        <ele>2249.6000976562</ele>
        <time>2023-07-17T07:05:15.000Z</time>
      </trkpt>
      <trkpt lat="42.43429" lon="2.35419">
        <ele>2248.3999023438</ele>
        <time>2023-07-17T07:05:19.000Z</time>
      </trkpt>
      <trkpt lat="42.43429" lon="2.35415">
        <ele>2247.1999511719</ele>
        <time>2023-07-17T07:05:21.000Z</time>
      </trkpt>
      <trkpt lat="42.4343" lon="2.35413">
        <ele>2246.1999511719</ele>
        <time>2023-07-17T07:05:22.000Z</time>
      </trkpt>
      <trkpt lat="42.4343" lon="2.35411">
        <ele>2246</ele>
        <time>2023-07-17T07:05:23.000Z</time>
      </trkpt>
      <trkpt lat="42.43431" lon="2.35402">
        <ele>2246</ele>
        <time>2023-07-17T07:05:29.000Z</time>
      </trkpt>
      <trkpt lat="42.43436" lon="2.35386">
        <ele>2245.6000976562</ele>
        <time>2023-07-17T07:05:39.000Z</time>
      </trkpt>
      <trkpt lat="42.43436" lon="2.35377">
        <ele>2247</ele>
        <time>2023-07-17T07:05:45.000Z</time>
      </trkpt>
      <trkpt lat="42.43436" lon="2.35374">
        <ele>2247.1999511719</ele>
        <time>2023-07-17T07:05:47.000Z</time>
      </trkpt>
      <trkpt lat="42.43435" lon="2.35365">
        <ele>2247.8000488281</ele>
        <time>2023-07-17T07:05:53.000Z</time>
      </trkpt>
      <trkpt lat="42.43434" lon="2.35363">
        <ele>2248</ele>
        <time>2023-07-17T07:05:55.000Z</time>
      </trkpt>
      <trkpt lat="42.43434" lon="2.35359">
        <ele>2249.1999511719</ele>
        <time>2023-07-17T07:05:58.000Z</time>
      </trkpt>
      <trkpt lat="42.43434" lon="2.35357">
        <ele>2249.1999511719</ele>
        <time>2023-07-17T07:06:00.000Z</time>
      </trkpt>
      <trkpt lat="42.43433" lon="2.35349">
        <ele>2249.6000976562</ele>
        <time>2023-07-17T07:06:07.000Z</time>
      </trkpt>
      <trkpt lat="42.43434" lon="2.35336">
        <ele>2248.8000488281</ele>
        <time>2023-07-17T07:06:15.000Z</time>
      </trkpt>
      <trkpt lat="42.43433" lon="2.3532">
        <ele>2249.6000976562</ele>
        <time>2023-07-17T07:06:24.000Z</time>
      </trkpt>
      <trkpt lat="42.43431" lon="2.35304">
        <ele>2248.8000488281</ele>
        <time>2023-07-17T07:06:33.000Z</time>
      </trkpt>
      <trkpt lat="42.43429" lon="2.35292">
        <ele>2249.3999023438</ele>
        <time>2023-07-17T07:06:41.000Z</time>
      </trkpt>
      <trkpt lat="42.43427" lon="2.35284">
        <ele>2250.1999511719</ele>
        <time>2023-07-17T07:06:47.000Z</time>
      </trkpt>
      <trkpt lat="42.43426" lon="2.3528">
        <ele>2250.1999511719</ele>
        <time>2023-07-17T07:06:49.000Z</time>
      </trkpt>
      <trkpt lat="42.43424" lon="2.35264">
        <ele>2250.3999023438</ele>
        <time>2023-07-17T07:06:58.000Z</time>
      </trkpt>
      <trkpt lat="42.43421" lon="2.35252">
        <ele>2250.3999023438</ele>
        <time>2023-07-17T07:07:07.000Z</time>
      </trkpt>
      <trkpt lat="42.43419" lon="2.35245">
        <ele>2250</ele>
        <time>2023-07-17T07:07:13.000Z</time>
      </trkpt>
      <trkpt lat="42.43418" lon="2.35238">
        <ele>2250</ele>
        <time>2023-07-17T07:07:19.000Z</time>
      </trkpt>
      <trkpt lat="42.43416" lon="2.35228">
        <ele>2249.6000976562</ele>
        <time>2023-07-17T07:07:26.000Z</time>
      </trkpt>
      <trkpt lat="42.43411" lon="2.35218">
        <ele>2250.3999023438</ele>
        <time>2023-07-17T07:07:34.000Z</time>
      </trkpt>
      <trkpt lat="42.43405" lon="2.3521">
        <ele>2250.3999023438</ele>
        <time>2023-07-17T07:07:41.000Z</time>
      </trkpt>
      <trkpt lat="42.43397" lon="2.35202">
        <ele>2250.8000488281</ele>
        <time>2023-07-17T07:07:50.000Z</time>
      </trkpt>
      <trkpt lat="42.43392" lon="2.35193">
        <ele>2251.1999511719</ele>
        <time>2023-07-17T07:07:57.000Z</time>
      </trkpt>
      <trkpt lat="42.43391" lon="2.35191">
        <ele>2251.1999511719</ele>
        <time>2023-07-17T07:07:59.000Z</time>
      </trkpt>
      <trkpt lat="42.43387" lon="2.35185">
        <ele>2252</ele>
        <time>2023-07-17T07:08:05.000Z</time>
      </trkpt>
      <trkpt lat="42.43387" lon="2.35182">
        <ele>2252.3999023438</ele>
        <time>2023-07-17T07:08:07.000Z</time>
      </trkpt>
      <trkpt lat="42.43383" lon="2.35174">
        <ele>2252.6000976562</ele>
        <time>2023-07-17T07:08:13.000Z</time>
      </trkpt>
      <trkpt lat="42.43379" lon="2.35165">
        <ele>2252.3999023438</ele>
        <time>2023-07-17T07:08:20.000Z</time>
      </trkpt>
      <trkpt lat="42.43374" lon="2.35151">
        <ele>2253.1999511719</ele>
        <time>2023-07-17T07:08:28.000Z</time>
      </trkpt>
      <trkpt lat="42.43373" lon="2.35149">
        <ele>2253.3999023438</ele>
        <time>2023-07-17T07:08:30.000Z</time>
      </trkpt>
      <trkpt lat="42.4337" lon="2.35142">
        <ele>2254</ele>
        <time>2023-07-17T07:08:37.000Z</time>
      </trkpt>
      <trkpt lat="42.43369" lon="2.35139">
        <ele>2254.6000976562</ele>
        <time>2023-07-17T07:08:40.000Z</time>
      </trkpt>
      <trkpt lat="42.43367" lon="2.35136">
        <ele>2255.1999511719</ele>
        <time>2023-07-17T07:08:44.000Z</time>
      </trkpt>
      <trkpt lat="42.43366" lon="2.35133">
        <ele>2255.6000976562</ele>
        <time>2023-07-17T07:08:46.000Z</time>
      </trkpt>
      <trkpt lat="42.43364" lon="2.35126">
        <ele>2256.3999023438</ele>
        <time>2023-07-17T07:08:52.000Z</time>
      </trkpt>
      <trkpt lat="42.43363" lon="2.35123">
        <ele>2256.6000976562</ele>
        <time>2023-07-17T07:08:54.000Z</time>
      </trkpt>
      <trkpt lat="42.43361" lon="2.35118">
        <ele>2256.8000488281</ele>
        <time>2023-07-17T07:08:59.000Z</time>
      </trkpt>
      <trkpt lat="42.43359" lon="2.35112">
        <ele>2257.1999511719</ele>
        <time>2023-07-17T07:09:06.000Z</time>
      </trkpt>
      <trkpt lat="42.43356" lon="2.35107">
        <ele>2257.8000488281</ele>
        <time>2023-07-17T07:09:13.000Z</time>
      </trkpt>
      <trkpt lat="42.43354" lon="2.35105">
        <ele>2258</ele>
        <time>2023-07-17T07:09:16.000Z</time>
      </trkpt>
      <trkpt lat="42.4335" lon="2.35096">
        <ele>2258.3999023438</ele>
        <time>2023-07-17T07:09:25.000Z</time>
      </trkpt>
      <trkpt lat="42.43349" lon="2.35094">
        <ele>2258.8000488281</ele>
        <time>2023-07-17T07:09:28.000Z</time>
      </trkpt>
      <trkpt lat="42.43347" lon="2.35088">
        <ele>2259.3999023438</ele>
        <time>2023-07-17T07:09:32.000Z</time>
      </trkpt>
      <trkpt lat="42.43346" lon="2.35078">
        <ele>2259.6000976562</ele>
        <time>2023-07-17T07:09:39.000Z</time>
      </trkpt>
      <trkpt lat="42.43344" lon="2.35066">
        <ele>2259.8000488281</ele>
        <time>2023-07-17T07:09:48.000Z</time>
      </trkpt>
      <trkpt lat="42.4334" lon="2.35058">
        <ele>2261</ele>
        <time>2023-07-17T07:09:55.000Z</time>
      </trkpt>
      <trkpt lat="42.43339" lon="2.35055">
        <ele>2261.3999023438</ele>
        <time>2023-07-17T07:09:58.000Z</time>
      </trkpt>
      <trkpt lat="42.43338" lon="2.35051">
        <ele>2262.1999511719</ele>
        <time>2023-07-17T07:10:01.000Z</time>
      </trkpt>
      <trkpt lat="42.43336" lon="2.35047">
        <ele>2262.1999511719</ele>
        <time>2023-07-17T07:10:04.000Z</time>
      </trkpt>
      <trkpt lat="42.43331" lon="2.35038">
        <ele>2262.8000488281</ele>
        <time>2023-07-17T07:10:12.000Z</time>
      </trkpt>
      <trkpt lat="42.4333" lon="2.35033">
        <ele>2263.3999023438</ele>
        <time>2023-07-17T07:10:16.000Z</time>
      </trkpt>
      <trkpt lat="42.43329" lon="2.35028">
        <ele>2264.1999511719</ele>
        <time>2023-07-17T07:10:21.000Z</time>
      </trkpt>
      <trkpt lat="42.43328" lon="2.35027">
        <ele>2264.3999023438</ele>
        <time>2023-07-17T07:10:22.000Z</time>
      </trkpt>
      <trkpt lat="42.43327" lon="2.35021">
        <ele>2265.3999023438</ele>
        <time>2023-07-17T07:10:26.000Z</time>
      </trkpt>
      <trkpt lat="42.43325" lon="2.35014">
        <ele>2266.1999511719</ele>
        <time>2023-07-17T07:10:30.000Z</time>
      </trkpt>
      <trkpt lat="42.43324" lon="2.35006">
        <ele>2266.1999511719</ele>
        <time>2023-07-17T07:10:36.000Z</time>
      </trkpt>
      <trkpt lat="42.43324" lon="2.35004">
        <ele>2266.3999023438</ele>
        <time>2023-07-17T07:10:38.000Z</time>
      </trkpt>
      <trkpt lat="42.43324" lon="2.34999">
        <ele>2267.8000488281</ele>
        <time>2023-07-17T07:10:41.000Z</time>
      </trkpt>
      <trkpt lat="42.43324" lon="2.3499">
        <ele>2267.6000976562</ele>
        <time>2023-07-17T07:10:46.000Z</time>
      </trkpt>
      <trkpt lat="42.43324" lon="2.34979">
        <ele>2268</ele>
        <time>2023-07-17T07:10:54.000Z</time>
      </trkpt>
      <trkpt lat="42.43321" lon="2.34968">
        <ele>2267.6000976562</ele>
        <time>2023-07-17T07:11:03.000Z</time>
      </trkpt>
      <trkpt lat="42.43319" lon="2.34959">
        <ele>2268.3999023438</ele>
        <time>2023-07-17T07:11:10.000Z</time>
      </trkpt>
      <trkpt lat="42.43313" lon="2.34945">
        <ele>2268.6000976562</ele>
        <time>2023-07-17T07:11:19.000Z</time>
      </trkpt>
      <trkpt lat="42.43311" lon="2.34938">
        <ele>2269</ele>
        <time>2023-07-17T07:11:24.000Z</time>
      </trkpt>
      <trkpt lat="42.4331" lon="2.34933">
        <ele>2269.1999511719</ele>
        <time>2023-07-17T07:11:26.000Z</time>
      </trkpt>
      <trkpt lat="42.43309" lon="2.34923">
        <ele>2270</ele>
        <time>2023-07-17T07:11:33.000Z</time>
      </trkpt>
      <trkpt lat="42.43309" lon="2.34922">
        <ele>2270.1999511719</ele>
        <time>2023-07-17T07:11:34.000Z</time>
      </trkpt>
      <trkpt lat="42.43305" lon="2.3491">
        <ele>2271</ele>
        <time>2023-07-17T07:11:44.000Z</time>
      </trkpt>
      <trkpt lat="42.43303" lon="2.34903">
        <ele>2272</ele>
        <time>2023-07-17T07:11:48.000Z</time>
      </trkpt>
      <trkpt lat="42.43301" lon="2.349">
        <ele>2273</ele>
        <time>2023-07-17T07:11:52.000Z</time>
      </trkpt>
      <trkpt lat="42.433" lon="2.349">
        <ele>2273.1999511719</ele>
        <time>2023-07-17T07:11:53.000Z</time>
      </trkpt>
      <trkpt lat="42.43298" lon="2.34892">
        <ele>2274.3999023438</ele>
        <time>2023-07-17T07:11:59.000Z</time>
      </trkpt>
      <trkpt lat="42.43298" lon="2.34892">
        <ele>2274.6000976562</ele>
        <time>2023-07-17T07:12:00.000Z</time>
      </trkpt>
      <trkpt lat="42.43297" lon="2.3489">
        <ele>2275.6000976562</ele>
        <time>2023-07-17T07:12:03.000Z</time>
      </trkpt>
      <trkpt lat="42.43295" lon="2.34884">
        <ele>2276.6000976562</ele>
        <time>2023-07-17T07:12:10.000Z</time>
      </trkpt>
      <trkpt lat="42.43297" lon="2.34877">
        <ele>2277.6000976562</ele>
        <time>2023-07-17T07:12:17.000Z</time>
      </trkpt>
      <trkpt lat="42.43297" lon="2.34876">
        <ele>2278</ele>
        <time>2023-07-17T07:12:18.000Z</time>
      </trkpt>
      <trkpt lat="42.43297" lon="2.34875">
        <ele>2278.1999511719</ele>
        <time>2023-07-17T07:12:21.000Z</time>
      </trkpt>
      <trkpt lat="42.43294" lon="2.34866">
        <ele>2278.1999511719</ele>
        <time>2023-07-17T07:12:28.000Z</time>
      </trkpt>
      <trkpt lat="42.43291" lon="2.34852">
        <ele>2279.1999511719</ele>
        <time>2023-07-17T07:12:40.000Z</time>
      </trkpt>
      <trkpt lat="42.43289" lon="2.34843">
        <ele>2280.3999023438</ele>
        <time>2023-07-17T07:12:47.000Z</time>
      </trkpt>
      <trkpt lat="42.43287" lon="2.34834">
        <ele>2281.3999023438</ele>
        <time>2023-07-17T07:12:52.000Z</time>
      </trkpt>
      <trkpt lat="42.43286" lon="2.3483">
        <ele>2281.6000976562</ele>
        <time>2023-07-17T07:12:54.000Z</time>
      </trkpt>
      <trkpt lat="42.4328" lon="2.34822">
        <ele>2282.3999023438</ele>
        <time>2023-07-17T07:13:03.000Z</time>
      </trkpt>
      <trkpt lat="42.43277" lon="2.34812">
        <ele>2283</ele>
        <time>2023-07-17T07:13:12.000Z</time>
      </trkpt>
      <trkpt lat="42.43274" lon="2.34802">
        <ele>2282.8000488281</ele>
        <time>2023-07-17T07:13:20.000Z</time>
      </trkpt>
      <trkpt lat="42.43272" lon="2.34797">
        <ele>2283.3999023438</ele>
        <time>2023-07-17T07:13:24.000Z</time>
      </trkpt>
      <trkpt lat="42.43269" lon="2.3479">
        <ele>2283.6000976562</ele>
        <time>2023-07-17T07:13:29.000Z</time>
      </trkpt>
      <trkpt lat="42.43268" lon="2.34786">
        <ele>2284.3999023438</ele>
        <time>2023-07-17T07:13:32.000Z</time>
      </trkpt>
      <trkpt lat="42.43266" lon="2.34781">
        <ele>2285.8000488281</ele>
        <time>2023-07-17T07:13:36.000Z</time>
      </trkpt>
      <trkpt lat="42.43266" lon="2.34779">
        <ele>2286</ele>
        <time>2023-07-17T07:13:37.000Z</time>
      </trkpt>
      <trkpt lat="42.43266" lon="2.34771">
        <ele>2286.8000488281</ele>
        <time>2023-07-17T07:13:43.000Z</time>
      </trkpt>
      <trkpt lat="42.43267" lon="2.3477">
        <ele>2287</ele>
        <time>2023-07-17T07:13:44.000Z</time>
      </trkpt>
      <trkpt lat="42.43263" lon="2.34757">
        <ele>2286.6000976562</ele>
        <time>2023-07-17T07:13:53.000Z</time>
      </trkpt>
      <trkpt lat="42.43256" lon="2.34748">
        <ele>2285.8000488281</ele>
        <time>2023-07-17T07:14:01.000Z</time>
      </trkpt>
      <trkpt lat="42.43253" lon="2.34744">
        <ele>2285.6000976562</ele>
        <time>2023-07-17T07:14:05.000Z</time>
      </trkpt>
      <trkpt lat="42.43253" lon="2.3474">
        <ele>2285.6000976562</ele>
        <time>2023-07-17T07:14:08.000Z</time>
      </trkpt>
      <trkpt lat="42.43253" lon="2.34736">
        <ele>2285.3999023438</ele>
        <time>2023-07-17T07:14:14.000Z</time>
      </trkpt>
      <trkpt lat="42.43252" lon="2.34735">
        <ele>2285.1999511719</ele>
        <time>2023-07-17T07:14:22.000Z</time>
      </trkpt>
      <trkpt lat="42.43251" lon="2.34735">
        <ele>2284.6000976562</ele>
        <time>2023-07-17T07:14:25.000Z</time>
      </trkpt>
      <trkpt lat="42.4325" lon="2.34733">
        <ele>2284</ele>
        <time>2023-07-17T07:14:32.000Z</time>
      </trkpt>
      <trkpt lat="42.43252" lon="2.34735">
        <ele>2283.6000976562</ele>
        <time>2023-07-17T07:14:39.000Z</time>
      </trkpt>
      <trkpt lat="42.43252" lon="2.34735">
        <ele>2283.3999023438</ele>
        <time>2023-07-17T07:14:40.000Z</time>
      </trkpt>
      <trkpt lat="42.43254" lon="2.34731">
        <ele>2284</ele>
        <time>2023-07-17T07:14:49.000Z</time>
      </trkpt>
      <trkpt lat="42.43253" lon="2.34735">
        <ele>2284.8000488281</ele>
        <time>2023-07-17T07:14:56.000Z</time>
      </trkpt>
      <trkpt lat="42.43252" lon="2.34738">
        <ele>2284.8000488281</ele>
        <time>2023-07-17T07:15:04.000Z</time>
      </trkpt>
      <trkpt lat="42.43252" lon="2.34736">
        <ele>2285.1999511719</ele>
        <time>2023-07-17T07:15:13.000Z</time>
      </trkpt>
      <trkpt lat="42.43252" lon="2.34737">
        <ele>2283.6000976562</ele>
        <time>2023-07-17T07:15:17.000Z</time>
      </trkpt>
      <trkpt lat="42.43253" lon="2.34737">
        <ele>2283.1999511719</ele>
        <time>2023-07-17T07:15:21.000Z</time>
      </trkpt>
      <trkpt lat="42.43253" lon="2.34737">
        <ele>2284.6000976562</ele>
        <time>2023-07-17T07:15:23.000Z</time>
      </trkpt>
      <trkpt lat="42.43255" lon="2.34736">
        <ele>2285.8000488281</ele>
        <time>2023-07-17T07:15:26.000Z</time>
      </trkpt>
      <trkpt lat="42.43255" lon="2.34735">
        <ele>2286</ele>
        <time>2023-07-17T07:15:29.000Z</time>
      </trkpt>
      <trkpt lat="42.43251" lon="2.34733">
        <ele>2284.8000488281</ele>
        <time>2023-07-17T07:15:38.000Z</time>
      </trkpt>
      <trkpt lat="42.43252" lon="2.34735">
        <ele>2286</ele>
        <time>2023-07-17T07:15:47.000Z</time>
      </trkpt>
      <trkpt lat="42.43252" lon="2.34735">
        <ele>2285.6000976562</ele>
        <time>2023-07-17T07:15:56.000Z</time>
      </trkpt>
      <trkpt lat="42.43253" lon="2.34737">
        <ele>2285</ele>
        <time>2023-07-17T07:16:04.000Z</time>
      </trkpt>
      <trkpt lat="42.43253" lon="2.34736">
        <ele>2284.8000488281</ele>
        <time>2023-07-17T07:16:09.000Z</time>
      </trkpt>
      <trkpt lat="42.43253" lon="2.34735">
        <ele>2284.6000976562</ele>
        <time>2023-07-17T07:16:11.000Z</time>
      </trkpt>
      <trkpt lat="42.43254" lon="2.34737">
        <ele>2284.3999023438</ele>
        <time>2023-07-17T07:16:19.000Z</time>
      </trkpt>
      <trkpt lat="42.43255" lon="2.34737">
        <ele>2283.8000488281</ele>
        <time>2023-07-17T07:16:24.000Z</time>
      </trkpt>
      <trkpt lat="42.43255" lon="2.34738">
        <ele>2283.6000976562</ele>
        <time>2023-07-17T07:16:27.000Z</time>
      </trkpt>
      <trkpt lat="42.43253" lon="2.34738">
        <ele>2284.3999023438</ele>
        <time>2023-07-17T07:16:35.000Z</time>
      </trkpt>
      <trkpt lat="42.43252" lon="2.34738">
        <ele>2284.8000488281</ele>
        <time>2023-07-17T07:16:43.000Z</time>
      </trkpt>
      <trkpt lat="42.43252" lon="2.34738">
        <ele>2285</ele>
        <time>2023-07-17T07:16:44.000Z</time>
      </trkpt>
      <trkpt lat="42.43252" lon="2.34734">
        <ele>2284.6000976562</ele>
        <time>2023-07-17T07:16:50.000Z</time>
      </trkpt>
      <trkpt lat="42.43253" lon="2.34737">
        <ele>2284.6000976562</ele>
        <time>2023-07-17T07:16:59.000Z</time>
      </trkpt>
      <trkpt lat="42.43251" lon="2.34737">
        <ele>2284.1999511719</ele>
        <time>2023-07-17T07:17:08.000Z</time>
      </trkpt>
      <trkpt lat="42.43251" lon="2.34736">
        <ele>2284.8000488281</ele>
        <time>2023-07-17T07:17:17.000Z</time>
      </trkpt>
      <trkpt lat="42.43253" lon="2.34736">
        <ele>2286.1999511719</ele>
        <time>2023-07-17T07:17:28.000Z</time>
      </trkpt>
      <trkpt lat="42.43251" lon="2.34733">
        <ele>2286.1999511719</ele>
        <time>2023-07-17T07:17:35.000Z</time>
      </trkpt>
      <trkpt lat="42.43249" lon="2.3473">
        <ele>2286</ele>
        <time>2023-07-17T07:17:45.000Z</time>
      </trkpt>
      <trkpt lat="42.43252" lon="2.34734">
        <ele>2286.3999023438</ele>
        <time>2023-07-17T07:17:53.000Z</time>
      </trkpt>
      <trkpt lat="42.43252" lon="2.34738">
        <ele>2286.1999511719</ele>
        <time>2023-07-17T07:17:58.000Z</time>
      </trkpt>
      <trkpt lat="42.43253" lon="2.34738">
        <ele>2285.1999511719</ele>
        <time>2023-07-17T07:18:06.000Z</time>
      </trkpt>
      <trkpt lat="42.43252" lon="2.34737">
        <ele>2285</ele>
        <time>2023-07-17T07:18:11.000Z</time>
      </trkpt>
      <trkpt lat="42.43251" lon="2.34738">
        <ele>2285</ele>
        <time>2023-07-17T07:18:13.000Z</time>
      </trkpt>
      <trkpt lat="42.43252" lon="2.34738">
        <ele>2285.3999023438</ele>
        <time>2023-07-17T07:18:20.000Z</time>
      </trkpt>
      <trkpt lat="42.43252" lon="2.34738">
        <ele>2286</ele>
        <time>2023-07-17T07:18:23.000Z</time>
      </trkpt>
      <trkpt lat="42.43253" lon="2.34739">
        <ele>2286.3999023438</ele>
        <time>2023-07-17T07:18:29.000Z</time>
      </trkpt>
      <trkpt lat="42.43253" lon="2.34737">
        <ele>2285.8000488281</ele>
        <time>2023-07-17T07:18:38.000Z</time>
      </trkpt>
      <trkpt lat="42.43252" lon="2.34738">
        <ele>2285.3999023438</ele>
        <time>2023-07-17T07:18:48.000Z</time>
      </trkpt>
      <trkpt lat="42.43252" lon="2.34737">
        <ele>2286</ele>
        <time>2023-07-17T07:18:55.000Z</time>
      </trkpt>
      <trkpt lat="42.43253" lon="2.34739">
        <ele>2285</ele>
        <time>2023-07-17T07:19:03.000Z</time>
      </trkpt>
      <trkpt lat="42.43252" lon="2.3474">
        <ele>2285.8000488281</ele>
        <time>2023-07-17T07:19:10.000Z</time>
      </trkpt>
      <trkpt lat="42.43252" lon="2.34739">
        <ele>2286.3999023438</ele>
        <time>2023-07-17T07:19:17.000Z</time>
      </trkpt>
      <trkpt lat="42.43252" lon="2.34738">
        <ele>2286.1999511719</ele>
        <time>2023-07-17T07:19:26.000Z</time>
      </trkpt>
      <trkpt lat="42.4325" lon="2.34737">
        <ele>2285.8000488281</ele>
        <time>2023-07-17T07:19:35.000Z</time>
      </trkpt>
      <trkpt lat="42.43252" lon="2.34739">
        <ele>2285.8000488281</ele>
        <time>2023-07-17T07:19:41.000Z</time>
      </trkpt>
      <trkpt lat="42.43252" lon="2.34737">
        <ele>2286.1999511719</ele>
        <time>2023-07-17T07:19:47.000Z</time>
      </trkpt>
      <trkpt lat="42.43254" lon="2.34737">
        <ele>2286</ele>
        <time>2023-07-17T07:19:55.000Z</time>
      </trkpt>
      <trkpt lat="42.43252" lon="2.34735">
        <ele>2287.1999511719</ele>
        <time>2023-07-17T07:20:04.000Z</time>
      </trkpt>
      <trkpt lat="42.4325" lon="2.34739">
        <ele>2287.3999023438</ele>
        <time>2023-07-17T07:20:10.000Z</time>
      </trkpt>
      <trkpt lat="42.43247" lon="2.34739">
        <ele>2285.8000488281</ele>
        <time>2023-07-17T07:20:15.000Z</time>
      </trkpt>
      <trkpt lat="42.43246" lon="2.34738">
        <ele>2285.8000488281</ele>
        <time>2023-07-17T07:20:17.000Z</time>
      </trkpt>
      <trkpt lat="42.43245" lon="2.3473">
        <ele>2286.1999511719</ele>
        <time>2023-07-17T07:20:26.000Z</time>
      </trkpt>
      <trkpt lat="42.43246" lon="2.34721">
        <ele>2286.3999023438</ele>
        <time>2023-07-17T07:20:33.000Z</time>
      </trkpt>
      <trkpt lat="42.43247" lon="2.34716">
        <ele>2287</ele>
        <time>2023-07-17T07:20:37.000Z</time>
      </trkpt>
      <trkpt lat="42.43247" lon="2.34715">
        <ele>2287</ele>
        <time>2023-07-17T07:20:39.000Z</time>
      </trkpt>
      <trkpt lat="42.43243" lon="2.34707">
        <ele>2287.6000976562</ele>
        <time>2023-07-17T07:20:46.000Z</time>
      </trkpt>
      <trkpt lat="42.43241" lon="2.34701">
        <ele>2288.1999511719</ele>
        <time>2023-07-17T07:20:50.000Z</time>
      </trkpt>
      <trkpt lat="42.4324" lon="2.34698">
        <ele>2288.1999511719</ele>
        <time>2023-07-17T07:20:53.000Z</time>
      </trkpt>
      <trkpt lat="42.43239" lon="2.34686">
        <ele>2288.3999023438</ele>
        <time>2023-07-17T07:21:02.000Z</time>
      </trkpt>
      <trkpt lat="42.43239" lon="2.34673">
        <ele>2288.3999023438</ele>
        <time>2023-07-17T07:21:11.000Z</time>
      </trkpt>
      <trkpt lat="42.43239" lon="2.34663">
        <ele>2288.3999023438</ele>
        <time>2023-07-17T07:21:18.000Z</time>
      </trkpt>
      <trkpt lat="42.43238" lon="2.34654">
        <ele>2289</ele>
        <time>2023-07-17T07:21:25.000Z</time>
      </trkpt>
      <trkpt lat="42.43238" lon="2.34653">
        <ele>2289.1999511719</ele>
        <time>2023-07-17T07:21:26.000Z</time>
      </trkpt>
      <trkpt lat="42.43236" lon="2.34648">
        <ele>2290.3999023438</ele>
        <time>2023-07-17T07:21:32.000Z</time>
      </trkpt>
      <trkpt lat="42.43235" lon="2.34646">
        <ele>2291.3999023438</ele>
        <time>2023-07-17T07:21:36.000Z</time>
      </trkpt>
      <trkpt lat="42.43234" lon="2.34641">
        <ele>2292.3999023438</ele>
        <time>2023-07-17T07:21:41.000Z</time>
      </trkpt>
      <trkpt lat="42.43234" lon="2.3464">
        <ele>2292.3999023438</ele>
        <time>2023-07-17T07:21:42.000Z</time>
      </trkpt>
      <trkpt lat="42.43234" lon="2.3463">
        <ele>2293.1999511719</ele>
        <time>2023-07-17T07:21:49.000Z</time>
      </trkpt>
      <trkpt lat="42.43235" lon="2.34623">
        <ele>2293.6000976562</ele>
        <time>2023-07-17T07:21:55.000Z</time>
      </trkpt>
      <trkpt lat="42.43235" lon="2.3462">
        <ele>2293.8000488281</ele>
        <time>2023-07-17T07:21:57.000Z</time>
      </trkpt>
      <trkpt lat="42.43235" lon="2.3461">
        <ele>2293.1999511719</ele>
        <time>2023-07-17T07:22:04.000Z</time>
      </trkpt>
      <trkpt lat="42.43235" lon="2.34598">
        <ele>2293.3999023438</ele>
        <time>2023-07-17T07:22:12.000Z</time>
      </trkpt>
      <trkpt lat="42.43235" lon="2.34585">
        <ele>2294</ele>
        <time>2023-07-17T07:22:20.000Z</time>
      </trkpt>
      <trkpt lat="42.43234" lon="2.34576">
        <ele>2294.6000976562</ele>
        <time>2023-07-17T07:22:27.000Z</time>
      </trkpt>
      <trkpt lat="42.43234" lon="2.34575">
        <ele>2294.6000976562</ele>
        <time>2023-07-17T07:22:28.000Z</time>
      </trkpt>
      <trkpt lat="42.43233" lon="2.34568">
        <ele>2295.6000976562</ele>
        <time>2023-07-17T07:22:35.000Z</time>
      </trkpt>
      <trkpt lat="42.43234" lon="2.34567">
        <ele>2295.8000488281</ele>
        <time>2023-07-17T07:22:36.000Z</time>
      </trkpt>
      <trkpt lat="42.43234" lon="2.34558">
        <ele>2297</ele>
        <time>2023-07-17T07:22:42.000Z</time>
      </trkpt>
      <trkpt lat="42.43233" lon="2.34556">
        <ele>2297.1999511719</ele>
        <time>2023-07-17T07:22:43.000Z</time>
      </trkpt>
      <trkpt lat="42.43234" lon="2.34545">
        <ele>2298</ele>
        <time>2023-07-17T07:22:50.000Z</time>
      </trkpt>
      <trkpt lat="42.43234" lon="2.34542">
        <ele>2298</ele>
        <time>2023-07-17T07:22:52.000Z</time>
      </trkpt>
      <trkpt lat="42.43235" lon="2.34532">
        <ele>2298.8000488281</ele>
        <time>2023-07-17T07:23:00.000Z</time>
      </trkpt>
      <trkpt lat="42.43237" lon="2.34529">
        <ele>2299</ele>
        <time>2023-07-17T07:23:04.000Z</time>
      </trkpt>
      <trkpt lat="42.43239" lon="2.34525">
        <ele>2299.1999511719</ele>
        <time>2023-07-17T07:23:07.000Z</time>
      </trkpt>
      <trkpt lat="42.43242" lon="2.34516">
        <ele>2299.8000488281</ele>
        <time>2023-07-17T07:23:15.000Z</time>
      </trkpt>
      <trkpt lat="42.43243" lon="2.34512">
        <ele>2300.1999511719</ele>
        <time>2023-07-17T07:23:17.000Z</time>
      </trkpt>
      <trkpt lat="42.43245" lon="2.34504">
        <ele>2300.6000976562</ele>
        <time>2023-07-17T07:23:22.000Z</time>
      </trkpt>
      <trkpt lat="42.43248" lon="2.34492">
        <ele>2301</ele>
        <time>2023-07-17T07:23:30.000Z</time>
      </trkpt>
      <trkpt lat="42.4325" lon="2.34484">
        <ele>2301.1999511719</ele>
        <time>2023-07-17T07:23:35.000Z</time>
      </trkpt>
      <trkpt lat="42.43251" lon="2.3448">
        <ele>2301.1999511719</ele>
        <time>2023-07-17T07:23:38.000Z</time>
      </trkpt>
      <trkpt lat="42.43252" lon="2.34467">
        <ele>2301.1999511719</ele>
        <time>2023-07-17T07:23:46.000Z</time>
      </trkpt>
      <trkpt lat="42.43254" lon="2.34456">
        <ele>2301.6000976562</ele>
        <time>2023-07-17T07:23:53.000Z</time>
      </trkpt>
      <trkpt lat="42.43254" lon="2.34453">
        <ele>2302.1999511719</ele>
        <time>2023-07-17T07:23:56.000Z</time>
      </trkpt>
      <trkpt lat="42.43254" lon="2.34447">
        <ele>2302.6000976562</ele>
        <time>2023-07-17T07:23:59.000Z</time>
      </trkpt>
      <trkpt lat="42.43255" lon="2.3444">
        <ele>2302.8000488281</ele>
        <time>2023-07-17T07:24:05.000Z</time>
      </trkpt>
      <trkpt lat="42.43256" lon="2.34432">
        <ele>2303.3999023438</ele>
        <time>2023-07-17T07:24:10.000Z</time>
      </trkpt>
      <trkpt lat="42.43256" lon="2.34428">
        <ele>2303.3999023438</ele>
        <time>2023-07-17T07:24:12.000Z</time>
      </trkpt>
      <trkpt lat="42.43255" lon="2.34419">
        <ele>2304.3999023438</ele>
        <time>2023-07-17T07:24:18.000Z</time>
      </trkpt>
      <trkpt lat="42.43255" lon="2.34415">
        <ele>2304.3999023438</ele>
        <time>2023-07-17T07:24:21.000Z</time>
      </trkpt>
      <trkpt lat="42.43254" lon="2.34407">
        <ele>2304.3999023438</ele>
        <time>2023-07-17T07:24:26.000Z</time>
      </trkpt>
      <trkpt lat="42.43255" lon="2.34394">
        <ele>2305.1999511719</ele>
        <time>2023-07-17T07:24:34.000Z</time>
      </trkpt>
      <trkpt lat="42.43255" lon="2.34393">
        <ele>2305.6000976562</ele>
        <time>2023-07-17T07:24:35.000Z</time>
      </trkpt>
      <trkpt lat="42.43255" lon="2.3439">
        <ele>2306.6000976562</ele>
        <time>2023-07-17T07:24:37.000Z</time>
      </trkpt>
      <trkpt lat="42.43255" lon="2.34384">
        <ele>2308</ele>
        <time>2023-07-17T07:24:42.000Z</time>
      </trkpt>
      <trkpt lat="42.43256" lon="2.34382">
        <ele>2309</ele>
        <time>2023-07-17T07:24:44.000Z</time>
      </trkpt>
      <trkpt lat="42.43256" lon="2.34375">
        <ele>2308.6000976562</ele>
        <time>2023-07-17T07:24:49.000Z</time>
      </trkpt>
      <trkpt lat="42.43256" lon="2.34363">
        <ele>2308.3999023438</ele>
        <time>2023-07-17T07:24:56.000Z</time>
      </trkpt>
      <trkpt lat="42.43257" lon="2.34349">
        <ele>2309.1999511719</ele>
        <time>2023-07-17T07:25:05.000Z</time>
      </trkpt>
      <trkpt lat="42.43259" lon="2.34341">
        <ele>2307.8000488281</ele>
        <time>2023-07-17T07:25:11.000Z</time>
      </trkpt>
      <trkpt lat="42.4326" lon="2.3434">
        <ele>2307.3999023438</ele>
        <time>2023-07-17T07:25:12.000Z</time>
      </trkpt>
      <trkpt lat="42.4326" lon="2.34333">
        <ele>2306.6000976562</ele>
        <time>2023-07-17T07:25:16.000Z</time>
      </trkpt>
      <trkpt lat="42.4326" lon="2.34324">
        <ele>2306.8000488281</ele>
        <time>2023-07-17T07:25:22.000Z</time>
      </trkpt>
      <trkpt lat="42.43258" lon="2.34315">
        <ele>2306</ele>
        <time>2023-07-17T07:25:28.000Z</time>
      </trkpt>
      <trkpt lat="42.43255" lon="2.34305">
        <ele>2306.8000488281</ele>
        <time>2023-07-17T07:25:35.000Z</time>
      </trkpt>
      <trkpt lat="42.43252" lon="2.34294">
        <ele>2307.3999023438</ele>
        <time>2023-07-17T07:25:42.000Z</time>
      </trkpt>
      <trkpt lat="42.43252" lon="2.34291">
        <ele>2307.8000488281</ele>
        <time>2023-07-17T07:25:44.000Z</time>
      </trkpt>
      <trkpt lat="42.4325" lon="2.34283">
        <ele>2308.3999023438</ele>
        <time>2023-07-17T07:25:49.000Z</time>
      </trkpt>
      <trkpt lat="42.43249" lon="2.34276">
        <ele>2308.8000488281</ele>
        <time>2023-07-17T07:25:55.000Z</time>
      </trkpt>
      <trkpt lat="42.43246" lon="2.34265">
        <ele>2309.6000976562</ele>
        <time>2023-07-17T07:26:02.000Z</time>
      </trkpt>
      <trkpt lat="42.43246" lon="2.34261">
        <ele>2310</ele>
        <time>2023-07-17T07:26:05.000Z</time>
      </trkpt>
      <trkpt lat="42.43245" lon="2.34252">
        <ele>2310.8000488281</ele>
        <time>2023-07-17T07:26:10.000Z</time>
      </trkpt>
      <trkpt lat="42.43245" lon="2.34244">
        <ele>2308</ele>
        <time>2023-07-17T07:26:16.000Z</time>
      </trkpt>
      <trkpt lat="42.43244" lon="2.34243">
        <ele>2306.6000976562</ele>
        <time>2023-07-17T07:26:17.000Z</time>
      </trkpt>
      <trkpt lat="42.43244" lon="2.34241">
        <ele>2305.6000976562</ele>
        <time>2023-07-17T07:26:18.000Z</time>
      </trkpt>
      <trkpt lat="42.43242" lon="2.34233">
        <ele>2305.6000976562</ele>
        <time>2023-07-17T07:26:24.000Z</time>
      </trkpt>
      <trkpt lat="42.43238" lon="2.34224">
        <ele>2306.3999023438</ele>
        <time>2023-07-17T07:26:31.000Z</time>
      </trkpt>
      <trkpt lat="42.43235" lon="2.34219">
        <ele>2306.8000488281</ele>
        <time>2023-07-17T07:26:34.000Z</time>
      </trkpt>
      <trkpt lat="42.43232" lon="2.34216">
        <ele>2307</ele>
        <time>2023-07-17T07:26:38.000Z</time>
      </trkpt>
      <trkpt lat="42.43228" lon="2.34202">
        <ele>2305.8000488281</ele>
        <time>2023-07-17T07:26:44.000Z</time>
      </trkpt>
      <trkpt lat="42.43227" lon="2.34197">
        <ele>2306.1999511719</ele>
        <time>2023-07-17T07:26:49.000Z</time>
      </trkpt>
      <trkpt lat="42.43223" lon="2.34188">
        <ele>2306.6000976562</ele>
        <time>2023-07-17T07:26:56.000Z</time>
      </trkpt>
      <trkpt lat="42.43221" lon="2.34183">
        <ele>2307.8000488281</ele>
        <time>2023-07-17T07:27:03.000Z</time>
      </trkpt>
      <trkpt lat="42.43218" lon="2.34171">
        <ele>2308.1999511719</ele>
        <time>2023-07-17T07:27:11.000Z</time>
      </trkpt>
      <trkpt lat="42.43216" lon="2.34165">
        <ele>2309.1999511719</ele>
        <time>2023-07-17T07:27:15.000Z</time>
      </trkpt>
      <trkpt lat="42.43215" lon="2.3416">
        <ele>2309.8000488281</ele>
        <time>2023-07-17T07:27:19.000Z</time>
      </trkpt>
      <trkpt lat="42.43213" lon="2.34149">
        <ele>2308.3999023438</ele>
        <time>2023-07-17T07:27:26.000Z</time>
      </trkpt>
      <trkpt lat="42.43213" lon="2.34147">
        <ele>2308</ele>
        <time>2023-07-17T07:27:27.000Z</time>
      </trkpt>
      <trkpt lat="42.43209" lon="2.34134">
        <ele>2308.6000976562</ele>
        <time>2023-07-17T07:27:34.000Z</time>
      </trkpt>
      <trkpt lat="42.43209" lon="2.34127">
        <ele>2309</ele>
        <time>2023-07-17T07:27:39.000Z</time>
      </trkpt>
      <trkpt lat="42.43209" lon="2.34123">
        <ele>2309.8000488281</ele>
        <time>2023-07-17T07:27:43.000Z</time>
      </trkpt>
      <trkpt lat="42.43209" lon="2.34113">
        <ele>2308.8000488281</ele>
        <time>2023-07-17T07:27:50.000Z</time>
      </trkpt>
      <trkpt lat="42.43205" lon="2.34101">
        <ele>2309.3999023438</ele>
        <time>2023-07-17T07:27:59.000Z</time>
      </trkpt>
      <trkpt lat="42.43202" lon="2.3409">
        <ele>2309.3999023438</ele>
        <time>2023-07-17T07:28:07.000Z</time>
      </trkpt>
      <trkpt lat="42.43201" lon="2.34087">
        <ele>2310</ele>
        <time>2023-07-17T07:28:09.000Z</time>
      </trkpt>
      <trkpt lat="42.43199" lon="2.3408">
        <ele>2309.6000976562</ele>
        <time>2023-07-17T07:28:14.000Z</time>
      </trkpt>
      <trkpt lat="42.43199" lon="2.34079">
        <ele>2308.1999511719</ele>
        <time>2023-07-17T07:28:15.000Z</time>
      </trkpt>
      <trkpt lat="42.43198" lon="2.34067">
        <ele>2307.3999023438</ele>
        <time>2023-07-17T07:28:22.000Z</time>
      </trkpt>
      <trkpt lat="42.43197" lon="2.34061">
        <ele>2309.3999023438</ele>
        <time>2023-07-17T07:28:27.000Z</time>
      </trkpt>
      <trkpt lat="42.43197" lon="2.34059">
        <ele>2310.3999023438</ele>
        <time>2023-07-17T07:28:29.000Z</time>
      </trkpt>
      <trkpt lat="42.43195" lon="2.34054">
        <ele>2311</ele>
        <time>2023-07-17T07:28:32.000Z</time>
      </trkpt>
      <trkpt lat="42.43193" lon="2.34046">
        <ele>2311.6000976562</ele>
        <time>2023-07-17T07:28:39.000Z</time>
      </trkpt>
      <trkpt lat="42.43193" lon="2.34045">
        <ele>2311.6000976562</ele>
        <time>2023-07-17T07:28:40.000Z</time>
      </trkpt>
      <trkpt lat="42.43188" lon="2.34035">
        <ele>2312.1999511719</ele>
        <time>2023-07-17T07:28:47.000Z</time>
      </trkpt>
      <trkpt lat="42.43184" lon="2.3403">
        <ele>2311.6000976562</ele>
        <time>2023-07-17T07:28:53.000Z</time>
      </trkpt>
      <trkpt lat="42.43178" lon="2.34021">
        <ele>2312</ele>
        <time>2023-07-17T07:29:00.000Z</time>
      </trkpt>
      <trkpt lat="42.43174" lon="2.3401">
        <ele>2311</ele>
        <time>2023-07-17T07:29:08.000Z</time>
      </trkpt>
      <trkpt lat="42.4317" lon="2.34002">
        <ele>2312</ele>
        <time>2023-07-17T07:29:15.000Z</time>
      </trkpt>
      <trkpt lat="42.43168" lon="2.34">
        <ele>2312.6000976562</ele>
        <time>2023-07-17T07:29:18.000Z</time>
      </trkpt>
      <trkpt lat="42.43165" lon="2.33996">
        <ele>2313.8000488281</ele>
        <time>2023-07-17T07:29:21.000Z</time>
      </trkpt>
      <trkpt lat="42.43164" lon="2.33993">
        <ele>2314.3999023438</ele>
        <time>2023-07-17T07:29:23.000Z</time>
      </trkpt>
      <trkpt lat="42.43163" lon="2.33992">
        <ele>2315</ele>
        <time>2023-07-17T07:29:24.000Z</time>
      </trkpt>
      <trkpt lat="42.43159" lon="2.33983">
        <ele>2314.3999023438</ele>
        <time>2023-07-17T07:29:30.000Z</time>
      </trkpt>
      <trkpt lat="42.43158" lon="2.3398">
        <ele>2314</ele>
        <time>2023-07-17T07:29:32.000Z</time>
      </trkpt>
      <trkpt lat="42.43157" lon="2.33973">
        <ele>2313.3999023438</ele>
        <time>2023-07-17T07:29:38.000Z</time>
      </trkpt>
      <trkpt lat="42.43154" lon="2.33966">
        <ele>2314</ele>
        <time>2023-07-17T07:29:45.000Z</time>
      </trkpt>
      <trkpt lat="42.43149" lon="2.33956">
        <ele>2314.1999511719</ele>
        <time>2023-07-17T07:29:53.000Z</time>
      </trkpt>
      <trkpt lat="42.43147" lon="2.33948">
        <ele>2314</ele>
        <time>2023-07-17T07:29:59.000Z</time>
      </trkpt>
      <trkpt lat="42.43143" lon="2.33936">
        <ele>2313.6000976562</ele>
        <time>2023-07-17T07:30:08.000Z</time>
      </trkpt>
      <trkpt lat="42.43137" lon="2.33927">
        <ele>2313</ele>
        <time>2023-07-17T07:30:17.000Z</time>
      </trkpt>
      <trkpt lat="42.43133" lon="2.33919">
        <ele>2314.6000976562</ele>
        <time>2023-07-17T07:30:25.000Z</time>
      </trkpt>
      <trkpt lat="42.43129" lon="2.33912">
        <ele>2315.3999023438</ele>
        <time>2023-07-17T07:30:30.000Z</time>
      </trkpt>
      <trkpt lat="42.43128" lon="2.3391">
        <ele>2315.8000488281</ele>
        <time>2023-07-17T07:30:32.000Z</time>
      </trkpt>
      <trkpt lat="42.43123" lon="2.33905">
        <ele>2316.3999023438</ele>
        <time>2023-07-17T07:30:39.000Z</time>
      </trkpt>
      <trkpt lat="42.43123" lon="2.33904">
        <ele>2316.6000976562</ele>
        <time>2023-07-17T07:30:40.000Z</time>
      </trkpt>
      <trkpt lat="42.43119" lon="2.33897">
        <ele>2317</ele>
        <time>2023-07-17T07:30:47.000Z</time>
      </trkpt>
      <trkpt lat="42.43115" lon="2.33893">
        <ele>2317.3999023438</ele>
        <time>2023-07-17T07:30:54.000Z</time>
      </trkpt>
      <trkpt lat="42.43114" lon="2.33892">
        <ele>2317.6000976562</ele>
        <time>2023-07-17T07:30:55.000Z</time>
      </trkpt>
      <trkpt lat="42.43111" lon="2.33887">
        <ele>2318.3999023438</ele>
        <time>2023-07-17T07:31:00.000Z</time>
      </trkpt>
      <trkpt lat="42.43108" lon="2.33885">
        <ele>2318.6000976562</ele>
        <time>2023-07-17T07:31:03.000Z</time>
      </trkpt>
      <trkpt lat="42.43103" lon="2.3388">
        <ele>2319.8000488281</ele>
        <time>2023-07-17T07:31:08.000Z</time>
      </trkpt>
      <trkpt lat="42.43102" lon="2.33878">
        <ele>2320.8000488281</ele>
        <time>2023-07-17T07:31:10.000Z</time>
      </trkpt>
      <trkpt lat="42.43101" lon="2.33877">
        <ele>2321.6000976562</ele>
        <time>2023-07-17T07:31:11.000Z</time>
      </trkpt>
      <trkpt lat="42.43101" lon="2.33876">
        <ele>2322.3999023438</ele>
        <time>2023-07-17T07:31:12.000Z</time>
      </trkpt>
      <trkpt lat="42.431" lon="2.33873">
        <ele>2323.6000976562</ele>
        <time>2023-07-17T07:31:16.000Z</time>
      </trkpt>
      <trkpt lat="42.43099" lon="2.33871">
        <ele>2325.6000976562</ele>
        <time>2023-07-17T07:31:18.000Z</time>
      </trkpt>
      <trkpt lat="42.43099" lon="2.33869">
        <ele>2326.1999511719</ele>
        <time>2023-07-17T07:31:19.000Z</time>
      </trkpt>
      <trkpt lat="42.43095" lon="2.33863">
        <ele>2324.6000976562</ele>
        <time>2023-07-17T07:31:24.000Z</time>
      </trkpt>
      <trkpt lat="42.43094" lon="2.33861">
        <ele>2323.6000976562</ele>
        <time>2023-07-17T07:31:26.000Z</time>
      </trkpt>
      <trkpt lat="42.43094" lon="2.33861">
        <ele>2322.6000976562</ele>
        <time>2023-07-17T07:31:27.000Z</time>
      </trkpt>
      <trkpt lat="42.4309" lon="2.33858">
        <ele>2322.1999511719</ele>
        <time>2023-07-17T07:31:32.000Z</time>
      </trkpt>
      <trkpt lat="42.43085" lon="2.33851">
        <ele>2322.6000976562</ele>
        <time>2023-07-17T07:31:39.000Z</time>
      </trkpt>
      <trkpt lat="42.43081" lon="2.3385">
        <ele>2322.8000488281</ele>
        <time>2023-07-17T07:31:46.000Z</time>
      </trkpt>
      <trkpt lat="42.43075" lon="2.33846">
        <ele>2323.1999511719</ele>
        <time>2023-07-17T07:31:55.000Z</time>
      </trkpt>
      <trkpt lat="42.43071" lon="2.33843">
        <ele>2323.6000976562</ele>
        <time>2023-07-17T07:32:04.000Z</time>
      </trkpt>
      <trkpt lat="42.43071" lon="2.33843">
        <ele>2323.8000488281</ele>
        <time>2023-07-17T07:32:07.000Z</time>
      </trkpt>
      <trkpt lat="42.4307" lon="2.3384">
        <ele>2324.3999023438</ele>
        <time>2023-07-17T07:32:12.000Z</time>
      </trkpt>
      <trkpt lat="42.43069" lon="2.33836">
        <ele>2325</ele>
        <time>2023-07-17T07:32:17.000Z</time>
      </trkpt>
      <trkpt lat="42.43067" lon="2.33834">
        <ele>2325.3999023438</ele>
        <time>2023-07-17T07:32:20.000Z</time>
      </trkpt>
      <trkpt lat="42.43064" lon="2.33832">
        <ele>2326</ele>
        <time>2023-07-17T07:32:25.000Z</time>
      </trkpt>
      <trkpt lat="42.43061" lon="2.33829">
        <ele>2326.1999511719</ele>
        <time>2023-07-17T07:32:28.000Z</time>
      </trkpt>
      <trkpt lat="42.43059" lon="2.33828">
        <ele>2327</ele>
        <time>2023-07-17T07:32:31.000Z</time>
      </trkpt>
      <trkpt lat="42.43056" lon="2.33825">
        <ele>2327.6000976562</ele>
        <time>2023-07-17T07:32:36.000Z</time>
      </trkpt>
      <trkpt lat="42.43056" lon="2.33824">
        <ele>2327.6000976562</ele>
        <time>2023-07-17T07:32:37.000Z</time>
      </trkpt>
      <trkpt lat="42.43054" lon="2.33818">
        <ele>2327</ele>
        <time>2023-07-17T07:32:44.000Z</time>
      </trkpt>
      <trkpt lat="42.43051" lon="2.33816">
        <ele>2328.3999023438</ele>
        <time>2023-07-17T07:32:47.000Z</time>
      </trkpt>
      <trkpt lat="42.43046" lon="2.33811">
        <ele>2330.6000976562</ele>
        <time>2023-07-17T07:32:57.000Z</time>
      </trkpt>
      <trkpt lat="42.43044" lon="2.33805">
        <ele>2330</ele>
        <time>2023-07-17T07:33:05.000Z</time>
      </trkpt>
      <trkpt lat="42.43042" lon="2.33802">
        <ele>2331</ele>
        <time>2023-07-17T07:33:08.000Z</time>
      </trkpt>
      <trkpt lat="42.43041" lon="2.33801">
        <ele>2332</ele>
        <time>2023-07-17T07:33:10.000Z</time>
      </trkpt>
      <trkpt lat="42.4304" lon="2.33802">
        <ele>2333.3999023438</ele>
        <time>2023-07-17T07:33:12.000Z</time>
      </trkpt>
      <trkpt lat="42.43039" lon="2.33803">
        <ele>2334.6000976562</ele>
        <time>2023-07-17T07:33:14.000Z</time>
      </trkpt>
      <trkpt lat="42.43038" lon="2.33802">
        <ele>2336</ele>
        <time>2023-07-17T07:33:19.000Z</time>
      </trkpt>
      <trkpt lat="42.43038" lon="2.338">
        <ele>2336.3999023438</ele>
        <time>2023-07-17T07:33:22.000Z</time>
      </trkpt>
      <trkpt lat="42.43036" lon="2.33796">
        <ele>2337</ele>
        <time>2023-07-17T07:33:30.000Z</time>
      </trkpt>
      <trkpt lat="42.43032" lon="2.33788">
        <ele>2337</ele>
        <time>2023-07-17T07:33:38.000Z</time>
      </trkpt>
      <trkpt lat="42.43032" lon="2.33788">
        <ele>2337.1999511719</ele>
        <time>2023-07-17T07:33:39.000Z</time>
      </trkpt>
      <trkpt lat="42.43029" lon="2.33785">
        <ele>2337.8000488281</ele>
        <time>2023-07-17T07:33:47.000Z</time>
      </trkpt>
      <trkpt lat="42.43027" lon="2.33781">
        <ele>2338.3999023438</ele>
        <time>2023-07-17T07:33:51.000Z</time>
      </trkpt>
      <trkpt lat="42.43026" lon="2.33779">
        <ele>2339.6000976562</ele>
        <time>2023-07-17T07:33:54.000Z</time>
      </trkpt>
      <trkpt lat="42.43024" lon="2.33775">
        <ele>2340.8000488281</ele>
        <time>2023-07-17T07:33:59.000Z</time>
      </trkpt>
      <trkpt lat="42.43019" lon="2.33772">
        <ele>2340</ele>
        <time>2023-07-17T07:34:04.000Z</time>
      </trkpt>
      <trkpt lat="42.43015" lon="2.33768">
        <ele>2340.3999023438</ele>
        <time>2023-07-17T07:34:12.000Z</time>
      </trkpt>
      <trkpt lat="42.43014" lon="2.33767">
        <ele>2341.6000976562</ele>
        <time>2023-07-17T07:34:19.000Z</time>
      </trkpt>
      <trkpt lat="42.43013" lon="2.33767">
        <ele>2341.8000488281</ele>
        <time>2023-07-17T07:34:21.000Z</time>
      </trkpt>
      <trkpt lat="42.4301" lon="2.33764">
        <ele>2342.8000488281</ele>
        <time>2023-07-17T07:34:27.000Z</time>
      </trkpt>
      <trkpt lat="42.4301" lon="2.33764">
        <ele>2343</ele>
        <time>2023-07-17T07:34:28.000Z</time>
      </trkpt>
      <trkpt lat="42.43006" lon="2.33759">
        <ele>2343.8000488281</ele>
        <time>2023-07-17T07:34:35.000Z</time>
      </trkpt>
      <trkpt lat="42.43005" lon="2.33757">
        <ele>2344.1999511719</ele>
        <time>2023-07-17T07:34:39.000Z</time>
      </trkpt>
      <trkpt lat="42.43003" lon="2.33755">
        <ele>2344.3999023438</ele>
        <time>2023-07-17T07:34:45.000Z</time>
      </trkpt>
      <trkpt lat="42.43" lon="2.3375">
        <ele>2345.1999511719</ele>
        <time>2023-07-17T07:34:52.000Z</time>
      </trkpt>
      <trkpt lat="42.42998" lon="2.33748">
        <ele>2345.3999023438</ele>
        <time>2023-07-17T07:34:56.000Z</time>
      </trkpt>
      <trkpt lat="42.42994" lon="2.33746">
        <ele>2346.3999023438</ele>
        <time>2023-07-17T07:35:02.000Z</time>
      </trkpt>
      <trkpt lat="42.42992" lon="2.33746">
        <ele>2346.6000976562</ele>
        <time>2023-07-17T07:35:09.000Z</time>
      </trkpt>
      <trkpt lat="42.42991" lon="2.33746">
        <ele>2346.8000488281</ele>
        <time>2023-07-17T07:35:10.000Z</time>
      </trkpt>
      <trkpt lat="42.42988" lon="2.33744">
        <ele>2347.6000976562</ele>
        <time>2023-07-17T07:35:15.000Z</time>
      </trkpt>
      <trkpt lat="42.42986" lon="2.33742">
        <ele>2348.3999023438</ele>
        <time>2023-07-17T07:35:18.000Z</time>
      </trkpt>
      <trkpt lat="42.42986" lon="2.33741">
        <ele>2348.8000488281</ele>
        <time>2023-07-17T07:35:19.000Z</time>
      </trkpt>
      <trkpt lat="42.42983" lon="2.33737">
        <ele>2349</ele>
        <time>2023-07-17T07:35:24.000Z</time>
      </trkpt>
      <trkpt lat="42.42982" lon="2.33738">
        <ele>2350</ele>
        <time>2023-07-17T07:35:27.000Z</time>
      </trkpt>
      <trkpt lat="42.42983" lon="2.33738">
        <ele>2350.8000488281</ele>
        <time>2023-07-17T07:35:30.000Z</time>
      </trkpt>
      <trkpt lat="42.42982" lon="2.33736">
        <ele>2351</ele>
        <time>2023-07-17T07:35:32.000Z</time>
      </trkpt>
      <trkpt lat="42.4298" lon="2.33734">
        <ele>2351.8000488281</ele>
        <time>2023-07-17T07:35:36.000Z</time>
      </trkpt>
      <trkpt lat="42.4298" lon="2.33734">
        <ele>2352.6000976562</ele>
        <time>2023-07-17T07:35:37.000Z</time>
      </trkpt>
      <trkpt lat="42.42977" lon="2.33737">
        <ele>2353.8000488281</ele>
        <time>2023-07-17T07:35:42.000Z</time>
      </trkpt>
      <trkpt lat="42.42978" lon="2.33743">
        <ele>2353.1999511719</ele>
        <time>2023-07-17T07:35:52.000Z</time>
      </trkpt>
      <trkpt lat="42.42977" lon="2.33744">
        <ele>2353.1999511719</ele>
        <time>2023-07-17T07:36:03.000Z</time>
      </trkpt>
      <trkpt lat="42.42977" lon="2.33739">
        <ele>2352.8000488281</ele>
        <time>2023-07-17T07:36:09.000Z</time>
      </trkpt>
      <trkpt lat="42.42977" lon="2.33739">
        <ele>2352.6000976562</ele>
        <time>2023-07-17T07:36:12.000Z</time>
      </trkpt>
      <trkpt lat="42.42977" lon="2.33741">
        <ele>2352.6000976562</ele>
        <time>2023-07-17T07:36:17.000Z</time>
      </trkpt>
      <trkpt lat="42.42976" lon="2.3374">
        <ele>2352.6000976562</ele>
        <time>2023-07-17T07:36:26.000Z</time>
      </trkpt>
      <trkpt lat="42.42977" lon="2.3374">
        <ele>2352.8000488281</ele>
        <time>2023-07-17T07:36:34.000Z</time>
      </trkpt>
      <trkpt lat="42.42978" lon="2.3374">
        <ele>2354.1999511719</ele>
        <time>2023-07-17T07:36:36.000Z</time>
      </trkpt>
      <trkpt lat="42.42979" lon="2.33741">
        <ele>2354.8000488281</ele>
        <time>2023-07-17T07:36:41.000Z</time>
      </trkpt>
      <trkpt lat="42.4298" lon="2.33742">
        <ele>2354</ele>
        <time>2023-07-17T07:36:51.000Z</time>
      </trkpt>
      <trkpt lat="42.42982" lon="2.3374">
        <ele>2354.1999511719</ele>
        <time>2023-07-17T07:37:01.000Z</time>
      </trkpt>
      <trkpt lat="42.42979" lon="2.3374">
        <ele>2353.1999511719</ele>
        <time>2023-07-17T07:37:08.000Z</time>
      </trkpt>
      <trkpt lat="42.42978" lon="2.3374">
        <ele>2353.1999511719</ele>
        <time>2023-07-17T07:37:09.000Z</time>
      </trkpt>
      <trkpt lat="42.42977" lon="2.33737">
        <ele>2353</ele>
        <time>2023-07-17T07:37:16.000Z</time>
      </trkpt>
      <trkpt lat="42.42976" lon="2.33737">
        <ele>2352.8000488281</ele>
        <time>2023-07-17T07:37:24.000Z</time>
      </trkpt>
      <trkpt lat="42.42976" lon="2.3374">
        <ele>2352.1999511719</ele>
        <time>2023-07-17T07:37:31.000Z</time>
      </trkpt>
      <trkpt lat="42.42974" lon="2.33741">
        <ele>2351.8000488281</ele>
        <time>2023-07-17T07:37:42.000Z</time>
      </trkpt>
      <trkpt lat="42.42978" lon="2.33744">
        <ele>2352.3999023438</ele>
        <time>2023-07-17T07:37:50.000Z</time>
      </trkpt>
      <trkpt lat="42.42975" lon="2.33742">
        <ele>2352.6000976562</ele>
        <time>2023-07-17T07:37:56.000Z</time>
      </trkpt>
      <trkpt lat="42.42972" lon="2.33741">
        <ele>2352</ele>
        <time>2023-07-17T07:38:04.000Z</time>
      </trkpt>
      <trkpt lat="42.42971" lon="2.33743">
        <ele>2353.1999511719</ele>
        <time>2023-07-17T07:38:12.000Z</time>
      </trkpt>
      <trkpt lat="42.42972" lon="2.33742">
        <ele>2353.6000976562</ele>
        <time>2023-07-17T07:38:14.000Z</time>
      </trkpt>
      <trkpt lat="42.42973" lon="2.33738">
        <ele>2354.3999023438</ele>
        <time>2023-07-17T07:38:18.000Z</time>
      </trkpt>
      <trkpt lat="42.42977" lon="2.33738">
        <ele>2354.1999511719</ele>
        <time>2023-07-17T07:38:22.000Z</time>
      </trkpt>
      <trkpt lat="42.4298" lon="2.33741">
        <ele>2355</ele>
        <time>2023-07-17T07:38:28.000Z</time>
      </trkpt>
      <trkpt lat="42.4298" lon="2.33741">
        <ele>2355.3999023438</ele>
        <time>2023-07-17T07:38:31.000Z</time>
      </trkpt>
      <trkpt lat="42.4298" lon="2.33739">
        <ele>2356.6000976562</ele>
        <time>2023-07-17T07:38:36.000Z</time>
      </trkpt>
      <trkpt lat="42.42979" lon="2.33741">
        <ele>2355</ele>
        <time>2023-07-17T07:38:43.000Z</time>
      </trkpt>
      <trkpt lat="42.42979" lon="2.33741">
        <ele>2354.1999511719</ele>
        <time>2023-07-17T07:38:45.000Z</time>
      </trkpt>
      <trkpt lat="42.42979" lon="2.3374">
        <ele>2353.8000488281</ele>
        <time>2023-07-17T07:38:46.000Z</time>
      </trkpt>
      <trkpt lat="42.42978" lon="2.3374">
        <ele>2353.1999511719</ele>
        <time>2023-07-17T07:38:52.000Z</time>
      </trkpt>
      <trkpt lat="42.42977" lon="2.33741">
        <ele>2353.6000976562</ele>
        <time>2023-07-17T07:39:01.000Z</time>
      </trkpt>
      <trkpt lat="42.42977" lon="2.3374">
        <ele>2353</ele>
        <time>2023-07-17T07:39:10.000Z</time>
      </trkpt>
      <trkpt lat="42.42979" lon="2.33739">
        <ele>2352.8000488281</ele>
        <time>2023-07-17T07:39:13.000Z</time>
      </trkpt>
      <trkpt lat="42.4298" lon="2.33739">
        <ele>2353</ele>
        <time>2023-07-17T07:39:18.000Z</time>
      </trkpt>
      <trkpt lat="42.42978" lon="2.33738">
        <ele>2354.1999511719</ele>
        <time>2023-07-17T07:39:22.000Z</time>
      </trkpt>
      <trkpt lat="42.42977" lon="2.33738">
        <ele>2355</ele>
        <time>2023-07-17T07:39:27.000Z</time>
      </trkpt>
      <trkpt lat="42.42977" lon="2.33739">
        <ele>2354.6000976562</ele>
        <time>2023-07-17T07:39:35.000Z</time>
      </trkpt>
      <trkpt lat="42.42978" lon="2.33743">
        <ele>2355.1999511719</ele>
        <time>2023-07-17T07:39:42.000Z</time>
      </trkpt>
      <trkpt lat="42.42978" lon="2.33742">
        <ele>2355.6000976562</ele>
        <time>2023-07-17T07:39:44.000Z</time>
      </trkpt>
      <trkpt lat="42.42979" lon="2.33744">
        <ele>2355</ele>
        <time>2023-07-17T07:39:56.000Z</time>
      </trkpt>
      <trkpt lat="42.42978" lon="2.33741">
        <ele>2354.3999023438</ele>
        <time>2023-07-17T07:40:04.000Z</time>
      </trkpt>
      <trkpt lat="42.42977" lon="2.33742">
        <ele>2354.1999511719</ele>
        <time>2023-07-17T07:40:08.000Z</time>
      </trkpt>
      <trkpt lat="42.42977" lon="2.33741">
        <ele>2353.8000488281</ele>
        <time>2023-07-17T07:40:12.000Z</time>
      </trkpt>
      <trkpt lat="42.42977" lon="2.33741">
        <ele>2354.6000976562</ele>
        <time>2023-07-17T07:40:20.000Z</time>
      </trkpt>
      <trkpt lat="42.42976" lon="2.33738">
        <ele>2355</ele>
        <time>2023-07-17T07:40:29.000Z</time>
      </trkpt>
      <trkpt lat="42.42977" lon="2.33739">
        <ele>2355.6000976562</ele>
        <time>2023-07-17T07:40:30.000Z</time>
      </trkpt>
      <trkpt lat="42.42975" lon="2.3374">
        <ele>2355.8000488281</ele>
        <time>2023-07-17T07:40:38.000Z</time>
      </trkpt>
      <trkpt lat="42.42974" lon="2.33739">
        <ele>2354.3999023438</ele>
        <time>2023-07-17T07:40:42.000Z</time>
      </trkpt>
      <trkpt lat="42.42972" lon="2.33741">
        <ele>2353.6000976562</ele>
        <time>2023-07-17T07:40:48.000Z</time>
      </trkpt>
      <trkpt lat="42.42972" lon="2.3374">
        <ele>2353.3999023438</ele>
        <time>2023-07-17T07:40:50.000Z</time>
      </trkpt>
      <trkpt lat="42.42972" lon="2.33739">
        <ele>2353.1999511719</ele>
        <time>2023-07-17T07:40:59.000Z</time>
      </trkpt>
      <trkpt lat="42.42977" lon="2.33742">
        <ele>2354</ele>
        <time>2023-07-17T07:41:09.000Z</time>
      </trkpt>
      <trkpt lat="42.4298" lon="2.33741">
        <ele>2353.1999511719</ele>
        <time>2023-07-17T07:41:24.000Z</time>
      </trkpt>
      <trkpt lat="42.42982" lon="2.3374">
        <ele>2354.6000976562</ele>
        <time>2023-07-17T07:41:30.000Z</time>
      </trkpt>
      <trkpt lat="42.42982" lon="2.33741">
        <ele>2356.1999511719</ele>
        <time>2023-07-17T07:41:33.000Z</time>
      </trkpt>
      <trkpt lat="42.4298" lon="2.33739">
        <ele>2356.8000488281</ele>
        <time>2023-07-17T07:41:36.000Z</time>
      </trkpt>
      <trkpt lat="42.42977" lon="2.33738">
        <ele>2357</ele>
        <time>2023-07-17T07:41:44.000Z</time>
      </trkpt>
      <trkpt lat="42.42977" lon="2.33738">
        <ele>2357.1999511719</ele>
        <time>2023-07-17T07:41:48.000Z</time>
      </trkpt>
      <trkpt lat="42.42977" lon="2.33741">
        <ele>2358</ele>
        <time>2023-07-17T07:41:52.000Z</time>
      </trkpt>
      <trkpt lat="42.42977" lon="2.33742">
        <ele>2358.8000488281</ele>
        <time>2023-07-17T07:41:54.000Z</time>
      </trkpt>
      <trkpt lat="42.42977" lon="2.33743">
        <ele>2359.8000488281</ele>
        <time>2023-07-17T07:41:55.000Z</time>
      </trkpt>
      <trkpt lat="42.42978" lon="2.33745">
        <ele>2361.1999511719</ele>
        <time>2023-07-17T07:41:57.000Z</time>
      </trkpt>
      <trkpt lat="42.42978" lon="2.33749">
        <ele>2361.8000488281</ele>
        <time>2023-07-17T07:42:00.000Z</time>
      </trkpt>
      <trkpt lat="42.42979" lon="2.33752">
        <ele>2362.3999023438</ele>
        <time>2023-07-17T07:42:02.000Z</time>
      </trkpt>
      <trkpt lat="42.42977" lon="2.33755">
        <ele>2363.3999023438</ele>
        <time>2023-07-17T07:42:07.000Z</time>
      </trkpt>
      <trkpt lat="42.42977" lon="2.33755">
        <ele>2363.3999023438</ele>
        <time>2023-07-17T07:42:08.000Z</time>
      </trkpt>
      <trkpt lat="42.42976" lon="2.33753">
        <ele>2362</ele>
        <time>2023-07-17T07:42:13.000Z</time>
      </trkpt>
      <trkpt lat="42.42976" lon="2.33752">
        <ele>2361</ele>
        <time>2023-07-17T07:42:15.000Z</time>
      </trkpt>
      <trkpt lat="42.42976" lon="2.33751">
        <ele>2360.1999511719</ele>
        <time>2023-07-17T07:42:16.000Z</time>
      </trkpt>
      <trkpt lat="42.42976" lon="2.3375">
        <ele>2358.8000488281</ele>
        <time>2023-07-17T07:42:17.000Z</time>
      </trkpt>
      <trkpt lat="42.42977" lon="2.33751">
        <ele>2357.6000976562</ele>
        <time>2023-07-17T07:42:19.000Z</time>
      </trkpt>
      <trkpt lat="42.42976" lon="2.3375">
        <ele>2357.1999511719</ele>
        <time>2023-07-17T07:42:22.000Z</time>
      </trkpt>
      <trkpt lat="42.42974" lon="2.33749">
        <ele>2357.3999023438</ele>
        <time>2023-07-17T07:42:28.000Z</time>
      </trkpt>
      <trkpt lat="42.4297" lon="2.33747">
        <ele>2358.8000488281</ele>
        <time>2023-07-17T07:42:32.000Z</time>
      </trkpt>
      <trkpt lat="42.42968" lon="2.33744">
        <ele>2359.3999023438</ele>
        <time>2023-07-17T07:42:34.000Z</time>
      </trkpt>
      <trkpt lat="42.42966" lon="2.33742">
        <ele>2360.3999023438</ele>
        <time>2023-07-17T07:42:36.000Z</time>
      </trkpt>
      <trkpt lat="42.42966" lon="2.3374">
        <ele>2361.3999023438</ele>
        <time>2023-07-17T07:42:39.000Z</time>
      </trkpt>
      <trkpt lat="42.42966" lon="2.33741">
        <ele>2361.3999023438</ele>
        <time>2023-07-17T07:42:41.000Z</time>
      </trkpt>
      <trkpt lat="42.42965" lon="2.3374">
        <ele>2362.1999511719</ele>
        <time>2023-07-17T07:42:50.000Z</time>
      </trkpt>
      <trkpt lat="42.42965" lon="2.3374">
        <ele>2363</ele>
        <time>2023-07-17T07:42:51.000Z</time>
      </trkpt>
      <trkpt lat="42.42962" lon="2.33737">
        <ele>2363</ele>
        <time>2023-07-17T07:42:57.000Z</time>
      </trkpt>
      <trkpt lat="42.4296" lon="2.33737">
        <ele>2363.6000976562</ele>
        <time>2023-07-17T07:43:03.000Z</time>
      </trkpt>
      <trkpt lat="42.4296" lon="2.33737">
        <ele>2363.3999023438</ele>
        <time>2023-07-17T07:43:04.000Z</time>
      </trkpt>
      <trkpt lat="42.4296" lon="2.33741">
        <ele>2362.3999023438</ele>
        <time>2023-07-17T07:43:12.000Z</time>
      </trkpt>
      <trkpt lat="42.42958" lon="2.33745">
        <ele>2363</ele>
        <time>2023-07-17T07:43:20.000Z</time>
      </trkpt>
      <trkpt lat="42.42957" lon="2.3375">
        <ele>2364</ele>
        <time>2023-07-17T07:43:26.000Z</time>
      </trkpt>
      <trkpt lat="42.42957" lon="2.33751">
        <ele>2364.8000488281</ele>
        <time>2023-07-17T07:43:28.000Z</time>
      </trkpt>
      <trkpt lat="42.42957" lon="2.33753">
        <ele>2365</ele>
        <time>2023-07-17T07:43:29.000Z</time>
      </trkpt>
      <trkpt lat="42.42956" lon="2.33755">
        <ele>2366.1999511719</ele>
        <time>2023-07-17T07:43:32.000Z</time>
      </trkpt>
      <trkpt lat="42.42954" lon="2.33756">
        <ele>2366.8000488281</ele>
        <time>2023-07-17T07:43:37.000Z</time>
      </trkpt>
      <trkpt lat="42.42953" lon="2.33755">
        <ele>2366.8000488281</ele>
        <time>2023-07-17T07:43:39.000Z</time>
      </trkpt>
      <trkpt lat="42.42951" lon="2.33753">
        <ele>2366.6000976562</ele>
        <time>2023-07-17T07:43:43.000Z</time>
      </trkpt>
      <trkpt lat="42.42948" lon="2.33752">
        <ele>2369.6000976562</ele>
        <time>2023-07-17T07:43:48.000Z</time>
      </trkpt>
      <trkpt lat="42.42947" lon="2.33751">
        <ele>2371.1999511719</ele>
        <time>2023-07-17T07:43:49.000Z</time>
      </trkpt>
      <trkpt lat="42.42945" lon="2.33751">
        <ele>2371.8000488281</ele>
        <time>2023-07-17T07:43:51.000Z</time>
      </trkpt>
      <trkpt lat="42.42944" lon="2.33751">
        <ele>2370</ele>
        <time>2023-07-17T07:43:55.000Z</time>
      </trkpt>
      <trkpt lat="42.42943" lon="2.33751">
        <ele>2369</ele>
        <time>2023-07-17T07:43:57.000Z</time>
      </trkpt>
      <trkpt lat="42.42943" lon="2.33751">
        <ele>2369</ele>
        <time>2023-07-17T07:43:58.000Z</time>
      </trkpt>
      <trkpt lat="42.42939" lon="2.3375">
        <ele>2368.3999023438</ele>
        <time>2023-07-17T07:44:06.000Z</time>
      </trkpt>
      <trkpt lat="42.42933" lon="2.3375">
        <ele>2369.6000976562</ele>
        <time>2023-07-17T07:44:14.000Z</time>
      </trkpt>
      <trkpt lat="42.42932" lon="2.33751">
        <ele>2370.1999511719</ele>
        <time>2023-07-17T07:44:16.000Z</time>
      </trkpt>
      <trkpt lat="42.4293" lon="2.33751">
        <ele>2371.1999511719</ele>
        <time>2023-07-17T07:44:21.000Z</time>
      </trkpt>
      <trkpt lat="42.42928" lon="2.3375">
        <ele>2371.6000976562</ele>
        <time>2023-07-17T07:44:23.000Z</time>
      </trkpt>
      <trkpt lat="42.42926" lon="2.33749">
        <ele>2373</ele>
        <time>2023-07-17T07:44:27.000Z</time>
      </trkpt>
      <trkpt lat="42.42924" lon="2.33747">
        <ele>2374</ele>
        <time>2023-07-17T07:44:31.000Z</time>
      </trkpt>
      <trkpt lat="42.42923" lon="2.33747">
        <ele>2374.1999511719</ele>
        <time>2023-07-17T07:44:33.000Z</time>
      </trkpt>
      <trkpt lat="42.42921" lon="2.33746">
        <ele>2375.6000976562</ele>
        <time>2023-07-17T07:44:37.000Z</time>
      </trkpt>
      <trkpt lat="42.42921" lon="2.33747">
        <ele>2375.8000488281</ele>
        <time>2023-07-17T07:44:38.000Z</time>
      </trkpt>
      <trkpt lat="42.42917" lon="2.33749">
        <ele>2374.1999511719</ele>
        <time>2023-07-17T07:44:44.000Z</time>
      </trkpt>
      <trkpt lat="42.42916" lon="2.3375">
        <ele>2373.8000488281</ele>
        <time>2023-07-17T07:44:45.000Z</time>
      </trkpt>
      <trkpt lat="42.4291" lon="2.33748">
        <ele>2374.6000976562</ele>
        <time>2023-07-17T07:44:53.000Z</time>
      </trkpt>
      <trkpt lat="42.4291" lon="2.33747">
        <ele>2375.3999023438</ele>
        <time>2023-07-17T07:44:57.000Z</time>
      </trkpt>
      <trkpt lat="42.42909" lon="2.33748">
        <ele>2375.8000488281</ele>
        <time>2023-07-17T07:44:59.000Z</time>
      </trkpt>
      <trkpt lat="42.42909" lon="2.33751">
        <ele>2374.3999023438</ele>
        <time>2023-07-17T07:45:06.000Z</time>
      </trkpt>
      <trkpt lat="42.42911" lon="2.33751">
        <ele>2376.8000488281</ele>
        <time>2023-07-17T07:45:16.000Z</time>
      </trkpt>
      <trkpt lat="42.42909" lon="2.3375">
        <ele>2374.6000976562</ele>
        <time>2023-07-17T07:45:23.000Z</time>
      </trkpt>
      <trkpt lat="42.42907" lon="2.33746">
        <ele>2375.8000488281</ele>
        <time>2023-07-17T07:45:28.000Z</time>
      </trkpt>
      <trkpt lat="42.42906" lon="2.33742">
        <ele>2376.3999023438</ele>
        <time>2023-07-17T07:45:30.000Z</time>
      </trkpt>
      <trkpt lat="42.42901" lon="2.33735">
        <ele>2375.1999511719</ele>
        <time>2023-07-17T07:45:36.000Z</time>
      </trkpt>
      <trkpt lat="42.42895" lon="2.33736">
        <ele>2377.3999023438</ele>
        <time>2023-07-17T07:45:43.000Z</time>
      </trkpt>
      <trkpt lat="42.42894" lon="2.33735">
        <ele>2378.8000488281</ele>
        <time>2023-07-17T07:45:44.000Z</time>
      </trkpt>
      <trkpt lat="42.42892" lon="2.33735">
        <ele>2377.8000488281</ele>
        <time>2023-07-17T07:45:48.000Z</time>
      </trkpt>
      <trkpt lat="42.42889" lon="2.33732">
        <ele>2377</ele>
        <time>2023-07-17T07:45:51.000Z</time>
      </trkpt>
      <trkpt lat="42.42881" lon="2.33726">
        <ele>2377.3999023438</ele>
        <time>2023-07-17T07:45:58.000Z</time>
      </trkpt>
      <trkpt lat="42.42879" lon="2.33719">
        <ele>2377.6000976562</ele>
        <time>2023-07-17T07:46:07.000Z</time>
      </trkpt>
      <trkpt lat="42.4288" lon="2.33719">
        <ele>2378.3999023438</ele>
        <time>2023-07-17T07:46:14.000Z</time>
      </trkpt>
      <trkpt lat="42.42882" lon="2.33719">
        <ele>2378.1999511719</ele>
        <time>2023-07-17T07:46:21.000Z</time>
      </trkpt>
      <trkpt lat="42.42877" lon="2.33688">
        <ele>2377.8000488281</ele>
        <time>2023-07-17T07:46:47.000Z</time>
      </trkpt>
      <trkpt lat="42.42882" lon="2.33704">
        <ele>2378.8000488281</ele>
        <time>2023-07-17T07:47:29.000Z</time>
      </trkpt>
      <trkpt lat="42.42882" lon="2.33706">
        <ele>2378.1999511719</ele>
        <time>2023-07-17T07:47:37.000Z</time>
      </trkpt>
      <trkpt lat="42.4288" lon="2.33713">
        <ele>2378.3999023438</ele>
        <time>2023-07-17T07:47:43.000Z</time>
      </trkpt>
      <trkpt lat="42.4288" lon="2.33718">
        <ele>2379.3999023438</ele>
        <time>2023-07-17T07:47:49.000Z</time>
      </trkpt>
      <trkpt lat="42.42879" lon="2.33721">
        <ele>2379.3999023438</ele>
        <time>2023-07-17T07:47:56.000Z</time>
      </trkpt>
      <trkpt lat="42.42879" lon="2.33721">
        <ele>2379.6000976562</ele>
        <time>2023-07-17T07:48:04.000Z</time>
      </trkpt>
      <trkpt lat="42.4288" lon="2.33721">
        <ele>2380</ele>
        <time>2023-07-17T07:48:05.000Z</time>
      </trkpt>
      <trkpt lat="42.42884" lon="2.3372">
        <ele>2380</ele>
        <time>2023-07-17T07:48:10.000Z</time>
      </trkpt>
      <trkpt lat="42.42888" lon="2.33718">
        <ele>2379.6000976562</ele>
        <time>2023-07-17T07:48:18.000Z</time>
      </trkpt>
      <trkpt lat="42.42887" lon="2.33718">
        <ele>2378.8000488281</ele>
        <time>2023-07-17T07:48:23.000Z</time>
      </trkpt>
      <trkpt lat="42.42888" lon="2.33717">
        <ele>2378.8000488281</ele>
        <time>2023-07-17T07:48:28.000Z</time>
      </trkpt>
      <trkpt lat="42.42889" lon="2.33716">
        <ele>2379.8000488281</ele>
        <time>2023-07-17T07:48:31.000Z</time>
      </trkpt>
      <trkpt lat="42.42891" lon="2.33713">
        <ele>2381.3999023438</ele>
        <time>2023-07-17T07:48:36.000Z</time>
      </trkpt>
      <trkpt lat="42.42892" lon="2.33713">
        <ele>2381.8000488281</ele>
        <time>2023-07-17T07:48:37.000Z</time>
      </trkpt>
      <trkpt lat="42.42893" lon="2.33712">
        <ele>2382.6000976562</ele>
        <time>2023-07-17T07:48:40.000Z</time>
      </trkpt>
      <trkpt lat="42.42897" lon="2.33711">
        <ele>2383.8000488281</ele>
        <time>2023-07-17T07:48:45.000Z</time>
      </trkpt>
      <trkpt lat="42.42899" lon="2.3371">
        <ele>2384.6000976562</ele>
        <time>2023-07-17T07:48:48.000Z</time>
      </trkpt>
      <trkpt lat="42.42898" lon="2.33711">
        <ele>2380.8000488281</ele>
        <time>2023-07-17T07:48:52.000Z</time>
      </trkpt>
      <trkpt lat="42.42896" lon="2.33711">
        <ele>2381.6000976562</ele>
        <time>2023-07-17T07:48:57.000Z</time>
      </trkpt>
      <trkpt lat="42.42895" lon="2.33711">
        <ele>2382.1999511719</ele>
        <time>2023-07-17T07:48:58.000Z</time>
      </trkpt>
      <trkpt lat="42.42895" lon="2.3371">
        <ele>2383.1999511719</ele>
        <time>2023-07-17T07:49:02.000Z</time>
      </trkpt>
      <trkpt lat="42.42894" lon="2.3371">
        <ele>2383.3999023438</ele>
        <time>2023-07-17T07:49:05.000Z</time>
      </trkpt>
      <trkpt lat="42.42892" lon="2.33707">
        <ele>2383.6000976562</ele>
        <time>2023-07-17T07:49:13.000Z</time>
      </trkpt>
      <trkpt lat="42.42893" lon="2.33707">
        <ele>2384.1999511719</ele>
        <time>2023-07-17T07:49:15.000Z</time>
      </trkpt>
      <trkpt lat="42.42894" lon="2.33708">
        <ele>2385.1999511719</ele>
        <time>2023-07-17T07:49:17.000Z</time>
      </trkpt>
      <trkpt lat="42.42895" lon="2.33709">
        <ele>2384.8000488281</ele>
        <time>2023-07-17T07:49:21.000Z</time>
      </trkpt>
      <trkpt lat="42.42895" lon="2.3371">
        <ele>2384</ele>
        <time>2023-07-17T07:49:26.000Z</time>
      </trkpt>
      <trkpt lat="42.42895" lon="2.33709">
        <ele>2383.3999023438</ele>
        <time>2023-07-17T07:49:29.000Z</time>
      </trkpt>
      <trkpt lat="42.42896" lon="2.33708">
        <ele>2383.8000488281</ele>
        <time>2023-07-17T07:49:36.000Z</time>
      </trkpt>
      <trkpt lat="42.42894" lon="2.33708">
        <ele>2384.6000976562</ele>
        <time>2023-07-17T07:49:42.000Z</time>
      </trkpt>
      <trkpt lat="42.42896" lon="2.33709">
        <ele>2383.1999511719</ele>
        <time>2023-07-17T07:49:50.000Z</time>
      </trkpt>
      <trkpt lat="42.42896" lon="2.33709">
        <ele>2383</ele>
        <time>2023-07-17T07:49:53.000Z</time>
      </trkpt>
      <trkpt lat="42.42896" lon="2.33708">
        <ele>2382</ele>
        <time>2023-07-17T07:49:58.000Z</time>
      </trkpt>
      <trkpt lat="42.42897" lon="2.33707">
        <ele>2382.8000488281</ele>
        <time>2023-07-17T07:50:05.000Z</time>
      </trkpt>
      <trkpt lat="42.42894" lon="2.33703">
        <ele>2383</ele>
        <time>2023-07-17T07:50:14.000Z</time>
      </trkpt>
      <trkpt lat="42.42893" lon="2.33701">
        <ele>2384</ele>
        <time>2023-07-17T07:50:18.000Z</time>
      </trkpt>
      <trkpt lat="42.42891" lon="2.337">
        <ele>2384.6000976562</ele>
        <time>2023-07-17T07:50:24.000Z</time>
      </trkpt>
      <trkpt lat="42.42888" lon="2.33698">
        <ele>2385.1999511719</ele>
        <time>2023-07-17T07:50:30.000Z</time>
      </trkpt>
      <trkpt lat="42.42888" lon="2.33697">
        <ele>2385.3999023438</ele>
        <time>2023-07-17T07:50:32.000Z</time>
      </trkpt>
      <trkpt lat="42.42887" lon="2.33694">
        <ele>2385.6000976562</ele>
        <time>2023-07-17T07:50:39.000Z</time>
      </trkpt>
      <trkpt lat="42.42883" lon="2.33689">
        <ele>2386.3999023438</ele>
        <time>2023-07-17T07:50:45.000Z</time>
      </trkpt>
      <trkpt lat="42.42882" lon="2.33689">
        <ele>2386.6000976562</ele>
        <time>2023-07-17T07:50:46.000Z</time>
      </trkpt>
      <trkpt lat="42.42874" lon="2.33684">
        <ele>2386.8000488281</ele>
        <time>2023-07-17T07:50:55.000Z</time>
      </trkpt>
      <trkpt lat="42.42871" lon="2.33682">
        <ele>2387.6000976562</ele>
        <time>2023-07-17T07:50:59.000Z</time>
      </trkpt>
      <trkpt lat="42.42865" lon="2.33677">
        <ele>2388.1999511719</ele>
        <time>2023-07-17T07:51:05.000Z</time>
      </trkpt>
      <trkpt lat="42.42862" lon="2.33672">
        <ele>2388.6000976562</ele>
        <time>2023-07-17T07:51:12.000Z</time>
      </trkpt>
      <trkpt lat="42.42862" lon="2.33671">
        <ele>2389.3999023438</ele>
        <time>2023-07-17T07:51:13.000Z</time>
      </trkpt>
      <trkpt lat="42.42862" lon="2.3367">
        <ele>2389.8000488281</ele>
        <time>2023-07-17T07:51:14.000Z</time>
      </trkpt>
      <trkpt lat="42.42861" lon="2.33667">
        <ele>2391</ele>
        <time>2023-07-17T07:51:18.000Z</time>
      </trkpt>
      <trkpt lat="42.4286" lon="2.33666">
        <ele>2391.3999023438</ele>
        <time>2023-07-17T07:51:22.000Z</time>
      </trkpt>
      <trkpt lat="42.42855" lon="2.3366">
        <ele>2391</ele>
        <time>2023-07-17T07:51:30.000Z</time>
      </trkpt>
      <trkpt lat="42.42849" lon="2.33651">
        <ele>2391.6000976562</ele>
        <time>2023-07-17T07:51:38.000Z</time>
      </trkpt>
      <trkpt lat="42.42849" lon="2.3365">
        <ele>2392</ele>
        <time>2023-07-17T07:51:40.000Z</time>
      </trkpt>
      <trkpt lat="42.42847" lon="2.33646">
        <ele>2393</ele>
        <time>2023-07-17T07:51:44.000Z</time>
      </trkpt>
      <trkpt lat="42.42846" lon="2.33644">
        <ele>2393.1999511719</ele>
        <time>2023-07-17T07:51:46.000Z</time>
      </trkpt>
      <trkpt lat="42.42844" lon="2.33636">
        <ele>2394</ele>
        <time>2023-07-17T07:51:52.000Z</time>
      </trkpt>
      <trkpt lat="42.42843" lon="2.33633">
        <ele>2394.1999511719</ele>
        <time>2023-07-17T07:51:54.000Z</time>
      </trkpt>
      <trkpt lat="42.42841" lon="2.33629">
        <ele>2394.3999023438</ele>
        <time>2023-07-17T07:51:58.000Z</time>
      </trkpt>
      <trkpt lat="42.42837" lon="2.33623">
        <ele>2395.1999511719</ele>
        <time>2023-07-17T07:52:05.000Z</time>
      </trkpt>
      <trkpt lat="42.4283" lon="2.33616">
        <ele>2395</ele>
        <time>2023-07-17T07:52:13.000Z</time>
      </trkpt>
      <trkpt lat="42.42826" lon="2.33605">
        <ele>2394.8000488281</ele>
        <time>2023-07-17T07:52:22.000Z</time>
      </trkpt>
      <trkpt lat="42.42824" lon="2.33598">
        <ele>2395.1999511719</ele>
        <time>2023-07-17T07:52:29.000Z</time>
      </trkpt>
      <trkpt lat="42.42823" lon="2.33596">
        <ele>2396.3999023438</ele>
        <time>2023-07-17T07:52:31.000Z</time>
      </trkpt>
      <trkpt lat="42.42822" lon="2.33595">
        <ele>2397.3999023438</ele>
        <time>2023-07-17T07:52:33.000Z</time>
      </trkpt>
      <trkpt lat="42.42822" lon="2.33594">
        <ele>2398.1999511719</ele>
        <time>2023-07-17T07:52:36.000Z</time>
      </trkpt>
      <trkpt lat="42.42821" lon="2.33593">
        <ele>2398.3999023438</ele>
        <time>2023-07-17T07:52:37.000Z</time>
      </trkpt>
      <trkpt lat="42.4282" lon="2.33593">
        <ele>2398.6000976562</ele>
        <time>2023-07-17T07:52:38.000Z</time>
      </trkpt>
      <trkpt lat="42.42817" lon="2.33588">
        <ele>2399.1999511719</ele>
        <time>2023-07-17T07:52:43.000Z</time>
      </trkpt>
      <trkpt lat="42.42817" lon="2.33584">
        <ele>2399.8000488281</ele>
        <time>2023-07-17T07:52:46.000Z</time>
      </trkpt>
      <trkpt lat="42.42816" lon="2.3358">
        <ele>2400</ele>
        <time>2023-07-17T07:52:50.000Z</time>
      </trkpt>
      <trkpt lat="42.42815" lon="2.33578">
        <ele>2399.8000488281</ele>
        <time>2023-07-17T07:52:51.000Z</time>
      </trkpt>
      <trkpt lat="42.42812" lon="2.33572">
        <ele>2398.8000488281</ele>
        <time>2023-07-17T07:52:55.000Z</time>
      </trkpt>
      <trkpt lat="42.42811" lon="2.33571">
        <ele>2398.8000488281</ele>
        <time>2023-07-17T07:52:56.000Z</time>
      </trkpt>
      <trkpt lat="42.42808" lon="2.33565">
        <ele>2398.8000488281</ele>
        <time>2023-07-17T07:53:03.000Z</time>
      </trkpt>
      <trkpt lat="42.42807" lon="2.33563">
        <ele>2399.8000488281</ele>
        <time>2023-07-17T07:53:06.000Z</time>
      </trkpt>
      <trkpt lat="42.42803" lon="2.33556">
        <ele>2400.3999023438</ele>
        <time>2023-07-17T07:53:12.000Z</time>
      </trkpt>
      <trkpt lat="42.42802" lon="2.33548">
        <ele>2400.1999511719</ele>
        <time>2023-07-17T07:53:20.000Z</time>
      </trkpt>
      <trkpt lat="42.42797" lon="2.33537">
        <ele>2399.1999511719</ele>
        <time>2023-07-17T07:53:28.000Z</time>
      </trkpt>
      <trkpt lat="42.42795" lon="2.33533">
        <ele>2398.8000488281</ele>
        <time>2023-07-17T07:53:32.000Z</time>
      </trkpt>
      <trkpt lat="42.42792" lon="2.33529">
        <ele>2397.8000488281</ele>
        <time>2023-07-17T07:53:36.000Z</time>
      </trkpt>
      <trkpt lat="42.42792" lon="2.33528">
        <ele>2397.8000488281</ele>
        <time>2023-07-17T07:53:37.000Z</time>
      </trkpt>
      <trkpt lat="42.42787" lon="2.33517">
        <ele>2396.8000488281</ele>
        <time>2023-07-17T07:53:45.000Z</time>
      </trkpt>
      <trkpt lat="42.42786" lon="2.33514">
        <ele>2396.8000488281</ele>
        <time>2023-07-17T07:53:47.000Z</time>
      </trkpt>
      <trkpt lat="42.42783" lon="2.33507">
        <ele>2397.8000488281</ele>
        <time>2023-07-17T07:53:52.000Z</time>
      </trkpt>
      <trkpt lat="42.42782" lon="2.33504">
        <ele>2398.8000488281</ele>
        <time>2023-07-17T07:53:55.000Z</time>
      </trkpt>
      <trkpt lat="42.42782" lon="2.33503">
        <ele>2399</ele>
        <time>2023-07-17T07:53:56.000Z</time>
      </trkpt>
      <trkpt lat="42.42779" lon="2.33491">
        <ele>2399.1999511719</ele>
        <time>2023-07-17T07:54:06.000Z</time>
      </trkpt>
      <trkpt lat="42.42776" lon="2.33484">
        <ele>2400</ele>
        <time>2023-07-17T07:54:14.000Z</time>
      </trkpt>
      <trkpt lat="42.42776" lon="2.33484">
        <ele>2400</ele>
        <time>2023-07-17T07:54:15.000Z</time>
      </trkpt>
      <trkpt lat="42.42772" lon="2.33474">
        <ele>2400.8000488281</ele>
        <time>2023-07-17T07:54:25.000Z</time>
      </trkpt>
      <trkpt lat="42.42772" lon="2.33473">
        <ele>2401</ele>
        <time>2023-07-17T07:54:26.000Z</time>
      </trkpt>
      <trkpt lat="42.42769" lon="2.33469">
        <ele>2402</ele>
        <time>2023-07-17T07:54:31.000Z</time>
      </trkpt>
      <trkpt lat="42.42768" lon="2.33467">
        <ele>2402.1999511719</ele>
        <time>2023-07-17T07:54:33.000Z</time>
      </trkpt>
      <trkpt lat="42.42767" lon="2.33458">
        <ele>2401</ele>
        <time>2023-07-17T07:54:39.000Z</time>
      </trkpt>
      <trkpt lat="42.42766" lon="2.33454">
        <ele>2401</ele>
        <time>2023-07-17T07:54:42.000Z</time>
      </trkpt>
      <trkpt lat="42.42765" lon="2.33451">
        <ele>2402.1999511719</ele>
        <time>2023-07-17T07:54:44.000Z</time>
      </trkpt>
      <trkpt lat="42.42763" lon="2.33446">
        <ele>2403.3999023438</ele>
        <time>2023-07-17T07:54:48.000Z</time>
      </trkpt>
      <trkpt lat="42.42762" lon="2.33444">
        <ele>2404.8000488281</ele>
        <time>2023-07-17T07:54:51.000Z</time>
      </trkpt>
      <trkpt lat="42.42761" lon="2.33443">
        <ele>2405</ele>
        <time>2023-07-17T07:54:52.000Z</time>
      </trkpt>
      <trkpt lat="42.42754" lon="2.33437">
        <ele>2405.1999511719</ele>
        <time>2023-07-17T07:55:01.000Z</time>
      </trkpt>
      <trkpt lat="42.42748" lon="2.33428">
        <ele>2404</ele>
        <time>2023-07-17T07:55:10.000Z</time>
      </trkpt>
      <trkpt lat="42.42747" lon="2.33426">
        <ele>2403.8000488281</ele>
        <time>2023-07-17T07:55:11.000Z</time>
      </trkpt>
      <trkpt lat="42.42744" lon="2.33419">
        <ele>2405</ele>
        <time>2023-07-17T07:55:17.000Z</time>
      </trkpt>
      <trkpt lat="42.42742" lon="2.33416">
        <ele>2405.6000976562</ele>
        <time>2023-07-17T07:55:20.000Z</time>
      </trkpt>
      <trkpt lat="42.42741" lon="2.33413">
        <ele>2406.1999511719</ele>
        <time>2023-07-17T07:55:24.000Z</time>
      </trkpt>
      <trkpt lat="42.42739" lon="2.3341">
        <ele>2407.1999511719</ele>
        <time>2023-07-17T07:55:29.000Z</time>
      </trkpt>
      <trkpt lat="42.42738" lon="2.33409">
        <ele>2408.3999023438</ele>
        <time>2023-07-17T07:55:33.000Z</time>
      </trkpt>
      <trkpt lat="42.42733" lon="2.33401">
        <ele>2408.6000976562</ele>
        <time>2023-07-17T07:55:38.000Z</time>
      </trkpt>
      <trkpt lat="42.42729" lon="2.33396">
        <ele>2409.3999023438</ele>
        <time>2023-07-17T07:55:44.000Z</time>
      </trkpt>
      <trkpt lat="42.42728" lon="2.33394">
        <ele>2409.6000976562</ele>
        <time>2023-07-17T07:55:45.000Z</time>
      </trkpt>
      <trkpt lat="42.42723" lon="2.33392">
        <ele>2409.1999511719</ele>
        <time>2023-07-17T07:55:52.000Z</time>
      </trkpt>
      <trkpt lat="42.42721" lon="2.33389">
        <ele>2408.1999511719</ele>
        <time>2023-07-17T07:55:57.000Z</time>
      </trkpt>
      <trkpt lat="42.42719" lon="2.33388">
        <ele>2406.8000488281</ele>
        <time>2023-07-17T07:55:59.000Z</time>
      </trkpt>
      <trkpt lat="42.42719" lon="2.33387">
        <ele>2406.8000488281</ele>
        <time>2023-07-17T07:56:00.000Z</time>
      </trkpt>
      <trkpt lat="42.42715" lon="2.33379">
        <ele>2407.8000488281</ele>
        <time>2023-07-17T07:56:09.000Z</time>
      </trkpt>
      <trkpt lat="42.42714" lon="2.33376">
        <ele>2408</ele>
        <time>2023-07-17T07:56:11.000Z</time>
      </trkpt>
      <trkpt lat="42.42714" lon="2.33373">
        <ele>2408.8000488281</ele>
        <time>2023-07-17T07:56:15.000Z</time>
      </trkpt>
      <trkpt lat="42.42714" lon="2.33372">
        <ele>2409</ele>
        <time>2023-07-17T07:56:16.000Z</time>
      </trkpt>
      <trkpt lat="42.42711" lon="2.33366">
        <ele>2410.3999023438</ele>
        <time>2023-07-17T07:56:23.000Z</time>
      </trkpt>
      <trkpt lat="42.4271" lon="2.33366">
        <ele>2410.8000488281</ele>
        <time>2023-07-17T07:56:24.000Z</time>
      </trkpt>
      <trkpt lat="42.42707" lon="2.33359">
        <ele>2411.6000976562</ele>
        <time>2023-07-17T07:56:33.000Z</time>
      </trkpt>
      <trkpt lat="42.42703" lon="2.3335">
        <ele>2411.8000488281</ele>
        <time>2023-07-17T07:56:41.000Z</time>
      </trkpt>
      <trkpt lat="42.42697" lon="2.33343">
        <ele>2412.1999511719</ele>
        <time>2023-07-17T07:56:49.000Z</time>
      </trkpt>
      <trkpt lat="42.42695" lon="2.33334">
        <ele>2411.6000976562</ele>
        <time>2023-07-17T07:56:58.000Z</time>
      </trkpt>
      <trkpt lat="42.42692" lon="2.33329">
        <ele>2412.6000976562</ele>
        <time>2023-07-17T07:57:03.000Z</time>
      </trkpt>
      <trkpt lat="42.42691" lon="2.33328">
        <ele>2414</ele>
        <time>2023-07-17T07:57:05.000Z</time>
      </trkpt>
      <trkpt lat="42.4269" lon="2.33327">
        <ele>2414</ele>
        <time>2023-07-17T07:57:06.000Z</time>
      </trkpt>
      <trkpt lat="42.42688" lon="2.33322">
        <ele>2412.8000488281</ele>
        <time>2023-07-17T07:57:10.000Z</time>
      </trkpt>
      <trkpt lat="42.42685" lon="2.33316">
        <ele>2412.3999023438</ele>
        <time>2023-07-17T07:57:15.000Z</time>
      </trkpt>
      <trkpt lat="42.42684" lon="2.33308">
        <ele>2412.6000976562</ele>
        <time>2023-07-17T07:57:22.000Z</time>
      </trkpt>
      <trkpt lat="42.42683" lon="2.33299">
        <ele>2414</ele>
        <time>2023-07-17T07:57:32.000Z</time>
      </trkpt>
      <trkpt lat="42.42682" lon="2.33288">
        <ele>2414.1999511719</ele>
        <time>2023-07-17T07:57:40.000Z</time>
      </trkpt>
      <trkpt lat="42.42681" lon="2.33279">
        <ele>2415</ele>
        <time>2023-07-17T07:57:48.000Z</time>
      </trkpt>
      <trkpt lat="42.42681" lon="2.33271">
        <ele>2415.3999023438</ele>
        <time>2023-07-17T07:57:55.000Z</time>
      </trkpt>
      <trkpt lat="42.42681" lon="2.3327">
        <ele>2416.3999023438</ele>
        <time>2023-07-17T07:57:57.000Z</time>
      </trkpt>
      <trkpt lat="42.4268" lon="2.33262">
        <ele>2417.1999511719</ele>
        <time>2023-07-17T07:58:03.000Z</time>
      </trkpt>
      <trkpt lat="42.42681" lon="2.33254">
        <ele>2417.3999023438</ele>
        <time>2023-07-17T07:58:11.000Z</time>
      </trkpt>
      <trkpt lat="42.42681" lon="2.33244">
        <ele>2416.6000976562</ele>
        <time>2023-07-17T07:58:19.000Z</time>
      </trkpt>
      <trkpt lat="42.42681" lon="2.33242">
        <ele>2414.8000488281</ele>
        <time>2023-07-17T07:58:21.000Z</time>
      </trkpt>
      <trkpt lat="42.42681" lon="2.33234">
        <ele>2413</ele>
        <time>2023-07-17T07:58:28.000Z</time>
      </trkpt>
      <trkpt lat="42.42681" lon="2.33233">
        <ele>2412</ele>
        <time>2023-07-17T07:58:29.000Z</time>
      </trkpt>
      <trkpt lat="42.42681" lon="2.33228">
        <ele>2410.3999023438</ele>
        <time>2023-07-17T07:58:32.000Z</time>
      </trkpt>
      <trkpt lat="42.42681" lon="2.33226">
        <ele>2411.3999023438</ele>
        <time>2023-07-17T07:58:34.000Z</time>
      </trkpt>
      <trkpt lat="42.42681" lon="2.33225">
        <ele>2412</ele>
        <time>2023-07-17T07:58:35.000Z</time>
      </trkpt>
      <trkpt lat="42.4268" lon="2.33222">
        <ele>2413.3999023438</ele>
        <time>2023-07-17T07:58:37.000Z</time>
      </trkpt>
      <trkpt lat="42.42681" lon="2.33219">
        <ele>2415.3999023438</ele>
        <time>2023-07-17T07:58:39.000Z</time>
      </trkpt>
      <trkpt lat="42.42681" lon="2.33218">
        <ele>2416.6000976562</ele>
        <time>2023-07-17T07:58:40.000Z</time>
      </trkpt>
      <trkpt lat="42.4268" lon="2.33214">
        <ele>2417.6000976562</ele>
        <time>2023-07-17T07:58:43.000Z</time>
      </trkpt>
      <trkpt lat="42.4268" lon="2.33207">
        <ele>2419</ele>
        <time>2023-07-17T07:58:49.000Z</time>
      </trkpt>
      <trkpt lat="42.4268" lon="2.33206">
        <ele>2420.6000976562</ele>
        <time>2023-07-17T07:58:50.000Z</time>
      </trkpt>
      <trkpt lat="42.4268" lon="2.33205">
        <ele>2420.8000488281</ele>
        <time>2023-07-17T07:58:51.000Z</time>
      </trkpt>
      <trkpt lat="42.42681" lon="2.33197">
        <ele>2419.3999023438</ele>
        <time>2023-07-17T07:58:59.000Z</time>
      </trkpt>
      <trkpt lat="42.42681" lon="2.33197">
        <ele>2419.1999511719</ele>
        <time>2023-07-17T07:59:00.000Z</time>
      </trkpt>
      <trkpt lat="42.42681" lon="2.33194">
        <ele>2417.8000488281</ele>
        <time>2023-07-17T07:59:02.000Z</time>
      </trkpt>
      <trkpt lat="42.42681" lon="2.33193">
        <ele>2416</ele>
        <time>2023-07-17T07:59:03.000Z</time>
      </trkpt>
      <trkpt lat="42.4268" lon="2.33184">
        <ele>2415.8000488281</ele>
        <time>2023-07-17T07:59:09.000Z</time>
      </trkpt>
      <trkpt lat="42.42678" lon="2.33174">
        <ele>2415.1999511719</ele>
        <time>2023-07-17T07:59:16.000Z</time>
      </trkpt>
      <trkpt lat="42.42677" lon="2.33171">
        <ele>2414.6000976562</ele>
        <time>2023-07-17T07:59:18.000Z</time>
      </trkpt>
      <trkpt lat="42.42676" lon="2.33165">
        <ele>2414.1999511719</ele>
        <time>2023-07-17T07:59:23.000Z</time>
      </trkpt>
      <trkpt lat="42.42675" lon="2.3316">
        <ele>2416.1999511719</ele>
        <time>2023-07-17T07:59:26.000Z</time>
      </trkpt>
      <trkpt lat="42.42673" lon="2.33149">
        <ele>2417.6000976562</ele>
        <time>2023-07-17T07:59:32.000Z</time>
      </trkpt>
      <trkpt lat="42.42672" lon="2.33147">
        <ele>2419</ele>
        <time>2023-07-17T07:59:33.000Z</time>
      </trkpt>
      <trkpt lat="42.42672" lon="2.33145">
        <ele>2420</ele>
        <time>2023-07-17T07:59:34.000Z</time>
      </trkpt>
      <trkpt lat="42.42671" lon="2.33139">
        <ele>2418.8000488281</ele>
        <time>2023-07-17T07:59:39.000Z</time>
      </trkpt>
      <trkpt lat="42.42671" lon="2.33137">
        <ele>2416.1999511719</ele>
        <time>2023-07-17T07:59:40.000Z</time>
      </trkpt>
      <trkpt lat="42.42671" lon="2.33128">
        <ele>2417</ele>
        <time>2023-07-17T07:59:47.000Z</time>
      </trkpt>
      <trkpt lat="42.42668" lon="2.33113">
        <ele>2417</ele>
        <time>2023-07-17T07:59:56.000Z</time>
      </trkpt>
      <trkpt lat="42.42669" lon="2.33104">
        <ele>2416.8000488281</ele>
        <time>2023-07-17T08:00:03.000Z</time>
      </trkpt>
      <trkpt lat="42.42669" lon="2.33103">
        <ele>2417.3999023438</ele>
        <time>2023-07-17T08:00:04.000Z</time>
      </trkpt>
      <trkpt lat="42.42671" lon="2.33094">
        <ele>2417</ele>
        <time>2023-07-17T08:00:12.000Z</time>
      </trkpt>
      <trkpt lat="42.4267" lon="2.33084">
        <ele>2416.1999511719</ele>
        <time>2023-07-17T08:00:19.000Z</time>
      </trkpt>
      <trkpt lat="42.42669" lon="2.33077">
        <ele>2415.6000976562</ele>
        <time>2023-07-17T08:00:24.000Z</time>
      </trkpt>
      <trkpt lat="42.42668" lon="2.33074">
        <ele>2416.3999023438</ele>
        <time>2023-07-17T08:00:32.000Z</time>
      </trkpt>
      <trkpt lat="42.42667" lon="2.33072">
        <ele>2416.8000488281</ele>
        <time>2023-07-17T08:00:34.000Z</time>
      </trkpt>
      <trkpt lat="42.42666" lon="2.33072">
        <ele>2417.1999511719</ele>
        <time>2023-07-17T08:00:35.000Z</time>
      </trkpt>
      <trkpt lat="42.42666" lon="2.33073">
        <ele>2418.3999023438</ele>
        <time>2023-07-17T08:00:39.000Z</time>
      </trkpt>
      <trkpt lat="42.42666" lon="2.33073">
        <ele>2418.3999023438</ele>
        <time>2023-07-17T08:00:40.000Z</time>
      </trkpt>
      <trkpt lat="42.4267" lon="2.33076">
        <ele>2418.1999511719</ele>
        <time>2023-07-17T08:00:48.000Z</time>
      </trkpt>
      <trkpt lat="42.4267" lon="2.33077">
        <ele>2417.3999023438</ele>
        <time>2023-07-17T08:00:54.000Z</time>
      </trkpt>
      <trkpt lat="42.4267" lon="2.33076">
        <ele>2417.1999511719</ele>
        <time>2023-07-17T08:00:56.000Z</time>
      </trkpt>
      <trkpt lat="42.4267" lon="2.33077">
        <ele>2417.8000488281</ele>
        <time>2023-07-17T08:01:04.000Z</time>
      </trkpt>
      <trkpt lat="42.42668" lon="2.33071">
        <ele>2417.6000976562</ele>
        <time>2023-07-17T08:01:08.000Z</time>
      </trkpt>
      <trkpt lat="42.42666" lon="2.33065">
        <ele>2416.1999511719</ele>
        <time>2023-07-17T08:01:13.000Z</time>
      </trkpt>
      <trkpt lat="42.42666" lon="2.3306">
        <ele>2416</ele>
        <time>2023-07-17T08:01:16.000Z</time>
      </trkpt>
      <trkpt lat="42.42663" lon="2.33046">
        <ele>2415.8000488281</ele>
        <time>2023-07-17T08:01:24.000Z</time>
      </trkpt>
      <trkpt lat="42.42663" lon="2.33041">
        <ele>2415</ele>
        <time>2023-07-17T08:01:27.000Z</time>
      </trkpt>
      <trkpt lat="42.42663" lon="2.33035">
        <ele>2414.1999511719</ele>
        <time>2023-07-17T08:01:31.000Z</time>
      </trkpt>
      <trkpt lat="42.42663" lon="2.33034">
        <ele>2414</ele>
        <time>2023-07-17T08:01:32.000Z</time>
      </trkpt>
      <trkpt lat="42.4266" lon="2.33026">
        <ele>2414.6000976562</ele>
        <time>2023-07-17T08:01:39.000Z</time>
      </trkpt>
      <trkpt lat="42.42657" lon="2.33013">
        <ele>2415.1999511719</ele>
        <time>2023-07-17T08:01:45.000Z</time>
      </trkpt>
      <trkpt lat="42.42656" lon="2.33012">
        <ele>2415.1999511719</ele>
        <time>2023-07-17T08:01:46.000Z</time>
      </trkpt>
      <trkpt lat="42.42654" lon="2.33">
        <ele>2413.8000488281</ele>
        <time>2023-07-17T08:01:54.000Z</time>
      </trkpt>
      <trkpt lat="42.42652" lon="2.32989">
        <ele>2413.3999023438</ele>
        <time>2023-07-17T08:02:02.000Z</time>
      </trkpt>
      <trkpt lat="42.42652" lon="2.32988">
        <ele>2412.3999023438</ele>
        <time>2023-07-17T08:02:03.000Z</time>
      </trkpt>
      <trkpt lat="42.42651" lon="2.32984">
        <ele>2411.1999511719</ele>
        <time>2023-07-17T08:02:06.000Z</time>
      </trkpt>
      <trkpt lat="42.42648" lon="2.32979">
        <ele>2411</ele>
        <time>2023-07-17T08:02:09.000Z</time>
      </trkpt>
      <trkpt lat="42.42647" lon="2.32974">
        <ele>2412.8000488281</ele>
        <time>2023-07-17T08:02:12.000Z</time>
      </trkpt>
      <trkpt lat="42.42645" lon="2.32968">
        <ele>2411.8000488281</ele>
        <time>2023-07-17T08:02:16.000Z</time>
      </trkpt>
      <trkpt lat="42.42645" lon="2.32967">
        <ele>2411.6000976562</ele>
        <time>2023-07-17T08:02:17.000Z</time>
      </trkpt>
      <trkpt lat="42.42641" lon="2.32958">
        <ele>2411.1999511719</ele>
        <time>2023-07-17T08:02:24.000Z</time>
      </trkpt>
      <trkpt lat="42.42639" lon="2.32944">
        <ele>2411.3999023438</ele>
        <time>2023-07-17T08:02:33.000Z</time>
      </trkpt>
      <trkpt lat="42.42637" lon="2.32932">
        <ele>2410</ele>
        <time>2023-07-17T08:02:40.000Z</time>
      </trkpt>
      <trkpt lat="42.42636" lon="2.3293">
        <ele>2409.3999023438</ele>
        <time>2023-07-17T08:02:42.000Z</time>
      </trkpt>
      <trkpt lat="42.42634" lon="2.32915">
        <ele>2409.1999511719</ele>
        <time>2023-07-17T08:02:52.000Z</time>
      </trkpt>
      <trkpt lat="42.42634" lon="2.32914">
        <ele>2408.6000976562</ele>
        <time>2023-07-17T08:02:53.000Z</time>
      </trkpt>
      <trkpt lat="42.42633" lon="2.32905">
        <ele>2409.8000488281</ele>
        <time>2023-07-17T08:02:59.000Z</time>
      </trkpt>
      <trkpt lat="42.42634" lon="2.32897">
        <ele>2408.6000976562</ele>
        <time>2023-07-17T08:03:04.000Z</time>
      </trkpt>
      <trkpt lat="42.42633" lon="2.32893">
        <ele>2408.6000976562</ele>
        <time>2023-07-17T08:03:07.000Z</time>
      </trkpt>
      <trkpt lat="42.42631" lon="2.32884">
        <ele>2409.8000488281</ele>
        <time>2023-07-17T08:03:12.000Z</time>
      </trkpt>
      <trkpt lat="42.4263" lon="2.32881">
        <ele>2410.1999511719</ele>
        <time>2023-07-17T08:03:15.000Z</time>
      </trkpt>
      <trkpt lat="42.42628" lon="2.32876">
        <ele>2411</ele>
        <time>2023-07-17T08:03:22.000Z</time>
      </trkpt>
      <trkpt lat="42.42627" lon="2.32875">
        <ele>2412</ele>
        <time>2023-07-17T08:03:23.000Z</time>
      </trkpt>
      <trkpt lat="42.42627" lon="2.32875">
        <ele>2413.6000976562</ele>
        <time>2023-07-17T08:03:24.000Z</time>
      </trkpt>
      <trkpt lat="42.42626" lon="2.32874">
        <ele>2414.6000976562</ele>
        <time>2023-07-17T08:03:26.000Z</time>
      </trkpt>
      <trkpt lat="42.42626" lon="2.32874">
        <ele>2416.6000976562</ele>
        <time>2023-07-17T08:03:28.000Z</time>
      </trkpt>
      <trkpt lat="42.42627" lon="2.32875">
        <ele>2416.6000976562</ele>
        <time>2023-07-17T08:03:31.000Z</time>
      </trkpt>
      <trkpt lat="42.42627" lon="2.32875">
        <ele>2414.1999511719</ele>
        <time>2023-07-17T08:03:32.000Z</time>
      </trkpt>
      <trkpt lat="42.42627" lon="2.32875">
        <ele>2412.1999511719</ele>
        <time>2023-07-17T08:03:33.000Z</time>
      </trkpt>
      <trkpt lat="42.42627" lon="2.32875">
        <ele>2408.6000976562</ele>
        <time>2023-07-17T08:03:34.000Z</time>
      </trkpt>
      <trkpt lat="42.42628" lon="2.32874">
        <ele>2407.1999511719</ele>
        <time>2023-07-17T08:03:35.000Z</time>
      </trkpt>
      <trkpt lat="42.42628" lon="2.32872">
        <ele>2406</ele>
        <time>2023-07-17T08:03:37.000Z</time>
      </trkpt>
      <trkpt lat="42.42628" lon="2.32871">
        <ele>2405.6000976562</ele>
        <time>2023-07-17T08:03:39.000Z</time>
      </trkpt>
      <trkpt lat="42.42627" lon="2.32863">
        <ele>2408.6000976562</ele>
        <time>2023-07-17T08:03:46.000Z</time>
      </trkpt>
      <trkpt lat="42.42627" lon="2.32862">
        <ele>2411</ele>
        <time>2023-07-17T08:03:47.000Z</time>
      </trkpt>
      <trkpt lat="42.42627" lon="2.3286">
        <ele>2413</ele>
        <time>2023-07-17T08:03:48.000Z</time>
      </trkpt>
      <trkpt lat="42.42624" lon="2.32848">
        <ele>2413.3999023438</ele>
        <time>2023-07-17T08:03:56.000Z</time>
      </trkpt>
      <trkpt lat="42.42623" lon="2.32839">
        <ele>2411.8000488281</ele>
        <time>2023-07-17T08:04:02.000Z</time>
      </trkpt>
      <trkpt lat="42.42622" lon="2.32835">
        <ele>2412.1999511719</ele>
        <time>2023-07-17T08:04:05.000Z</time>
      </trkpt>
      <trkpt lat="42.42619" lon="2.32825">
        <ele>2410.6000976562</ele>
        <time>2023-07-17T08:04:13.000Z</time>
      </trkpt>
      <trkpt lat="42.42618" lon="2.32823">
        <ele>2410</ele>
        <time>2023-07-17T08:04:14.000Z</time>
      </trkpt>
      <trkpt lat="42.42618" lon="2.3282">
        <ele>2409.3999023438</ele>
        <time>2023-07-17T08:04:17.000Z</time>
      </trkpt>
      <trkpt lat="42.42618" lon="2.32817">
        <ele>2408.6000976562</ele>
        <time>2023-07-17T08:04:20.000Z</time>
      </trkpt>
      <trkpt lat="42.42617" lon="2.32815">
        <ele>2408.8000488281</ele>
        <time>2023-07-17T08:04:22.000Z</time>
      </trkpt>
      <trkpt lat="42.42615" lon="2.32802">
        <ele>2408.8000488281</ele>
        <time>2023-07-17T08:04:32.000Z</time>
      </trkpt>
      <trkpt lat="42.42614" lon="2.32797">
        <ele>2410.3999023438</ele>
        <time>2023-07-17T08:04:36.000Z</time>
      </trkpt>
      <trkpt lat="42.42614" lon="2.32796">
        <ele>2412.1999511719</ele>
        <time>2023-07-17T08:04:37.000Z</time>
      </trkpt>
      <trkpt lat="42.42614" lon="2.32791">
        <ele>2413.3999023438</ele>
        <time>2023-07-17T08:04:40.000Z</time>
      </trkpt>
      <trkpt lat="42.42613" lon="2.32782">
        <ele>2414.6000976562</ele>
        <time>2023-07-17T08:04:45.000Z</time>
      </trkpt>
      <trkpt lat="42.42612" lon="2.32777">
        <ele>2415.1999511719</ele>
        <time>2023-07-17T08:04:48.000Z</time>
      </trkpt>
      <trkpt lat="42.42609" lon="2.32766">
        <ele>2415.6000976562</ele>
        <time>2023-07-17T08:04:56.000Z</time>
      </trkpt>
      <trkpt lat="42.4261" lon="2.32759">
        <ele>2416.8000488281</ele>
        <time>2023-07-17T08:05:01.000Z</time>
      </trkpt>
      <trkpt lat="42.4261" lon="2.32755">
        <ele>2418</ele>
        <time>2023-07-17T08:05:04.000Z</time>
      </trkpt>
      <trkpt lat="42.4261" lon="2.32752">
        <ele>2418</ele>
        <time>2023-07-17T08:05:06.000Z</time>
      </trkpt>
      <trkpt lat="42.4261" lon="2.32742">
        <ele>2419.1999511719</ele>
        <time>2023-07-17T08:05:12.000Z</time>
      </trkpt>
      <trkpt lat="42.42609" lon="2.32739">
        <ele>2420.1999511719</ele>
        <time>2023-07-17T08:05:14.000Z</time>
      </trkpt>
      <trkpt lat="42.42608" lon="2.32726">
        <ele>2420</ele>
        <time>2023-07-17T08:05:23.000Z</time>
      </trkpt>
      <trkpt lat="42.42607" lon="2.32721">
        <ele>2420.3999023438</ele>
        <time>2023-07-17T08:05:27.000Z</time>
      </trkpt>
      <trkpt lat="42.42608" lon="2.32716">
        <ele>2420.3999023438</ele>
        <time>2023-07-17T08:05:34.000Z</time>
      </trkpt>
      <trkpt lat="42.42608" lon="2.32716">
        <ele>2420.3999023438</ele>
        <time>2023-07-17T08:05:35.000Z</time>
      </trkpt>
      <trkpt lat="42.42612" lon="2.32713">
        <ele>2420.6000976562</ele>
        <time>2023-07-17T08:05:41.000Z</time>
      </trkpt>
      <trkpt lat="42.42619" lon="2.3271">
        <ele>2421</ele>
        <time>2023-07-17T08:05:48.000Z</time>
      </trkpt>
      <trkpt lat="42.42627" lon="2.32701">
        <ele>2420</ele>
        <time>2023-07-17T08:05:57.000Z</time>
      </trkpt>
      <trkpt lat="42.42629" lon="2.32695">
        <ele>2419.3999023438</ele>
        <time>2023-07-17T08:06:04.000Z</time>
      </trkpt>
      <trkpt lat="42.4263" lon="2.32694">
        <ele>2419.1999511719</ele>
        <time>2023-07-17T08:06:05.000Z</time>
      </trkpt>
      <trkpt lat="42.42632" lon="2.3269">
        <ele>2418.1999511719</ele>
        <time>2023-07-17T08:06:08.000Z</time>
      </trkpt>
      <trkpt lat="42.42633" lon="2.32687">
        <ele>2418</ele>
        <time>2023-07-17T08:06:11.000Z</time>
      </trkpt>
      <trkpt lat="42.42634" lon="2.32682">
        <ele>2418.6000976562</ele>
        <time>2023-07-17T08:06:17.000Z</time>
      </trkpt>
      <trkpt lat="42.42639" lon="2.32675">
        <ele>2419.1999511719</ele>
        <time>2023-07-17T08:06:24.000Z</time>
      </trkpt>
      <trkpt lat="42.42646" lon="2.32668">
        <ele>2418.3999023438</ele>
        <time>2023-07-17T08:06:33.000Z</time>
      </trkpt>
      <trkpt lat="42.42648" lon="2.32665">
        <ele>2417.1999511719</ele>
        <time>2023-07-17T08:06:36.000Z</time>
      </trkpt>
      <trkpt lat="42.42652" lon="2.32658">
        <ele>2416.3999023438</ele>
        <time>2023-07-17T08:06:41.000Z</time>
      </trkpt>
      <trkpt lat="42.42655" lon="2.32648">
        <ele>2416.8000488281</ele>
        <time>2023-07-17T08:06:48.000Z</time>
      </trkpt>
      <trkpt lat="42.4266" lon="2.32638">
        <ele>2417.1999511719</ele>
        <time>2023-07-17T08:06:56.000Z</time>
      </trkpt>
      <trkpt lat="42.42668" lon="2.3263">
        <ele>2417</ele>
        <time>2023-07-17T08:07:05.000Z</time>
      </trkpt>
      <trkpt lat="42.42675" lon="2.32621">
        <ele>2416.6000976562</ele>
        <time>2023-07-17T08:07:13.000Z</time>
      </trkpt>
      <trkpt lat="42.4268" lon="2.32611">
        <ele>2416.8000488281</ele>
        <time>2023-07-17T08:07:21.000Z</time>
      </trkpt>
      <trkpt lat="42.42687" lon="2.32597">
        <ele>2416</ele>
        <time>2023-07-17T08:07:31.000Z</time>
      </trkpt>
      <trkpt lat="42.42688" lon="2.32596">
        <ele>2416</ele>
        <time>2023-07-17T08:07:32.000Z</time>
      </trkpt>
      <trkpt lat="42.42694" lon="2.32585">
        <ele>2416.3999023438</ele>
        <time>2023-07-17T08:07:42.000Z</time>
      </trkpt>
      <trkpt lat="42.42697" lon="2.32578">
        <ele>2414.8000488281</ele>
        <time>2023-07-17T08:07:46.000Z</time>
      </trkpt>
      <trkpt lat="42.42699" lon="2.32573">
        <ele>2414.6000976562</ele>
        <time>2023-07-17T08:07:49.000Z</time>
      </trkpt>
      <trkpt lat="42.42705" lon="2.32564">
        <ele>2415</ele>
        <time>2023-07-17T08:07:57.000Z</time>
      </trkpt>
      <trkpt lat="42.42706" lon="2.32559">
        <ele>2413.1999511719</ele>
        <time>2023-07-17T08:08:01.000Z</time>
      </trkpt>
      <trkpt lat="42.4271" lon="2.32549">
        <ele>2412.3999023438</ele>
        <time>2023-07-17T08:08:07.000Z</time>
      </trkpt>
      <trkpt lat="42.42715" lon="2.32536">
        <ele>2412.6000976562</ele>
        <time>2023-07-17T08:08:18.000Z</time>
      </trkpt>
      <trkpt lat="42.42718" lon="2.32522">
        <ele>2412.8000488281</ele>
        <time>2023-07-17T08:08:27.000Z</time>
      </trkpt>
      <trkpt lat="42.4272" lon="2.32513">
        <ele>2412.3999023438</ele>
        <time>2023-07-17T08:08:34.000Z</time>
      </trkpt>
      <trkpt lat="42.42725" lon="2.32507">
        <ele>2413.6000976562</ele>
        <time>2023-07-17T08:08:42.000Z</time>
      </trkpt>
      <trkpt lat="42.42734" lon="2.32496">
        <ele>2412</ele>
        <time>2023-07-17T08:08:50.000Z</time>
      </trkpt>
      <trkpt lat="42.42735" lon="2.32483">
        <ele>2412.3999023438</ele>
        <time>2023-07-17T08:08:59.000Z</time>
      </trkpt>
      <trkpt lat="42.42736" lon="2.32474">
        <ele>2413</ele>
        <time>2023-07-17T08:09:04.000Z</time>
      </trkpt>
      <trkpt lat="42.42737" lon="2.32462">
        <ele>2414</ele>
        <time>2023-07-17T08:09:11.000Z</time>
      </trkpt>
      <trkpt lat="42.42741" lon="2.32455">
        <ele>2415.6000976562</ele>
        <time>2023-07-17T08:09:16.000Z</time>
      </trkpt>
      <trkpt lat="42.42744" lon="2.32451">
        <ele>2416.3999023438</ele>
        <time>2023-07-17T08:09:19.000Z</time>
      </trkpt>
      <trkpt lat="42.42745" lon="2.32449">
        <ele>2416.6000976562</ele>
        <time>2023-07-17T08:09:21.000Z</time>
      </trkpt>
      <trkpt lat="42.42749" lon="2.32443">
        <ele>2417.1999511719</ele>
        <time>2023-07-17T08:09:27.000Z</time>
      </trkpt>
      <trkpt lat="42.42755" lon="2.3243">
        <ele>2417</ele>
        <time>2023-07-17T08:09:36.000Z</time>
      </trkpt>
      <trkpt lat="42.42757" lon="2.32419">
        <ele>2415.8000488281</ele>
        <time>2023-07-17T08:09:43.000Z</time>
      </trkpt>
      <trkpt lat="42.42757" lon="2.32414">
        <ele>2415.6000976562</ele>
        <time>2023-07-17T08:09:47.000Z</time>
      </trkpt>
      <trkpt lat="42.42758" lon="2.32405">
        <ele>2414.6000976562</ele>
        <time>2023-07-17T08:09:53.000Z</time>
      </trkpt>
      <trkpt lat="42.42762" lon="2.32393">
        <ele>2415.6000976562</ele>
        <time>2023-07-17T08:10:01.000Z</time>
      </trkpt>
      <trkpt lat="42.42769" lon="2.3238">
        <ele>2416.3999023438</ele>
        <time>2023-07-17T08:10:11.000Z</time>
      </trkpt>
      <trkpt lat="42.4277" lon="2.32375">
        <ele>2416.1999511719</ele>
        <time>2023-07-17T08:10:14.000Z</time>
      </trkpt>
      <trkpt lat="42.4277" lon="2.32369">
        <ele>2415.6000976562</ele>
        <time>2023-07-17T08:10:18.000Z</time>
      </trkpt>
      <trkpt lat="42.42774" lon="2.32359">
        <ele>2415.3999023438</ele>
        <time>2023-07-17T08:10:26.000Z</time>
      </trkpt>
      <trkpt lat="42.42776" lon="2.32349">
        <ele>2415.3999023438</ele>
        <time>2023-07-17T08:10:33.000Z</time>
      </trkpt>
      <trkpt lat="42.4278" lon="2.3233">
        <ele>2415.1999511719</ele>
        <time>2023-07-17T08:10:44.000Z</time>
      </trkpt>
      <trkpt lat="42.42784" lon="2.3232">
        <ele>2414.6000976562</ele>
        <time>2023-07-17T08:10:52.000Z</time>
      </trkpt>
      <trkpt lat="42.42785" lon="2.32319">
        <ele>2414.6000976562</ele>
        <time>2023-07-17T08:10:53.000Z</time>
      </trkpt>
      <trkpt lat="42.42788" lon="2.32307">
        <ele>2414.8000488281</ele>
        <time>2023-07-17T08:11:01.000Z</time>
      </trkpt>
      <trkpt lat="42.4279" lon="2.32293">
        <ele>2415.1999511719</ele>
        <time>2023-07-17T08:11:10.000Z</time>
      </trkpt>
      <trkpt lat="42.42792" lon="2.32276">
        <ele>2415.3999023438</ele>
        <time>2023-07-17T08:11:20.000Z</time>
      </trkpt>
      <trkpt lat="42.42794" lon="2.32262">
        <ele>2415</ele>
        <time>2023-07-17T08:11:30.000Z</time>
      </trkpt>
      <trkpt lat="42.42798" lon="2.32249">
        <ele>2414.1999511719</ele>
        <time>2023-07-17T08:11:39.000Z</time>
      </trkpt>
      <trkpt lat="42.42799" lon="2.32244">
        <ele>2413.6000976562</ele>
        <time>2023-07-17T08:11:43.000Z</time>
      </trkpt>
      <trkpt lat="42.42801" lon="2.32234">
        <ele>2414</ele>
        <time>2023-07-17T08:11:50.000Z</time>
      </trkpt>
      <trkpt lat="42.42801" lon="2.32217">
        <ele>2414</ele>
        <time>2023-07-17T08:11:58.000Z</time>
      </trkpt>
      <trkpt lat="42.42797" lon="2.32202">
        <ele>2414.1999511719</ele>
        <time>2023-07-17T08:12:08.000Z</time>
      </trkpt>
      <trkpt lat="42.42799" lon="2.3219">
        <ele>2414.6000976562</ele>
        <time>2023-07-17T08:12:15.000Z</time>
      </trkpt>
      <trkpt lat="42.42804" lon="2.32175">
        <ele>2414.1999511719</ele>
        <time>2023-07-17T08:12:24.000Z</time>
      </trkpt>
      <trkpt lat="42.42808" lon="2.32161">
        <ele>2414</ele>
        <time>2023-07-17T08:12:32.000Z</time>
      </trkpt>
      <trkpt lat="42.42813" lon="2.32147">
        <ele>2413</ele>
        <time>2023-07-17T08:12:41.000Z</time>
      </trkpt>
      <trkpt lat="42.42814" lon="2.32144">
        <ele>2412.1999511719</ele>
        <time>2023-07-17T08:12:43.000Z</time>
      </trkpt>
      <trkpt lat="42.42818" lon="2.32131">
        <ele>2411.8000488281</ele>
        <time>2023-07-17T08:12:51.000Z</time>
      </trkpt>
      <trkpt lat="42.42821" lon="2.32119">
        <ele>2412.3999023438</ele>
        <time>2023-07-17T08:12:59.000Z</time>
      </trkpt>
      <trkpt lat="42.42821" lon="2.321">
        <ele>2412.3999023438</ele>
        <time>2023-07-17T08:13:09.000Z</time>
      </trkpt>
      <trkpt lat="42.42821" lon="2.32092">
        <ele>2411.1999511719</ele>
        <time>2023-07-17T08:13:15.000Z</time>
      </trkpt>
      <trkpt lat="42.42821" lon="2.32086">
        <ele>2410.8000488281</ele>
        <time>2023-07-17T08:13:19.000Z</time>
      </trkpt>
      <trkpt lat="42.42821" lon="2.32077">
        <ele>2412.3999023438</ele>
        <time>2023-07-17T08:13:24.000Z</time>
      </trkpt>
      <trkpt lat="42.42821" lon="2.32072">
        <ele>2412.8000488281</ele>
        <time>2023-07-17T08:13:27.000Z</time>
      </trkpt>
      <trkpt lat="42.4282" lon="2.32066">
        <ele>2411.1999511719</ele>
        <time>2023-07-17T08:13:31.000Z</time>
      </trkpt>
      <trkpt lat="42.4282" lon="2.32064">
        <ele>2409.6000976562</ele>
        <time>2023-07-17T08:13:32.000Z</time>
      </trkpt>
      <trkpt lat="42.4282" lon="2.32059">
        <ele>2409.6000976562</ele>
        <time>2023-07-17T08:13:35.000Z</time>
      </trkpt>
      <trkpt lat="42.4282" lon="2.32047">
        <ele>2410.1999511719</ele>
        <time>2023-07-17T08:13:42.000Z</time>
      </trkpt>
      <trkpt lat="42.42822" lon="2.32035">
        <ele>2410.6000976562</ele>
        <time>2023-07-17T08:13:49.000Z</time>
      </trkpt>
      <trkpt lat="42.42822" lon="2.32034">
        <ele>2410.8000488281</ele>
        <time>2023-07-17T08:13:50.000Z</time>
      </trkpt>
      <trkpt lat="42.42823" lon="2.32019">
        <ele>2410.8000488281</ele>
        <time>2023-07-17T08:13:59.000Z</time>
      </trkpt>
      <trkpt lat="42.42824" lon="2.32004">
        <ele>2410.8000488281</ele>
        <time>2023-07-17T08:14:08.000Z</time>
      </trkpt>
      <trkpt lat="42.42825" lon="2.31987">
        <ele>2412</ele>
        <time>2023-07-17T08:14:17.000Z</time>
      </trkpt>
      <trkpt lat="42.42826" lon="2.31971">
        <ele>2412.3999023438</ele>
        <time>2023-07-17T08:14:27.000Z</time>
      </trkpt>
      <trkpt lat="42.42827" lon="2.31957">
        <ele>2410.8000488281</ele>
        <time>2023-07-17T08:14:36.000Z</time>
      </trkpt>
      <trkpt lat="42.42828" lon="2.31954">
        <ele>2410</ele>
        <time>2023-07-17T08:14:38.000Z</time>
      </trkpt>
      <trkpt lat="42.42828" lon="2.31948">
        <ele>2409.8000488281</ele>
        <time>2023-07-17T08:14:42.000Z</time>
      </trkpt>
      <trkpt lat="42.42829" lon="2.31943">
        <ele>2408.8000488281</ele>
        <time>2023-07-17T08:14:45.000Z</time>
      </trkpt>
      <trkpt lat="42.4283" lon="2.31942">
        <ele>2408.3999023438</ele>
        <time>2023-07-17T08:14:46.000Z</time>
      </trkpt>
      <trkpt lat="42.42831" lon="2.31932">
        <ele>2407</ele>
        <time>2023-07-17T08:14:52.000Z</time>
      </trkpt>
      <trkpt lat="42.42831" lon="2.31924">
        <ele>2406.8000488281</ele>
        <time>2023-07-17T08:14:56.000Z</time>
      </trkpt>
      <trkpt lat="42.4283" lon="2.31914">
        <ele>2408.1999511719</ele>
        <time>2023-07-17T08:15:01.000Z</time>
      </trkpt>
      <trkpt lat="42.42831" lon="2.3191">
        <ele>2409.3999023438</ele>
        <time>2023-07-17T08:15:04.000Z</time>
      </trkpt>
      <trkpt lat="42.42832" lon="2.31899">
        <ele>2408.1999511719</ele>
        <time>2023-07-17T08:15:10.000Z</time>
      </trkpt>
      <trkpt lat="42.42832" lon="2.31896">
        <ele>2408.1999511719</ele>
        <time>2023-07-17T08:15:12.000Z</time>
      </trkpt>
      <trkpt lat="42.42833" lon="2.31884">
        <ele>2407.8000488281</ele>
        <time>2023-07-17T08:15:20.000Z</time>
      </trkpt>
      <trkpt lat="42.42833" lon="2.31878">
        <ele>2407.1999511719</ele>
        <time>2023-07-17T08:15:24.000Z</time>
      </trkpt>
      <trkpt lat="42.42833" lon="2.31874">
        <ele>2406</ele>
        <time>2023-07-17T08:15:27.000Z</time>
      </trkpt>
      <trkpt lat="42.42834" lon="2.31873">
        <ele>2405.8000488281</ele>
        <time>2023-07-17T08:15:28.000Z</time>
      </trkpt>
      <trkpt lat="42.42835" lon="2.31862">
        <ele>2405</ele>
        <time>2023-07-17T08:15:34.000Z</time>
      </trkpt>
      <trkpt lat="42.42837" lon="2.31848">
        <ele>2406.3999023438</ele>
        <time>2023-07-17T08:15:41.000Z</time>
      </trkpt>
      <trkpt lat="42.42836" lon="2.31845">
        <ele>2407</ele>
        <time>2023-07-17T08:15:43.000Z</time>
      </trkpt>
      <trkpt lat="42.42833" lon="2.31834">
        <ele>2407</ele>
        <time>2023-07-17T08:15:51.000Z</time>
      </trkpt>
      <trkpt lat="42.42833" lon="2.31821">
        <ele>2406.1999511719</ele>
        <time>2023-07-17T08:16:00.000Z</time>
      </trkpt>
      <trkpt lat="42.42834" lon="2.31821">
        <ele>2406</ele>
        <time>2023-07-17T08:16:01.000Z</time>
      </trkpt>
      <trkpt lat="42.42834" lon="2.31808">
        <ele>2405</ele>
        <time>2023-07-17T08:16:07.000Z</time>
      </trkpt>
      <trkpt lat="42.42834" lon="2.31807">
        <ele>2405</ele>
        <time>2023-07-17T08:16:08.000Z</time>
      </trkpt>
      <trkpt lat="42.42833" lon="2.31792">
        <ele>2405.6000976562</ele>
        <time>2023-07-17T08:16:18.000Z</time>
      </trkpt>
      <trkpt lat="42.42832" lon="2.31782">
        <ele>2403.8000488281</ele>
        <time>2023-07-17T08:16:24.000Z</time>
      </trkpt>
      <trkpt lat="42.42832" lon="2.31776">
        <ele>2403.6000976562</ele>
        <time>2023-07-17T08:16:29.000Z</time>
      </trkpt>
      <trkpt lat="42.42832" lon="2.31758">
        <ele>2403.1999511719</ele>
        <time>2023-07-17T08:16:39.000Z</time>
      </trkpt>
      <trkpt lat="42.42833" lon="2.31745">
        <ele>2403.6000976562</ele>
        <time>2023-07-17T08:16:48.000Z</time>
      </trkpt>
      <trkpt lat="42.42833" lon="2.31742">
        <ele>2402</ele>
        <time>2023-07-17T08:16:51.000Z</time>
      </trkpt>
      <trkpt lat="42.42832" lon="2.31736">
        <ele>2401.1999511719</ele>
        <time>2023-07-17T08:16:55.000Z</time>
      </trkpt>
      <trkpt lat="42.42833" lon="2.31733">
        <ele>2401</ele>
        <time>2023-07-17T08:16:57.000Z</time>
      </trkpt>
      <trkpt lat="42.42835" lon="2.31725">
        <ele>2400.1999511719</ele>
        <time>2023-07-17T08:17:03.000Z</time>
      </trkpt>
      <trkpt lat="42.42835" lon="2.31721">
        <ele>2399.8000488281</ele>
        <time>2023-07-17T08:17:05.000Z</time>
      </trkpt>
      <trkpt lat="42.42836" lon="2.31708">
        <ele>2399</ele>
        <time>2023-07-17T08:17:12.000Z</time>
      </trkpt>
      <trkpt lat="42.42836" lon="2.317">
        <ele>2398.8000488281</ele>
        <time>2023-07-17T08:17:17.000Z</time>
      </trkpt>
      <trkpt lat="42.42836" lon="2.31696">
        <ele>2398.8000488281</ele>
        <time>2023-07-17T08:17:20.000Z</time>
      </trkpt>
      <trkpt lat="42.42836" lon="2.31682">
        <ele>2398</ele>
        <time>2023-07-17T08:17:30.000Z</time>
      </trkpt>
      <trkpt lat="42.42836" lon="2.31681">
        <ele>2399</ele>
        <time>2023-07-17T08:17:35.000Z</time>
      </trkpt>
      <trkpt lat="42.42836" lon="2.3168">
        <ele>2399.3999023438</ele>
        <time>2023-07-17T08:17:38.000Z</time>
      </trkpt>
      <trkpt lat="42.42836" lon="2.31679">
        <ele>2399.6000976562</ele>
        <time>2023-07-17T08:17:39.000Z</time>
      </trkpt>
      <trkpt lat="42.42836" lon="2.31678">
        <ele>2399.8000488281</ele>
        <time>2023-07-17T08:17:41.000Z</time>
      </trkpt>
      <trkpt lat="42.42836" lon="2.31679">
        <ele>2399.3999023438</ele>
        <time>2023-07-17T08:17:46.000Z</time>
      </trkpt>
      <trkpt lat="42.42837" lon="2.31679">
        <ele>2399.6000976562</ele>
        <time>2023-07-17T08:17:55.000Z</time>
      </trkpt>
      <trkpt lat="42.42835" lon="2.31678">
        <ele>2399.8000488281</ele>
        <time>2023-07-17T08:18:05.000Z</time>
      </trkpt>
      <trkpt lat="42.42835" lon="2.31677">
        <ele>2399.3999023438</ele>
        <time>2023-07-17T08:18:15.000Z</time>
      </trkpt>
      <trkpt lat="42.42837" lon="2.31678">
        <ele>2401.3999023438</ele>
        <time>2023-07-17T08:18:30.000Z</time>
      </trkpt>
      <trkpt lat="42.42836" lon="2.31679">
        <ele>2400.8000488281</ele>
        <time>2023-07-17T08:18:40.000Z</time>
      </trkpt>
      <trkpt lat="42.42836" lon="2.31681">
        <ele>2400.3999023438</ele>
        <time>2023-07-17T08:18:47.000Z</time>
      </trkpt>
      <trkpt lat="42.42835" lon="2.3168">
        <ele>2400.1999511719</ele>
        <time>2023-07-17T08:18:48.000Z</time>
      </trkpt>
      <trkpt lat="42.42835" lon="2.3168">
        <ele>2401.3999023438</ele>
        <time>2023-07-17T08:18:54.000Z</time>
      </trkpt>
      <trkpt lat="42.42836" lon="2.3168">
        <ele>2402.6000976562</ele>
        <time>2023-07-17T08:18:55.000Z</time>
      </trkpt>
      <trkpt lat="42.42836" lon="2.3168">
        <ele>2404.1999511719</ele>
        <time>2023-07-17T08:18:56.000Z</time>
      </trkpt>
      <trkpt lat="42.42835" lon="2.31681">
        <ele>2403.1999511719</ele>
        <time>2023-07-17T08:19:02.000Z</time>
      </trkpt>
      <trkpt lat="42.42835" lon="2.31681">
        <ele>2402.8000488281</ele>
        <time>2023-07-17T08:19:03.000Z</time>
      </trkpt>
      <trkpt lat="42.42836" lon="2.3168">
        <ele>2403</ele>
        <time>2023-07-17T08:19:08.000Z</time>
      </trkpt>
      <trkpt lat="42.42837" lon="2.3168">
        <ele>2404.6000976562</ele>
        <time>2023-07-17T08:19:12.000Z</time>
      </trkpt>
      <trkpt lat="42.42838" lon="2.3168">
        <ele>2404.6000976562</ele>
        <time>2023-07-17T08:19:14.000Z</time>
      </trkpt>
      <trkpt lat="42.42837" lon="2.31682">
        <ele>2407.3999023438</ele>
        <time>2023-07-17T08:19:20.000Z</time>
      </trkpt>
      <trkpt lat="42.42836" lon="2.31682">
        <ele>2411.1999511719</ele>
        <time>2023-07-17T08:19:21.000Z</time>
      </trkpt>
      <trkpt lat="42.42837" lon="2.31681">
        <ele>2411</ele>
        <time>2023-07-17T08:19:22.000Z</time>
      </trkpt>
      <trkpt lat="42.42837" lon="2.3168">
        <ele>2409.1999511719</ele>
        <time>2023-07-17T08:19:27.000Z</time>
      </trkpt>
      <trkpt lat="42.42837" lon="2.3168">
        <ele>2408.1999511719</ele>
        <time>2023-07-17T08:19:30.000Z</time>
      </trkpt>
      <trkpt lat="42.42837" lon="2.31679">
        <ele>2407.8000488281</ele>
        <time>2023-07-17T08:19:31.000Z</time>
      </trkpt>
      <trkpt lat="42.42836" lon="2.31678">
        <ele>2406.8000488281</ele>
        <time>2023-07-17T08:19:35.000Z</time>
      </trkpt>
      <trkpt lat="42.42836" lon="2.31677">
        <ele>2406.8000488281</ele>
        <time>2023-07-17T08:19:36.000Z</time>
      </trkpt>
      <trkpt lat="42.42836" lon="2.31676">
        <ele>2407.8000488281</ele>
        <time>2023-07-17T08:19:37.000Z</time>
      </trkpt>
      <trkpt lat="42.42837" lon="2.31674">
        <ele>2405.8000488281</ele>
        <time>2023-07-17T08:19:41.000Z</time>
      </trkpt>
      <trkpt lat="42.42836" lon="2.31674">
        <ele>2405.1999511719</ele>
        <time>2023-07-17T08:19:42.000Z</time>
      </trkpt>
      <trkpt lat="42.42836" lon="2.31674">
        <ele>2404.1999511719</ele>
        <time>2023-07-17T08:19:43.000Z</time>
      </trkpt>
      <trkpt lat="42.42835" lon="2.31674">
        <ele>2400.8000488281</ele>
        <time>2023-07-17T08:19:45.000Z</time>
      </trkpt>
      <trkpt lat="42.42835" lon="2.31674">
        <ele>2397.8000488281</ele>
        <time>2023-07-17T08:19:46.000Z</time>
      </trkpt>
      <trkpt lat="42.42835" lon="2.31673">
        <ele>2398.8000488281</ele>
        <time>2023-07-17T08:19:50.000Z</time>
      </trkpt>
      <trkpt lat="42.42835" lon="2.31672">
        <ele>2400.3999023438</ele>
        <time>2023-07-17T08:19:51.000Z</time>
      </trkpt>
      <trkpt lat="42.42835" lon="2.31672">
        <ele>2401.6000976562</ele>
        <time>2023-07-17T08:19:52.000Z</time>
      </trkpt>
      <trkpt lat="42.42835" lon="2.31672">
        <ele>2403.1999511719</ele>
        <time>2023-07-17T08:19:53.000Z</time>
      </trkpt>
      <trkpt lat="42.42835" lon="2.31669">
        <ele>2403.1999511719</ele>
        <time>2023-07-17T08:19:56.000Z</time>
      </trkpt>
      <trkpt lat="42.42835" lon="2.31669">
        <ele>2397.3999023438</ele>
        <time>2023-07-17T08:19:57.000Z</time>
      </trkpt>
      <trkpt lat="42.42835" lon="2.31667">
        <ele>2392.8000488281</ele>
        <time>2023-07-17T08:19:58.000Z</time>
      </trkpt>
      <trkpt lat="42.42835" lon="2.31659">
        <ele>2394.3999023438</ele>
        <time>2023-07-17T08:20:03.000Z</time>
      </trkpt>
      <trkpt lat="42.42834" lon="2.31658">
        <ele>2399</ele>
        <time>2023-07-17T08:20:04.000Z</time>
      </trkpt>
      <trkpt lat="42.42834" lon="2.31656">
        <ele>2402.8000488281</ele>
        <time>2023-07-17T08:20:05.000Z</time>
      </trkpt>
      <trkpt lat="42.42834" lon="2.31655">
        <ele>2405.1999511719</ele>
        <time>2023-07-17T08:20:06.000Z</time>
      </trkpt>
      <trkpt lat="42.42833" lon="2.31652">
        <ele>2406.6000976562</ele>
        <time>2023-07-17T08:20:08.000Z</time>
      </trkpt>
      <trkpt lat="42.42832" lon="2.31647">
        <ele>2403.8000488281</ele>
        <time>2023-07-17T08:20:12.000Z</time>
      </trkpt>
      <trkpt lat="42.42832" lon="2.31645">
        <ele>2401.6000976562</ele>
        <time>2023-07-17T08:20:13.000Z</time>
      </trkpt>
      <trkpt lat="42.42832" lon="2.31643">
        <ele>2401</ele>
        <time>2023-07-17T08:20:14.000Z</time>
      </trkpt>
      <trkpt lat="42.42832" lon="2.31639">
        <ele>2400</ele>
        <time>2023-07-17T08:20:17.000Z</time>
      </trkpt>
      <trkpt lat="42.42832" lon="2.31635">
        <ele>2398</ele>
        <time>2023-07-17T08:20:20.000Z</time>
      </trkpt>
      <trkpt lat="42.42832" lon="2.31633">
        <ele>2394.6000976562</ele>
        <time>2023-07-17T08:20:21.000Z</time>
      </trkpt>
      <trkpt lat="42.42832" lon="2.31632">
        <ele>2392.1999511719</ele>
        <time>2023-07-17T08:20:22.000Z</time>
      </trkpt>
      <trkpt lat="42.42831" lon="2.31623">
        <ele>2394.8000488281</ele>
        <time>2023-07-17T08:20:27.000Z</time>
      </trkpt>
      <trkpt lat="42.42831" lon="2.31622">
        <ele>2398.8000488281</ele>
        <time>2023-07-17T08:20:28.000Z</time>
      </trkpt>
      <trkpt lat="42.42831" lon="2.3162">
        <ele>2400.3999023438</ele>
        <time>2023-07-17T08:20:29.000Z</time>
      </trkpt>
      <trkpt lat="42.42831" lon="2.31618">
        <ele>2402</ele>
        <time>2023-07-17T08:20:30.000Z</time>
      </trkpt>
      <trkpt lat="42.42831" lon="2.31616">
        <ele>2404.3999023438</ele>
        <time>2023-07-17T08:20:31.000Z</time>
      </trkpt>
      <trkpt lat="42.42831" lon="2.3161">
        <ele>2402.8000488281</ele>
        <time>2023-07-17T08:20:35.000Z</time>
      </trkpt>
      <trkpt lat="42.42831" lon="2.31609">
        <ele>2400</ele>
        <time>2023-07-17T08:20:36.000Z</time>
      </trkpt>
      <trkpt lat="42.42831" lon="2.31607">
        <ele>2397.8000488281</ele>
        <time>2023-07-17T08:20:37.000Z</time>
      </trkpt>
      <trkpt lat="42.42831" lon="2.31606">
        <ele>2396.6000976562</ele>
        <time>2023-07-17T08:20:38.000Z</time>
      </trkpt>
      <trkpt lat="42.42829" lon="2.31596">
        <ele>2395.6000976562</ele>
        <time>2023-07-17T08:20:44.000Z</time>
      </trkpt>
      <trkpt lat="42.42829" lon="2.31588">
        <ele>2395.3999023438</ele>
        <time>2023-07-17T08:20:49.000Z</time>
      </trkpt>
      <trkpt lat="42.42829" lon="2.31585">
        <ele>2393.1999511719</ele>
        <time>2023-07-17T08:20:51.000Z</time>
      </trkpt>
      <trkpt lat="42.4283" lon="2.31582">
        <ele>2393.1999511719</ele>
        <time>2023-07-17T08:20:53.000Z</time>
      </trkpt>
      <trkpt lat="42.42829" lon="2.31575">
        <ele>2395.1999511719</ele>
        <time>2023-07-17T08:20:58.000Z</time>
      </trkpt>
      <trkpt lat="42.42829" lon="2.31574">
        <ele>2396.1999511719</ele>
        <time>2023-07-17T08:20:59.000Z</time>
      </trkpt>
      <trkpt lat="42.42829" lon="2.31573">
        <ele>2396.6000976562</ele>
        <time>2023-07-17T08:21:00.000Z</time>
      </trkpt>
      <trkpt lat="42.42829" lon="2.31562">
        <ele>2395.1999511719</ele>
        <time>2023-07-17T08:21:08.000Z</time>
      </trkpt>
      <trkpt lat="42.42829" lon="2.31551">
        <ele>2394.8000488281</ele>
        <time>2023-07-17T08:21:15.000Z</time>
      </trkpt>
      <trkpt lat="42.4283" lon="2.31546">
        <ele>2393.3999023438</ele>
        <time>2023-07-17T08:21:18.000Z</time>
      </trkpt>
      <trkpt lat="42.4283" lon="2.31544">
        <ele>2392.1999511719</ele>
        <time>2023-07-17T08:21:19.000Z</time>
      </trkpt>
      <trkpt lat="42.4283" lon="2.31541">
        <ele>2391</ele>
        <time>2023-07-17T08:21:21.000Z</time>
      </trkpt>
      <trkpt lat="42.42831" lon="2.31538">
        <ele>2390.8000488281</ele>
        <time>2023-07-17T08:21:23.000Z</time>
      </trkpt>
      <trkpt lat="42.42832" lon="2.31532">
        <ele>2393.6000976562</ele>
        <time>2023-07-17T08:21:27.000Z</time>
      </trkpt>
      <trkpt lat="42.4283" lon="2.31521">
        <ele>2392.1999511719</ele>
        <time>2023-07-17T08:21:33.000Z</time>
      </trkpt>
      <trkpt lat="42.42829" lon="2.31508">
        <ele>2392</ele>
        <time>2023-07-17T08:21:41.000Z</time>
      </trkpt>
      <trkpt lat="42.4283" lon="2.31498">
        <ele>2391.1999511719</ele>
        <time>2023-07-17T08:21:49.000Z</time>
      </trkpt>
      <trkpt lat="42.42831" lon="2.31496">
        <ele>2391.1999511719</ele>
        <time>2023-07-17T08:21:50.000Z</time>
      </trkpt>
      <trkpt lat="42.4283" lon="2.31488">
        <ele>2394.8000488281</ele>
        <time>2023-07-17T08:21:55.000Z</time>
      </trkpt>
      <trkpt lat="42.4283" lon="2.31487">
        <ele>2396.8000488281</ele>
        <time>2023-07-17T08:21:56.000Z</time>
      </trkpt>
      <trkpt lat="42.4283" lon="2.31484">
        <ele>2397.6000976562</ele>
        <time>2023-07-17T08:21:58.000Z</time>
      </trkpt>
      <trkpt lat="42.4283" lon="2.31483">
        <ele>2398.3999023438</ele>
        <time>2023-07-17T08:21:59.000Z</time>
      </trkpt>
      <trkpt lat="42.4283" lon="2.31481">
        <ele>2400</ele>
        <time>2023-07-17T08:22:00.000Z</time>
      </trkpt>
      <trkpt lat="42.4283" lon="2.3148">
        <ele>2401.3999023438</ele>
        <time>2023-07-17T08:22:01.000Z</time>
      </trkpt>
      <trkpt lat="42.4283" lon="2.31473">
        <ele>2402.3999023438</ele>
        <time>2023-07-17T08:22:05.000Z</time>
      </trkpt>
      <trkpt lat="42.42829" lon="2.31472">
        <ele>2402.3999023438</ele>
        <time>2023-07-17T08:22:06.000Z</time>
      </trkpt>
      <trkpt lat="42.42829" lon="2.31463">
        <ele>2402.1999511719</ele>
        <time>2023-07-17T08:22:11.000Z</time>
      </trkpt>
      <trkpt lat="42.42829" lon="2.3146">
        <ele>2401.3999023438</ele>
        <time>2023-07-17T08:22:13.000Z</time>
      </trkpt>
      <trkpt lat="42.4283" lon="2.31458">
        <ele>2400.1999511719</ele>
        <time>2023-07-17T08:22:14.000Z</time>
      </trkpt>
      <trkpt lat="42.4283" lon="2.31457">
        <ele>2398</ele>
        <time>2023-07-17T08:22:15.000Z</time>
      </trkpt>
      <trkpt lat="42.42831" lon="2.31454">
        <ele>2396.3999023438</ele>
        <time>2023-07-17T08:22:17.000Z</time>
      </trkpt>
      <trkpt lat="42.42832" lon="2.31446">
        <ele>2398.1999511719</ele>
        <time>2023-07-17T08:22:22.000Z</time>
      </trkpt>
      <trkpt lat="42.42832" lon="2.31444">
        <ele>2399.6000976562</ele>
        <time>2023-07-17T08:22:23.000Z</time>
      </trkpt>
      <trkpt lat="42.42831" lon="2.31439">
        <ele>2400.6000976562</ele>
        <time>2023-07-17T08:22:26.000Z</time>
      </trkpt>
      <trkpt lat="42.42831" lon="2.3143">
        <ele>2399.6000976562</ele>
        <time>2023-07-17T08:22:31.000Z</time>
      </trkpt>
      <trkpt lat="42.42831" lon="2.31427">
        <ele>2398.6000976562</ele>
        <time>2023-07-17T08:22:33.000Z</time>
      </trkpt>
      <trkpt lat="42.42831" lon="2.31422">
        <ele>2396.8000488281</ele>
        <time>2023-07-17T08:22:35.000Z</time>
      </trkpt>
      <trkpt lat="42.42831" lon="2.3142">
        <ele>2395.1999511719</ele>
        <time>2023-07-17T08:22:36.000Z</time>
      </trkpt>
      <trkpt lat="42.4283" lon="2.31418">
        <ele>2393.6000976562</ele>
        <time>2023-07-17T08:22:37.000Z</time>
      </trkpt>
      <trkpt lat="42.4283" lon="2.31417">
        <ele>2392.3999023438</ele>
        <time>2023-07-17T08:22:38.000Z</time>
      </trkpt>
      <trkpt lat="42.4283" lon="2.31411">
        <ele>2392</ele>
        <time>2023-07-17T08:22:41.000Z</time>
      </trkpt>
      <trkpt lat="42.4283" lon="2.31408">
        <ele>2388.6000976562</ele>
        <time>2023-07-17T08:22:43.000Z</time>
      </trkpt>
      <trkpt lat="42.4283" lon="2.31406">
        <ele>2384</ele>
        <time>2023-07-17T08:22:44.000Z</time>
      </trkpt>
      <trkpt lat="42.4283" lon="2.31404">
        <ele>2382.8000488281</ele>
        <time>2023-07-17T08:22:45.000Z</time>
      </trkpt>
      <trkpt lat="42.4283" lon="2.31395">
        <ele>2382.1999511719</ele>
        <time>2023-07-17T08:22:51.000Z</time>
      </trkpt>
      <trkpt lat="42.42834" lon="2.31389">
        <ele>2383.8000488281</ele>
        <time>2023-07-17T08:22:56.000Z</time>
      </trkpt>
      <trkpt lat="42.42835" lon="2.31385">
        <ele>2384</ele>
        <time>2023-07-17T08:22:59.000Z</time>
      </trkpt>
      <trkpt lat="42.42835" lon="2.31377">
        <ele>2385.3999023438</ele>
        <time>2023-07-17T08:23:03.000Z</time>
      </trkpt>
      <trkpt lat="42.42835" lon="2.31375">
        <ele>2386.6000976562</ele>
        <time>2023-07-17T08:23:04.000Z</time>
      </trkpt>
      <trkpt lat="42.42835" lon="2.31373">
        <ele>2387.8000488281</ele>
        <time>2023-07-17T08:23:05.000Z</time>
      </trkpt>
      <trkpt lat="42.42835" lon="2.31372">
        <ele>2389</ele>
        <time>2023-07-17T08:23:06.000Z</time>
      </trkpt>
      <trkpt lat="42.42835" lon="2.3137">
        <ele>2389.8000488281</ele>
        <time>2023-07-17T08:23:07.000Z</time>
      </trkpt>
      <trkpt lat="42.42836" lon="2.31365">
        <ele>2390</ele>
        <time>2023-07-17T08:23:10.000Z</time>
      </trkpt>
      <trkpt lat="42.42836" lon="2.31356">
        <ele>2394</ele>
        <time>2023-07-17T08:23:14.000Z</time>
      </trkpt>
      <trkpt lat="42.42836" lon="2.31354">
        <ele>2395.6000976562</ele>
        <time>2023-07-17T08:23:15.000Z</time>
      </trkpt>
      <trkpt lat="42.42837" lon="2.31349">
        <ele>2396</ele>
        <time>2023-07-17T08:23:17.000Z</time>
      </trkpt>
      <trkpt lat="42.42838" lon="2.3134">
        <ele>2393.8000488281</ele>
        <time>2023-07-17T08:23:21.000Z</time>
      </trkpt>
      <trkpt lat="42.42838" lon="2.31334">
        <ele>2392.6000976562</ele>
        <time>2023-07-17T08:23:25.000Z</time>
      </trkpt>
      <trkpt lat="42.42839" lon="2.31323">
        <ele>2395.3999023438</ele>
        <time>2023-07-17T08:23:32.000Z</time>
      </trkpt>
      <trkpt lat="42.42839" lon="2.31322">
        <ele>2397.3999023438</ele>
        <time>2023-07-17T08:23:33.000Z</time>
      </trkpt>
      <trkpt lat="42.42841" lon="2.31312">
        <ele>2394.3999023438</ele>
        <time>2023-07-17T08:23:38.000Z</time>
      </trkpt>
      <trkpt lat="42.42842" lon="2.31306">
        <ele>2393.1999511719</ele>
        <time>2023-07-17T08:23:42.000Z</time>
      </trkpt>
      <trkpt lat="42.42842" lon="2.31305">
        <ele>2393.1999511719</ele>
        <time>2023-07-17T08:23:43.000Z</time>
      </trkpt>
      <trkpt lat="42.4284" lon="2.3129">
        <ele>2394.6000976562</ele>
        <time>2023-07-17T08:23:51.000Z</time>
      </trkpt>
      <trkpt lat="42.42841" lon="2.31287">
        <ele>2394.8000488281</ele>
        <time>2023-07-17T08:23:53.000Z</time>
      </trkpt>
      <trkpt lat="42.42844" lon="2.31275">
        <ele>2394.8000488281</ele>
        <time>2023-07-17T08:24:00.000Z</time>
      </trkpt>
      <trkpt lat="42.42846" lon="2.31269">
        <ele>2396</ele>
        <time>2023-07-17T08:24:05.000Z</time>
      </trkpt>
      <trkpt lat="42.42848" lon="2.31265">
        <ele>2395</ele>
        <time>2023-07-17T08:24:08.000Z</time>
      </trkpt>
      <trkpt lat="42.42848" lon="2.31263">
        <ele>2390.6000976562</ele>
        <time>2023-07-17T08:24:09.000Z</time>
      </trkpt>
      <trkpt lat="42.42851" lon="2.31251">
        <ele>2391</ele>
        <time>2023-07-17T08:24:17.000Z</time>
      </trkpt>
      <trkpt lat="42.42852" lon="2.31249">
        <ele>2391.8000488281</ele>
        <time>2023-07-17T08:24:18.000Z</time>
      </trkpt>
      <trkpt lat="42.42854" lon="2.31244">
        <ele>2393.3999023438</ele>
        <time>2023-07-17T08:24:22.000Z</time>
      </trkpt>
      <trkpt lat="42.42856" lon="2.31242">
        <ele>2394</ele>
        <time>2023-07-17T08:24:24.000Z</time>
      </trkpt>
      <trkpt lat="42.4286" lon="2.31232">
        <ele>2395</ele>
        <time>2023-07-17T08:24:32.000Z</time>
      </trkpt>
      <trkpt lat="42.42862" lon="2.31229">
        <ele>2396.1999511719</ele>
        <time>2023-07-17T08:24:35.000Z</time>
      </trkpt>
      <trkpt lat="42.42865" lon="2.31224">
        <ele>2396</ele>
        <time>2023-07-17T08:24:39.000Z</time>
      </trkpt>
      <trkpt lat="42.42872" lon="2.31213">
        <ele>2395.1999511719</ele>
        <time>2023-07-17T08:24:46.000Z</time>
      </trkpt>
      <trkpt lat="42.42875" lon="2.31208">
        <ele>2393.3999023438</ele>
        <time>2023-07-17T08:24:49.000Z</time>
      </trkpt>
      <trkpt lat="42.42877" lon="2.31204">
        <ele>2392</ele>
        <time>2023-07-17T08:24:51.000Z</time>
      </trkpt>
      <trkpt lat="42.42878" lon="2.31203">
        <ele>2390.8000488281</ele>
        <time>2023-07-17T08:24:52.000Z</time>
      </trkpt>
      <trkpt lat="42.42879" lon="2.312">
        <ele>2390.3999023438</ele>
        <time>2023-07-17T08:24:54.000Z</time>
      </trkpt>
      <trkpt lat="42.42884" lon="2.31193">
        <ele>2389.8000488281</ele>
        <time>2023-07-17T08:24:59.000Z</time>
      </trkpt>
      <trkpt lat="42.42887" lon="2.31191">
        <ele>2389.6000976562</ele>
        <time>2023-07-17T08:25:02.000Z</time>
      </trkpt>
      <trkpt lat="42.42887" lon="2.31189">
        <ele>2388.6000976562</ele>
        <time>2023-07-17T08:25:04.000Z</time>
      </trkpt>
      <trkpt lat="42.42888" lon="2.31187">
        <ele>2387</ele>
        <time>2023-07-17T08:25:06.000Z</time>
      </trkpt>
      <trkpt lat="42.42889" lon="2.31185">
        <ele>2385.3999023438</ele>
        <time>2023-07-17T08:25:07.000Z</time>
      </trkpt>
      <trkpt lat="42.4289" lon="2.31181">
        <ele>2384.8000488281</ele>
        <time>2023-07-17T08:25:10.000Z</time>
      </trkpt>
      <trkpt lat="42.42892" lon="2.31179">
        <ele>2384.8000488281</ele>
        <time>2023-07-17T08:25:12.000Z</time>
      </trkpt>
      <trkpt lat="42.42896" lon="2.31175">
        <ele>2387</ele>
        <time>2023-07-17T08:25:16.000Z</time>
      </trkpt>
      <trkpt lat="42.42902" lon="2.31166">
        <ele>2388</ele>
        <time>2023-07-17T08:25:22.000Z</time>
      </trkpt>
      <trkpt lat="42.42905" lon="2.31161">
        <ele>2389.3999023438</ele>
        <time>2023-07-17T08:25:26.000Z</time>
      </trkpt>
      <trkpt lat="42.42908" lon="2.31157">
        <ele>2389.3999023438</ele>
        <time>2023-07-17T08:25:29.000Z</time>
      </trkpt>
      <trkpt lat="42.42911" lon="2.31154">
        <ele>2388.1999511719</ele>
        <time>2023-07-17T08:25:33.000Z</time>
      </trkpt>
      <trkpt lat="42.42912" lon="2.31151">
        <ele>2386.3999023438</ele>
        <time>2023-07-17T08:25:36.000Z</time>
      </trkpt>
      <trkpt lat="42.42915" lon="2.31146">
        <ele>2384.3999023438</ele>
        <time>2023-07-17T08:25:41.000Z</time>
      </trkpt>
      <trkpt lat="42.42916" lon="2.31145">
        <ele>2384.3999023438</ele>
        <time>2023-07-17T08:25:42.000Z</time>
      </trkpt>
      <trkpt lat="42.42921" lon="2.3114">
        <ele>2384.8000488281</ele>
        <time>2023-07-17T08:25:48.000Z</time>
      </trkpt>
      <trkpt lat="42.42929" lon="2.31134">
        <ele>2385</ele>
        <time>2023-07-17T08:25:57.000Z</time>
      </trkpt>
      <trkpt lat="42.4293" lon="2.31132">
        <ele>2385</ele>
        <time>2023-07-17T08:25:59.000Z</time>
      </trkpt>
      <trkpt lat="42.42932" lon="2.31128">
        <ele>2385</ele>
        <time>2023-07-17T08:26:02.000Z</time>
      </trkpt>
      <trkpt lat="42.42937" lon="2.31123">
        <ele>2383.3999023438</ele>
        <time>2023-07-17T08:26:07.000Z</time>
      </trkpt>
      <trkpt lat="42.4294" lon="2.31116">
        <ele>2381.6000976562</ele>
        <time>2023-07-17T08:26:11.000Z</time>
      </trkpt>
      <trkpt lat="42.4294" lon="2.31114">
        <ele>2381.1999511719</ele>
        <time>2023-07-17T08:26:12.000Z</time>
      </trkpt>
      <trkpt lat="42.42949" lon="2.31097">
        <ele>2381</ele>
        <time>2023-07-17T08:26:23.000Z</time>
      </trkpt>
      <trkpt lat="42.42957" lon="2.31092">
        <ele>2381.6000976562</ele>
        <time>2023-07-17T08:26:29.000Z</time>
      </trkpt>
      <trkpt lat="42.42961" lon="2.31089">
        <ele>2382.8000488281</ele>
        <time>2023-07-17T08:26:33.000Z</time>
      </trkpt>
      <trkpt lat="42.42963" lon="2.31088">
        <ele>2383.1999511719</ele>
        <time>2023-07-17T08:26:35.000Z</time>
      </trkpt>
      <trkpt lat="42.42973" lon="2.3108">
        <ele>2383.8000488281</ele>
        <time>2023-07-17T08:26:45.000Z</time>
      </trkpt>
      <trkpt lat="42.42978" lon="2.31072">
        <ele>2381.1999511719</ele>
        <time>2023-07-17T08:26:51.000Z</time>
      </trkpt>
      <trkpt lat="42.42979" lon="2.31069">
        <ele>2380.8000488281</ele>
        <time>2023-07-17T08:26:53.000Z</time>
      </trkpt>
      <trkpt lat="42.42982" lon="2.31066">
        <ele>2382.3999023438</ele>
        <time>2023-07-17T08:26:56.000Z</time>
      </trkpt>
      <trkpt lat="42.42986" lon="2.31062">
        <ele>2381.8000488281</ele>
        <time>2023-07-17T08:27:00.000Z</time>
      </trkpt>
      <trkpt lat="42.42987" lon="2.31061">
        <ele>2381.1999511719</ele>
        <time>2023-07-17T08:27:01.000Z</time>
      </trkpt>
      <trkpt lat="42.42992" lon="2.31054">
        <ele>2383</ele>
        <time>2023-07-17T08:27:07.000Z</time>
      </trkpt>
      <trkpt lat="42.42994" lon="2.31052">
        <ele>2384</ele>
        <time>2023-07-17T08:27:09.000Z</time>
      </trkpt>
      <trkpt lat="42.42995" lon="2.31051">
        <ele>2384</ele>
        <time>2023-07-17T08:27:10.000Z</time>
      </trkpt>
      <trkpt lat="42.43003" lon="2.31041">
        <ele>2385</ele>
        <time>2023-07-17T08:27:18.000Z</time>
      </trkpt>
      <trkpt lat="42.43005" lon="2.31038">
        <ele>2382.6000976562</ele>
        <time>2023-07-17T08:27:21.000Z</time>
      </trkpt>
      <trkpt lat="42.43011" lon="2.31032">
        <ele>2383.1999511719</ele>
        <time>2023-07-17T08:27:26.000Z</time>
      </trkpt>
      <trkpt lat="42.43017" lon="2.31023">
        <ele>2383.6000976562</ele>
        <time>2023-07-17T08:27:33.000Z</time>
      </trkpt>
      <trkpt lat="42.43019" lon="2.31022">
        <ele>2383.8000488281</ele>
        <time>2023-07-17T08:27:34.000Z</time>
      </trkpt>
      <trkpt lat="42.43025" lon="2.31016">
        <ele>2384.6000976562</ele>
        <time>2023-07-17T08:27:40.000Z</time>
      </trkpt>
      <trkpt lat="42.43032" lon="2.31007">
        <ele>2384.6000976562</ele>
        <time>2023-07-17T08:27:48.000Z</time>
      </trkpt>
      <trkpt lat="42.43041" lon="2.30998">
        <ele>2384.1999511719</ele>
        <time>2023-07-17T08:27:56.000Z</time>
      </trkpt>
      <trkpt lat="42.43045" lon="2.30994">
        <ele>2382.8000488281</ele>
        <time>2023-07-17T08:28:01.000Z</time>
      </trkpt>
      <trkpt lat="42.43048" lon="2.30992">
        <ele>2382.6000976562</ele>
        <time>2023-07-17T08:28:04.000Z</time>
      </trkpt>
      <trkpt lat="42.43052" lon="2.30988">
        <ele>2381.6000976562</ele>
        <time>2023-07-17T08:28:08.000Z</time>
      </trkpt>
      <trkpt lat="42.43056" lon="2.30982">
        <ele>2381.1999511719</ele>
        <time>2023-07-17T08:28:13.000Z</time>
      </trkpt>
      <trkpt lat="42.43063" lon="2.30975">
        <ele>2381.8000488281</ele>
        <time>2023-07-17T08:28:22.000Z</time>
      </trkpt>
      <trkpt lat="42.43069" lon="2.30966">
        <ele>2382.1999511719</ele>
        <time>2023-07-17T08:28:30.000Z</time>
      </trkpt>
      <trkpt lat="42.43073" lon="2.3096">
        <ele>2382.8000488281</ele>
        <time>2023-07-17T08:28:34.000Z</time>
      </trkpt>
      <trkpt lat="42.43074" lon="2.30958">
        <ele>2383.1999511719</ele>
        <time>2023-07-17T08:28:36.000Z</time>
      </trkpt>
      <trkpt lat="42.43077" lon="2.30948">
        <ele>2383.8000488281</ele>
        <time>2023-07-17T08:28:43.000Z</time>
      </trkpt>
      <trkpt lat="42.43078" lon="2.30946">
        <ele>2384</ele>
        <time>2023-07-17T08:28:45.000Z</time>
      </trkpt>
      <trkpt lat="42.43082" lon="2.30935">
        <ele>2384</ele>
        <time>2023-07-17T08:28:54.000Z</time>
      </trkpt>
      <trkpt lat="42.43083" lon="2.30931">
        <ele>2385</ele>
        <time>2023-07-17T08:28:57.000Z</time>
      </trkpt>
      <trkpt lat="42.43085" lon="2.30927">
        <ele>2386.6000976562</ele>
        <time>2023-07-17T08:29:00.000Z</time>
      </trkpt>
      <trkpt lat="42.43086" lon="2.30925">
        <ele>2387</ele>
        <time>2023-07-17T08:29:02.000Z</time>
      </trkpt>
      <trkpt lat="42.43091" lon="2.30916">
        <ele>2387.1999511719</ele>
        <time>2023-07-17T08:29:11.000Z</time>
      </trkpt>
      <trkpt lat="42.43095" lon="2.30909">
        <ele>2387.3999023438</ele>
        <time>2023-07-17T08:29:18.000Z</time>
      </trkpt>
      <trkpt lat="42.43102" lon="2.30903">
        <ele>2387.6000976562</ele>
        <time>2023-07-17T08:29:25.000Z</time>
      </trkpt>
      <trkpt lat="42.43103" lon="2.30901">
        <ele>2387.6000976562</ele>
        <time>2023-07-17T08:29:26.000Z</time>
      </trkpt>
      <trkpt lat="42.43108" lon="2.30889">
        <ele>2387.3999023438</ele>
        <time>2023-07-17T08:29:35.000Z</time>
      </trkpt>
      <trkpt lat="42.43113" lon="2.30882">
        <ele>2388</ele>
        <time>2023-07-17T08:29:41.000Z</time>
      </trkpt>
      <trkpt lat="42.43114" lon="2.30881">
        <ele>2389</ele>
        <time>2023-07-17T08:29:42.000Z</time>
      </trkpt>
      <trkpt lat="42.43116" lon="2.30875">
        <ele>2388.8000488281</ele>
        <time>2023-07-17T08:29:48.000Z</time>
      </trkpt>
      <trkpt lat="42.43117" lon="2.30873">
        <ele>2387.8000488281</ele>
        <time>2023-07-17T08:29:50.000Z</time>
      </trkpt>
      <trkpt lat="42.43119" lon="2.3087">
        <ele>2386.3999023438</ele>
        <time>2023-07-17T08:29:54.000Z</time>
      </trkpt>
      <trkpt lat="42.4312" lon="2.30868">
        <ele>2386.3999023438</ele>
        <time>2023-07-17T08:29:56.000Z</time>
      </trkpt>
      <trkpt lat="42.43125" lon="2.30859">
        <ele>2387.8000488281</ele>
        <time>2023-07-17T08:30:03.000Z</time>
      </trkpt>
      <trkpt lat="42.43127" lon="2.3085">
        <ele>2387.3999023438</ele>
        <time>2023-07-17T08:30:13.000Z</time>
      </trkpt>
      <trkpt lat="42.43128" lon="2.30839">
        <ele>2388.6000976562</ele>
        <time>2023-07-17T08:30:22.000Z</time>
      </trkpt>
      <trkpt lat="42.43129" lon="2.30837">
        <ele>2388.8000488281</ele>
        <time>2023-07-17T08:30:24.000Z</time>
      </trkpt>
      <trkpt lat="42.4313" lon="2.30833">
        <ele>2389.8000488281</ele>
        <time>2023-07-17T08:30:29.000Z</time>
      </trkpt>
      <trkpt lat="42.43131" lon="2.30831">
        <ele>2390.3999023438</ele>
        <time>2023-07-17T08:30:31.000Z</time>
      </trkpt>
      <trkpt lat="42.43131" lon="2.30829">
        <ele>2391</ele>
        <time>2023-07-17T08:30:33.000Z</time>
      </trkpt>
      <trkpt lat="42.43133" lon="2.30823">
        <ele>2392</ele>
        <time>2023-07-17T08:30:37.000Z</time>
      </trkpt>
      <trkpt lat="42.43134" lon="2.30823">
        <ele>2392.1999511719</ele>
        <time>2023-07-17T08:30:38.000Z</time>
      </trkpt>
      <trkpt lat="42.43137" lon="2.30819">
        <ele>2393.1999511719</ele>
        <time>2023-07-17T08:30:42.000Z</time>
      </trkpt>
      <trkpt lat="42.43139" lon="2.30815">
        <ele>2393.3999023438</ele>
        <time>2023-07-17T08:30:46.000Z</time>
      </trkpt>
      <trkpt lat="42.43141" lon="2.3081">
        <ele>2394.1999511719</ele>
        <time>2023-07-17T08:30:52.000Z</time>
      </trkpt>
      <trkpt lat="42.43145" lon="2.30803">
        <ele>2394</ele>
        <time>2023-07-17T08:30:59.000Z</time>
      </trkpt>
      <trkpt lat="42.43149" lon="2.30794">
        <ele>2395.1999511719</ele>
        <time>2023-07-17T08:31:05.000Z</time>
      </trkpt>
      <trkpt lat="42.43149" lon="2.30793">
        <ele>2395.3999023438</ele>
        <time>2023-07-17T08:31:06.000Z</time>
      </trkpt>
      <trkpt lat="42.4315" lon="2.30788">
        <ele>2396.1999511719</ele>
        <time>2023-07-17T08:31:10.000Z</time>
      </trkpt>
      <trkpt lat="42.43152" lon="2.30782">
        <ele>2396.1999511719</ele>
        <time>2023-07-17T08:31:14.000Z</time>
      </trkpt>
      <trkpt lat="42.43154" lon="2.30778">
        <ele>2395.1999511719</ele>
        <time>2023-07-17T08:31:18.000Z</time>
      </trkpt>
      <trkpt lat="42.43154" lon="2.30775">
        <ele>2395.3999023438</ele>
        <time>2023-07-17T08:31:21.000Z</time>
      </trkpt>
      <trkpt lat="42.43154" lon="2.30772">
        <ele>2396</ele>
        <time>2023-07-17T08:31:24.000Z</time>
      </trkpt>
      <trkpt lat="42.43154" lon="2.30771">
        <ele>2396.1999511719</ele>
        <time>2023-07-17T08:31:25.000Z</time>
      </trkpt>
      <trkpt lat="42.43156" lon="2.30767">
        <ele>2397.1999511719</ele>
        <time>2023-07-17T08:31:28.000Z</time>
      </trkpt>
      <trkpt lat="42.43159" lon="2.30761">
        <ele>2398.3999023438</ele>
        <time>2023-07-17T08:31:32.000Z</time>
      </trkpt>
      <trkpt lat="42.43162" lon="2.30754">
        <ele>2398.8000488281</ele>
        <time>2023-07-17T08:31:37.000Z</time>
      </trkpt>
      <trkpt lat="42.43164" lon="2.30747">
        <ele>2399.3999023438</ele>
        <time>2023-07-17T08:31:42.000Z</time>
      </trkpt>
      <trkpt lat="42.43165" lon="2.30744">
        <ele>2400.1999511719</ele>
        <time>2023-07-17T08:31:44.000Z</time>
      </trkpt>
      <trkpt lat="42.43166" lon="2.30736">
        <ele>2400.3999023438</ele>
        <time>2023-07-17T08:31:50.000Z</time>
      </trkpt>
      <trkpt lat="42.4317" lon="2.30725">
        <ele>2399.3999023438</ele>
        <time>2023-07-17T08:31:58.000Z</time>
      </trkpt>
      <trkpt lat="42.43172" lon="2.30719">
        <ele>2400.6000976562</ele>
        <time>2023-07-17T08:32:02.000Z</time>
      </trkpt>
      <trkpt lat="42.43175" lon="2.30714">
        <ele>2401.8000488281</ele>
        <time>2023-07-17T08:32:06.000Z</time>
      </trkpt>
      <trkpt lat="42.43176" lon="2.30711">
        <ele>2402.1999511719</ele>
        <time>2023-07-17T08:32:08.000Z</time>
      </trkpt>
      <trkpt lat="42.4318" lon="2.307">
        <ele>2402</ele>
        <time>2023-07-17T08:32:17.000Z</time>
      </trkpt>
      <trkpt lat="42.43182" lon="2.30694">
        <ele>2403</ele>
        <time>2023-07-17T08:32:21.000Z</time>
      </trkpt>
      <trkpt lat="42.43184" lon="2.30689">
        <ele>2403.3999023438</ele>
        <time>2023-07-17T08:32:25.000Z</time>
      </trkpt>
      <trkpt lat="42.4319" lon="2.30676">
        <ele>2403.8000488281</ele>
        <time>2023-07-17T08:32:34.000Z</time>
      </trkpt>
      <trkpt lat="42.43194" lon="2.30668">
        <ele>2405.8000488281</ele>
        <time>2023-07-17T08:32:40.000Z</time>
      </trkpt>
      <trkpt lat="42.43194" lon="2.30666">
        <ele>2407.1999511719</ele>
        <time>2023-07-17T08:32:41.000Z</time>
      </trkpt>
      <trkpt lat="42.43196" lon="2.30659">
        <ele>2406.1999511719</ele>
        <time>2023-07-17T08:32:45.000Z</time>
      </trkpt>
      <trkpt lat="42.43196" lon="2.30655">
        <ele>2405.6000976562</ele>
        <time>2023-07-17T08:32:48.000Z</time>
      </trkpt>
      <trkpt lat="42.43197" lon="2.3065">
        <ele>2407.8000488281</ele>
        <time>2023-07-17T08:32:51.000Z</time>
      </trkpt>
      <trkpt lat="42.432" lon="2.30643">
        <ele>2408.1999511719</ele>
        <time>2023-07-17T08:32:56.000Z</time>
      </trkpt>
      <trkpt lat="42.43204" lon="2.30634">
        <ele>2407.3999023438</ele>
        <time>2023-07-17T08:33:04.000Z</time>
      </trkpt>
      <trkpt lat="42.43206" lon="2.3063">
        <ele>2406.6000976562</ele>
        <time>2023-07-17T08:33:07.000Z</time>
      </trkpt>
      <trkpt lat="42.43207" lon="2.30628">
        <ele>2405</ele>
        <time>2023-07-17T08:33:11.000Z</time>
      </trkpt>
      <trkpt lat="42.43207" lon="2.30627">
        <ele>2403</ele>
        <time>2023-07-17T08:33:12.000Z</time>
      </trkpt>
      <trkpt lat="42.4321" lon="2.3062">
        <ele>2404</ele>
        <time>2023-07-17T08:33:17.000Z</time>
      </trkpt>
      <trkpt lat="42.4321" lon="2.30619">
        <ele>2405.1999511719</ele>
        <time>2023-07-17T08:33:18.000Z</time>
      </trkpt>
      <trkpt lat="42.4321" lon="2.30618">
        <ele>2407.6000976562</ele>
        <time>2023-07-17T08:33:19.000Z</time>
      </trkpt>
      <trkpt lat="42.43209" lon="2.30617">
        <ele>2406.8000488281</ele>
        <time>2023-07-17T08:33:25.000Z</time>
      </trkpt>
      <trkpt lat="42.43207" lon="2.30615">
        <ele>2409.3999023438</ele>
        <time>2023-07-17T08:33:30.000Z</time>
      </trkpt>
      <trkpt lat="42.43206" lon="2.30613">
        <ele>2410.8000488281</ele>
        <time>2023-07-17T08:33:32.000Z</time>
      </trkpt>
      <trkpt lat="42.43206" lon="2.30612">
        <ele>2411.3999023438</ele>
        <time>2023-07-17T08:33:33.000Z</time>
      </trkpt>
      <trkpt lat="42.43201" lon="2.30607">
        <ele>2411.6000976562</ele>
        <time>2023-07-17T08:33:41.000Z</time>
      </trkpt>
      <trkpt lat="42.432" lon="2.30606">
        <ele>2412.1999511719</ele>
        <time>2023-07-17T08:33:42.000Z</time>
      </trkpt>
      <trkpt lat="42.43199" lon="2.30602">
        <ele>2409.8000488281</ele>
        <time>2023-07-17T08:33:48.000Z</time>
      </trkpt>
      <trkpt lat="42.43197" lon="2.30598">
        <ele>2411.3999023438</ele>
        <time>2023-07-17T08:33:53.000Z</time>
      </trkpt>
      <trkpt lat="42.43197" lon="2.30597">
        <ele>2412.1999511719</ele>
        <time>2023-07-17T08:33:56.000Z</time>
      </trkpt>
      <trkpt lat="42.43197" lon="2.30597">
        <ele>2412.8000488281</ele>
        <time>2023-07-17T08:33:57.000Z</time>
      </trkpt>
      <trkpt lat="42.43196" lon="2.30593">
        <ele>2413</ele>
        <time>2023-07-17T08:34:04.000Z</time>
      </trkpt>
      <trkpt lat="42.43196" lon="2.30593">
        <ele>2414.3999023438</ele>
        <time>2023-07-17T08:34:05.000Z</time>
      </trkpt>
      <trkpt lat="42.43197" lon="2.30594">
        <ele>2415.8000488281</ele>
        <time>2023-07-17T08:34:07.000Z</time>
      </trkpt>
      <trkpt lat="42.43196" lon="2.30592">
        <ele>2414.6000976562</ele>
        <time>2023-07-17T08:34:11.000Z</time>
      </trkpt>
      <trkpt lat="42.43196" lon="2.3059">
        <ele>2412.8000488281</ele>
        <time>2023-07-17T08:34:13.000Z</time>
      </trkpt>
      <trkpt lat="42.43195" lon="2.30588">
        <ele>2411.3999023438</ele>
        <time>2023-07-17T08:34:15.000Z</time>
      </trkpt>
      <trkpt lat="42.43194" lon="2.30587">
        <ele>2407.3999023438</ele>
        <time>2023-07-17T08:34:16.000Z</time>
      </trkpt>
      <trkpt lat="42.43194" lon="2.30586">
        <ele>2404.6000976562</ele>
        <time>2023-07-17T08:34:17.000Z</time>
      </trkpt>
      <trkpt lat="42.43193" lon="2.30584">
        <ele>2403.1999511719</ele>
        <time>2023-07-17T08:34:18.000Z</time>
      </trkpt>
      <trkpt lat="42.43193" lon="2.30583">
        <ele>2402.8000488281</ele>
        <time>2023-07-17T08:34:20.000Z</time>
      </trkpt>
      <trkpt lat="42.43192" lon="2.30581">
        <ele>2405.3999023438</ele>
        <time>2023-07-17T08:34:23.000Z</time>
      </trkpt>
      <trkpt lat="42.43192" lon="2.3058">
        <ele>2407</ele>
        <time>2023-07-17T08:34:24.000Z</time>
      </trkpt>
      <trkpt lat="42.43191" lon="2.30578">
        <ele>2408.1999511719</ele>
        <time>2023-07-17T08:34:26.000Z</time>
      </trkpt>
      <trkpt lat="42.43191" lon="2.30576">
        <ele>2408.8000488281</ele>
        <time>2023-07-17T08:34:27.000Z</time>
      </trkpt>
      <trkpt lat="42.43191" lon="2.30576">
        <ele>2409</ele>
        <time>2023-07-17T08:34:28.000Z</time>
      </trkpt>
      <trkpt lat="42.4319" lon="2.30576">
        <ele>2409.6000976562</ele>
        <time>2023-07-17T08:34:29.000Z</time>
      </trkpt>
      <trkpt lat="42.43189" lon="2.30571">
        <ele>2410.1999511719</ele>
        <time>2023-07-17T08:34:33.000Z</time>
      </trkpt>
      <trkpt lat="42.43186" lon="2.30564">
        <ele>2411.1999511719</ele>
        <time>2023-07-17T08:34:41.000Z</time>
      </trkpt>
      <trkpt lat="42.43186" lon="2.30563">
        <ele>2411.6000976562</ele>
        <time>2023-07-17T08:34:42.000Z</time>
      </trkpt>
      <trkpt lat="42.43185" lon="2.30562">
        <ele>2412.6000976562</ele>
        <time>2023-07-17T08:34:43.000Z</time>
      </trkpt>
      <trkpt lat="42.43185" lon="2.30561">
        <ele>2413.8000488281</ele>
        <time>2023-07-17T08:34:44.000Z</time>
      </trkpt>
      <trkpt lat="42.43184" lon="2.3056">
        <ele>2417.8000488281</ele>
        <time>2023-07-17T08:34:45.000Z</time>
      </trkpt>
      <trkpt lat="42.43184" lon="2.3056">
        <ele>2419.3999023438</ele>
        <time>2023-07-17T08:34:46.000Z</time>
      </trkpt>
      <trkpt lat="42.43183" lon="2.30559">
        <ele>2419.8000488281</ele>
        <time>2023-07-17T08:34:48.000Z</time>
      </trkpt>
      <trkpt lat="42.43182" lon="2.30558">
        <ele>2418.1999511719</ele>
        <time>2023-07-17T08:34:51.000Z</time>
      </trkpt>
      <trkpt lat="42.43179" lon="2.30555">
        <ele>2417.6000976562</ele>
        <time>2023-07-17T08:34:55.000Z</time>
      </trkpt>
      <trkpt lat="42.43174" lon="2.3055">
        <ele>2417.1999511719</ele>
        <time>2023-07-17T08:35:02.000Z</time>
      </trkpt>
      <trkpt lat="42.43173" lon="2.30549">
        <ele>2417</ele>
        <time>2023-07-17T08:35:03.000Z</time>
      </trkpt>
      <trkpt lat="42.43171" lon="2.30547">
        <ele>2418.3999023438</ele>
        <time>2023-07-17T08:35:07.000Z</time>
      </trkpt>
      <trkpt lat="42.43169" lon="2.30546">
        <ele>2419.8000488281</ele>
        <time>2023-07-17T08:35:09.000Z</time>
      </trkpt>
      <trkpt lat="42.43168" lon="2.30545">
        <ele>2420.6000976562</ele>
        <time>2023-07-17T08:35:10.000Z</time>
      </trkpt>
      <trkpt lat="42.43161" lon="2.3054">
        <ele>2420.8000488281</ele>
        <time>2023-07-17T08:35:17.000Z</time>
      </trkpt>
      <trkpt lat="42.4316" lon="2.3054">
        <ele>2422</ele>
        <time>2023-07-17T08:35:18.000Z</time>
      </trkpt>
      <trkpt lat="42.4316" lon="2.3054">
        <ele>2422.1999511719</ele>
        <time>2023-07-17T08:35:19.000Z</time>
      </trkpt>
      <trkpt lat="42.43158" lon="2.30539">
        <ele>2425.8000488281</ele>
        <time>2023-07-17T08:35:21.000Z</time>
      </trkpt>
      <trkpt lat="42.43155" lon="2.30539">
        <ele>2427</ele>
        <time>2023-07-17T08:35:23.000Z</time>
      </trkpt>
      <trkpt lat="42.43152" lon="2.30538">
        <ele>2428.1999511719</ele>
        <time>2023-07-17T08:35:25.000Z</time>
      </trkpt>
      <trkpt lat="42.43151" lon="2.30538">
        <ele>2429.1999511719</ele>
        <time>2023-07-17T08:35:26.000Z</time>
      </trkpt>
      <trkpt lat="42.4315" lon="2.30537">
        <ele>2431.1999511719</ele>
        <time>2023-07-17T08:35:27.000Z</time>
      </trkpt>
      <trkpt lat="42.43147" lon="2.30535">
        <ele>2429.3999023438</ele>
        <time>2023-07-17T08:35:30.000Z</time>
      </trkpt>
      <trkpt lat="42.43147" lon="2.30535">
        <ele>2423.8000488281</ele>
        <time>2023-07-17T08:35:31.000Z</time>
      </trkpt>
      <trkpt lat="42.43146" lon="2.30534">
        <ele>2420.6000976562</ele>
        <time>2023-07-17T08:35:32.000Z</time>
      </trkpt>
      <trkpt lat="42.43146" lon="2.30533">
        <ele>2419.6000976562</ele>
        <time>2023-07-17T08:35:33.000Z</time>
      </trkpt>
      <trkpt lat="42.43145" lon="2.30531">
        <ele>2418</ele>
        <time>2023-07-17T08:35:35.000Z</time>
      </trkpt>
      <trkpt lat="42.43143" lon="2.30528">
        <ele>2415.8000488281</ele>
        <time>2023-07-17T08:35:37.000Z</time>
      </trkpt>
      <trkpt lat="42.43138" lon="2.30522">
        <ele>2415.6000976562</ele>
        <time>2023-07-17T08:35:43.000Z</time>
      </trkpt>
      <trkpt lat="42.43137" lon="2.30521">
        <ele>2414.6000976562</ele>
        <time>2023-07-17T08:35:45.000Z</time>
      </trkpt>
      <trkpt lat="42.43135" lon="2.30518">
        <ele>2415.6000976562</ele>
        <time>2023-07-17T08:35:49.000Z</time>
      </trkpt>
      <trkpt lat="42.43134" lon="2.30518">
        <ele>2418.3999023438</ele>
        <time>2023-07-17T08:35:50.000Z</time>
      </trkpt>
      <trkpt lat="42.43133" lon="2.30516">
        <ele>2422.3999023438</ele>
        <time>2023-07-17T08:35:51.000Z</time>
      </trkpt>
      <trkpt lat="42.43129" lon="2.30511">
        <ele>2418.1999511719</ele>
        <time>2023-07-17T08:35:56.000Z</time>
      </trkpt>
      <trkpt lat="42.43128" lon="2.3051">
        <ele>2414.8000488281</ele>
        <time>2023-07-17T08:35:57.000Z</time>
      </trkpt>
      <trkpt lat="42.43126" lon="2.30508">
        <ele>2414.8000488281</ele>
        <time>2023-07-17T08:36:00.000Z</time>
      </trkpt>
      <trkpt lat="42.43125" lon="2.30507">
        <ele>2418.6000976562</ele>
        <time>2023-07-17T08:36:01.000Z</time>
      </trkpt>
      <trkpt lat="42.43124" lon="2.30506">
        <ele>2422.1999511719</ele>
        <time>2023-07-17T08:36:02.000Z</time>
      </trkpt>
      <trkpt lat="42.4312" lon="2.30501">
        <ele>2423.1999511719</ele>
        <time>2023-07-17T08:36:06.000Z</time>
      </trkpt>
      <trkpt lat="42.43115" lon="2.30496">
        <ele>2425.3999023438</ele>
        <time>2023-07-17T08:36:12.000Z</time>
      </trkpt>
      <trkpt lat="42.43108" lon="2.30488">
        <ele>2425</ele>
        <time>2023-07-17T08:36:18.000Z</time>
      </trkpt>
      <trkpt lat="42.43107" lon="2.30487">
        <ele>2423.8000488281</ele>
        <time>2023-07-17T08:36:19.000Z</time>
      </trkpt>
      <trkpt lat="42.43106" lon="2.30486">
        <ele>2422.3999023438</ele>
        <time>2023-07-17T08:36:20.000Z</time>
      </trkpt>
      <trkpt lat="42.43104" lon="2.30484">
        <ele>2421.1999511719</ele>
        <time>2023-07-17T08:36:22.000Z</time>
      </trkpt>
      <trkpt lat="42.43099" lon="2.30477">
        <ele>2421.3999023438</ele>
        <time>2023-07-17T08:36:28.000Z</time>
      </trkpt>
      <trkpt lat="42.43094" lon="2.30469">
        <ele>2419.3999023438</ele>
        <time>2023-07-17T08:36:33.000Z</time>
      </trkpt>
      <trkpt lat="42.43093" lon="2.30467">
        <ele>2418.1999511719</ele>
        <time>2023-07-17T08:36:34.000Z</time>
      </trkpt>
      <trkpt lat="42.43091" lon="2.30464">
        <ele>2416.3999023438</ele>
        <time>2023-07-17T08:36:36.000Z</time>
      </trkpt>
      <trkpt lat="42.43088" lon="2.30458">
        <ele>2417.8000488281</ele>
        <time>2023-07-17T08:36:40.000Z</time>
      </trkpt>
      <trkpt lat="42.43088" lon="2.30457">
        <ele>2419</ele>
        <time>2023-07-17T08:36:41.000Z</time>
      </trkpt>
      <trkpt lat="42.43086" lon="2.30453">
        <ele>2419</ele>
        <time>2023-07-17T08:36:44.000Z</time>
      </trkpt>
      <trkpt lat="42.43086" lon="2.30452">
        <ele>2412.3999023438</ele>
        <time>2023-07-17T08:36:45.000Z</time>
      </trkpt>
      <trkpt lat="42.43085" lon="2.30451">
        <ele>2407.1999511719</ele>
        <time>2023-07-17T08:36:46.000Z</time>
      </trkpt>
      <trkpt lat="42.43084" lon="2.30451">
        <ele>2405.3999023438</ele>
        <time>2023-07-17T08:36:47.000Z</time>
      </trkpt>
      <trkpt lat="42.43082" lon="2.30449">
        <ele>2404.1999511719</ele>
        <time>2023-07-17T08:36:49.000Z</time>
      </trkpt>
      <trkpt lat="42.43079" lon="2.30446">
        <ele>2405.6000976562</ele>
        <time>2023-07-17T08:36:52.000Z</time>
      </trkpt>
      <trkpt lat="42.43078" lon="2.30445">
        <ele>2408.6000976562</ele>
        <time>2023-07-17T08:36:53.000Z</time>
      </trkpt>
      <trkpt lat="42.43078" lon="2.30445">
        <ele>2412.6000976562</ele>
        <time>2023-07-17T08:36:54.000Z</time>
      </trkpt>
      <trkpt lat="42.43076" lon="2.30444">
        <ele>2412.6000976562</ele>
        <time>2023-07-17T08:36:55.000Z</time>
      </trkpt>
      <trkpt lat="42.43067" lon="2.30437">
        <ele>2414</ele>
        <time>2023-07-17T08:37:02.000Z</time>
      </trkpt>
      <trkpt lat="42.4306" lon="2.30428">
        <ele>2414.3999023438</ele>
        <time>2023-07-17T08:37:09.000Z</time>
      </trkpt>
      <trkpt lat="42.43057" lon="2.30423">
        <ele>2413</ele>
        <time>2023-07-17T08:37:12.000Z</time>
      </trkpt>
      <trkpt lat="42.43055" lon="2.30417">
        <ele>2411.6000976562</ele>
        <time>2023-07-17T08:37:15.000Z</time>
      </trkpt>
      <trkpt lat="42.43054" lon="2.30414">
        <ele>2411.6000976562</ele>
        <time>2023-07-17T08:37:17.000Z</time>
      </trkpt>
      <trkpt lat="42.43051" lon="2.3041">
        <ele>2414.3999023438</ele>
        <time>2023-07-17T08:37:20.000Z</time>
      </trkpt>
      <trkpt lat="42.43048" lon="2.30405">
        <ele>2413</ele>
        <time>2023-07-17T08:37:24.000Z</time>
      </trkpt>
      <trkpt lat="42.43047" lon="2.30405">
        <ele>2411</ele>
        <time>2023-07-17T08:37:25.000Z</time>
      </trkpt>
      <trkpt lat="42.43046" lon="2.30404">
        <ele>2408</ele>
        <time>2023-07-17T08:37:26.000Z</time>
      </trkpt>
      <trkpt lat="42.43045" lon="2.30403">
        <ele>2403.6000976562</ele>
        <time>2023-07-17T08:37:27.000Z</time>
      </trkpt>
      <trkpt lat="42.43044" lon="2.30403">
        <ele>2401.1999511719</ele>
        <time>2023-07-17T08:37:28.000Z</time>
      </trkpt>
      <trkpt lat="42.43042" lon="2.30402">
        <ele>2399.8000488281</ele>
        <time>2023-07-17T08:37:29.000Z</time>
      </trkpt>
      <trkpt lat="42.43039" lon="2.30401">
        <ele>2400.1999511719</ele>
        <time>2023-07-17T08:37:32.000Z</time>
      </trkpt>
      <trkpt lat="42.43038" lon="2.30401">
        <ele>2402.3999023438</ele>
        <time>2023-07-17T08:37:33.000Z</time>
      </trkpt>
      <trkpt lat="42.43037" lon="2.30399">
        <ele>2408.8000488281</ele>
        <time>2023-07-17T08:37:34.000Z</time>
      </trkpt>
      <trkpt lat="42.43035" lon="2.30398">
        <ele>2411.3999023438</ele>
        <time>2023-07-17T08:37:35.000Z</time>
      </trkpt>
      <trkpt lat="42.43029" lon="2.30389">
        <ele>2409.6000976562</ele>
        <time>2023-07-17T08:37:41.000Z</time>
      </trkpt>
      <trkpt lat="42.43027" lon="2.30388">
        <ele>2408.8000488281</ele>
        <time>2023-07-17T08:37:42.000Z</time>
      </trkpt>
      <trkpt lat="42.43019" lon="2.3038">
        <ele>2410.8000488281</ele>
        <time>2023-07-17T08:37:49.000Z</time>
      </trkpt>
      <trkpt lat="42.43011" lon="2.30374">
        <ele>2409.6000976562</ele>
        <time>2023-07-17T08:37:55.000Z</time>
      </trkpt>
      <trkpt lat="42.43009" lon="2.30372">
        <ele>2408</ele>
        <time>2023-07-17T08:37:57.000Z</time>
      </trkpt>
      <trkpt lat="42.43007" lon="2.30366">
        <ele>2407</ele>
        <time>2023-07-17T08:38:01.000Z</time>
      </trkpt>
      <trkpt lat="42.43004" lon="2.30362">
        <ele>2407</ele>
        <time>2023-07-17T08:38:04.000Z</time>
      </trkpt>
      <trkpt lat="42.43001" lon="2.30361">
        <ele>2405</ele>
        <time>2023-07-17T08:38:07.000Z</time>
      </trkpt>
      <trkpt lat="42.43001" lon="2.3036">
        <ele>2403.6000976562</ele>
        <time>2023-07-17T08:38:08.000Z</time>
      </trkpt>
      <trkpt lat="42.43" lon="2.30359">
        <ele>2402</ele>
        <time>2023-07-17T08:38:09.000Z</time>
      </trkpt>
      <trkpt lat="42.42999" lon="2.30358">
        <ele>2400.1999511719</ele>
        <time>2023-07-17T08:38:10.000Z</time>
      </trkpt>
      <trkpt lat="42.42998" lon="2.30358">
        <ele>2399.1999511719</ele>
        <time>2023-07-17T08:38:11.000Z</time>
      </trkpt>
      <trkpt lat="42.42997" lon="2.30357">
        <ele>2399</ele>
        <time>2023-07-17T08:38:12.000Z</time>
      </trkpt>
      <trkpt lat="42.4299" lon="2.30347">
        <ele>2400.8000488281</ele>
        <time>2023-07-17T08:38:18.000Z</time>
      </trkpt>
      <trkpt lat="42.42989" lon="2.30345">
        <ele>2402.8000488281</ele>
        <time>2023-07-17T08:38:19.000Z</time>
      </trkpt>
      <trkpt lat="42.42988" lon="2.30344">
        <ele>2403.8000488281</ele>
        <time>2023-07-17T08:38:20.000Z</time>
      </trkpt>
      <trkpt lat="42.42987" lon="2.30343">
        <ele>2405.6000976562</ele>
        <time>2023-07-17T08:38:21.000Z</time>
      </trkpt>
      <trkpt lat="42.42982" lon="2.30334">
        <ele>2403.6000976562</ele>
        <time>2023-07-17T08:38:27.000Z</time>
      </trkpt>
      <trkpt lat="42.42978" lon="2.30329">
        <ele>2402.8000488281</ele>
        <time>2023-07-17T08:38:31.000Z</time>
      </trkpt>
      <trkpt lat="42.42972" lon="2.30323">
        <ele>2402.6000976562</ele>
        <time>2023-07-17T08:38:37.000Z</time>
      </trkpt>
      <trkpt lat="42.42972" lon="2.30321">
        <ele>2401.1999511719</ele>
        <time>2023-07-17T08:38:39.000Z</time>
      </trkpt>
      <trkpt lat="42.42972" lon="2.3032">
        <ele>2400.1999511719</ele>
        <time>2023-07-17T08:38:40.000Z</time>
      </trkpt>
      <trkpt lat="42.42972" lon="2.30319">
        <ele>2399.6000976562</ele>
        <time>2023-07-17T08:38:41.000Z</time>
      </trkpt>
      <trkpt lat="42.42972" lon="2.30318">
        <ele>2398.1999511719</ele>
        <time>2023-07-17T08:38:42.000Z</time>
      </trkpt>
      <trkpt lat="42.42972" lon="2.30318">
        <ele>2396.3999023438</ele>
        <time>2023-07-17T08:38:43.000Z</time>
      </trkpt>
      <trkpt lat="42.42973" lon="2.30315">
        <ele>2395.3999023438</ele>
        <time>2023-07-17T08:38:46.000Z</time>
      </trkpt>
      <trkpt lat="42.42972" lon="2.30313">
        <ele>2393.8000488281</ele>
        <time>2023-07-17T08:38:47.000Z</time>
      </trkpt>
      <trkpt lat="42.42972" lon="2.30312">
        <ele>2392.8000488281</ele>
        <time>2023-07-17T08:38:48.000Z</time>
      </trkpt>
      <trkpt lat="42.42972" lon="2.3031">
        <ele>2393.6000976562</ele>
        <time>2023-07-17T08:38:53.000Z</time>
      </trkpt>
      <trkpt lat="42.42972" lon="2.30309">
        <ele>2394.8000488281</ele>
        <time>2023-07-17T08:38:54.000Z</time>
      </trkpt>
      <trkpt lat="42.42972" lon="2.3031">
        <ele>2395.8000488281</ele>
        <time>2023-07-17T08:38:55.000Z</time>
      </trkpt>
      <trkpt lat="42.42972" lon="2.30308">
        <ele>2395.1999511719</ele>
        <time>2023-07-17T08:39:02.000Z</time>
      </trkpt>
      <trkpt lat="42.4297" lon="2.30312">
        <ele>2395</ele>
        <time>2023-07-17T08:39:08.000Z</time>
      </trkpt>
      <trkpt lat="42.4297" lon="2.30313">
        <ele>2394.6000976562</ele>
        <time>2023-07-17T08:39:09.000Z</time>
      </trkpt>
      <trkpt lat="42.42971" lon="2.30312">
        <ele>2392.6000976562</ele>
        <time>2023-07-17T08:39:11.000Z</time>
      </trkpt>
      <trkpt lat="42.4297" lon="2.30312">
        <ele>2394.1999511719</ele>
        <time>2023-07-17T08:39:15.000Z</time>
      </trkpt>
      <trkpt lat="42.4297" lon="2.30312">
        <ele>2395.1999511719</ele>
        <time>2023-07-17T08:39:16.000Z</time>
      </trkpt>
      <trkpt lat="42.42968" lon="2.30314">
        <ele>2396.3999023438</ele>
        <time>2023-07-17T08:39:20.000Z</time>
      </trkpt>
      <trkpt lat="42.42968" lon="2.30316">
        <ele>2397.1999511719</ele>
        <time>2023-07-17T08:39:24.000Z</time>
      </trkpt>
      <trkpt lat="42.42969" lon="2.30316">
        <ele>2394.8000488281</ele>
        <time>2023-07-17T08:39:25.000Z</time>
      </trkpt>
      <trkpt lat="42.42969" lon="2.30317">
        <ele>2393.6000976562</ele>
        <time>2023-07-17T08:39:26.000Z</time>
      </trkpt>
      <trkpt lat="42.4297" lon="2.3032">
        <ele>2392</ele>
        <time>2023-07-17T08:39:28.000Z</time>
      </trkpt>
      <trkpt lat="42.42971" lon="2.30317">
        <ele>2391.8000488281</ele>
        <time>2023-07-17T08:39:31.000Z</time>
      </trkpt>
      <trkpt lat="42.42969" lon="2.30312">
        <ele>2390.3999023438</ele>
        <time>2023-07-17T08:39:38.000Z</time>
      </trkpt>
      <trkpt lat="42.42969" lon="2.30313">
        <ele>2393.1999511719</ele>
        <time>2023-07-17T08:39:43.000Z</time>
      </trkpt>
      <trkpt lat="42.42969" lon="2.30314">
        <ele>2396.8000488281</ele>
        <time>2023-07-17T08:39:44.000Z</time>
      </trkpt>
      <trkpt lat="42.42969" lon="2.30314">
        <ele>2397.6000976562</ele>
        <time>2023-07-17T08:39:46.000Z</time>
      </trkpt>
      <trkpt lat="42.42969" lon="2.30314">
        <ele>2397.8000488281</ele>
        <time>2023-07-17T08:39:47.000Z</time>
      </trkpt>
      <trkpt lat="42.42969" lon="2.30315">
        <ele>2397.6000976562</ele>
        <time>2023-07-17T08:39:52.000Z</time>
      </trkpt>
      <trkpt lat="42.42969" lon="2.30315">
        <ele>2395.3999023438</ele>
        <time>2023-07-17T08:39:53.000Z</time>
      </trkpt>
      <trkpt lat="42.42969" lon="2.30315">
        <ele>2393.1999511719</ele>
        <time>2023-07-17T08:39:55.000Z</time>
      </trkpt>
      <trkpt lat="42.42969" lon="2.30316">
        <ele>2393</ele>
        <time>2023-07-17T08:40:01.000Z</time>
      </trkpt>
      <trkpt lat="42.42967" lon="2.3032">
        <ele>2393.8000488281</ele>
        <time>2023-07-17T08:40:08.000Z</time>
      </trkpt>
      <trkpt lat="42.42967" lon="2.30321">
        <ele>2394.3999023438</ele>
        <time>2023-07-17T08:40:09.000Z</time>
      </trkpt>
      <trkpt lat="42.42967" lon="2.3032">
        <ele>2396.1999511719</ele>
        <time>2023-07-17T08:40:10.000Z</time>
      </trkpt>
      <trkpt lat="42.42966" lon="2.3032">
        <ele>2399</ele>
        <time>2023-07-17T08:40:11.000Z</time>
      </trkpt>
      <trkpt lat="42.42966" lon="2.30317">
        <ele>2399.8000488281</ele>
        <time>2023-07-17T08:40:15.000Z</time>
      </trkpt>
      <trkpt lat="42.42967" lon="2.30316">
        <ele>2397.8000488281</ele>
        <time>2023-07-17T08:40:17.000Z</time>
      </trkpt>
      <trkpt lat="42.42968" lon="2.30317">
        <ele>2396.3999023438</ele>
        <time>2023-07-17T08:40:19.000Z</time>
      </trkpt>
      <trkpt lat="42.42969" lon="2.30318">
        <ele>2396.6000976562</ele>
        <time>2023-07-17T08:40:21.000Z</time>
      </trkpt>
      <trkpt lat="42.42967" lon="2.30317">
        <ele>2394.8000488281</ele>
        <time>2023-07-17T08:40:28.000Z</time>
      </trkpt>
      <trkpt lat="42.42967" lon="2.30318">
        <ele>2394.8000488281</ele>
        <time>2023-07-17T08:40:29.000Z</time>
      </trkpt>
      <trkpt lat="42.42965" lon="2.30317">
        <ele>2395.1999511719</ele>
        <time>2023-07-17T08:40:35.000Z</time>
      </trkpt>
      <trkpt lat="42.42957" lon="2.30308">
        <ele>2394.8000488281</ele>
        <time>2023-07-17T08:40:42.000Z</time>
      </trkpt>
      <trkpt lat="42.42952" lon="2.30303">
        <ele>2394.3999023438</ele>
        <time>2023-07-17T08:40:48.000Z</time>
      </trkpt>
      <trkpt lat="42.42951" lon="2.30302">
        <ele>2392.8000488281</ele>
        <time>2023-07-17T08:40:49.000Z</time>
      </trkpt>
      <trkpt lat="42.42944" lon="2.30295">
        <ele>2392.6000976562</ele>
        <time>2023-07-17T08:40:55.000Z</time>
      </trkpt>
      <trkpt lat="42.42937" lon="2.30287">
        <ele>2393.1999511719</ele>
        <time>2023-07-17T08:41:02.000Z</time>
      </trkpt>
      <trkpt lat="42.42935" lon="2.30285">
        <ele>2393.8000488281</ele>
        <time>2023-07-17T08:41:04.000Z</time>
      </trkpt>
      <trkpt lat="42.42929" lon="2.30279">
        <ele>2394.8000488281</ele>
        <time>2023-07-17T08:41:10.000Z</time>
      </trkpt>
      <trkpt lat="42.42927" lon="2.30277">
        <ele>2395</ele>
        <time>2023-07-17T08:41:12.000Z</time>
      </trkpt>
      <trkpt lat="42.42921" lon="2.3027">
        <ele>2396</ele>
        <time>2023-07-17T08:41:17.000Z</time>
      </trkpt>
      <trkpt lat="42.42917" lon="2.30263">
        <ele>2395</ele>
        <time>2023-07-17T08:41:22.000Z</time>
      </trkpt>
      <trkpt lat="42.42916" lon="2.30261">
        <ele>2394.6000976562</ele>
        <time>2023-07-17T08:41:23.000Z</time>
      </trkpt>
      <trkpt lat="42.42907" lon="2.30258">
        <ele>2394.1999511719</ele>
        <time>2023-07-17T08:41:30.000Z</time>
      </trkpt>
      <trkpt lat="42.42902" lon="2.30253">
        <ele>2393.8000488281</ele>
        <time>2023-07-17T08:41:35.000Z</time>
      </trkpt>
      <trkpt lat="42.429" lon="2.3025">
        <ele>2392.3999023438</ele>
        <time>2023-07-17T08:41:37.000Z</time>
      </trkpt>
      <trkpt lat="42.42898" lon="2.30245">
        <ele>2391</ele>
        <time>2023-07-17T08:41:40.000Z</time>
      </trkpt>
      <trkpt lat="42.42893" lon="2.30237">
        <ele>2390.1999511719</ele>
        <time>2023-07-17T08:41:45.000Z</time>
      </trkpt>
      <trkpt lat="42.42886" lon="2.30228">
        <ele>2390</ele>
        <time>2023-07-17T08:41:53.000Z</time>
      </trkpt>
      <trkpt lat="42.42885" lon="2.30227">
        <ele>2390</ele>
        <time>2023-07-17T08:41:54.000Z</time>
      </trkpt>
      <trkpt lat="42.42883" lon="2.30223">
        <ele>2388.8000488281</ele>
        <time>2023-07-17T08:41:57.000Z</time>
      </trkpt>
      <trkpt lat="42.42879" lon="2.30219">
        <ele>2387.3999023438</ele>
        <time>2023-07-17T08:42:01.000Z</time>
      </trkpt>
      <trkpt lat="42.42868" lon="2.30211">
        <ele>2387.1999511719</ele>
        <time>2023-07-17T08:42:09.000Z</time>
      </trkpt>
      <trkpt lat="42.42858" lon="2.30202">
        <ele>2386.8000488281</ele>
        <time>2023-07-17T08:42:18.000Z</time>
      </trkpt>
      <trkpt lat="42.42849" lon="2.30192">
        <ele>2387</ele>
        <time>2023-07-17T08:42:27.000Z</time>
      </trkpt>
      <trkpt lat="42.42838" lon="2.30181">
        <ele>2387</ele>
        <time>2023-07-17T08:42:36.000Z</time>
      </trkpt>
      <trkpt lat="42.42834" lon="2.30174">
        <ele>2386.3999023438</ele>
        <time>2023-07-17T08:42:41.000Z</time>
      </trkpt>
      <trkpt lat="42.42832" lon="2.3017">
        <ele>2386.1999511719</ele>
        <time>2023-07-17T08:42:44.000Z</time>
      </trkpt>
      <trkpt lat="42.42827" lon="2.30158">
        <ele>2385.1999511719</ele>
        <time>2023-07-17T08:42:52.000Z</time>
      </trkpt>
      <trkpt lat="42.42825" lon="2.30156">
        <ele>2384.6000976562</ele>
        <time>2023-07-17T08:42:54.000Z</time>
      </trkpt>
      <trkpt lat="42.42825" lon="2.30154">
        <ele>2384.1999511719</ele>
        <time>2023-07-17T08:42:55.000Z</time>
      </trkpt>
      <trkpt lat="42.4282" lon="2.30145">
        <ele>2383.1999511719</ele>
        <time>2023-07-17T08:43:01.000Z</time>
      </trkpt>
      <trkpt lat="42.42818" lon="2.30142">
        <ele>2382.8000488281</ele>
        <time>2023-07-17T08:43:03.000Z</time>
      </trkpt>
      <trkpt lat="42.42814" lon="2.30138">
        <ele>2382.1999511719</ele>
        <time>2023-07-17T08:43:07.000Z</time>
      </trkpt>
      <trkpt lat="42.42809" lon="2.30134">
        <ele>2381.1999511719</ele>
        <time>2023-07-17T08:43:12.000Z</time>
      </trkpt>
      <trkpt lat="42.42806" lon="2.30129">
        <ele>2381.1999511719</ele>
        <time>2023-07-17T08:43:15.000Z</time>
      </trkpt>
      <trkpt lat="42.42801" lon="2.30123">
        <ele>2380.6000976562</ele>
        <time>2023-07-17T08:43:20.000Z</time>
      </trkpt>
      <trkpt lat="42.42796" lon="2.30114">
        <ele>2379.6000976562</ele>
        <time>2023-07-17T08:43:28.000Z</time>
      </trkpt>
      <trkpt lat="42.42789" lon="2.30103">
        <ele>2380</ele>
        <time>2023-07-17T08:43:35.000Z</time>
      </trkpt>
      <trkpt lat="42.42781" lon="2.3009">
        <ele>2378.8000488281</ele>
        <time>2023-07-17T08:43:44.000Z</time>
      </trkpt>
      <trkpt lat="42.42776" lon="2.30085">
        <ele>2380</ele>
        <time>2023-07-17T08:43:51.000Z</time>
      </trkpt>
      <trkpt lat="42.42771" lon="2.30078">
        <ele>2380.8000488281</ele>
        <time>2023-07-17T08:43:57.000Z</time>
      </trkpt>
      <trkpt lat="42.42766" lon="2.30072">
        <ele>2381.1999511719</ele>
        <time>2023-07-17T08:44:01.000Z</time>
      </trkpt>
      <trkpt lat="42.42761" lon="2.30063">
        <ele>2379.8000488281</ele>
        <time>2023-07-17T08:44:09.000Z</time>
      </trkpt>
      <trkpt lat="42.42759" lon="2.30059">
        <ele>2378.3999023438</ele>
        <time>2023-07-17T08:44:11.000Z</time>
      </trkpt>
      <trkpt lat="42.42753" lon="2.30054">
        <ele>2378.8000488281</ele>
        <time>2023-07-17T08:44:17.000Z</time>
      </trkpt>
      <trkpt lat="42.42751" lon="2.30047">
        <ele>2376.6000976562</ele>
        <time>2023-07-17T08:44:23.000Z</time>
      </trkpt>
      <trkpt lat="42.42751" lon="2.30045">
        <ele>2376.6000976562</ele>
        <time>2023-07-17T08:44:24.000Z</time>
      </trkpt>
      <trkpt lat="42.4275" lon="2.30037">
        <ele>2377.8000488281</ele>
        <time>2023-07-17T08:44:30.000Z</time>
      </trkpt>
      <trkpt lat="42.4275" lon="2.30035">
        <ele>2378.1999511719</ele>
        <time>2023-07-17T08:44:32.000Z</time>
      </trkpt>
      <trkpt lat="42.42749" lon="2.30027">
        <ele>2378.8000488281</ele>
        <time>2023-07-17T08:44:37.000Z</time>
      </trkpt>
      <trkpt lat="42.42748" lon="2.30025">
        <ele>2379</ele>
        <time>2023-07-17T08:44:39.000Z</time>
      </trkpt>
      <trkpt lat="42.42747" lon="2.3002">
        <ele>2380</ele>
        <time>2023-07-17T08:44:43.000Z</time>
      </trkpt>
      <trkpt lat="42.42745" lon="2.30016">
        <ele>2380.1999511719</ele>
        <time>2023-07-17T08:44:46.000Z</time>
      </trkpt>
      <trkpt lat="42.42743" lon="2.30012">
        <ele>2381.6000976562</ele>
        <time>2023-07-17T08:44:49.000Z</time>
      </trkpt>
      <trkpt lat="42.42741" lon="2.30006">
        <ele>2381.6000976562</ele>
        <time>2023-07-17T08:44:53.000Z</time>
      </trkpt>
      <trkpt lat="42.42736" lon="2.29996">
        <ele>2382.6000976562</ele>
        <time>2023-07-17T08:45:01.000Z</time>
      </trkpt>
      <trkpt lat="42.42736" lon="2.29995">
        <ele>2383</ele>
        <time>2023-07-17T08:45:02.000Z</time>
      </trkpt>
      <trkpt lat="42.42731" lon="2.29988">
        <ele>2382.6000976562</ele>
        <time>2023-07-17T08:45:09.000Z</time>
      </trkpt>
      <trkpt lat="42.42723" lon="2.29977">
        <ele>2382.8000488281</ele>
        <time>2023-07-17T08:45:17.000Z</time>
      </trkpt>
      <trkpt lat="42.42721" lon="2.29967">
        <ele>2383.8000488281</ele>
        <time>2023-07-17T08:45:25.000Z</time>
      </trkpt>
      <trkpt lat="42.42721" lon="2.29965">
        <ele>2385</ele>
        <time>2023-07-17T08:45:26.000Z</time>
      </trkpt>
      <trkpt lat="42.42719" lon="2.29959">
        <ele>2386.1999511719</ele>
        <time>2023-07-17T08:45:29.000Z</time>
      </trkpt>
      <trkpt lat="42.42715" lon="2.29949">
        <ele>2384.3999023438</ele>
        <time>2023-07-17T08:45:37.000Z</time>
      </trkpt>
      <trkpt lat="42.42714" lon="2.29948">
        <ele>2383.6000976562</ele>
        <time>2023-07-17T08:45:39.000Z</time>
      </trkpt>
      <trkpt lat="42.42713" lon="2.29934">
        <ele>2384.1999511719</ele>
        <time>2023-07-17T08:45:46.000Z</time>
      </trkpt>
      <trkpt lat="42.42713" lon="2.29925">
        <ele>2383.1999511719</ele>
        <time>2023-07-17T08:45:52.000Z</time>
      </trkpt>
      <trkpt lat="42.42712" lon="2.29923">
        <ele>2383</ele>
        <time>2023-07-17T08:45:53.000Z</time>
      </trkpt>
      <trkpt lat="42.42711" lon="2.29916">
        <ele>2382.1999511719</ele>
        <time>2023-07-17T08:45:57.000Z</time>
      </trkpt>
      <trkpt lat="42.4271" lon="2.29908">
        <ele>2382.1999511719</ele>
        <time>2023-07-17T08:46:02.000Z</time>
      </trkpt>
      <trkpt lat="42.42709" lon="2.29904">
        <ele>2383.3999023438</ele>
        <time>2023-07-17T08:46:05.000Z</time>
      </trkpt>
      <trkpt lat="42.42707" lon="2.29897">
        <ele>2383.8000488281</ele>
        <time>2023-07-17T08:46:10.000Z</time>
      </trkpt>
      <trkpt lat="42.42704" lon="2.29892">
        <ele>2384.6000976562</ele>
        <time>2023-07-17T08:46:14.000Z</time>
      </trkpt>
      <trkpt lat="42.42699" lon="2.29889">
        <ele>2384.6000976562</ele>
        <time>2023-07-17T08:46:18.000Z</time>
      </trkpt>
      <trkpt lat="42.42699" lon="2.29886">
        <ele>2383.3999023438</ele>
        <time>2023-07-17T08:46:20.000Z</time>
      </trkpt>
      <trkpt lat="42.42698" lon="2.29878">
        <ele>2383.1999511719</ele>
        <time>2023-07-17T08:46:25.000Z</time>
      </trkpt>
      <trkpt lat="42.42699" lon="2.29867">
        <ele>2384.3999023438</ele>
        <time>2023-07-17T08:46:32.000Z</time>
      </trkpt>
      <trkpt lat="42.42698" lon="2.29865">
        <ele>2385.6000976562</ele>
        <time>2023-07-17T08:46:35.000Z</time>
      </trkpt>
      <trkpt lat="42.42697" lon="2.2986">
        <ele>2382.8000488281</ele>
        <time>2023-07-17T08:46:39.000Z</time>
      </trkpt>
      <trkpt lat="42.42697" lon="2.29858">
        <ele>2381.3999023438</ele>
        <time>2023-07-17T08:46:40.000Z</time>
      </trkpt>
      <trkpt lat="42.42695" lon="2.29853">
        <ele>2381.3999023438</ele>
        <time>2023-07-17T08:46:42.000Z</time>
      </trkpt>
      <trkpt lat="42.42694" lon="2.29847">
        <ele>2381.8000488281</ele>
        <time>2023-07-17T08:46:49.000Z</time>
      </trkpt>
      <trkpt lat="42.42694" lon="2.29835">
        <ele>2381.6000976562</ele>
        <time>2023-07-17T08:46:56.000Z</time>
      </trkpt>
      <trkpt lat="42.42696" lon="2.2983">
        <ele>2382.3999023438</ele>
        <time>2023-07-17T08:46:59.000Z</time>
      </trkpt>
      <trkpt lat="42.42698" lon="2.29825">
        <ele>2383.8000488281</ele>
        <time>2023-07-17T08:47:01.000Z</time>
      </trkpt>
      <trkpt lat="42.42699" lon="2.29822">
        <ele>2384.1999511719</ele>
        <time>2023-07-17T08:47:03.000Z</time>
      </trkpt>
      <trkpt lat="42.42704" lon="2.29812">
        <ele>2384.3999023438</ele>
        <time>2023-07-17T08:47:10.000Z</time>
      </trkpt>
      <trkpt lat="42.42706" lon="2.29797">
        <ele>2384.3999023438</ele>
        <time>2023-07-17T08:47:18.000Z</time>
      </trkpt>
      <trkpt lat="42.42708" lon="2.29784">
        <ele>2384.1999511719</ele>
        <time>2023-07-17T08:47:26.000Z</time>
      </trkpt>
      <trkpt lat="42.42711" lon="2.29769">
        <ele>2384.3999023438</ele>
        <time>2023-07-17T08:47:35.000Z</time>
      </trkpt>
      <trkpt lat="42.42712" lon="2.29765">
        <ele>2384.8000488281</ele>
        <time>2023-07-17T08:47:38.000Z</time>
      </trkpt>
      <trkpt lat="42.42714" lon="2.29752">
        <ele>2385.8000488281</ele>
        <time>2023-07-17T08:47:45.000Z</time>
      </trkpt>
      <trkpt lat="42.42715" lon="2.29749">
        <ele>2386</ele>
        <time>2023-07-17T08:47:47.000Z</time>
      </trkpt>
      <trkpt lat="42.42717" lon="2.29735">
        <ele>2385.8000488281</ele>
        <time>2023-07-17T08:47:54.000Z</time>
      </trkpt>
      <trkpt lat="42.42717" lon="2.2972">
        <ele>2386.6000976562</ele>
        <time>2023-07-17T08:48:04.000Z</time>
      </trkpt>
      <trkpt lat="42.42717" lon="2.29718">
        <ele>2387</ele>
        <time>2023-07-17T08:48:05.000Z</time>
      </trkpt>
      <trkpt lat="42.4272" lon="2.29708">
        <ele>2387</ele>
        <time>2023-07-17T08:48:12.000Z</time>
      </trkpt>
      <trkpt lat="42.4272" lon="2.29695">
        <ele>2386.8000488281</ele>
        <time>2023-07-17T08:48:20.000Z</time>
      </trkpt>
      <trkpt lat="42.42723" lon="2.29678">
        <ele>2387</ele>
        <time>2023-07-17T08:48:29.000Z</time>
      </trkpt>
      <trkpt lat="42.42723" lon="2.2967">
        <ele>2388.1999511719</ele>
        <time>2023-07-17T08:48:33.000Z</time>
      </trkpt>
      <trkpt lat="42.42723" lon="2.29664">
        <ele>2388</ele>
        <time>2023-07-17T08:48:37.000Z</time>
      </trkpt>
      <trkpt lat="42.42724" lon="2.29655">
        <ele>2386.6000976562</ele>
        <time>2023-07-17T08:48:43.000Z</time>
      </trkpt>
      <trkpt lat="42.42724" lon="2.2965">
        <ele>2385.6000976562</ele>
        <time>2023-07-17T08:48:45.000Z</time>
      </trkpt>
      <trkpt lat="42.42724" lon="2.29649">
        <ele>2385.6000976562</ele>
        <time>2023-07-17T08:48:46.000Z</time>
      </trkpt>
      <trkpt lat="42.42726" lon="2.29643">
        <ele>2388.1999511719</ele>
        <time>2023-07-17T08:48:50.000Z</time>
      </trkpt>
      <trkpt lat="42.42728" lon="2.29636">
        <ele>2388.3999023438</ele>
        <time>2023-07-17T08:48:54.000Z</time>
      </trkpt>
      <trkpt lat="42.42728" lon="2.29628">
        <ele>2386.8000488281</ele>
        <time>2023-07-17T08:48:58.000Z</time>
      </trkpt>
      <trkpt lat="42.42729" lon="2.29623">
        <ele>2386.1999511719</ele>
        <time>2023-07-17T08:49:02.000Z</time>
      </trkpt>
      <trkpt lat="42.42729" lon="2.2962">
        <ele>2385.8000488281</ele>
        <time>2023-07-17T08:49:04.000Z</time>
      </trkpt>
      <trkpt lat="42.42732" lon="2.29609">
        <ele>2386.6000976562</ele>
        <time>2023-07-17T08:49:10.000Z</time>
      </trkpt>
      <trkpt lat="42.42732" lon="2.29608">
        <ele>2387.1999511719</ele>
        <time>2023-07-17T08:49:11.000Z</time>
      </trkpt>
      <trkpt lat="42.42736" lon="2.29599">
        <ele>2386.1999511719</ele>
        <time>2023-07-17T08:49:17.000Z</time>
      </trkpt>
      <trkpt lat="42.4274" lon="2.2959">
        <ele>2387.6000976562</ele>
        <time>2023-07-17T08:49:23.000Z</time>
      </trkpt>
      <trkpt lat="42.42741" lon="2.29587">
        <ele>2388.1999511719</ele>
        <time>2023-07-17T08:49:25.000Z</time>
      </trkpt>
      <trkpt lat="42.42745" lon="2.29577">
        <ele>2386.6000976562</ele>
        <time>2023-07-17T08:49:32.000Z</time>
      </trkpt>
      <trkpt lat="42.42747" lon="2.29573">
        <ele>2386.6000976562</ele>
        <time>2023-07-17T08:49:35.000Z</time>
      </trkpt>
      <trkpt lat="42.42749" lon="2.29561">
        <ele>2387.1999511719</ele>
        <time>2023-07-17T08:49:43.000Z</time>
      </trkpt>
      <trkpt lat="42.42748" lon="2.29555">
        <ele>2386.8000488281</ele>
        <time>2023-07-17T08:49:50.000Z</time>
      </trkpt>
      <trkpt lat="42.42748" lon="2.29551">
        <ele>2385.1999511719</ele>
        <time>2023-07-17T08:49:53.000Z</time>
      </trkpt>
      <trkpt lat="42.42748" lon="2.29545">
        <ele>2387.1999511719</ele>
        <time>2023-07-17T08:49:57.000Z</time>
      </trkpt>
      <trkpt lat="42.42748" lon="2.29543">
        <ele>2388.3999023438</ele>
        <time>2023-07-17T08:49:58.000Z</time>
      </trkpt>
      <trkpt lat="42.42749" lon="2.29536">
        <ele>2387.1999511719</ele>
        <time>2023-07-17T08:50:03.000Z</time>
      </trkpt>
      <trkpt lat="42.42749" lon="2.29533">
        <ele>2387.1999511719</ele>
        <time>2023-07-17T08:50:05.000Z</time>
      </trkpt>
      <trkpt lat="42.42751" lon="2.29519">
        <ele>2388</ele>
        <time>2023-07-17T08:50:14.000Z</time>
      </trkpt>
      <trkpt lat="42.42751" lon="2.29513">
        <ele>2388.1999511719</ele>
        <time>2023-07-17T08:50:18.000Z</time>
      </trkpt>
      <trkpt lat="42.42752" lon="2.29509">
        <ele>2388.3999023438</ele>
        <time>2023-07-17T08:50:21.000Z</time>
      </trkpt>
      <trkpt lat="42.42757" lon="2.29498">
        <ele>2389.1999511719</ele>
        <time>2023-07-17T08:50:28.000Z</time>
      </trkpt>
      <trkpt lat="42.42758" lon="2.29496">
        <ele>2389.3999023438</ele>
        <time>2023-07-17T08:50:29.000Z</time>
      </trkpt>
      <trkpt lat="42.4276" lon="2.2949">
        <ele>2390.6000976562</ele>
        <time>2023-07-17T08:50:33.000Z</time>
      </trkpt>
      <trkpt lat="42.42764" lon="2.29482">
        <ele>2391.3999023438</ele>
        <time>2023-07-17T08:50:39.000Z</time>
      </trkpt>
      <trkpt lat="42.42769" lon="2.29467">
        <ele>2390.8000488281</ele>
        <time>2023-07-17T08:50:49.000Z</time>
      </trkpt>
      <trkpt lat="42.42771" lon="2.29462">
        <ele>2391.8000488281</ele>
        <time>2023-07-17T08:50:52.000Z</time>
      </trkpt>
      <trkpt lat="42.42776" lon="2.29455">
        <ele>2393</ele>
        <time>2023-07-17T08:50:57.000Z</time>
      </trkpt>
      <trkpt lat="42.42779" lon="2.29444">
        <ele>2393.1999511719</ele>
        <time>2023-07-17T08:51:05.000Z</time>
      </trkpt>
      <trkpt lat="42.42782" lon="2.2943">
        <ele>2392.8000488281</ele>
        <time>2023-07-17T08:51:14.000Z</time>
      </trkpt>
      <trkpt lat="42.42784" lon="2.29423">
        <ele>2392.8000488281</ele>
        <time>2023-07-17T08:51:21.000Z</time>
      </trkpt>
      <trkpt lat="42.42788" lon="2.29408">
        <ele>2393</ele>
        <time>2023-07-17T08:51:30.000Z</time>
      </trkpt>
      <trkpt lat="42.4279" lon="2.29399">
        <ele>2394.6000976562</ele>
        <time>2023-07-17T08:51:35.000Z</time>
      </trkpt>
      <trkpt lat="42.42791" lon="2.29395">
        <ele>2395.3999023438</ele>
        <time>2023-07-17T08:51:38.000Z</time>
      </trkpt>
      <trkpt lat="42.42796" lon="2.29381">
        <ele>2395.1999511719</ele>
        <time>2023-07-17T08:51:46.000Z</time>
      </trkpt>
      <trkpt lat="42.42799" lon="2.29371">
        <ele>2395.3999023438</ele>
        <time>2023-07-17T08:51:54.000Z</time>
      </trkpt>
      <trkpt lat="42.42799" lon="2.29366">
        <ele>2396</ele>
        <time>2023-07-17T08:51:58.000Z</time>
      </trkpt>
      <trkpt lat="42.42802" lon="2.29355">
        <ele>2395.1999511719</ele>
        <time>2023-07-17T08:52:05.000Z</time>
      </trkpt>
      <trkpt lat="42.42804" lon="2.29343">
        <ele>2398.3999023438</ele>
        <time>2023-07-17T08:52:12.000Z</time>
      </trkpt>
      <trkpt lat="42.42805" lon="2.2934">
        <ele>2399.8000488281</ele>
        <time>2023-07-17T08:52:14.000Z</time>
      </trkpt>
      <trkpt lat="42.4281" lon="2.29329">
        <ele>2399.3999023438</ele>
        <time>2023-07-17T08:52:22.000Z</time>
      </trkpt>
      <trkpt lat="42.42811" lon="2.29326">
        <ele>2398.3999023438</ele>
        <time>2023-07-17T08:52:24.000Z</time>
      </trkpt>
      <trkpt lat="42.42813" lon="2.29318">
        <ele>2397.6000976562</ele>
        <time>2023-07-17T08:52:30.000Z</time>
      </trkpt>
      <trkpt lat="42.42813" lon="2.29314">
        <ele>2397.3999023438</ele>
        <time>2023-07-17T08:52:32.000Z</time>
      </trkpt>
      <trkpt lat="42.42816" lon="2.29306">
        <ele>2397.3999023438</ele>
        <time>2023-07-17T08:52:39.000Z</time>
      </trkpt>
      <trkpt lat="42.42819" lon="2.29295">
        <ele>2397.6000976562</ele>
        <time>2023-07-17T08:52:46.000Z</time>
      </trkpt>
      <trkpt lat="42.42826" lon="2.29281">
        <ele>2397.3999023438</ele>
        <time>2023-07-17T08:52:56.000Z</time>
      </trkpt>
      <trkpt lat="42.4283" lon="2.29273">
        <ele>2395.6000976562</ele>
        <time>2023-07-17T08:53:01.000Z</time>
      </trkpt>
      <trkpt lat="42.42832" lon="2.29269">
        <ele>2395.1999511719</ele>
        <time>2023-07-17T08:53:05.000Z</time>
      </trkpt>
      <trkpt lat="42.42835" lon="2.29259">
        <ele>2395</ele>
        <time>2023-07-17T08:53:13.000Z</time>
      </trkpt>
      <trkpt lat="42.42836" lon="2.2925">
        <ele>2397</ele>
        <time>2023-07-17T08:53:18.000Z</time>
      </trkpt>
      <trkpt lat="42.42837" lon="2.29248">
        <ele>2397.1999511719</ele>
        <time>2023-07-17T08:53:20.000Z</time>
      </trkpt>
      <trkpt lat="42.42839" lon="2.29238">
        <ele>2396</ele>
        <time>2023-07-17T08:53:26.000Z</time>
      </trkpt>
      <trkpt lat="42.4284" lon="2.29235">
        <ele>2396</ele>
        <time>2023-07-17T08:53:28.000Z</time>
      </trkpt>
      <trkpt lat="42.42845" lon="2.29223">
        <ele>2395.1999511719</ele>
        <time>2023-07-17T08:53:37.000Z</time>
      </trkpt>
      <trkpt lat="42.42847" lon="2.2921">
        <ele>2395.8000488281</ele>
        <time>2023-07-17T08:53:44.000Z</time>
      </trkpt>
      <trkpt lat="42.42852" lon="2.29198">
        <ele>2397.3999023438</ele>
        <time>2023-07-17T08:53:51.000Z</time>
      </trkpt>
      <trkpt lat="42.42853" lon="2.29195">
        <ele>2397.8000488281</ele>
        <time>2023-07-17T08:53:53.000Z</time>
      </trkpt>
      <trkpt lat="42.42854" lon="2.29194">
        <ele>2398.6000976562</ele>
        <time>2023-07-17T08:53:54.000Z</time>
      </trkpt>
      <trkpt lat="42.42856" lon="2.29191">
        <ele>2400.3999023438</ele>
        <time>2023-07-17T08:53:56.000Z</time>
      </trkpt>
      <trkpt lat="42.42856" lon="2.29189">
        <ele>2402</ele>
        <time>2023-07-17T08:53:57.000Z</time>
      </trkpt>
      <trkpt lat="42.42857" lon="2.29188">
        <ele>2403.3999023438</ele>
        <time>2023-07-17T08:53:58.000Z</time>
      </trkpt>
      <trkpt lat="42.4286" lon="2.29182">
        <ele>2404</ele>
        <time>2023-07-17T08:54:03.000Z</time>
      </trkpt>
      <trkpt lat="42.42864" lon="2.29176">
        <ele>2401.8000488281</ele>
        <time>2023-07-17T08:54:07.000Z</time>
      </trkpt>
      <trkpt lat="42.42867" lon="2.2917">
        <ele>2400.3999023438</ele>
        <time>2023-07-17T08:54:11.000Z</time>
      </trkpt>
      <trkpt lat="42.42869" lon="2.29167">
        <ele>2397.8000488281</ele>
        <time>2023-07-17T08:54:13.000Z</time>
      </trkpt>
      <trkpt lat="42.4287" lon="2.29165">
        <ele>2396.6000976562</ele>
        <time>2023-07-17T08:54:15.000Z</time>
      </trkpt>
      <trkpt lat="42.42872" lon="2.2916">
        <ele>2396.8000488281</ele>
        <time>2023-07-17T08:54:19.000Z</time>
      </trkpt>
      <trkpt lat="42.42873" lon="2.29157">
        <ele>2397.6000976562</ele>
        <time>2023-07-17T08:54:21.000Z</time>
      </trkpt>
      <trkpt lat="42.42876" lon="2.2915">
        <ele>2399.8000488281</ele>
        <time>2023-07-17T08:54:25.000Z</time>
      </trkpt>
      <trkpt lat="42.42878" lon="2.29145">
        <ele>2400.6000976562</ele>
        <time>2023-07-17T08:54:28.000Z</time>
      </trkpt>
      <trkpt lat="42.42881" lon="2.29135">
        <ele>2400</ele>
        <time>2023-07-17T08:54:35.000Z</time>
      </trkpt>
      <trkpt lat="42.42886" lon="2.29125">
        <ele>2400.1999511719</ele>
        <time>2023-07-17T08:54:43.000Z</time>
      </trkpt>
      <trkpt lat="42.42887" lon="2.29122">
        <ele>2398.3999023438</ele>
        <time>2023-07-17T08:54:45.000Z</time>
      </trkpt>
      <trkpt lat="42.4289" lon="2.29114">
        <ele>2399</ele>
        <time>2023-07-17T08:54:51.000Z</time>
      </trkpt>
      <trkpt lat="42.42891" lon="2.29112">
        <ele>2400.3999023438</ele>
        <time>2023-07-17T08:54:52.000Z</time>
      </trkpt>
      <trkpt lat="42.42892" lon="2.29109">
        <ele>2401.6000976562</ele>
        <time>2023-07-17T08:54:54.000Z</time>
      </trkpt>
      <trkpt lat="42.42897" lon="2.291">
        <ele>2400.3999023438</ele>
        <time>2023-07-17T08:55:00.000Z</time>
      </trkpt>
      <trkpt lat="42.42897" lon="2.29099">
        <ele>2399.8000488281</ele>
        <time>2023-07-17T08:55:01.000Z</time>
      </trkpt>
      <trkpt lat="42.429" lon="2.29089">
        <ele>2401.3999023438</ele>
        <time>2023-07-17T08:55:07.000Z</time>
      </trkpt>
      <trkpt lat="42.42901" lon="2.29087">
        <ele>2402.6000976562</ele>
        <time>2023-07-17T08:55:09.000Z</time>
      </trkpt>
      <trkpt lat="42.42903" lon="2.29076">
        <ele>2403.6000976562</ele>
        <time>2023-07-17T08:55:16.000Z</time>
      </trkpt>
      <trkpt lat="42.42904" lon="2.29073">
        <ele>2404.1999511719</ele>
        <time>2023-07-17T08:55:18.000Z</time>
      </trkpt>
      <trkpt lat="42.42906" lon="2.29062">
        <ele>2404.3999023438</ele>
        <time>2023-07-17T08:55:25.000Z</time>
      </trkpt>
      <trkpt lat="42.42907" lon="2.29059">
        <ele>2404.8000488281</ele>
        <time>2023-07-17T08:55:27.000Z</time>
      </trkpt>
      <trkpt lat="42.42909" lon="2.29052">
        <ele>2406.1999511719</ele>
        <time>2023-07-17T08:55:32.000Z</time>
      </trkpt>
      <trkpt lat="42.4291" lon="2.29048">
        <ele>2407</ele>
        <time>2023-07-17T08:55:34.000Z</time>
      </trkpt>
      <trkpt lat="42.42916" lon="2.29037">
        <ele>2405.8000488281</ele>
        <time>2023-07-17T08:55:43.000Z</time>
      </trkpt>
      <trkpt lat="42.42922" lon="2.29026">
        <ele>2406.6000976562</ele>
        <time>2023-07-17T08:55:50.000Z</time>
      </trkpt>
      <trkpt lat="42.42925" lon="2.29018">
        <ele>2407.1999511719</ele>
        <time>2023-07-17T08:55:56.000Z</time>
      </trkpt>
      <trkpt lat="42.42929" lon="2.29011">
        <ele>2406.6000976562</ele>
        <time>2023-07-17T08:56:00.000Z</time>
      </trkpt>
      <trkpt lat="42.4293" lon="2.29007">
        <ele>2408.1999511719</ele>
        <time>2023-07-17T08:56:04.000Z</time>
      </trkpt>
      <trkpt lat="42.42932" lon="2.29001">
        <ele>2408.3999023438</ele>
        <time>2023-07-17T08:56:08.000Z</time>
      </trkpt>
      <trkpt lat="42.42937" lon="2.28987">
        <ele>2407</ele>
        <time>2023-07-17T08:56:16.000Z</time>
      </trkpt>
      <trkpt lat="42.42941" lon="2.28979">
        <ele>2405.8000488281</ele>
        <time>2023-07-17T08:56:23.000Z</time>
      </trkpt>
      <trkpt lat="42.42945" lon="2.28966">
        <ele>2405.8000488281</ele>
        <time>2023-07-17T08:56:33.000Z</time>
      </trkpt>
      <trkpt lat="42.42946" lon="2.2896">
        <ele>2404.6000976562</ele>
        <time>2023-07-17T08:56:37.000Z</time>
      </trkpt>
      <trkpt lat="42.4295" lon="2.28952">
        <ele>2405.6000976562</ele>
        <time>2023-07-17T08:56:43.000Z</time>
      </trkpt>
      <trkpt lat="42.4295" lon="2.2895">
        <ele>2405.8000488281</ele>
        <time>2023-07-17T08:56:44.000Z</time>
      </trkpt>
      <trkpt lat="42.42954" lon="2.2894">
        <ele>2405.6000976562</ele>
        <time>2023-07-17T08:56:51.000Z</time>
      </trkpt>
      <trkpt lat="42.42957" lon="2.28932">
        <ele>2407.3999023438</ele>
        <time>2023-07-17T08:56:57.000Z</time>
      </trkpt>
      <trkpt lat="42.4296" lon="2.28928">
        <ele>2408.8000488281</ele>
        <time>2023-07-17T08:57:00.000Z</time>
      </trkpt>
      <trkpt lat="42.42961" lon="2.28926">
        <ele>2408.8000488281</ele>
        <time>2023-07-17T08:57:01.000Z</time>
      </trkpt>
      <trkpt lat="42.42966" lon="2.28917">
        <ele>2409.8000488281</ele>
        <time>2023-07-17T08:57:08.000Z</time>
      </trkpt>
      <trkpt lat="42.42967" lon="2.28915">
        <ele>2409.8000488281</ele>
        <time>2023-07-17T08:57:09.000Z</time>
      </trkpt>
      <trkpt lat="42.42972" lon="2.28899">
        <ele>2409.3999023438</ele>
        <time>2023-07-17T08:57:19.000Z</time>
      </trkpt>
      <trkpt lat="42.42976" lon="2.28889">
        <ele>2408.8000488281</ele>
        <time>2023-07-17T08:57:25.000Z</time>
      </trkpt>
      <trkpt lat="42.42978" lon="2.28882">
        <ele>2408.8000488281</ele>
        <time>2023-07-17T08:57:29.000Z</time>
      </trkpt>
      <trkpt lat="42.42985" lon="2.28869">
        <ele>2408.3999023438</ele>
        <time>2023-07-17T08:57:38.000Z</time>
      </trkpt>
      <trkpt lat="42.42986" lon="2.28863">
        <ele>2407.3999023438</ele>
        <time>2023-07-17T08:57:42.000Z</time>
      </trkpt>
      <trkpt lat="42.42986" lon="2.2886">
        <ele>2406</ele>
        <time>2023-07-17T08:57:44.000Z</time>
      </trkpt>
      <trkpt lat="42.42987" lon="2.28857">
        <ele>2406.3999023438</ele>
        <time>2023-07-17T08:57:46.000Z</time>
      </trkpt>
      <trkpt lat="42.42989" lon="2.2885">
        <ele>2407.1999511719</ele>
        <time>2023-07-17T08:57:50.000Z</time>
      </trkpt>
      <trkpt lat="42.42991" lon="2.28845">
        <ele>2408.1999511719</ele>
        <time>2023-07-17T08:57:53.000Z</time>
      </trkpt>
      <trkpt lat="42.42992" lon="2.28842">
        <ele>2408.8000488281</ele>
        <time>2023-07-17T08:57:55.000Z</time>
      </trkpt>
      <trkpt lat="42.42993" lon="2.28841">
        <ele>2409.3999023438</ele>
        <time>2023-07-17T08:57:56.000Z</time>
      </trkpt>
      <trkpt lat="42.42997" lon="2.28832">
        <ele>2410</ele>
        <time>2023-07-17T08:58:02.000Z</time>
      </trkpt>
      <trkpt lat="42.43003" lon="2.28817">
        <ele>2408</ele>
        <time>2023-07-17T08:58:12.000Z</time>
      </trkpt>
      <trkpt lat="42.43005" lon="2.28808">
        <ele>2406.8000488281</ele>
        <time>2023-07-17T08:58:17.000Z</time>
      </trkpt>
      <trkpt lat="42.43005" lon="2.28804">
        <ele>2406.3999023438</ele>
        <time>2023-07-17T08:58:19.000Z</time>
      </trkpt>
      <trkpt lat="42.43005" lon="2.288">
        <ele>2405.8000488281</ele>
        <time>2023-07-17T08:58:22.000Z</time>
      </trkpt>
      <trkpt lat="42.43006" lon="2.28793">
        <ele>2404.8000488281</ele>
        <time>2023-07-17T08:58:27.000Z</time>
      </trkpt>
      <trkpt lat="42.43008" lon="2.28789">
        <ele>2407.8000488281</ele>
        <time>2023-07-17T08:58:30.000Z</time>
      </trkpt>
      <trkpt lat="42.4301" lon="2.28782">
        <ele>2409.3999023438</ele>
        <time>2023-07-17T08:58:34.000Z</time>
      </trkpt>
      <trkpt lat="42.43011" lon="2.28779">
        <ele>2410.6000976562</ele>
        <time>2023-07-17T08:58:36.000Z</time>
      </trkpt>
      <trkpt lat="42.43011" lon="2.28775">
        <ele>2411.6000976562</ele>
        <time>2023-07-17T08:58:38.000Z</time>
      </trkpt>
      <trkpt lat="42.43013" lon="2.28766">
        <ele>2409.8000488281</ele>
        <time>2023-07-17T08:58:42.000Z</time>
      </trkpt>
      <trkpt lat="42.43014" lon="2.28757">
        <ele>2411.3999023438</ele>
        <time>2023-07-17T08:58:48.000Z</time>
      </trkpt>
      <trkpt lat="42.43015" lon="2.28751">
        <ele>2411.3999023438</ele>
        <time>2023-07-17T08:58:51.000Z</time>
      </trkpt>
      <trkpt lat="42.43016" lon="2.28741">
        <ele>2412.6000976562</ele>
        <time>2023-07-17T08:58:58.000Z</time>
      </trkpt>
      <trkpt lat="42.43018" lon="2.28727">
        <ele>2411.6000976562</ele>
        <time>2023-07-17T08:59:06.000Z</time>
      </trkpt>
      <trkpt lat="42.4302" lon="2.2871">
        <ele>2411.8000488281</ele>
        <time>2023-07-17T08:59:16.000Z</time>
      </trkpt>
      <trkpt lat="42.43023" lon="2.28695">
        <ele>2411</ele>
        <time>2023-07-17T08:59:25.000Z</time>
      </trkpt>
      <trkpt lat="42.43027" lon="2.28679">
        <ele>2410.8000488281</ele>
        <time>2023-07-17T08:59:36.000Z</time>
      </trkpt>
      <trkpt lat="42.4303" lon="2.28668">
        <ele>2410.8000488281</ele>
        <time>2023-07-17T08:59:43.000Z</time>
      </trkpt>
      <trkpt lat="42.4303" lon="2.28663">
        <ele>2410.1999511719</ele>
        <time>2023-07-17T08:59:46.000Z</time>
      </trkpt>
      <trkpt lat="42.43029" lon="2.28653">
        <ele>2412</ele>
        <time>2023-07-17T08:59:52.000Z</time>
      </trkpt>
      <trkpt lat="42.4303" lon="2.28651">
        <ele>2413</ele>
        <time>2023-07-17T08:59:53.000Z</time>
      </trkpt>
      <trkpt lat="42.43032" lon="2.28637">
        <ele>2411.6000976562</ele>
        <time>2023-07-17T09:00:01.000Z</time>
      </trkpt>
      <trkpt lat="42.43033" lon="2.28625">
        <ele>2411</ele>
        <time>2023-07-17T09:00:08.000Z</time>
      </trkpt>
      <trkpt lat="42.43035" lon="2.28612">
        <ele>2412.1999511719</ele>
        <time>2023-07-17T09:00:16.000Z</time>
      </trkpt>
      <trkpt lat="42.43035" lon="2.28608">
        <ele>2412.8000488281</ele>
        <time>2023-07-17T09:00:19.000Z</time>
      </trkpt>
      <trkpt lat="42.43034" lon="2.286">
        <ele>2411.8000488281</ele>
        <time>2023-07-17T09:00:23.000Z</time>
      </trkpt>
      <trkpt lat="42.43034" lon="2.28595">
        <ele>2408.8000488281</ele>
        <time>2023-07-17T09:00:26.000Z</time>
      </trkpt>
      <trkpt lat="42.43034" lon="2.28582">
        <ele>2408</ele>
        <time>2023-07-17T09:00:35.000Z</time>
      </trkpt>
      <trkpt lat="42.43034" lon="2.28579">
        <ele>2406.6000976562</ele>
        <time>2023-07-17T09:00:37.000Z</time>
      </trkpt>
      <trkpt lat="42.43035" lon="2.28568">
        <ele>2408.1999511719</ele>
        <time>2023-07-17T09:00:43.000Z</time>
      </trkpt>
      <trkpt lat="42.43035" lon="2.28566">
        <ele>2408.3999023438</ele>
        <time>2023-07-17T09:00:44.000Z</time>
      </trkpt>
      <trkpt lat="42.43035" lon="2.28565">
        <ele>2409.3999023438</ele>
        <time>2023-07-17T09:00:45.000Z</time>
      </trkpt>
      <trkpt lat="42.43036" lon="2.28558">
        <ele>2410.1999511719</ele>
        <time>2023-07-17T09:00:51.000Z</time>
      </trkpt>
      <trkpt lat="42.43037" lon="2.28548">
        <ele>2409.6000976562</ele>
        <time>2023-07-17T09:00:58.000Z</time>
      </trkpt>
      <trkpt lat="42.43038" lon="2.28541">
        <ele>2408.1999511719</ele>
        <time>2023-07-17T09:01:02.000Z</time>
      </trkpt>
      <trkpt lat="42.43038" lon="2.28533">
        <ele>2408</ele>
        <time>2023-07-17T09:01:06.000Z</time>
      </trkpt>
      <trkpt lat="42.43038" lon="2.28523">
        <ele>2409</ele>
        <time>2023-07-17T09:01:12.000Z</time>
      </trkpt>
      <trkpt lat="42.43039" lon="2.28509">
        <ele>2407.3999023438</ele>
        <time>2023-07-17T09:01:20.000Z</time>
      </trkpt>
      <trkpt lat="42.43038" lon="2.285">
        <ele>2407.3999023438</ele>
        <time>2023-07-17T09:01:27.000Z</time>
      </trkpt>
      <trkpt lat="42.43038" lon="2.28498">
        <ele>2407</ele>
        <time>2023-07-17T09:01:28.000Z</time>
      </trkpt>
      <trkpt lat="42.43039" lon="2.2849">
        <ele>2406</ele>
        <time>2023-07-17T09:01:32.000Z</time>
      </trkpt>
      <trkpt lat="42.43039" lon="2.28483">
        <ele>2405.3999023438</ele>
        <time>2023-07-17T09:01:36.000Z</time>
      </trkpt>
      <trkpt lat="42.43039" lon="2.28482">
        <ele>2404.8000488281</ele>
        <time>2023-07-17T09:01:37.000Z</time>
      </trkpt>
      <trkpt lat="42.43039" lon="2.2848">
        <ele>2403.6000976562</ele>
        <time>2023-07-17T09:01:38.000Z</time>
      </trkpt>
      <trkpt lat="42.43039" lon="2.28478">
        <ele>2402.3999023438</ele>
        <time>2023-07-17T09:01:39.000Z</time>
      </trkpt>
      <trkpt lat="42.43039" lon="2.28473">
        <ele>2402</ele>
        <time>2023-07-17T09:01:43.000Z</time>
      </trkpt>
      <trkpt lat="42.43039" lon="2.2847">
        <ele>2403.6000976562</ele>
        <time>2023-07-17T09:01:45.000Z</time>
      </trkpt>
      <trkpt lat="42.43039" lon="2.28467">
        <ele>2404.6000976562</ele>
        <time>2023-07-17T09:01:46.000Z</time>
      </trkpt>
      <trkpt lat="42.43037" lon="2.28462">
        <ele>2404.6000976562</ele>
        <time>2023-07-17T09:01:49.000Z</time>
      </trkpt>
      <trkpt lat="42.43034" lon="2.28449">
        <ele>2405.3999023438</ele>
        <time>2023-07-17T09:01:57.000Z</time>
      </trkpt>
      <trkpt lat="42.43033" lon="2.28444">
        <ele>2406.1999511719</ele>
        <time>2023-07-17T09:02:01.000Z</time>
      </trkpt>
      <trkpt lat="42.43032" lon="2.2844">
        <ele>2407.1999511719</ele>
        <time>2023-07-17T09:02:03.000Z</time>
      </trkpt>
      <trkpt lat="42.43031" lon="2.28435">
        <ele>2407.1999511719</ele>
        <time>2023-07-17T09:02:06.000Z</time>
      </trkpt>
      <trkpt lat="42.43031" lon="2.28429">
        <ele>2409</ele>
        <time>2023-07-17T09:02:12.000Z</time>
      </trkpt>
      <trkpt lat="42.4303" lon="2.28431">
        <ele>2409.6000976562</ele>
        <time>2023-07-17T09:02:15.000Z</time>
      </trkpt>
      <trkpt lat="42.43031" lon="2.2843">
        <ele>2410.3999023438</ele>
        <time>2023-07-17T09:02:19.000Z</time>
      </trkpt>
      <trkpt lat="42.43031" lon="2.2843">
        <ele>2410.6000976562</ele>
        <time>2023-07-17T09:02:20.000Z</time>
      </trkpt>
      <trkpt lat="42.43033" lon="2.2843">
        <ele>2409.1999511719</ele>
        <time>2023-07-17T09:02:27.000Z</time>
      </trkpt>
      <trkpt lat="42.43034" lon="2.2843">
        <ele>2409</ele>
        <time>2023-07-17T09:02:28.000Z</time>
      </trkpt>
      <trkpt lat="42.43034" lon="2.2843">
        <ele>2409</ele>
        <time>2023-07-17T09:02:35.000Z</time>
      </trkpt>
      <trkpt lat="42.43032" lon="2.28429">
        <ele>2408</ele>
        <time>2023-07-17T09:02:41.000Z</time>
      </trkpt>
      <trkpt lat="42.43032" lon="2.28429">
        <ele>2407.1999511719</ele>
        <time>2023-07-17T09:02:42.000Z</time>
      </trkpt>
      <trkpt lat="42.43031" lon="2.28427">
        <ele>2406.8000488281</ele>
        <time>2023-07-17T09:02:43.000Z</time>
      </trkpt>
      <trkpt lat="42.4303" lon="2.2842">
        <ele>2407</ele>
        <time>2023-07-17T09:02:48.000Z</time>
      </trkpt>
      <trkpt lat="42.4303" lon="2.28418">
        <ele>2408</ele>
        <time>2023-07-17T09:02:50.000Z</time>
      </trkpt>
      <trkpt lat="42.4303" lon="2.28408">
        <ele>2406.3999023438</ele>
        <time>2023-07-17T09:02:56.000Z</time>
      </trkpt>
      <trkpt lat="42.43029" lon="2.28401">
        <ele>2406</ele>
        <time>2023-07-17T09:03:00.000Z</time>
      </trkpt>
      <trkpt lat="42.43028" lon="2.28398">
        <ele>2405.3999023438</ele>
        <time>2023-07-17T09:03:05.000Z</time>
      </trkpt>
      <trkpt lat="42.43028" lon="2.28397">
        <ele>2405.1999511719</ele>
        <time>2023-07-17T09:03:06.000Z</time>
      </trkpt>
      <trkpt lat="42.43024" lon="2.28388">
        <ele>2403.8000488281</ele>
        <time>2023-07-17T09:03:11.000Z</time>
      </trkpt>
      <trkpt lat="42.43023" lon="2.28386">
        <ele>2403.3999023438</ele>
        <time>2023-07-17T09:03:13.000Z</time>
      </trkpt>
      <trkpt lat="42.43019" lon="2.28373">
        <ele>2404.1999511719</ele>
        <time>2023-07-17T09:03:21.000Z</time>
      </trkpt>
      <trkpt lat="42.43017" lon="2.28371">
        <ele>2406.6000976562</ele>
        <time>2023-07-17T09:03:23.000Z</time>
      </trkpt>
      <trkpt lat="42.43016" lon="2.28369">
        <ele>2405.1999511719</ele>
        <time>2023-07-17T09:03:27.000Z</time>
      </trkpt>
      <trkpt lat="42.43015" lon="2.28369">
        <ele>2405</ele>
        <time>2023-07-17T09:03:28.000Z</time>
      </trkpt>
      <trkpt lat="42.43013" lon="2.28365">
        <ele>2404</ele>
        <time>2023-07-17T09:03:34.000Z</time>
      </trkpt>
      <trkpt lat="42.43011" lon="2.28362">
        <ele>2403.6000976562</ele>
        <time>2023-07-17T09:03:37.000Z</time>
      </trkpt>
      <trkpt lat="42.4301" lon="2.2836">
        <ele>2405</ele>
        <time>2023-07-17T09:03:39.000Z</time>
      </trkpt>
      <trkpt lat="42.43006" lon="2.28352">
        <ele>2405</ele>
        <time>2023-07-17T09:03:45.000Z</time>
      </trkpt>
      <trkpt lat="42.43" lon="2.2834">
        <ele>2405.3999023438</ele>
        <time>2023-07-17T09:03:54.000Z</time>
      </trkpt>
      <trkpt lat="42.42993" lon="2.28326">
        <ele>2405.3999023438</ele>
        <time>2023-07-17T09:04:04.000Z</time>
      </trkpt>
      <trkpt lat="42.4299" lon="2.28318">
        <ele>2404</ele>
        <time>2023-07-17T09:04:10.000Z</time>
      </trkpt>
      <trkpt lat="42.42989" lon="2.28314">
        <ele>2403.3999023438</ele>
        <time>2023-07-17T09:04:13.000Z</time>
      </trkpt>
      <trkpt lat="42.42985" lon="2.28306">
        <ele>2403</ele>
        <time>2023-07-17T09:04:18.000Z</time>
      </trkpt>
      <trkpt lat="42.42984" lon="2.28303">
        <ele>2402.6000976562</ele>
        <time>2023-07-17T09:04:20.000Z</time>
      </trkpt>
      <trkpt lat="42.42982" lon="2.28296">
        <ele>2401.8000488281</ele>
        <time>2023-07-17T09:04:26.000Z</time>
      </trkpt>
      <trkpt lat="42.42981" lon="2.28293">
        <ele>2401.6000976562</ele>
        <time>2023-07-17T09:04:28.000Z</time>
      </trkpt>
      <trkpt lat="42.42977" lon="2.28281">
        <ele>2400.8000488281</ele>
        <time>2023-07-17T09:04:36.000Z</time>
      </trkpt>
      <trkpt lat="42.42973" lon="2.28266">
        <ele>2400.1999511719</ele>
        <time>2023-07-17T09:04:47.000Z</time>
      </trkpt>
      <trkpt lat="42.42968" lon="2.28255">
        <ele>2399.8000488281</ele>
        <time>2023-07-17T09:04:55.000Z</time>
      </trkpt>
      <trkpt lat="42.42966" lon="2.28253">
        <ele>2399.3999023438</ele>
        <time>2023-07-17T09:04:57.000Z</time>
      </trkpt>
      <trkpt lat="42.42962" lon="2.28244">
        <ele>2398.6000976562</ele>
        <time>2023-07-17T09:05:03.000Z</time>
      </trkpt>
      <trkpt lat="42.4296" lon="2.28242">
        <ele>2398</ele>
        <time>2023-07-17T09:05:05.000Z</time>
      </trkpt>
      <trkpt lat="42.42959" lon="2.28238">
        <ele>2397.6000976562</ele>
        <time>2023-07-17T09:05:07.000Z</time>
      </trkpt>
      <trkpt lat="42.42955" lon="2.28226">
        <ele>2396.8000488281</ele>
        <time>2023-07-17T09:05:14.000Z</time>
      </trkpt>
      <trkpt lat="42.42955" lon="2.28221">
        <ele>2396.3999023438</ele>
        <time>2023-07-17T09:05:17.000Z</time>
      </trkpt>
      <trkpt lat="42.42951" lon="2.2821">
        <ele>2395.6000976562</ele>
        <time>2023-07-17T09:05:25.000Z</time>
      </trkpt>
      <trkpt lat="42.42948" lon="2.28205">
        <ele>2395.3999023438</ele>
        <time>2023-07-17T09:05:29.000Z</time>
      </trkpt>
      <trkpt lat="42.42946" lon="2.28203">
        <ele>2394</ele>
        <time>2023-07-17T09:05:31.000Z</time>
      </trkpt>
      <trkpt lat="42.42945" lon="2.28201">
        <ele>2393.3999023438</ele>
        <time>2023-07-17T09:05:33.000Z</time>
      </trkpt>
      <trkpt lat="42.42942" lon="2.28194">
        <ele>2393</ele>
        <time>2023-07-17T09:05:37.000Z</time>
      </trkpt>
      <trkpt lat="42.42942" lon="2.28188">
        <ele>2392.8000488281</ele>
        <time>2023-07-17T09:05:40.000Z</time>
      </trkpt>
      <trkpt lat="42.42938" lon="2.28177">
        <ele>2392.1999511719</ele>
        <time>2023-07-17T09:05:48.000Z</time>
      </trkpt>
      <trkpt lat="42.42934" lon="2.28165">
        <ele>2392</ele>
        <time>2023-07-17T09:05:56.000Z</time>
      </trkpt>
      <trkpt lat="42.42933" lon="2.28162">
        <ele>2391.6000976562</ele>
        <time>2023-07-17T09:05:58.000Z</time>
      </trkpt>
      <trkpt lat="42.4293" lon="2.28155">
        <ele>2390.8000488281</ele>
        <time>2023-07-17T09:06:03.000Z</time>
      </trkpt>
      <trkpt lat="42.42928" lon="2.2815">
        <ele>2390.6000976562</ele>
        <time>2023-07-17T09:06:07.000Z</time>
      </trkpt>
      <trkpt lat="42.42927" lon="2.28145">
        <ele>2389.1999511719</ele>
        <time>2023-07-17T09:06:11.000Z</time>
      </trkpt>
      <trkpt lat="42.42924" lon="2.2813">
        <ele>2388.8000488281</ele>
        <time>2023-07-17T09:06:19.000Z</time>
      </trkpt>
      <trkpt lat="42.42919" lon="2.28118">
        <ele>2388.6000976562</ele>
        <time>2023-07-17T09:06:27.000Z</time>
      </trkpt>
      <trkpt lat="42.42915" lon="2.28108">
        <ele>2388.1999511719</ele>
        <time>2023-07-17T09:06:34.000Z</time>
      </trkpt>
      <trkpt lat="42.42914" lon="2.28106">
        <ele>2388.1999511719</ele>
        <time>2023-07-17T09:06:35.000Z</time>
      </trkpt>
      <trkpt lat="42.42908" lon="2.28093">
        <ele>2388.6000976562</ele>
        <time>2023-07-17T09:06:44.000Z</time>
      </trkpt>
      <trkpt lat="42.42907" lon="2.28091">
        <ele>2386.6000976562</ele>
        <time>2023-07-17T09:06:46.000Z</time>
      </trkpt>
      <trkpt lat="42.42907" lon="2.28089">
        <ele>2385.3999023438</ele>
        <time>2023-07-17T09:06:47.000Z</time>
      </trkpt>
      <trkpt lat="42.42905" lon="2.2808">
        <ele>2385.6000976562</ele>
        <time>2023-07-17T09:06:52.000Z</time>
      </trkpt>
      <trkpt lat="42.42903" lon="2.2807">
        <ele>2386.1999511719</ele>
        <time>2023-07-17T09:06:59.000Z</time>
      </trkpt>
      <trkpt lat="42.42903" lon="2.28068">
        <ele>2386.3999023438</ele>
        <time>2023-07-17T09:07:00.000Z</time>
      </trkpt>
      <trkpt lat="42.429" lon="2.28059">
        <ele>2386.6000976562</ele>
        <time>2023-07-17T09:07:05.000Z</time>
      </trkpt>
      <trkpt lat="42.42898" lon="2.28055">
        <ele>2386.3999023438</ele>
        <time>2023-07-17T09:07:10.000Z</time>
      </trkpt>
      <trkpt lat="42.42897" lon="2.2805">
        <ele>2386.1999511719</ele>
        <time>2023-07-17T09:07:18.000Z</time>
      </trkpt>
      <trkpt lat="42.42898" lon="2.28051">
        <ele>2387.1999511719</ele>
        <time>2023-07-17T09:07:28.000Z</time>
      </trkpt>
      <trkpt lat="42.42897" lon="2.28047">
        <ele>2386.6000976562</ele>
        <time>2023-07-17T09:07:36.000Z</time>
      </trkpt>
      <trkpt lat="42.42897" lon="2.28036">
        <ele>2385.1999511719</ele>
        <time>2023-07-17T09:07:43.000Z</time>
      </trkpt>
      <trkpt lat="42.42897" lon="2.28035">
        <ele>2384.6000976562</ele>
        <time>2023-07-17T09:07:44.000Z</time>
      </trkpt>
      <trkpt lat="42.42897" lon="2.28033">
        <ele>2384</ele>
        <time>2023-07-17T09:07:45.000Z</time>
      </trkpt>
      <trkpt lat="42.42897" lon="2.28031">
        <ele>2382.3999023438</ele>
        <time>2023-07-17T09:07:47.000Z</time>
      </trkpt>
      <trkpt lat="42.42896" lon="2.28026">
        <ele>2381.8000488281</ele>
        <time>2023-07-17T09:07:51.000Z</time>
      </trkpt>
      <trkpt lat="42.42893" lon="2.28012">
        <ele>2383</ele>
        <time>2023-07-17T09:07:59.000Z</time>
      </trkpt>
      <trkpt lat="42.42892" lon="2.27998">
        <ele>2383.3999023438</ele>
        <time>2023-07-17T09:08:08.000Z</time>
      </trkpt>
      <trkpt lat="42.42888" lon="2.27986">
        <ele>2382</ele>
        <time>2023-07-17T09:08:16.000Z</time>
      </trkpt>
      <trkpt lat="42.42887" lon="2.27979">
        <ele>2382</ele>
        <time>2023-07-17T09:08:19.000Z</time>
      </trkpt>
      <trkpt lat="42.42886" lon="2.27976">
        <ele>2383</ele>
        <time>2023-07-17T09:08:21.000Z</time>
      </trkpt>
      <trkpt lat="42.42884" lon="2.27967">
        <ele>2382.6000976562</ele>
        <time>2023-07-17T09:08:28.000Z</time>
      </trkpt>
      <trkpt lat="42.42883" lon="2.27958">
        <ele>2381.8000488281</ele>
        <time>2023-07-17T09:08:34.000Z</time>
      </trkpt>
      <trkpt lat="42.42883" lon="2.27956">
        <ele>2381.6000976562</ele>
        <time>2023-07-17T09:08:36.000Z</time>
      </trkpt>
      <trkpt lat="42.42881" lon="2.27949">
        <ele>2380.6000976562</ele>
        <time>2023-07-17T09:08:40.000Z</time>
      </trkpt>
      <trkpt lat="42.42878" lon="2.2794">
        <ele>2380.3999023438</ele>
        <time>2023-07-17T09:08:45.000Z</time>
      </trkpt>
      <trkpt lat="42.42875" lon="2.27925">
        <ele>2381.3999023438</ele>
        <time>2023-07-17T09:08:55.000Z</time>
      </trkpt>
      <trkpt lat="42.42872" lon="2.27912">
        <ele>2381</ele>
        <time>2023-07-17T09:09:04.000Z</time>
      </trkpt>
      <trkpt lat="42.42871" lon="2.27903">
        <ele>2381.8000488281</ele>
        <time>2023-07-17T09:09:09.000Z</time>
      </trkpt>
      <trkpt lat="42.4287" lon="2.279">
        <ele>2382.8000488281</ele>
        <time>2023-07-17T09:09:11.000Z</time>
      </trkpt>
      <trkpt lat="42.42869" lon="2.27896">
        <ele>2383</ele>
        <time>2023-07-17T09:09:13.000Z</time>
      </trkpt>
      <trkpt lat="42.42869" lon="2.27896">
        <ele>2381.1999511719</ele>
        <time>2023-07-17T09:09:17.000Z</time>
      </trkpt>
      <trkpt lat="42.42869" lon="2.27896">
        <ele>2380.3999023438</ele>
        <time>2023-07-17T09:09:18.000Z</time>
      </trkpt>
      <trkpt lat="42.42869" lon="2.27896">
        <ele>2379.3999023438</ele>
        <time>2023-07-17T09:09:19.000Z</time>
      </trkpt>
      <trkpt lat="42.42869" lon="2.27894">
        <ele>2379.1999511719</ele>
        <time>2023-07-17T09:09:25.000Z</time>
      </trkpt>
      <trkpt lat="42.42869" lon="2.27895">
        <ele>2379.6000976562</ele>
        <time>2023-07-17T09:09:27.000Z</time>
      </trkpt>
      <trkpt lat="42.42865" lon="2.2789">
        <ele>2381</ele>
        <time>2023-07-17T09:09:35.000Z</time>
      </trkpt>
      <trkpt lat="42.42865" lon="2.27888">
        <ele>2381.3999023438</ele>
        <time>2023-07-17T09:09:44.000Z</time>
      </trkpt>
      <trkpt lat="42.42865" lon="2.27889">
        <ele>2382.1999511719</ele>
        <time>2023-07-17T09:09:45.000Z</time>
      </trkpt>
      <trkpt lat="42.42864" lon="2.27888">
        <ele>2381.3999023438</ele>
        <time>2023-07-17T09:09:53.000Z</time>
      </trkpt>
      <trkpt lat="42.42862" lon="2.27875">
        <ele>2381.1999511719</ele>
        <time>2023-07-17T09:10:02.000Z</time>
      </trkpt>
      <trkpt lat="42.42859" lon="2.27864">
        <ele>2381.3999023438</ele>
        <time>2023-07-17T09:10:10.000Z</time>
      </trkpt>
      <trkpt lat="42.42859" lon="2.2786">
        <ele>2381.1999511719</ele>
        <time>2023-07-17T09:10:12.000Z</time>
      </trkpt>
      <trkpt lat="42.42857" lon="2.27848">
        <ele>2380.8000488281</ele>
        <time>2023-07-17T09:10:20.000Z</time>
      </trkpt>
      <trkpt lat="42.42852" lon="2.27835">
        <ele>2380</ele>
        <time>2023-07-17T09:10:30.000Z</time>
      </trkpt>
      <trkpt lat="42.4285" lon="2.2783">
        <ele>2379</ele>
        <time>2023-07-17T09:10:34.000Z</time>
      </trkpt>
      <trkpt lat="42.42846" lon="2.27823">
        <ele>2380.3999023438</ele>
        <time>2023-07-17T09:10:40.000Z</time>
      </trkpt>
      <trkpt lat="42.42841" lon="2.27813">
        <ele>2381</ele>
        <time>2023-07-17T09:10:47.000Z</time>
      </trkpt>
      <trkpt lat="42.42834" lon="2.27801">
        <ele>2379.8000488281</ele>
        <time>2023-07-17T09:10:57.000Z</time>
      </trkpt>
      <trkpt lat="42.42829" lon="2.27789">
        <ele>2381</ele>
        <time>2023-07-17T09:11:05.000Z</time>
      </trkpt>
      <trkpt lat="42.42826" lon="2.2778">
        <ele>2381.3999023438</ele>
        <time>2023-07-17T09:11:12.000Z</time>
      </trkpt>
      <trkpt lat="42.42826" lon="2.27779">
        <ele>2382</ele>
        <time>2023-07-17T09:11:13.000Z</time>
      </trkpt>
      <trkpt lat="42.42825" lon="2.27777">
        <ele>2382.8000488281</ele>
        <time>2023-07-17T09:11:14.000Z</time>
      </trkpt>
      <trkpt lat="42.42822" lon="2.2777">
        <ele>2381.6000976562</ele>
        <time>2023-07-17T09:11:19.000Z</time>
      </trkpt>
      <trkpt lat="42.42818" lon="2.27761">
        <ele>2381</ele>
        <time>2023-07-17T09:11:26.000Z</time>
      </trkpt>
      <trkpt lat="42.42812" lon="2.27747">
        <ele>2382.6000976562</ele>
        <time>2023-07-17T09:11:35.000Z</time>
      </trkpt>
      <trkpt lat="42.42812" lon="2.27746">
        <ele>2383</ele>
        <time>2023-07-17T09:11:36.000Z</time>
      </trkpt>
      <trkpt lat="42.42811" lon="2.27743">
        <ele>2383.8000488281</ele>
        <time>2023-07-17T09:11:38.000Z</time>
      </trkpt>
      <trkpt lat="42.42807" lon="2.27734">
        <ele>2384.8000488281</ele>
        <time>2023-07-17T09:11:44.000Z</time>
      </trkpt>
      <trkpt lat="42.42804" lon="2.27729">
        <ele>2386</ele>
        <time>2023-07-17T09:11:47.000Z</time>
      </trkpt>
      <trkpt lat="42.42804" lon="2.27728">
        <ele>2386</ele>
        <time>2023-07-17T09:11:48.000Z</time>
      </trkpt>
      <trkpt lat="42.42798" lon="2.27713">
        <ele>2386</ele>
        <time>2023-07-17T09:11:58.000Z</time>
      </trkpt>
      <trkpt lat="42.42794" lon="2.277">
        <ele>2385.1999511719</ele>
        <time>2023-07-17T09:12:07.000Z</time>
      </trkpt>
      <trkpt lat="42.42794" lon="2.27698">
        <ele>2384.8000488281</ele>
        <time>2023-07-17T09:12:08.000Z</time>
      </trkpt>
      <trkpt lat="42.42792" lon="2.27694">
        <ele>2383.6000976562</ele>
        <time>2023-07-17T09:12:13.000Z</time>
      </trkpt>
      <trkpt lat="42.4279" lon="2.27687">
        <ele>2382.8000488281</ele>
        <time>2023-07-17T09:12:18.000Z</time>
      </trkpt>
      <trkpt lat="42.42787" lon="2.27671">
        <ele>2382.3999023438</ele>
        <time>2023-07-17T09:12:27.000Z</time>
      </trkpt>
      <trkpt lat="42.42787" lon="2.27669">
        <ele>2382.3999023438</ele>
        <time>2023-07-17T09:12:28.000Z</time>
      </trkpt>
      <trkpt lat="42.42786" lon="2.27661">
        <ele>2381.8000488281</ele>
        <time>2023-07-17T09:12:34.000Z</time>
      </trkpt>
      <trkpt lat="42.42786" lon="2.27649">
        <ele>2382.6000976562</ele>
        <time>2023-07-17T09:12:42.000Z</time>
      </trkpt>
      <trkpt lat="42.42784" lon="2.27644">
        <ele>2381.3999023438</ele>
        <time>2023-07-17T09:12:45.000Z</time>
      </trkpt>
      <trkpt lat="42.42783" lon="2.27641">
        <ele>2381.3999023438</ele>
        <time>2023-07-17T09:12:47.000Z</time>
      </trkpt>
      <trkpt lat="42.4278" lon="2.27632">
        <ele>2382</ele>
        <time>2023-07-17T09:12:53.000Z</time>
      </trkpt>
      <trkpt lat="42.42777" lon="2.27619">
        <ele>2381.8000488281</ele>
        <time>2023-07-17T09:13:02.000Z</time>
      </trkpt>
      <trkpt lat="42.42776" lon="2.27611">
        <ele>2381.6000976562</ele>
        <time>2023-07-17T09:13:09.000Z</time>
      </trkpt>
      <trkpt lat="42.42774" lon="2.27599">
        <ele>2380.6000976562</ele>
        <time>2023-07-17T09:13:18.000Z</time>
      </trkpt>
      <trkpt lat="42.42773" lon="2.27598">
        <ele>2380.6000976562</ele>
        <time>2023-07-17T09:13:19.000Z</time>
      </trkpt>
      <trkpt lat="42.42773" lon="2.27591">
        <ele>2380.8000488281</ele>
        <time>2023-07-17T09:13:24.000Z</time>
      </trkpt>
      <trkpt lat="42.42772" lon="2.27577">
        <ele>2381.6000976562</ele>
        <time>2023-07-17T09:13:32.000Z</time>
      </trkpt>
      <trkpt lat="42.42771" lon="2.27568">
        <ele>2381.8000488281</ele>
        <time>2023-07-17T09:13:39.000Z</time>
      </trkpt>
      <trkpt lat="42.4277" lon="2.27561">
        <ele>2382.6000976562</ele>
        <time>2023-07-17T09:13:43.000Z</time>
      </trkpt>
      <trkpt lat="42.42769" lon="2.27554">
        <ele>2383.6000976562</ele>
        <time>2023-07-17T09:13:47.000Z</time>
      </trkpt>
      <trkpt lat="42.42769" lon="2.27553">
        <ele>2383.6000976562</ele>
        <time>2023-07-17T09:13:48.000Z</time>
      </trkpt>
      <trkpt lat="42.42768" lon="2.27544">
        <ele>2383.6000976562</ele>
        <time>2023-07-17T09:13:54.000Z</time>
      </trkpt>
      <trkpt lat="42.42768" lon="2.2753">
        <ele>2383.1999511719</ele>
        <time>2023-07-17T09:14:02.000Z</time>
      </trkpt>
      <trkpt lat="42.42766" lon="2.27518">
        <ele>2382.3999023438</ele>
        <time>2023-07-17T09:14:09.000Z</time>
      </trkpt>
      <trkpt lat="42.42766" lon="2.27515">
        <ele>2382.3999023438</ele>
        <time>2023-07-17T09:14:11.000Z</time>
      </trkpt>
      <trkpt lat="42.42766" lon="2.27504">
        <ele>2382</ele>
        <time>2023-07-17T09:14:17.000Z</time>
      </trkpt>
      <trkpt lat="42.42766" lon="2.27492">
        <ele>2382.1999511719</ele>
        <time>2023-07-17T09:14:25.000Z</time>
      </trkpt>
      <trkpt lat="42.42767" lon="2.27481">
        <ele>2382.3999023438</ele>
        <time>2023-07-17T09:14:32.000Z</time>
      </trkpt>
      <trkpt lat="42.42768" lon="2.27472">
        <ele>2383.1999511719</ele>
        <time>2023-07-17T09:14:39.000Z</time>
      </trkpt>
      <trkpt lat="42.4277" lon="2.27461">
        <ele>2383.3999023438</ele>
        <time>2023-07-17T09:14:47.000Z</time>
      </trkpt>
      <trkpt lat="42.42773" lon="2.27448">
        <ele>2383.3999023438</ele>
        <time>2023-07-17T09:14:55.000Z</time>
      </trkpt>
      <trkpt lat="42.42774" lon="2.27435">
        <ele>2382.6000976562</ele>
        <time>2023-07-17T09:15:03.000Z</time>
      </trkpt>
      <trkpt lat="42.42775" lon="2.27422">
        <ele>2381.6000976562</ele>
        <time>2023-07-17T09:15:11.000Z</time>
      </trkpt>
      <trkpt lat="42.42775" lon="2.27417">
        <ele>2381.3999023438</ele>
        <time>2023-07-17T09:15:15.000Z</time>
      </trkpt>
      <trkpt lat="42.42775" lon="2.27412">
        <ele>2381</ele>
        <time>2023-07-17T09:15:18.000Z</time>
      </trkpt>
      <trkpt lat="42.42775" lon="2.27411">
        <ele>2380.6000976562</ele>
        <time>2023-07-17T09:15:23.000Z</time>
      </trkpt>
      <trkpt lat="42.42775" lon="2.27411">
        <ele>2380.6000976562</ele>
        <time>2023-07-17T09:15:24.000Z</time>
      </trkpt>
      <trkpt lat="42.42775" lon="2.27411">
        <ele>2380.3999023438</ele>
        <time>2023-07-17T09:15:26.000Z</time>
      </trkpt>
      <trkpt lat="42.42775" lon="2.27411">
        <ele>2380.1999511719</ele>
        <time>2023-07-17T09:15:28.000Z</time>
      </trkpt>
      <trkpt lat="42.42774" lon="2.2741">
        <ele>2380</ele>
        <time>2023-07-17T09:15:33.000Z</time>
      </trkpt>
      <trkpt lat="42.42776" lon="2.27411">
        <ele>2379.3999023438</ele>
        <time>2023-07-17T09:15:44.000Z</time>
      </trkpt>
      <trkpt lat="42.42779" lon="2.27413">
        <ele>2379.3999023438</ele>
        <time>2023-07-17T09:15:53.000Z</time>
      </trkpt>
      <trkpt lat="42.42776" lon="2.27412">
        <ele>2379.8000488281</ele>
        <time>2023-07-17T09:16:02.000Z</time>
      </trkpt>
      <trkpt lat="42.42775" lon="2.27412">
        <ele>2380.3999023438</ele>
        <time>2023-07-17T09:16:09.000Z</time>
      </trkpt>
      <trkpt lat="42.42775" lon="2.27414">
        <ele>2380.3999023438</ele>
        <time>2023-07-17T09:16:18.000Z</time>
      </trkpt>
      <trkpt lat="42.42777" lon="2.27416">
        <ele>2379.8000488281</ele>
        <time>2023-07-17T09:16:25.000Z</time>
      </trkpt>
      <trkpt lat="42.42779" lon="2.27417">
        <ele>2379</ele>
        <time>2023-07-17T09:16:33.000Z</time>
      </trkpt>
      <trkpt lat="42.42778" lon="2.27415">
        <ele>2378.8000488281</ele>
        <time>2023-07-17T09:16:36.000Z</time>
      </trkpt>
      <trkpt lat="42.42776" lon="2.27409">
        <ele>2378.8000488281</ele>
        <time>2023-07-17T09:16:44.000Z</time>
      </trkpt>
      <trkpt lat="42.42776" lon="2.27401">
        <ele>2377.8000488281</ele>
        <time>2023-07-17T09:16:49.000Z</time>
      </trkpt>
      <trkpt lat="42.42776" lon="2.27399">
        <ele>2376.6000976562</ele>
        <time>2023-07-17T09:16:52.000Z</time>
      </trkpt>
      <trkpt lat="42.42777" lon="2.27393">
        <ele>2375.3999023438</ele>
        <time>2023-07-17T09:16:56.000Z</time>
      </trkpt>
      <trkpt lat="42.42777" lon="2.27391">
        <ele>2374.8000488281</ele>
        <time>2023-07-17T09:16:58.000Z</time>
      </trkpt>
      <trkpt lat="42.42777" lon="2.27385">
        <ele>2374.1999511719</ele>
        <time>2023-07-17T09:17:02.000Z</time>
      </trkpt>
      <trkpt lat="42.42776" lon="2.27379">
        <ele>2373.3999023438</ele>
        <time>2023-07-17T09:17:05.000Z</time>
      </trkpt>
      <trkpt lat="42.42772" lon="2.2737">
        <ele>2373.8000488281</ele>
        <time>2023-07-17T09:17:13.000Z</time>
      </trkpt>
      <trkpt lat="42.42769" lon="2.2736">
        <ele>2373.3999023438</ele>
        <time>2023-07-17T09:17:21.000Z</time>
      </trkpt>
      <trkpt lat="42.42765" lon="2.27345">
        <ele>2373.1999511719</ele>
        <time>2023-07-17T09:17:32.000Z</time>
      </trkpt>
      <trkpt lat="42.42764" lon="2.27338">
        <ele>2373.8000488281</ele>
        <time>2023-07-17T09:17:40.000Z</time>
      </trkpt>
      <trkpt lat="42.42764" lon="2.27333">
        <ele>2375.3999023438</ele>
        <time>2023-07-17T09:17:44.000Z</time>
      </trkpt>
      <trkpt lat="42.42763" lon="2.27332">
        <ele>2375.6000976562</ele>
        <time>2023-07-17T09:17:45.000Z</time>
      </trkpt>
      <trkpt lat="42.42761" lon="2.27318">
        <ele>2374.1999511719</ele>
        <time>2023-07-17T09:17:54.000Z</time>
      </trkpt>
      <trkpt lat="42.42761" lon="2.27316">
        <ele>2373</ele>
        <time>2023-07-17T09:17:56.000Z</time>
      </trkpt>
      <trkpt lat="42.42761" lon="2.27313">
        <ele>2372</ele>
        <time>2023-07-17T09:17:59.000Z</time>
      </trkpt>
      <trkpt lat="42.4276" lon="2.2731">
        <ele>2370.3999023438</ele>
        <time>2023-07-17T09:18:02.000Z</time>
      </trkpt>
      <trkpt lat="42.4276" lon="2.27309">
        <ele>2370.1999511719</ele>
        <time>2023-07-17T09:18:03.000Z</time>
      </trkpt>
      <trkpt lat="42.42761" lon="2.27305">
        <ele>2369.3999023438</ele>
        <time>2023-07-17T09:18:06.000Z</time>
      </trkpt>
      <trkpt lat="42.42763" lon="2.27302">
        <ele>2369</ele>
        <time>2023-07-17T09:18:10.000Z</time>
      </trkpt>
      <trkpt lat="42.42765" lon="2.27296">
        <ele>2368.6000976562</ele>
        <time>2023-07-17T09:18:20.000Z</time>
      </trkpt>
      <trkpt lat="42.42767" lon="2.27292">
        <ele>2368.3999023438</ele>
        <time>2023-07-17T09:18:24.000Z</time>
      </trkpt>
      <trkpt lat="42.42769" lon="2.27286">
        <ele>2368</ele>
        <time>2023-07-17T09:18:29.000Z</time>
      </trkpt>
      <trkpt lat="42.42774" lon="2.27281">
        <ele>2367.1999511719</ele>
        <time>2023-07-17T09:18:35.000Z</time>
      </trkpt>
      <trkpt lat="42.42776" lon="2.27279">
        <ele>2366</ele>
        <time>2023-07-17T09:18:38.000Z</time>
      </trkpt>
      <trkpt lat="42.42777" lon="2.27278">
        <ele>2364.6000976562</ele>
        <time>2023-07-17T09:18:40.000Z</time>
      </trkpt>
      <trkpt lat="42.42778" lon="2.27277">
        <ele>2363.6000976562</ele>
        <time>2023-07-17T09:18:42.000Z</time>
      </trkpt>
      <trkpt lat="42.4278" lon="2.27275">
        <ele>2362.8000488281</ele>
        <time>2023-07-17T09:18:46.000Z</time>
      </trkpt>
      <trkpt lat="42.4278" lon="2.27275">
        <ele>2362.3999023438</ele>
        <time>2023-07-17T09:18:47.000Z</time>
      </trkpt>
      <trkpt lat="42.4278" lon="2.27275">
        <ele>2361.6000976562</ele>
        <time>2023-07-17T09:18:50.000Z</time>
      </trkpt>
      <trkpt lat="42.4278" lon="2.27275">
        <ele>2361.3999023438</ele>
        <time>2023-07-17T09:18:51.000Z</time>
      </trkpt>
      <trkpt lat="42.4278" lon="2.27275">
        <ele>2361.1999511719</ele>
        <time>2023-07-17T09:18:52.000Z</time>
      </trkpt>
      <trkpt lat="42.4278" lon="2.27274">
        <ele>2359.8000488281</ele>
        <time>2023-07-17T09:18:55.000Z</time>
      </trkpt>
      <trkpt lat="42.42776" lon="2.27274">
        <ele>2359.6000976562</ele>
        <time>2023-07-17T09:19:01.000Z</time>
      </trkpt>
      <trkpt lat="42.4278" lon="2.27274">
        <ele>2359.6000976562</ele>
        <time>2023-07-17T09:19:09.000Z</time>
      </trkpt>
      <trkpt lat="42.42778" lon="2.27272">
        <ele>2360.8000488281</ele>
        <time>2023-07-17T09:19:15.000Z</time>
      </trkpt>
      <trkpt lat="42.42778" lon="2.27271">
        <ele>2361.6000976562</ele>
        <time>2023-07-17T09:19:16.000Z</time>
      </trkpt>
      <trkpt lat="42.42777" lon="2.2727">
        <ele>2362</ele>
        <time>2023-07-17T09:19:17.000Z</time>
      </trkpt>
      <trkpt lat="42.42777" lon="2.2727">
        <ele>2363.1999511719</ele>
        <time>2023-07-17T09:19:21.000Z</time>
      </trkpt>
      <trkpt lat="42.42778" lon="2.27269">
        <ele>2363</ele>
        <time>2023-07-17T09:19:25.000Z</time>
      </trkpt>
      <trkpt lat="42.42779" lon="2.27268">
        <ele>2361.3999023438</ele>
        <time>2023-07-17T09:19:27.000Z</time>
      </trkpt>
      <trkpt lat="42.42781" lon="2.27267">
        <ele>2359.1999511719</ele>
        <time>2023-07-17T09:19:32.000Z</time>
      </trkpt>
      <trkpt lat="42.42782" lon="2.27268">
        <ele>2359</ele>
        <time>2023-07-17T09:19:35.000Z</time>
      </trkpt>
      <trkpt lat="42.42779" lon="2.27268">
        <ele>2359.1999511719</ele>
        <time>2023-07-17T09:19:43.000Z</time>
      </trkpt>
      <trkpt lat="42.4278" lon="2.2727">
        <ele>2359.3999023438</ele>
        <time>2023-07-17T09:19:51.000Z</time>
      </trkpt>
      <trkpt lat="42.42783" lon="2.27264">
        <ele>2358.3999023438</ele>
        <time>2023-07-17T09:19:59.000Z</time>
      </trkpt>
      <trkpt lat="42.42783" lon="2.27263">
        <ele>2358</ele>
        <time>2023-07-17T09:20:00.000Z</time>
      </trkpt>
      <trkpt lat="42.42785" lon="2.27263">
        <ele>2357</ele>
        <time>2023-07-17T09:20:04.000Z</time>
      </trkpt>
      <trkpt lat="42.42786" lon="2.27264">
        <ele>2356</ele>
        <time>2023-07-17T09:20:07.000Z</time>
      </trkpt>
      <trkpt lat="42.42786" lon="2.27263">
        <ele>2354.8000488281</ele>
        <time>2023-07-17T09:20:10.000Z</time>
      </trkpt>
      <trkpt lat="42.42791" lon="2.27262">
        <ele>2354.8000488281</ele>
        <time>2023-07-17T09:20:16.000Z</time>
      </trkpt>
      <trkpt lat="42.42798" lon="2.27257">
        <ele>2353.8000488281</ele>
        <time>2023-07-17T09:20:22.000Z</time>
      </trkpt>
      <trkpt lat="42.42802" lon="2.27258">
        <ele>2352.6000976562</ele>
        <time>2023-07-17T09:20:27.000Z</time>
      </trkpt>
      <trkpt lat="42.42804" lon="2.2726">
        <ele>2351.8000488281</ele>
        <time>2023-07-17T09:20:30.000Z</time>
      </trkpt>
      <trkpt lat="42.42804" lon="2.2726">
        <ele>2351.3999023438</ele>
        <time>2023-07-17T09:20:32.000Z</time>
      </trkpt>
      <trkpt lat="42.42806" lon="2.27259">
        <ele>2350.6000976562</ele>
        <time>2023-07-17T09:20:35.000Z</time>
      </trkpt>
      <trkpt lat="42.42806" lon="2.27259">
        <ele>2350.3999023438</ele>
        <time>2023-07-17T09:20:36.000Z</time>
      </trkpt>
      <trkpt lat="42.42809" lon="2.27258">
        <ele>2349</ele>
        <time>2023-07-17T09:20:39.000Z</time>
      </trkpt>
      <trkpt lat="42.42812" lon="2.27257">
        <ele>2348.1999511719</ele>
        <time>2023-07-17T09:20:42.000Z</time>
      </trkpt>
      <trkpt lat="42.42813" lon="2.27257">
        <ele>2348</ele>
        <time>2023-07-17T09:20:43.000Z</time>
      </trkpt>
      <trkpt lat="42.42817" lon="2.27255">
        <ele>2347</ele>
        <time>2023-07-17T09:20:47.000Z</time>
      </trkpt>
      <trkpt lat="42.42818" lon="2.27254">
        <ele>2345.3999023438</ele>
        <time>2023-07-17T09:20:49.000Z</time>
      </trkpt>
      <trkpt lat="42.4282" lon="2.27253">
        <ele>2344.8000488281</ele>
        <time>2023-07-17T09:20:51.000Z</time>
      </trkpt>
      <trkpt lat="42.42823" lon="2.2725">
        <ele>2344.3999023438</ele>
        <time>2023-07-17T09:20:54.000Z</time>
      </trkpt>
      <trkpt lat="42.42826" lon="2.27248">
        <ele>2343.1999511719</ele>
        <time>2023-07-17T09:20:58.000Z</time>
      </trkpt>
      <trkpt lat="42.42831" lon="2.27243">
        <ele>2342.1999511719</ele>
        <time>2023-07-17T09:21:03.000Z</time>
      </trkpt>
      <trkpt lat="42.42832" lon="2.27242">
        <ele>2342</ele>
        <time>2023-07-17T09:21:04.000Z</time>
      </trkpt>
      <trkpt lat="42.42836" lon="2.2724">
        <ele>2341</ele>
        <time>2023-07-17T09:21:08.000Z</time>
      </trkpt>
      <trkpt lat="42.42837" lon="2.27239">
        <ele>2340.1999511719</ele>
        <time>2023-07-17T09:21:10.000Z</time>
      </trkpt>
      <trkpt lat="42.42838" lon="2.27238">
        <ele>2339.3999023438</ele>
        <time>2023-07-17T09:21:11.000Z</time>
      </trkpt>
      <trkpt lat="42.4284" lon="2.27235">
        <ele>2340.6000976562</ele>
        <time>2023-07-17T09:21:16.000Z</time>
      </trkpt>
      <trkpt lat="42.42841" lon="2.27234">
        <ele>2341</ele>
        <time>2023-07-17T09:21:17.000Z</time>
      </trkpt>
      <trkpt lat="42.42844" lon="2.27229">
        <ele>2339</ele>
        <time>2023-07-17T09:21:24.000Z</time>
      </trkpt>
      <trkpt lat="42.42846" lon="2.27227">
        <ele>2338.1999511719</ele>
        <time>2023-07-17T09:21:27.000Z</time>
      </trkpt>
      <trkpt lat="42.42846" lon="2.27227">
        <ele>2337.8000488281</ele>
        <time>2023-07-17T09:21:28.000Z</time>
      </trkpt>
      <trkpt lat="42.42848" lon="2.27226">
        <ele>2336.8000488281</ele>
        <time>2023-07-17T09:21:33.000Z</time>
      </trkpt>
      <trkpt lat="42.4285" lon="2.27223">
        <ele>2336.6000976562</ele>
        <time>2023-07-17T09:21:36.000Z</time>
      </trkpt>
      <trkpt lat="42.42853" lon="2.27216">
        <ele>2335.8000488281</ele>
        <time>2023-07-17T09:21:44.000Z</time>
      </trkpt>
      <trkpt lat="42.42858" lon="2.27211">
        <ele>2335.6000976562</ele>
        <time>2023-07-17T09:21:51.000Z</time>
      </trkpt>
      <trkpt lat="42.42863" lon="2.27203">
        <ele>2334.8000488281</ele>
        <time>2023-07-17T09:21:58.000Z</time>
      </trkpt>
      <trkpt lat="42.42865" lon="2.27201">
        <ele>2334.3999023438</ele>
        <time>2023-07-17T09:22:00.000Z</time>
      </trkpt>
      <trkpt lat="42.42867" lon="2.27199">
        <ele>2333.8000488281</ele>
        <time>2023-07-17T09:22:03.000Z</time>
      </trkpt>
      <trkpt lat="42.42869" lon="2.27197">
        <ele>2333</ele>
        <time>2023-07-17T09:22:08.000Z</time>
      </trkpt>
      <trkpt lat="42.4287" lon="2.27195">
        <ele>2332.8000488281</ele>
        <time>2023-07-17T09:22:11.000Z</time>
      </trkpt>
      <trkpt lat="42.42874" lon="2.27192">
        <ele>2331.8000488281</ele>
        <time>2023-07-17T09:22:17.000Z</time>
      </trkpt>
      <trkpt lat="42.42875" lon="2.27192">
        <ele>2331.6000976562</ele>
        <time>2023-07-17T09:22:18.000Z</time>
      </trkpt>
      <trkpt lat="42.42878" lon="2.2719">
        <ele>2331</ele>
        <time>2023-07-17T09:22:25.000Z</time>
      </trkpt>
      <trkpt lat="42.42879" lon="2.27188">
        <ele>2330.6000976562</ele>
        <time>2023-07-17T09:22:27.000Z</time>
      </trkpt>
      <trkpt lat="42.42882" lon="2.27184">
        <ele>2330</ele>
        <time>2023-07-17T09:22:31.000Z</time>
      </trkpt>
      <trkpt lat="42.42884" lon="2.27182">
        <ele>2329.3999023438</ele>
        <time>2023-07-17T09:22:34.000Z</time>
      </trkpt>
      <trkpt lat="42.42887" lon="2.27181">
        <ele>2328.3999023438</ele>
        <time>2023-07-17T09:22:38.000Z</time>
      </trkpt>
      <trkpt lat="42.42888" lon="2.27181">
        <ele>2328.1999511719</ele>
        <time>2023-07-17T09:22:39.000Z</time>
      </trkpt>
      <trkpt lat="42.42894" lon="2.27177">
        <ele>2325.8000488281</ele>
        <time>2023-07-17T09:22:48.000Z</time>
      </trkpt>
      <trkpt lat="42.42894" lon="2.27177">
        <ele>2324.8000488281</ele>
        <time>2023-07-17T09:22:50.000Z</time>
      </trkpt>
      <trkpt lat="42.42894" lon="2.27169">
        <ele>2324.8000488281</ele>
        <time>2023-07-17T09:22:58.000Z</time>
      </trkpt>
      <trkpt lat="42.42897" lon="2.27169">
        <ele>2323.6000976562</ele>
        <time>2023-07-17T09:23:03.000Z</time>
      </trkpt>
      <trkpt lat="42.42898" lon="2.27168">
        <ele>2323.6000976562</ele>
        <time>2023-07-17T09:23:04.000Z</time>
      </trkpt>
      <trkpt lat="42.42899" lon="2.27163">
        <ele>2322.3999023438</ele>
        <time>2023-07-17T09:23:09.000Z</time>
      </trkpt>
      <trkpt lat="42.42899" lon="2.27161">
        <ele>2322.1999511719</ele>
        <time>2023-07-17T09:23:11.000Z</time>
      </trkpt>
      <trkpt lat="42.429" lon="2.27161">
        <ele>2321.3999023438</ele>
        <time>2023-07-17T09:23:14.000Z</time>
      </trkpt>
      <trkpt lat="42.42901" lon="2.27158">
        <ele>2320.3999023438</ele>
        <time>2023-07-17T09:23:18.000Z</time>
      </trkpt>
      <trkpt lat="42.42902" lon="2.27157">
        <ele>2320.1999511719</ele>
        <time>2023-07-17T09:23:19.000Z</time>
      </trkpt>
      <trkpt lat="42.42906" lon="2.27151">
        <ele>2319.3999023438</ele>
        <time>2023-07-17T09:23:26.000Z</time>
      </trkpt>
      <trkpt lat="42.42906" lon="2.2715">
        <ele>2319.1999511719</ele>
        <time>2023-07-17T09:23:27.000Z</time>
      </trkpt>
      <trkpt lat="42.42916" lon="2.27147">
        <ele>2318.6000976562</ele>
        <time>2023-07-17T09:23:35.000Z</time>
      </trkpt>
      <trkpt lat="42.42918" lon="2.27147">
        <ele>2317.8000488281</ele>
        <time>2023-07-17T09:23:38.000Z</time>
      </trkpt>
      <trkpt lat="42.42925" lon="2.27142">
        <ele>2314.6000976562</ele>
        <time>2023-07-17T09:23:47.000Z</time>
      </trkpt>
      <trkpt lat="42.42927" lon="2.2714">
        <ele>2314.3999023438</ele>
        <time>2023-07-17T09:23:49.000Z</time>
      </trkpt>
      <trkpt lat="42.42933" lon="2.2714">
        <ele>2313</ele>
        <time>2023-07-17T09:23:54.000Z</time>
      </trkpt>
      <trkpt lat="42.42937" lon="2.2714">
        <ele>2312</ele>
        <time>2023-07-17T09:23:58.000Z</time>
      </trkpt>
      <trkpt lat="42.42941" lon="2.27141">
        <ele>2309.8000488281</ele>
        <time>2023-07-17T09:24:05.000Z</time>
      </trkpt>
      <trkpt lat="42.42943" lon="2.27139">
        <ele>2308.3999023438</ele>
        <time>2023-07-17T09:24:08.000Z</time>
      </trkpt>
      <trkpt lat="42.42946" lon="2.27137">
        <ele>2307.1999511719</ele>
        <time>2023-07-17T09:24:12.000Z</time>
      </trkpt>
      <trkpt lat="42.42948" lon="2.27137">
        <ele>2306.1999511719</ele>
        <time>2023-07-17T09:24:15.000Z</time>
      </trkpt>
      <trkpt lat="42.4295" lon="2.27138">
        <ele>2305.1999511719</ele>
        <time>2023-07-17T09:24:17.000Z</time>
      </trkpt>
      <trkpt lat="42.42951" lon="2.27137">
        <ele>2305</ele>
        <time>2023-07-17T09:24:18.000Z</time>
      </trkpt>
      <trkpt lat="42.42954" lon="2.27137">
        <ele>2304.8000488281</ele>
        <time>2023-07-17T09:24:22.000Z</time>
      </trkpt>
      <trkpt lat="42.42956" lon="2.27135">
        <ele>2303.8000488281</ele>
        <time>2023-07-17T09:24:24.000Z</time>
      </trkpt>
      <trkpt lat="42.42957" lon="2.27132">
        <ele>2304.1999511719</ele>
        <time>2023-07-17T09:24:28.000Z</time>
      </trkpt>
      <trkpt lat="42.42965" lon="2.27127">
        <ele>2302.8000488281</ele>
        <time>2023-07-17T09:24:36.000Z</time>
      </trkpt>
      <trkpt lat="42.42966" lon="2.27127">
        <ele>2302.8000488281</ele>
        <time>2023-07-17T09:24:37.000Z</time>
      </trkpt>
      <trkpt lat="42.42966" lon="2.27126">
        <ele>2302</ele>
        <time>2023-07-17T09:24:42.000Z</time>
      </trkpt>
      <trkpt lat="42.42966" lon="2.27126">
        <ele>2301.6000976562</ele>
        <time>2023-07-17T09:24:44.000Z</time>
      </trkpt>
      <trkpt lat="42.42967" lon="2.27122">
        <ele>2301.6000976562</ele>
        <time>2023-07-17T09:24:49.000Z</time>
      </trkpt>
      <trkpt lat="42.42967" lon="2.27118">
        <ele>2301.1999511719</ele>
        <time>2023-07-17T09:24:57.000Z</time>
      </trkpt>
      <trkpt lat="42.42967" lon="2.27117">
        <ele>2300.6000976562</ele>
        <time>2023-07-17T09:25:00.000Z</time>
      </trkpt>
      <trkpt lat="42.42966" lon="2.27112">
        <ele>2300.1999511719</ele>
        <time>2023-07-17T09:25:05.000Z</time>
      </trkpt>
      <trkpt lat="42.42967" lon="2.27105">
        <ele>2300.6000976562</ele>
        <time>2023-07-17T09:25:12.000Z</time>
      </trkpt>
      <trkpt lat="42.42968" lon="2.27101">
        <ele>2299.3999023438</ele>
        <time>2023-07-17T09:25:19.000Z</time>
      </trkpt>
      <trkpt lat="42.42969" lon="2.27097">
        <ele>2299</ele>
        <time>2023-07-17T09:25:23.000Z</time>
      </trkpt>
      <trkpt lat="42.42969" lon="2.27096">
        <ele>2298.1999511719</ele>
        <time>2023-07-17T09:25:24.000Z</time>
      </trkpt>
      <trkpt lat="42.42968" lon="2.27091">
        <ele>2298.1999511719</ele>
        <time>2023-07-17T09:25:31.000Z</time>
      </trkpt>
      <trkpt lat="42.42969" lon="2.27086">
        <ele>2298.3999023438</ele>
        <time>2023-07-17T09:25:37.000Z</time>
      </trkpt>
      <trkpt lat="42.42971" lon="2.27082">
        <ele>2297.1999511719</ele>
        <time>2023-07-17T09:25:42.000Z</time>
      </trkpt>
      <trkpt lat="42.42974" lon="2.2708">
        <ele>2296</ele>
        <time>2023-07-17T09:25:46.000Z</time>
      </trkpt>
      <trkpt lat="42.42975" lon="2.27079">
        <ele>2294.8000488281</ele>
        <time>2023-07-17T09:25:48.000Z</time>
      </trkpt>
      <trkpt lat="42.42978" lon="2.27077">
        <ele>2293.6000976562</ele>
        <time>2023-07-17T09:25:54.000Z</time>
      </trkpt>
      <trkpt lat="42.42979" lon="2.27075">
        <ele>2293</ele>
        <time>2023-07-17T09:25:56.000Z</time>
      </trkpt>
      <trkpt lat="42.42977" lon="2.27073">
        <ele>2292.6000976562</ele>
        <time>2023-07-17T09:26:00.000Z</time>
      </trkpt>
      <trkpt lat="42.42977" lon="2.2707">
        <ele>2292</ele>
        <time>2023-07-17T09:26:02.000Z</time>
      </trkpt>
      <trkpt lat="42.42981" lon="2.27066">
        <ele>2291.6000976562</ele>
        <time>2023-07-17T09:26:07.000Z</time>
      </trkpt>
      <trkpt lat="42.42983" lon="2.27065">
        <ele>2291.6000976562</ele>
        <time>2023-07-17T09:26:09.000Z</time>
      </trkpt>
      <trkpt lat="42.42986" lon="2.27063">
        <ele>2290.3999023438</ele>
        <time>2023-07-17T09:26:13.000Z</time>
      </trkpt>
      <trkpt lat="42.42987" lon="2.27061">
        <ele>2289.6000976562</ele>
        <time>2023-07-17T09:26:16.000Z</time>
      </trkpt>
      <trkpt lat="42.42988" lon="2.2706">
        <ele>2289.3999023438</ele>
        <time>2023-07-17T09:26:17.000Z</time>
      </trkpt>
      <trkpt lat="42.42988" lon="2.27059">
        <ele>2289.1999511719</ele>
        <time>2023-07-17T09:26:18.000Z</time>
      </trkpt>
      <trkpt lat="42.42989" lon="2.27052">
        <ele>2289</ele>
        <time>2023-07-17T09:26:22.000Z</time>
      </trkpt>
      <trkpt lat="42.42984" lon="2.27047">
        <ele>2288.8000488281</ele>
        <time>2023-07-17T09:26:28.000Z</time>
      </trkpt>
      <trkpt lat="42.42979" lon="2.27044">
        <ele>2289</ele>
        <time>2023-07-17T09:26:35.000Z</time>
      </trkpt>
      <trkpt lat="42.42971" lon="2.2704">
        <ele>2288.1999511719</ele>
        <time>2023-07-17T09:26:42.000Z</time>
      </trkpt>
      <trkpt lat="42.4297" lon="2.27039">
        <ele>2288</ele>
        <time>2023-07-17T09:26:43.000Z</time>
      </trkpt>
      <trkpt lat="42.42968" lon="2.27037">
        <ele>2287</ele>
        <time>2023-07-17T09:26:47.000Z</time>
      </trkpt>
      <trkpt lat="42.42966" lon="2.27033">
        <ele>2286.6000976562</ele>
        <time>2023-07-17T09:26:50.000Z</time>
      </trkpt>
      <trkpt lat="42.42962" lon="2.2703">
        <ele>2285.8000488281</ele>
        <time>2023-07-17T09:26:53.000Z</time>
      </trkpt>
      <trkpt lat="42.42958" lon="2.27027">
        <ele>2284.8000488281</ele>
        <time>2023-07-17T09:26:57.000Z</time>
      </trkpt>
      <trkpt lat="42.42957" lon="2.27026">
        <ele>2284.3999023438</ele>
        <time>2023-07-17T09:26:58.000Z</time>
      </trkpt>
      <trkpt lat="42.42955" lon="2.27021">
        <ele>2283.3999023438</ele>
        <time>2023-07-17T09:27:05.000Z</time>
      </trkpt>
      <trkpt lat="42.42953" lon="2.27017">
        <ele>2282.1999511719</ele>
        <time>2023-07-17T09:27:09.000Z</time>
      </trkpt>
      <trkpt lat="42.42952" lon="2.27016">
        <ele>2281.3999023438</ele>
        <time>2023-07-17T09:27:12.000Z</time>
      </trkpt>
      <trkpt lat="42.42952" lon="2.27015">
        <ele>2281.1999511719</ele>
        <time>2023-07-17T09:27:13.000Z</time>
      </trkpt>
      <trkpt lat="42.42952" lon="2.27011">
        <ele>2280</ele>
        <time>2023-07-17T09:27:17.000Z</time>
      </trkpt>
      <trkpt lat="42.4295" lon="2.27008">
        <ele>2279.3999023438</ele>
        <time>2023-07-17T09:27:21.000Z</time>
      </trkpt>
      <trkpt lat="42.4295" lon="2.2701">
        <ele>2278.8000488281</ele>
        <time>2023-07-17T09:27:24.000Z</time>
      </trkpt>
      <trkpt lat="42.42948" lon="2.2701">
        <ele>2278.1999511719</ele>
        <time>2023-07-17T09:27:27.000Z</time>
      </trkpt>
      <trkpt lat="42.42949" lon="2.27014">
        <ele>2277.8000488281</ele>
        <time>2023-07-17T09:27:33.000Z</time>
      </trkpt>
      <trkpt lat="42.4295" lon="2.27014">
        <ele>2277.8000488281</ele>
        <time>2023-07-17T09:27:36.000Z</time>
      </trkpt>
      <trkpt lat="42.42949" lon="2.2701">
        <ele>2277.6000976562</ele>
        <time>2023-07-17T09:27:41.000Z</time>
      </trkpt>
      <trkpt lat="42.42947" lon="2.27013">
        <ele>2277.6000976562</ele>
        <time>2023-07-17T09:27:48.000Z</time>
      </trkpt>
      <trkpt lat="42.42949" lon="2.27013">
        <ele>2277.1999511719</ele>
        <time>2023-07-17T09:27:56.000Z</time>
      </trkpt>
      <trkpt lat="42.42949" lon="2.27011">
        <ele>2277.1999511719</ele>
        <time>2023-07-17T09:28:03.000Z</time>
      </trkpt>
      <trkpt lat="42.4295" lon="2.27011">
        <ele>2276.6000976562</ele>
        <time>2023-07-17T09:28:09.000Z</time>
      </trkpt>
      <trkpt lat="42.42951" lon="2.27009">
        <ele>2276.3999023438</ele>
        <time>2023-07-17T09:28:14.000Z</time>
      </trkpt>
      <trkpt lat="42.42953" lon="2.2702">
        <ele>2277.3999023438</ele>
        <time>2023-07-17T09:28:23.000Z</time>
      </trkpt>
      <trkpt lat="42.42953" lon="2.27018">
        <ele>2277.1999511719</ele>
        <time>2023-07-17T09:28:32.000Z</time>
      </trkpt>
      <trkpt lat="42.4295" lon="2.27013">
        <ele>2277.3999023438</ele>
        <time>2023-07-17T09:28:41.000Z</time>
      </trkpt>
      <trkpt lat="42.42949" lon="2.27007">
        <ele>2276.8000488281</ele>
        <time>2023-07-17T09:28:48.000Z</time>
      </trkpt>
      <trkpt lat="42.42948" lon="2.27002">
        <ele>2276.6000976562</ele>
        <time>2023-07-17T09:28:54.000Z</time>
      </trkpt>
      <trkpt lat="42.42946" lon="2.26996">
        <ele>2276</ele>
        <time>2023-07-17T09:29:00.000Z</time>
      </trkpt>
      <trkpt lat="42.42945" lon="2.26989">
        <ele>2275.3999023438</ele>
        <time>2023-07-17T09:29:05.000Z</time>
      </trkpt>
      <trkpt lat="42.42945" lon="2.26986">
        <ele>2275.1999511719</ele>
        <time>2023-07-17T09:29:07.000Z</time>
      </trkpt>
      <trkpt lat="42.42945" lon="2.26981">
        <ele>2274.1999511719</ele>
        <time>2023-07-17T09:29:13.000Z</time>
      </trkpt>
      <trkpt lat="42.42944" lon="2.26979">
        <ele>2274</ele>
        <time>2023-07-17T09:29:15.000Z</time>
      </trkpt>
      <trkpt lat="42.42941" lon="2.26975">
        <ele>2273</ele>
        <time>2023-07-17T09:29:21.000Z</time>
      </trkpt>
      <trkpt lat="42.42941" lon="2.26975">
        <ele>2272.8000488281</ele>
        <time>2023-07-17T09:29:22.000Z</time>
      </trkpt>
      <trkpt lat="42.42938" lon="2.26974">
        <ele>2272</ele>
        <time>2023-07-17T09:29:28.000Z</time>
      </trkpt>
      <trkpt lat="42.42937" lon="2.26972">
        <ele>2271.6000976562</ele>
        <time>2023-07-17T09:29:30.000Z</time>
      </trkpt>
      <trkpt lat="42.42937" lon="2.2697">
        <ele>2271</ele>
        <time>2023-07-17T09:29:33.000Z</time>
      </trkpt>
      <trkpt lat="42.42937" lon="2.26968">
        <ele>2269.8000488281</ele>
        <time>2023-07-17T09:29:38.000Z</time>
      </trkpt>
      <trkpt lat="42.42937" lon="2.26967">
        <ele>2269.1999511719</ele>
        <time>2023-07-17T09:29:40.000Z</time>
      </trkpt>
      <trkpt lat="42.42936" lon="2.26965">
        <ele>2268.8000488281</ele>
        <time>2023-07-17T09:29:42.000Z</time>
      </trkpt>
      <trkpt lat="42.42934" lon="2.26962">
        <ele>2267.6000976562</ele>
        <time>2023-07-17T09:29:46.000Z</time>
      </trkpt>
      <trkpt lat="42.42933" lon="2.26961">
        <ele>2267.1999511719</ele>
        <time>2023-07-17T09:29:48.000Z</time>
      </trkpt>
      <trkpt lat="42.42932" lon="2.2696">
        <ele>2266.3999023438</ele>
        <time>2023-07-17T09:29:51.000Z</time>
      </trkpt>
      <trkpt lat="42.42931" lon="2.26957">
        <ele>2265.1999511719</ele>
        <time>2023-07-17T09:29:55.000Z</time>
      </trkpt>
      <trkpt lat="42.42929" lon="2.26955">
        <ele>2264</ele>
        <time>2023-07-17T09:30:01.000Z</time>
      </trkpt>
      <trkpt lat="42.42929" lon="2.26951">
        <ele>2262.8000488281</ele>
        <time>2023-07-17T09:30:06.000Z</time>
      </trkpt>
      <trkpt lat="42.42927" lon="2.26948">
        <ele>2262.1999511719</ele>
        <time>2023-07-17T09:30:10.000Z</time>
      </trkpt>
      <trkpt lat="42.42927" lon="2.26947">
        <ele>2261.6000976562</ele>
        <time>2023-07-17T09:30:12.000Z</time>
      </trkpt>
      <trkpt lat="42.42926" lon="2.26942">
        <ele>2260.6000976562</ele>
        <time>2023-07-17T09:30:17.000Z</time>
      </trkpt>
      <trkpt lat="42.42925" lon="2.26937">
        <ele>2259.6000976562</ele>
        <time>2023-07-17T09:30:22.000Z</time>
      </trkpt>
      <trkpt lat="42.42924" lon="2.26937">
        <ele>2258.8000488281</ele>
        <time>2023-07-17T09:30:25.000Z</time>
      </trkpt>
      <trkpt lat="42.42924" lon="2.26937">
        <ele>2258.3999023438</ele>
        <time>2023-07-17T09:30:26.000Z</time>
      </trkpt>
      <trkpt lat="42.42924" lon="2.26934">
        <ele>2257.3999023438</ele>
        <time>2023-07-17T09:30:31.000Z</time>
      </trkpt>
      <trkpt lat="42.42923" lon="2.26932">
        <ele>2257.1999511719</ele>
        <time>2023-07-17T09:30:32.000Z</time>
      </trkpt>
      <trkpt lat="42.42923" lon="2.2693">
        <ele>2256.1999511719</ele>
        <time>2023-07-17T09:30:34.000Z</time>
      </trkpt>
      <trkpt lat="42.42922" lon="2.26929">
        <ele>2255.1999511719</ele>
        <time>2023-07-17T09:30:37.000Z</time>
      </trkpt>
      <trkpt lat="42.4292" lon="2.2693">
        <ele>2254.1999511719</ele>
        <time>2023-07-17T09:30:40.000Z</time>
      </trkpt>
      <trkpt lat="42.42919" lon="2.26931">
        <ele>2254</ele>
        <time>2023-07-17T09:30:41.000Z</time>
      </trkpt>
      <trkpt lat="42.42918" lon="2.26932">
        <ele>2253</ele>
        <time>2023-07-17T09:30:44.000Z</time>
      </trkpt>
      <trkpt lat="42.42915" lon="2.26929">
        <ele>2251.8000488281</ele>
        <time>2023-07-17T09:30:47.000Z</time>
      </trkpt>
      <trkpt lat="42.42915" lon="2.26928">
        <ele>2251.3999023438</ele>
        <time>2023-07-17T09:30:48.000Z</time>
      </trkpt>
      <trkpt lat="42.42914" lon="2.26927">
        <ele>2250.8000488281</ele>
        <time>2023-07-17T09:30:51.000Z</time>
      </trkpt>
      <trkpt lat="42.42915" lon="2.26925">
        <ele>2250.3999023438</ele>
        <time>2023-07-17T09:30:55.000Z</time>
      </trkpt>
      <trkpt lat="42.42919" lon="2.26919">
        <ele>2251.8000488281</ele>
        <time>2023-07-17T09:31:07.000Z</time>
      </trkpt>
      <trkpt lat="42.42919" lon="2.26918">
        <ele>2251.8000488281</ele>
        <time>2023-07-17T09:31:08.000Z</time>
      </trkpt>
      <trkpt lat="42.42918" lon="2.26912">
        <ele>2251</ele>
        <time>2023-07-17T09:31:16.000Z</time>
      </trkpt>
      <trkpt lat="42.42917" lon="2.26912">
        <ele>2250.6000976562</ele>
        <time>2023-07-17T09:31:18.000Z</time>
      </trkpt>
      <trkpt lat="42.42913" lon="2.26913">
        <ele>2249.6000976562</ele>
        <time>2023-07-17T09:31:24.000Z</time>
      </trkpt>
      <trkpt lat="42.42912" lon="2.26914">
        <ele>2249.1999511719</ele>
        <time>2023-07-17T09:31:25.000Z</time>
      </trkpt>
      <trkpt lat="42.42913" lon="2.26913">
        <ele>2248</ele>
        <time>2023-07-17T09:31:29.000Z</time>
      </trkpt>
      <trkpt lat="42.42911" lon="2.2691">
        <ele>2247</ele>
        <time>2023-07-17T09:31:32.000Z</time>
      </trkpt>
      <trkpt lat="42.42908" lon="2.26906">
        <ele>2246</ele>
        <time>2023-07-17T09:31:36.000Z</time>
      </trkpt>
      <trkpt lat="42.42907" lon="2.26904">
        <ele>2245.8000488281</ele>
        <time>2023-07-17T09:31:38.000Z</time>
      </trkpt>
      <trkpt lat="42.42903" lon="2.26892">
        <ele>2245.8000488281</ele>
        <time>2023-07-17T09:31:46.000Z</time>
      </trkpt>
      <trkpt lat="42.42898" lon="2.26891">
        <ele>2246.8000488281</ele>
        <time>2023-07-17T09:31:53.000Z</time>
      </trkpt>
      <trkpt lat="42.42896" lon="2.26894">
        <ele>2244.8000488281</ele>
        <time>2023-07-17T09:31:57.000Z</time>
      </trkpt>
      <trkpt lat="42.42895" lon="2.26893">
        <ele>2243.6000976562</ele>
        <time>2023-07-17T09:31:59.000Z</time>
      </trkpt>
      <trkpt lat="42.42894" lon="2.26891">
        <ele>2242.3999023438</ele>
        <time>2023-07-17T09:32:01.000Z</time>
      </trkpt>
      <trkpt lat="42.42893" lon="2.26889">
        <ele>2241.3999023438</ele>
        <time>2023-07-17T09:32:03.000Z</time>
      </trkpt>
      <trkpt lat="42.42893" lon="2.26888">
        <ele>2241</ele>
        <time>2023-07-17T09:32:04.000Z</time>
      </trkpt>
      <trkpt lat="42.42891" lon="2.26886">
        <ele>2240</ele>
        <time>2023-07-17T09:32:07.000Z</time>
      </trkpt>
      <trkpt lat="42.4289" lon="2.26884">
        <ele>2239.1999511719</ele>
        <time>2023-07-17T09:32:09.000Z</time>
      </trkpt>
      <trkpt lat="42.4289" lon="2.26884">
        <ele>2238.6000976562</ele>
        <time>2023-07-17T09:32:10.000Z</time>
      </trkpt>
      <trkpt lat="42.42889" lon="2.26883">
        <ele>2237.1999511719</ele>
        <time>2023-07-17T09:32:13.000Z</time>
      </trkpt>
      <trkpt lat="42.42887" lon="2.26879">
        <ele>2236</ele>
        <time>2023-07-17T09:32:17.000Z</time>
      </trkpt>
      <trkpt lat="42.42885" lon="2.26874">
        <ele>2234.8000488281</ele>
        <time>2023-07-17T09:32:21.000Z</time>
      </trkpt>
      <trkpt lat="42.42883" lon="2.2687">
        <ele>2234</ele>
        <time>2023-07-17T09:32:24.000Z</time>
      </trkpt>
      <trkpt lat="42.42883" lon="2.26869">
        <ele>2233.8000488281</ele>
        <time>2023-07-17T09:32:25.000Z</time>
      </trkpt>
      <trkpt lat="42.42881" lon="2.26865">
        <ele>2232.6000976562</ele>
        <time>2023-07-17T09:32:28.000Z</time>
      </trkpt>
      <trkpt lat="42.42879" lon="2.26862">
        <ele>2231.6000976562</ele>
        <time>2023-07-17T09:32:32.000Z</time>
      </trkpt>
      <trkpt lat="42.42874" lon="2.26856">
        <ele>2230.6000976562</ele>
        <time>2023-07-17T09:32:37.000Z</time>
      </trkpt>
      <trkpt lat="42.42874" lon="2.26856">
        <ele>2230.3999023438</ele>
        <time>2023-07-17T09:32:38.000Z</time>
      </trkpt>
      <trkpt lat="42.42872" lon="2.26852">
        <ele>2229.6000976562</ele>
        <time>2023-07-17T09:32:42.000Z</time>
      </trkpt>
      <trkpt lat="42.42868" lon="2.26847">
        <ele>2228.3999023438</ele>
        <time>2023-07-17T09:32:48.000Z</time>
      </trkpt>
      <trkpt lat="42.42867" lon="2.26844">
        <ele>2227.3999023438</ele>
        <time>2023-07-17T09:32:53.000Z</time>
      </trkpt>
      <trkpt lat="42.42863" lon="2.26838">
        <ele>2226.3999023438</ele>
        <time>2023-07-17T09:33:02.000Z</time>
      </trkpt>
      <trkpt lat="42.42861" lon="2.26832">
        <ele>2225.1999511719</ele>
        <time>2023-07-17T09:33:10.000Z</time>
      </trkpt>
      <trkpt lat="42.42861" lon="2.26828">
        <ele>2224</ele>
        <time>2023-07-17T09:33:14.000Z</time>
      </trkpt>
      <trkpt lat="42.42861" lon="2.26824">
        <ele>2222.8000488281</ele>
        <time>2023-07-17T09:33:18.000Z</time>
      </trkpt>
      <trkpt lat="42.42861" lon="2.26818">
        <ele>2222.3999023438</ele>
        <time>2023-07-17T09:33:23.000Z</time>
      </trkpt>
      <trkpt lat="42.4286" lon="2.26814">
        <ele>2221.8000488281</ele>
        <time>2023-07-17T09:33:27.000Z</time>
      </trkpt>
      <trkpt lat="42.4286" lon="2.26812">
        <ele>2220.8000488281</ele>
        <time>2023-07-17T09:33:30.000Z</time>
      </trkpt>
      <trkpt lat="42.42859" lon="2.26811">
        <ele>2220.3999023438</ele>
        <time>2023-07-17T09:33:31.000Z</time>
      </trkpt>
      <trkpt lat="42.42856" lon="2.26801">
        <ele>2219.6000976562</ele>
        <time>2023-07-17T09:33:39.000Z</time>
      </trkpt>
      <trkpt lat="42.42855" lon="2.26797">
        <ele>2219.1999511719</ele>
        <time>2023-07-17T09:33:42.000Z</time>
      </trkpt>
      <trkpt lat="42.42855" lon="2.26792">
        <ele>2218.1999511719</ele>
        <time>2023-07-17T09:33:46.000Z</time>
      </trkpt>
      <trkpt lat="42.42855" lon="2.2679">
        <ele>2217.8000488281</ele>
        <time>2023-07-17T09:33:48.000Z</time>
      </trkpt>
      <trkpt lat="42.42855" lon="2.26779">
        <ele>2217.3999023438</ele>
        <time>2023-07-17T09:33:56.000Z</time>
      </trkpt>
      <trkpt lat="42.42855" lon="2.26773">
        <ele>2217.1999511719</ele>
        <time>2023-07-17T09:33:59.000Z</time>
      </trkpt>
      <trkpt lat="42.42854" lon="2.26769">
        <ele>2216.8000488281</ele>
        <time>2023-07-17T09:34:02.000Z</time>
      </trkpt>
      <trkpt lat="42.42852" lon="2.26762">
        <ele>2216.3999023438</ele>
        <time>2023-07-17T09:34:09.000Z</time>
      </trkpt>
      <trkpt lat="42.42849" lon="2.26754">
        <ele>2216</ele>
        <time>2023-07-17T09:34:15.000Z</time>
      </trkpt>
      <trkpt lat="42.42849" lon="2.26754">
        <ele>2215.8000488281</ele>
        <time>2023-07-17T09:34:16.000Z</time>
      </trkpt>
      <trkpt lat="42.42843" lon="2.26749">
        <ele>2215</ele>
        <time>2023-07-17T09:34:25.000Z</time>
      </trkpt>
      <trkpt lat="42.42842" lon="2.26747">
        <ele>2214.8000488281</ele>
        <time>2023-07-17T09:34:27.000Z</time>
      </trkpt>
      <trkpt lat="42.42839" lon="2.26741">
        <ele>2213.8000488281</ele>
        <time>2023-07-17T09:34:32.000Z</time>
      </trkpt>
      <trkpt lat="42.42839" lon="2.26741">
        <ele>2213.6000976562</ele>
        <time>2023-07-17T09:34:33.000Z</time>
      </trkpt>
      <trkpt lat="42.42834" lon="2.26737">
        <ele>2212.6000976562</ele>
        <time>2023-07-17T09:34:39.000Z</time>
      </trkpt>
      <trkpt lat="42.42832" lon="2.26732">
        <ele>2211.3999023438</ele>
        <time>2023-07-17T09:34:45.000Z</time>
      </trkpt>
      <trkpt lat="42.42831" lon="2.26729">
        <ele>2210.6000976562</ele>
        <time>2023-07-17T09:34:49.000Z</time>
      </trkpt>
      <trkpt lat="42.42831" lon="2.26727">
        <ele>2210.3999023438</ele>
        <time>2023-07-17T09:34:50.000Z</time>
      </trkpt>
      <trkpt lat="42.4283" lon="2.26725">
        <ele>2209.3999023438</ele>
        <time>2023-07-17T09:34:55.000Z</time>
      </trkpt>
      <trkpt lat="42.42827" lon="2.26722">
        <ele>2208.3999023438</ele>
        <time>2023-07-17T09:34:59.000Z</time>
      </trkpt>
      <trkpt lat="42.42826" lon="2.26723">
        <ele>2208.1999511719</ele>
        <time>2023-07-17T09:35:00.000Z</time>
      </trkpt>
      <trkpt lat="42.42821" lon="2.2672">
        <ele>2207.6000976562</ele>
        <time>2023-07-17T09:35:05.000Z</time>
      </trkpt>
      <trkpt lat="42.42819" lon="2.26719">
        <ele>2207.1999511719</ele>
        <time>2023-07-17T09:35:07.000Z</time>
      </trkpt>
      <trkpt lat="42.42816" lon="2.26716">
        <ele>2206.1999511719</ele>
        <time>2023-07-17T09:35:12.000Z</time>
      </trkpt>
      <trkpt lat="42.42815" lon="2.26715">
        <ele>2206</ele>
        <time>2023-07-17T09:35:13.000Z</time>
      </trkpt>
      <trkpt lat="42.42812" lon="2.26711">
        <ele>2205</ele>
        <time>2023-07-17T09:35:20.000Z</time>
      </trkpt>
      <trkpt lat="42.42812" lon="2.26711">
        <ele>2204.8000488281</ele>
        <time>2023-07-17T09:35:21.000Z</time>
      </trkpt>
      <trkpt lat="42.42809" lon="2.26711">
        <ele>2204</ele>
        <time>2023-07-17T09:35:28.000Z</time>
      </trkpt>
      <trkpt lat="42.42807" lon="2.26714">
        <ele>2203.6000976562</ele>
        <time>2023-07-17T09:35:31.000Z</time>
      </trkpt>
      <trkpt lat="42.42805" lon="2.26723">
        <ele>2202.8000488281</ele>
        <time>2023-07-17T09:35:36.000Z</time>
      </trkpt>
      <trkpt lat="42.42805" lon="2.26723">
        <ele>2202.6000976562</ele>
        <time>2023-07-17T09:35:37.000Z</time>
      </trkpt>
      <trkpt lat="42.42801" lon="2.26725">
        <ele>2201.8000488281</ele>
        <time>2023-07-17T09:35:42.000Z</time>
      </trkpt>
      <trkpt lat="42.428" lon="2.26728">
        <ele>2201</ele>
        <time>2023-07-17T09:35:46.000Z</time>
      </trkpt>
      <trkpt lat="42.428" lon="2.26728">
        <ele>2200.6000976562</ele>
        <time>2023-07-17T09:35:48.000Z</time>
      </trkpt>
      <trkpt lat="42.42799" lon="2.26733">
        <ele>2199.8000488281</ele>
        <time>2023-07-17T09:35:54.000Z</time>
      </trkpt>
      <trkpt lat="42.428" lon="2.26733">
        <ele>2199.3999023438</ele>
        <time>2023-07-17T09:35:56.000Z</time>
      </trkpt>
      <trkpt lat="42.428" lon="2.26734">
        <ele>2198.1999511719</ele>
        <time>2023-07-17T09:36:02.000Z</time>
      </trkpt>
      <trkpt lat="42.428" lon="2.26735">
        <ele>2198</ele>
        <time>2023-07-17T09:36:03.000Z</time>
      </trkpt>
      <trkpt lat="42.42798" lon="2.26738">
        <ele>2197.1999511719</ele>
        <time>2023-07-17T09:36:09.000Z</time>
      </trkpt>
      <trkpt lat="42.42798" lon="2.26738">
        <ele>2197</ele>
        <time>2023-07-17T09:36:10.000Z</time>
      </trkpt>
      <trkpt lat="42.42797" lon="2.26741">
        <ele>2196</ele>
        <time>2023-07-17T09:36:16.000Z</time>
      </trkpt>
      <trkpt lat="42.42796" lon="2.2674">
        <ele>2196</ele>
        <time>2023-07-17T09:36:18.000Z</time>
      </trkpt>
      <trkpt lat="42.42793" lon="2.2674">
        <ele>2195.1999511719</ele>
        <time>2023-07-17T09:36:24.000Z</time>
      </trkpt>
      <trkpt lat="42.4279" lon="2.26743">
        <ele>2194.8000488281</ele>
        <time>2023-07-17T09:36:27.000Z</time>
      </trkpt>
      <trkpt lat="42.42788" lon="2.26744">
        <ele>2193.8000488281</ele>
        <time>2023-07-17T09:36:30.000Z</time>
      </trkpt>
      <trkpt lat="42.42787" lon="2.26744">
        <ele>2193.3999023438</ele>
        <time>2023-07-17T09:36:31.000Z</time>
      </trkpt>
      <trkpt lat="42.42786" lon="2.26742">
        <ele>2192.6000976562</ele>
        <time>2023-07-17T09:36:33.000Z</time>
      </trkpt>
      <trkpt lat="42.42785" lon="2.26741">
        <ele>2191.6000976562</ele>
        <time>2023-07-17T09:36:36.000Z</time>
      </trkpt>
      <trkpt lat="42.42786" lon="2.26741">
        <ele>2191.3999023438</ele>
        <time>2023-07-17T09:36:37.000Z</time>
      </trkpt>
      <trkpt lat="42.42785" lon="2.26741">
        <ele>2190.3999023438</ele>
        <time>2023-07-17T09:36:41.000Z</time>
      </trkpt>
      <trkpt lat="42.42783" lon="2.26738">
        <ele>2189.8000488281</ele>
        <time>2023-07-17T09:36:45.000Z</time>
      </trkpt>
      <trkpt lat="42.42781" lon="2.26734">
        <ele>2189.3999023438</ele>
        <time>2023-07-17T09:36:48.000Z</time>
      </trkpt>
      <trkpt lat="42.42779" lon="2.26731">
        <ele>2188</ele>
        <time>2023-07-17T09:36:52.000Z</time>
      </trkpt>
      <trkpt lat="42.42779" lon="2.2673">
        <ele>2187.8000488281</ele>
        <time>2023-07-17T09:36:53.000Z</time>
      </trkpt>
      <trkpt lat="42.42776" lon="2.26726">
        <ele>2186.6000976562</ele>
        <time>2023-07-17T09:36:57.000Z</time>
      </trkpt>
      <trkpt lat="42.42776" lon="2.26723">
        <ele>2186</ele>
        <time>2023-07-17T09:37:01.000Z</time>
      </trkpt>
      <trkpt lat="42.42775" lon="2.26719">
        <ele>2185.1999511719</ele>
        <time>2023-07-17T09:37:04.000Z</time>
      </trkpt>
      <trkpt lat="42.42775" lon="2.26715">
        <ele>2184</ele>
        <time>2023-07-17T09:37:07.000Z</time>
      </trkpt>
      <trkpt lat="42.42775" lon="2.26715">
        <ele>2183.8000488281</ele>
        <time>2023-07-17T09:37:08.000Z</time>
      </trkpt>
      <trkpt lat="42.42774" lon="2.26712">
        <ele>2182.8000488281</ele>
        <time>2023-07-17T09:37:11.000Z</time>
      </trkpt>
      <trkpt lat="42.42773" lon="2.26707">
        <ele>2182.1999511719</ele>
        <time>2023-07-17T09:37:16.000Z</time>
      </trkpt>
      <trkpt lat="42.42772" lon="2.26702">
        <ele>2181.8000488281</ele>
        <time>2023-07-17T09:37:19.000Z</time>
      </trkpt>
      <trkpt lat="42.42771" lon="2.26695">
        <ele>2180.8000488281</ele>
        <time>2023-07-17T09:37:24.000Z</time>
      </trkpt>
      <trkpt lat="42.4277" lon="2.26691">
        <ele>2179.6000976562</ele>
        <time>2023-07-17T09:37:29.000Z</time>
      </trkpt>
      <trkpt lat="42.42769" lon="2.26689">
        <ele>2178.8000488281</ele>
        <time>2023-07-17T09:37:32.000Z</time>
      </trkpt>
      <trkpt lat="42.42768" lon="2.26688">
        <ele>2178.3999023438</ele>
        <time>2023-07-17T09:37:33.000Z</time>
      </trkpt>
      <trkpt lat="42.42767" lon="2.26686">
        <ele>2177.1999511719</ele>
        <time>2023-07-17T09:37:37.000Z</time>
      </trkpt>
      <trkpt lat="42.42767" lon="2.26683">
        <ele>2176</ele>
        <time>2023-07-17T09:37:40.000Z</time>
      </trkpt>
      <trkpt lat="42.42767" lon="2.26683">
        <ele>2175.3999023438</ele>
        <time>2023-07-17T09:37:41.000Z</time>
      </trkpt>
      <trkpt lat="42.42767" lon="2.26681">
        <ele>2174.8000488281</ele>
        <time>2023-07-17T09:37:45.000Z</time>
      </trkpt>
      <trkpt lat="42.42767" lon="2.26675">
        <ele>2174.1999511719</ele>
        <time>2023-07-17T09:37:49.000Z</time>
      </trkpt>
      <trkpt lat="42.42766" lon="2.26666">
        <ele>2174.3999023438</ele>
        <time>2023-07-17T09:37:58.000Z</time>
      </trkpt>
      <trkpt lat="42.42764" lon="2.26658">
        <ele>2177.1999511719</ele>
        <time>2023-07-17T09:38:04.000Z</time>
      </trkpt>
      <trkpt lat="42.42761" lon="2.26648">
        <ele>2177</ele>
        <time>2023-07-17T09:38:11.000Z</time>
      </trkpt>
      <trkpt lat="42.42758" lon="2.26638">
        <ele>2178</ele>
        <time>2023-07-17T09:38:18.000Z</time>
      </trkpt>
      <trkpt lat="42.42758" lon="2.26635">
        <ele>2178.6000976562</ele>
        <time>2023-07-17T09:38:20.000Z</time>
      </trkpt>
      <trkpt lat="42.42759" lon="2.26631">
        <ele>2177.3999023438</ele>
        <time>2023-07-17T09:38:26.000Z</time>
      </trkpt>
      <trkpt lat="42.42759" lon="2.2663">
        <ele>2177.1999511719</ele>
        <time>2023-07-17T09:38:27.000Z</time>
      </trkpt>
      <trkpt lat="42.42762" lon="2.2662">
        <ele>2176.8000488281</ele>
        <time>2023-07-17T09:38:36.000Z</time>
      </trkpt>
      <trkpt lat="42.42762" lon="2.26619">
        <ele>2176.3999023438</ele>
        <time>2023-07-17T09:38:37.000Z</time>
      </trkpt>
      <trkpt lat="42.4276" lon="2.2662">
        <ele>2176.1999511719</ele>
        <time>2023-07-17T09:38:44.000Z</time>
      </trkpt>
      <trkpt lat="42.42758" lon="2.26632">
        <ele>2176.1999511719</ele>
        <time>2023-07-17T09:38:50.000Z</time>
      </trkpt>
      <trkpt lat="42.42756" lon="2.26634">
        <ele>2176.6000976562</ele>
        <time>2023-07-17T09:38:58.000Z</time>
      </trkpt>
      <trkpt lat="42.42758" lon="2.26636">
        <ele>2176.6000976562</ele>
        <time>2023-07-17T09:39:07.000Z</time>
      </trkpt>
      <trkpt lat="42.42757" lon="2.26637">
        <ele>2175.1999511719</ele>
        <time>2023-07-17T09:39:11.000Z</time>
      </trkpt>
      <trkpt lat="42.42756" lon="2.26639">
        <ele>2174.6000976562</ele>
        <time>2023-07-17T09:39:15.000Z</time>
      </trkpt>
      <trkpt lat="42.42759" lon="2.26635">
        <ele>2174.6000976562</ele>
        <time>2023-07-17T09:39:23.000Z</time>
      </trkpt>
      <trkpt lat="42.4276" lon="2.26632">
        <ele>2174</ele>
        <time>2023-07-17T09:39:29.000Z</time>
      </trkpt>
      <trkpt lat="42.4276" lon="2.26632">
        <ele>2173.8000488281</ele>
        <time>2023-07-17T09:39:30.000Z</time>
      </trkpt>
      <trkpt lat="42.4276" lon="2.26631">
        <ele>2172.8000488281</ele>
        <time>2023-07-17T09:39:32.000Z</time>
      </trkpt>
      <trkpt lat="42.42759" lon="2.26628">
        <ele>2172.1999511719</ele>
        <time>2023-07-17T09:39:38.000Z</time>
      </trkpt>
      <trkpt lat="42.42759" lon="2.26631">
        <ele>2171</ele>
        <time>2023-07-17T09:39:42.000Z</time>
      </trkpt>
      <trkpt lat="42.42759" lon="2.26634">
        <ele>2169.8000488281</ele>
        <time>2023-07-17T09:39:46.000Z</time>
      </trkpt>
      <trkpt lat="42.4276" lon="2.26634">
        <ele>2169.8000488281</ele>
        <time>2023-07-17T09:39:47.000Z</time>
      </trkpt>
      <trkpt lat="42.42761" lon="2.2663">
        <ele>2169.8000488281</ele>
        <time>2023-07-17T09:39:54.000Z</time>
      </trkpt>
      <trkpt lat="42.42759" lon="2.2663">
        <ele>2170.6000976562</ele>
        <time>2023-07-17T09:40:01.000Z</time>
      </trkpt>
      <trkpt lat="42.42758" lon="2.26632">
        <ele>2170.8000488281</ele>
        <time>2023-07-17T09:40:10.000Z</time>
      </trkpt>
      <trkpt lat="42.42759" lon="2.26633">
        <ele>2171</ele>
        <time>2023-07-17T09:40:12.000Z</time>
      </trkpt>
      <trkpt lat="42.4276" lon="2.26633">
        <ele>2171.6000976562</ele>
        <time>2023-07-17T09:40:18.000Z</time>
      </trkpt>
      <trkpt lat="42.4276" lon="2.26623">
        <ele>2171</ele>
        <time>2023-07-17T09:40:24.000Z</time>
      </trkpt>
      <trkpt lat="42.42758" lon="2.26615">
        <ele>2170.3999023438</ele>
        <time>2023-07-17T09:40:31.000Z</time>
      </trkpt>
      <trkpt lat="42.42758" lon="2.26612">
        <ele>2169.8000488281</ele>
        <time>2023-07-17T09:40:38.000Z</time>
      </trkpt>
      <trkpt lat="42.42758" lon="2.26612">
        <ele>2169.6000976562</ele>
        <time>2023-07-17T09:40:39.000Z</time>
      </trkpt>
      <trkpt lat="42.42759" lon="2.26613">
        <ele>2169.1999511719</ele>
        <time>2023-07-17T09:40:46.000Z</time>
      </trkpt>
      <trkpt lat="42.42759" lon="2.26612">
        <ele>2168.6000976562</ele>
        <time>2023-07-17T09:40:47.000Z</time>
      </trkpt>
      <trkpt lat="42.42756" lon="2.26615">
        <ele>2168.3999023438</ele>
        <time>2023-07-17T09:40:56.000Z</time>
      </trkpt>
      <trkpt lat="42.42755" lon="2.26613">
        <ele>2167.6000976562</ele>
        <time>2023-07-17T09:41:01.000Z</time>
      </trkpt>
      <trkpt lat="42.42755" lon="2.26612">
        <ele>2167</ele>
        <time>2023-07-17T09:41:04.000Z</time>
      </trkpt>
      <trkpt lat="42.42759" lon="2.26611">
        <ele>2167.3999023438</ele>
        <time>2023-07-17T09:41:12.000Z</time>
      </trkpt>
      <trkpt lat="42.42761" lon="2.2661">
        <ele>2167.8000488281</ele>
        <time>2023-07-17T09:41:19.000Z</time>
      </trkpt>
      <trkpt lat="42.42762" lon="2.26605">
        <ele>2166.8000488281</ele>
        <time>2023-07-17T09:41:28.000Z</time>
      </trkpt>
      <trkpt lat="42.42763" lon="2.26602">
        <ele>2166.3999023438</ele>
        <time>2023-07-17T09:41:31.000Z</time>
      </trkpt>
      <trkpt lat="42.42762" lon="2.26596">
        <ele>2165.8000488281</ele>
        <time>2023-07-17T09:41:37.000Z</time>
      </trkpt>
      <trkpt lat="42.42762" lon="2.26585">
        <ele>2166.3999023438</ele>
        <time>2023-07-17T09:41:43.000Z</time>
      </trkpt>
      <trkpt lat="42.42761" lon="2.26577">
        <ele>2166.3999023438</ele>
        <time>2023-07-17T09:41:49.000Z</time>
      </trkpt>
      <trkpt lat="42.4276" lon="2.26568">
        <ele>2165.6000976562</ele>
        <time>2023-07-17T09:41:56.000Z</time>
      </trkpt>
      <trkpt lat="42.42759" lon="2.2656">
        <ele>2165.6000976562</ele>
        <time>2023-07-17T09:42:02.000Z</time>
      </trkpt>
      <trkpt lat="42.42759" lon="2.26559">
        <ele>2165.1999511719</ele>
        <time>2023-07-17T09:42:04.000Z</time>
      </trkpt>
      <trkpt lat="42.42758" lon="2.26557">
        <ele>2165.1999511719</ele>
        <time>2023-07-17T09:42:07.000Z</time>
      </trkpt>
      <trkpt lat="42.42754" lon="2.26548">
        <ele>2165.1999511719</ele>
        <time>2023-07-17T09:42:14.000Z</time>
      </trkpt>
      <trkpt lat="42.4275" lon="2.26536">
        <ele>2165.6000976562</ele>
        <time>2023-07-17T09:42:21.000Z</time>
      </trkpt>
      <trkpt lat="42.42747" lon="2.26531">
        <ele>2166.3999023438</ele>
        <time>2023-07-17T09:42:27.000Z</time>
      </trkpt>
      <trkpt lat="42.42747" lon="2.26529">
        <ele>2166.3999023438</ele>
        <time>2023-07-17T09:42:28.000Z</time>
      </trkpt>
      <trkpt lat="42.42744" lon="2.2652">
        <ele>2166.6000976562</ele>
        <time>2023-07-17T09:42:36.000Z</time>
      </trkpt>
      <trkpt lat="42.42741" lon="2.26513">
        <ele>2166.3999023438</ele>
        <time>2023-07-17T09:42:44.000Z</time>
      </trkpt>
      <trkpt lat="42.42737" lon="2.2651">
        <ele>2165.1999511719</ele>
        <time>2023-07-17T09:42:47.000Z</time>
      </trkpt>
      <trkpt lat="42.42732" lon="2.26505">
        <ele>2164.8000488281</ele>
        <time>2023-07-17T09:42:51.000Z</time>
      </trkpt>
      <trkpt lat="42.42727" lon="2.26501">
        <ele>2165</ele>
        <time>2023-07-17T09:42:56.000Z</time>
      </trkpt>
      <trkpt lat="42.42721" lon="2.265">
        <ele>2165</ele>
        <time>2023-07-17T09:43:02.000Z</time>
      </trkpt>
      <trkpt lat="42.42713" lon="2.26502">
        <ele>2165.1999511719</ele>
        <time>2023-07-17T09:43:09.000Z</time>
      </trkpt>
      <trkpt lat="42.4271" lon="2.265">
        <ele>2164.1999511719</ele>
        <time>2023-07-17T09:43:13.000Z</time>
      </trkpt>
      <trkpt lat="42.42703" lon="2.26489">
        <ele>2162.6000976562</ele>
        <time>2023-07-17T09:43:29.000Z</time>
      </trkpt>
      <trkpt lat="42.42699" lon="2.26481">
        <ele>2163</ele>
        <time>2023-07-17T09:43:39.000Z</time>
      </trkpt>
      <trkpt lat="42.42694" lon="2.26477">
        <ele>2162</ele>
        <time>2023-07-17T09:43:46.000Z</time>
      </trkpt>
      <trkpt lat="42.42688" lon="2.26469">
        <ele>2161</ele>
        <time>2023-07-17T09:43:53.000Z</time>
      </trkpt>
      <trkpt lat="42.42687" lon="2.26468">
        <ele>2160.8000488281</ele>
        <time>2023-07-17T09:43:54.000Z</time>
      </trkpt>
      <trkpt lat="42.42684" lon="2.2646">
        <ele>2160.3999023438</ele>
        <time>2023-07-17T09:44:01.000Z</time>
      </trkpt>
      <trkpt lat="42.42682" lon="2.26455">
        <ele>2159.8000488281</ele>
        <time>2023-07-17T09:44:04.000Z</time>
      </trkpt>
      <trkpt lat="42.42677" lon="2.26447">
        <ele>2160.1999511719</ele>
        <time>2023-07-17T09:44:11.000Z</time>
      </trkpt>
      <trkpt lat="42.42671" lon="2.26442">
        <ele>2160.1999511719</ele>
        <time>2023-07-17T09:44:16.000Z</time>
      </trkpt>
      <trkpt lat="42.42671" lon="2.26442">
        <ele>2160.1999511719</ele>
        <time>2023-07-17T09:44:17.000Z</time>
      </trkpt>
      <trkpt lat="42.4267" lon="2.26448">
        <ele>2159.6000976562</ele>
        <time>2023-07-17T09:44:23.000Z</time>
      </trkpt>
      <trkpt lat="42.42672" lon="2.26455">
        <ele>2159.3999023438</ele>
        <time>2023-07-17T09:44:29.000Z</time>
      </trkpt>
      <trkpt lat="42.42679" lon="2.26463">
        <ele>2159</ele>
        <time>2023-07-17T09:44:35.000Z</time>
      </trkpt>
      <trkpt lat="42.4268" lon="2.26466">
        <ele>2158.6000976562</ele>
        <time>2023-07-17T09:44:37.000Z</time>
      </trkpt>
      <trkpt lat="42.42681" lon="2.26474">
        <ele>2158</ele>
        <time>2023-07-17T09:44:43.000Z</time>
      </trkpt>
      <trkpt lat="42.4268" lon="2.26477">
        <ele>2157.6000976562</ele>
        <time>2023-07-17T09:44:45.000Z</time>
      </trkpt>
      <trkpt lat="42.42677" lon="2.26481">
        <ele>2157.6000976562</ele>
        <time>2023-07-17T09:44:49.000Z</time>
      </trkpt>
      <trkpt lat="42.42667" lon="2.26485">
        <ele>2157.6000976562</ele>
        <time>2023-07-17T09:44:57.000Z</time>
      </trkpt>
      <trkpt lat="42.42655" lon="2.26487">
        <ele>2157.3999023438</ele>
        <time>2023-07-17T09:45:06.000Z</time>
      </trkpt>
      <trkpt lat="42.42648" lon="2.26485">
        <ele>2156.8000488281</ele>
        <time>2023-07-17T09:45:14.000Z</time>
      </trkpt>
      <trkpt lat="42.42646" lon="2.26483">
        <ele>2156.6000976562</ele>
        <time>2023-07-17T09:45:16.000Z</time>
      </trkpt>
      <trkpt lat="42.42643" lon="2.26482">
        <ele>2155.1999511719</ele>
        <time>2023-07-17T09:45:21.000Z</time>
      </trkpt>
      <trkpt lat="42.42642" lon="2.26482">
        <ele>2155</ele>
        <time>2023-07-17T09:45:22.000Z</time>
      </trkpt>
      <trkpt lat="42.42635" lon="2.2648">
        <ele>2154.1999511719</ele>
        <time>2023-07-17T09:45:29.000Z</time>
      </trkpt>
      <trkpt lat="42.42631" lon="2.2648">
        <ele>2153.6000976562</ele>
        <time>2023-07-17T09:45:31.000Z</time>
      </trkpt>
      <trkpt lat="42.42624" lon="2.2648">
        <ele>2153</ele>
        <time>2023-07-17T09:45:38.000Z</time>
      </trkpt>
      <trkpt lat="42.42622" lon="2.2648">
        <ele>2153</ele>
        <time>2023-07-17T09:45:39.000Z</time>
      </trkpt>
      <trkpt lat="42.42614" lon="2.26475">
        <ele>2152.3999023438</ele>
        <time>2023-07-17T09:45:49.000Z</time>
      </trkpt>
      <trkpt lat="42.42612" lon="2.26472">
        <ele>2152</ele>
        <time>2023-07-17T09:45:52.000Z</time>
      </trkpt>
      <trkpt lat="42.42608" lon="2.26469">
        <ele>2151.3999023438</ele>
        <time>2023-07-17T09:45:57.000Z</time>
      </trkpt>
      <trkpt lat="42.42604" lon="2.26465">
        <ele>2151</ele>
        <time>2023-07-17T09:46:01.000Z</time>
      </trkpt>
      <trkpt lat="42.42602" lon="2.26464">
        <ele>2151</ele>
        <time>2023-07-17T09:46:04.000Z</time>
      </trkpt>
      <trkpt lat="42.42593" lon="2.26454">
        <ele>2150.3999023438</ele>
        <time>2023-07-17T09:46:16.000Z</time>
      </trkpt>
      <trkpt lat="42.42587" lon="2.26447">
        <ele>2150</ele>
        <time>2023-07-17T09:46:21.000Z</time>
      </trkpt>
      <trkpt lat="42.42586" lon="2.26446">
        <ele>2149.8000488281</ele>
        <time>2023-07-17T09:46:22.000Z</time>
      </trkpt>
      <trkpt lat="42.42577" lon="2.26442">
        <ele>2150</ele>
        <time>2023-07-17T09:46:31.000Z</time>
      </trkpt>
      <trkpt lat="42.42568" lon="2.26439">
        <ele>2150.1999511719</ele>
        <time>2023-07-17T09:46:37.000Z</time>
      </trkpt>
      <trkpt lat="42.42562" lon="2.2644">
        <ele>2149.3999023438</ele>
        <time>2023-07-17T09:46:45.000Z</time>
      </trkpt>
      <trkpt lat="42.42559" lon="2.26441">
        <ele>2149</ele>
        <time>2023-07-17T09:46:48.000Z</time>
      </trkpt>
      <trkpt lat="42.42553" lon="2.26443">
        <ele>2148.8000488281</ele>
        <time>2023-07-17T09:46:52.000Z</time>
      </trkpt>
      <trkpt lat="42.42546" lon="2.26449">
        <ele>2148.1999511719</ele>
        <time>2023-07-17T09:46:59.000Z</time>
      </trkpt>
      <trkpt lat="42.42542" lon="2.26455">
        <ele>2148</ele>
        <time>2023-07-17T09:47:05.000Z</time>
      </trkpt>
      <trkpt lat="42.42539" lon="2.26459">
        <ele>2148.3999023438</ele>
        <time>2023-07-17T09:47:12.000Z</time>
      </trkpt>
      <trkpt lat="42.4254" lon="2.26459">
        <ele>2148.1999511719</ele>
        <time>2023-07-17T09:47:14.000Z</time>
      </trkpt>
      <trkpt lat="42.42541" lon="2.26458">
        <ele>2147.3999023438</ele>
        <time>2023-07-17T09:47:15.000Z</time>
      </trkpt>
      <trkpt lat="42.42542" lon="2.26457">
        <ele>2146.3999023438</ele>
        <time>2023-07-17T09:47:19.000Z</time>
      </trkpt>
      <trkpt lat="42.42541" lon="2.26457">
        <ele>2146.1999511719</ele>
        <time>2023-07-17T09:47:21.000Z</time>
      </trkpt>
      <trkpt lat="42.42539" lon="2.26458">
        <ele>2145.6000976562</ele>
        <time>2023-07-17T09:47:29.000Z</time>
      </trkpt>
      <trkpt lat="42.4254" lon="2.26455">
        <ele>2146.1999511719</ele>
        <time>2023-07-17T09:47:38.000Z</time>
      </trkpt>
      <trkpt lat="42.4254" lon="2.26458">
        <ele>2145.6000976562</ele>
        <time>2023-07-17T09:47:46.000Z</time>
      </trkpt>
      <trkpt lat="42.42541" lon="2.26458">
        <ele>2145.3999023438</ele>
        <time>2023-07-17T09:47:52.000Z</time>
      </trkpt>
      <trkpt lat="42.42541" lon="2.26457">
        <ele>2145.3999023438</ele>
        <time>2023-07-17T09:47:53.000Z</time>
      </trkpt>
      <trkpt lat="42.42539" lon="2.26451">
        <ele>2145.3999023438</ele>
        <time>2023-07-17T09:48:00.000Z</time>
      </trkpt>
      <trkpt lat="42.42536" lon="2.26453">
        <ele>2144.3999023438</ele>
        <time>2023-07-17T09:48:08.000Z</time>
      </trkpt>
      <trkpt lat="42.42535" lon="2.26456">
        <ele>2143.6000976562</ele>
        <time>2023-07-17T09:48:14.000Z</time>
      </trkpt>
      <trkpt lat="42.42532" lon="2.26459">
        <ele>2143.1999511719</ele>
        <time>2023-07-17T09:48:16.000Z</time>
      </trkpt>
      <trkpt lat="42.4253" lon="2.26462">
        <ele>2142</ele>
        <time>2023-07-17T09:48:20.000Z</time>
      </trkpt>
      <trkpt lat="42.4253" lon="2.26462">
        <ele>2141.3999023438</ele>
        <time>2023-07-17T09:48:22.000Z</time>
      </trkpt>
      <trkpt lat="42.42532" lon="2.26462">
        <ele>2140.8000488281</ele>
        <time>2023-07-17T09:48:24.000Z</time>
      </trkpt>
      <trkpt lat="42.42534" lon="2.2646">
        <ele>2140.6000976562</ele>
        <time>2023-07-17T09:48:27.000Z</time>
      </trkpt>
      <trkpt lat="42.42535" lon="2.26455">
        <ele>2140</ele>
        <time>2023-07-17T09:48:33.000Z</time>
      </trkpt>
      <trkpt lat="42.42535" lon="2.26454">
        <ele>2139.8000488281</ele>
        <time>2023-07-17T09:48:34.000Z</time>
      </trkpt>
      <trkpt lat="42.42536" lon="2.26448">
        <ele>2138.8000488281</ele>
        <time>2023-07-17T09:48:41.000Z</time>
      </trkpt>
      <trkpt lat="42.42536" lon="2.26446">
        <ele>2138.3999023438</ele>
        <time>2023-07-17T09:48:43.000Z</time>
      </trkpt>
      <trkpt lat="42.42536" lon="2.26444">
        <ele>2137.6000976562</ele>
        <time>2023-07-17T09:48:47.000Z</time>
      </trkpt>
      <trkpt lat="42.42535" lon="2.26442">
        <ele>2137.1999511719</ele>
        <time>2023-07-17T09:48:49.000Z</time>
      </trkpt>
      <trkpt lat="42.42534" lon="2.2644">
        <ele>2136.6000976562</ele>
        <time>2023-07-17T09:48:52.000Z</time>
      </trkpt>
      <trkpt lat="42.42534" lon="2.26441">
        <ele>2135.8000488281</ele>
        <time>2023-07-17T09:48:55.000Z</time>
      </trkpt>
      <trkpt lat="42.42534" lon="2.26442">
        <ele>2135.6000976562</ele>
        <time>2023-07-17T09:48:56.000Z</time>
      </trkpt>
      <trkpt lat="42.42532" lon="2.26444">
        <ele>2134.1999511719</ele>
        <time>2023-07-17T09:49:03.000Z</time>
      </trkpt>
      <trkpt lat="42.42532" lon="2.26445">
        <ele>2134.1999511719</ele>
        <time>2023-07-17T09:49:04.000Z</time>
      </trkpt>
      <trkpt lat="42.42533" lon="2.26444">
        <ele>2133.6000976562</ele>
        <time>2023-07-17T09:49:10.000Z</time>
      </trkpt>
      <trkpt lat="42.42533" lon="2.26444">
        <ele>2133.1999511719</ele>
        <time>2023-07-17T09:49:13.000Z</time>
      </trkpt>
      <trkpt lat="42.42528" lon="2.2644">
        <ele>2132.1999511719</ele>
        <time>2023-07-17T09:49:18.000Z</time>
      </trkpt>
      <trkpt lat="42.42528" lon="2.26437">
        <ele>2131.1999511719</ele>
        <time>2023-07-17T09:49:22.000Z</time>
      </trkpt>
      <trkpt lat="42.42529" lon="2.26435">
        <ele>2130.6000976562</ele>
        <time>2023-07-17T09:49:24.000Z</time>
      </trkpt>
      <trkpt lat="42.42529" lon="2.26433">
        <ele>2130</ele>
        <time>2023-07-17T09:49:26.000Z</time>
      </trkpt>
      <trkpt lat="42.4253" lon="2.2643">
        <ele>2128.8000488281</ele>
        <time>2023-07-17T09:49:30.000Z</time>
      </trkpt>
      <trkpt lat="42.42531" lon="2.26425">
        <ele>2128</ele>
        <time>2023-07-17T09:49:34.000Z</time>
      </trkpt>
      <trkpt lat="42.42531" lon="2.26424">
        <ele>2127.8000488281</ele>
        <time>2023-07-17T09:49:35.000Z</time>
      </trkpt>
      <trkpt lat="42.42529" lon="2.26418">
        <ele>2126.3999023438</ele>
        <time>2023-07-17T09:49:43.000Z</time>
      </trkpt>
      <trkpt lat="42.42528" lon="2.26417">
        <ele>2126.1999511719</ele>
        <time>2023-07-17T09:49:44.000Z</time>
      </trkpt>
      <trkpt lat="42.42528" lon="2.26417">
        <ele>2125.3999023438</ele>
        <time>2023-07-17T09:49:48.000Z</time>
      </trkpt>
      <trkpt lat="42.42528" lon="2.26416">
        <ele>2124.3999023438</ele>
        <time>2023-07-17T09:49:52.000Z</time>
      </trkpt>
      <trkpt lat="42.42528" lon="2.26415">
        <ele>2123.1999511719</ele>
        <time>2023-07-17T09:49:58.000Z</time>
      </trkpt>
      <trkpt lat="42.42528" lon="2.26414">
        <ele>2122.8000488281</ele>
        <time>2023-07-17T09:50:00.000Z</time>
      </trkpt>
      <trkpt lat="42.42527" lon="2.26412">
        <ele>2122.1999511719</ele>
        <time>2023-07-17T09:50:03.000Z</time>
      </trkpt>
      <trkpt lat="42.42523" lon="2.26414">
        <ele>2121.1999511719</ele>
        <time>2023-07-17T09:50:09.000Z</time>
      </trkpt>
      <trkpt lat="42.42522" lon="2.26414">
        <ele>2120.8000488281</ele>
        <time>2023-07-17T09:50:11.000Z</time>
      </trkpt>
      <trkpt lat="42.42521" lon="2.26415">
        <ele>2120.1999511719</ele>
        <time>2023-07-17T09:50:14.000Z</time>
      </trkpt>
      <trkpt lat="42.42517" lon="2.26418">
        <ele>2119.3999023438</ele>
        <time>2023-07-17T09:50:17.000Z</time>
      </trkpt>
      <trkpt lat="42.42515" lon="2.26419">
        <ele>2118.8000488281</ele>
        <time>2023-07-17T09:50:19.000Z</time>
      </trkpt>
      <trkpt lat="42.42517" lon="2.26417">
        <ele>2117.6000976562</ele>
        <time>2023-07-17T09:50:21.000Z</time>
      </trkpt>
      <trkpt lat="42.42517" lon="2.26415">
        <ele>2117.3999023438</ele>
        <time>2023-07-17T09:50:22.000Z</time>
      </trkpt>
      <trkpt lat="42.42512" lon="2.26413">
        <ele>2117.3999023438</ele>
        <time>2023-07-17T09:50:27.000Z</time>
      </trkpt>
      <trkpt lat="42.42501" lon="2.26416">
        <ele>2117.8000488281</ele>
        <time>2023-07-17T09:50:34.000Z</time>
      </trkpt>
      <trkpt lat="42.4249" lon="2.26419">
        <ele>2118</ele>
        <time>2023-07-17T09:50:42.000Z</time>
      </trkpt>
      <trkpt lat="42.4248" lon="2.26415">
        <ele>2118.1999511719</ele>
        <time>2023-07-17T09:50:50.000Z</time>
      </trkpt>
      <trkpt lat="42.42475" lon="2.26401">
        <ele>2118</ele>
        <time>2023-07-17T09:50:57.000Z</time>
      </trkpt>
      <trkpt lat="42.42472" lon="2.26397">
        <ele>2118</ele>
        <time>2023-07-17T09:51:02.000Z</time>
      </trkpt>
      <trkpt lat="42.42463" lon="2.2639">
        <ele>2118.1999511719</ele>
        <time>2023-07-17T09:51:09.000Z</time>
      </trkpt>
      <trkpt lat="42.42463" lon="2.26389">
        <ele>2118.1999511719</ele>
        <time>2023-07-17T09:51:11.000Z</time>
      </trkpt>
      <trkpt lat="42.42461" lon="2.26387">
        <ele>2118.3999023438</ele>
        <time>2023-07-17T09:51:15.000Z</time>
      </trkpt>
      <trkpt lat="42.42456" lon="2.26387">
        <ele>2118.6000976562</ele>
        <time>2023-07-17T09:51:21.000Z</time>
      </trkpt>
      <trkpt lat="42.42455" lon="2.26387">
        <ele>2118.6000976562</ele>
        <time>2023-07-17T09:51:22.000Z</time>
      </trkpt>
      <trkpt lat="42.42446" lon="2.26387">
        <ele>2119</ele>
        <time>2023-07-17T09:51:30.000Z</time>
      </trkpt>
      <trkpt lat="42.42436" lon="2.26388">
        <ele>2119.1999511719</ele>
        <time>2023-07-17T09:51:39.000Z</time>
      </trkpt>
      <trkpt lat="42.42427" lon="2.26386">
        <ele>2119.1999511719</ele>
        <time>2023-07-17T09:51:48.000Z</time>
      </trkpt>
      <trkpt lat="42.42418" lon="2.26381">
        <ele>2118.6000976562</ele>
        <time>2023-07-17T09:51:57.000Z</time>
      </trkpt>
      <trkpt lat="42.42406" lon="2.26377">
        <ele>2118</ele>
        <time>2023-07-17T09:52:05.000Z</time>
      </trkpt>
      <trkpt lat="42.42401" lon="2.26376">
        <ele>2117.6000976562</ele>
        <time>2023-07-17T09:52:09.000Z</time>
      </trkpt>
      <trkpt lat="42.42396" lon="2.26377">
        <ele>2116.8000488281</ele>
        <time>2023-07-17T09:52:15.000Z</time>
      </trkpt>
      <trkpt lat="42.42394" lon="2.26377">
        <ele>2116.6000976562</ele>
        <time>2023-07-17T09:52:18.000Z</time>
      </trkpt>
      <trkpt lat="42.4239" lon="2.26376">
        <ele>2116.3999023438</ele>
        <time>2023-07-17T09:52:20.000Z</time>
      </trkpt>
      <trkpt lat="42.42386" lon="2.26374">
        <ele>2115.3999023438</ele>
        <time>2023-07-17T09:52:24.000Z</time>
      </trkpt>
      <trkpt lat="42.4238" lon="2.26375">
        <ele>2114.8000488281</ele>
        <time>2023-07-17T09:52:28.000Z</time>
      </trkpt>
      <trkpt lat="42.42376" lon="2.26376">
        <ele>2114.1999511719</ele>
        <time>2023-07-17T09:52:32.000Z</time>
      </trkpt>
      <trkpt lat="42.42374" lon="2.26377">
        <ele>2114</ele>
        <time>2023-07-17T09:52:34.000Z</time>
      </trkpt>
      <trkpt lat="42.42368" lon="2.26381">
        <ele>2113</ele>
        <time>2023-07-17T09:52:39.000Z</time>
      </trkpt>
      <trkpt lat="42.42364" lon="2.26383">
        <ele>2112.1999511719</ele>
        <time>2023-07-17T09:52:42.000Z</time>
      </trkpt>
      <trkpt lat="42.42361" lon="2.26384">
        <ele>2112</ele>
        <time>2023-07-17T09:52:44.000Z</time>
      </trkpt>
      <trkpt lat="42.42355" lon="2.26385">
        <ele>2111.3999023438</ele>
        <time>2023-07-17T09:52:51.000Z</time>
      </trkpt>
      <trkpt lat="42.4235" lon="2.26387">
        <ele>2111</ele>
        <time>2023-07-17T09:52:56.000Z</time>
      </trkpt>
      <trkpt lat="42.4235" lon="2.26387">
        <ele>2111</ele>
        <time>2023-07-17T09:52:57.000Z</time>
      </trkpt>
      <trkpt lat="42.4234" lon="2.26391">
        <ele>2110.3999023438</ele>
        <time>2023-07-17T09:53:06.000Z</time>
      </trkpt>
      <trkpt lat="42.42336" lon="2.26391">
        <ele>2109.8000488281</ele>
        <time>2023-07-17T09:53:09.000Z</time>
      </trkpt>
      <trkpt lat="42.4233" lon="2.26393">
        <ele>2109.3999023438</ele>
        <time>2023-07-17T09:53:14.000Z</time>
      </trkpt>
      <trkpt lat="42.42323" lon="2.26396">
        <ele>2109</ele>
        <time>2023-07-17T09:53:20.000Z</time>
      </trkpt>
      <trkpt lat="42.42321" lon="2.26396">
        <ele>2108.8000488281</ele>
        <time>2023-07-17T09:53:22.000Z</time>
      </trkpt>
      <trkpt lat="42.42315" lon="2.26398">
        <ele>2108.6000976562</ele>
        <time>2023-07-17T09:53:27.000Z</time>
      </trkpt>
      <trkpt lat="42.42308" lon="2.264">
        <ele>2108</ele>
        <time>2023-07-17T09:53:34.000Z</time>
      </trkpt>
      <trkpt lat="42.42306" lon="2.26401">
        <ele>2107.8000488281</ele>
        <time>2023-07-17T09:53:36.000Z</time>
      </trkpt>
      <trkpt lat="42.42299" lon="2.26404">
        <ele>2107.3999023438</ele>
        <time>2023-07-17T09:53:41.000Z</time>
      </trkpt>
      <trkpt lat="42.42292" lon="2.26406">
        <ele>2106.8000488281</ele>
        <time>2023-07-17T09:53:48.000Z</time>
      </trkpt>
      <trkpt lat="42.42291" lon="2.26406">
        <ele>2106.6000976562</ele>
        <time>2023-07-17T09:53:49.000Z</time>
      </trkpt>
      <trkpt lat="42.42285" lon="2.26408">
        <ele>2105.6000976562</ele>
        <time>2023-07-17T09:53:56.000Z</time>
      </trkpt>
      <trkpt lat="42.42278" lon="2.26409">
        <ele>2104.8000488281</ele>
        <time>2023-07-17T09:54:02.000Z</time>
      </trkpt>
      <trkpt lat="42.42276" lon="2.26409">
        <ele>2104.6000976562</ele>
        <time>2023-07-17T09:54:03.000Z</time>
      </trkpt>
      <trkpt lat="42.42267" lon="2.26405">
        <ele>2103.3999023438</ele>
        <time>2023-07-17T09:54:09.000Z</time>
      </trkpt>
      <trkpt lat="42.42261" lon="2.264">
        <ele>2102.6000976562</ele>
        <time>2023-07-17T09:54:15.000Z</time>
      </trkpt>
      <trkpt lat="42.4226" lon="2.264">
        <ele>2102.3999023438</ele>
        <time>2023-07-17T09:54:16.000Z</time>
      </trkpt>
      <trkpt lat="42.42253" lon="2.264">
        <ele>2101.3999023438</ele>
        <time>2023-07-17T09:54:22.000Z</time>
      </trkpt>
      <trkpt lat="42.42252" lon="2.264">
        <ele>2101</ele>
        <time>2023-07-17T09:54:23.000Z</time>
      </trkpt>
      <trkpt lat="42.42248" lon="2.26397">
        <ele>2100.6000976562</ele>
        <time>2023-07-17T09:54:28.000Z</time>
      </trkpt>
      <trkpt lat="42.4224" lon="2.26392">
        <ele>2100</ele>
        <time>2023-07-17T09:54:35.000Z</time>
      </trkpt>
      <trkpt lat="42.42238" lon="2.26391">
        <ele>2100</ele>
        <time>2023-07-17T09:54:36.000Z</time>
      </trkpt>
      <trkpt lat="42.4223" lon="2.26388">
        <ele>2099.1999511719</ele>
        <time>2023-07-17T09:54:42.000Z</time>
      </trkpt>
      <trkpt lat="42.42226" lon="2.26387">
        <ele>2099</ele>
        <time>2023-07-17T09:54:45.000Z</time>
      </trkpt>
      <trkpt lat="42.42221" lon="2.26384">
        <ele>2098.8000488281</ele>
        <time>2023-07-17T09:54:49.000Z</time>
      </trkpt>
      <trkpt lat="42.42215" lon="2.2638">
        <ele>2098.3999023438</ele>
        <time>2023-07-17T09:54:56.000Z</time>
      </trkpt>
      <trkpt lat="42.42204" lon="2.26375">
        <ele>2098.3999023438</ele>
        <time>2023-07-17T09:55:04.000Z</time>
      </trkpt>
      <trkpt lat="42.42197" lon="2.26368">
        <ele>2098.6000976562</ele>
        <time>2023-07-17T09:55:11.000Z</time>
      </trkpt>
      <trkpt lat="42.42188" lon="2.26364">
        <ele>2098.8000488281</ele>
        <time>2023-07-17T09:55:19.000Z</time>
      </trkpt>
      <trkpt lat="42.42181" lon="2.26363">
        <ele>2098.6000976562</ele>
        <time>2023-07-17T09:55:25.000Z</time>
      </trkpt>
      <trkpt lat="42.42175" lon="2.26365">
        <ele>2098.3999023438</ele>
        <time>2023-07-17T09:55:31.000Z</time>
      </trkpt>
      <trkpt lat="42.42169" lon="2.2637">
        <ele>2098.6000976562</ele>
        <time>2023-07-17T09:55:36.000Z</time>
      </trkpt>
      <trkpt lat="42.42165" lon="2.26379">
        <ele>2098.6000976562</ele>
        <time>2023-07-17T09:55:42.000Z</time>
      </trkpt>
      <trkpt lat="42.42164" lon="2.26378">
        <ele>2098</ele>
        <time>2023-07-17T09:55:50.000Z</time>
      </trkpt>
      <trkpt lat="42.42163" lon="2.26377">
        <ele>2097.8000488281</ele>
        <time>2023-07-17T09:55:51.000Z</time>
      </trkpt>
      <trkpt lat="42.42161" lon="2.26378">
        <ele>2097.6000976562</ele>
        <time>2023-07-17T09:55:52.000Z</time>
      </trkpt>
      <trkpt lat="42.42156" lon="2.26379">
        <ele>2097.8000488281</ele>
        <time>2023-07-17T09:55:56.000Z</time>
      </trkpt>
      <trkpt lat="42.42154" lon="2.26379">
        <ele>2099</ele>
        <time>2023-07-17T09:55:59.000Z</time>
      </trkpt>
      <trkpt lat="42.42153" lon="2.26379">
        <ele>2100.3999023438</ele>
        <time>2023-07-17T09:56:01.000Z</time>
      </trkpt>
      <trkpt lat="42.42151" lon="2.26377">
        <ele>2100.6000976562</ele>
        <time>2023-07-17T09:56:04.000Z</time>
      </trkpt>
      <trkpt lat="42.42147" lon="2.26372">
        <ele>2101</ele>
        <time>2023-07-17T09:56:10.000Z</time>
      </trkpt>
      <trkpt lat="42.42146" lon="2.26365">
        <ele>2101.6000976562</ele>
        <time>2023-07-17T09:56:15.000Z</time>
      </trkpt>
      <trkpt lat="42.42146" lon="2.26362">
        <ele>2101.8000488281</ele>
        <time>2023-07-17T09:56:18.000Z</time>
      </trkpt>
      <trkpt lat="42.42146" lon="2.26354">
        <ele>2102.1999511719</ele>
        <time>2023-07-17T09:56:26.000Z</time>
      </trkpt>
      <trkpt lat="42.42145" lon="2.26345">
        <ele>2102.6000976562</ele>
        <time>2023-07-17T09:56:32.000Z</time>
      </trkpt>
      <trkpt lat="42.42144" lon="2.26342">
        <ele>2103</ele>
        <time>2023-07-17T09:56:35.000Z</time>
      </trkpt>
      <trkpt lat="42.42142" lon="2.26332">
        <ele>2103.8000488281</ele>
        <time>2023-07-17T09:56:42.000Z</time>
      </trkpt>
      <trkpt lat="42.42141" lon="2.26328">
        <ele>2103.8000488281</ele>
        <time>2023-07-17T09:56:44.000Z</time>
      </trkpt>
      <trkpt lat="42.42139" lon="2.2632">
        <ele>2104.6000976562</ele>
        <time>2023-07-17T09:56:52.000Z</time>
      </trkpt>
      <trkpt lat="42.42139" lon="2.26318">
        <ele>2104.8000488281</ele>
        <time>2023-07-17T09:56:53.000Z</time>
      </trkpt>
      <trkpt lat="42.42138" lon="2.26313">
        <ele>2105.6000976562</ele>
        <time>2023-07-17T09:56:59.000Z</time>
      </trkpt>
      <trkpt lat="42.42137" lon="2.26311">
        <ele>2105.8000488281</ele>
        <time>2023-07-17T09:57:01.000Z</time>
      </trkpt>
      <trkpt lat="42.42135" lon="2.26305">
        <ele>2106.6000976562</ele>
        <time>2023-07-17T09:57:07.000Z</time>
      </trkpt>
      <trkpt lat="42.42134" lon="2.26304">
        <ele>2106.8000488281</ele>
        <time>2023-07-17T09:57:08.000Z</time>
      </trkpt>
      <trkpt lat="42.4213" lon="2.26298">
        <ele>2108</ele>
        <time>2023-07-17T09:57:15.000Z</time>
      </trkpt>
      <trkpt lat="42.42126" lon="2.26293">
        <ele>2109</ele>
        <time>2023-07-17T09:57:23.000Z</time>
      </trkpt>
      <trkpt lat="42.42126" lon="2.26292">
        <ele>2109.1999511719</ele>
        <time>2023-07-17T09:57:24.000Z</time>
      </trkpt>
      <trkpt lat="42.42124" lon="2.26286">
        <ele>2110</ele>
        <time>2023-07-17T09:57:32.000Z</time>
      </trkpt>
      <trkpt lat="42.42125" lon="2.26286">
        <ele>2110</ele>
        <time>2023-07-17T09:57:33.000Z</time>
      </trkpt>
      <trkpt lat="42.42125" lon="2.26286">
        <ele>2110.1999511719</ele>
        <time>2023-07-17T09:57:34.000Z</time>
      </trkpt>
      <trkpt lat="42.42125" lon="2.26286">
        <ele>2110.1999511719</ele>
        <time>2023-07-17T09:57:40.000Z</time>
      </trkpt>
      <trkpt lat="42.42119" lon="2.26282">
        <ele>2109</ele>
        <time>2023-07-17T09:57:50.000Z</time>
      </trkpt>
      <trkpt lat="42.42118" lon="2.2628">
        <ele>2108.8000488281</ele>
        <time>2023-07-17T09:57:56.000Z</time>
      </trkpt>
      <trkpt lat="42.4212" lon="2.26279">
        <ele>2108.8000488281</ele>
        <time>2023-07-17T09:58:07.000Z</time>
      </trkpt>
      <trkpt lat="42.42119" lon="2.26274">
        <ele>2108.6000976562</ele>
        <time>2023-07-17T09:58:14.000Z</time>
      </trkpt>
      <trkpt lat="42.42113" lon="2.26267">
        <ele>2109</ele>
        <time>2023-07-17T09:58:21.000Z</time>
      </trkpt>
      <trkpt lat="42.42109" lon="2.26261">
        <ele>2110</ele>
        <time>2023-07-17T09:58:30.000Z</time>
      </trkpt>
      <trkpt lat="42.42108" lon="2.26261">
        <ele>2110.3999023438</ele>
        <time>2023-07-17T09:58:33.000Z</time>
      </trkpt>
      <trkpt lat="42.42109" lon="2.26262">
        <ele>2111</ele>
        <time>2023-07-17T09:58:39.000Z</time>
      </trkpt>
      <trkpt lat="42.4211" lon="2.26262">
        <ele>2111.1999511719</ele>
        <time>2023-07-17T09:58:41.000Z</time>
      </trkpt>
      <trkpt lat="42.42109" lon="2.26259">
        <ele>2111</ele>
        <time>2023-07-17T09:58:48.000Z</time>
      </trkpt>
      <trkpt lat="42.42107" lon="2.26254">
        <ele>2112</ele>
        <time>2023-07-17T09:58:54.000Z</time>
      </trkpt>
      <trkpt lat="42.42106" lon="2.26254">
        <ele>2112.1999511719</ele>
        <time>2023-07-17T09:58:55.000Z</time>
      </trkpt>
      <trkpt lat="42.42103" lon="2.2625">
        <ele>2112.8000488281</ele>
        <time>2023-07-17T09:58:59.000Z</time>
      </trkpt>
      <trkpt lat="42.42102" lon="2.26248">
        <ele>2113.1999511719</ele>
        <time>2023-07-17T09:59:03.000Z</time>
      </trkpt>
      <trkpt lat="42.42102" lon="2.26247">
        <ele>2113.6000976562</ele>
        <time>2023-07-17T09:59:07.000Z</time>
      </trkpt>
      <trkpt lat="42.42101" lon="2.2624">
        <ele>2114.3999023438</ele>
        <time>2023-07-17T09:59:15.000Z</time>
      </trkpt>
      <trkpt lat="42.42096" lon="2.26238">
        <ele>2115.1999511719</ele>
        <time>2023-07-17T09:59:22.000Z</time>
      </trkpt>
      <trkpt lat="42.42096" lon="2.26237">
        <ele>2115.3999023438</ele>
        <time>2023-07-17T09:59:24.000Z</time>
      </trkpt>
      <trkpt lat="42.42095" lon="2.26236">
        <ele>2116</ele>
        <time>2023-07-17T09:59:29.000Z</time>
      </trkpt>
      <trkpt lat="42.42095" lon="2.26235">
        <ele>2116.6000976562</ele>
        <time>2023-07-17T09:59:32.000Z</time>
      </trkpt>
      <trkpt lat="42.42095" lon="2.26235">
        <ele>2116.6000976562</ele>
        <time>2023-07-17T09:59:33.000Z</time>
      </trkpt>
      <trkpt lat="42.42095" lon="2.26235">
        <ele>2116.6000976562</ele>
        <time>2023-07-17T09:59:37.000Z</time>
      </trkpt>
      <trkpt lat="42.42096" lon="2.26236">
        <ele>2117.3999023438</ele>
        <time>2023-07-17T09:59:47.000Z</time>
      </trkpt>
      <trkpt lat="42.42097" lon="2.26235">
        <ele>2117.6000976562</ele>
        <time>2023-07-17T09:59:49.000Z</time>
      </trkpt>
      <trkpt lat="42.42095" lon="2.26229">
        <ele>2117.8000488281</ele>
        <time>2023-07-17T09:59:55.000Z</time>
      </trkpt>
      <trkpt lat="42.42091" lon="2.26225">
        <ele>2118.8000488281</ele>
        <time>2023-07-17T10:00:00.000Z</time>
      </trkpt>
      <trkpt lat="42.4209" lon="2.26223">
        <ele>2119.1999511719</ele>
        <time>2023-07-17T10:00:02.000Z</time>
      </trkpt>
      <trkpt lat="42.42089" lon="2.26222">
        <ele>2120</ele>
        <time>2023-07-17T10:00:05.000Z</time>
      </trkpt>
      <trkpt lat="42.42088" lon="2.2622">
        <ele>2120.3999023438</ele>
        <time>2023-07-17T10:00:08.000Z</time>
      </trkpt>
      <trkpt lat="42.42087" lon="2.26218">
        <ele>2121</ele>
        <time>2023-07-17T10:00:11.000Z</time>
      </trkpt>
      <trkpt lat="42.42085" lon="2.26214">
        <ele>2122</ele>
        <time>2023-07-17T10:00:17.000Z</time>
      </trkpt>
      <trkpt lat="42.42082" lon="2.2621">
        <ele>2123</ele>
        <time>2023-07-17T10:00:25.000Z</time>
      </trkpt>
      <trkpt lat="42.42081" lon="2.2621">
        <ele>2123.3999023438</ele>
        <time>2023-07-17T10:00:27.000Z</time>
      </trkpt>
      <trkpt lat="42.4208" lon="2.26209">
        <ele>2124.1999511719</ele>
        <time>2023-07-17T10:00:31.000Z</time>
      </trkpt>
      <trkpt lat="42.42078" lon="2.26209">
        <ele>2124.3999023438</ele>
        <time>2023-07-17T10:00:33.000Z</time>
      </trkpt>
      <trkpt lat="42.42076" lon="2.26206">
        <ele>2125.3999023438</ele>
        <time>2023-07-17T10:00:40.000Z</time>
      </trkpt>
      <trkpt lat="42.42076" lon="2.26206">
        <ele>2125.6000976562</ele>
        <time>2023-07-17T10:00:41.000Z</time>
      </trkpt>
      <trkpt lat="42.42077" lon="2.262">
        <ele>2126.3999023438</ele>
        <time>2023-07-17T10:00:47.000Z</time>
      </trkpt>
      <trkpt lat="42.42077" lon="2.26198">
        <ele>2126.6000976562</ele>
        <time>2023-07-17T10:00:49.000Z</time>
      </trkpt>
      <trkpt lat="42.42077" lon="2.26195">
        <ele>2127.3999023438</ele>
        <time>2023-07-17T10:00:56.000Z</time>
      </trkpt>
      <trkpt lat="42.42075" lon="2.26194">
        <ele>2127.6000976562</ele>
        <time>2023-07-17T10:00:58.000Z</time>
      </trkpt>
      <trkpt lat="42.42073" lon="2.2619">
        <ele>2128.6000976562</ele>
        <time>2023-07-17T10:01:09.000Z</time>
      </trkpt>
      <trkpt lat="42.42072" lon="2.26189">
        <ele>2128.8000488281</ele>
        <time>2023-07-17T10:01:10.000Z</time>
      </trkpt>
      <trkpt lat="42.4207" lon="2.26186">
        <ele>2129.6000976562</ele>
        <time>2023-07-17T10:01:17.000Z</time>
      </trkpt>
      <trkpt lat="42.42069" lon="2.26185">
        <ele>2130</ele>
        <time>2023-07-17T10:01:19.000Z</time>
      </trkpt>
      <trkpt lat="42.42066" lon="2.26182">
        <ele>2130.6000976562</ele>
        <time>2023-07-17T10:01:23.000Z</time>
      </trkpt>
      <trkpt lat="42.42065" lon="2.26183">
        <ele>2131.1999511719</ele>
        <time>2023-07-17T10:01:26.000Z</time>
      </trkpt>
      <trkpt lat="42.42065" lon="2.26184">
        <ele>2131.8000488281</ele>
        <time>2023-07-17T10:01:29.000Z</time>
      </trkpt>
      <trkpt lat="42.42065" lon="2.26181">
        <ele>2132.1999511719</ele>
        <time>2023-07-17T10:01:33.000Z</time>
      </trkpt>
      <trkpt lat="42.42065" lon="2.26179">
        <ele>2132.6000976562</ele>
        <time>2023-07-17T10:01:35.000Z</time>
      </trkpt>
      <trkpt lat="42.42066" lon="2.26178">
        <ele>2132.8000488281</ele>
        <time>2023-07-17T10:01:37.000Z</time>
      </trkpt>
      <trkpt lat="42.42065" lon="2.2618">
        <ele>2133.1999511719</ele>
        <time>2023-07-17T10:01:41.000Z</time>
      </trkpt>
      <trkpt lat="42.42063" lon="2.26175">
        <ele>2134.8000488281</ele>
        <time>2023-07-17T10:01:54.000Z</time>
      </trkpt>
      <trkpt lat="42.42061" lon="2.26172">
        <ele>2135.1999511719</ele>
        <time>2023-07-17T10:02:01.000Z</time>
      </trkpt>
      <trkpt lat="42.42059" lon="2.26172">
        <ele>2135.8000488281</ele>
        <time>2023-07-17T10:02:09.000Z</time>
      </trkpt>
      <trkpt lat="42.42061" lon="2.26169">
        <ele>2136.6000976562</ele>
        <time>2023-07-17T10:02:16.000Z</time>
      </trkpt>
      <trkpt lat="42.42063" lon="2.26161">
        <ele>2137.8000488281</ele>
        <time>2023-07-17T10:02:28.000Z</time>
      </trkpt>
      <trkpt lat="42.4206" lon="2.26159">
        <ele>2138</ele>
        <time>2023-07-17T10:02:30.000Z</time>
      </trkpt>
      <trkpt lat="42.42055" lon="2.26155">
        <ele>2138.6000976562</ele>
        <time>2023-07-17T10:02:37.000Z</time>
      </trkpt>
      <trkpt lat="42.42053" lon="2.26154">
        <ele>2138.8000488281</ele>
        <time>2023-07-17T10:02:41.000Z</time>
      </trkpt>
      <trkpt lat="42.42051" lon="2.26152">
        <ele>2139</ele>
        <time>2023-07-17T10:02:46.000Z</time>
      </trkpt>
      <trkpt lat="42.42051" lon="2.2615">
        <ele>2140</ele>
        <time>2023-07-17T10:02:51.000Z</time>
      </trkpt>
      <trkpt lat="42.42049" lon="2.26151">
        <ele>2140.8000488281</ele>
        <time>2023-07-17T10:02:55.000Z</time>
      </trkpt>
      <trkpt lat="42.4205" lon="2.26151">
        <ele>2141.1999511719</ele>
        <time>2023-07-17T10:02:56.000Z</time>
      </trkpt>
      <trkpt lat="42.42047" lon="2.26149">
        <ele>2141.8000488281</ele>
        <time>2023-07-17T10:03:02.000Z</time>
      </trkpt>
      <trkpt lat="42.42046" lon="2.26148">
        <ele>2142.1999511719</ele>
        <time>2023-07-17T10:03:08.000Z</time>
      </trkpt>
      <trkpt lat="42.42045" lon="2.26149">
        <ele>2142.6000976562</ele>
        <time>2023-07-17T10:03:10.000Z</time>
      </trkpt>
      <trkpt lat="42.42043" lon="2.26147">
        <ele>2143.1999511719</ele>
        <time>2023-07-17T10:03:14.000Z</time>
      </trkpt>
      <trkpt lat="42.42041" lon="2.26146">
        <ele>2143.8000488281</ele>
        <time>2023-07-17T10:03:17.000Z</time>
      </trkpt>
      <trkpt lat="42.42041" lon="2.26146">
        <ele>2144.1999511719</ele>
        <time>2023-07-17T10:03:21.000Z</time>
      </trkpt>
      <trkpt lat="42.42038" lon="2.26145">
        <ele>2144.6000976562</ele>
        <time>2023-07-17T10:03:26.000Z</time>
      </trkpt>
      <trkpt lat="42.42036" lon="2.26142">
        <ele>2145</ele>
        <time>2023-07-17T10:03:32.000Z</time>
      </trkpt>
      <trkpt lat="42.42039" lon="2.2614">
        <ele>2145.3999023438</ele>
        <time>2023-07-17T10:03:37.000Z</time>
      </trkpt>
      <trkpt lat="42.42039" lon="2.26139">
        <ele>2145.8000488281</ele>
        <time>2023-07-17T10:03:39.000Z</time>
      </trkpt>
      <trkpt lat="42.42039" lon="2.26138">
        <ele>2146.3999023438</ele>
        <time>2023-07-17T10:03:43.000Z</time>
      </trkpt>
      <trkpt lat="42.4204" lon="2.26138">
        <ele>2147.3999023438</ele>
        <time>2023-07-17T10:03:48.000Z</time>
      </trkpt>
      <trkpt lat="42.4204" lon="2.26135">
        <ele>2148.6000976562</ele>
        <time>2023-07-17T10:03:54.000Z</time>
      </trkpt>
      <trkpt lat="42.42038" lon="2.2613">
        <ele>2150.8000488281</ele>
        <time>2023-07-17T10:04:06.000Z</time>
      </trkpt>
      <trkpt lat="42.42038" lon="2.26129">
        <ele>2151.1999511719</ele>
        <time>2023-07-17T10:04:08.000Z</time>
      </trkpt>
      <trkpt lat="42.42039" lon="2.26124">
        <ele>2151.8000488281</ele>
        <time>2023-07-17T10:04:14.000Z</time>
      </trkpt>
      <trkpt lat="42.42039" lon="2.26122">
        <ele>2152.6000976562</ele>
        <time>2023-07-17T10:04:17.000Z</time>
      </trkpt>
      <trkpt lat="42.4204" lon="2.26122">
        <ele>2153</ele>
        <time>2023-07-17T10:04:18.000Z</time>
      </trkpt>
      <trkpt lat="42.42039" lon="2.2612">
        <ele>2154</ele>
        <time>2023-07-17T10:04:24.000Z</time>
      </trkpt>
      <trkpt lat="42.4204" lon="2.26118">
        <ele>2155.1999511719</ele>
        <time>2023-07-17T10:04:33.000Z</time>
      </trkpt>
      <trkpt lat="42.4204" lon="2.26119">
        <ele>2156.3999023438</ele>
        <time>2023-07-17T10:04:37.000Z</time>
      </trkpt>
      <trkpt lat="42.42041" lon="2.26118">
        <ele>2156.3999023438</ele>
        <time>2023-07-17T10:04:41.000Z</time>
      </trkpt>
      <trkpt lat="42.42041" lon="2.26119">
        <ele>2156.3999023438</ele>
        <time>2023-07-17T10:04:49.000Z</time>
      </trkpt>
      <trkpt lat="42.42043" lon="2.26118">
        <ele>2156.8000488281</ele>
        <time>2023-07-17T10:04:55.000Z</time>
      </trkpt>
      <trkpt lat="42.42047" lon="2.26112">
        <ele>2159.3999023438</ele>
        <time>2023-07-17T10:05:19.000Z</time>
      </trkpt>
      <trkpt lat="42.42048" lon="2.26108">
        <ele>2159.6000976562</ele>
        <time>2023-07-17T10:05:22.000Z</time>
      </trkpt>
      <trkpt lat="42.42045" lon="2.26103">
        <ele>2159.8000488281</ele>
        <time>2023-07-17T10:05:28.000Z</time>
      </trkpt>
      <trkpt lat="42.42044" lon="2.26099">
        <ele>2160</ele>
        <time>2023-07-17T10:05:36.000Z</time>
      </trkpt>
      <trkpt lat="42.42043" lon="2.26098">
        <ele>2160.8000488281</ele>
        <time>2023-07-17T10:05:40.000Z</time>
      </trkpt>
      <trkpt lat="42.42043" lon="2.26096">
        <ele>2161.3999023438</ele>
        <time>2023-07-17T10:05:46.000Z</time>
      </trkpt>
      <trkpt lat="42.42044" lon="2.26098">
        <ele>2162</ele>
        <time>2023-07-17T10:05:51.000Z</time>
      </trkpt>
      <trkpt lat="42.4206" lon="2.2609">
        <ele>2165.3999023438</ele>
        <time>2023-07-17T10:06:12.000Z</time>
      </trkpt>
      <trkpt lat="42.42063" lon="2.26082">
        <ele>2166.1999511719</ele>
        <time>2023-07-17T10:06:22.000Z</time>
      </trkpt>
      <trkpt lat="42.42064" lon="2.26078">
        <ele>2166.1999511719</ele>
        <time>2023-07-17T10:06:24.000Z</time>
      </trkpt>
      <trkpt lat="42.42065" lon="2.26074">
        <ele>2166.6000976562</ele>
        <time>2023-07-17T10:06:29.000Z</time>
      </trkpt>
      <trkpt lat="42.42069" lon="2.26068">
        <ele>2167.1999511719</ele>
        <time>2023-07-17T10:06:38.000Z</time>
      </trkpt>
      <trkpt lat="42.42071" lon="2.26063">
        <ele>2167.1999511719</ele>
        <time>2023-07-17T10:06:44.000Z</time>
      </trkpt>
      <trkpt lat="42.42072" lon="2.26062">
        <ele>2167.3999023438</ele>
        <time>2023-07-17T10:06:45.000Z</time>
      </trkpt>
      <trkpt lat="42.42069" lon="2.26058">
        <ele>2168</ele>
        <time>2023-07-17T10:06:51.000Z</time>
      </trkpt>
      <trkpt lat="42.42068" lon="2.26056">
        <ele>2168.3999023438</ele>
        <time>2023-07-17T10:06:53.000Z</time>
      </trkpt>
      <trkpt lat="42.42065" lon="2.26056">
        <ele>2169</ele>
        <time>2023-07-17T10:06:57.000Z</time>
      </trkpt>
      <trkpt lat="42.42064" lon="2.26056">
        <ele>2169</ele>
        <time>2023-07-17T10:06:58.000Z</time>
      </trkpt>
      <trkpt lat="42.42064" lon="2.26054">
        <ele>2169.8000488281</ele>
        <time>2023-07-17T10:07:05.000Z</time>
      </trkpt>
      <trkpt lat="42.42062" lon="2.26051">
        <ele>2170.1999511719</ele>
        <time>2023-07-17T10:07:07.000Z</time>
      </trkpt>
      <trkpt lat="42.42059" lon="2.26047">
        <ele>2170.6000976562</ele>
        <time>2023-07-17T10:07:10.000Z</time>
      </trkpt>
      <trkpt lat="42.42055" lon="2.2604">
        <ele>2171.3999023438</ele>
        <time>2023-07-17T10:07:15.000Z</time>
      </trkpt>
      <trkpt lat="42.42055" lon="2.26036">
        <ele>2171.8000488281</ele>
        <time>2023-07-17T10:07:18.000Z</time>
      </trkpt>
      <trkpt lat="42.42055" lon="2.26031">
        <ele>2172.3999023438</ele>
        <time>2023-07-17T10:07:22.000Z</time>
      </trkpt>
      <trkpt lat="42.42056" lon="2.26028">
        <ele>2172.8000488281</ele>
        <time>2023-07-17T10:07:24.000Z</time>
      </trkpt>
      <trkpt lat="42.42055" lon="2.26023">
        <ele>2173.3999023438</ele>
        <time>2023-07-17T10:07:30.000Z</time>
      </trkpt>
      <trkpt lat="42.42055" lon="2.26017">
        <ele>2174</ele>
        <time>2023-07-17T10:07:34.000Z</time>
      </trkpt>
      <trkpt lat="42.42056" lon="2.2601">
        <ele>2174.3999023438</ele>
        <time>2023-07-17T10:07:39.000Z</time>
      </trkpt>
      <trkpt lat="42.42055" lon="2.26008">
        <ele>2175</ele>
        <time>2023-07-17T10:07:44.000Z</time>
      </trkpt>
      <trkpt lat="42.42053" lon="2.26009">
        <ele>2175.1999511719</ele>
        <time>2023-07-17T10:07:46.000Z</time>
      </trkpt>
      <trkpt lat="42.42054" lon="2.26001">
        <ele>2175.1999511719</ele>
        <time>2023-07-17T10:07:53.000Z</time>
      </trkpt>
      <trkpt lat="42.42056" lon="2.25993">
        <ele>2176</ele>
        <time>2023-07-17T10:08:00.000Z</time>
      </trkpt>
      <trkpt lat="42.42055" lon="2.25993">
        <ele>2176</ele>
        <time>2023-07-17T10:08:01.000Z</time>
      </trkpt>
      <trkpt lat="42.42059" lon="2.2599">
        <ele>2176.6000976562</ele>
        <time>2023-07-17T10:08:05.000Z</time>
      </trkpt>
      <trkpt lat="42.42063" lon="2.25985">
        <ele>2177.1999511719</ele>
        <time>2023-07-17T10:08:10.000Z</time>
      </trkpt>
      <trkpt lat="42.42062" lon="2.25984">
        <ele>2177.3999023438</ele>
        <time>2023-07-17T10:08:11.000Z</time>
      </trkpt>
      <trkpt lat="42.42055" lon="2.25976">
        <ele>2178.1999511719</ele>
        <time>2023-07-17T10:08:19.000Z</time>
      </trkpt>
      <trkpt lat="42.42055" lon="2.25976">
        <ele>2178.1999511719</ele>
        <time>2023-07-17T10:08:20.000Z</time>
      </trkpt>
      <trkpt lat="42.42058" lon="2.25964">
        <ele>2179.1999511719</ele>
        <time>2023-07-17T10:08:28.000Z</time>
      </trkpt>
      <trkpt lat="42.42056" lon="2.25961">
        <ele>2180.1999511719</ele>
        <time>2023-07-17T10:08:33.000Z</time>
      </trkpt>
      <trkpt lat="42.42056" lon="2.2596">
        <ele>2180.3999023438</ele>
        <time>2023-07-17T10:08:34.000Z</time>
      </trkpt>
      <trkpt lat="42.42054" lon="2.25953">
        <ele>2181.1999511719</ele>
        <time>2023-07-17T10:08:39.000Z</time>
      </trkpt>
      <trkpt lat="42.42054" lon="2.25951">
        <ele>2181.3999023438</ele>
        <time>2023-07-17T10:08:40.000Z</time>
      </trkpt>
      <trkpt lat="42.42053" lon="2.25947">
        <ele>2182.3999023438</ele>
        <time>2023-07-17T10:08:44.000Z</time>
      </trkpt>
      <trkpt lat="42.42052" lon="2.25942">
        <ele>2182.8000488281</ele>
        <time>2023-07-17T10:08:47.000Z</time>
      </trkpt>
      <trkpt lat="42.42052" lon="2.25938">
        <ele>2183.3999023438</ele>
        <time>2023-07-17T10:08:50.000Z</time>
      </trkpt>
      <trkpt lat="42.42053" lon="2.2593">
        <ele>2184.3999023438</ele>
        <time>2023-07-17T10:08:55.000Z</time>
      </trkpt>
      <trkpt lat="42.42053" lon="2.25926">
        <ele>2185.3999023438</ele>
        <time>2023-07-17T10:09:00.000Z</time>
      </trkpt>
      <trkpt lat="42.42053" lon="2.25927">
        <ele>2186</ele>
        <time>2023-07-17T10:09:03.000Z</time>
      </trkpt>
      <trkpt lat="42.42053" lon="2.25926">
        <ele>2186.6000976562</ele>
        <time>2023-07-17T10:09:08.000Z</time>
      </trkpt>
      <trkpt lat="42.42053" lon="2.25925">
        <ele>2186.8000488281</ele>
        <time>2023-07-17T10:09:09.000Z</time>
      </trkpt>
      <trkpt lat="42.42053" lon="2.25922">
        <ele>2187.6000976562</ele>
        <time>2023-07-17T10:09:13.000Z</time>
      </trkpt>
      <trkpt lat="42.42052" lon="2.25916">
        <ele>2188</ele>
        <time>2023-07-17T10:09:18.000Z</time>
      </trkpt>
      <trkpt lat="42.4204" lon="2.25909">
        <ele>2189.3999023438</ele>
        <time>2023-07-17T10:09:42.000Z</time>
      </trkpt>
      <trkpt lat="42.4204" lon="2.25906">
        <ele>2189.8000488281</ele>
        <time>2023-07-17T10:09:44.000Z</time>
      </trkpt>
      <trkpt lat="42.42041" lon="2.25903">
        <ele>2190.6000976562</ele>
        <time>2023-07-17T10:09:49.000Z</time>
      </trkpt>
      <trkpt lat="42.4204" lon="2.259">
        <ele>2191</ele>
        <time>2023-07-17T10:09:55.000Z</time>
      </trkpt>
      <trkpt lat="42.4204" lon="2.259">
        <ele>2191</ele>
        <time>2023-07-17T10:09:56.000Z</time>
      </trkpt>
      <trkpt lat="42.42039" lon="2.259">
        <ele>2191</ele>
        <time>2023-07-17T10:10:01.000Z</time>
      </trkpt>
      <trkpt lat="42.42047" lon="2.25899">
        <ele>2191.8000488281</ele>
        <time>2023-07-17T10:10:22.000Z</time>
      </trkpt>
      <trkpt lat="42.42046" lon="2.25896">
        <ele>2192</ele>
        <time>2023-07-17T10:10:26.000Z</time>
      </trkpt>
      <trkpt lat="42.42047" lon="2.25896">
        <ele>2192</ele>
        <time>2023-07-17T10:10:27.000Z</time>
      </trkpt>
      <trkpt lat="42.42048" lon="2.25892">
        <ele>2193</ele>
        <time>2023-07-17T10:10:32.000Z</time>
      </trkpt>
      <trkpt lat="42.42048" lon="2.2589">
        <ele>2193.6000976562</ele>
        <time>2023-07-17T10:10:35.000Z</time>
      </trkpt>
      <trkpt lat="42.42049" lon="2.25887">
        <ele>2194</ele>
        <time>2023-07-17T10:10:38.000Z</time>
      </trkpt>
      <trkpt lat="42.42047" lon="2.25885">
        <ele>2194.8000488281</ele>
        <time>2023-07-17T10:10:43.000Z</time>
      </trkpt>
      <trkpt lat="42.42046" lon="2.25885">
        <ele>2195.1999511719</ele>
        <time>2023-07-17T10:10:44.000Z</time>
      </trkpt>
      <trkpt lat="42.42043" lon="2.25883">
        <ele>2196</ele>
        <time>2023-07-17T10:10:50.000Z</time>
      </trkpt>
      <trkpt lat="42.42042" lon="2.25883">
        <ele>2196.1999511719</ele>
        <time>2023-07-17T10:10:51.000Z</time>
      </trkpt>
      <trkpt lat="42.42038" lon="2.25879">
        <ele>2197.6000976562</ele>
        <time>2023-07-17T10:11:05.000Z</time>
      </trkpt>
      <trkpt lat="42.42037" lon="2.25876">
        <ele>2198</ele>
        <time>2023-07-17T10:11:11.000Z</time>
      </trkpt>
      <trkpt lat="42.42039" lon="2.25873">
        <ele>2198.3999023438</ele>
        <time>2023-07-17T10:11:15.000Z</time>
      </trkpt>
      <trkpt lat="42.42039" lon="2.25871">
        <ele>2198.8000488281</ele>
        <time>2023-07-17T10:11:17.000Z</time>
      </trkpt>
      <trkpt lat="42.42041" lon="2.25868">
        <ele>2199.6000976562</ele>
        <time>2023-07-17T10:11:25.000Z</time>
      </trkpt>
      <trkpt lat="42.42044" lon="2.25866">
        <ele>2200.8000488281</ele>
        <time>2023-07-17T10:11:32.000Z</time>
      </trkpt>
      <trkpt lat="42.42045" lon="2.25865">
        <ele>2200.8000488281</ele>
        <time>2023-07-17T10:11:34.000Z</time>
      </trkpt>
      <trkpt lat="42.42045" lon="2.25859">
        <ele>2201.3999023438</ele>
        <time>2023-07-17T10:11:46.000Z</time>
      </trkpt>
      <trkpt lat="42.42041" lon="2.25859">
        <ele>2202.8000488281</ele>
        <time>2023-07-17T10:12:11.000Z</time>
      </trkpt>
      <trkpt lat="42.42034" lon="2.25856">
        <ele>2206</ele>
        <time>2023-07-17T10:12:38.000Z</time>
      </trkpt>
      <trkpt lat="42.42034" lon="2.25855">
        <ele>2206</ele>
        <time>2023-07-17T10:12:39.000Z</time>
      </trkpt>
      <trkpt lat="42.42036" lon="2.25849">
        <ele>2207</ele>
        <time>2023-07-17T10:12:50.000Z</time>
      </trkpt>
      <trkpt lat="42.42036" lon="2.25849">
        <ele>2207</ele>
        <time>2023-07-17T10:12:51.000Z</time>
      </trkpt>
      <trkpt lat="42.42037" lon="2.25846">
        <ele>2208</ele>
        <time>2023-07-17T10:13:01.000Z</time>
      </trkpt>
      <trkpt lat="42.42037" lon="2.25845">
        <ele>2208</ele>
        <time>2023-07-17T10:13:08.000Z</time>
      </trkpt>
      <trkpt lat="42.42038" lon="2.25845">
        <ele>2208.1999511719</ele>
        <time>2023-07-17T10:13:09.000Z</time>
      </trkpt>
      <trkpt lat="42.42043" lon="2.25832">
        <ele>2211.8000488281</ele>
        <time>2023-07-17T10:13:39.000Z</time>
      </trkpt>
      <trkpt lat="42.42037" lon="2.25825">
        <ele>2212.3999023438</ele>
        <time>2023-07-17T10:13:44.000Z</time>
      </trkpt>
      <trkpt lat="42.42031" lon="2.25826">
        <ele>2217</ele>
        <time>2023-07-17T10:14:21.000Z</time>
      </trkpt>
      <trkpt lat="42.42031" lon="2.25825">
        <ele>2217.1999511719</ele>
        <time>2023-07-17T10:14:24.000Z</time>
      </trkpt>
      <trkpt lat="42.42032" lon="2.25827">
        <ele>2218</ele>
        <time>2023-07-17T10:14:30.000Z</time>
      </trkpt>
      <trkpt lat="42.42033" lon="2.25828">
        <ele>2218.1999511719</ele>
        <time>2023-07-17T10:14:33.000Z</time>
      </trkpt>
      <trkpt lat="42.42033" lon="2.25828">
        <ele>2218.6000976562</ele>
        <time>2023-07-17T10:14:42.000Z</time>
      </trkpt>
      <trkpt lat="42.42034" lon="2.25828">
        <ele>2219</ele>
        <time>2023-07-17T10:14:44.000Z</time>
      </trkpt>
      <trkpt lat="42.42038" lon="2.25821">
        <ele>2219.8000488281</ele>
        <time>2023-07-17T10:14:52.000Z</time>
      </trkpt>
      <trkpt lat="42.42039" lon="2.25821">
        <ele>2220</ele>
        <time>2023-07-17T10:14:53.000Z</time>
      </trkpt>
      <trkpt lat="42.42041" lon="2.25816">
        <ele>2220.8000488281</ele>
        <time>2023-07-17T10:14:59.000Z</time>
      </trkpt>
      <trkpt lat="42.42039" lon="2.25815">
        <ele>2220.8000488281</ele>
        <time>2023-07-17T10:15:01.000Z</time>
      </trkpt>
      <trkpt lat="42.42037" lon="2.25814">
        <ele>2221</ele>
        <time>2023-07-17T10:15:03.000Z</time>
      </trkpt>
      <trkpt lat="42.42029" lon="2.25813">
        <ele>2223.3999023438</ele>
        <time>2023-07-17T10:15:39.000Z</time>
      </trkpt>
      <trkpt lat="42.42031" lon="2.25811">
        <ele>2223.1999511719</ele>
        <time>2023-07-17T10:15:47.000Z</time>
      </trkpt>
      <trkpt lat="42.42031" lon="2.25808">
        <ele>2224.3999023438</ele>
        <time>2023-07-17T10:15:53.000Z</time>
      </trkpt>
      <trkpt lat="42.42033" lon="2.25803">
        <ele>2224.8000488281</ele>
        <time>2023-07-17T10:15:57.000Z</time>
      </trkpt>
      <trkpt lat="42.42032" lon="2.25801">
        <ele>2225.3999023438</ele>
        <time>2023-07-17T10:16:03.000Z</time>
      </trkpt>
      <trkpt lat="42.4203" lon="2.258">
        <ele>2225.8000488281</ele>
        <time>2023-07-17T10:16:06.000Z</time>
      </trkpt>
      <trkpt lat="42.4201" lon="2.25795">
        <ele>2231.1999511719</ele>
        <time>2023-07-17T10:16:43.000Z</time>
      </trkpt>
      <trkpt lat="42.4201" lon="2.25794">
        <ele>2231.8000488281</ele>
        <time>2023-07-17T10:16:54.000Z</time>
      </trkpt>
      <trkpt lat="42.42007" lon="2.2579">
        <ele>2231.6000976562</ele>
        <time>2023-07-17T10:17:01.000Z</time>
      </trkpt>
      <trkpt lat="42.42006" lon="2.25785">
        <ele>2233.3999023438</ele>
        <time>2023-07-17T10:17:11.000Z</time>
      </trkpt>
      <trkpt lat="42.42004" lon="2.25784">
        <ele>2233.6000976562</ele>
        <time>2023-07-17T10:17:14.000Z</time>
      </trkpt>
      <trkpt lat="42.42" lon="2.25784">
        <ele>2234</ele>
        <time>2023-07-17T10:17:20.000Z</time>
      </trkpt>
      <trkpt lat="42.41994" lon="2.2579">
        <ele>2233.3999023438</ele>
        <time>2023-07-17T10:17:30.000Z</time>
      </trkpt>
      <trkpt lat="42.41985" lon="2.25794">
        <ele>2233.1999511719</ele>
        <time>2023-07-17T10:17:45.000Z</time>
      </trkpt>
      <trkpt lat="42.41969" lon="2.25789">
        <ele>2232.6000976562</ele>
        <time>2023-07-17T10:18:06.000Z</time>
      </trkpt>
      <trkpt lat="42.41968" lon="2.25789">
        <ele>2233</ele>
        <time>2023-07-17T10:18:07.000Z</time>
      </trkpt>
      <trkpt lat="42.41967" lon="2.25786">
        <ele>2233.3999023438</ele>
        <time>2023-07-17T10:18:11.000Z</time>
      </trkpt>
      <trkpt lat="42.41966" lon="2.25784">
        <ele>2233.6000976562</ele>
        <time>2023-07-17T10:18:13.000Z</time>
      </trkpt>
      <trkpt lat="42.41965" lon="2.25779">
        <ele>2234.1999511719</ele>
        <time>2023-07-17T10:18:18.000Z</time>
      </trkpt>
      <trkpt lat="42.41965" lon="2.25776">
        <ele>2234.3999023438</ele>
        <time>2023-07-17T10:18:21.000Z</time>
      </trkpt>
      <trkpt lat="42.41965" lon="2.25772">
        <ele>2235.3999023438</ele>
        <time>2023-07-17T10:18:25.000Z</time>
      </trkpt>
      <trkpt lat="42.41965" lon="2.25771">
        <ele>2235.8000488281</ele>
        <time>2023-07-17T10:18:26.000Z</time>
      </trkpt>
      <trkpt lat="42.41967" lon="2.25769">
        <ele>2236.8000488281</ele>
        <time>2023-07-17T10:18:30.000Z</time>
      </trkpt>
      <trkpt lat="42.41967" lon="2.25766">
        <ele>2237.6000976562</ele>
        <time>2023-07-17T10:18:32.000Z</time>
      </trkpt>
      <trkpt lat="42.41967" lon="2.25765">
        <ele>2237.8000488281</ele>
        <time>2023-07-17T10:18:33.000Z</time>
      </trkpt>
      <trkpt lat="42.41968" lon="2.25767">
        <ele>2238.3999023438</ele>
        <time>2023-07-17T10:18:38.000Z</time>
      </trkpt>
      <trkpt lat="42.41977" lon="2.2577">
        <ele>2238.6000976562</ele>
        <time>2023-07-17T10:21:01.000Z</time>
      </trkpt>
      <trkpt lat="42.41972" lon="2.25767">
        <ele>2234.5</ele>
        <time>2023-07-17T12:26:54Z</time>
      </trkpt>
      <trkpt lat="42.41968" lon="2.25759">
        <ele>2235</ele>
        <time>2023-07-17T12:27:38Z</time>
      </trkpt>
      <trkpt lat="42.41969" lon="2.25754">
        <ele>2235.9</ele>
        <time>2023-07-17T12:28:22Z</time>
      </trkpt>
      <trkpt lat="42.41971" lon="2.25729">
        <ele>2239.9</ele>
        <time>2023-07-17T12:29:06Z</time>
      </trkpt>
      <trkpt lat="42.41982" lon="2.25712">
        <ele>2243</ele>
        <time>2023-07-17T12:29:50Z</time>
      </trkpt>
      <trkpt lat="42.41986" lon="2.25706">
        <ele>2244.2</ele>
        <time>2023-07-17T12:30:34Z</time>
      </trkpt>
      <trkpt lat="42.41987" lon="2.25692">
        <ele>2246.5</ele>
        <time>2023-07-17T12:31:18Z</time>
      </trkpt>
      <trkpt lat="42.41991" lon="2.25685">
        <ele>2248.4</ele>
        <time>2023-07-17T12:32:02Z</time>
      </trkpt>
      <trkpt lat="42.42002" lon="2.25666">
        <ele>2254.2</ele>
        <time>2023-07-17T12:32:46Z</time>
      </trkpt>
      <trkpt lat="42.42002" lon="2.25656">
        <ele>2255.7</ele>
        <time>2023-07-17T12:33:30Z</time>
      </trkpt>
      <trkpt lat="42.42002" lon="2.25637">
        <ele>2258.4</ele>
        <time>2023-07-17T12:34:14Z</time>
      </trkpt>
      <trkpt lat="42.42004" lon="2.2562">
        <ele>2260.3</ele>
        <time>2023-07-17T12:34:58Z</time>
      </trkpt>
      <trkpt lat="42.42008" lon="2.25596">
        <ele>2264.1</ele>
        <time>2023-07-17T12:35:42Z</time>
      </trkpt>
      <trkpt lat="42.42012" lon="2.25564">
        <ele>2268.5</ele>
        <time>2023-07-17T12:36:26Z</time>
      </trkpt>
      <trkpt lat="42.42014" lon="2.25543">
        <ele>2270.9</ele>
        <time>2023-07-17T12:37:10Z</time>
      </trkpt>
      <trkpt lat="42.42019" lon="2.25499">
        <ele>2276.1</ele>
        <time>2023-07-17T12:37:54Z</time>
      </trkpt>
      <trkpt lat="42.42025" lon="2.25458">
        <ele>2280</ele>
        <time>2023-07-17T12:38:38Z</time>
      </trkpt>
      <trkpt lat="42.42027" lon="2.25436">
        <ele>2282.5</ele>
        <time>2023-07-17T12:39:22Z</time>
      </trkpt>
      <trkpt lat="42.42035" lon="2.25418">
        <ele>2283.6</ele>
        <time>2023-07-17T12:40:06Z</time>
      </trkpt>
      <trkpt lat="42.42037" lon="2.25414">
        <ele>2284</ele>
        <time>2023-07-17T12:40:50Z</time>
      </trkpt>
      <trkpt lat="42.42041" lon="2.25415">
        <ele>2281.8000488281</ele>
        <time>2023-07-17T12:41:48.000Z</time>
      </trkpt>
      <trkpt lat="42.42037" lon="2.25413">
        <ele>2282.3999023438</ele>
        <time>2023-07-17T12:41:54.000Z</time>
      </trkpt>
      <trkpt lat="42.42037" lon="2.2541">
        <ele>2282.8000488281</ele>
        <time>2023-07-17T12:41:58.000Z</time>
      </trkpt>
      <trkpt lat="42.4204" lon="2.25395">
        <ele>2283.8000488281</ele>
        <time>2023-07-17T12:42:07.000Z</time>
      </trkpt>
      <trkpt lat="42.4204" lon="2.25394">
        <ele>2284</ele>
        <time>2023-07-17T12:42:08.000Z</time>
      </trkpt>
      <trkpt lat="42.4204" lon="2.25381">
        <ele>2285</ele>
        <time>2023-07-17T12:42:16.000Z</time>
      </trkpt>
      <trkpt lat="42.42036" lon="2.25383">
        <ele>2285.8000488281</ele>
        <time>2023-07-17T12:42:22.000Z</time>
      </trkpt>
      <trkpt lat="42.42036" lon="2.25382">
        <ele>2286.1999511719</ele>
        <time>2023-07-17T12:42:24.000Z</time>
      </trkpt>
      <trkpt lat="42.42035" lon="2.25378">
        <ele>2286.8000488281</ele>
        <time>2023-07-17T12:42:28.000Z</time>
      </trkpt>
      <trkpt lat="42.42035" lon="2.25371">
        <ele>2287.6000976562</ele>
        <time>2023-07-17T12:42:34.000Z</time>
      </trkpt>
      <trkpt lat="42.42035" lon="2.2537">
        <ele>2288</ele>
        <time>2023-07-17T12:42:36.000Z</time>
      </trkpt>
      <trkpt lat="42.42035" lon="2.25367">
        <ele>2288.8000488281</ele>
        <time>2023-07-17T12:42:42.000Z</time>
      </trkpt>
      <trkpt lat="42.42035" lon="2.25366">
        <ele>2289.1999511719</ele>
        <time>2023-07-17T12:42:44.000Z</time>
      </trkpt>
      <trkpt lat="42.42035" lon="2.25361">
        <ele>2290</ele>
        <time>2023-07-17T12:42:50.000Z</time>
      </trkpt>
      <trkpt lat="42.42035" lon="2.25361">
        <ele>2290.1999511719</ele>
        <time>2023-07-17T12:42:51.000Z</time>
      </trkpt>
      <trkpt lat="42.42036" lon="2.25355">
        <ele>2291</ele>
        <time>2023-07-17T12:42:57.000Z</time>
      </trkpt>
      <trkpt lat="42.42037" lon="2.25351">
        <ele>2291.3999023438</ele>
        <time>2023-07-17T12:43:00.000Z</time>
      </trkpt>
      <trkpt lat="42.42037" lon="2.2535">
        <ele>2291.8000488281</ele>
        <time>2023-07-17T12:43:03.000Z</time>
      </trkpt>
      <trkpt lat="42.42037" lon="2.25343">
        <ele>2292.6000976562</ele>
        <time>2023-07-17T12:43:10.000Z</time>
      </trkpt>
      <trkpt lat="42.42037" lon="2.25342">
        <ele>2292.6000976562</ele>
        <time>2023-07-17T12:43:11.000Z</time>
      </trkpt>
      <trkpt lat="42.42037" lon="2.25339">
        <ele>2293.6000976562</ele>
        <time>2023-07-17T12:43:15.000Z</time>
      </trkpt>
      <trkpt lat="42.42038" lon="2.25336">
        <ele>2294.3999023438</ele>
        <time>2023-07-17T12:43:20.000Z</time>
      </trkpt>
      <trkpt lat="42.42041" lon="2.25334">
        <ele>2294.8000488281</ele>
        <time>2023-07-17T12:43:23.000Z</time>
      </trkpt>
      <trkpt lat="42.42043" lon="2.25333">
        <ele>2295.6000976562</ele>
        <time>2023-07-17T12:43:28.000Z</time>
      </trkpt>
      <trkpt lat="42.42043" lon="2.25332">
        <ele>2295.8000488281</ele>
        <time>2023-07-17T12:43:29.000Z</time>
      </trkpt>
      <trkpt lat="42.42046" lon="2.2533">
        <ele>2297</ele>
        <time>2023-07-17T12:43:35.000Z</time>
      </trkpt>
      <trkpt lat="42.42046" lon="2.2533">
        <ele>2297.1999511719</ele>
        <time>2023-07-17T12:43:36.000Z</time>
      </trkpt>
      <trkpt lat="42.42047" lon="2.25326">
        <ele>2298</ele>
        <time>2023-07-17T12:43:41.000Z</time>
      </trkpt>
      <trkpt lat="42.42048" lon="2.25325">
        <ele>2298.8000488281</ele>
        <time>2023-07-17T12:43:45.000Z</time>
      </trkpt>
      <trkpt lat="42.42049" lon="2.25323">
        <ele>2299</ele>
        <time>2023-07-17T12:43:47.000Z</time>
      </trkpt>
      <trkpt lat="42.4205" lon="2.25319">
        <ele>2299.6000976562</ele>
        <time>2023-07-17T12:43:52.000Z</time>
      </trkpt>
      <trkpt lat="42.4205" lon="2.25317">
        <ele>2300.1999511719</ele>
        <time>2023-07-17T12:43:55.000Z</time>
      </trkpt>
      <trkpt lat="42.42051" lon="2.25314">
        <ele>2301</ele>
        <time>2023-07-17T12:43:59.000Z</time>
      </trkpt>
      <trkpt lat="42.42051" lon="2.25312">
        <ele>2301.3999023438</ele>
        <time>2023-07-17T12:44:01.000Z</time>
      </trkpt>
      <trkpt lat="42.42052" lon="2.25308">
        <ele>2302</ele>
        <time>2023-07-17T12:44:06.000Z</time>
      </trkpt>
      <trkpt lat="42.42053" lon="2.25308">
        <ele>2302.3999023438</ele>
        <time>2023-07-17T12:44:08.000Z</time>
      </trkpt>
      <trkpt lat="42.42052" lon="2.25307">
        <ele>2303.3999023438</ele>
        <time>2023-07-17T12:44:15.000Z</time>
      </trkpt>
      <trkpt lat="42.42052" lon="2.25306">
        <ele>2303.6000976562</ele>
        <time>2023-07-17T12:44:16.000Z</time>
      </trkpt>
      <trkpt lat="42.42052" lon="2.253">
        <ele>2304</ele>
        <time>2023-07-17T12:44:21.000Z</time>
      </trkpt>
      <trkpt lat="42.42052" lon="2.25298">
        <ele>2304.6000976562</ele>
        <time>2023-07-17T12:44:25.000Z</time>
      </trkpt>
      <trkpt lat="42.42054" lon="2.25295">
        <ele>2305.6000976562</ele>
        <time>2023-07-17T12:44:31.000Z</time>
      </trkpt>
      <trkpt lat="42.42054" lon="2.25295">
        <ele>2305.6000976562</ele>
        <time>2023-07-17T12:44:32.000Z</time>
      </trkpt>
      <trkpt lat="42.42055" lon="2.25296">
        <ele>2306.3999023438</ele>
        <time>2023-07-17T12:44:40.000Z</time>
      </trkpt>
      <trkpt lat="42.42055" lon="2.25296">
        <ele>2306.1999511719</ele>
        <time>2023-07-17T12:44:47.000Z</time>
      </trkpt>
      <trkpt lat="42.42055" lon="2.25293">
        <ele>2306.3999023438</ele>
        <time>2023-07-17T12:44:53.000Z</time>
      </trkpt>
      <trkpt lat="42.42057" lon="2.25289">
        <ele>2306.8000488281</ele>
        <time>2023-07-17T12:44:59.000Z</time>
      </trkpt>
      <trkpt lat="42.42057" lon="2.25288">
        <ele>2307</ele>
        <time>2023-07-17T12:45:00.000Z</time>
      </trkpt>
      <trkpt lat="42.42059" lon="2.25286">
        <ele>2308</ele>
        <time>2023-07-17T12:45:05.000Z</time>
      </trkpt>
      <trkpt lat="42.42059" lon="2.25283">
        <ele>2308.8000488281</ele>
        <time>2023-07-17T12:45:09.000Z</time>
      </trkpt>
      <trkpt lat="42.42059" lon="2.2528">
        <ele>2309</ele>
        <time>2023-07-17T12:45:11.000Z</time>
      </trkpt>
      <trkpt lat="42.4206" lon="2.25278">
        <ele>2309.3999023438</ele>
        <time>2023-07-17T12:45:14.000Z</time>
      </trkpt>
      <trkpt lat="42.42061" lon="2.25278">
        <ele>2310</ele>
        <time>2023-07-17T12:45:18.000Z</time>
      </trkpt>
      <trkpt lat="42.42062" lon="2.25277">
        <ele>2310.6000976562</ele>
        <time>2023-07-17T12:45:21.000Z</time>
      </trkpt>
      <trkpt lat="42.42063" lon="2.25274">
        <ele>2311.1999511719</ele>
        <time>2023-07-17T12:45:24.000Z</time>
      </trkpt>
      <trkpt lat="42.42064" lon="2.2527">
        <ele>2311.6000976562</ele>
        <time>2023-07-17T12:45:28.000Z</time>
      </trkpt>
      <trkpt lat="42.42063" lon="2.25268">
        <ele>2312.3999023438</ele>
        <time>2023-07-17T12:45:32.000Z</time>
      </trkpt>
      <trkpt lat="42.42063" lon="2.25266">
        <ele>2313</ele>
        <time>2023-07-17T12:45:34.000Z</time>
      </trkpt>
      <trkpt lat="42.42063" lon="2.25265">
        <ele>2313.1999511719</ele>
        <time>2023-07-17T12:45:35.000Z</time>
      </trkpt>
      <trkpt lat="42.42063" lon="2.25262">
        <ele>2314.1999511719</ele>
        <time>2023-07-17T12:45:40.000Z</time>
      </trkpt>
      <trkpt lat="42.42064" lon="2.2526">
        <ele>2314.8000488281</ele>
        <time>2023-07-17T12:45:45.000Z</time>
      </trkpt>
      <trkpt lat="42.42064" lon="2.25258">
        <ele>2315.3999023438</ele>
        <time>2023-07-17T12:45:47.000Z</time>
      </trkpt>
      <trkpt lat="42.42064" lon="2.25255">
        <ele>2316.3999023438</ele>
        <time>2023-07-17T12:45:52.000Z</time>
      </trkpt>
      <trkpt lat="42.42064" lon="2.25254">
        <ele>2316.6000976562</ele>
        <time>2023-07-17T12:45:53.000Z</time>
      </trkpt>
      <trkpt lat="42.42064" lon="2.25248">
        <ele>2317.3999023438</ele>
        <time>2023-07-17T12:45:59.000Z</time>
      </trkpt>
      <trkpt lat="42.42064" lon="2.25247">
        <ele>2317.6000976562</ele>
        <time>2023-07-17T12:46:01.000Z</time>
      </trkpt>
      <trkpt lat="42.42065" lon="2.25244">
        <ele>2318.6000976562</ele>
        <time>2023-07-17T12:46:06.000Z</time>
      </trkpt>
      <trkpt lat="42.42066" lon="2.25242">
        <ele>2319.3999023438</ele>
        <time>2023-07-17T12:46:10.000Z</time>
      </trkpt>
      <trkpt lat="42.42067" lon="2.25241">
        <ele>2319.6000976562</ele>
        <time>2023-07-17T12:46:11.000Z</time>
      </trkpt>
      <trkpt lat="42.42064" lon="2.25237">
        <ele>2320.6000976562</ele>
        <time>2023-07-17T12:46:17.000Z</time>
      </trkpt>
      <trkpt lat="42.42064" lon="2.25236">
        <ele>2320.6000976562</ele>
        <time>2023-07-17T12:46:18.000Z</time>
      </trkpt>
      <trkpt lat="42.42065" lon="2.25231">
        <ele>2321.8000488281</ele>
        <time>2023-07-17T12:46:25.000Z</time>
      </trkpt>
      <trkpt lat="42.42065" lon="2.25229">
        <ele>2322</ele>
        <time>2023-07-17T12:46:26.000Z</time>
      </trkpt>
      <trkpt lat="42.42065" lon="2.25224">
        <ele>2322.8000488281</ele>
        <time>2023-07-17T12:46:32.000Z</time>
      </trkpt>
      <trkpt lat="42.42065" lon="2.25224">
        <ele>2323.1999511719</ele>
        <time>2023-07-17T12:46:34.000Z</time>
      </trkpt>
      <trkpt lat="42.42065" lon="2.25221">
        <ele>2324.1999511719</ele>
        <time>2023-07-17T12:46:38.000Z</time>
      </trkpt>
      <trkpt lat="42.42065" lon="2.25216">
        <ele>2324.8000488281</ele>
        <time>2023-07-17T12:46:43.000Z</time>
      </trkpt>
      <trkpt lat="42.42065" lon="2.25215">
        <ele>2325.3999023438</ele>
        <time>2023-07-17T12:46:46.000Z</time>
      </trkpt>
      <trkpt lat="42.42065" lon="2.25216">
        <ele>2326</ele>
        <time>2023-07-17T12:46:49.000Z</time>
      </trkpt>
      <trkpt lat="42.42064" lon="2.25216">
        <ele>2326.1999511719</ele>
        <time>2023-07-17T12:46:51.000Z</time>
      </trkpt>
      <trkpt lat="42.42065" lon="2.25215">
        <ele>2326.1999511719</ele>
        <time>2023-07-17T12:46:52.000Z</time>
      </trkpt>
      <trkpt lat="42.42065" lon="2.25215">
        <ele>2326.3999023438</ele>
        <time>2023-07-17T12:46:53.000Z</time>
      </trkpt>
      <trkpt lat="42.42067" lon="2.25211">
        <ele>2327</ele>
        <time>2023-07-17T12:46:58.000Z</time>
      </trkpt>
      <trkpt lat="42.42067" lon="2.2521">
        <ele>2327</ele>
        <time>2023-07-17T12:46:59.000Z</time>
      </trkpt>
      <trkpt lat="42.42067" lon="2.25209">
        <ele>2327.1999511719</ele>
        <time>2023-07-17T12:47:00.000Z</time>
      </trkpt>
      <trkpt lat="42.42066" lon="2.25206">
        <ele>2327.6000976562</ele>
        <time>2023-07-17T12:47:04.000Z</time>
      </trkpt>
      <trkpt lat="42.42066" lon="2.25205">
        <ele>2327.6000976562</ele>
        <time>2023-07-17T12:47:06.000Z</time>
      </trkpt>
      <trkpt lat="42.42067" lon="2.25205">
        <ele>2328.6000976562</ele>
        <time>2023-07-17T12:47:12.000Z</time>
      </trkpt>
      <trkpt lat="42.42068" lon="2.25201">
        <ele>2329.6000976562</ele>
        <time>2023-07-17T12:47:18.000Z</time>
      </trkpt>
      <trkpt lat="42.42068" lon="2.252">
        <ele>2329.8000488281</ele>
        <time>2023-07-17T12:47:19.000Z</time>
      </trkpt>
      <trkpt lat="42.42068" lon="2.25195">
        <ele>2330.3999023438</ele>
        <time>2023-07-17T12:47:27.000Z</time>
      </trkpt>
      <trkpt lat="42.42068" lon="2.25194">
        <ele>2330.6000976562</ele>
        <time>2023-07-17T12:47:28.000Z</time>
      </trkpt>
      <trkpt lat="42.42068" lon="2.25185">
        <ele>2331.6000976562</ele>
        <time>2023-07-17T12:47:36.000Z</time>
      </trkpt>
      <trkpt lat="42.42067" lon="2.25183">
        <ele>2331.8000488281</ele>
        <time>2023-07-17T12:47:38.000Z</time>
      </trkpt>
      <trkpt lat="42.42066" lon="2.2518">
        <ele>2332.3999023438</ele>
        <time>2023-07-17T12:47:44.000Z</time>
      </trkpt>
      <trkpt lat="42.42064" lon="2.25175">
        <ele>2332.8000488281</ele>
        <time>2023-07-17T12:47:49.000Z</time>
      </trkpt>
      <trkpt lat="42.42063" lon="2.25173">
        <ele>2333.1999511719</ele>
        <time>2023-07-17T12:47:52.000Z</time>
      </trkpt>
      <trkpt lat="42.42062" lon="2.2517">
        <ele>2334</ele>
        <time>2023-07-17T12:47:59.000Z</time>
      </trkpt>
      <trkpt lat="42.42062" lon="2.25169">
        <ele>2334</ele>
        <time>2023-07-17T12:48:00.000Z</time>
      </trkpt>
      <trkpt lat="42.42062" lon="2.25164">
        <ele>2334.8000488281</ele>
        <time>2023-07-17T12:48:07.000Z</time>
      </trkpt>
      <trkpt lat="42.42062" lon="2.25163">
        <ele>2335</ele>
        <time>2023-07-17T12:48:08.000Z</time>
      </trkpt>
      <trkpt lat="42.42061" lon="2.2516">
        <ele>2335.6000976562</ele>
        <time>2023-07-17T12:48:14.000Z</time>
      </trkpt>
      <trkpt lat="42.42062" lon="2.25165">
        <ele>2335.3999023438</ele>
        <time>2023-07-17T12:48:23.000Z</time>
      </trkpt>
      <trkpt lat="42.42062" lon="2.25163">
        <ele>2335.1999511719</ele>
        <time>2023-07-17T12:48:32.000Z</time>
      </trkpt>
      <trkpt lat="42.42061" lon="2.25156">
        <ele>2335.3999023438</ele>
        <time>2023-07-17T12:48:40.000Z</time>
      </trkpt>
      <trkpt lat="42.42057" lon="2.25146">
        <ele>2335.6000976562</ele>
        <time>2023-07-17T12:48:48.000Z</time>
      </trkpt>
      <trkpt lat="42.42052" lon="2.25142">
        <ele>2336</ele>
        <time>2023-07-17T12:48:55.000Z</time>
      </trkpt>
      <trkpt lat="42.4205" lon="2.25139">
        <ele>2336</ele>
        <time>2023-07-17T12:48:57.000Z</time>
      </trkpt>
      <trkpt lat="42.42047" lon="2.25136">
        <ele>2336.1999511719</ele>
        <time>2023-07-17T12:49:01.000Z</time>
      </trkpt>
      <trkpt lat="42.42041" lon="2.25131">
        <ele>2336.8000488281</ele>
        <time>2023-07-17T12:49:08.000Z</time>
      </trkpt>
      <trkpt lat="42.42035" lon="2.25126">
        <ele>2337</ele>
        <time>2023-07-17T12:49:14.000Z</time>
      </trkpt>
      <trkpt lat="42.42034" lon="2.25124">
        <ele>2337.1999511719</ele>
        <time>2023-07-17T12:49:16.000Z</time>
      </trkpt>
      <trkpt lat="42.42029" lon="2.25115">
        <ele>2338</ele>
        <time>2023-07-17T12:49:24.000Z</time>
      </trkpt>
      <trkpt lat="42.42026" lon="2.25113">
        <ele>2338</ele>
        <time>2023-07-17T12:49:29.000Z</time>
      </trkpt>
      <trkpt lat="42.42025" lon="2.2511">
        <ele>2338.1999511719</ele>
        <time>2023-07-17T12:49:31.000Z</time>
      </trkpt>
      <trkpt lat="42.42025" lon="2.25104">
        <ele>2339.1999511719</ele>
        <time>2023-07-17T12:49:39.000Z</time>
      </trkpt>
      <trkpt lat="42.42026" lon="2.25103">
        <ele>2339.1999511719</ele>
        <time>2023-07-17T12:49:40.000Z</time>
      </trkpt>
      <trkpt lat="42.42026" lon="2.25096">
        <ele>2340</ele>
        <time>2023-07-17T12:49:48.000Z</time>
      </trkpt>
      <trkpt lat="42.42026" lon="2.25096">
        <ele>2340.1999511719</ele>
        <time>2023-07-17T12:49:50.000Z</time>
      </trkpt>
      <trkpt lat="42.42026" lon="2.25095">
        <ele>2340.3999023438</ele>
        <time>2023-07-17T12:49:54.000Z</time>
      </trkpt>
      <trkpt lat="42.42026" lon="2.25086">
        <ele>2340.3999023438</ele>
        <time>2023-07-17T12:50:03.000Z</time>
      </trkpt>
      <trkpt lat="42.42024" lon="2.25086">
        <ele>2340.6000976562</ele>
        <time>2023-07-17T12:50:10.000Z</time>
      </trkpt>
      <trkpt lat="42.42022" lon="2.25081">
        <ele>2341</ele>
        <time>2023-07-17T12:50:17.000Z</time>
      </trkpt>
      <trkpt lat="42.42021" lon="2.25082">
        <ele>2341.1999511719</ele>
        <time>2023-07-17T12:50:19.000Z</time>
      </trkpt>
      <trkpt lat="42.42022" lon="2.25079">
        <ele>2342</ele>
        <time>2023-07-17T12:50:24.000Z</time>
      </trkpt>
      <trkpt lat="42.42022" lon="2.25075">
        <ele>2342.3999023438</ele>
        <time>2023-07-17T12:50:27.000Z</time>
      </trkpt>
      <trkpt lat="42.42023" lon="2.25071">
        <ele>2343</ele>
        <time>2023-07-17T12:50:32.000Z</time>
      </trkpt>
      <trkpt lat="42.42023" lon="2.25068">
        <ele>2343.3999023438</ele>
        <time>2023-07-17T12:50:35.000Z</time>
      </trkpt>
      <trkpt lat="42.42023" lon="2.25064">
        <ele>2343.8000488281</ele>
        <time>2023-07-17T12:50:40.000Z</time>
      </trkpt>
      <trkpt lat="42.42024" lon="2.2507">
        <ele>2343.6000976562</ele>
        <time>2023-07-17T12:50:48.000Z</time>
      </trkpt>
      <trkpt lat="42.42025" lon="2.25074">
        <ele>2343.8000488281</ele>
        <time>2023-07-17T12:50:58.000Z</time>
      </trkpt>
      <trkpt lat="42.42027" lon="2.25072">
        <ele>2344</ele>
        <time>2023-07-17T12:51:05.000Z</time>
      </trkpt>
      <trkpt lat="42.42024" lon="2.25073">
        <ele>2344.1999511719</ele>
        <time>2023-07-17T12:51:15.000Z</time>
      </trkpt>
      <trkpt lat="42.42023" lon="2.2507">
        <ele>2344.6000976562</ele>
        <time>2023-07-17T12:51:21.000Z</time>
      </trkpt>
      <trkpt lat="42.42022" lon="2.2506">
        <ele>2345</ele>
        <time>2023-07-17T12:51:27.000Z</time>
      </trkpt>
      <trkpt lat="42.42021" lon="2.25052">
        <ele>2345.6000976562</ele>
        <time>2023-07-17T12:51:31.000Z</time>
      </trkpt>
      <trkpt lat="42.4202" lon="2.25051">
        <ele>2346</ele>
        <time>2023-07-17T12:51:34.000Z</time>
      </trkpt>
      <trkpt lat="42.42018" lon="2.25049">
        <ele>2346.6000976562</ele>
        <time>2023-07-17T12:51:37.000Z</time>
      </trkpt>
      <trkpt lat="42.42017" lon="2.25048">
        <ele>2347.6000976562</ele>
        <time>2023-07-17T12:51:42.000Z</time>
      </trkpt>
      <trkpt lat="42.42017" lon="2.25047">
        <ele>2347.8000488281</ele>
        <time>2023-07-17T12:51:43.000Z</time>
      </trkpt>
      <trkpt lat="42.42018" lon="2.25046">
        <ele>2348.8000488281</ele>
        <time>2023-07-17T12:51:49.000Z</time>
      </trkpt>
      <trkpt lat="42.42019" lon="2.25045">
        <ele>2349.1999511719</ele>
        <time>2023-07-17T12:51:51.000Z</time>
      </trkpt>
      <trkpt lat="42.4202" lon="2.25043">
        <ele>2350</ele>
        <time>2023-07-17T12:51:55.000Z</time>
      </trkpt>
      <trkpt lat="42.42022" lon="2.25039">
        <ele>2351</ele>
        <time>2023-07-17T12:52:01.000Z</time>
      </trkpt>
      <trkpt lat="42.42023" lon="2.25035">
        <ele>2352.1999511719</ele>
        <time>2023-07-17T12:52:10.000Z</time>
      </trkpt>
      <trkpt lat="42.42022" lon="2.25035">
        <ele>2352.1999511719</ele>
        <time>2023-07-17T12:52:11.000Z</time>
      </trkpt>
      <trkpt lat="42.42021" lon="2.25031">
        <ele>2353.1999511719</ele>
        <time>2023-07-17T12:52:18.000Z</time>
      </trkpt>
      <trkpt lat="42.42022" lon="2.25029">
        <ele>2353.3999023438</ele>
        <time>2023-07-17T12:52:19.000Z</time>
      </trkpt>
      <trkpt lat="42.42022" lon="2.25023">
        <ele>2354.3999023438</ele>
        <time>2023-07-17T12:52:25.000Z</time>
      </trkpt>
      <trkpt lat="42.42022" lon="2.25023">
        <ele>2354.6000976562</ele>
        <time>2023-07-17T12:52:26.000Z</time>
      </trkpt>
      <trkpt lat="42.4202" lon="2.2502">
        <ele>2355.6000976562</ele>
        <time>2023-07-17T12:52:32.000Z</time>
      </trkpt>
      <trkpt lat="42.42019" lon="2.25017">
        <ele>2356.1999511719</ele>
        <time>2023-07-17T12:52:35.000Z</time>
      </trkpt>
      <trkpt lat="42.42019" lon="2.25015">
        <ele>2356.6000976562</ele>
        <time>2023-07-17T12:52:38.000Z</time>
      </trkpt>
      <trkpt lat="42.42019" lon="2.25011">
        <ele>2357.6000976562</ele>
        <time>2023-07-17T12:52:43.000Z</time>
      </trkpt>
      <trkpt lat="42.42019" lon="2.2501">
        <ele>2357.8000488281</ele>
        <time>2023-07-17T12:52:44.000Z</time>
      </trkpt>
      <trkpt lat="42.4202" lon="2.25006">
        <ele>2358.8000488281</ele>
        <time>2023-07-17T12:52:50.000Z</time>
      </trkpt>
      <trkpt lat="42.42021" lon="2.25004">
        <ele>2359.1999511719</ele>
        <time>2023-07-17T12:52:52.000Z</time>
      </trkpt>
      <trkpt lat="42.42022" lon="2.25002">
        <ele>2359.8000488281</ele>
        <time>2023-07-17T12:52:57.000Z</time>
      </trkpt>
      <trkpt lat="42.42022" lon="2.25">
        <ele>2360.1999511719</ele>
        <time>2023-07-17T12:53:00.000Z</time>
      </trkpt>
      <trkpt lat="42.42021" lon="2.24996">
        <ele>2361</ele>
        <time>2023-07-17T12:53:04.000Z</time>
      </trkpt>
      <trkpt lat="42.4202" lon="2.24994">
        <ele>2361.6000976562</ele>
        <time>2023-07-17T12:53:11.000Z</time>
      </trkpt>
      <trkpt lat="42.42019" lon="2.24991">
        <ele>2362</ele>
        <time>2023-07-17T12:53:16.000Z</time>
      </trkpt>
      <trkpt lat="42.42016" lon="2.24989">
        <ele>2362.6000976562</ele>
        <time>2023-07-17T12:53:19.000Z</time>
      </trkpt>
      <trkpt lat="42.42013" lon="2.24986">
        <ele>2363.1999511719</ele>
        <time>2023-07-17T12:53:25.000Z</time>
      </trkpt>
      <trkpt lat="42.42012" lon="2.24985">
        <ele>2363.3999023438</ele>
        <time>2023-07-17T12:53:27.000Z</time>
      </trkpt>
      <trkpt lat="42.4201" lon="2.24981">
        <ele>2364.1999511719</ele>
        <time>2023-07-17T12:53:32.000Z</time>
      </trkpt>
      <trkpt lat="42.4201" lon="2.2498">
        <ele>2364.3999023438</ele>
        <time>2023-07-17T12:53:34.000Z</time>
      </trkpt>
      <trkpt lat="42.42011" lon="2.24978">
        <ele>2365</ele>
        <time>2023-07-17T12:53:37.000Z</time>
      </trkpt>
      <trkpt lat="42.42011" lon="2.24976">
        <ele>2365.1999511719</ele>
        <time>2023-07-17T12:53:39.000Z</time>
      </trkpt>
      <trkpt lat="42.42011" lon="2.24975">
        <ele>2365.3999023438</ele>
        <time>2023-07-17T12:53:40.000Z</time>
      </trkpt>
      <trkpt lat="42.42012" lon="2.24974">
        <ele>2366.1999511719</ele>
        <time>2023-07-17T12:53:45.000Z</time>
      </trkpt>
      <trkpt lat="42.42014" lon="2.24975">
        <ele>2366.8000488281</ele>
        <time>2023-07-17T12:53:49.000Z</time>
      </trkpt>
      <trkpt lat="42.42014" lon="2.24974">
        <ele>2367.3999023438</ele>
        <time>2023-07-17T12:53:52.000Z</time>
      </trkpt>
      <trkpt lat="42.42016" lon="2.24972">
        <ele>2367.6000976562</ele>
        <time>2023-07-17T12:53:57.000Z</time>
      </trkpt>
      <trkpt lat="42.42018" lon="2.24969">
        <ele>2368.3999023438</ele>
        <time>2023-07-17T12:54:03.000Z</time>
      </trkpt>
      <trkpt lat="42.42018" lon="2.24968">
        <ele>2368.3999023438</ele>
        <time>2023-07-17T12:54:04.000Z</time>
      </trkpt>
      <trkpt lat="42.42019" lon="2.24965">
        <ele>2369.1999511719</ele>
        <time>2023-07-17T12:54:11.000Z</time>
      </trkpt>
      <trkpt lat="42.42019" lon="2.24963">
        <ele>2369.6000976562</ele>
        <time>2023-07-17T12:54:13.000Z</time>
      </trkpt>
      <trkpt lat="42.42018" lon="2.24962">
        <ele>2370</ele>
        <time>2023-07-17T12:54:16.000Z</time>
      </trkpt>
      <trkpt lat="42.42016" lon="2.24959">
        <ele>2370.6000976562</ele>
        <time>2023-07-17T12:54:21.000Z</time>
      </trkpt>
      <trkpt lat="42.42016" lon="2.24957">
        <ele>2371</ele>
        <time>2023-07-17T12:54:25.000Z</time>
      </trkpt>
      <trkpt lat="42.42018" lon="2.24951">
        <ele>2371.8000488281</ele>
        <time>2023-07-17T12:54:32.000Z</time>
      </trkpt>
      <trkpt lat="42.42018" lon="2.2495">
        <ele>2372</ele>
        <time>2023-07-17T12:54:35.000Z</time>
      </trkpt>
      <trkpt lat="42.42018" lon="2.24947">
        <ele>2372.8000488281</ele>
        <time>2023-07-17T12:54:40.000Z</time>
      </trkpt>
      <trkpt lat="42.42018" lon="2.24946">
        <ele>2372.8000488281</ele>
        <time>2023-07-17T12:54:41.000Z</time>
      </trkpt>
      <trkpt lat="42.42015" lon="2.24943">
        <ele>2373.8000488281</ele>
        <time>2023-07-17T12:54:50.000Z</time>
      </trkpt>
      <trkpt lat="42.42014" lon="2.24941">
        <ele>2374.6000976562</ele>
        <time>2023-07-17T12:54:57.000Z</time>
      </trkpt>
      <trkpt lat="42.42014" lon="2.2494">
        <ele>2374.8000488281</ele>
        <time>2023-07-17T12:54:59.000Z</time>
      </trkpt>
      <trkpt lat="42.42015" lon="2.24937">
        <ele>2375.6000976562</ele>
        <time>2023-07-17T12:55:05.000Z</time>
      </trkpt>
      <trkpt lat="42.42015" lon="2.24936">
        <ele>2375.8000488281</ele>
        <time>2023-07-17T12:55:07.000Z</time>
      </trkpt>
      <trkpt lat="42.42014" lon="2.24931">
        <ele>2376.8000488281</ele>
        <time>2023-07-17T12:55:15.000Z</time>
      </trkpt>
      <trkpt lat="42.42014" lon="2.2493">
        <ele>2377</ele>
        <time>2023-07-17T12:55:16.000Z</time>
      </trkpt>
      <trkpt lat="42.42012" lon="2.24923">
        <ele>2377.8000488281</ele>
        <time>2023-07-17T12:55:23.000Z</time>
      </trkpt>
      <trkpt lat="42.42011" lon="2.24922">
        <ele>2378</ele>
        <time>2023-07-17T12:55:26.000Z</time>
      </trkpt>
      <trkpt lat="42.42012" lon="2.24919">
        <ele>2378.6000976562</ele>
        <time>2023-07-17T12:55:33.000Z</time>
      </trkpt>
      <trkpt lat="42.42013" lon="2.2492">
        <ele>2379</ele>
        <time>2023-07-17T12:55:38.000Z</time>
      </trkpt>
      <trkpt lat="42.42013" lon="2.24919">
        <ele>2379.1999511719</ele>
        <time>2023-07-17T12:55:40.000Z</time>
      </trkpt>
      <trkpt lat="42.42012" lon="2.24919">
        <ele>2379.3999023438</ele>
        <time>2023-07-17T12:55:49.000Z</time>
      </trkpt>
      <trkpt lat="42.42009" lon="2.24916">
        <ele>2379.6000976562</ele>
        <time>2023-07-17T12:55:56.000Z</time>
      </trkpt>
      <trkpt lat="42.42008" lon="2.2491">
        <ele>2379.8000488281</ele>
        <time>2023-07-17T12:56:03.000Z</time>
      </trkpt>
      <trkpt lat="42.42008" lon="2.24909">
        <ele>2380</ele>
        <time>2023-07-17T12:56:04.000Z</time>
      </trkpt>
      <trkpt lat="42.42007" lon="2.24905">
        <ele>2381</ele>
        <time>2023-07-17T12:56:10.000Z</time>
      </trkpt>
      <trkpt lat="42.42007" lon="2.24903">
        <ele>2381.8000488281</ele>
        <time>2023-07-17T12:56:13.000Z</time>
      </trkpt>
      <trkpt lat="42.42007" lon="2.24902">
        <ele>2382.1999511719</ele>
        <time>2023-07-17T12:56:14.000Z</time>
      </trkpt>
      <trkpt lat="42.42006" lon="2.24898">
        <ele>2383.3999023438</ele>
        <time>2023-07-17T12:56:19.000Z</time>
      </trkpt>
      <trkpt lat="42.42006" lon="2.24895">
        <ele>2383.8000488281</ele>
        <time>2023-07-17T12:56:22.000Z</time>
      </trkpt>
      <trkpt lat="42.42007" lon="2.24892">
        <ele>2384.3999023438</ele>
        <time>2023-07-17T12:56:25.000Z</time>
      </trkpt>
      <trkpt lat="42.42007" lon="2.2489">
        <ele>2385.1999511719</ele>
        <time>2023-07-17T12:56:29.000Z</time>
      </trkpt>
      <trkpt lat="42.42006" lon="2.24887">
        <ele>2385.3999023438</ele>
        <time>2023-07-17T12:56:31.000Z</time>
      </trkpt>
      <trkpt lat="42.42004" lon="2.24884">
        <ele>2385.3999023438</ele>
        <time>2023-07-17T12:56:37.000Z</time>
      </trkpt>
      <trkpt lat="42.42004" lon="2.24878">
        <ele>2385.8000488281</ele>
        <time>2023-07-17T12:56:44.000Z</time>
      </trkpt>
      <trkpt lat="42.42003" lon="2.24875">
        <ele>2386.3999023438</ele>
        <time>2023-07-17T12:56:49.000Z</time>
      </trkpt>
      <trkpt lat="42.42003" lon="2.24873">
        <ele>2386.6000976562</ele>
        <time>2023-07-17T12:56:53.000Z</time>
      </trkpt>
      <trkpt lat="42.42003" lon="2.24869">
        <ele>2387.3999023438</ele>
        <time>2023-07-17T12:57:01.000Z</time>
      </trkpt>
      <trkpt lat="42.42003" lon="2.24863">
        <ele>2388.6000976562</ele>
        <time>2023-07-17T12:57:08.000Z</time>
      </trkpt>
      <trkpt lat="42.42002" lon="2.24856">
        <ele>2389.6000976562</ele>
        <time>2023-07-17T12:57:16.000Z</time>
      </trkpt>
      <trkpt lat="42.42002" lon="2.24855">
        <ele>2389.6000976562</ele>
        <time>2023-07-17T12:57:17.000Z</time>
      </trkpt>
      <trkpt lat="42.42001" lon="2.24852">
        <ele>2390.1999511719</ele>
        <time>2023-07-17T12:57:22.000Z</time>
      </trkpt>
      <trkpt lat="42.41999" lon="2.24843">
        <ele>2390.6000976562</ele>
        <time>2023-07-17T12:57:29.000Z</time>
      </trkpt>
      <trkpt lat="42.41997" lon="2.24835">
        <ele>2391.1999511719</ele>
        <time>2023-07-17T12:57:35.000Z</time>
      </trkpt>
      <trkpt lat="42.41993" lon="2.24832">
        <ele>2391.6000976562</ele>
        <time>2023-07-17T12:57:39.000Z</time>
      </trkpt>
      <trkpt lat="42.41991" lon="2.24826">
        <ele>2392.1999511719</ele>
        <time>2023-07-17T12:57:44.000Z</time>
      </trkpt>
      <trkpt lat="42.4199" lon="2.24819">
        <ele>2392.6000976562</ele>
        <time>2023-07-17T12:57:49.000Z</time>
      </trkpt>
      <trkpt lat="42.4199" lon="2.24815">
        <ele>2393</ele>
        <time>2023-07-17T12:57:52.000Z</time>
      </trkpt>
      <trkpt lat="42.4199" lon="2.24806">
        <ele>2393.3999023438</ele>
        <time>2023-07-17T12:58:01.000Z</time>
      </trkpt>
      <trkpt lat="42.41991" lon="2.24802">
        <ele>2393.8000488281</ele>
        <time>2023-07-17T12:58:04.000Z</time>
      </trkpt>
      <trkpt lat="42.41993" lon="2.24797">
        <ele>2394.3999023438</ele>
        <time>2023-07-17T12:58:08.000Z</time>
      </trkpt>
      <trkpt lat="42.41996" lon="2.24788">
        <ele>2394.8000488281</ele>
        <time>2023-07-17T12:58:17.000Z</time>
      </trkpt>
      <trkpt lat="42.41996" lon="2.24787">
        <ele>2394.8000488281</ele>
        <time>2023-07-17T12:58:18.000Z</time>
      </trkpt>
      <trkpt lat="42.41999" lon="2.2478">
        <ele>2396</ele>
        <time>2023-07-17T12:58:27.000Z</time>
      </trkpt>
      <trkpt lat="42.41999" lon="2.24779">
        <ele>2396</ele>
        <time>2023-07-17T12:58:28.000Z</time>
      </trkpt>
      <trkpt lat="42.41998" lon="2.24763">
        <ele>2397</ele>
        <time>2023-07-17T12:58:38.000Z</time>
      </trkpt>
      <trkpt lat="42.41998" lon="2.24762">
        <ele>2397</ele>
        <time>2023-07-17T12:58:39.000Z</time>
      </trkpt>
      <trkpt lat="42.41998" lon="2.24754">
        <ele>2398</ele>
        <time>2023-07-17T12:58:46.000Z</time>
      </trkpt>
      <trkpt lat="42.41998" lon="2.24754">
        <ele>2398.1999511719</ele>
        <time>2023-07-17T12:58:47.000Z</time>
      </trkpt>
      <trkpt lat="42.41997" lon="2.24748">
        <ele>2399.1999511719</ele>
        <time>2023-07-17T12:58:53.000Z</time>
      </trkpt>
      <trkpt lat="42.41997" lon="2.24746">
        <ele>2399.3999023438</ele>
        <time>2023-07-17T12:58:55.000Z</time>
      </trkpt>
      <trkpt lat="42.41995" lon="2.24741">
        <ele>2400.1999511719</ele>
        <time>2023-07-17T12:59:02.000Z</time>
      </trkpt>
      <trkpt lat="42.41995" lon="2.24739">
        <ele>2400.6000976562</ele>
        <time>2023-07-17T12:59:05.000Z</time>
      </trkpt>
      <trkpt lat="42.41994" lon="2.24736">
        <ele>2401.1999511719</ele>
        <time>2023-07-17T12:59:09.000Z</time>
      </trkpt>
      <trkpt lat="42.4199" lon="2.24734">
        <ele>2401.8000488281</ele>
        <time>2023-07-17T12:59:13.000Z</time>
      </trkpt>
      <trkpt lat="42.41988" lon="2.24729">
        <ele>2401.8000488281</ele>
        <time>2023-07-17T12:59:22.000Z</time>
      </trkpt>
      <trkpt lat="42.41988" lon="2.24729">
        <ele>2401.1999511719</ele>
        <time>2023-07-17T12:59:29.000Z</time>
      </trkpt>
      <trkpt lat="42.41984" lon="2.2473">
        <ele>2400.8000488281</ele>
        <time>2023-07-17T12:59:36.000Z</time>
      </trkpt>
      <trkpt lat="42.41981" lon="2.24726">
        <ele>2400.6000976562</ele>
        <time>2023-07-17T12:59:42.000Z</time>
      </trkpt>
      <trkpt lat="42.41982" lon="2.24717">
        <ele>2401.3999023438</ele>
        <time>2023-07-17T12:59:50.000Z</time>
      </trkpt>
      <trkpt lat="42.41984" lon="2.24716">
        <ele>2402.1999511719</ele>
        <time>2023-07-17T12:59:56.000Z</time>
      </trkpt>
      <trkpt lat="42.41985" lon="2.24716">
        <ele>2402.3999023438</ele>
        <time>2023-07-17T12:59:57.000Z</time>
      </trkpt>
      <trkpt lat="42.41985" lon="2.24715">
        <ele>2402.8000488281</ele>
        <time>2023-07-17T13:00:03.000Z</time>
      </trkpt>
      <trkpt lat="42.41984" lon="2.2471">
        <ele>2403.3999023438</ele>
        <time>2023-07-17T13:00:09.000Z</time>
      </trkpt>
      <trkpt lat="42.41983" lon="2.24708">
        <ele>2403.6000976562</ele>
        <time>2023-07-17T13:00:11.000Z</time>
      </trkpt>
      <trkpt lat="42.4198" lon="2.24701">
        <ele>2404.3999023438</ele>
        <time>2023-07-17T13:00:17.000Z</time>
      </trkpt>
      <trkpt lat="42.4198" lon="2.24699">
        <ele>2404.6000976562</ele>
        <time>2023-07-17T13:00:19.000Z</time>
      </trkpt>
      <trkpt lat="42.41978" lon="2.24693">
        <ele>2405.3999023438</ele>
        <time>2023-07-17T13:00:24.000Z</time>
      </trkpt>
      <trkpt lat="42.41977" lon="2.24689">
        <ele>2405.8000488281</ele>
        <time>2023-07-17T13:00:27.000Z</time>
      </trkpt>
      <trkpt lat="42.41977" lon="2.24682">
        <ele>2406.6000976562</ele>
        <time>2023-07-17T13:00:33.000Z</time>
      </trkpt>
      <trkpt lat="42.41977" lon="2.24681">
        <ele>2406.8000488281</ele>
        <time>2023-07-17T13:00:35.000Z</time>
      </trkpt>
      <trkpt lat="42.41977" lon="2.24676">
        <ele>2407.3999023438</ele>
        <time>2023-07-17T13:00:40.000Z</time>
      </trkpt>
      <trkpt lat="42.41976" lon="2.24668">
        <ele>2407.8000488281</ele>
        <time>2023-07-17T13:00:45.000Z</time>
      </trkpt>
      <trkpt lat="42.41976" lon="2.24667">
        <ele>2408.1999511719</ele>
        <time>2023-07-17T13:00:47.000Z</time>
      </trkpt>
      <trkpt lat="42.41973" lon="2.2466">
        <ele>2408.8000488281</ele>
        <time>2023-07-17T13:00:52.000Z</time>
      </trkpt>
      <trkpt lat="42.41972" lon="2.24658">
        <ele>2409</ele>
        <time>2023-07-17T13:00:54.000Z</time>
      </trkpt>
      <trkpt lat="42.4197" lon="2.24652">
        <ele>2409.8000488281</ele>
        <time>2023-07-17T13:01:02.000Z</time>
      </trkpt>
      <trkpt lat="42.41969" lon="2.24647">
        <ele>2410.3999023438</ele>
        <time>2023-07-17T13:01:06.000Z</time>
      </trkpt>
      <trkpt lat="42.41965" lon="2.2464">
        <ele>2411</ele>
        <time>2023-07-17T13:01:13.000Z</time>
      </trkpt>
      <trkpt lat="42.41964" lon="2.24638">
        <ele>2411</ele>
        <time>2023-07-17T13:01:15.000Z</time>
      </trkpt>
      <trkpt lat="42.4196" lon="2.2463">
        <ele>2411.3999023438</ele>
        <time>2023-07-17T13:01:24.000Z</time>
      </trkpt>
      <trkpt lat="42.41961" lon="2.24625">
        <ele>2411.3999023438</ele>
        <time>2023-07-17T13:01:33.000Z</time>
      </trkpt>
      <trkpt lat="42.41958" lon="2.24624">
        <ele>2411.3999023438</ele>
        <time>2023-07-17T13:01:41.000Z</time>
      </trkpt>
      <trkpt lat="42.41954" lon="2.2462">
        <ele>2412</ele>
        <time>2023-07-17T13:01:46.000Z</time>
      </trkpt>
      <trkpt lat="42.41951" lon="2.24618">
        <ele>2412.3999023438</ele>
        <time>2023-07-17T13:01:49.000Z</time>
      </trkpt>
      <trkpt lat="42.41949" lon="2.24615">
        <ele>2413</ele>
        <time>2023-07-17T13:01:53.000Z</time>
      </trkpt>
      <trkpt lat="42.41947" lon="2.2461">
        <ele>2413.3999023438</ele>
        <time>2023-07-17T13:01:57.000Z</time>
      </trkpt>
      <trkpt lat="42.41945" lon="2.24604">
        <ele>2414.1999511719</ele>
        <time>2023-07-17T13:02:03.000Z</time>
      </trkpt>
      <trkpt lat="42.41944" lon="2.24603">
        <ele>2414.3999023438</ele>
        <time>2023-07-17T13:02:04.000Z</time>
      </trkpt>
      <trkpt lat="42.41944" lon="2.24602">
        <ele>2415.1999511719</ele>
        <time>2023-07-17T13:02:12.000Z</time>
      </trkpt>
      <trkpt lat="42.41943" lon="2.24595">
        <ele>2416.3999023438</ele>
        <time>2023-07-17T13:02:17.000Z</time>
      </trkpt>
      <trkpt lat="42.41942" lon="2.24593">
        <ele>2416.3999023438</ele>
        <time>2023-07-17T13:02:19.000Z</time>
      </trkpt>
      <trkpt lat="42.41939" lon="2.2458">
        <ele>2417.1999511719</ele>
        <time>2023-07-17T13:02:29.000Z</time>
      </trkpt>
      <trkpt lat="42.41939" lon="2.24578">
        <ele>2417.3999023438</ele>
        <time>2023-07-17T13:02:33.000Z</time>
      </trkpt>
      <trkpt lat="42.4194" lon="2.24576">
        <ele>2417.3999023438</ele>
        <time>2023-07-17T13:02:36.000Z</time>
      </trkpt>
      <trkpt lat="42.41942" lon="2.24574">
        <ele>2417.8000488281</ele>
        <time>2023-07-17T13:02:45.000Z</time>
      </trkpt>
      <trkpt lat="42.41939" lon="2.24577">
        <ele>2417.8000488281</ele>
        <time>2023-07-17T13:02:53.000Z</time>
      </trkpt>
      <trkpt lat="42.41936" lon="2.24572">
        <ele>2417.3999023438</ele>
        <time>2023-07-17T13:02:59.000Z</time>
      </trkpt>
      <trkpt lat="42.41931" lon="2.24563">
        <ele>2418.1999511719</ele>
        <time>2023-07-17T13:03:06.000Z</time>
      </trkpt>
      <trkpt lat="42.4193" lon="2.24562">
        <ele>2418.3999023438</ele>
        <time>2023-07-17T13:03:07.000Z</time>
      </trkpt>
      <trkpt lat="42.41927" lon="2.24553">
        <ele>2419.3999023438</ele>
        <time>2023-07-17T13:03:13.000Z</time>
      </trkpt>
      <trkpt lat="42.41927" lon="2.2455">
        <ele>2419.8000488281</ele>
        <time>2023-07-17T13:03:15.000Z</time>
      </trkpt>
      <trkpt lat="42.41924" lon="2.24544">
        <ele>2420.3999023438</ele>
        <time>2023-07-17T13:03:21.000Z</time>
      </trkpt>
      <trkpt lat="42.41924" lon="2.24541">
        <ele>2421</ele>
        <time>2023-07-17T13:03:24.000Z</time>
      </trkpt>
      <trkpt lat="42.41922" lon="2.24538">
        <ele>2421.6000976562</ele>
        <time>2023-07-17T13:03:27.000Z</time>
      </trkpt>
      <trkpt lat="42.41922" lon="2.24535">
        <ele>2422.1999511719</ele>
        <time>2023-07-17T13:03:30.000Z</time>
      </trkpt>
      <trkpt lat="42.41921" lon="2.24528">
        <ele>2422.8000488281</ele>
        <time>2023-07-17T13:03:34.000Z</time>
      </trkpt>
      <trkpt lat="42.41917" lon="2.24522">
        <ele>2423.3999023438</ele>
        <time>2023-07-17T13:03:40.000Z</time>
      </trkpt>
      <trkpt lat="42.41916" lon="2.24519">
        <ele>2423.8000488281</ele>
        <time>2023-07-17T13:03:43.000Z</time>
      </trkpt>
      <trkpt lat="42.41914" lon="2.24516">
        <ele>2424.6000976562</ele>
        <time>2023-07-17T13:03:48.000Z</time>
      </trkpt>
      <trkpt lat="42.41913" lon="2.24515">
        <ele>2424.8000488281</ele>
        <time>2023-07-17T13:03:49.000Z</time>
      </trkpt>
      <trkpt lat="42.41909" lon="2.24511">
        <ele>2426</ele>
        <time>2023-07-17T13:03:56.000Z</time>
      </trkpt>
      <trkpt lat="42.41909" lon="2.24505">
        <ele>2426.8000488281</ele>
        <time>2023-07-17T13:04:02.000Z</time>
      </trkpt>
      <trkpt lat="42.41908" lon="2.24504">
        <ele>2427.1999511719</ele>
        <time>2023-07-17T13:04:03.000Z</time>
      </trkpt>
      <trkpt lat="42.41906" lon="2.24497">
        <ele>2428.1999511719</ele>
        <time>2023-07-17T13:04:09.000Z</time>
      </trkpt>
      <trkpt lat="42.41904" lon="2.24493">
        <ele>2429</ele>
        <time>2023-07-17T13:04:12.000Z</time>
      </trkpt>
      <trkpt lat="42.41903" lon="2.2449">
        <ele>2429.3999023438</ele>
        <time>2023-07-17T13:04:16.000Z</time>
      </trkpt>
      <trkpt lat="42.41901" lon="2.24488">
        <ele>2429.3999023438</ele>
        <time>2023-07-17T13:04:20.000Z</time>
      </trkpt>
      <trkpt lat="42.41894" lon="2.24484">
        <ele>2430</ele>
        <time>2023-07-17T13:04:29.000Z</time>
      </trkpt>
      <trkpt lat="42.41894" lon="2.24481">
        <ele>2430.3999023438</ele>
        <time>2023-07-17T13:04:33.000Z</time>
      </trkpt>
      <trkpt lat="42.41892" lon="2.24478">
        <ele>2431.3999023438</ele>
        <time>2023-07-17T13:04:40.000Z</time>
      </trkpt>
      <trkpt lat="42.41891" lon="2.24476">
        <ele>2431.6000976562</ele>
        <time>2023-07-17T13:04:42.000Z</time>
      </trkpt>
      <trkpt lat="42.41887" lon="2.24474">
        <ele>2431.8000488281</ele>
        <time>2023-07-17T13:04:48.000Z</time>
      </trkpt>
      <trkpt lat="42.41884" lon="2.24472">
        <ele>2432.8000488281</ele>
        <time>2023-07-17T13:04:52.000Z</time>
      </trkpt>
      <trkpt lat="42.4188" lon="2.24468">
        <ele>2433</ele>
        <time>2023-07-17T13:04:58.000Z</time>
      </trkpt>
      <trkpt lat="42.41877" lon="2.24468">
        <ele>2433.8000488281</ele>
        <time>2023-07-17T13:05:04.000Z</time>
      </trkpt>
      <trkpt lat="42.41876" lon="2.24468">
        <ele>2433.8000488281</ele>
        <time>2023-07-17T13:05:05.000Z</time>
      </trkpt>
      <trkpt lat="42.41875" lon="2.24464">
        <ele>2434.8000488281</ele>
        <time>2023-07-17T13:05:13.000Z</time>
      </trkpt>
      <trkpt lat="42.41874" lon="2.24463">
        <ele>2435</ele>
        <time>2023-07-17T13:05:15.000Z</time>
      </trkpt>
      <trkpt lat="42.41873" lon="2.24464">
        <ele>2435.3999023438</ele>
        <time>2023-07-17T13:05:20.000Z</time>
      </trkpt>
      <trkpt lat="42.41872" lon="2.24461">
        <ele>2435.6000976562</ele>
        <time>2023-07-17T13:05:27.000Z</time>
      </trkpt>
      <trkpt lat="42.41871" lon="2.24458">
        <ele>2436</ele>
        <time>2023-07-17T13:05:33.000Z</time>
      </trkpt>
      <trkpt lat="42.41871" lon="2.24458">
        <ele>2436.1999511719</ele>
        <time>2023-07-17T13:05:34.000Z</time>
      </trkpt>
      <trkpt lat="42.4187" lon="2.24453">
        <ele>2437</ele>
        <time>2023-07-17T13:05:40.000Z</time>
      </trkpt>
      <trkpt lat="42.4187" lon="2.24452">
        <ele>2437.1999511719</ele>
        <time>2023-07-17T13:05:41.000Z</time>
      </trkpt>
      <trkpt lat="42.4187" lon="2.2445">
        <ele>2437.8000488281</ele>
        <time>2023-07-17T13:05:48.000Z</time>
      </trkpt>
      <trkpt lat="42.41868" lon="2.24447">
        <ele>2438</ele>
        <time>2023-07-17T13:05:57.000Z</time>
      </trkpt>
      <trkpt lat="42.41866" lon="2.24445">
        <ele>2438.6000976562</ele>
        <time>2023-07-17T13:05:59.000Z</time>
      </trkpt>
      <trkpt lat="42.41862" lon="2.24444">
        <ele>2439.6000976562</ele>
        <time>2023-07-17T13:06:05.000Z</time>
      </trkpt>
      <trkpt lat="42.41856" lon="2.24442">
        <ele>2440.8000488281</ele>
        <time>2023-07-17T13:06:13.000Z</time>
      </trkpt>
      <trkpt lat="42.41856" lon="2.24442">
        <ele>2440.8000488281</ele>
        <time>2023-07-17T13:06:14.000Z</time>
      </trkpt>
      <trkpt lat="42.41853" lon="2.24442">
        <ele>2441.8000488281</ele>
        <time>2023-07-17T13:06:21.000Z</time>
      </trkpt>
      <trkpt lat="42.41852" lon="2.24441">
        <ele>2441.8000488281</ele>
        <time>2023-07-17T13:06:22.000Z</time>
      </trkpt>
      <trkpt lat="42.41849" lon="2.24437">
        <ele>2442.3999023438</ele>
        <time>2023-07-17T13:06:27.000Z</time>
      </trkpt>
      <trkpt lat="42.41847" lon="2.24435">
        <ele>2443</ele>
        <time>2023-07-17T13:06:31.000Z</time>
      </trkpt>
      <trkpt lat="42.41847" lon="2.24435">
        <ele>2443.3999023438</ele>
        <time>2023-07-17T13:06:33.000Z</time>
      </trkpt>
      <trkpt lat="42.41844" lon="2.24433">
        <ele>2444</ele>
        <time>2023-07-17T13:06:39.000Z</time>
      </trkpt>
      <trkpt lat="42.41843" lon="2.24432">
        <ele>2444.1999511719</ele>
        <time>2023-07-17T13:06:41.000Z</time>
      </trkpt>
      <trkpt lat="42.41842" lon="2.24431">
        <ele>2445</ele>
        <time>2023-07-17T13:06:49.000Z</time>
      </trkpt>
      <trkpt lat="42.41841" lon="2.2443">
        <ele>2445</ele>
        <time>2023-07-17T13:06:50.000Z</time>
      </trkpt>
      <trkpt lat="42.41837" lon="2.24424">
        <ele>2445.3999023438</ele>
        <time>2023-07-17T13:06:55.000Z</time>
      </trkpt>
      <trkpt lat="42.41834" lon="2.24424">
        <ele>2446.1999511719</ele>
        <time>2023-07-17T13:07:02.000Z</time>
      </trkpt>
      <trkpt lat="42.41831" lon="2.24423">
        <ele>2446.8000488281</ele>
        <time>2023-07-17T13:07:10.000Z</time>
      </trkpt>
      <trkpt lat="42.4183" lon="2.24422">
        <ele>2447.3999023438</ele>
        <time>2023-07-17T13:07:12.000Z</time>
      </trkpt>
      <trkpt lat="42.41826" lon="2.24419">
        <ele>2448</ele>
        <time>2023-07-17T13:07:17.000Z</time>
      </trkpt>
      <trkpt lat="42.41825" lon="2.24418">
        <ele>2449</ele>
        <time>2023-07-17T13:07:19.000Z</time>
      </trkpt>
      <trkpt lat="42.41826" lon="2.24418">
        <ele>2450</ele>
        <time>2023-07-17T13:07:23.000Z</time>
      </trkpt>
      <trkpt lat="42.41827" lon="2.2442">
        <ele>2450.1999511719</ele>
        <time>2023-07-17T13:07:24.000Z</time>
      </trkpt>
      <trkpt lat="42.41824" lon="2.24419">
        <ele>2451</ele>
        <time>2023-07-17T13:07:32.000Z</time>
      </trkpt>
      <trkpt lat="42.41819" lon="2.24416">
        <ele>2451.1999511719</ele>
        <time>2023-07-17T13:07:37.000Z</time>
      </trkpt>
      <trkpt lat="42.41819" lon="2.24417">
        <ele>2451.1999511719</ele>
        <time>2023-07-17T13:07:39.000Z</time>
      </trkpt>
      <trkpt lat="42.41817" lon="2.24416">
        <ele>2452.3999023438</ele>
        <time>2023-07-17T13:07:44.000Z</time>
      </trkpt>
      <trkpt lat="42.41817" lon="2.24415">
        <ele>2452.8000488281</ele>
        <time>2023-07-17T13:07:46.000Z</time>
      </trkpt>
      <trkpt lat="42.41813" lon="2.24413">
        <ele>2453.6000976562</ele>
        <time>2023-07-17T13:07:54.000Z</time>
      </trkpt>
      <trkpt lat="42.41811" lon="2.24414">
        <ele>2453.8000488281</ele>
        <time>2023-07-17T13:07:55.000Z</time>
      </trkpt>
      <trkpt lat="42.41808" lon="2.24413">
        <ele>2454.6000976562</ele>
        <time>2023-07-17T13:08:01.000Z</time>
      </trkpt>
      <trkpt lat="42.41806" lon="2.24411">
        <ele>2455.1999511719</ele>
        <time>2023-07-17T13:08:04.000Z</time>
      </trkpt>
      <trkpt lat="42.41804" lon="2.24409">
        <ele>2455.8000488281</ele>
        <time>2023-07-17T13:08:07.000Z</time>
      </trkpt>
      <trkpt lat="42.41802" lon="2.24408">
        <ele>2456.3999023438</ele>
        <time>2023-07-17T13:08:11.000Z</time>
      </trkpt>
      <trkpt lat="42.418" lon="2.24407">
        <ele>2456.8000488281</ele>
        <time>2023-07-17T13:08:18.000Z</time>
      </trkpt>
      <trkpt lat="42.41798" lon="2.24411">
        <ele>2458</ele>
        <time>2023-07-17T13:08:25.000Z</time>
      </trkpt>
      <trkpt lat="42.41797" lon="2.24411">
        <ele>2458.1999511719</ele>
        <time>2023-07-17T13:08:27.000Z</time>
      </trkpt>
      <trkpt lat="42.41793" lon="2.24412">
        <ele>2459.1999511719</ele>
        <time>2023-07-17T13:08:34.000Z</time>
      </trkpt>
      <trkpt lat="42.41793" lon="2.24412">
        <ele>2459.3999023438</ele>
        <time>2023-07-17T13:08:36.000Z</time>
      </trkpt>
      <trkpt lat="42.41791" lon="2.24416">
        <ele>2460.1999511719</ele>
        <time>2023-07-17T13:08:42.000Z</time>
      </trkpt>
      <trkpt lat="42.4179" lon="2.24417">
        <ele>2460.1999511719</ele>
        <time>2023-07-17T13:08:43.000Z</time>
      </trkpt>
      <trkpt lat="42.41789" lon="2.24419">
        <ele>2461</ele>
        <time>2023-07-17T13:08:50.000Z</time>
      </trkpt>
      <trkpt lat="42.41792" lon="2.24422">
        <ele>2461</ele>
        <time>2023-07-17T13:08:59.000Z</time>
      </trkpt>
      <trkpt lat="42.4179" lon="2.24423">
        <ele>2461.1999511719</ele>
        <time>2023-07-17T13:09:07.000Z</time>
      </trkpt>
      <trkpt lat="42.4179" lon="2.24425">
        <ele>2461.3999023438</ele>
        <time>2023-07-17T13:09:08.000Z</time>
      </trkpt>
      <trkpt lat="42.41787" lon="2.24427">
        <ele>2461.6000976562</ele>
        <time>2023-07-17T13:09:14.000Z</time>
      </trkpt>
      <trkpt lat="42.41783" lon="2.24434">
        <ele>2462</ele>
        <time>2023-07-17T13:09:21.000Z</time>
      </trkpt>
      <trkpt lat="42.41782" lon="2.24436">
        <ele>2462.3999023438</ele>
        <time>2023-07-17T13:09:24.000Z</time>
      </trkpt>
      <trkpt lat="42.4178" lon="2.2444">
        <ele>2462.8000488281</ele>
        <time>2023-07-17T13:09:29.000Z</time>
      </trkpt>
      <trkpt lat="42.4178" lon="2.24445">
        <ele>2463.3999023438</ele>
        <time>2023-07-17T13:09:34.000Z</time>
      </trkpt>
      <trkpt lat="42.41778" lon="2.24448">
        <ele>2464</ele>
        <time>2023-07-17T13:09:37.000Z</time>
      </trkpt>
      <trkpt lat="42.41777" lon="2.24453">
        <ele>2464.6000976562</ele>
        <time>2023-07-17T13:09:42.000Z</time>
      </trkpt>
      <trkpt lat="42.41777" lon="2.24455">
        <ele>2464.6000976562</ele>
        <time>2023-07-17T13:09:44.000Z</time>
      </trkpt>
      <trkpt lat="42.41778" lon="2.24466">
        <ele>2465.6000976562</ele>
        <time>2023-07-17T13:09:54.000Z</time>
      </trkpt>
      <trkpt lat="42.41779" lon="2.2447">
        <ele>2466.6000976562</ele>
        <time>2023-07-17T13:09:59.000Z</time>
      </trkpt>
      <trkpt lat="42.41778" lon="2.24472">
        <ele>2466.8000488281</ele>
        <time>2023-07-17T13:10:00.000Z</time>
      </trkpt>
      <trkpt lat="42.41777" lon="2.2448">
        <ele>2467.8000488281</ele>
        <time>2023-07-17T13:10:08.000Z</time>
      </trkpt>
      <trkpt lat="42.41777" lon="2.24483">
        <ele>2468</ele>
        <time>2023-07-17T13:10:11.000Z</time>
      </trkpt>
      <trkpt lat="42.41776" lon="2.24487">
        <ele>2468.8000488281</ele>
        <time>2023-07-17T13:10:19.000Z</time>
      </trkpt>
      <trkpt lat="42.41776" lon="2.24488">
        <ele>2468.8000488281</ele>
        <time>2023-07-17T13:10:20.000Z</time>
      </trkpt>
      <trkpt lat="42.41776" lon="2.24489">
        <ele>2469.1999511719</ele>
        <time>2023-07-17T13:10:26.000Z</time>
      </trkpt>
      <trkpt lat="42.41778" lon="2.24492">
        <ele>2468.6000976562</ele>
        <time>2023-07-17T13:10:33.000Z</time>
      </trkpt>
      <trkpt lat="42.41776" lon="2.24492">
        <ele>2469.1999511719</ele>
        <time>2023-07-17T13:10:43.000Z</time>
      </trkpt>
      <trkpt lat="42.41777" lon="2.24496">
        <ele>2469.1999511719</ele>
        <time>2023-07-17T13:10:50.000Z</time>
      </trkpt>
      <trkpt lat="42.41777" lon="2.245">
        <ele>2470</ele>
        <time>2023-07-17T13:10:54.000Z</time>
      </trkpt>
      <trkpt lat="42.41777" lon="2.24504">
        <ele>2470.6000976562</ele>
        <time>2023-07-17T13:10:58.000Z</time>
      </trkpt>
      <trkpt lat="42.41777" lon="2.24506">
        <ele>2471</ele>
        <time>2023-07-17T13:11:01.000Z</time>
      </trkpt>
      <trkpt lat="42.41776" lon="2.24509">
        <ele>2471.6000976562</ele>
        <time>2023-07-17T13:11:06.000Z</time>
      </trkpt>
      <trkpt lat="42.41774" lon="2.24511">
        <ele>2471.8000488281</ele>
        <time>2023-07-17T13:11:11.000Z</time>
      </trkpt>
      <trkpt lat="42.41773" lon="2.2451">
        <ele>2472.1999511719</ele>
        <time>2023-07-17T13:11:12.000Z</time>
      </trkpt>
      <trkpt lat="42.41773" lon="2.24506">
        <ele>2473.3999023438</ele>
        <time>2023-07-17T13:11:16.000Z</time>
      </trkpt>
      <trkpt lat="42.41772" lon="2.24503">
        <ele>2473.8000488281</ele>
        <time>2023-07-17T13:11:19.000Z</time>
      </trkpt>
      <trkpt lat="42.4177" lon="2.24501">
        <ele>2474.6000976562</ele>
        <time>2023-07-17T13:11:24.000Z</time>
      </trkpt>
      <trkpt lat="42.41768" lon="2.245">
        <ele>2475</ele>
        <time>2023-07-17T13:11:27.000Z</time>
      </trkpt>
      <trkpt lat="42.41766" lon="2.24497">
        <ele>2475.6000976562</ele>
        <time>2023-07-17T13:11:32.000Z</time>
      </trkpt>
      <trkpt lat="42.41765" lon="2.24497">
        <ele>2476</ele>
        <time>2023-07-17T13:11:35.000Z</time>
      </trkpt>
      <trkpt lat="42.41767" lon="2.245">
        <ele>2476</ele>
        <time>2023-07-17T13:11:43.000Z</time>
      </trkpt>
      <trkpt lat="42.41769" lon="2.24502">
        <ele>2476</ele>
        <time>2023-07-17T13:11:52.000Z</time>
      </trkpt>
      <trkpt lat="42.41768" lon="2.24496">
        <ele>2476.1999511719</ele>
        <time>2023-07-17T13:11:58.000Z</time>
      </trkpt>
      <trkpt lat="42.41767" lon="2.24493">
        <ele>2476.8000488281</ele>
        <time>2023-07-17T13:12:01.000Z</time>
      </trkpt>
      <trkpt lat="42.41764" lon="2.2449">
        <ele>2477.6000976562</ele>
        <time>2023-07-17T13:12:05.000Z</time>
      </trkpt>
      <trkpt lat="42.41763" lon="2.24488">
        <ele>2478</ele>
        <time>2023-07-17T13:12:07.000Z</time>
      </trkpt>
      <trkpt lat="42.41759" lon="2.24486">
        <ele>2479</ele>
        <time>2023-07-17T13:12:13.000Z</time>
      </trkpt>
      <trkpt lat="42.41756" lon="2.24483">
        <ele>2480</ele>
        <time>2023-07-17T13:12:18.000Z</time>
      </trkpt>
      <trkpt lat="42.41756" lon="2.24482">
        <ele>2480</ele>
        <time>2023-07-17T13:12:19.000Z</time>
      </trkpt>
      <trkpt lat="42.4175" lon="2.24472">
        <ele>2480.3999023438</ele>
        <time>2023-07-17T13:12:26.000Z</time>
      </trkpt>
      <trkpt lat="42.41746" lon="2.24468">
        <ele>2481</ele>
        <time>2023-07-17T13:12:34.000Z</time>
      </trkpt>
      <trkpt lat="42.41745" lon="2.24467">
        <ele>2481.1999511719</ele>
        <time>2023-07-17T13:12:35.000Z</time>
      </trkpt>
      <trkpt lat="42.41742" lon="2.24464">
        <ele>2482.1999511719</ele>
        <time>2023-07-17T13:12:41.000Z</time>
      </trkpt>
      <trkpt lat="42.4174" lon="2.24462">
        <ele>2482.6000976562</ele>
        <time>2023-07-17T13:12:44.000Z</time>
      </trkpt>
      <trkpt lat="42.41737" lon="2.24458">
        <ele>2483.3999023438</ele>
        <time>2023-07-17T13:12:51.000Z</time>
      </trkpt>
      <trkpt lat="42.41735" lon="2.24455">
        <ele>2484</ele>
        <time>2023-07-17T13:12:54.000Z</time>
      </trkpt>
      <trkpt lat="42.41734" lon="2.24454">
        <ele>2484.3999023438</ele>
        <time>2023-07-17T13:12:56.000Z</time>
      </trkpt>
      <trkpt lat="42.41733" lon="2.24452">
        <ele>2485</ele>
        <time>2023-07-17T13:13:00.000Z</time>
      </trkpt>
      <trkpt lat="42.41732" lon="2.24451">
        <ele>2485.3999023438</ele>
        <time>2023-07-17T13:13:02.000Z</time>
      </trkpt>
      <trkpt lat="42.41727" lon="2.24447">
        <ele>2486.1999511719</ele>
        <time>2023-07-17T13:13:09.000Z</time>
      </trkpt>
      <trkpt lat="42.41727" lon="2.24447">
        <ele>2486.3999023438</ele>
        <time>2023-07-17T13:13:11.000Z</time>
      </trkpt>
      <trkpt lat="42.41723" lon="2.24443">
        <ele>2487.1999511719</ele>
        <time>2023-07-17T13:13:18.000Z</time>
      </trkpt>
      <trkpt lat="42.41721" lon="2.24441">
        <ele>2487.3999023438</ele>
        <time>2023-07-17T13:13:20.000Z</time>
      </trkpt>
      <trkpt lat="42.41719" lon="2.24436">
        <ele>2488.3999023438</ele>
        <time>2023-07-17T13:13:28.000Z</time>
      </trkpt>
      <trkpt lat="42.41718" lon="2.24433">
        <ele>2488.6000976562</ele>
        <time>2023-07-17T13:13:30.000Z</time>
      </trkpt>
      <trkpt lat="42.41718" lon="2.24429">
        <ele>2489.1999511719</ele>
        <time>2023-07-17T13:13:35.000Z</time>
      </trkpt>
      <trkpt lat="42.41718" lon="2.24427">
        <ele>2489.6000976562</ele>
        <time>2023-07-17T13:13:39.000Z</time>
      </trkpt>
      <trkpt lat="42.41718" lon="2.24422">
        <ele>2490.1999511719</ele>
        <time>2023-07-17T13:13:44.000Z</time>
      </trkpt>
      <trkpt lat="42.41718" lon="2.2442">
        <ele>2490.6000976562</ele>
        <time>2023-07-17T13:13:48.000Z</time>
      </trkpt>
      <trkpt lat="42.41718" lon="2.24416">
        <ele>2491.1999511719</ele>
        <time>2023-07-17T13:13:52.000Z</time>
      </trkpt>
      <trkpt lat="42.41717" lon="2.24414">
        <ele>2491.6000976562</ele>
        <time>2023-07-17T13:13:56.000Z</time>
      </trkpt>
      <trkpt lat="42.41714" lon="2.24412">
        <ele>2492.1999511719</ele>
        <time>2023-07-17T13:14:01.000Z</time>
      </trkpt>
      <trkpt lat="42.41713" lon="2.24414">
        <ele>2492.8000488281</ele>
        <time>2023-07-17T13:14:07.000Z</time>
      </trkpt>
      <trkpt lat="42.41712" lon="2.24414">
        <ele>2493.1999511719</ele>
        <time>2023-07-17T13:14:10.000Z</time>
      </trkpt>
      <trkpt lat="42.4171" lon="2.24415">
        <ele>2493.8000488281</ele>
        <time>2023-07-17T13:14:16.000Z</time>
      </trkpt>
      <trkpt lat="42.4171" lon="2.24415">
        <ele>2494</ele>
        <time>2023-07-17T13:14:17.000Z</time>
      </trkpt>
      <trkpt lat="42.41709" lon="2.24416">
        <ele>2494.8000488281</ele>
        <time>2023-07-17T13:14:22.000Z</time>
      </trkpt>
      <trkpt lat="42.41707" lon="2.24417">
        <ele>2495</ele>
        <time>2023-07-17T13:14:24.000Z</time>
      </trkpt>
      <trkpt lat="42.41705" lon="2.24419">
        <ele>2495.8000488281</ele>
        <time>2023-07-17T13:14:32.000Z</time>
      </trkpt>
      <trkpt lat="42.41703" lon="2.24421">
        <ele>2496</ele>
        <time>2023-07-17T13:14:35.000Z</time>
      </trkpt>
      <trkpt lat="42.41703" lon="2.24424">
        <ele>2497.1999511719</ele>
        <time>2023-07-17T13:14:40.000Z</time>
      </trkpt>
      <trkpt lat="42.41702" lon="2.2443">
        <ele>2498.1999511719</ele>
        <time>2023-07-17T13:14:49.000Z</time>
      </trkpt>
      <trkpt lat="42.41702" lon="2.24431">
        <ele>2498.3999023438</ele>
        <time>2023-07-17T13:14:51.000Z</time>
      </trkpt>
      <trkpt lat="42.417" lon="2.24436">
        <ele>2499.1999511719</ele>
        <time>2023-07-17T13:15:00.000Z</time>
      </trkpt>
      <trkpt lat="42.41699" lon="2.24437">
        <ele>2499.3999023438</ele>
        <time>2023-07-17T13:15:02.000Z</time>
      </trkpt>
      <trkpt lat="42.41695" lon="2.24434">
        <ele>2500.3999023438</ele>
        <time>2023-07-17T13:15:09.000Z</time>
      </trkpt>
      <trkpt lat="42.41695" lon="2.24434">
        <ele>2500.6000976562</ele>
        <time>2023-07-17T13:15:10.000Z</time>
      </trkpt>
      <trkpt lat="42.41694" lon="2.24429">
        <ele>2501.6000976562</ele>
        <time>2023-07-17T13:15:16.000Z</time>
      </trkpt>
      <trkpt lat="42.41694" lon="2.24428">
        <ele>2501.8000488281</ele>
        <time>2023-07-17T13:15:17.000Z</time>
      </trkpt>
      <trkpt lat="42.41693" lon="2.24422">
        <ele>2502.8000488281</ele>
        <time>2023-07-17T13:15:24.000Z</time>
      </trkpt>
      <trkpt lat="42.41693" lon="2.24421">
        <ele>2503</ele>
        <time>2023-07-17T13:15:25.000Z</time>
      </trkpt>
      <trkpt lat="42.41692" lon="2.24405">
        <ele>2503.6000976562</ele>
        <time>2023-07-17T13:15:36.000Z</time>
      </trkpt>
      <trkpt lat="42.41692" lon="2.24404">
        <ele>2503.8000488281</ele>
        <time>2023-07-17T13:15:37.000Z</time>
      </trkpt>
      <trkpt lat="42.41695" lon="2.24402">
        <ele>2505</ele>
        <time>2023-07-17T13:15:45.000Z</time>
      </trkpt>
      <trkpt lat="42.41696" lon="2.24401">
        <ele>2505</ele>
        <time>2023-07-17T13:15:46.000Z</time>
      </trkpt>
      <trkpt lat="42.41698" lon="2.24396">
        <ele>2504.8000488281</ele>
        <time>2023-07-17T13:15:54.000Z</time>
      </trkpt>
      <trkpt lat="42.41696" lon="2.24389">
        <ele>2506.1999511719</ele>
        <time>2023-07-17T13:16:02.000Z</time>
      </trkpt>
      <trkpt lat="42.41696" lon="2.24389">
        <ele>2506.3999023438</ele>
        <time>2023-07-17T13:16:03.000Z</time>
      </trkpt>
      <trkpt lat="42.41696" lon="2.24387">
        <ele>2507.3999023438</ele>
        <time>2023-07-17T13:16:07.000Z</time>
      </trkpt>
      <trkpt lat="42.41696" lon="2.24383">
        <ele>2508.3999023438</ele>
        <time>2023-07-17T13:16:10.000Z</time>
      </trkpt>
      <trkpt lat="42.41697" lon="2.24382">
        <ele>2508.6000976562</ele>
        <time>2023-07-17T13:16:11.000Z</time>
      </trkpt>
      <trkpt lat="42.41697" lon="2.24379">
        <ele>2509.6000976562</ele>
        <time>2023-07-17T13:16:17.000Z</time>
      </trkpt>
      <trkpt lat="42.41698" lon="2.24379">
        <ele>2509.6000976562</ele>
        <time>2023-07-17T13:16:18.000Z</time>
      </trkpt>
      <trkpt lat="42.41702" lon="2.24377">
        <ele>2510.3999023438</ele>
        <time>2023-07-17T13:16:25.000Z</time>
      </trkpt>
      <trkpt lat="42.41704" lon="2.24376">
        <ele>2510.8000488281</ele>
        <time>2023-07-17T13:16:27.000Z</time>
      </trkpt>
      <trkpt lat="42.41707" lon="2.24373">
        <ele>2511.6000976562</ele>
        <time>2023-07-17T13:16:32.000Z</time>
      </trkpt>
      <trkpt lat="42.41707" lon="2.24372">
        <ele>2511.8000488281</ele>
        <time>2023-07-17T13:16:33.000Z</time>
      </trkpt>
      <trkpt lat="42.41706" lon="2.24367">
        <ele>2513</ele>
        <time>2023-07-17T13:16:39.000Z</time>
      </trkpt>
      <trkpt lat="42.41706" lon="2.24367">
        <ele>2513.1999511719</ele>
        <time>2023-07-17T13:16:40.000Z</time>
      </trkpt>
      <trkpt lat="42.41707" lon="2.24372">
        <ele>2513.6000976562</ele>
        <time>2023-07-17T13:16:47.000Z</time>
      </trkpt>
      <trkpt lat="42.41707" lon="2.24369">
        <ele>2513.8000488281</ele>
        <time>2023-07-17T13:16:52.000Z</time>
      </trkpt>
      <trkpt lat="42.41706" lon="2.24362">
        <ele>2514</ele>
        <time>2023-07-17T13:16:57.000Z</time>
      </trkpt>
      <trkpt lat="42.41707" lon="2.2436">
        <ele>2514</ele>
        <time>2023-07-17T13:16:59.000Z</time>
      </trkpt>
      <trkpt lat="42.41707" lon="2.24351">
        <ele>2514</ele>
        <time>2023-07-17T13:17:07.000Z</time>
      </trkpt>
      <trkpt lat="42.41707" lon="2.24343">
        <ele>2515.1999511719</ele>
        <time>2023-07-17T13:17:12.000Z</time>
      </trkpt>
      <trkpt lat="42.41707" lon="2.24341">
        <ele>2515.3999023438</ele>
        <time>2023-07-17T13:17:14.000Z</time>
      </trkpt>
      <trkpt lat="42.41706" lon="2.24338">
        <ele>2516.1999511719</ele>
        <time>2023-07-17T13:17:19.000Z</time>
      </trkpt>
      <trkpt lat="42.41706" lon="2.24338">
        <ele>2516.6000976562</ele>
        <time>2023-07-17T13:17:21.000Z</time>
      </trkpt>
      <trkpt lat="42.41705" lon="2.24333">
        <ele>2517.1999511719</ele>
        <time>2023-07-17T13:17:25.000Z</time>
      </trkpt>
      <trkpt lat="42.41704" lon="2.24332">
        <ele>2517.8000488281</ele>
        <time>2023-07-17T13:17:28.000Z</time>
      </trkpt>
      <trkpt lat="42.41705" lon="2.24331">
        <ele>2518.3999023438</ele>
        <time>2023-07-17T13:17:33.000Z</time>
      </trkpt>
      <trkpt lat="42.41706" lon="2.24328">
        <ele>2518.8000488281</ele>
        <time>2023-07-17T13:17:36.000Z</time>
      </trkpt>
      <trkpt lat="42.41707" lon="2.24327">
        <ele>2519.6000976562</ele>
        <time>2023-07-17T13:17:39.000Z</time>
      </trkpt>
      <trkpt lat="42.41708" lon="2.24323">
        <ele>2520.6000976562</ele>
        <time>2023-07-17T13:17:43.000Z</time>
      </trkpt>
      <trkpt lat="42.41708" lon="2.24322">
        <ele>2520.6000976562</ele>
        <time>2023-07-17T13:17:44.000Z</time>
      </trkpt>
      <trkpt lat="42.4171" lon="2.2432">
        <ele>2521.3999023438</ele>
        <time>2023-07-17T13:17:54.000Z</time>
      </trkpt>
      <trkpt lat="42.41711" lon="2.24319">
        <ele>2521.6000976562</ele>
        <time>2023-07-17T13:17:55.000Z</time>
      </trkpt>
      <trkpt lat="42.41712" lon="2.24316">
        <ele>2522.1999511719</ele>
        <time>2023-07-17T13:18:01.000Z</time>
      </trkpt>
      <trkpt lat="42.41711" lon="2.24316">
        <ele>2522.6000976562</ele>
        <time>2023-07-17T13:18:03.000Z</time>
      </trkpt>
      <trkpt lat="42.41709" lon="2.24314">
        <ele>2523.1999511719</ele>
        <time>2023-07-17T13:18:08.000Z</time>
      </trkpt>
      <trkpt lat="42.41708" lon="2.2431">
        <ele>2523.8000488281</ele>
        <time>2023-07-17T13:18:11.000Z</time>
      </trkpt>
      <trkpt lat="42.41707" lon="2.24308">
        <ele>2524.8000488281</ele>
        <time>2023-07-17T13:18:14.000Z</time>
      </trkpt>
      <trkpt lat="42.41707" lon="2.24306">
        <ele>2525.3999023438</ele>
        <time>2023-07-17T13:18:17.000Z</time>
      </trkpt>
      <trkpt lat="42.41709" lon="2.243">
        <ele>2526</ele>
        <time>2023-07-17T13:18:25.000Z</time>
      </trkpt>
      <trkpt lat="42.41709" lon="2.24299">
        <ele>2526</ele>
        <time>2023-07-17T13:18:26.000Z</time>
      </trkpt>
      <trkpt lat="42.41712" lon="2.24293">
        <ele>2527</ele>
        <time>2023-07-17T13:18:33.000Z</time>
      </trkpt>
      <trkpt lat="42.41713" lon="2.24292">
        <ele>2527</ele>
        <time>2023-07-17T13:18:34.000Z</time>
      </trkpt>
      <trkpt lat="42.41712" lon="2.24285">
        <ele>2527.3999023438</ele>
        <time>2023-07-17T13:18:41.000Z</time>
      </trkpt>
      <trkpt lat="42.41712" lon="2.24279">
        <ele>2528.1999511719</ele>
        <time>2023-07-17T13:18:45.000Z</time>
      </trkpt>
      <trkpt lat="42.41712" lon="2.24273">
        <ele>2528.3999023438</ele>
        <time>2023-07-17T13:18:49.000Z</time>
      </trkpt>
      <trkpt lat="42.41716" lon="2.24262">
        <ele>2528.8000488281</ele>
        <time>2023-07-17T13:18:58.000Z</time>
      </trkpt>
      <trkpt lat="42.41716" lon="2.24255">
        <ele>2527.6000976562</ele>
        <time>2023-07-17T13:19:06.000Z</time>
      </trkpt>
      <trkpt lat="42.41716" lon="2.24255">
        <ele>2529.1999511719</ele>
        <time>2023-07-17T13:19:09.000Z</time>
      </trkpt>
      <trkpt lat="42.41715" lon="2.24256">
        <ele>2528.6000976562</ele>
        <time>2023-07-17T13:19:15.000Z</time>
      </trkpt>
      <trkpt lat="42.41712" lon="2.24256">
        <ele>2529</ele>
        <time>2023-07-17T13:19:24.000Z</time>
      </trkpt>
      <trkpt lat="42.41712" lon="2.24256">
        <ele>2527.6000976562</ele>
        <time>2023-07-17T13:19:30.000Z</time>
      </trkpt>
      <trkpt lat="42.41715" lon="2.24256">
        <ele>2527.1999511719</ele>
        <time>2023-07-17T13:19:39.000Z</time>
      </trkpt>
      <trkpt lat="42.41714" lon="2.24256">
        <ele>2526.6000976562</ele>
        <time>2023-07-17T13:19:47.000Z</time>
      </trkpt>
      <trkpt lat="42.41714" lon="2.24253">
        <ele>2527</ele>
        <time>2023-07-17T13:19:57.000Z</time>
      </trkpt>
      <trkpt lat="42.41713" lon="2.24255">
        <ele>2527.1999511719</ele>
        <time>2023-07-17T13:20:07.000Z</time>
      </trkpt>
      <trkpt lat="42.41709" lon="2.24255">
        <ele>2528.8000488281</ele>
        <time>2023-07-17T13:20:14.000Z</time>
      </trkpt>
      <trkpt lat="42.41708" lon="2.24254">
        <ele>2530.1999511719</ele>
        <time>2023-07-17T13:20:15.000Z</time>
      </trkpt>
      <trkpt lat="42.41702" lon="2.24252">
        <ele>2530.1999511719</ele>
        <time>2023-07-17T13:20:21.000Z</time>
      </trkpt>
      <trkpt lat="42.41698" lon="2.2425">
        <ele>2529</ele>
        <time>2023-07-17T13:20:26.000Z</time>
      </trkpt>
      <trkpt lat="42.41695" lon="2.24249">
        <ele>2528.1999511719</ele>
        <time>2023-07-17T13:20:29.000Z</time>
      </trkpt>
      <trkpt lat="42.41688" lon="2.24247">
        <ele>2528</ele>
        <time>2023-07-17T13:20:34.000Z</time>
      </trkpt>
      <trkpt lat="42.41687" lon="2.24246">
        <ele>2527.3999023438</ele>
        <time>2023-07-17T13:20:36.000Z</time>
      </trkpt>
      <trkpt lat="42.41688" lon="2.24247">
        <ele>2527.3999023438</ele>
        <time>2023-07-17T13:20:38.000Z</time>
      </trkpt>
      <trkpt lat="42.41689" lon="2.24247">
        <ele>2526.6000976562</ele>
        <time>2023-07-17T13:20:39.000Z</time>
      </trkpt>
      <trkpt lat="42.41688" lon="2.24245">
        <ele>2526</ele>
        <time>2023-07-17T13:20:44.000Z</time>
      </trkpt>
      <trkpt lat="42.41688" lon="2.24244">
        <ele>2525.8000488281</ele>
        <time>2023-07-17T13:20:46.000Z</time>
      </trkpt>
      <trkpt lat="42.41688" lon="2.24244">
        <ele>2525.3999023438</ele>
        <time>2023-07-17T13:20:48.000Z</time>
      </trkpt>
      <trkpt lat="42.41688" lon="2.24244">
        <ele>2525.1999511719</ele>
        <time>2023-07-17T13:20:49.000Z</time>
      </trkpt>
      <trkpt lat="42.41687" lon="2.24245">
        <ele>2525.1999511719</ele>
        <time>2023-07-17T13:20:51.000Z</time>
      </trkpt>
      <trkpt lat="42.4169" lon="2.24244">
        <ele>2526.6000976562</ele>
        <time>2023-07-17T13:20:55.000Z</time>
      </trkpt>
      <trkpt lat="42.41695" lon="2.24244">
        <ele>2527.1999511719</ele>
        <time>2023-07-17T13:20:59.000Z</time>
      </trkpt>
      <trkpt lat="42.41697" lon="2.24243">
        <ele>2527.6000976562</ele>
        <time>2023-07-17T13:21:02.000Z</time>
      </trkpt>
      <trkpt lat="42.41702" lon="2.24246">
        <ele>2528</ele>
        <time>2023-07-17T13:21:06.000Z</time>
      </trkpt>
      <trkpt lat="42.41709" lon="2.24251">
        <ele>2528.6000976562</ele>
        <time>2023-07-17T13:21:14.000Z</time>
      </trkpt>
      <trkpt lat="42.4171" lon="2.24251">
        <ele>2528.8000488281</ele>
        <time>2023-07-17T13:21:15.000Z</time>
      </trkpt>
      <trkpt lat="42.41713" lon="2.24249">
        <ele>2530</ele>
        <time>2023-07-17T13:21:19.000Z</time>
      </trkpt>
      <trkpt lat="42.41713" lon="2.24246">
        <ele>2530</ele>
        <time>2023-07-17T13:21:21.000Z</time>
      </trkpt>
      <trkpt lat="42.41713" lon="2.24241">
        <ele>2528</ele>
        <time>2023-07-17T13:21:24.000Z</time>
      </trkpt>
      <trkpt lat="42.41711" lon="2.24238">
        <ele>2527</ele>
        <time>2023-07-17T13:21:27.000Z</time>
      </trkpt>
      <trkpt lat="42.41711" lon="2.24237">
        <ele>2527</ele>
        <time>2023-07-17T13:21:28.000Z</time>
      </trkpt>
      <trkpt lat="42.41709" lon="2.24233">
        <ele>2526</ele>
        <time>2023-07-17T13:21:32.000Z</time>
      </trkpt>
      <trkpt lat="42.41708" lon="2.24227">
        <ele>2525.6000976562</ele>
        <time>2023-07-17T13:21:37.000Z</time>
      </trkpt>
      <trkpt lat="42.41705" lon="2.24216">
        <ele>2525</ele>
        <time>2023-07-17T13:21:45.000Z</time>
      </trkpt>
      <trkpt lat="42.41704" lon="2.24218">
        <ele>2524.8000488281</ele>
        <time>2023-07-17T13:21:46.000Z</time>
      </trkpt>
      <trkpt lat="42.41705" lon="2.24218">
        <ele>2524.3999023438</ele>
        <time>2023-07-17T13:21:59.000Z</time>
      </trkpt>
      <trkpt lat="42.41705" lon="2.2421">
        <ele>2523.6000976562</ele>
        <time>2023-07-17T13:22:04.000Z</time>
      </trkpt>
      <trkpt lat="42.41705" lon="2.24208">
        <ele>2523.3999023438</ele>
        <time>2023-07-17T13:22:05.000Z</time>
      </trkpt>
      <trkpt lat="42.41703" lon="2.24196">
        <ele>2522.8000488281</ele>
        <time>2023-07-17T13:22:14.000Z</time>
      </trkpt>
      <trkpt lat="42.41701" lon="2.24185">
        <ele>2522.8000488281</ele>
        <time>2023-07-17T13:22:23.000Z</time>
      </trkpt>
      <trkpt lat="42.417" lon="2.24182">
        <ele>2522.3999023438</ele>
        <time>2023-07-17T13:22:25.000Z</time>
      </trkpt>
      <trkpt lat="42.41699" lon="2.24175">
        <ele>2521.3999023438</ele>
        <time>2023-07-17T13:22:30.000Z</time>
      </trkpt>
      <trkpt lat="42.41698" lon="2.2417">
        <ele>2520.6000976562</ele>
        <time>2023-07-17T13:22:33.000Z</time>
      </trkpt>
      <trkpt lat="42.41698" lon="2.24168">
        <ele>2520.1999511719</ele>
        <time>2023-07-17T13:22:34.000Z</time>
      </trkpt>
      <trkpt lat="42.41699" lon="2.24161">
        <ele>2519.1999511719</ele>
        <time>2023-07-17T13:22:39.000Z</time>
      </trkpt>
      <trkpt lat="42.41699" lon="2.24158">
        <ele>2519</ele>
        <time>2023-07-17T13:22:41.000Z</time>
      </trkpt>
      <trkpt lat="42.41699" lon="2.2415">
        <ele>2518</ele>
        <time>2023-07-17T13:22:47.000Z</time>
      </trkpt>
      <trkpt lat="42.41699" lon="2.24148">
        <ele>2518</ele>
        <time>2023-07-17T13:22:48.000Z</time>
      </trkpt>
      <trkpt lat="42.41699" lon="2.24141">
        <ele>2517</ele>
        <time>2023-07-17T13:22:53.000Z</time>
      </trkpt>
      <trkpt lat="42.41699" lon="2.24135">
        <ele>2516.3999023438</ele>
        <time>2023-07-17T13:22:56.000Z</time>
      </trkpt>
      <trkpt lat="42.41698" lon="2.24128">
        <ele>2516</ele>
        <time>2023-07-17T13:23:02.000Z</time>
      </trkpt>
      <trkpt lat="42.41694" lon="2.24118">
        <ele>2514.8000488281</ele>
        <time>2023-07-17T13:23:09.000Z</time>
      </trkpt>
      <trkpt lat="42.41692" lon="2.24108">
        <ele>2514.6000976562</ele>
        <time>2023-07-17T13:23:16.000Z</time>
      </trkpt>
      <trkpt lat="42.41694" lon="2.24099">
        <ele>2514</ele>
        <time>2023-07-17T13:23:22.000Z</time>
      </trkpt>
      <trkpt lat="42.41694" lon="2.241">
        <ele>2513.6000976562</ele>
        <time>2023-07-17T13:23:23.000Z</time>
      </trkpt>
      <trkpt lat="42.41695" lon="2.241">
        <ele>2513.3999023438</ele>
        <time>2023-07-17T13:23:24.000Z</time>
      </trkpt>
      <trkpt lat="42.41696" lon="2.241">
        <ele>2512.1999511719</ele>
        <time>2023-07-17T13:23:26.000Z</time>
      </trkpt>
      <trkpt lat="42.41696" lon="2.24098">
        <ele>2511.6000976562</ele>
        <time>2023-07-17T13:23:29.000Z</time>
      </trkpt>
      <trkpt lat="42.41696" lon="2.24097">
        <ele>2511.6000976562</ele>
        <time>2023-07-17T13:23:30.000Z</time>
      </trkpt>
      <trkpt lat="42.41694" lon="2.24098">
        <ele>2511.8000488281</ele>
        <time>2023-07-17T13:23:35.000Z</time>
      </trkpt>
      <trkpt lat="42.41694" lon="2.24099">
        <ele>2512</ele>
        <time>2023-07-17T13:23:37.000Z</time>
      </trkpt>
      <trkpt lat="42.41694" lon="2.24101">
        <ele>2511.6000976562</ele>
        <time>2023-07-17T13:23:45.000Z</time>
      </trkpt>
      <trkpt lat="42.41694" lon="2.241">
        <ele>2511.6000976562</ele>
        <time>2023-07-17T13:23:54.000Z</time>
      </trkpt>
      <trkpt lat="42.41695" lon="2.24101">
        <ele>2511</ele>
        <time>2023-07-17T13:23:57.000Z</time>
      </trkpt>
      <trkpt lat="42.41694" lon="2.241">
        <ele>2511.6000976562</ele>
        <time>2023-07-17T13:24:05.000Z</time>
      </trkpt>
      <trkpt lat="42.41695" lon="2.241">
        <ele>2512</ele>
        <time>2023-07-17T13:24:14.000Z</time>
      </trkpt>
      <trkpt lat="42.41695" lon="2.24101">
        <ele>2512.1999511719</ele>
        <time>2023-07-17T13:24:15.000Z</time>
      </trkpt>
      <trkpt lat="42.41694" lon="2.24103">
        <ele>2513</ele>
        <time>2023-07-17T13:24:23.000Z</time>
      </trkpt>
      <trkpt lat="42.41694" lon="2.24102">
        <ele>2513.3999023438</ele>
        <time>2023-07-17T13:24:30.000Z</time>
      </trkpt>
      <trkpt lat="42.41694" lon="2.24102">
        <ele>2513.6000976562</ele>
        <time>2023-07-17T13:24:31.000Z</time>
      </trkpt>
      <trkpt lat="42.41694" lon="2.24102">
        <ele>2513.1999511719</ele>
        <time>2023-07-17T13:24:40.000Z</time>
      </trkpt>
      <trkpt lat="42.41693" lon="2.24099">
        <ele>2513.1999511719</ele>
        <time>2023-07-17T13:24:49.000Z</time>
      </trkpt>
      <trkpt lat="42.41692" lon="2.24096">
        <ele>2513.3999023438</ele>
        <time>2023-07-17T13:25:03.000Z</time>
      </trkpt>
      <trkpt lat="42.41694" lon="2.24099">
        <ele>2513.1999511719</ele>
        <time>2023-07-17T13:25:12.000Z</time>
      </trkpt>
      <trkpt lat="42.41694" lon="2.24101">
        <ele>2512.8000488281</ele>
        <time>2023-07-17T13:25:19.000Z</time>
      </trkpt>
      <trkpt lat="42.41695" lon="2.24102">
        <ele>2513.3999023438</ele>
        <time>2023-07-17T13:25:28.000Z</time>
      </trkpt>
      <trkpt lat="42.41695" lon="2.241">
        <ele>2513.3999023438</ele>
        <time>2023-07-17T13:25:37.000Z</time>
      </trkpt>
      <trkpt lat="42.41697" lon="2.24099">
        <ele>2513.6000976562</ele>
        <time>2023-07-17T13:25:46.000Z</time>
      </trkpt>
      <trkpt lat="42.41697" lon="2.24102">
        <ele>2513.6000976562</ele>
        <time>2023-07-17T13:25:54.000Z</time>
      </trkpt>
      <trkpt lat="42.41696" lon="2.24103">
        <ele>2512.8000488281</ele>
        <time>2023-07-17T13:26:03.000Z</time>
      </trkpt>
      <trkpt lat="42.41697" lon="2.24107">
        <ele>2513.1999511719</ele>
        <time>2023-07-17T13:26:12.000Z</time>
      </trkpt>
      <trkpt lat="42.41703" lon="2.24111">
        <ele>2512.6000976562</ele>
        <time>2023-07-17T13:26:20.000Z</time>
      </trkpt>
      <trkpt lat="42.41697" lon="2.24108">
        <ele>2512.6000976562</ele>
        <time>2023-07-17T13:26:27.000Z</time>
      </trkpt>
      <trkpt lat="42.41693" lon="2.24102">
        <ele>2512.3999023438</ele>
        <time>2023-07-17T13:26:34.000Z</time>
      </trkpt>
      <trkpt lat="42.41693" lon="2.24102">
        <ele>2512.3999023438</ele>
        <time>2023-07-17T13:26:35.000Z</time>
      </trkpt>
      <trkpt lat="42.4169" lon="2.24102">
        <ele>2512.6000976562</ele>
        <time>2023-07-17T13:26:41.000Z</time>
      </trkpt>
      <trkpt lat="42.41692" lon="2.24104">
        <ele>2512.1999511719</ele>
        <time>2023-07-17T13:26:49.000Z</time>
      </trkpt>
      <trkpt lat="42.41691" lon="2.241">
        <ele>2513.1999511719</ele>
        <time>2023-07-17T13:26:57.000Z</time>
      </trkpt>
      <trkpt lat="42.41694" lon="2.24099">
        <ele>2512.8000488281</ele>
        <time>2023-07-17T13:27:05.000Z</time>
      </trkpt>
      <trkpt lat="42.41693" lon="2.241">
        <ele>2513.3999023438</ele>
        <time>2023-07-17T13:27:11.000Z</time>
      </trkpt>
      <trkpt lat="42.41693" lon="2.24099">
        <ele>2513.3999023438</ele>
        <time>2023-07-17T13:27:16.000Z</time>
      </trkpt>
      <trkpt lat="42.41695" lon="2.24098">
        <ele>2512.6000976562</ele>
        <time>2023-07-17T13:27:24.000Z</time>
      </trkpt>
      <trkpt lat="42.41695" lon="2.24098">
        <ele>2512.1999511719</ele>
        <time>2023-07-17T13:27:26.000Z</time>
      </trkpt>
      <trkpt lat="42.41695" lon="2.24095">
        <ele>2512.3999023438</ele>
        <time>2023-07-17T13:27:32.000Z</time>
      </trkpt>
      <trkpt lat="42.41689" lon="2.241">
        <ele>2512.6000976562</ele>
        <time>2023-07-17T13:27:42.000Z</time>
      </trkpt>
      <trkpt lat="42.41692" lon="2.24101">
        <ele>2513.1999511719</ele>
        <time>2023-07-17T13:27:50.000Z</time>
      </trkpt>
      <trkpt lat="42.41692" lon="2.24101">
        <ele>2513.1999511719</ele>
        <time>2023-07-17T13:27:51.000Z</time>
      </trkpt>
      <trkpt lat="42.41693" lon="2.24099">
        <ele>2513.3999023438</ele>
        <time>2023-07-17T13:28:00.000Z</time>
      </trkpt>
      <trkpt lat="42.41694" lon="2.241">
        <ele>2513.3999023438</ele>
        <time>2023-07-17T13:28:10.000Z</time>
      </trkpt>
      <trkpt lat="42.41694" lon="2.24098">
        <ele>2513.1999511719</ele>
        <time>2023-07-17T13:28:19.000Z</time>
      </trkpt>
      <trkpt lat="42.41697" lon="2.24096">
        <ele>2513.3999023438</ele>
        <time>2023-07-17T13:28:27.000Z</time>
      </trkpt>
      <trkpt lat="42.41694" lon="2.24094">
        <ele>2513</ele>
        <time>2023-07-17T13:28:33.000Z</time>
      </trkpt>
      <trkpt lat="42.41691" lon="2.2409">
        <ele>2513</ele>
        <time>2023-07-17T13:28:40.000Z</time>
      </trkpt>
      <trkpt lat="42.4169" lon="2.24081">
        <ele>2512.1999511719</ele>
        <time>2023-07-17T13:28:46.000Z</time>
      </trkpt>
      <trkpt lat="42.4169" lon="2.24079">
        <ele>2512.1999511719</ele>
        <time>2023-07-17T13:28:47.000Z</time>
      </trkpt>
      <trkpt lat="42.41691" lon="2.24074">
        <ele>2511.1999511719</ele>
        <time>2023-07-17T13:28:50.000Z</time>
      </trkpt>
      <trkpt lat="42.41691" lon="2.2407">
        <ele>2510.8000488281</ele>
        <time>2023-07-17T13:28:53.000Z</time>
      </trkpt>
      <trkpt lat="42.41691" lon="2.24064">
        <ele>2510</ele>
        <time>2023-07-17T13:28:57.000Z</time>
      </trkpt>
      <trkpt lat="42.41692" lon="2.24058">
        <ele>2508.3999023438</ele>
        <time>2023-07-17T13:29:02.000Z</time>
      </trkpt>
      <trkpt lat="42.41691" lon="2.24057">
        <ele>2508.3999023438</ele>
        <time>2023-07-17T13:29:03.000Z</time>
      </trkpt>
      <trkpt lat="42.41688" lon="2.24042">
        <ele>2508.1999511719</ele>
        <time>2023-07-17T13:29:11.000Z</time>
      </trkpt>
      <trkpt lat="42.41681" lon="2.24034">
        <ele>2508.8000488281</ele>
        <time>2023-07-17T13:29:19.000Z</time>
      </trkpt>
      <trkpt lat="42.41676" lon="2.24028">
        <ele>2507.1999511719</ele>
        <time>2023-07-17T13:29:23.000Z</time>
      </trkpt>
      <trkpt lat="42.41672" lon="2.24023">
        <ele>2506.6000976562</ele>
        <time>2023-07-17T13:29:27.000Z</time>
      </trkpt>
      <trkpt lat="42.41667" lon="2.24013">
        <ele>2506.8000488281</ele>
        <time>2023-07-17T13:29:34.000Z</time>
      </trkpt>
      <trkpt lat="42.41663" lon="2.24008">
        <ele>2506.1999511719</ele>
        <time>2023-07-17T13:29:41.000Z</time>
      </trkpt>
      <trkpt lat="42.41662" lon="2.24007">
        <ele>2506.1999511719</ele>
        <time>2023-07-17T13:29:42.000Z</time>
      </trkpt>
      <trkpt lat="42.41657" lon="2.24001">
        <ele>2505.1999511719</ele>
        <time>2023-07-17T13:29:47.000Z</time>
      </trkpt>
      <trkpt lat="42.41657" lon="2.24">
        <ele>2505</ele>
        <time>2023-07-17T13:29:48.000Z</time>
      </trkpt>
      <trkpt lat="42.41651" lon="2.23989">
        <ele>2504.6000976562</ele>
        <time>2023-07-17T13:29:56.000Z</time>
      </trkpt>
      <trkpt lat="42.41645" lon="2.23979">
        <ele>2504</ele>
        <time>2023-07-17T13:30:04.000Z</time>
      </trkpt>
      <trkpt lat="42.41643" lon="2.23973">
        <ele>2503.8000488281</ele>
        <time>2023-07-17T13:30:07.000Z</time>
      </trkpt>
      <trkpt lat="42.4164" lon="2.23961">
        <ele>2503.1999511719</ele>
        <time>2023-07-17T13:30:15.000Z</time>
      </trkpt>
      <trkpt lat="42.41638" lon="2.23955">
        <ele>2503</ele>
        <time>2023-07-17T13:30:19.000Z</time>
      </trkpt>
      <trkpt lat="42.41637" lon="2.23946">
        <ele>2502.3999023438</ele>
        <time>2023-07-17T13:30:24.000Z</time>
      </trkpt>
      <trkpt lat="42.41636" lon="2.23944">
        <ele>2502</ele>
        <time>2023-07-17T13:30:26.000Z</time>
      </trkpt>
      <trkpt lat="42.41635" lon="2.23935">
        <ele>2501.1999511719</ele>
        <time>2023-07-17T13:30:31.000Z</time>
      </trkpt>
      <trkpt lat="42.41634" lon="2.23923">
        <ele>2501</ele>
        <time>2023-07-17T13:30:40.000Z</time>
      </trkpt>
      <trkpt lat="42.4163" lon="2.23912">
        <ele>2499.8000488281</ele>
        <time>2023-07-17T13:30:47.000Z</time>
      </trkpt>
      <trkpt lat="42.41629" lon="2.23909">
        <ele>2499.1999511719</ele>
        <time>2023-07-17T13:30:48.000Z</time>
      </trkpt>
      <trkpt lat="42.41625" lon="2.239">
        <ele>2498.6000976562</ele>
        <time>2023-07-17T13:30:54.000Z</time>
      </trkpt>
      <trkpt lat="42.41624" lon="2.23896">
        <ele>2498.3999023438</ele>
        <time>2023-07-17T13:30:57.000Z</time>
      </trkpt>
      <trkpt lat="42.41624" lon="2.23885">
        <ele>2497.3999023438</ele>
        <time>2023-07-17T13:31:04.000Z</time>
      </trkpt>
      <trkpt lat="42.41622" lon="2.23871">
        <ele>2497</ele>
        <time>2023-07-17T13:31:13.000Z</time>
      </trkpt>
      <trkpt lat="42.41622" lon="2.23865">
        <ele>2496.3999023438</ele>
        <time>2023-07-17T13:31:17.000Z</time>
      </trkpt>
      <trkpt lat="42.41623" lon="2.23858">
        <ele>2496</ele>
        <time>2023-07-17T13:31:21.000Z</time>
      </trkpt>
      <trkpt lat="42.41623" lon="2.23848">
        <ele>2495.6000976562</ele>
        <time>2023-07-17T13:31:28.000Z</time>
      </trkpt>
      <trkpt lat="42.41623" lon="2.23845">
        <ele>2495.1999511719</ele>
        <time>2023-07-17T13:31:30.000Z</time>
      </trkpt>
      <trkpt lat="42.41623" lon="2.23838">
        <ele>2494.8000488281</ele>
        <time>2023-07-17T13:31:35.000Z</time>
      </trkpt>
      <trkpt lat="42.41623" lon="2.23835">
        <ele>2494.1999511719</ele>
        <time>2023-07-17T13:31:37.000Z</time>
      </trkpt>
      <trkpt lat="42.41624" lon="2.23828">
        <ele>2493.1999511719</ele>
        <time>2023-07-17T13:31:43.000Z</time>
      </trkpt>
      <trkpt lat="42.41626" lon="2.23816">
        <ele>2493</ele>
        <time>2023-07-17T13:31:51.000Z</time>
      </trkpt>
      <trkpt lat="42.41628" lon="2.23805">
        <ele>2492.8000488281</ele>
        <time>2023-07-17T13:31:58.000Z</time>
      </trkpt>
      <trkpt lat="42.41631" lon="2.23793">
        <ele>2492.1999511719</ele>
        <time>2023-07-17T13:32:05.000Z</time>
      </trkpt>
      <trkpt lat="42.41632" lon="2.2379">
        <ele>2492</ele>
        <time>2023-07-17T13:32:07.000Z</time>
      </trkpt>
      <trkpt lat="42.41636" lon="2.23781">
        <ele>2491.1999511719</ele>
        <time>2023-07-17T13:32:14.000Z</time>
      </trkpt>
      <trkpt lat="42.41637" lon="2.23778">
        <ele>2491</ele>
        <time>2023-07-17T13:32:17.000Z</time>
      </trkpt>
      <trkpt lat="42.41639" lon="2.23772">
        <ele>2490.3999023438</ele>
        <time>2023-07-17T13:32:21.000Z</time>
      </trkpt>
      <trkpt lat="42.41641" lon="2.23769">
        <ele>2489.8000488281</ele>
        <time>2023-07-17T13:32:23.000Z</time>
      </trkpt>
      <trkpt lat="42.41643" lon="2.23761">
        <ele>2488.6000976562</ele>
        <time>2023-07-17T13:32:29.000Z</time>
      </trkpt>
      <trkpt lat="42.41644" lon="2.2376">
        <ele>2488.6000976562</ele>
        <time>2023-07-17T13:32:30.000Z</time>
      </trkpt>
      <trkpt lat="42.41644" lon="2.23759">
        <ele>2487.6000976562</ele>
        <time>2023-07-17T13:32:32.000Z</time>
      </trkpt>
      <trkpt lat="42.41648" lon="2.23751">
        <ele>2486.3999023438</ele>
        <time>2023-07-17T13:32:38.000Z</time>
      </trkpt>
      <trkpt lat="42.41651" lon="2.23737">
        <ele>2485.6000976562</ele>
        <time>2023-07-17T13:32:46.000Z</time>
      </trkpt>
      <trkpt lat="42.41652" lon="2.23735">
        <ele>2485.3999023438</ele>
        <time>2023-07-17T13:32:47.000Z</time>
      </trkpt>
      <trkpt lat="42.41655" lon="2.23723">
        <ele>2484.1999511719</ele>
        <time>2023-07-17T13:32:54.000Z</time>
      </trkpt>
      <trkpt lat="42.41656" lon="2.23717">
        <ele>2483.1999511719</ele>
        <time>2023-07-17T13:32:59.000Z</time>
      </trkpt>
      <trkpt lat="42.41657" lon="2.23711">
        <ele>2482.6000976562</ele>
        <time>2023-07-17T13:33:02.000Z</time>
      </trkpt>
      <trkpt lat="42.41657" lon="2.23706">
        <ele>2482</ele>
        <time>2023-07-17T13:33:06.000Z</time>
      </trkpt>
      <trkpt lat="42.41657" lon="2.23704">
        <ele>2481.6000976562</ele>
        <time>2023-07-17T13:33:08.000Z</time>
      </trkpt>
      <trkpt lat="42.41658" lon="2.237">
        <ele>2481</ele>
        <time>2023-07-17T13:33:11.000Z</time>
      </trkpt>
      <trkpt lat="42.41661" lon="2.23695">
        <ele>2479.6000976562</ele>
        <time>2023-07-17T13:33:17.000Z</time>
      </trkpt>
      <trkpt lat="42.41666" lon="2.23688">
        <ele>2478.3999023438</ele>
        <time>2023-07-17T13:33:24.000Z</time>
      </trkpt>
      <trkpt lat="42.41666" lon="2.23686">
        <ele>2478.1999511719</ele>
        <time>2023-07-17T13:33:25.000Z</time>
      </trkpt>
      <trkpt lat="42.41669" lon="2.23681">
        <ele>2477.1999511719</ele>
        <time>2023-07-17T13:33:28.000Z</time>
      </trkpt>
      <trkpt lat="42.41671" lon="2.23676">
        <ele>2476.3999023438</ele>
        <time>2023-07-17T13:33:32.000Z</time>
      </trkpt>
      <trkpt lat="42.41672" lon="2.23674">
        <ele>2476</ele>
        <time>2023-07-17T13:33:34.000Z</time>
      </trkpt>
      <trkpt lat="42.41676" lon="2.23669">
        <ele>2474.8000488281</ele>
        <time>2023-07-17T13:33:39.000Z</time>
      </trkpt>
      <trkpt lat="42.41676" lon="2.23668">
        <ele>2474.6000976562</ele>
        <time>2023-07-17T13:33:40.000Z</time>
      </trkpt>
      <trkpt lat="42.41677" lon="2.23665">
        <ele>2473.8000488281</ele>
        <time>2023-07-17T13:33:47.000Z</time>
      </trkpt>
      <trkpt lat="42.41677" lon="2.23667">
        <ele>2473.8000488281</ele>
        <time>2023-07-17T13:33:49.000Z</time>
      </trkpt>
      <trkpt lat="42.41679" lon="2.23664">
        <ele>2474.3999023438</ele>
        <time>2023-07-17T13:33:54.000Z</time>
      </trkpt>
      <trkpt lat="42.41679" lon="2.23663">
        <ele>2474.1999511719</ele>
        <time>2023-07-17T13:33:55.000Z</time>
      </trkpt>
      <trkpt lat="42.4168" lon="2.23662">
        <ele>2474.3999023438</ele>
        <time>2023-07-17T13:34:01.000Z</time>
      </trkpt>
      <trkpt lat="42.4168" lon="2.23663">
        <ele>2474</ele>
        <time>2023-07-17T13:34:09.000Z</time>
      </trkpt>
      <trkpt lat="42.4168" lon="2.23668">
        <ele>2474.1999511719</ele>
        <time>2023-07-17T13:34:14.000Z</time>
      </trkpt>
      <trkpt lat="42.4168" lon="2.23669">
        <ele>2474.1999511719</ele>
        <time>2023-07-17T13:34:15.000Z</time>
      </trkpt>
      <trkpt lat="42.41681" lon="2.23667">
        <ele>2474.1999511719</ele>
        <time>2023-07-17T13:34:19.000Z</time>
      </trkpt>
      <trkpt lat="42.41681" lon="2.23662">
        <ele>2473.8000488281</ele>
        <time>2023-07-17T13:34:22.000Z</time>
      </trkpt>
      <trkpt lat="42.41682" lon="2.23655">
        <ele>2473.6000976562</ele>
        <time>2023-07-17T13:34:25.000Z</time>
      </trkpt>
      <trkpt lat="42.41683" lon="2.23651">
        <ele>2472.8000488281</ele>
        <time>2023-07-17T13:34:28.000Z</time>
      </trkpt>
      <trkpt lat="42.41685" lon="2.23647">
        <ele>2472</ele>
        <time>2023-07-17T13:34:31.000Z</time>
      </trkpt>
      <trkpt lat="42.41686" lon="2.23641">
        <ele>2471.6000976562</ele>
        <time>2023-07-17T13:34:35.000Z</time>
      </trkpt>
      <trkpt lat="42.41687" lon="2.23638">
        <ele>2471</ele>
        <time>2023-07-17T13:34:38.000Z</time>
      </trkpt>
      <trkpt lat="42.41687" lon="2.23633">
        <ele>2470.3999023438</ele>
        <time>2023-07-17T13:34:41.000Z</time>
      </trkpt>
      <trkpt lat="42.41689" lon="2.23628">
        <ele>2469.3999023438</ele>
        <time>2023-07-17T13:34:45.000Z</time>
      </trkpt>
      <trkpt lat="42.41689" lon="2.23627">
        <ele>2469.3999023438</ele>
        <time>2023-07-17T13:34:46.000Z</time>
      </trkpt>
      <trkpt lat="42.41691" lon="2.2362">
        <ele>2468.3999023438</ele>
        <time>2023-07-17T13:34:51.000Z</time>
      </trkpt>
      <trkpt lat="42.41692" lon="2.23617">
        <ele>2468</ele>
        <time>2023-07-17T13:34:53.000Z</time>
      </trkpt>
      <trkpt lat="42.41694" lon="2.23614">
        <ele>2466.8000488281</ele>
        <time>2023-07-17T13:34:56.000Z</time>
      </trkpt>
      <trkpt lat="42.41697" lon="2.23608">
        <ele>2466</ele>
        <time>2023-07-17T13:35:01.000Z</time>
      </trkpt>
      <trkpt lat="42.41697" lon="2.23607">
        <ele>2465.8000488281</ele>
        <time>2023-07-17T13:35:02.000Z</time>
      </trkpt>
      <trkpt lat="42.41699" lon="2.23603">
        <ele>2464.6000976562</ele>
        <time>2023-07-17T13:35:07.000Z</time>
      </trkpt>
      <trkpt lat="42.41699" lon="2.23602">
        <ele>2464.3999023438</ele>
        <time>2023-07-17T13:35:10.000Z</time>
      </trkpt>
      <trkpt lat="42.41702" lon="2.23597">
        <ele>2463.3999023438</ele>
        <time>2023-07-17T13:35:13.000Z</time>
      </trkpt>
      <trkpt lat="42.41704" lon="2.23593">
        <ele>2463</ele>
        <time>2023-07-17T13:35:16.000Z</time>
      </trkpt>
      <trkpt lat="42.41704" lon="2.23592">
        <ele>2462.3999023438</ele>
        <time>2023-07-17T13:35:18.000Z</time>
      </trkpt>
      <trkpt lat="42.41705" lon="2.23588">
        <ele>2461.8000488281</ele>
        <time>2023-07-17T13:35:23.000Z</time>
      </trkpt>
      <trkpt lat="42.41708" lon="2.23584">
        <ele>2461.3999023438</ele>
        <time>2023-07-17T13:35:27.000Z</time>
      </trkpt>
      <trkpt lat="42.41709" lon="2.23583">
        <ele>2461.1999511719</ele>
        <time>2023-07-17T13:35:28.000Z</time>
      </trkpt>
      <trkpt lat="42.41711" lon="2.23577">
        <ele>2460.3999023438</ele>
        <time>2023-07-17T13:35:32.000Z</time>
      </trkpt>
      <trkpt lat="42.41713" lon="2.23572">
        <ele>2459.8000488281</ele>
        <time>2023-07-17T13:35:36.000Z</time>
      </trkpt>
      <trkpt lat="42.41714" lon="2.23569">
        <ele>2459.1999511719</ele>
        <time>2023-07-17T13:35:39.000Z</time>
      </trkpt>
      <trkpt lat="42.41716" lon="2.23564">
        <ele>2459</ele>
        <time>2023-07-17T13:35:43.000Z</time>
      </trkpt>
      <trkpt lat="42.41718" lon="2.23561">
        <ele>2458.1999511719</ele>
        <time>2023-07-17T13:35:46.000Z</time>
      </trkpt>
      <trkpt lat="42.41722" lon="2.23555">
        <ele>2457.1999511719</ele>
        <time>2023-07-17T13:35:51.000Z</time>
      </trkpt>
      <trkpt lat="42.41724" lon="2.23552">
        <ele>2456.8000488281</ele>
        <time>2023-07-17T13:35:54.000Z</time>
      </trkpt>
      <trkpt lat="42.41727" lon="2.23545">
        <ele>2455.8000488281</ele>
        <time>2023-07-17T13:35:59.000Z</time>
      </trkpt>
      <trkpt lat="42.41728" lon="2.23544">
        <ele>2455.6000976562</ele>
        <time>2023-07-17T13:36:00.000Z</time>
      </trkpt>
      <trkpt lat="42.41729" lon="2.23536">
        <ele>2454.3999023438</ele>
        <time>2023-07-17T13:36:06.000Z</time>
      </trkpt>
      <trkpt lat="42.41732" lon="2.23531">
        <ele>2453.3999023438</ele>
        <time>2023-07-17T13:36:11.000Z</time>
      </trkpt>
      <trkpt lat="42.41734" lon="2.2353">
        <ele>2453</ele>
        <time>2023-07-17T13:36:13.000Z</time>
      </trkpt>
      <trkpt lat="42.41737" lon="2.23523">
        <ele>2452.3999023438</ele>
        <time>2023-07-17T13:36:19.000Z</time>
      </trkpt>
      <trkpt lat="42.41738" lon="2.23521">
        <ele>2452</ele>
        <time>2023-07-17T13:36:21.000Z</time>
      </trkpt>
      <trkpt lat="42.41739" lon="2.23516">
        <ele>2451.3999023438</ele>
        <time>2023-07-17T13:36:25.000Z</time>
      </trkpt>
      <trkpt lat="42.41742" lon="2.23512">
        <ele>2450.3999023438</ele>
        <time>2023-07-17T13:36:29.000Z</time>
      </trkpt>
      <trkpt lat="42.41743" lon="2.23511">
        <ele>2450.1999511719</ele>
        <time>2023-07-17T13:36:30.000Z</time>
      </trkpt>
      <trkpt lat="42.41746" lon="2.23505">
        <ele>2449</ele>
        <time>2023-07-17T13:36:37.000Z</time>
      </trkpt>
      <trkpt lat="42.41749" lon="2.23499">
        <ele>2448</ele>
        <time>2023-07-17T13:36:43.000Z</time>
      </trkpt>
      <trkpt lat="42.41753" lon="2.23491">
        <ele>2446.8000488281</ele>
        <time>2023-07-17T13:36:50.000Z</time>
      </trkpt>
      <trkpt lat="42.41753" lon="2.2349">
        <ele>2446.3999023438</ele>
        <time>2023-07-17T13:36:51.000Z</time>
      </trkpt>
      <trkpt lat="42.41755" lon="2.23486">
        <ele>2445.3999023438</ele>
        <time>2023-07-17T13:36:56.000Z</time>
      </trkpt>
      <trkpt lat="42.41757" lon="2.23482">
        <ele>2444.3999023438</ele>
        <time>2023-07-17T13:37:00.000Z</time>
      </trkpt>
      <trkpt lat="42.41759" lon="2.23475">
        <ele>2443.3999023438</ele>
        <time>2023-07-17T13:37:06.000Z</time>
      </trkpt>
      <trkpt lat="42.41759" lon="2.23475">
        <ele>2443</ele>
        <time>2023-07-17T13:37:07.000Z</time>
      </trkpt>
      <trkpt lat="42.41758" lon="2.23471">
        <ele>2442.3999023438</ele>
        <time>2023-07-17T13:37:11.000Z</time>
      </trkpt>
      <trkpt lat="42.41757" lon="2.23467">
        <ele>2441.8000488281</ele>
        <time>2023-07-17T13:37:14.000Z</time>
      </trkpt>
      <trkpt lat="42.41756" lon="2.23464">
        <ele>2441.1999511719</ele>
        <time>2023-07-17T13:37:17.000Z</time>
      </trkpt>
      <trkpt lat="42.41755" lon="2.23461">
        <ele>2440.1999511719</ele>
        <time>2023-07-17T13:37:20.000Z</time>
      </trkpt>
      <trkpt lat="42.41755" lon="2.2346">
        <ele>2440</ele>
        <time>2023-07-17T13:37:21.000Z</time>
      </trkpt>
      <trkpt lat="42.41752" lon="2.23453">
        <ele>2439.1999511719</ele>
        <time>2023-07-17T13:37:26.000Z</time>
      </trkpt>
      <trkpt lat="42.41751" lon="2.2345">
        <ele>2438.3999023438</ele>
        <time>2023-07-17T13:37:28.000Z</time>
      </trkpt>
      <trkpt lat="42.4175" lon="2.23446">
        <ele>2438</ele>
        <time>2023-07-17T13:37:30.000Z</time>
      </trkpt>
      <trkpt lat="42.41748" lon="2.23441">
        <ele>2438.1999511719</ele>
        <time>2023-07-17T13:37:34.000Z</time>
      </trkpt>
      <trkpt lat="42.41744" lon="2.23434">
        <ele>2439.1999511719</ele>
        <time>2023-07-17T13:37:40.000Z</time>
      </trkpt>
      <trkpt lat="42.41743" lon="2.23431">
        <ele>2439.3999023438</ele>
        <time>2023-07-17T13:37:42.000Z</time>
      </trkpt>
      <trkpt lat="42.41739" lon="2.23421">
        <ele>2439.6000976562</ele>
        <time>2023-07-17T13:37:49.000Z</time>
      </trkpt>
      <trkpt lat="42.41738" lon="2.23411">
        <ele>2439.3999023438</ele>
        <time>2023-07-17T13:37:56.000Z</time>
      </trkpt>
      <trkpt lat="42.4174" lon="2.23404">
        <ele>2439.1999511719</ele>
        <time>2023-07-17T13:38:02.000Z</time>
      </trkpt>
      <trkpt lat="42.41745" lon="2.23394">
        <ele>2438.8000488281</ele>
        <time>2023-07-17T13:38:12.000Z</time>
      </trkpt>
      <trkpt lat="42.41746" lon="2.23387">
        <ele>2438.1999511719</ele>
        <time>2023-07-17T13:38:18.000Z</time>
      </trkpt>
      <trkpt lat="42.41751" lon="2.23377">
        <ele>2437.3999023438</ele>
        <time>2023-07-17T13:38:26.000Z</time>
      </trkpt>
      <trkpt lat="42.41752" lon="2.23375">
        <ele>2436.8000488281</ele>
        <time>2023-07-17T13:38:28.000Z</time>
      </trkpt>
      <trkpt lat="42.41755" lon="2.23372">
        <ele>2436</ele>
        <time>2023-07-17T13:38:34.000Z</time>
      </trkpt>
      <trkpt lat="42.41757" lon="2.23371">
        <ele>2435.8000488281</ele>
        <time>2023-07-17T13:38:36.000Z</time>
      </trkpt>
      <trkpt lat="42.4176" lon="2.23369">
        <ele>2435</ele>
        <time>2023-07-17T13:38:40.000Z</time>
      </trkpt>
      <trkpt lat="42.4176" lon="2.23368">
        <ele>2434.6000976562</ele>
        <time>2023-07-17T13:38:42.000Z</time>
      </trkpt>
      <trkpt lat="42.41765" lon="2.23364">
        <ele>2433.8000488281</ele>
        <time>2023-07-17T13:38:47.000Z</time>
      </trkpt>
      <trkpt lat="42.41767" lon="2.23362">
        <ele>2433.6000976562</ele>
        <time>2023-07-17T13:38:49.000Z</time>
      </trkpt>
      <trkpt lat="42.41769" lon="2.23358">
        <ele>2432.8000488281</ele>
        <time>2023-07-17T13:38:56.000Z</time>
      </trkpt>
      <trkpt lat="42.41769" lon="2.23356">
        <ele>2432.3999023438</ele>
        <time>2023-07-17T13:38:58.000Z</time>
      </trkpt>
      <trkpt lat="42.4177" lon="2.23349">
        <ele>2431.8000488281</ele>
        <time>2023-07-17T13:39:03.000Z</time>
      </trkpt>
      <trkpt lat="42.41771" lon="2.2334">
        <ele>2431.1999511719</ele>
        <time>2023-07-17T13:39:09.000Z</time>
      </trkpt>
      <trkpt lat="42.41772" lon="2.23336">
        <ele>2431</ele>
        <time>2023-07-17T13:39:12.000Z</time>
      </trkpt>
      <trkpt lat="42.41775" lon="2.23323">
        <ele>2430.1999511719</ele>
        <time>2023-07-17T13:39:20.000Z</time>
      </trkpt>
      <trkpt lat="42.41776" lon="2.23322">
        <ele>2430</ele>
        <time>2023-07-17T13:39:21.000Z</time>
      </trkpt>
      <trkpt lat="42.4178" lon="2.23313">
        <ele>2429.1999511719</ele>
        <time>2023-07-17T13:39:29.000Z</time>
      </trkpt>
      <trkpt lat="42.4178" lon="2.23306">
        <ele>2429</ele>
        <time>2023-07-17T13:39:33.000Z</time>
      </trkpt>
      <trkpt lat="42.41779" lon="2.23297">
        <ele>2429.1999511719</ele>
        <time>2023-07-17T13:39:38.000Z</time>
      </trkpt>
      <trkpt lat="42.41779" lon="2.23288">
        <ele>2430</ele>
        <time>2023-07-17T13:39:44.000Z</time>
      </trkpt>
      <trkpt lat="42.41779" lon="2.23286">
        <ele>2430.6000976562</ele>
        <time>2023-07-17T13:39:47.000Z</time>
      </trkpt>
      <trkpt lat="42.41781" lon="2.23281">
        <ele>2431.1999511719</ele>
        <time>2023-07-17T13:39:52.000Z</time>
      </trkpt>
      <trkpt lat="42.41782" lon="2.23276">
        <ele>2431.6000976562</ele>
        <time>2023-07-17T13:39:55.000Z</time>
      </trkpt>
      <trkpt lat="42.41781" lon="2.23272">
        <ele>2432.3999023438</ele>
        <time>2023-07-17T13:39:59.000Z</time>
      </trkpt>
      <trkpt lat="42.41782" lon="2.23269">
        <ele>2432.8000488281</ele>
        <time>2023-07-17T13:40:02.000Z</time>
      </trkpt>
      <trkpt lat="42.4178" lon="2.23263">
        <ele>2433.6000976562</ele>
        <time>2023-07-17T13:40:07.000Z</time>
      </trkpt>
      <trkpt lat="42.4178" lon="2.23261">
        <ele>2433.8000488281</ele>
        <time>2023-07-17T13:40:09.000Z</time>
      </trkpt>
      <trkpt lat="42.4178" lon="2.23262">
        <ele>2434</ele>
        <time>2023-07-17T13:40:13.000Z</time>
      </trkpt>
      <trkpt lat="42.4178" lon="2.23263">
        <ele>2434.1999511719</ele>
        <time>2023-07-17T13:40:14.000Z</time>
      </trkpt>
      <trkpt lat="42.41781" lon="2.23261">
        <ele>2434.1999511719</ele>
        <time>2023-07-17T13:40:20.000Z</time>
      </trkpt>
      <trkpt lat="42.41782" lon="2.23262">
        <ele>2434</ele>
        <time>2023-07-17T13:40:22.000Z</time>
      </trkpt>
      <trkpt lat="42.41782" lon="2.23262">
        <ele>2434</ele>
        <time>2023-07-17T13:40:31.000Z</time>
      </trkpt>
      <trkpt lat="42.41781" lon="2.23255">
        <ele>2433.8000488281</ele>
        <time>2023-07-17T13:40:36.000Z</time>
      </trkpt>
      <trkpt lat="42.41783" lon="2.23243">
        <ele>2433.6000976562</ele>
        <time>2023-07-17T13:40:44.000Z</time>
      </trkpt>
      <trkpt lat="42.41784" lon="2.23234">
        <ele>2434</ele>
        <time>2023-07-17T13:40:51.000Z</time>
      </trkpt>
      <trkpt lat="42.41784" lon="2.23223">
        <ele>2434</ele>
        <time>2023-07-17T13:40:58.000Z</time>
      </trkpt>
      <trkpt lat="42.41787" lon="2.23213">
        <ele>2432.6000976562</ele>
        <time>2023-07-17T13:41:07.000Z</time>
      </trkpt>
      <trkpt lat="42.41787" lon="2.2321">
        <ele>2432.6000976562</ele>
        <time>2023-07-17T13:41:09.000Z</time>
      </trkpt>
      <trkpt lat="42.41787" lon="2.23197">
        <ele>2431.3999023438</ele>
        <time>2023-07-17T13:41:16.000Z</time>
      </trkpt>
      <trkpt lat="42.41788" lon="2.23187">
        <ele>2430.8000488281</ele>
        <time>2023-07-17T13:41:23.000Z</time>
      </trkpt>
      <trkpt lat="42.4179" lon="2.23177">
        <ele>2430.3999023438</ele>
        <time>2023-07-17T13:41:29.000Z</time>
      </trkpt>
      <trkpt lat="42.41791" lon="2.23175">
        <ele>2430.3999023438</ele>
        <time>2023-07-17T13:41:31.000Z</time>
      </trkpt>
      <trkpt lat="42.41792" lon="2.23166">
        <ele>2429.3999023438</ele>
        <time>2023-07-17T13:41:38.000Z</time>
      </trkpt>
      <trkpt lat="42.41792" lon="2.23166">
        <ele>2429.3999023438</ele>
        <time>2023-07-17T13:41:39.000Z</time>
      </trkpt>
      <trkpt lat="42.41796" lon="2.23155">
        <ele>2428.3999023438</ele>
        <time>2023-07-17T13:41:48.000Z</time>
      </trkpt>
      <trkpt lat="42.41797" lon="2.23154">
        <ele>2428.3999023438</ele>
        <time>2023-07-17T13:41:49.000Z</time>
      </trkpt>
      <trkpt lat="42.41801" lon="2.23145">
        <ele>2427.6000976562</ele>
        <time>2023-07-17T13:41:55.000Z</time>
      </trkpt>
      <trkpt lat="42.41807" lon="2.23133">
        <ele>2427.6000976562</ele>
        <time>2023-07-17T13:42:03.000Z</time>
      </trkpt>
      <trkpt lat="42.41812" lon="2.23125">
        <ele>2427.8000488281</ele>
        <time>2023-07-17T13:42:10.000Z</time>
      </trkpt>
      <trkpt lat="42.41819" lon="2.23113">
        <ele>2427.8000488281</ele>
        <time>2023-07-17T13:42:19.000Z</time>
      </trkpt>
      <trkpt lat="42.41824" lon="2.23102">
        <ele>2428</ele>
        <time>2023-07-17T13:42:27.000Z</time>
      </trkpt>
      <trkpt lat="42.41831" lon="2.23096">
        <ele>2428</ele>
        <time>2023-07-17T13:42:36.000Z</time>
      </trkpt>
      <trkpt lat="42.41835" lon="2.23088">
        <ele>2428</ele>
        <time>2023-07-17T13:42:42.000Z</time>
      </trkpt>
      <trkpt lat="42.41838" lon="2.23079">
        <ele>2427.3999023438</ele>
        <time>2023-07-17T13:42:49.000Z</time>
      </trkpt>
      <trkpt lat="42.4184" lon="2.23077">
        <ele>2427</ele>
        <time>2023-07-17T13:42:51.000Z</time>
      </trkpt>
      <trkpt lat="42.41846" lon="2.23069">
        <ele>2427</ele>
        <time>2023-07-17T13:42:59.000Z</time>
      </trkpt>
      <trkpt lat="42.41851" lon="2.23061">
        <ele>2427.3999023438</ele>
        <time>2023-07-17T13:43:05.000Z</time>
      </trkpt>
      <trkpt lat="42.41854" lon="2.23051">
        <ele>2427.3999023438</ele>
        <time>2023-07-17T13:43:12.000Z</time>
      </trkpt>
      <trkpt lat="42.41855" lon="2.23039">
        <ele>2427.3999023438</ele>
        <time>2023-07-17T13:43:20.000Z</time>
      </trkpt>
      <trkpt lat="42.41855" lon="2.23028">
        <ele>2427.3999023438</ele>
        <time>2023-07-17T13:43:27.000Z</time>
      </trkpt>
      <trkpt lat="42.41858" lon="2.23018">
        <ele>2427.3999023438</ele>
        <time>2023-07-17T13:43:35.000Z</time>
      </trkpt>
      <trkpt lat="42.4186" lon="2.23017">
        <ele>2427.3999023438</ele>
        <time>2023-07-17T13:43:40.000Z</time>
      </trkpt>
      <trkpt lat="42.4186" lon="2.23016">
        <ele>2427.3999023438</ele>
        <time>2023-07-17T13:43:41.000Z</time>
      </trkpt>
      <trkpt lat="42.41861" lon="2.23019">
        <ele>2427.1999511719</ele>
        <time>2023-07-17T13:43:51.000Z</time>
      </trkpt>
      <trkpt lat="42.4186" lon="2.23021">
        <ele>2427.3999023438</ele>
        <time>2023-07-17T13:43:56.000Z</time>
      </trkpt>
      <trkpt lat="42.41861" lon="2.23016">
        <ele>2426.3999023438</ele>
        <time>2023-07-17T13:44:03.000Z</time>
      </trkpt>
      <trkpt lat="42.41861" lon="2.23015">
        <ele>2426.3999023438</ele>
        <time>2023-07-17T13:44:05.000Z</time>
      </trkpt>
      <trkpt lat="42.41861" lon="2.23009">
        <ele>2425.8000488281</ele>
        <time>2023-07-17T13:44:10.000Z</time>
      </trkpt>
      <trkpt lat="42.41861" lon="2.23006">
        <ele>2425.1999511719</ele>
        <time>2023-07-17T13:44:12.000Z</time>
      </trkpt>
      <trkpt lat="42.41863" lon="2.22999">
        <ele>2424</ele>
        <time>2023-07-17T13:44:18.000Z</time>
      </trkpt>
      <trkpt lat="42.41864" lon="2.22986">
        <ele>2423.3999023438</ele>
        <time>2023-07-17T13:44:27.000Z</time>
      </trkpt>
      <trkpt lat="42.41866" lon="2.22982">
        <ele>2424.1999511719</ele>
        <time>2023-07-17T13:44:34.000Z</time>
      </trkpt>
      <trkpt lat="42.41869" lon="2.22977">
        <ele>2424.8000488281</ele>
        <time>2023-07-17T13:44:41.000Z</time>
      </trkpt>
      <trkpt lat="42.41869" lon="2.22977">
        <ele>2425</ele>
        <time>2023-07-17T13:44:42.000Z</time>
      </trkpt>
      <trkpt lat="42.41867" lon="2.22968">
        <ele>2424.3999023438</ele>
        <time>2023-07-17T13:44:49.000Z</time>
      </trkpt>
      <trkpt lat="42.41867" lon="2.22965">
        <ele>2423.8000488281</ele>
        <time>2023-07-17T13:44:52.000Z</time>
      </trkpt>
      <trkpt lat="42.41867" lon="2.22959">
        <ele>2423.3999023438</ele>
        <time>2023-07-17T13:44:57.000Z</time>
      </trkpt>
      <trkpt lat="42.41868" lon="2.22954">
        <ele>2422.8000488281</ele>
        <time>2023-07-17T13:45:01.000Z</time>
      </trkpt>
      <trkpt lat="42.41868" lon="2.22949">
        <ele>2422.6000976562</ele>
        <time>2023-07-17T13:45:04.000Z</time>
      </trkpt>
      <trkpt lat="42.41871" lon="2.22937">
        <ele>2423</ele>
        <time>2023-07-17T13:45:14.000Z</time>
      </trkpt>
      <trkpt lat="42.41875" lon="2.22928">
        <ele>2422.6000976562</ele>
        <time>2023-07-17T13:45:22.000Z</time>
      </trkpt>
      <trkpt lat="42.41878" lon="2.22927">
        <ele>2422.3999023438</ele>
        <time>2023-07-17T13:45:28.000Z</time>
      </trkpt>
      <trkpt lat="42.41878" lon="2.22927">
        <ele>2422.3999023438</ele>
        <time>2023-07-17T13:45:29.000Z</time>
      </trkpt>
      <trkpt lat="42.41881" lon="2.22927">
        <ele>2422.1999511719</ele>
        <time>2023-07-17T13:45:34.000Z</time>
      </trkpt>
      <trkpt lat="42.41891" lon="2.22921">
        <ele>2422</ele>
        <time>2023-07-17T13:45:43.000Z</time>
      </trkpt>
      <trkpt lat="42.41894" lon="2.22915">
        <ele>2421.8000488281</ele>
        <time>2023-07-17T13:45:47.000Z</time>
      </trkpt>
      <trkpt lat="42.41897" lon="2.22909">
        <ele>2421.8000488281</ele>
        <time>2023-07-17T13:45:51.000Z</time>
      </trkpt>
      <trkpt lat="42.41899" lon="2.229">
        <ele>2421.8000488281</ele>
        <time>2023-07-17T13:45:58.000Z</time>
      </trkpt>
      <trkpt lat="42.41899" lon="2.22892">
        <ele>2421.8000488281</ele>
        <time>2023-07-17T13:46:05.000Z</time>
      </trkpt>
      <trkpt lat="42.41897" lon="2.22883">
        <ele>2420.6000976562</ele>
        <time>2023-07-17T13:46:13.000Z</time>
      </trkpt>
      <trkpt lat="42.41896" lon="2.22875">
        <ele>2419.8000488281</ele>
        <time>2023-07-17T13:46:19.000Z</time>
      </trkpt>
      <trkpt lat="42.41897" lon="2.22871">
        <ele>2419.6000976562</ele>
        <time>2023-07-17T13:46:23.000Z</time>
      </trkpt>
      <trkpt lat="42.41898" lon="2.2287">
        <ele>2419.3999023438</ele>
        <time>2023-07-17T13:46:26.000Z</time>
      </trkpt>
      <trkpt lat="42.41899" lon="2.22863">
        <ele>2418.6000976562</ele>
        <time>2023-07-17T13:46:32.000Z</time>
      </trkpt>
      <trkpt lat="42.41899" lon="2.22863">
        <ele>2418.3999023438</ele>
        <time>2023-07-17T13:46:33.000Z</time>
      </trkpt>
      <trkpt lat="42.41899" lon="2.22853">
        <ele>2417.6000976562</ele>
        <time>2023-07-17T13:46:41.000Z</time>
      </trkpt>
      <trkpt lat="42.41897" lon="2.22849">
        <ele>2417.1999511719</ele>
        <time>2023-07-17T13:46:48.000Z</time>
      </trkpt>
      <trkpt lat="42.41899" lon="2.22848">
        <ele>2417.1999511719</ele>
        <time>2023-07-17T13:46:55.000Z</time>
      </trkpt>
      <trkpt lat="42.419" lon="2.22849">
        <ele>2417.1999511719</ele>
        <time>2023-07-17T13:46:58.000Z</time>
      </trkpt>
      <trkpt lat="42.41899" lon="2.2285">
        <ele>2417.6000976562</ele>
        <time>2023-07-17T13:47:07.000Z</time>
      </trkpt>
      <trkpt lat="42.41898" lon="2.22843">
        <ele>2418.1999511719</ele>
        <time>2023-07-17T13:47:15.000Z</time>
      </trkpt>
      <trkpt lat="42.41898" lon="2.22836">
        <ele>2418.1999511719</ele>
        <time>2023-07-17T13:47:21.000Z</time>
      </trkpt>
      <trkpt lat="42.41898" lon="2.22834">
        <ele>2418.1999511719</ele>
        <time>2023-07-17T13:47:27.000Z</time>
      </trkpt>
      <trkpt lat="42.41898" lon="2.22825">
        <ele>2418.1999511719</ele>
        <time>2023-07-17T13:47:33.000Z</time>
      </trkpt>
      <trkpt lat="42.41896" lon="2.22809">
        <ele>2418.3999023438</ele>
        <time>2023-07-17T13:47:42.000Z</time>
      </trkpt>
      <trkpt lat="42.41894" lon="2.22798">
        <ele>2418.6000976562</ele>
        <time>2023-07-17T13:47:50.000Z</time>
      </trkpt>
      <trkpt lat="42.41892" lon="2.22788">
        <ele>2419</ele>
        <time>2023-07-17T13:47:56.000Z</time>
      </trkpt>
      <trkpt lat="42.41892" lon="2.22782">
        <ele>2419.1999511719</ele>
        <time>2023-07-17T13:48:02.000Z</time>
      </trkpt>
      <trkpt lat="42.41892" lon="2.22781">
        <ele>2419.8000488281</ele>
        <time>2023-07-17T13:48:04.000Z</time>
      </trkpt>
      <trkpt lat="42.41892" lon="2.22778">
        <ele>2420</ele>
        <time>2023-07-17T13:48:07.000Z</time>
      </trkpt>
      <trkpt lat="42.41892" lon="2.22775">
        <ele>2420.8000488281</ele>
        <time>2023-07-17T13:48:12.000Z</time>
      </trkpt>
      <trkpt lat="42.41891" lon="2.22771">
        <ele>2421.3999023438</ele>
        <time>2023-07-17T13:48:15.000Z</time>
      </trkpt>
      <trkpt lat="42.41891" lon="2.22764">
        <ele>2421.6000976562</ele>
        <time>2023-07-17T13:48:22.000Z</time>
      </trkpt>
      <trkpt lat="42.41892" lon="2.22755">
        <ele>2421.1999511719</ele>
        <time>2023-07-17T13:48:29.000Z</time>
      </trkpt>
      <trkpt lat="42.41891" lon="2.22754">
        <ele>2421.1999511719</ele>
        <time>2023-07-17T13:48:35.000Z</time>
      </trkpt>
      <trkpt lat="42.41887" lon="2.22752">
        <ele>2420.8000488281</ele>
        <time>2023-07-17T13:48:42.000Z</time>
      </trkpt>
      <trkpt lat="42.41884" lon="2.22751">
        <ele>2420.6000976562</ele>
        <time>2023-07-17T13:48:49.000Z</time>
      </trkpt>
      <trkpt lat="42.41879" lon="2.22754">
        <ele>2421.8000488281</ele>
        <time>2023-07-17T13:48:56.000Z</time>
      </trkpt>
      <trkpt lat="42.41879" lon="2.22757">
        <ele>2421.3999023438</ele>
        <time>2023-07-17T13:49:03.000Z</time>
      </trkpt>
      <trkpt lat="42.41879" lon="2.22755">
        <ele>2421.8000488281</ele>
        <time>2023-07-17T13:49:11.000Z</time>
      </trkpt>
      <trkpt lat="42.41879" lon="2.22753">
        <ele>2421.8000488281</ele>
        <time>2023-07-17T13:49:13.000Z</time>
      </trkpt>
      <trkpt lat="42.41881" lon="2.22751">
        <ele>2422.3999023438</ele>
        <time>2023-07-17T13:49:19.000Z</time>
      </trkpt>
      <trkpt lat="42.41883" lon="2.22752">
        <ele>2422.6000976562</ele>
        <time>2023-07-17T13:49:26.000Z</time>
      </trkpt>
      <trkpt lat="42.41884" lon="2.22749">
        <ele>2422.3999023438</ele>
        <time>2023-07-17T13:49:37.000Z</time>
      </trkpt>
      <trkpt lat="42.4188" lon="2.2275">
        <ele>2422.6000976562</ele>
        <time>2023-07-17T13:49:46.000Z</time>
      </trkpt>
      <trkpt lat="42.41882" lon="2.22749">
        <ele>2422.6000976562</ele>
        <time>2023-07-17T13:49:53.000Z</time>
      </trkpt>
      <trkpt lat="42.41886" lon="2.22749">
        <ele>2422.8000488281</ele>
        <time>2023-07-17T13:50:00.000Z</time>
      </trkpt>
      <trkpt lat="42.41885" lon="2.22749">
        <ele>2423</ele>
        <time>2023-07-17T13:50:02.000Z</time>
      </trkpt>
      <trkpt lat="42.41887" lon="2.22749">
        <ele>2423.1999511719</ele>
        <time>2023-07-17T13:50:11.000Z</time>
      </trkpt>
      <trkpt lat="42.41893" lon="2.22745">
        <ele>2423</ele>
        <time>2023-07-17T13:50:18.000Z</time>
      </trkpt>
      <trkpt lat="42.41892" lon="2.22738">
        <ele>2423.8000488281</ele>
        <time>2023-07-17T13:50:27.000Z</time>
      </trkpt>
      <trkpt lat="42.41892" lon="2.22737">
        <ele>2424</ele>
        <time>2023-07-17T13:50:28.000Z</time>
      </trkpt>
      <trkpt lat="42.41894" lon="2.22738">
        <ele>2425</ele>
        <time>2023-07-17T13:50:33.000Z</time>
      </trkpt>
      <trkpt lat="42.41894" lon="2.22739">
        <ele>2425.6000976562</ele>
        <time>2023-07-17T13:50:35.000Z</time>
      </trkpt>
      <trkpt lat="42.41896" lon="2.22737">
        <ele>2425.8000488281</ele>
        <time>2023-07-17T13:50:43.000Z</time>
      </trkpt>
      <trkpt lat="42.41894" lon="2.2273">
        <ele>2426</ele>
        <time>2023-07-17T13:50:50.000Z</time>
      </trkpt>
      <trkpt lat="42.41894" lon="2.2273">
        <ele>2426</ele>
        <time>2023-07-17T13:50:51.000Z</time>
      </trkpt>
      <trkpt lat="42.41895" lon="2.22732">
        <ele>2426.6000976562</ele>
        <time>2023-07-17T13:50:58.000Z</time>
      </trkpt>
      <trkpt lat="42.41899" lon="2.22733">
        <ele>2426.1999511719</ele>
        <time>2023-07-17T13:51:07.000Z</time>
      </trkpt>
      <trkpt lat="42.419" lon="2.2273">
        <ele>2425.8000488281</ele>
        <time>2023-07-17T13:51:16.000Z</time>
      </trkpt>
      <trkpt lat="42.41894" lon="2.22724">
        <ele>2426</ele>
        <time>2023-07-17T13:51:22.000Z</time>
      </trkpt>
      <trkpt lat="42.41886" lon="2.22722">
        <ele>2426.1999511719</ele>
        <time>2023-07-17T13:51:29.000Z</time>
      </trkpt>
      <trkpt lat="42.41884" lon="2.22718">
        <ele>2426.6000976562</ele>
        <time>2023-07-17T13:51:32.000Z</time>
      </trkpt>
      <trkpt lat="42.41881" lon="2.22713">
        <ele>2427</ele>
        <time>2023-07-17T13:51:36.000Z</time>
      </trkpt>
      <trkpt lat="42.41879" lon="2.2271">
        <ele>2427</ele>
        <time>2023-07-17T13:51:39.000Z</time>
      </trkpt>
      <trkpt lat="42.41878" lon="2.22708">
        <ele>2427.3999023438</ele>
        <time>2023-07-17T13:51:43.000Z</time>
      </trkpt>
      <trkpt lat="42.41878" lon="2.22711">
        <ele>2427.6000976562</ele>
        <time>2023-07-17T13:51:48.000Z</time>
      </trkpt>
      <trkpt lat="42.41879" lon="2.22715">
        <ele>2427.3999023438</ele>
        <time>2023-07-17T13:51:56.000Z</time>
      </trkpt>
      <trkpt lat="42.41878" lon="2.22717">
        <ele>2427.3999023438</ele>
        <time>2023-07-17T13:52:05.000Z</time>
      </trkpt>
      <trkpt lat="42.41877" lon="2.2271">
        <ele>2427.3999023438</ele>
        <time>2023-07-17T13:52:10.000Z</time>
      </trkpt>
      <trkpt lat="42.41876" lon="2.22695">
        <ele>2428</ele>
        <time>2023-07-17T13:52:18.000Z</time>
      </trkpt>
      <trkpt lat="42.41875" lon="2.22688">
        <ele>2428.8000488281</ele>
        <time>2023-07-17T13:52:24.000Z</time>
      </trkpt>
      <trkpt lat="42.41875" lon="2.22686">
        <ele>2429.1999511719</ele>
        <time>2023-07-17T13:52:26.000Z</time>
      </trkpt>
      <trkpt lat="42.41874" lon="2.2268">
        <ele>2429.6000976562</ele>
        <time>2023-07-17T13:52:30.000Z</time>
      </trkpt>
      <trkpt lat="42.41874" lon="2.22674">
        <ele>2430.3999023438</ele>
        <time>2023-07-17T13:52:35.000Z</time>
      </trkpt>
      <trkpt lat="42.41874" lon="2.22671">
        <ele>2430.6000976562</ele>
        <time>2023-07-17T13:52:37.000Z</time>
      </trkpt>
      <trkpt lat="42.41876" lon="2.22663">
        <ele>2431.3999023438</ele>
        <time>2023-07-17T13:52:42.000Z</time>
      </trkpt>
      <trkpt lat="42.41877" lon="2.22661">
        <ele>2431.6000976562</ele>
        <time>2023-07-17T13:52:45.000Z</time>
      </trkpt>
      <trkpt lat="42.41875" lon="2.22659">
        <ele>2432.3999023438</ele>
        <time>2023-07-17T13:52:52.000Z</time>
      </trkpt>
      <trkpt lat="42.41875" lon="2.22657">
        <ele>2432.6000976562</ele>
        <time>2023-07-17T13:52:53.000Z</time>
      </trkpt>
      <trkpt lat="42.41875" lon="2.2265">
        <ele>2433.6000976562</ele>
        <time>2023-07-17T13:53:02.000Z</time>
      </trkpt>
      <trkpt lat="42.41873" lon="2.22643">
        <ele>2434.3999023438</ele>
        <time>2023-07-17T13:53:08.000Z</time>
      </trkpt>
      <trkpt lat="42.41873" lon="2.22643">
        <ele>2434.6000976562</ele>
        <time>2023-07-17T13:53:10.000Z</time>
      </trkpt>
      <trkpt lat="42.41873" lon="2.22641">
        <ele>2435.1999511719</ele>
        <time>2023-07-17T13:53:14.000Z</time>
      </trkpt>
      <trkpt lat="42.41873" lon="2.22639">
        <ele>2435.8000488281</ele>
        <time>2023-07-17T13:53:17.000Z</time>
      </trkpt>
      <trkpt lat="42.41874" lon="2.22637">
        <ele>2436.1999511719</ele>
        <time>2023-07-17T13:53:22.000Z</time>
      </trkpt>
      <trkpt lat="42.41874" lon="2.2264">
        <ele>2436.3999023438</ele>
        <time>2023-07-17T13:53:33.000Z</time>
      </trkpt>
      <trkpt lat="42.41875" lon="2.22633">
        <ele>2436.6000976562</ele>
        <time>2023-07-17T13:53:39.000Z</time>
      </trkpt>
      <trkpt lat="42.41875" lon="2.22629">
        <ele>2437</ele>
        <time>2023-07-17T13:53:42.000Z</time>
      </trkpt>
      <trkpt lat="42.41875" lon="2.22621">
        <ele>2437.6000976562</ele>
        <time>2023-07-17T13:53:47.000Z</time>
      </trkpt>
      <trkpt lat="42.41875" lon="2.22619">
        <ele>2438</ele>
        <time>2023-07-17T13:53:49.000Z</time>
      </trkpt>
      <trkpt lat="42.41872" lon="2.22614">
        <ele>2439</ele>
        <time>2023-07-17T13:53:54.000Z</time>
      </trkpt>
      <trkpt lat="42.41871" lon="2.22611">
        <ele>2439</ele>
        <time>2023-07-17T13:53:57.000Z</time>
      </trkpt>
      <trkpt lat="42.41869" lon="2.22609">
        <ele>2439.1999511719</ele>
        <time>2023-07-17T13:54:00.000Z</time>
      </trkpt>
      <trkpt lat="42.41867" lon="2.22606">
        <ele>2440.1999511719</ele>
        <time>2023-07-17T13:54:06.000Z</time>
      </trkpt>
      <trkpt lat="42.41866" lon="2.22603">
        <ele>2440.3999023438</ele>
        <time>2023-07-17T13:54:08.000Z</time>
      </trkpt>
      <trkpt lat="42.41862" lon="2.22595">
        <ele>2441</ele>
        <time>2023-07-17T13:54:15.000Z</time>
      </trkpt>
      <trkpt lat="42.41861" lon="2.22593">
        <ele>2441.1999511719</ele>
        <time>2023-07-17T13:54:17.000Z</time>
      </trkpt>
      <trkpt lat="42.4186" lon="2.22589">
        <ele>2441.3999023438</ele>
        <time>2023-07-17T13:54:22.000Z</time>
      </trkpt>
      <trkpt lat="42.41857" lon="2.22583">
        <ele>2442.1999511719</ele>
        <time>2023-07-17T13:54:28.000Z</time>
      </trkpt>
      <trkpt lat="42.41857" lon="2.22583">
        <ele>2442.1999511719</ele>
        <time>2023-07-17T13:54:29.000Z</time>
      </trkpt>
      <trkpt lat="42.41853" lon="2.22582">
        <ele>2442.1999511719</ele>
        <time>2023-07-17T13:54:34.000Z</time>
      </trkpt>
      <trkpt lat="42.41849" lon="2.22582">
        <ele>2443.1999511719</ele>
        <time>2023-07-17T13:54:40.000Z</time>
      </trkpt>
      <trkpt lat="42.41847" lon="2.2258">
        <ele>2443.3999023438</ele>
        <time>2023-07-17T13:54:42.000Z</time>
      </trkpt>
      <trkpt lat="42.41846" lon="2.22578">
        <ele>2443.8000488281</ele>
        <time>2023-07-17T13:54:44.000Z</time>
      </trkpt>
      <trkpt lat="42.41845" lon="2.22576">
        <ele>2444.1999511719</ele>
        <time>2023-07-17T13:54:47.000Z</time>
      </trkpt>
      <trkpt lat="42.41844" lon="2.22576">
        <ele>2444.1999511719</ele>
        <time>2023-07-17T13:54:49.000Z</time>
      </trkpt>
      <trkpt lat="42.41843" lon="2.22577">
        <ele>2444.1999511719</ele>
        <time>2023-07-17T13:54:50.000Z</time>
      </trkpt>
      <trkpt lat="42.41844" lon="2.22576">
        <ele>2444.1999511719</ele>
        <time>2023-07-17T13:54:55.000Z</time>
      </trkpt>
      <trkpt lat="42.41844" lon="2.22573">
        <ele>2444.1999511719</ele>
        <time>2023-07-17T13:54:58.000Z</time>
      </trkpt>
      <trkpt lat="42.41844" lon="2.22569">
        <ele>2444.8000488281</ele>
        <time>2023-07-17T13:55:03.000Z</time>
      </trkpt>
      <trkpt lat="42.41843" lon="2.22565">
        <ele>2445.3999023438</ele>
        <time>2023-07-17T13:55:08.000Z</time>
      </trkpt>
      <trkpt lat="42.41843" lon="2.22563">
        <ele>2445.6000976562</ele>
        <time>2023-07-17T13:55:10.000Z</time>
      </trkpt>
      <trkpt lat="42.41842" lon="2.22558">
        <ele>2446.1999511719</ele>
        <time>2023-07-17T13:55:16.000Z</time>
      </trkpt>
      <trkpt lat="42.41842" lon="2.22557">
        <ele>2446.3999023438</ele>
        <time>2023-07-17T13:55:18.000Z</time>
      </trkpt>
      <trkpt lat="42.41842" lon="2.22555">
        <ele>2447.1999511719</ele>
        <time>2023-07-17T13:55:22.000Z</time>
      </trkpt>
      <trkpt lat="42.41841" lon="2.22552">
        <ele>2447.6000976562</ele>
        <time>2023-07-17T13:55:24.000Z</time>
      </trkpt>
      <trkpt lat="42.41837" lon="2.22547">
        <ele>2448</ele>
        <time>2023-07-17T13:55:30.000Z</time>
      </trkpt>
      <trkpt lat="42.41832" lon="2.22543">
        <ele>2448.3999023438</ele>
        <time>2023-07-17T13:55:38.000Z</time>
      </trkpt>
      <trkpt lat="42.41832" lon="2.22543">
        <ele>2448.6000976562</ele>
        <time>2023-07-17T13:55:40.000Z</time>
      </trkpt>
      <trkpt lat="42.41827" lon="2.22542">
        <ele>2449.6000976562</ele>
        <time>2023-07-17T13:55:48.000Z</time>
      </trkpt>
      <trkpt lat="42.41824" lon="2.22537">
        <ele>2450.8000488281</ele>
        <time>2023-07-17T13:55:54.000Z</time>
      </trkpt>
      <trkpt lat="42.41823" lon="2.22535">
        <ele>2450.8000488281</ele>
        <time>2023-07-17T13:55:55.000Z</time>
      </trkpt>
      <trkpt lat="42.41822" lon="2.22529">
        <ele>2451.8000488281</ele>
        <time>2023-07-17T13:56:02.000Z</time>
      </trkpt>
      <trkpt lat="42.41822" lon="2.22528">
        <ele>2451.8000488281</ele>
        <time>2023-07-17T13:56:03.000Z</time>
      </trkpt>
      <trkpt lat="42.41824" lon="2.22523">
        <ele>2452.6000976562</ele>
        <time>2023-07-17T13:56:10.000Z</time>
      </trkpt>
      <trkpt lat="42.41823" lon="2.22522">
        <ele>2452.8000488281</ele>
        <time>2023-07-17T13:56:12.000Z</time>
      </trkpt>
      <trkpt lat="42.41823" lon="2.22519">
        <ele>2453.8000488281</ele>
        <time>2023-07-17T13:56:17.000Z</time>
      </trkpt>
      <trkpt lat="42.41823" lon="2.22518">
        <ele>2454</ele>
        <time>2023-07-17T13:56:18.000Z</time>
      </trkpt>
      <trkpt lat="42.41824" lon="2.22513">
        <ele>2454.8000488281</ele>
        <time>2023-07-17T13:56:25.000Z</time>
      </trkpt>
      <trkpt lat="42.41825" lon="2.22513">
        <ele>2455</ele>
        <time>2023-07-17T13:56:28.000Z</time>
      </trkpt>
      <trkpt lat="42.41827" lon="2.22511">
        <ele>2455.6000976562</ele>
        <time>2023-07-17T13:56:31.000Z</time>
      </trkpt>
      <trkpt lat="42.4183" lon="2.22506">
        <ele>2456.1999511719</ele>
        <time>2023-07-17T13:56:38.000Z</time>
      </trkpt>
      <trkpt lat="42.41829" lon="2.22506">
        <ele>2456.6000976562</ele>
        <time>2023-07-17T13:56:40.000Z</time>
      </trkpt>
      <trkpt lat="42.41824" lon="2.22506">
        <ele>2456.3999023438</ele>
        <time>2023-07-17T13:56:45.000Z</time>
      </trkpt>
      <trkpt lat="42.41823" lon="2.22502">
        <ele>2456.6000976562</ele>
        <time>2023-07-17T13:56:52.000Z</time>
      </trkpt>
      <trkpt lat="42.41823" lon="2.225">
        <ele>2457.3999023438</ele>
        <time>2023-07-17T13:56:58.000Z</time>
      </trkpt>
      <trkpt lat="42.41823" lon="2.225">
        <ele>2457.3999023438</ele>
        <time>2023-07-17T13:56:59.000Z</time>
      </trkpt>
      <trkpt lat="42.41824" lon="2.225">
        <ele>2457.3999023438</ele>
        <time>2023-07-17T13:57:07.000Z</time>
      </trkpt>
      <trkpt lat="42.41821" lon="2.22497">
        <ele>2456.8000488281</ele>
        <time>2023-07-17T13:57:16.000Z</time>
      </trkpt>
      <trkpt lat="42.41818" lon="2.22493">
        <ele>2457</ele>
        <time>2023-07-17T13:57:24.000Z</time>
      </trkpt>
      <trkpt lat="42.4182" lon="2.22495">
        <ele>2457.8000488281</ele>
        <time>2023-07-17T13:57:36.000Z</time>
      </trkpt>
      <trkpt lat="42.41823" lon="2.22502">
        <ele>2458.6000976562</ele>
        <time>2023-07-17T13:57:45.000Z</time>
      </trkpt>
      <trkpt lat="42.41824" lon="2.22504">
        <ele>2458.6000976562</ele>
        <time>2023-07-17T13:57:52.000Z</time>
      </trkpt>
      <trkpt lat="42.41823" lon="2.22503">
        <ele>2459.1999511719</ele>
        <time>2023-07-17T13:58:01.000Z</time>
      </trkpt>
      <trkpt lat="42.41822" lon="2.22501">
        <ele>2459.6000976562</ele>
        <time>2023-07-17T13:58:09.000Z</time>
      </trkpt>
      <trkpt lat="42.4182" lon="2.22499">
        <ele>2459.6000976562</ele>
        <time>2023-07-17T13:58:16.000Z</time>
      </trkpt>
      <trkpt lat="42.41821" lon="2.22499">
        <ele>2459.3999023438</ele>
        <time>2023-07-17T13:58:26.000Z</time>
      </trkpt>
      <trkpt lat="42.41821" lon="2.225">
        <ele>2460</ele>
        <time>2023-07-17T13:58:35.000Z</time>
      </trkpt>
      <trkpt lat="42.41823" lon="2.22498">
        <ele>2460.3999023438</ele>
        <time>2023-07-17T13:58:42.000Z</time>
      </trkpt>
      <trkpt lat="42.41824" lon="2.22492">
        <ele>2460.8000488281</ele>
        <time>2023-07-17T13:58:46.000Z</time>
      </trkpt>
      <trkpt lat="42.41824" lon="2.22489">
        <ele>2461</ele>
        <time>2023-07-17T13:58:48.000Z</time>
      </trkpt>
      <trkpt lat="42.41822" lon="2.2248">
        <ele>2461.6000976562</ele>
        <time>2023-07-17T13:58:55.000Z</time>
      </trkpt>
      <trkpt lat="42.41822" lon="2.2248">
        <ele>2461.8000488281</ele>
        <time>2023-07-17T13:58:56.000Z</time>
      </trkpt>
      <trkpt lat="42.41821" lon="2.2247">
        <ele>2462.3999023438</ele>
        <time>2023-07-17T13:59:03.000Z</time>
      </trkpt>
      <trkpt lat="42.4182" lon="2.2246">
        <ele>2462.8000488281</ele>
        <time>2023-07-17T13:59:10.000Z</time>
      </trkpt>
      <trkpt lat="42.4182" lon="2.22455">
        <ele>2463</ele>
        <time>2023-07-17T13:59:14.000Z</time>
      </trkpt>
      <trkpt lat="42.4182" lon="2.22451">
        <ele>2463</ele>
        <time>2023-07-17T13:59:17.000Z</time>
      </trkpt>
      <trkpt lat="42.41819" lon="2.22443">
        <ele>2463.3999023438</ele>
        <time>2023-07-17T13:59:23.000Z</time>
      </trkpt>
      <trkpt lat="42.41818" lon="2.22435">
        <ele>2464</ele>
        <time>2023-07-17T13:59:29.000Z</time>
      </trkpt>
      <trkpt lat="42.41818" lon="2.22433">
        <ele>2464</ele>
        <time>2023-07-17T13:59:31.000Z</time>
      </trkpt>
      <trkpt lat="42.41819" lon="2.22417">
        <ele>2464.1999511719</ele>
        <time>2023-07-17T13:59:43.000Z</time>
      </trkpt>
      <trkpt lat="42.41818" lon="2.2241">
        <ele>2464.1999511719</ele>
        <time>2023-07-17T13:59:50.000Z</time>
      </trkpt>
      <trkpt lat="42.41815" lon="2.22402">
        <ele>2464.6000976562</ele>
        <time>2023-07-17T13:59:58.000Z</time>
      </trkpt>
      <trkpt lat="42.41813" lon="2.22397">
        <ele>2465</ele>
        <time>2023-07-17T14:00:02.000Z</time>
      </trkpt>
      <trkpt lat="42.41812" lon="2.22395">
        <ele>2465.6000976562</ele>
        <time>2023-07-17T14:00:06.000Z</time>
      </trkpt>
      <trkpt lat="42.41811" lon="2.22393">
        <ele>2466.1999511719</ele>
        <time>2023-07-17T14:00:09.000Z</time>
      </trkpt>
      <trkpt lat="42.41809" lon="2.2239">
        <ele>2467.1999511719</ele>
        <time>2023-07-17T14:00:14.000Z</time>
      </trkpt>
      <trkpt lat="42.41809" lon="2.2239">
        <ele>2467.3999023438</ele>
        <time>2023-07-17T14:00:15.000Z</time>
      </trkpt>
      <trkpt lat="42.41808" lon="2.22387">
        <ele>2468.3999023438</ele>
        <time>2023-07-17T14:00:21.000Z</time>
      </trkpt>
      <trkpt lat="42.41808" lon="2.22385">
        <ele>2468.6000976562</ele>
        <time>2023-07-17T14:00:23.000Z</time>
      </trkpt>
      <trkpt lat="42.41808" lon="2.22381">
        <ele>2469.6000976562</ele>
        <time>2023-07-17T14:00:29.000Z</time>
      </trkpt>
      <trkpt lat="42.41808" lon="2.2238">
        <ele>2470</ele>
        <time>2023-07-17T14:00:31.000Z</time>
      </trkpt>
      <trkpt lat="42.4181" lon="2.22375">
        <ele>2470.6000976562</ele>
        <time>2023-07-17T14:00:37.000Z</time>
      </trkpt>
      <trkpt lat="42.41811" lon="2.22373">
        <ele>2471.1999511719</ele>
        <time>2023-07-17T14:00:40.000Z</time>
      </trkpt>
      <trkpt lat="42.41811" lon="2.22371">
        <ele>2471.6000976562</ele>
        <time>2023-07-17T14:00:43.000Z</time>
      </trkpt>
      <trkpt lat="42.41811" lon="2.2237">
        <ele>2472.1999511719</ele>
        <time>2023-07-17T14:00:46.000Z</time>
      </trkpt>
      <trkpt lat="42.41812" lon="2.22369">
        <ele>2472.8000488281</ele>
        <time>2023-07-17T14:00:50.000Z</time>
      </trkpt>
      <trkpt lat="42.41812" lon="2.22367">
        <ele>2473.6000976562</ele>
        <time>2023-07-17T14:00:56.000Z</time>
      </trkpt>
      <trkpt lat="42.41812" lon="2.22367">
        <ele>2473.8000488281</ele>
        <time>2023-07-17T14:00:57.000Z</time>
      </trkpt>
      <trkpt lat="42.41812" lon="2.22365">
        <ele>2474.6000976562</ele>
        <time>2023-07-17T14:01:03.000Z</time>
      </trkpt>
      <trkpt lat="42.41812" lon="2.22364">
        <ele>2475</ele>
        <time>2023-07-17T14:01:04.000Z</time>
      </trkpt>
      <trkpt lat="42.41813" lon="2.22359">
        <ele>2476</ele>
        <time>2023-07-17T14:01:11.000Z</time>
      </trkpt>
      <trkpt lat="42.41814" lon="2.22359">
        <ele>2476</ele>
        <time>2023-07-17T14:01:12.000Z</time>
      </trkpt>
      <trkpt lat="42.41815" lon="2.22355">
        <ele>2476.6000976562</ele>
        <time>2023-07-17T14:01:19.000Z</time>
      </trkpt>
      <trkpt lat="42.41813" lon="2.22355">
        <ele>2477</ele>
        <time>2023-07-17T14:01:21.000Z</time>
      </trkpt>
      <trkpt lat="42.41809" lon="2.22357">
        <ele>2477.3999023438</ele>
        <time>2023-07-17T14:01:26.000Z</time>
      </trkpt>
      <trkpt lat="42.41802" lon="2.22357">
        <ele>2478</ele>
        <time>2023-07-17T14:01:34.000Z</time>
      </trkpt>
      <trkpt lat="42.41801" lon="2.22357">
        <ele>2478</ele>
        <time>2023-07-17T14:01:35.000Z</time>
      </trkpt>
      <trkpt lat="42.41799" lon="2.22354">
        <ele>2478.8000488281</ele>
        <time>2023-07-17T14:01:44.000Z</time>
      </trkpt>
      <trkpt lat="42.41799" lon="2.22352">
        <ele>2479.1999511719</ele>
        <time>2023-07-17T14:01:45.000Z</time>
      </trkpt>
      <trkpt lat="42.418" lon="2.22349">
        <ele>2480</ele>
        <time>2023-07-17T14:01:51.000Z</time>
      </trkpt>
      <trkpt lat="42.41801" lon="2.22348">
        <ele>2480.1999511719</ele>
        <time>2023-07-17T14:01:53.000Z</time>
      </trkpt>
      <trkpt lat="42.41803" lon="2.22343">
        <ele>2481.1999511719</ele>
        <time>2023-07-17T14:02:01.000Z</time>
      </trkpt>
      <trkpt lat="42.418" lon="2.22342">
        <ele>2480.8000488281</ele>
        <time>2023-07-17T14:02:08.000Z</time>
      </trkpt>
      <trkpt lat="42.41797" lon="2.22335">
        <ele>2480.8000488281</ele>
        <time>2023-07-17T14:02:17.000Z</time>
      </trkpt>
      <trkpt lat="42.41796" lon="2.22338">
        <ele>2480.8000488281</ele>
        <time>2023-07-17T14:02:25.000Z</time>
      </trkpt>
      <trkpt lat="42.41797" lon="2.22334">
        <ele>2480.8000488281</ele>
        <time>2023-07-17T14:02:32.000Z</time>
      </trkpt>
      <trkpt lat="42.41794" lon="2.2233">
        <ele>2479.8000488281</ele>
        <time>2023-07-17T14:02:39.000Z</time>
      </trkpt>
      <trkpt lat="42.41791" lon="2.22328">
        <ele>2479</ele>
        <time>2023-07-17T14:02:42.000Z</time>
      </trkpt>
      <trkpt lat="42.41785" lon="2.22326">
        <ele>2478.3999023438</ele>
        <time>2023-07-17T14:02:48.000Z</time>
      </trkpt>
      <trkpt lat="42.41784" lon="2.22327">
        <ele>2478.8000488281</ele>
        <time>2023-07-17T14:02:54.000Z</time>
      </trkpt>
      <trkpt lat="42.41784" lon="2.22329">
        <ele>2479</ele>
        <time>2023-07-17T14:03:01.000Z</time>
      </trkpt>
      <trkpt lat="42.4178" lon="2.22326">
        <ele>2479.3999023438</ele>
        <time>2023-07-17T14:03:07.000Z</time>
      </trkpt>
      <trkpt lat="42.41777" lon="2.22325">
        <ele>2480.1999511719</ele>
        <time>2023-07-17T14:03:11.000Z</time>
      </trkpt>
      <trkpt lat="42.41776" lon="2.22327">
        <ele>2480.8000488281</ele>
        <time>2023-07-17T14:03:14.000Z</time>
      </trkpt>
      <trkpt lat="42.41776" lon="2.22328">
        <ele>2481.3999023438</ele>
        <time>2023-07-17T14:03:16.000Z</time>
      </trkpt>
      <trkpt lat="42.41772" lon="2.22334">
        <ele>2481.6000976562</ele>
        <time>2023-07-17T14:03:22.000Z</time>
      </trkpt>
      <trkpt lat="42.41766" lon="2.22342">
        <ele>2482</ele>
        <time>2023-07-17T14:03:29.000Z</time>
      </trkpt>
      <trkpt lat="42.41759" lon="2.22344">
        <ele>2482</ele>
        <time>2023-07-17T14:03:35.000Z</time>
      </trkpt>
      <trkpt lat="42.41757" lon="2.22344">
        <ele>2482.3999023438</ele>
        <time>2023-07-17T14:03:38.000Z</time>
      </trkpt>
      <trkpt lat="42.41752" lon="2.22345">
        <ele>2483</ele>
        <time>2023-07-17T14:03:42.000Z</time>
      </trkpt>
      <trkpt lat="42.41747" lon="2.22346">
        <ele>2483.3999023438</ele>
        <time>2023-07-17T14:03:47.000Z</time>
      </trkpt>
      <trkpt lat="42.41744" lon="2.22346">
        <ele>2483.6000976562</ele>
        <time>2023-07-17T14:03:50.000Z</time>
      </trkpt>
      <trkpt lat="42.41735" lon="2.22348">
        <ele>2484.3999023438</ele>
        <time>2023-07-17T14:03:59.000Z</time>
      </trkpt>
      <trkpt lat="42.41733" lon="2.22348">
        <ele>2484.6000976562</ele>
        <time>2023-07-17T14:04:01.000Z</time>
      </trkpt>
      <trkpt lat="42.41733" lon="2.2235">
        <ele>2485</ele>
        <time>2023-07-17T14:04:05.000Z</time>
      </trkpt>
      <trkpt lat="42.41733" lon="2.2235">
        <ele>2485</ele>
        <time>2023-07-17T14:04:06.000Z</time>
      </trkpt>
      <trkpt lat="42.41733" lon="2.2235">
        <ele>2485.1999511719</ele>
        <time>2023-07-17T14:04:11.000Z</time>
      </trkpt>
      <trkpt lat="42.41732" lon="2.2235">
        <ele>2485.1999511719</ele>
        <time>2023-07-17T14:04:12.000Z</time>
      </trkpt>
      <trkpt lat="42.41729" lon="2.22345">
        <ele>2485.3999023438</ele>
        <time>2023-07-17T14:04:19.000Z</time>
      </trkpt>
      <trkpt lat="42.41728" lon="2.22346">
        <ele>2485.6000976562</ele>
        <time>2023-07-17T14:04:27.000Z</time>
      </trkpt>
      <trkpt lat="42.41723" lon="2.22347">
        <ele>2486.8000488281</ele>
        <time>2023-07-17T14:04:34.000Z</time>
      </trkpt>
      <trkpt lat="42.41721" lon="2.22344">
        <ele>2487.8000488281</ele>
        <time>2023-07-17T14:04:40.000Z</time>
      </trkpt>
      <trkpt lat="42.41721" lon="2.22344">
        <ele>2488</ele>
        <time>2023-07-17T14:04:41.000Z</time>
      </trkpt>
      <trkpt lat="42.4172" lon="2.22343">
        <ele>2488.6000976562</ele>
        <time>2023-07-17T14:04:45.000Z</time>
      </trkpt>
      <trkpt lat="42.41719" lon="2.22341">
        <ele>2489</ele>
        <time>2023-07-17T14:04:47.000Z</time>
      </trkpt>
      <trkpt lat="42.41718" lon="2.22338">
        <ele>2489.8000488281</ele>
        <time>2023-07-17T14:04:52.000Z</time>
      </trkpt>
      <trkpt lat="42.41717" lon="2.22336">
        <ele>2490.1999511719</ele>
        <time>2023-07-17T14:04:54.000Z</time>
      </trkpt>
      <trkpt lat="42.41716" lon="2.22333">
        <ele>2490.3999023438</ele>
        <time>2023-07-17T14:04:57.000Z</time>
      </trkpt>
      <trkpt lat="42.41713" lon="2.22325">
        <ele>2491.1999511719</ele>
        <time>2023-07-17T14:05:05.000Z</time>
      </trkpt>
      <trkpt lat="42.41712" lon="2.22324">
        <ele>2491.3999023438</ele>
        <time>2023-07-17T14:05:06.000Z</time>
      </trkpt>
      <trkpt lat="42.41708" lon="2.2232">
        <ele>2492.1999511719</ele>
        <time>2023-07-17T14:05:14.000Z</time>
      </trkpt>
      <trkpt lat="42.41706" lon="2.22316">
        <ele>2493.1999511719</ele>
        <time>2023-07-17T14:05:21.000Z</time>
      </trkpt>
      <trkpt lat="42.41706" lon="2.22316">
        <ele>2493.3999023438</ele>
        <time>2023-07-17T14:05:22.000Z</time>
      </trkpt>
      <trkpt lat="42.41702" lon="2.22313">
        <ele>2494.3999023438</ele>
        <time>2023-07-17T14:05:29.000Z</time>
      </trkpt>
      <trkpt lat="42.41701" lon="2.22313">
        <ele>2494.6000976562</ele>
        <time>2023-07-17T14:05:30.000Z</time>
      </trkpt>
      <trkpt lat="42.41698" lon="2.2231">
        <ele>2495.6000976562</ele>
        <time>2023-07-17T14:05:36.000Z</time>
      </trkpt>
      <trkpt lat="42.41698" lon="2.22309">
        <ele>2496</ele>
        <time>2023-07-17T14:05:39.000Z</time>
      </trkpt>
      <trkpt lat="42.41698" lon="2.22308">
        <ele>2496.6000976562</ele>
        <time>2023-07-17T14:05:43.000Z</time>
      </trkpt>
      <trkpt lat="42.41697" lon="2.22304">
        <ele>2497.1999511719</ele>
        <time>2023-07-17T14:05:47.000Z</time>
      </trkpt>
      <trkpt lat="42.41696" lon="2.22301">
        <ele>2497.6000976562</ele>
        <time>2023-07-17T14:05:51.000Z</time>
      </trkpt>
      <trkpt lat="42.41695" lon="2.22298">
        <ele>2498.1999511719</ele>
        <time>2023-07-17T14:05:55.000Z</time>
      </trkpt>
      <trkpt lat="42.41694" lon="2.22296">
        <ele>2498.8000488281</ele>
        <time>2023-07-17T14:05:58.000Z</time>
      </trkpt>
      <trkpt lat="42.41693" lon="2.22293">
        <ele>2499.3999023438</ele>
        <time>2023-07-17T14:06:04.000Z</time>
      </trkpt>
      <trkpt lat="42.41691" lon="2.22291">
        <ele>2500</ele>
        <time>2023-07-17T14:06:07.000Z</time>
      </trkpt>
      <trkpt lat="42.4169" lon="2.22287">
        <ele>2500.6000976562</ele>
        <time>2023-07-17T14:06:12.000Z</time>
      </trkpt>
      <trkpt lat="42.41689" lon="2.22284">
        <ele>2501.1999511719</ele>
        <time>2023-07-17T14:06:14.000Z</time>
      </trkpt>
      <trkpt lat="42.41689" lon="2.22281">
        <ele>2501.3999023438</ele>
        <time>2023-07-17T14:06:19.000Z</time>
      </trkpt>
      <trkpt lat="42.41687" lon="2.22275">
        <ele>2502.1999511719</ele>
        <time>2023-07-17T14:06:25.000Z</time>
      </trkpt>
      <trkpt lat="42.41686" lon="2.22273">
        <ele>2502.6000976562</ele>
        <time>2023-07-17T14:06:28.000Z</time>
      </trkpt>
      <trkpt lat="42.41687" lon="2.22269">
        <ele>2503.3999023438</ele>
        <time>2023-07-17T14:06:34.000Z</time>
      </trkpt>
      <trkpt lat="42.41687" lon="2.22267">
        <ele>2503.8000488281</ele>
        <time>2023-07-17T14:06:37.000Z</time>
      </trkpt>
      <trkpt lat="42.41689" lon="2.22265">
        <ele>2504.3999023438</ele>
        <time>2023-07-17T14:06:42.000Z</time>
      </trkpt>
      <trkpt lat="42.41688" lon="2.22261">
        <ele>2505.6000976562</ele>
        <time>2023-07-17T14:06:48.000Z</time>
      </trkpt>
      <trkpt lat="42.41687" lon="2.22254">
        <ele>2506.8000488281</ele>
        <time>2023-07-17T14:06:57.000Z</time>
      </trkpt>
      <trkpt lat="42.41686" lon="2.22252">
        <ele>2506.8000488281</ele>
        <time>2023-07-17T14:06:58.000Z</time>
      </trkpt>
      <trkpt lat="42.41686" lon="2.2225">
        <ele>2507.3999023438</ele>
        <time>2023-07-17T14:07:04.000Z</time>
      </trkpt>
      <trkpt lat="42.41688" lon="2.22252">
        <ele>2507.3999023438</ele>
        <time>2023-07-17T14:07:14.000Z</time>
      </trkpt>
      <trkpt lat="42.41689" lon="2.2225">
        <ele>2507.6000976562</ele>
        <time>2023-07-17T14:07:22.000Z</time>
      </trkpt>
      <trkpt lat="42.41687" lon="2.22253">
        <ele>2507.8000488281</ele>
        <time>2023-07-17T14:07:26.000Z</time>
      </trkpt>
      <trkpt lat="42.41687" lon="2.22252">
        <ele>2507.8000488281</ele>
        <time>2023-07-17T14:07:28.000Z</time>
      </trkpt>
      <trkpt lat="42.41687" lon="2.22245">
        <ele>2508.6000976562</ele>
        <time>2023-07-17T14:07:35.000Z</time>
      </trkpt>
      <trkpt lat="42.41687" lon="2.22243">
        <ele>2508.8000488281</ele>
        <time>2023-07-17T14:07:36.000Z</time>
      </trkpt>
      <trkpt lat="42.41687" lon="2.22236">
        <ele>2509.8000488281</ele>
        <time>2023-07-17T14:07:41.000Z</time>
      </trkpt>
      <trkpt lat="42.41687" lon="2.22235">
        <ele>2510</ele>
        <time>2023-07-17T14:07:42.000Z</time>
      </trkpt>
      <trkpt lat="42.41686" lon="2.22229">
        <ele>2511.1999511719</ele>
        <time>2023-07-17T14:07:48.000Z</time>
      </trkpt>
      <trkpt lat="42.41687" lon="2.22225">
        <ele>2511.8000488281</ele>
        <time>2023-07-17T14:07:51.000Z</time>
      </trkpt>
      <trkpt lat="42.41687" lon="2.22224">
        <ele>2512.1999511719</ele>
        <time>2023-07-17T14:07:52.000Z</time>
      </trkpt>
      <trkpt lat="42.41687" lon="2.2222">
        <ele>2513.1999511719</ele>
        <time>2023-07-17T14:07:57.000Z</time>
      </trkpt>
      <trkpt lat="42.41687" lon="2.22219">
        <ele>2513.6000976562</ele>
        <time>2023-07-17T14:07:58.000Z</time>
      </trkpt>
      <trkpt lat="42.41686" lon="2.22217">
        <ele>2514.6000976562</ele>
        <time>2023-07-17T14:08:02.000Z</time>
      </trkpt>
      <trkpt lat="42.41687" lon="2.22213">
        <ele>2515.3999023438</ele>
        <time>2023-07-17T14:08:06.000Z</time>
      </trkpt>
      <trkpt lat="42.41687" lon="2.22212">
        <ele>2515.6000976562</ele>
        <time>2023-07-17T14:08:07.000Z</time>
      </trkpt>
      <trkpt lat="42.41689" lon="2.22209">
        <ele>2516.3999023438</ele>
        <time>2023-07-17T14:08:14.000Z</time>
      </trkpt>
      <trkpt lat="42.4169" lon="2.22208">
        <ele>2516.6000976562</ele>
        <time>2023-07-17T14:08:19.000Z</time>
      </trkpt>
      <trkpt lat="42.4169" lon="2.22206">
        <ele>2516.8000488281</ele>
        <time>2023-07-17T14:08:21.000Z</time>
      </trkpt>
      <trkpt lat="42.41693" lon="2.22203">
        <ele>2517.3999023438</ele>
        <time>2023-07-17T14:08:29.000Z</time>
      </trkpt>
      <trkpt lat="42.41691" lon="2.22203">
        <ele>2517.8000488281</ele>
        <time>2023-07-17T14:08:32.000Z</time>
      </trkpt>
      <trkpt lat="42.41689" lon="2.22201">
        <ele>2518.1999511719</ele>
        <time>2023-07-17T14:08:36.000Z</time>
      </trkpt>
      <trkpt lat="42.41686" lon="2.22198">
        <ele>2518.8000488281</ele>
        <time>2023-07-17T14:08:43.000Z</time>
      </trkpt>
      <trkpt lat="42.41683" lon="2.22194">
        <ele>2519.3999023438</ele>
        <time>2023-07-17T14:08:49.000Z</time>
      </trkpt>
      <trkpt lat="42.41682" lon="2.22193">
        <ele>2519.8000488281</ele>
        <time>2023-07-17T14:08:54.000Z</time>
      </trkpt>
      <trkpt lat="42.4168" lon="2.22193">
        <ele>2520.6000976562</ele>
        <time>2023-07-17T14:08:58.000Z</time>
      </trkpt>
      <trkpt lat="42.41678" lon="2.22192">
        <ele>2520.8000488281</ele>
        <time>2023-07-17T14:09:00.000Z</time>
      </trkpt>
      <trkpt lat="42.41673" lon="2.2219">
        <ele>2521.3999023438</ele>
        <time>2023-07-17T14:09:05.000Z</time>
      </trkpt>
      <trkpt lat="42.41673" lon="2.22191">
        <ele>2522</ele>
        <time>2023-07-17T14:09:10.000Z</time>
      </trkpt>
      <trkpt lat="42.41673" lon="2.22191">
        <ele>2522.1999511719</ele>
        <time>2023-07-17T14:09:12.000Z</time>
      </trkpt>
      <trkpt lat="42.41672" lon="2.22188">
        <ele>2523</ele>
        <time>2023-07-17T14:09:18.000Z</time>
      </trkpt>
      <trkpt lat="42.41672" lon="2.22188">
        <ele>2523.1999511719</ele>
        <time>2023-07-17T14:09:19.000Z</time>
      </trkpt>
      <trkpt lat="42.4167" lon="2.22184">
        <ele>2524.1999511719</ele>
        <time>2023-07-17T14:09:24.000Z</time>
      </trkpt>
      <trkpt lat="42.41668" lon="2.22183">
        <ele>2524.6000976562</ele>
        <time>2023-07-17T14:09:27.000Z</time>
      </trkpt>
      <trkpt lat="42.41665" lon="2.2218">
        <ele>2525.1999511719</ele>
        <time>2023-07-17T14:09:34.000Z</time>
      </trkpt>
      <trkpt lat="42.41662" lon="2.22173">
        <ele>2525.1999511719</ele>
        <time>2023-07-17T14:09:42.000Z</time>
      </trkpt>
      <trkpt lat="42.41662" lon="2.22166">
        <ele>2525.3999023438</ele>
        <time>2023-07-17T14:09:49.000Z</time>
      </trkpt>
      <trkpt lat="42.41659" lon="2.22162">
        <ele>2526.3999023438</ele>
        <time>2023-07-17T14:09:55.000Z</time>
      </trkpt>
      <trkpt lat="42.41659" lon="2.22162">
        <ele>2527</ele>
        <time>2023-07-17T14:09:57.000Z</time>
      </trkpt>
      <trkpt lat="42.41659" lon="2.2216">
        <ele>2527.8000488281</ele>
        <time>2023-07-17T14:09:59.000Z</time>
      </trkpt>
      <trkpt lat="42.41657" lon="2.22158">
        <ele>2528.8000488281</ele>
        <time>2023-07-17T14:10:04.000Z</time>
      </trkpt>
      <trkpt lat="42.41657" lon="2.22156">
        <ele>2529</ele>
        <time>2023-07-17T14:10:05.000Z</time>
      </trkpt>
      <trkpt lat="42.41657" lon="2.22155">
        <ele>2529.8000488281</ele>
        <time>2023-07-17T14:10:07.000Z</time>
      </trkpt>
      <trkpt lat="42.41656" lon="2.2215">
        <ele>2531</ele>
        <time>2023-07-17T14:10:13.000Z</time>
      </trkpt>
      <trkpt lat="42.41655" lon="2.22145">
        <ele>2532.1999511719</ele>
        <time>2023-07-17T14:10:20.000Z</time>
      </trkpt>
      <trkpt lat="42.41654" lon="2.22141">
        <ele>2533.3999023438</ele>
        <time>2023-07-17T14:10:25.000Z</time>
      </trkpt>
      <trkpt lat="42.41654" lon="2.22139">
        <ele>2534.3999023438</ele>
        <time>2023-07-17T14:10:28.000Z</time>
      </trkpt>
      <trkpt lat="42.41653" lon="2.22138">
        <ele>2534.6000976562</ele>
        <time>2023-07-17T14:10:29.000Z</time>
      </trkpt>
      <trkpt lat="42.41651" lon="2.22131">
        <ele>2535.6000976562</ele>
        <time>2023-07-17T14:10:34.000Z</time>
      </trkpt>
      <trkpt lat="42.41651" lon="2.2213">
        <ele>2535.6000976562</ele>
        <time>2023-07-17T14:10:35.000Z</time>
      </trkpt>
      <trkpt lat="42.41651" lon="2.22128">
        <ele>2536.1999511719</ele>
        <time>2023-07-17T14:10:40.000Z</time>
      </trkpt>
      <trkpt lat="42.4165" lon="2.22127">
        <ele>2537.1999511719</ele>
        <time>2023-07-17T14:10:42.000Z</time>
      </trkpt>
      <trkpt lat="42.41649" lon="2.22122">
        <ele>2538</ele>
        <time>2023-07-17T14:10:47.000Z</time>
      </trkpt>
      <trkpt lat="42.41649" lon="2.22117">
        <ele>2538.1999511719</ele>
        <time>2023-07-17T14:10:54.000Z</time>
      </trkpt>
      <trkpt lat="42.41649" lon="2.22112">
        <ele>2539.1999511719</ele>
        <time>2023-07-17T14:11:01.000Z</time>
      </trkpt>
      <trkpt lat="42.41649" lon="2.22112">
        <ele>2539.1999511719</ele>
        <time>2023-07-17T14:11:02.000Z</time>
      </trkpt>
      <trkpt lat="42.41648" lon="2.22106">
        <ele>2539.8000488281</ele>
        <time>2023-07-17T14:11:08.000Z</time>
      </trkpt>
      <trkpt lat="42.41648" lon="2.22101">
        <ele>2539.1999511719</ele>
        <time>2023-07-17T14:11:15.000Z</time>
      </trkpt>
      <trkpt lat="42.41646" lon="2.22094">
        <ele>2539</ele>
        <time>2023-07-17T14:11:23.000Z</time>
      </trkpt>
      <trkpt lat="42.41646" lon="2.22089">
        <ele>2540.3999023438</ele>
        <time>2023-07-17T14:11:29.000Z</time>
      </trkpt>
      <trkpt lat="42.41645" lon="2.22085">
        <ele>2540.8000488281</ele>
        <time>2023-07-17T14:11:32.000Z</time>
      </trkpt>
      <trkpt lat="42.41645" lon="2.22081">
        <ele>2541.3999023438</ele>
        <time>2023-07-17T14:11:37.000Z</time>
      </trkpt>
      <trkpt lat="42.41645" lon="2.22079">
        <ele>2541.8000488281</ele>
        <time>2023-07-17T14:11:40.000Z</time>
      </trkpt>
      <trkpt lat="42.41644" lon="2.22076">
        <ele>2542.3999023438</ele>
        <time>2023-07-17T14:11:42.000Z</time>
      </trkpt>
      <trkpt lat="42.41644" lon="2.22072">
        <ele>2543</ele>
        <time>2023-07-17T14:11:47.000Z</time>
      </trkpt>
      <trkpt lat="42.41645" lon="2.22068">
        <ele>2543.6000976562</ele>
        <time>2023-07-17T14:11:51.000Z</time>
      </trkpt>
      <trkpt lat="42.41645" lon="2.22061">
        <ele>2544.3999023438</ele>
        <time>2023-07-17T14:11:56.000Z</time>
      </trkpt>
      <trkpt lat="42.41645" lon="2.2206">
        <ele>2544.6000976562</ele>
        <time>2023-07-17T14:11:57.000Z</time>
      </trkpt>
      <trkpt lat="42.41645" lon="2.22056">
        <ele>2545.8000488281</ele>
        <time>2023-07-17T14:12:03.000Z</time>
      </trkpt>
      <trkpt lat="42.41645" lon="2.22055">
        <ele>2545.8000488281</ele>
        <time>2023-07-17T14:12:04.000Z</time>
      </trkpt>
      <trkpt lat="42.41645" lon="2.22051">
        <ele>2546.8000488281</ele>
        <time>2023-07-17T14:12:10.000Z</time>
      </trkpt>
      <trkpt lat="42.41646" lon="2.22051">
        <ele>2546.8000488281</ele>
        <time>2023-07-17T14:12:11.000Z</time>
      </trkpt>
      <trkpt lat="42.41648" lon="2.22045">
        <ele>2547.3999023438</ele>
        <time>2023-07-17T14:12:15.000Z</time>
      </trkpt>
      <trkpt lat="42.41649" lon="2.22038">
        <ele>2547.8000488281</ele>
        <time>2023-07-17T14:12:22.000Z</time>
      </trkpt>
      <trkpt lat="42.41648" lon="2.22038">
        <ele>2548</ele>
        <time>2023-07-17T14:12:23.000Z</time>
      </trkpt>
      <trkpt lat="42.4165" lon="2.22033">
        <ele>2548.3999023438</ele>
        <time>2023-07-17T14:12:29.000Z</time>
      </trkpt>
      <trkpt lat="42.4165" lon="2.22028">
        <ele>2549</ele>
        <time>2023-07-17T14:12:34.000Z</time>
      </trkpt>
      <trkpt lat="42.4165" lon="2.22027">
        <ele>2549</ele>
        <time>2023-07-17T14:12:35.000Z</time>
      </trkpt>
      <trkpt lat="42.41652" lon="2.22019">
        <ele>2550.1999511719</ele>
        <time>2023-07-17T14:12:43.000Z</time>
      </trkpt>
      <trkpt lat="42.41652" lon="2.22015">
        <ele>2550.8000488281</ele>
        <time>2023-07-17T14:12:50.000Z</time>
      </trkpt>
      <trkpt lat="42.41652" lon="2.22013">
        <ele>2551.1999511719</ele>
        <time>2023-07-17T14:12:53.000Z</time>
      </trkpt>
      <trkpt lat="42.41652" lon="2.22009">
        <ele>2551.6000976562</ele>
        <time>2023-07-17T14:12:57.000Z</time>
      </trkpt>
      <trkpt lat="42.41652" lon="2.22001">
        <ele>2552</ele>
        <time>2023-07-17T14:13:04.000Z</time>
      </trkpt>
      <trkpt lat="42.41653" lon="2.21998">
        <ele>2552.1999511719</ele>
        <time>2023-07-17T14:13:08.000Z</time>
      </trkpt>
      <trkpt lat="42.41653" lon="2.21996">
        <ele>2552.3999023438</ele>
        <time>2023-07-17T14:13:11.000Z</time>
      </trkpt>
      <trkpt lat="42.41652" lon="2.21991">
        <ele>2553</ele>
        <time>2023-07-17T14:13:17.000Z</time>
      </trkpt>
      <trkpt lat="42.41652" lon="2.21987">
        <ele>2553.1999511719</ele>
        <time>2023-07-17T14:13:20.000Z</time>
      </trkpt>
      <trkpt lat="42.41652" lon="2.21982">
        <ele>2553.3999023438</ele>
        <time>2023-07-17T14:13:24.000Z</time>
      </trkpt>
      <trkpt lat="42.41653" lon="2.21976">
        <ele>2553.6000976562</ele>
        <time>2023-07-17T14:13:30.000Z</time>
      </trkpt>
      <trkpt lat="42.41655" lon="2.2197">
        <ele>2554.3999023438</ele>
        <time>2023-07-17T14:13:36.000Z</time>
      </trkpt>
      <trkpt lat="42.41655" lon="2.21969">
        <ele>2554.8000488281</ele>
        <time>2023-07-17T14:13:37.000Z</time>
      </trkpt>
      <trkpt lat="42.41657" lon="2.21962">
        <ele>2555.6000976562</ele>
        <time>2023-07-17T14:13:45.000Z</time>
      </trkpt>
      <trkpt lat="42.41657" lon="2.21954">
        <ele>2556.8000488281</ele>
        <time>2023-07-17T14:13:52.000Z</time>
      </trkpt>
      <trkpt lat="42.41658" lon="2.2195">
        <ele>2557.8000488281</ele>
        <time>2023-07-17T14:13:58.000Z</time>
      </trkpt>
      <trkpt lat="42.41659" lon="2.21948">
        <ele>2558.1999511719</ele>
        <time>2023-07-17T14:14:00.000Z</time>
      </trkpt>
      <trkpt lat="42.41659" lon="2.21945">
        <ele>2559.1999511719</ele>
        <time>2023-07-17T14:14:04.000Z</time>
      </trkpt>
      <trkpt lat="42.4166" lon="2.21939">
        <ele>2559.6000976562</ele>
        <time>2023-07-17T14:14:08.000Z</time>
      </trkpt>
      <trkpt lat="42.41661" lon="2.21933">
        <ele>2560.1999511719</ele>
        <time>2023-07-17T14:14:15.000Z</time>
      </trkpt>
      <trkpt lat="42.41662" lon="2.21932">
        <ele>2560.6000976562</ele>
        <time>2023-07-17T14:14:17.000Z</time>
      </trkpt>
      <trkpt lat="42.41662" lon="2.21928">
        <ele>2561.1999511719</ele>
        <time>2023-07-17T14:14:22.000Z</time>
      </trkpt>
      <trkpt lat="42.41662" lon="2.21928">
        <ele>2561.6000976562</ele>
        <time>2023-07-17T14:14:24.000Z</time>
      </trkpt>
      <trkpt lat="42.41662" lon="2.21923">
        <ele>2562.3999023438</ele>
        <time>2023-07-17T14:14:30.000Z</time>
      </trkpt>
      <trkpt lat="42.41662" lon="2.21921">
        <ele>2562.6000976562</ele>
        <time>2023-07-17T14:14:32.000Z</time>
      </trkpt>
      <trkpt lat="42.41662" lon="2.21916">
        <ele>2563.1999511719</ele>
        <time>2023-07-17T14:14:39.000Z</time>
      </trkpt>
      <trkpt lat="42.41662" lon="2.21914">
        <ele>2563.6000976562</ele>
        <time>2023-07-17T14:14:41.000Z</time>
      </trkpt>
      <trkpt lat="42.41663" lon="2.21911">
        <ele>2564</ele>
        <time>2023-07-17T14:14:45.000Z</time>
      </trkpt>
      <trkpt lat="42.41664" lon="2.21906">
        <ele>2564.6000976562</ele>
        <time>2023-07-17T14:14:50.000Z</time>
      </trkpt>
      <trkpt lat="42.41665" lon="2.21903">
        <ele>2565</ele>
        <time>2023-07-17T14:14:53.000Z</time>
      </trkpt>
      <trkpt lat="42.41666" lon="2.219">
        <ele>2565.8000488281</ele>
        <time>2023-07-17T14:14:59.000Z</time>
      </trkpt>
      <trkpt lat="42.41666" lon="2.219">
        <ele>2565.8000488281</ele>
        <time>2023-07-17T14:15:00.000Z</time>
      </trkpt>
      <trkpt lat="42.41666" lon="2.21898">
        <ele>2566</ele>
        <time>2023-07-17T14:15:06.000Z</time>
      </trkpt>
      <trkpt lat="42.41666" lon="2.21898">
        <ele>2566</ele>
        <time>2023-07-17T14:15:14.000Z</time>
      </trkpt>
      <trkpt lat="42.41669" lon="2.21899">
        <ele>2565.8000488281</ele>
        <time>2023-07-17T14:15:23.000Z</time>
      </trkpt>
      <trkpt lat="42.41668" lon="2.21895">
        <ele>2566</ele>
        <time>2023-07-17T14:15:31.000Z</time>
      </trkpt>
      <trkpt lat="42.41668" lon="2.21896">
        <ele>2565.8000488281</ele>
        <time>2023-07-17T14:15:41.000Z</time>
      </trkpt>
      <trkpt lat="42.41668" lon="2.21894">
        <ele>2565.8000488281</ele>
        <time>2023-07-17T14:15:49.000Z</time>
      </trkpt>
      <trkpt lat="42.41666" lon="2.21896">
        <ele>2566</ele>
        <time>2023-07-17T14:15:58.000Z</time>
      </trkpt>
      <trkpt lat="42.41664" lon="2.21896">
        <ele>2566.1999511719</ele>
        <time>2023-07-17T14:16:09.000Z</time>
      </trkpt>
      <trkpt lat="42.41664" lon="2.21896">
        <ele>2566.8000488281</ele>
        <time>2023-07-17T14:16:12.000Z</time>
      </trkpt>
      <trkpt lat="42.41667" lon="2.21891">
        <ele>2567</ele>
        <time>2023-07-17T14:16:17.000Z</time>
      </trkpt>
      <trkpt lat="42.41668" lon="2.21883">
        <ele>2567.6000976562</ele>
        <time>2023-07-17T14:16:25.000Z</time>
      </trkpt>
      <trkpt lat="42.41668" lon="2.21882">
        <ele>2568</ele>
        <time>2023-07-17T14:16:26.000Z</time>
      </trkpt>
      <trkpt lat="42.4167" lon="2.21873">
        <ele>2569</ele>
        <time>2023-07-17T14:16:34.000Z</time>
      </trkpt>
      <trkpt lat="42.4167" lon="2.21871">
        <ele>2569</ele>
        <time>2023-07-17T14:16:35.000Z</time>
      </trkpt>
      <trkpt lat="42.41671" lon="2.21864">
        <ele>2569.3999023438</ele>
        <time>2023-07-17T14:16:41.000Z</time>
      </trkpt>
      <trkpt lat="42.41675" lon="2.21855">
        <ele>2570</ele>
        <time>2023-07-17T14:16:49.000Z</time>
      </trkpt>
      <trkpt lat="42.41675" lon="2.21854">
        <ele>2570</ele>
        <time>2023-07-17T14:16:50.000Z</time>
      </trkpt>
      <trkpt lat="42.41677" lon="2.21846">
        <ele>2570.1999511719</ele>
        <time>2023-07-17T14:16:55.000Z</time>
      </trkpt>
      <trkpt lat="42.41679" lon="2.21836">
        <ele>2570.1999511719</ele>
        <time>2023-07-17T14:17:01.000Z</time>
      </trkpt>
      <trkpt lat="42.4168" lon="2.21825">
        <ele>2570.8000488281</ele>
        <time>2023-07-17T14:17:08.000Z</time>
      </trkpt>
      <trkpt lat="42.41681" lon="2.21819">
        <ele>2571.1999511719</ele>
        <time>2023-07-17T14:17:12.000Z</time>
      </trkpt>
      <trkpt lat="42.41682" lon="2.21817">
        <ele>2571.3999023438</ele>
        <time>2023-07-17T14:17:15.000Z</time>
      </trkpt>
      <trkpt lat="42.41684" lon="2.21804">
        <ele>2571.8000488281</ele>
        <time>2023-07-17T14:17:23.000Z</time>
      </trkpt>
      <trkpt lat="42.41684" lon="2.21801">
        <ele>2572.1999511719</ele>
        <time>2023-07-17T14:17:26.000Z</time>
      </trkpt>
      <trkpt lat="42.41685" lon="2.21798">
        <ele>2572.3999023438</ele>
        <time>2023-07-17T14:17:28.000Z</time>
      </trkpt>
      <trkpt lat="42.41688" lon="2.21791">
        <ele>2573.1999511719</ele>
        <time>2023-07-17T14:17:35.000Z</time>
      </trkpt>
      <trkpt lat="42.41689" lon="2.21784">
        <ele>2573.1999511719</ele>
        <time>2023-07-17T14:17:41.000Z</time>
      </trkpt>
      <trkpt lat="42.41689" lon="2.21783">
        <ele>2573.1999511719</ele>
        <time>2023-07-17T14:17:42.000Z</time>
      </trkpt>
      <trkpt lat="42.4169" lon="2.21773">
        <ele>2573.8000488281</ele>
        <time>2023-07-17T14:17:48.000Z</time>
      </trkpt>
      <trkpt lat="42.41693" lon="2.21766">
        <ele>2574</ele>
        <time>2023-07-17T14:17:54.000Z</time>
      </trkpt>
      <trkpt lat="42.41696" lon="2.21759">
        <ele>2574.1999511719</ele>
        <time>2023-07-17T14:17:59.000Z</time>
      </trkpt>
      <trkpt lat="42.41697" lon="2.21755">
        <ele>2574.3999023438</ele>
        <time>2023-07-17T14:18:01.000Z</time>
      </trkpt>
      <trkpt lat="42.41699" lon="2.21744">
        <ele>2574.3999023438</ele>
        <time>2023-07-17T14:18:08.000Z</time>
      </trkpt>
      <trkpt lat="42.41699" lon="2.21736">
        <ele>2574.3999023438</ele>
        <time>2023-07-17T14:18:14.000Z</time>
      </trkpt>
      <trkpt lat="42.41699" lon="2.21728">
        <ele>2574.8000488281</ele>
        <time>2023-07-17T14:18:19.000Z</time>
      </trkpt>
      <trkpt lat="42.41703" lon="2.21716">
        <ele>2575</ele>
        <time>2023-07-17T14:18:26.000Z</time>
      </trkpt>
      <trkpt lat="42.41705" lon="2.21709">
        <ele>2575.3999023438</ele>
        <time>2023-07-17T14:18:32.000Z</time>
      </trkpt>
      <trkpt lat="42.41706" lon="2.21703">
        <ele>2576</ele>
        <time>2023-07-17T14:18:37.000Z</time>
      </trkpt>
      <trkpt lat="42.41708" lon="2.21697">
        <ele>2576.3999023438</ele>
        <time>2023-07-17T14:18:41.000Z</time>
      </trkpt>
      <trkpt lat="42.41708" lon="2.21691">
        <ele>2576.8000488281</ele>
        <time>2023-07-17T14:18:48.000Z</time>
      </trkpt>
      <trkpt lat="42.41708" lon="2.21686">
        <ele>2577.3999023438</ele>
        <time>2023-07-17T14:18:52.000Z</time>
      </trkpt>
      <trkpt lat="42.41709" lon="2.21684">
        <ele>2577.8000488281</ele>
        <time>2023-07-17T14:18:55.000Z</time>
      </trkpt>
      <trkpt lat="42.41709" lon="2.21678">
        <ele>2578.6000976562</ele>
        <time>2023-07-17T14:19:02.000Z</time>
      </trkpt>
      <trkpt lat="42.41711" lon="2.21672">
        <ele>2579.3999023438</ele>
        <time>2023-07-17T14:19:10.000Z</time>
      </trkpt>
      <trkpt lat="42.4171" lon="2.21672">
        <ele>2579.6000976562</ele>
        <time>2023-07-17T14:19:11.000Z</time>
      </trkpt>
      <trkpt lat="42.41711" lon="2.21668">
        <ele>2580.1999511719</ele>
        <time>2023-07-17T14:19:18.000Z</time>
      </trkpt>
      <trkpt lat="42.41711" lon="2.21667">
        <ele>2580.6000976562</ele>
        <time>2023-07-17T14:19:21.000Z</time>
      </trkpt>
      <trkpt lat="42.41713" lon="2.21661">
        <ele>2581.3999023438</ele>
        <time>2023-07-17T14:19:28.000Z</time>
      </trkpt>
      <trkpt lat="42.41712" lon="2.2166">
        <ele>2581.8000488281</ele>
        <time>2023-07-17T14:19:30.000Z</time>
      </trkpt>
      <trkpt lat="42.41713" lon="2.21659">
        <ele>2582.8000488281</ele>
        <time>2023-07-17T14:19:35.000Z</time>
      </trkpt>
      <trkpt lat="42.41713" lon="2.21658">
        <ele>2583.1999511719</ele>
        <time>2023-07-17T14:19:36.000Z</time>
      </trkpt>
      <trkpt lat="42.41711" lon="2.21652">
        <ele>2583.8000488281</ele>
        <time>2023-07-17T14:19:43.000Z</time>
      </trkpt>
      <trkpt lat="42.41711" lon="2.2165">
        <ele>2584</ele>
        <time>2023-07-17T14:19:44.000Z</time>
      </trkpt>
      <trkpt lat="42.4171" lon="2.21645">
        <ele>2584.8000488281</ele>
        <time>2023-07-17T14:19:51.000Z</time>
      </trkpt>
      <trkpt lat="42.4171" lon="2.21645">
        <ele>2585</ele>
        <time>2023-07-17T14:19:52.000Z</time>
      </trkpt>
      <trkpt lat="42.41708" lon="2.21637">
        <ele>2585.1999511719</ele>
        <time>2023-07-17T14:20:00.000Z</time>
      </trkpt>
      <trkpt lat="42.41708" lon="2.21633">
        <ele>2586</ele>
        <time>2023-07-17T14:20:05.000Z</time>
      </trkpt>
      <trkpt lat="42.41707" lon="2.21631">
        <ele>2586.1999511719</ele>
        <time>2023-07-17T14:20:08.000Z</time>
      </trkpt>
      <trkpt lat="42.41707" lon="2.21625">
        <ele>2586.8000488281</ele>
        <time>2023-07-17T14:20:14.000Z</time>
      </trkpt>
      <trkpt lat="42.41708" lon="2.2162">
        <ele>2587</ele>
        <time>2023-07-17T14:20:18.000Z</time>
      </trkpt>
      <trkpt lat="42.41707" lon="2.21617">
        <ele>2587.3999023438</ele>
        <time>2023-07-17T14:20:21.000Z</time>
      </trkpt>
      <trkpt lat="42.41707" lon="2.21607">
        <ele>2588</ele>
        <time>2023-07-17T14:20:30.000Z</time>
      </trkpt>
      <trkpt lat="42.41707" lon="2.21603">
        <ele>2588</ele>
        <time>2023-07-17T14:20:31.000Z</time>
      </trkpt>
      <trkpt lat="42.41709" lon="2.21597">
        <ele>2588.8000488281</ele>
        <time>2023-07-17T14:20:38.000Z</time>
      </trkpt>
      <trkpt lat="42.41709" lon="2.21598">
        <ele>2589</ele>
        <time>2023-07-17T14:20:41.000Z</time>
      </trkpt>
      <trkpt lat="42.41709" lon="2.21598">
        <ele>2589.1999511719</ele>
        <time>2023-07-17T14:20:42.000Z</time>
      </trkpt>
      <trkpt lat="42.41709" lon="2.21598">
        <ele>2589.1999511719</ele>
        <time>2023-07-17T14:20:43.000Z</time>
      </trkpt>
      <trkpt lat="42.41709" lon="2.21597">
        <ele>2589.1999511719</ele>
        <time>2023-07-17T14:20:44.000Z</time>
      </trkpt>
      <trkpt lat="42.41713" lon="2.21588">
        <ele>2589.8000488281</ele>
        <time>2023-07-17T14:20:53.000Z</time>
      </trkpt>
      <trkpt lat="42.41713" lon="2.21586">
        <ele>2590.1999511719</ele>
        <time>2023-07-17T14:20:56.000Z</time>
      </trkpt>
      <trkpt lat="42.41713" lon="2.21583">
        <ele>2590.6000976562</ele>
        <time>2023-07-17T14:20:59.000Z</time>
      </trkpt>
      <trkpt lat="42.41718" lon="2.21574">
        <ele>2590.6000976562</ele>
        <time>2023-07-17T14:21:07.000Z</time>
      </trkpt>
      <trkpt lat="42.41723" lon="2.21567">
        <ele>2591</ele>
        <time>2023-07-17T14:21:14.000Z</time>
      </trkpt>
      <trkpt lat="42.41726" lon="2.21559">
        <ele>2591.3999023438</ele>
        <time>2023-07-17T14:21:21.000Z</time>
      </trkpt>
      <trkpt lat="42.41727" lon="2.21557">
        <ele>2591.6000976562</ele>
        <time>2023-07-17T14:21:22.000Z</time>
      </trkpt>
      <trkpt lat="42.41727" lon="2.21555">
        <ele>2591.8000488281</ele>
        <time>2023-07-17T14:21:28.000Z</time>
      </trkpt>
      <trkpt lat="42.41727" lon="2.21556">
        <ele>2591.8000488281</ele>
        <time>2023-07-17T14:21:29.000Z</time>
      </trkpt>
      <trkpt lat="42.41725" lon="2.21555">
        <ele>2591.6000976562</ele>
        <time>2023-07-17T14:21:32.000Z</time>
      </trkpt>
      <trkpt lat="42.41725" lon="2.21554">
        <ele>2591.6000976562</ele>
        <time>2023-07-17T14:21:37.000Z</time>
      </trkpt>
      <trkpt lat="42.41722" lon="2.21553">
        <ele>2591.6000976562</ele>
        <time>2023-07-17T14:21:44.000Z</time>
      </trkpt>
      <trkpt lat="42.41724" lon="2.21552">
        <ele>2591.8000488281</ele>
        <time>2023-07-17T14:21:53.000Z</time>
      </trkpt>
      <trkpt lat="42.41726" lon="2.21554">
        <ele>2592.3999023438</ele>
        <time>2023-07-17T14:21:57.000Z</time>
      </trkpt>
      <trkpt lat="42.41726" lon="2.21551">
        <ele>2592.8000488281</ele>
        <time>2023-07-17T14:22:00.000Z</time>
      </trkpt>
      <trkpt lat="42.41726" lon="2.21545">
        <ele>2593.6000976562</ele>
        <time>2023-07-17T14:22:05.000Z</time>
      </trkpt>
      <trkpt lat="42.41726" lon="2.21541">
        <ele>2594.6000976562</ele>
        <time>2023-07-17T14:22:10.000Z</time>
      </trkpt>
      <trkpt lat="42.41725" lon="2.21539">
        <ele>2595.6000976562</ele>
        <time>2023-07-17T14:22:14.000Z</time>
      </trkpt>
      <trkpt lat="42.41723" lon="2.21536">
        <ele>2596.8000488281</ele>
        <time>2023-07-17T14:22:18.000Z</time>
      </trkpt>
      <trkpt lat="42.41723" lon="2.21536">
        <ele>2597</ele>
        <time>2023-07-17T14:22:19.000Z</time>
      </trkpt>
      <trkpt lat="42.41723" lon="2.21533">
        <ele>2598.1999511719</ele>
        <time>2023-07-17T14:22:22.000Z</time>
      </trkpt>
      <trkpt lat="42.41721" lon="2.21529">
        <ele>2598.8000488281</ele>
        <time>2023-07-17T14:22:26.000Z</time>
      </trkpt>
      <trkpt lat="42.4172" lon="2.21526">
        <ele>2599.1999511719</ele>
        <time>2023-07-17T14:22:32.000Z</time>
      </trkpt>
      <trkpt lat="42.4172" lon="2.21525">
        <ele>2599.3999023438</ele>
        <time>2023-07-17T14:22:33.000Z</time>
      </trkpt>
      <trkpt lat="42.41715" lon="2.21517">
        <ele>2600.1999511719</ele>
        <time>2023-07-17T14:22:42.000Z</time>
      </trkpt>
      <trkpt lat="42.41715" lon="2.21516">
        <ele>2600.3999023438</ele>
        <time>2023-07-17T14:22:43.000Z</time>
      </trkpt>
      <trkpt lat="42.41716" lon="2.21511">
        <ele>2601</ele>
        <time>2023-07-17T14:22:48.000Z</time>
      </trkpt>
      <trkpt lat="42.41714" lon="2.21505">
        <ele>2601.3999023438</ele>
        <time>2023-07-17T14:22:53.000Z</time>
      </trkpt>
      <trkpt lat="42.41714" lon="2.21504">
        <ele>2601.3999023438</ele>
        <time>2023-07-17T14:22:54.000Z</time>
      </trkpt>
      <trkpt lat="42.41712" lon="2.21491">
        <ele>2602</ele>
        <time>2023-07-17T14:23:02.000Z</time>
      </trkpt>
      <trkpt lat="42.41712" lon="2.2149">
        <ele>2602.6000976562</ele>
        <time>2023-07-17T14:23:04.000Z</time>
      </trkpt>
      <trkpt lat="42.41712" lon="2.21484">
        <ele>2603.6000976562</ele>
        <time>2023-07-17T14:23:09.000Z</time>
      </trkpt>
      <trkpt lat="42.41714" lon="2.21477">
        <ele>2604.6000976562</ele>
        <time>2023-07-17T14:23:18.000Z</time>
      </trkpt>
      <trkpt lat="42.41715" lon="2.21474">
        <ele>2604.6000976562</ele>
        <time>2023-07-17T14:23:19.000Z</time>
      </trkpt>
      <trkpt lat="42.41714" lon="2.21472">
        <ele>2605.6000976562</ele>
        <time>2023-07-17T14:23:26.000Z</time>
      </trkpt>
      <trkpt lat="42.41714" lon="2.2147">
        <ele>2605.8000488281</ele>
        <time>2023-07-17T14:23:28.000Z</time>
      </trkpt>
      <trkpt lat="42.41712" lon="2.21464">
        <ele>2606.3999023438</ele>
        <time>2023-07-17T14:23:34.000Z</time>
      </trkpt>
      <trkpt lat="42.41711" lon="2.21458">
        <ele>2606.8000488281</ele>
        <time>2023-07-17T14:23:38.000Z</time>
      </trkpt>
      <trkpt lat="42.4171" lon="2.21454">
        <ele>2607.3999023438</ele>
        <time>2023-07-17T14:23:43.000Z</time>
      </trkpt>
      <trkpt lat="42.41712" lon="2.21449">
        <ele>2608</ele>
        <time>2023-07-17T14:23:49.000Z</time>
      </trkpt>
      <trkpt lat="42.41713" lon="2.21447">
        <ele>2608.1999511719</ele>
        <time>2023-07-17T14:23:51.000Z</time>
      </trkpt>
      <trkpt lat="42.41712" lon="2.21437">
        <ele>2608.6000976562</ele>
        <time>2023-07-17T14:24:00.000Z</time>
      </trkpt>
      <trkpt lat="42.41712" lon="2.21429">
        <ele>2609</ele>
        <time>2023-07-17T14:24:05.000Z</time>
      </trkpt>
      <trkpt lat="42.41712" lon="2.21423">
        <ele>2609.1999511719</ele>
        <time>2023-07-17T14:24:09.000Z</time>
      </trkpt>
      <trkpt lat="42.41716" lon="2.21415">
        <ele>2610</ele>
        <time>2023-07-17T14:24:17.000Z</time>
      </trkpt>
      <trkpt lat="42.41716" lon="2.21415">
        <ele>2611.1999511719</ele>
        <time>2023-07-17T14:24:26.000Z</time>
      </trkpt>
      <trkpt lat="42.41716" lon="2.21415">
        <ele>2611.3999023438</ele>
        <time>2023-07-17T14:24:27.000Z</time>
      </trkpt>
      <trkpt lat="42.41718" lon="2.21414">
        <ele>2611.8000488281</ele>
        <time>2023-07-17T14:24:33.000Z</time>
      </trkpt>
      <trkpt lat="42.41719" lon="2.21411">
        <ele>2612.3999023438</ele>
        <time>2023-07-17T14:24:36.000Z</time>
      </trkpt>
      <trkpt lat="42.41718" lon="2.21408">
        <ele>2612.8000488281</ele>
        <time>2023-07-17T14:24:40.000Z</time>
      </trkpt>
      <trkpt lat="42.41717" lon="2.21403">
        <ele>2613.3999023438</ele>
        <time>2023-07-17T14:24:45.000Z</time>
      </trkpt>
      <trkpt lat="42.41719" lon="2.21401">
        <ele>2613.6000976562</ele>
        <time>2023-07-17T14:24:50.000Z</time>
      </trkpt>
      <trkpt lat="42.4172" lon="2.21398">
        <ele>2614.3999023438</ele>
        <time>2023-07-17T14:24:57.000Z</time>
      </trkpt>
      <trkpt lat="42.4172" lon="2.21397">
        <ele>2614.6000976562</ele>
        <time>2023-07-17T14:24:58.000Z</time>
      </trkpt>
      <trkpt lat="42.41721" lon="2.21392">
        <ele>2615.3999023438</ele>
        <time>2023-07-17T14:25:04.000Z</time>
      </trkpt>
      <trkpt lat="42.41722" lon="2.2139">
        <ele>2615.8000488281</ele>
        <time>2023-07-17T14:25:08.000Z</time>
      </trkpt>
      <trkpt lat="42.41721" lon="2.21386">
        <ele>2616.3999023438</ele>
        <time>2023-07-17T14:25:14.000Z</time>
      </trkpt>
      <trkpt lat="42.41721" lon="2.21385">
        <ele>2616.6000976562</ele>
        <time>2023-07-17T14:25:15.000Z</time>
      </trkpt>
      <trkpt lat="42.41719" lon="2.2138">
        <ele>2617.3999023438</ele>
        <time>2023-07-17T14:25:20.000Z</time>
      </trkpt>
      <trkpt lat="42.41718" lon="2.21379">
        <ele>2617.6000976562</ele>
        <time>2023-07-17T14:25:22.000Z</time>
      </trkpt>
      <trkpt lat="42.41719" lon="2.21376">
        <ele>2618.1999511719</ele>
        <time>2023-07-17T14:25:28.000Z</time>
      </trkpt>
      <trkpt lat="42.4172" lon="2.21376">
        <ele>2618.6000976562</ele>
        <time>2023-07-17T14:25:30.000Z</time>
      </trkpt>
      <trkpt lat="42.41723" lon="2.21375">
        <ele>2619.6000976562</ele>
        <time>2023-07-17T14:25:36.000Z</time>
      </trkpt>
      <trkpt lat="42.41723" lon="2.21375">
        <ele>2619.8000488281</ele>
        <time>2023-07-17T14:25:37.000Z</time>
      </trkpt>
      <trkpt lat="42.41727" lon="2.21371">
        <ele>2620.3999023438</ele>
        <time>2023-07-17T14:25:43.000Z</time>
      </trkpt>
      <trkpt lat="42.41728" lon="2.21371">
        <ele>2620.8000488281</ele>
        <time>2023-07-17T14:25:46.000Z</time>
      </trkpt>
      <trkpt lat="42.41728" lon="2.2137">
        <ele>2621.1999511719</ele>
        <time>2023-07-17T14:25:49.000Z</time>
      </trkpt>
      <trkpt lat="42.41728" lon="2.21369">
        <ele>2621.8000488281</ele>
        <time>2023-07-17T14:25:52.000Z</time>
      </trkpt>
      <trkpt lat="42.41727" lon="2.21367">
        <ele>2622.1999511719</ele>
        <time>2023-07-17T14:25:55.000Z</time>
      </trkpt>
      <trkpt lat="42.41726" lon="2.21366">
        <ele>2622.3999023438</ele>
        <time>2023-07-17T14:25:57.000Z</time>
      </trkpt>
      <trkpt lat="42.41724" lon="2.21368">
        <ele>2622.8000488281</ele>
        <time>2023-07-17T14:26:02.000Z</time>
      </trkpt>
      <trkpt lat="42.41724" lon="2.21369">
        <ele>2622.8000488281</ele>
        <time>2023-07-17T14:26:03.000Z</time>
      </trkpt>
      <trkpt lat="42.41724" lon="2.21369">
        <ele>2622.8000488281</ele>
        <time>2023-07-17T14:26:08.000Z</time>
      </trkpt>
      <trkpt lat="42.41726" lon="2.21368">
        <ele>2622.8000488281</ele>
        <time>2023-07-17T14:26:10.000Z</time>
      </trkpt>
      <trkpt lat="42.41726" lon="2.21367">
        <ele>2622.8000488281</ele>
        <time>2023-07-17T14:26:11.000Z</time>
      </trkpt>
      <trkpt lat="42.41728" lon="2.21367">
        <ele>2622.8000488281</ele>
        <time>2023-07-17T14:26:13.000Z</time>
      </trkpt>
      <trkpt lat="42.41726" lon="2.21366">
        <ele>2622.8000488281</ele>
        <time>2023-07-17T14:26:17.000Z</time>
      </trkpt>
      <trkpt lat="42.41725" lon="2.21366">
        <ele>2623</ele>
        <time>2023-07-17T14:26:19.000Z</time>
      </trkpt>
      <trkpt lat="42.41727" lon="2.21361">
        <ele>2623.1999511719</ele>
        <time>2023-07-17T14:26:29.000Z</time>
      </trkpt>
      <trkpt lat="42.41726" lon="2.21354">
        <ele>2623.6000976562</ele>
        <time>2023-07-17T14:26:35.000Z</time>
      </trkpt>
      <trkpt lat="42.41726" lon="2.21348">
        <ele>2623.8000488281</ele>
        <time>2023-07-17T14:26:41.000Z</time>
      </trkpt>
      <trkpt lat="42.41726" lon="2.21347">
        <ele>2624</ele>
        <time>2023-07-17T14:26:42.000Z</time>
      </trkpt>
      <trkpt lat="42.41726" lon="2.21337">
        <ele>2624.8000488281</ele>
        <time>2023-07-17T14:26:50.000Z</time>
      </trkpt>
      <trkpt lat="42.41727" lon="2.21336">
        <ele>2625</ele>
        <time>2023-07-17T14:26:52.000Z</time>
      </trkpt>
      <trkpt lat="42.41728" lon="2.21326">
        <ele>2625.8000488281</ele>
        <time>2023-07-17T14:27:00.000Z</time>
      </trkpt>
      <trkpt lat="42.41727" lon="2.21322">
        <ele>2626</ele>
        <time>2023-07-17T14:27:03.000Z</time>
      </trkpt>
      <trkpt lat="42.41727" lon="2.21318">
        <ele>2627</ele>
        <time>2023-07-17T14:27:05.000Z</time>
      </trkpt>
      <trkpt lat="42.41727" lon="2.21315">
        <ele>2627.1999511719</ele>
        <time>2023-07-17T14:27:07.000Z</time>
      </trkpt>
      <trkpt lat="42.41728" lon="2.21307">
        <ele>2628.1999511719</ele>
        <time>2023-07-17T14:27:14.000Z</time>
      </trkpt>
      <trkpt lat="42.41728" lon="2.21306">
        <ele>2628.1999511719</ele>
        <time>2023-07-17T14:27:15.000Z</time>
      </trkpt>
      <trkpt lat="42.41729" lon="2.21301">
        <ele>2628.6000976562</ele>
        <time>2023-07-17T14:27:19.000Z</time>
      </trkpt>
      <trkpt lat="42.4173" lon="2.21297">
        <ele>2628.8000488281</ele>
        <time>2023-07-17T14:27:22.000Z</time>
      </trkpt>
      <trkpt lat="42.41732" lon="2.21291">
        <ele>2629.3999023438</ele>
        <time>2023-07-17T14:27:27.000Z</time>
      </trkpt>
      <trkpt lat="42.41731" lon="2.21287">
        <ele>2630</ele>
        <time>2023-07-17T14:27:33.000Z</time>
      </trkpt>
      <trkpt lat="42.41731" lon="2.21285">
        <ele>2630.3999023438</ele>
        <time>2023-07-17T14:27:34.000Z</time>
      </trkpt>
      <trkpt lat="42.41732" lon="2.21279">
        <ele>2631.6000976562</ele>
        <time>2023-07-17T14:27:42.000Z</time>
      </trkpt>
      <trkpt lat="42.41735" lon="2.21273">
        <ele>2632.1999511719</ele>
        <time>2023-07-17T14:27:49.000Z</time>
      </trkpt>
      <trkpt lat="42.41737" lon="2.21267">
        <ele>2632.3999023438</ele>
        <time>2023-07-17T14:27:57.000Z</time>
      </trkpt>
      <trkpt lat="42.41738" lon="2.21266">
        <ele>2632.6000976562</ele>
        <time>2023-07-17T14:27:58.000Z</time>
      </trkpt>
      <trkpt lat="42.41739" lon="2.21258">
        <ele>2633.6000976562</ele>
        <time>2023-07-17T14:28:06.000Z</time>
      </trkpt>
      <trkpt lat="42.41739" lon="2.21258">
        <ele>2633.8000488281</ele>
        <time>2023-07-17T14:28:07.000Z</time>
      </trkpt>
      <trkpt lat="42.4174" lon="2.2125">
        <ele>2634</ele>
        <time>2023-07-17T14:28:15.000Z</time>
      </trkpt>
      <trkpt lat="42.41742" lon="2.21238">
        <ele>2634.8000488281</ele>
        <time>2023-07-17T14:28:24.000Z</time>
      </trkpt>
      <trkpt lat="42.41742" lon="2.21237">
        <ele>2635</ele>
        <time>2023-07-17T14:28:25.000Z</time>
      </trkpt>
      <trkpt lat="42.41744" lon="2.21237">
        <ele>2635.8000488281</ele>
        <time>2023-07-17T14:28:29.000Z</time>
      </trkpt>
      <trkpt lat="42.41746" lon="2.21234">
        <ele>2636.6000976562</ele>
        <time>2023-07-17T14:28:35.000Z</time>
      </trkpt>
      <trkpt lat="42.41746" lon="2.21232">
        <ele>2636.8000488281</ele>
        <time>2023-07-17T14:28:37.000Z</time>
      </trkpt>
      <trkpt lat="42.41747" lon="2.21229">
        <ele>2637.8000488281</ele>
        <time>2023-07-17T14:28:43.000Z</time>
      </trkpt>
      <trkpt lat="42.41748" lon="2.21225">
        <ele>2638.3999023438</ele>
        <time>2023-07-17T14:28:47.000Z</time>
      </trkpt>
      <trkpt lat="42.4175" lon="2.21222">
        <ele>2639</ele>
        <time>2023-07-17T14:28:51.000Z</time>
      </trkpt>
      <trkpt lat="42.41751" lon="2.2122">
        <ele>2639.3999023438</ele>
        <time>2023-07-17T14:28:54.000Z</time>
      </trkpt>
      <trkpt lat="42.41752" lon="2.21218">
        <ele>2640</ele>
        <time>2023-07-17T14:28:58.000Z</time>
      </trkpt>
      <trkpt lat="42.41754" lon="2.21218">
        <ele>2640.1999511719</ele>
        <time>2023-07-17T14:29:00.000Z</time>
      </trkpt>
      <trkpt lat="42.41756" lon="2.21214">
        <ele>2641.1999511719</ele>
        <time>2023-07-17T14:29:06.000Z</time>
      </trkpt>
      <trkpt lat="42.41757" lon="2.21209">
        <ele>2641.6000976562</ele>
        <time>2023-07-17T14:29:10.000Z</time>
      </trkpt>
      <trkpt lat="42.41757" lon="2.21205">
        <ele>2642.1999511719</ele>
        <time>2023-07-17T14:29:14.000Z</time>
      </trkpt>
      <trkpt lat="42.41757" lon="2.21203">
        <ele>2642.6000976562</ele>
        <time>2023-07-17T14:29:18.000Z</time>
      </trkpt>
      <trkpt lat="42.41756" lon="2.212">
        <ele>2643.3999023438</ele>
        <time>2023-07-17T14:29:21.000Z</time>
      </trkpt>
      <trkpt lat="42.41757" lon="2.21195">
        <ele>2643.8000488281</ele>
        <time>2023-07-17T14:29:25.000Z</time>
      </trkpt>
      <trkpt lat="42.41758" lon="2.21193">
        <ele>2644.3999023438</ele>
        <time>2023-07-17T14:29:29.000Z</time>
      </trkpt>
      <trkpt lat="42.41759" lon="2.21189">
        <ele>2645</ele>
        <time>2023-07-17T14:29:33.000Z</time>
      </trkpt>
      <trkpt lat="42.41762" lon="2.21181">
        <ele>2645.3999023438</ele>
        <time>2023-07-17T14:29:40.000Z</time>
      </trkpt>
      <trkpt lat="42.41762" lon="2.2118">
        <ele>2645.8000488281</ele>
        <time>2023-07-17T14:29:41.000Z</time>
      </trkpt>
      <trkpt lat="42.41764" lon="2.21177">
        <ele>2646.1999511719</ele>
        <time>2023-07-17T14:29:45.000Z</time>
      </trkpt>
      <trkpt lat="42.41765" lon="2.21176">
        <ele>2646.8000488281</ele>
        <time>2023-07-17T14:29:48.000Z</time>
      </trkpt>
      <trkpt lat="42.41765" lon="2.21174">
        <ele>2647.6000976562</ele>
        <time>2023-07-17T14:29:51.000Z</time>
      </trkpt>
      <trkpt lat="42.41767" lon="2.2117">
        <ele>2648</ele>
        <time>2023-07-17T14:29:54.000Z</time>
      </trkpt>
      <trkpt lat="42.41768" lon="2.21168">
        <ele>2648.1999511719</ele>
        <time>2023-07-17T14:29:57.000Z</time>
      </trkpt>
      <trkpt lat="42.41769" lon="2.21164">
        <ele>2649</ele>
        <time>2023-07-17T14:30:02.000Z</time>
      </trkpt>
      <trkpt lat="42.41773" lon="2.21163">
        <ele>2650.1999511719</ele>
        <time>2023-07-17T14:30:07.000Z</time>
      </trkpt>
      <trkpt lat="42.41775" lon="2.21163">
        <ele>2650.3999023438</ele>
        <time>2023-07-17T14:30:09.000Z</time>
      </trkpt>
      <trkpt lat="42.41779" lon="2.21156">
        <ele>2651.1999511719</ele>
        <time>2023-07-17T14:30:20.000Z</time>
      </trkpt>
      <trkpt lat="42.4178" lon="2.21154">
        <ele>2651.1999511719</ele>
        <time>2023-07-17T14:30:22.000Z</time>
      </trkpt>
      <trkpt lat="42.41782" lon="2.21151">
        <ele>2651.1999511719</ele>
        <time>2023-07-17T14:30:27.000Z</time>
      </trkpt>
      <trkpt lat="42.41786" lon="2.21143">
        <ele>2652.1999511719</ele>
        <time>2023-07-17T14:30:36.000Z</time>
      </trkpt>
      <trkpt lat="42.41788" lon="2.21137">
        <ele>2653.1999511719</ele>
        <time>2023-07-17T14:30:43.000Z</time>
      </trkpt>
      <trkpt lat="42.41791" lon="2.21127">
        <ele>2654</ele>
        <time>2023-07-17T14:30:54.000Z</time>
      </trkpt>
      <trkpt lat="42.41791" lon="2.21126">
        <ele>2654.3999023438</ele>
        <time>2023-07-17T14:30:58.000Z</time>
      </trkpt>
      <trkpt lat="42.41791" lon="2.21124">
        <ele>2655.3999023438</ele>
        <time>2023-07-17T14:31:01.000Z</time>
      </trkpt>
      <trkpt lat="42.41791" lon="2.21122">
        <ele>2655.3999023438</ele>
        <time>2023-07-17T14:31:02.000Z</time>
      </trkpt>
      <trkpt lat="42.41792" lon="2.21116">
        <ele>2655.8000488281</ele>
        <time>2023-07-17T14:31:10.000Z</time>
      </trkpt>
      <trkpt lat="42.41794" lon="2.21106">
        <ele>2654.8000488281</ele>
        <time>2023-07-17T14:31:21.000Z</time>
      </trkpt>
      <trkpt lat="42.41797" lon="2.21104">
        <ele>2655.3999023438</ele>
        <time>2023-07-17T14:31:27.000Z</time>
      </trkpt>
      <trkpt lat="42.41797" lon="2.21099">
        <ele>2656</ele>
        <time>2023-07-17T14:31:33.000Z</time>
      </trkpt>
      <trkpt lat="42.41796" lon="2.211">
        <ele>2655.8000488281</ele>
        <time>2023-07-17T14:31:38.000Z</time>
      </trkpt>
      <trkpt lat="42.41799" lon="2.21094">
        <ele>2656.6000976562</ele>
        <time>2023-07-17T14:31:46.000Z</time>
      </trkpt>
      <trkpt lat="42.41799" lon="2.21084">
        <ele>2657.6000976562</ele>
        <time>2023-07-17T14:31:55.000Z</time>
      </trkpt>
      <trkpt lat="42.41798" lon="2.21084">
        <ele>2657.6000976562</ele>
        <time>2023-07-17T14:31:56.000Z</time>
      </trkpt>
      <trkpt lat="42.41796" lon="2.21082">
        <ele>2658.1999511719</ele>
        <time>2023-07-17T14:32:02.000Z</time>
      </trkpt>
      <trkpt lat="42.41797" lon="2.21081">
        <ele>2658.6000976562</ele>
        <time>2023-07-17T14:32:05.000Z</time>
      </trkpt>
      <trkpt lat="42.418" lon="2.21079">
        <ele>2659.1999511719</ele>
        <time>2023-07-17T14:32:09.000Z</time>
      </trkpt>
      <trkpt lat="42.41802" lon="2.21076">
        <ele>2659.8000488281</ele>
        <time>2023-07-17T14:32:13.000Z</time>
      </trkpt>
      <trkpt lat="42.41805" lon="2.21074">
        <ele>2660.3999023438</ele>
        <time>2023-07-17T14:32:16.000Z</time>
      </trkpt>
      <trkpt lat="42.41807" lon="2.21073">
        <ele>2660.8000488281</ele>
        <time>2023-07-17T14:32:19.000Z</time>
      </trkpt>
      <trkpt lat="42.41808" lon="2.21071">
        <ele>2661.3999023438</ele>
        <time>2023-07-17T14:32:27.000Z</time>
      </trkpt>
      <trkpt lat="42.41812" lon="2.21066">
        <ele>2661.8000488281</ele>
        <time>2023-07-17T14:32:35.000Z</time>
      </trkpt>
      <trkpt lat="42.41811" lon="2.21063">
        <ele>2661.8000488281</ele>
        <time>2023-07-17T14:32:45.000Z</time>
      </trkpt>
      <trkpt lat="42.41813" lon="2.21054">
        <ele>2662.6000976562</ele>
        <time>2023-07-17T14:32:55.000Z</time>
      </trkpt>
      <trkpt lat="42.41813" lon="2.21053">
        <ele>2663</ele>
        <time>2023-07-17T14:32:57.000Z</time>
      </trkpt>
      <trkpt lat="42.41814" lon="2.2105">
        <ele>2664.1999511719</ele>
        <time>2023-07-17T14:33:03.000Z</time>
      </trkpt>
      <trkpt lat="42.41812" lon="2.2105">
        <ele>2664.3999023438</ele>
        <time>2023-07-17T14:33:09.000Z</time>
      </trkpt>
      <trkpt lat="42.41814" lon="2.21051">
        <ele>2664.8000488281</ele>
        <time>2023-07-17T14:33:18.000Z</time>
      </trkpt>
      <trkpt lat="42.41812" lon="2.21051">
        <ele>2665.1999511719</ele>
        <time>2023-07-17T14:33:22.000Z</time>
      </trkpt>
      <trkpt lat="42.41809" lon="2.21048">
        <ele>2665.6000976562</ele>
        <time>2023-07-17T14:33:27.000Z</time>
      </trkpt>
      <trkpt lat="42.41811" lon="2.21048">
        <ele>2666.1999511719</ele>
        <time>2023-07-17T14:33:37.000Z</time>
      </trkpt>
      <trkpt lat="42.41811" lon="2.21048">
        <ele>2666.3999023438</ele>
        <time>2023-07-17T14:33:38.000Z</time>
      </trkpt>
      <trkpt lat="42.41812" lon="2.21044">
        <ele>2666.3999023438</ele>
        <time>2023-07-17T14:33:44.000Z</time>
      </trkpt>
      <trkpt lat="42.41815" lon="2.21042">
        <ele>2667.3999023438</ele>
        <time>2023-07-17T14:33:49.000Z</time>
      </trkpt>
      <trkpt lat="42.41816" lon="2.21042">
        <ele>2668.1999511719</ele>
        <time>2023-07-17T14:33:52.000Z</time>
      </trkpt>
      <trkpt lat="42.41817" lon="2.21042">
        <ele>2668.6000976562</ele>
        <time>2023-07-17T14:33:53.000Z</time>
      </trkpt>
      <trkpt lat="42.41818" lon="2.21039">
        <ele>2670</ele>
        <time>2023-07-17T14:33:58.000Z</time>
      </trkpt>
      <trkpt lat="42.41818" lon="2.21038">
        <ele>2670.6000976562</ele>
        <time>2023-07-17T14:34:01.000Z</time>
      </trkpt>
      <trkpt lat="42.41821" lon="2.21033">
        <ele>2671</ele>
        <time>2023-07-17T14:34:08.000Z</time>
      </trkpt>
      <trkpt lat="42.41821" lon="2.21032">
        <ele>2671.1999511719</ele>
        <time>2023-07-17T14:34:09.000Z</time>
      </trkpt>
      <trkpt lat="42.41824" lon="2.21028">
        <ele>2671.8000488281</ele>
        <time>2023-07-17T14:34:14.000Z</time>
      </trkpt>
      <trkpt lat="42.41828" lon="2.21023">
        <ele>2672.1999511719</ele>
        <time>2023-07-17T14:34:22.000Z</time>
      </trkpt>
      <trkpt lat="42.41829" lon="2.21022">
        <ele>2672.6000976562</ele>
        <time>2023-07-17T14:34:24.000Z</time>
      </trkpt>
      <trkpt lat="42.41831" lon="2.21019">
        <ele>2673.1999511719</ele>
        <time>2023-07-17T14:34:29.000Z</time>
      </trkpt>
      <trkpt lat="42.41833" lon="2.21017">
        <ele>2673.8000488281</ele>
        <time>2023-07-17T14:34:34.000Z</time>
      </trkpt>
      <trkpt lat="42.41835" lon="2.21014">
        <ele>2674.1999511719</ele>
        <time>2023-07-17T14:34:41.000Z</time>
      </trkpt>
      <trkpt lat="42.41835" lon="2.21013">
        <ele>2674.8000488281</ele>
        <time>2023-07-17T14:34:43.000Z</time>
      </trkpt>
      <trkpt lat="42.41836" lon="2.21013">
        <ele>2675.3999023438</ele>
        <time>2023-07-17T14:34:48.000Z</time>
      </trkpt>
      <trkpt lat="42.41836" lon="2.21013">
        <ele>2675.3999023438</ele>
        <time>2023-07-17T14:34:52.000Z</time>
      </trkpt>
      <trkpt lat="42.41836" lon="2.21009">
        <ele>2675</ele>
        <time>2023-07-17T14:35:00.000Z</time>
      </trkpt>
      <trkpt lat="42.41837" lon="2.21007">
        <ele>2675.6000976562</ele>
        <time>2023-07-17T14:35:07.000Z</time>
      </trkpt>
      <trkpt lat="42.41839" lon="2.21004">
        <ele>2676.3999023438</ele>
        <time>2023-07-17T14:35:15.000Z</time>
      </trkpt>
      <trkpt lat="42.41839" lon="2.21003">
        <ele>2677</ele>
        <time>2023-07-17T14:35:18.000Z</time>
      </trkpt>
      <trkpt lat="42.41838" lon="2.20996">
        <ele>2677.6000976562</ele>
        <time>2023-07-17T14:35:24.000Z</time>
      </trkpt>
      <trkpt lat="42.41838" lon="2.20995">
        <ele>2677.8000488281</ele>
        <time>2023-07-17T14:35:26.000Z</time>
      </trkpt>
      <trkpt lat="42.41837" lon="2.20995">
        <ele>2678.6000976562</ele>
        <time>2023-07-17T14:35:29.000Z</time>
      </trkpt>
      <trkpt lat="42.41838" lon="2.20993">
        <ele>2679.1999511719</ele>
        <time>2023-07-17T14:35:35.000Z</time>
      </trkpt>
      <trkpt lat="42.4184" lon="2.20992">
        <ele>2679.6000976562</ele>
        <time>2023-07-17T14:35:37.000Z</time>
      </trkpt>
      <trkpt lat="42.41842" lon="2.20991">
        <ele>2680.6000976562</ele>
        <time>2023-07-17T14:35:42.000Z</time>
      </trkpt>
      <trkpt lat="42.41842" lon="2.2099">
        <ele>2681.1999511719</ele>
        <time>2023-07-17T14:35:44.000Z</time>
      </trkpt>
      <trkpt lat="42.41843" lon="2.20986">
        <ele>2681.6000976562</ele>
        <time>2023-07-17T14:35:49.000Z</time>
      </trkpt>
      <trkpt lat="42.41844" lon="2.20983">
        <ele>2682.1999511719</ele>
        <time>2023-07-17T14:35:53.000Z</time>
      </trkpt>
      <trkpt lat="42.41844" lon="2.20981">
        <ele>2683</ele>
        <time>2023-07-17T14:35:57.000Z</time>
      </trkpt>
      <trkpt lat="42.41844" lon="2.2098">
        <ele>2683.3999023438</ele>
        <time>2023-07-17T14:35:59.000Z</time>
      </trkpt>
      <trkpt lat="42.41844" lon="2.20978">
        <ele>2684</ele>
        <time>2023-07-17T14:36:02.000Z</time>
      </trkpt>
      <trkpt lat="42.41842" lon="2.20975">
        <ele>2685</ele>
        <time>2023-07-17T14:36:08.000Z</time>
      </trkpt>
      <trkpt lat="42.41842" lon="2.20973">
        <ele>2685.1999511719</ele>
        <time>2023-07-17T14:36:10.000Z</time>
      </trkpt>
      <trkpt lat="42.41841" lon="2.20968">
        <ele>2686</ele>
        <time>2023-07-17T14:36:16.000Z</time>
      </trkpt>
      <trkpt lat="42.4184" lon="2.20967">
        <ele>2686.6000976562</ele>
        <time>2023-07-17T14:36:20.000Z</time>
      </trkpt>
      <trkpt lat="42.4184" lon="2.20964">
        <ele>2687.1999511719</ele>
        <time>2023-07-17T14:36:24.000Z</time>
      </trkpt>
      <trkpt lat="42.41841" lon="2.20962">
        <ele>2687.6000976562</ele>
        <time>2023-07-17T14:36:27.000Z</time>
      </trkpt>
      <trkpt lat="42.41841" lon="2.2096">
        <ele>2688.1999511719</ele>
        <time>2023-07-17T14:36:31.000Z</time>
      </trkpt>
      <trkpt lat="42.41839" lon="2.20959">
        <ele>2688.3999023438</ele>
        <time>2023-07-17T14:36:34.000Z</time>
      </trkpt>
      <trkpt lat="42.41838" lon="2.20955">
        <ele>2689.1999511719</ele>
        <time>2023-07-17T14:36:39.000Z</time>
      </trkpt>
      <trkpt lat="42.41836" lon="2.20954">
        <ele>2690</ele>
        <time>2023-07-17T14:36:42.000Z</time>
      </trkpt>
      <trkpt lat="42.41834" lon="2.20951">
        <ele>2690.1999511719</ele>
        <time>2023-07-17T14:36:46.000Z</time>
      </trkpt>
      <trkpt lat="42.41834" lon="2.2095">
        <ele>2690.3999023438</ele>
        <time>2023-07-17T14:36:48.000Z</time>
      </trkpt>
      <trkpt lat="42.41833" lon="2.20945">
        <ele>2691.6000976562</ele>
        <time>2023-07-17T14:36:56.000Z</time>
      </trkpt>
      <trkpt lat="42.41833" lon="2.2094">
        <ele>2692</ele>
        <time>2023-07-17T14:37:05.000Z</time>
      </trkpt>
      <trkpt lat="42.41833" lon="2.20937">
        <ele>2692.3999023438</ele>
        <time>2023-07-17T14:37:14.000Z</time>
      </trkpt>
      <trkpt lat="42.41833" lon="2.20936">
        <ele>2692.6000976562</ele>
        <time>2023-07-17T14:37:19.000Z</time>
      </trkpt>
      <trkpt lat="42.41833" lon="2.20936">
        <ele>2692.6000976562</ele>
        <time>2023-07-17T14:37:22.000Z</time>
      </trkpt>
      <trkpt lat="42.41832" lon="2.20939">
        <ele>2692</ele>
        <time>2023-07-17T14:37:31.000Z</time>
      </trkpt>
      <trkpt lat="42.4183" lon="2.20938">
        <ele>2691.6000976562</ele>
        <time>2023-07-17T14:37:38.000Z</time>
      </trkpt>
      <trkpt lat="42.41831" lon="2.20939">
        <ele>2691.6000976562</ele>
        <time>2023-07-17T14:37:39.000Z</time>
      </trkpt>
      <trkpt lat="42.41835" lon="2.20939">
        <ele>2690.8000488281</ele>
        <time>2023-07-17T14:37:45.000Z</time>
      </trkpt>
      <trkpt lat="42.41833" lon="2.20937">
        <ele>2690.6000976562</ele>
        <time>2023-07-17T14:37:53.000Z</time>
      </trkpt>
      <trkpt lat="42.41837" lon="2.20934">
        <ele>2691.1999511719</ele>
        <time>2023-07-17T14:38:02.000Z</time>
      </trkpt>
      <trkpt lat="42.41843" lon="2.20934">
        <ele>2692.3999023438</ele>
        <time>2023-07-17T14:38:10.000Z</time>
      </trkpt>
      <trkpt lat="42.41844" lon="2.20934">
        <ele>2692.6000976562</ele>
        <time>2023-07-17T14:38:11.000Z</time>
      </trkpt>
      <trkpt lat="42.41848" lon="2.20934">
        <ele>2693.6000976562</ele>
        <time>2023-07-17T14:38:17.000Z</time>
      </trkpt>
      <trkpt lat="42.41848" lon="2.20934">
        <ele>2693.6000976562</ele>
        <time>2023-07-17T14:38:19.000Z</time>
      </trkpt>
      <trkpt lat="42.4185" lon="2.20931">
        <ele>2694.6000976562</ele>
        <time>2023-07-17T14:38:25.000Z</time>
      </trkpt>
      <trkpt lat="42.41851" lon="2.2093">
        <ele>2694.8000488281</ele>
        <time>2023-07-17T14:38:26.000Z</time>
      </trkpt>
      <trkpt lat="42.41854" lon="2.20928">
        <ele>2695.8000488281</ele>
        <time>2023-07-17T14:38:32.000Z</time>
      </trkpt>
      <trkpt lat="42.41855" lon="2.20927">
        <ele>2696</ele>
        <time>2023-07-17T14:38:33.000Z</time>
      </trkpt>
      <trkpt lat="42.41857" lon="2.20925">
        <ele>2697.1999511719</ele>
        <time>2023-07-17T14:38:38.000Z</time>
      </trkpt>
      <trkpt lat="42.41858" lon="2.20924">
        <ele>2697.6000976562</ele>
        <time>2023-07-17T14:38:41.000Z</time>
      </trkpt>
      <trkpt lat="42.41858" lon="2.20924">
        <ele>2698.1999511719</ele>
        <time>2023-07-17T14:38:46.000Z</time>
      </trkpt>
      <trkpt lat="42.41858" lon="2.20923">
        <ele>2698.3999023438</ele>
        <time>2023-07-17T14:38:49.000Z</time>
      </trkpt>
      <trkpt lat="42.41856" lon="2.20923">
        <ele>2698.1999511719</ele>
        <time>2023-07-17T14:38:57.000Z</time>
      </trkpt>
      <trkpt lat="42.41859" lon="2.20924">
        <ele>2698.3999023438</ele>
        <time>2023-07-17T14:39:05.000Z</time>
      </trkpt>
      <trkpt lat="42.4186" lon="2.20924">
        <ele>2699</ele>
        <time>2023-07-17T14:39:12.000Z</time>
      </trkpt>
      <trkpt lat="42.41862" lon="2.20924">
        <ele>2699.1999511719</ele>
        <time>2023-07-17T14:39:15.000Z</time>
      </trkpt>
      <trkpt lat="42.41864" lon="2.20923">
        <ele>2699.8000488281</ele>
        <time>2023-07-17T14:39:20.000Z</time>
      </trkpt>
      <trkpt lat="42.41866" lon="2.20921">
        <ele>2700.1999511719</ele>
        <time>2023-07-17T14:39:24.000Z</time>
      </trkpt>
      <trkpt lat="42.41867" lon="2.20921">
        <ele>2700.8000488281</ele>
        <time>2023-07-17T14:39:30.000Z</time>
      </trkpt>
      <trkpt lat="42.41865" lon="2.20918">
        <ele>2700.8000488281</ele>
        <time>2023-07-17T14:39:37.000Z</time>
      </trkpt>
      <trkpt lat="42.41865" lon="2.2092">
        <ele>2700.6000976562</ele>
        <time>2023-07-17T14:39:45.000Z</time>
      </trkpt>
      <trkpt lat="42.41866" lon="2.2092">
        <ele>2700</ele>
        <time>2023-07-17T14:39:53.000Z</time>
      </trkpt>
      <trkpt lat="42.41864" lon="2.20923">
        <ele>2699.6000976562</ele>
        <time>2023-07-17T14:39:59.000Z</time>
      </trkpt>
      <trkpt lat="42.41869" lon="2.20922">
        <ele>2699.6000976562</ele>
        <time>2023-07-17T14:40:08.000Z</time>
      </trkpt>
      <trkpt lat="42.4187" lon="2.20925">
        <ele>2699.6000976562</ele>
        <time>2023-07-17T14:40:16.000Z</time>
      </trkpt>
      <trkpt lat="42.41867" lon="2.20924">
        <ele>2700</ele>
        <time>2023-07-17T14:40:25.000Z</time>
      </trkpt>
      <trkpt lat="42.41867" lon="2.20923">
        <ele>2700.3999023438</ele>
        <time>2023-07-17T14:40:34.000Z</time>
      </trkpt>
      <trkpt lat="42.41868" lon="2.20923">
        <ele>2700.8000488281</ele>
        <time>2023-07-17T14:40:43.000Z</time>
      </trkpt>
      <trkpt lat="42.41868" lon="2.2092">
        <ele>2701.1999511719</ele>
        <time>2023-07-17T14:40:51.000Z</time>
      </trkpt>
      <trkpt lat="42.4187" lon="2.20921">
        <ele>2701</ele>
        <time>2023-07-17T14:40:57.000Z</time>
      </trkpt>
      <trkpt lat="42.41867" lon="2.20919">
        <ele>2701.1999511719</ele>
        <time>2023-07-17T14:41:06.000Z</time>
      </trkpt>
      <trkpt lat="42.41867" lon="2.20919">
        <ele>2701.1999511719</ele>
        <time>2023-07-17T14:41:08.000Z</time>
      </trkpt>
      <trkpt lat="42.41867" lon="2.20921">
        <ele>2701.1999511719</ele>
        <time>2023-07-17T14:41:13.000Z</time>
      </trkpt>
      <trkpt lat="42.41866" lon="2.20928">
        <ele>2701.1999511719</ele>
        <time>2023-07-17T14:41:21.000Z</time>
      </trkpt>
      <trkpt lat="42.41867" lon="2.20923">
        <ele>2701</ele>
        <time>2023-07-17T14:41:27.000Z</time>
      </trkpt>
      <trkpt lat="42.41866" lon="2.20924">
        <ele>2701.1999511719</ele>
        <time>2023-07-17T14:41:30.000Z</time>
      </trkpt>
      <trkpt lat="42.41868" lon="2.20921">
        <ele>2701.6000976562</ele>
        <time>2023-07-17T14:41:38.000Z</time>
      </trkpt>
      <trkpt lat="42.41868" lon="2.20922">
        <ele>2701.8000488281</ele>
        <time>2023-07-17T14:41:45.000Z</time>
      </trkpt>
      <trkpt lat="42.41866" lon="2.20919">
        <ele>2702</ele>
        <time>2023-07-17T14:41:54.000Z</time>
      </trkpt>
      <trkpt lat="42.41864" lon="2.20921">
        <ele>2701.8000488281</ele>
        <time>2023-07-17T14:42:02.000Z</time>
      </trkpt>
      <trkpt lat="42.41866" lon="2.20922">
        <ele>2701.3999023438</ele>
        <time>2023-07-17T14:42:10.000Z</time>
      </trkpt>
      <trkpt lat="42.41868" lon="2.2092">
        <ele>2701.3999023438</ele>
        <time>2023-07-17T14:42:17.000Z</time>
      </trkpt>
      <trkpt lat="42.41868" lon="2.2092">
        <ele>2701.3999023438</ele>
        <time>2023-07-17T14:42:26.000Z</time>
      </trkpt>
      <trkpt lat="42.41867" lon="2.2092">
        <ele>2701.8000488281</ele>
        <time>2023-07-17T14:42:37.000Z</time>
      </trkpt>
      <trkpt lat="42.41867" lon="2.20919">
        <ele>2702</ele>
        <time>2023-07-17T14:42:46.000Z</time>
      </trkpt>
      <trkpt lat="42.41868" lon="2.2092">
        <ele>2702</ele>
        <time>2023-07-17T14:42:53.000Z</time>
      </trkpt>
      <trkpt lat="42.41868" lon="2.2092">
        <ele>2701.8000488281</ele>
        <time>2023-07-17T14:43:00.000Z</time>
      </trkpt>
      <trkpt lat="42.41866" lon="2.20922">
        <ele>2701.8000488281</ele>
        <time>2023-07-17T14:43:09.000Z</time>
      </trkpt>
      <trkpt lat="42.41869" lon="2.2092">
        <ele>2701.3999023438</ele>
        <time>2023-07-17T14:43:16.000Z</time>
      </trkpt>
      <trkpt lat="42.41869" lon="2.20919">
        <ele>2701.1999511719</ele>
        <time>2023-07-17T14:43:22.000Z</time>
      </trkpt>
      <trkpt lat="42.41866" lon="2.2092">
        <ele>2700.6000976562</ele>
        <time>2023-07-17T14:43:30.000Z</time>
      </trkpt>
      <trkpt lat="42.41865" lon="2.20919">
        <ele>2700.6000976562</ele>
        <time>2023-07-17T14:43:41.000Z</time>
      </trkpt>
      <trkpt lat="42.41865" lon="2.20919">
        <ele>2700.1999511719</ele>
        <time>2023-07-17T14:43:44.000Z</time>
      </trkpt>
      <trkpt lat="42.41869" lon="2.20919">
        <ele>2700.3999023438</ele>
        <time>2023-07-17T14:43:53.000Z</time>
      </trkpt>
      <trkpt lat="42.41868" lon="2.2092">
        <ele>2701</ele>
        <time>2023-07-17T14:43:57.000Z</time>
      </trkpt>
      <trkpt lat="42.41868" lon="2.2092">
        <ele>2701.1999511719</ele>
        <time>2023-07-17T14:43:58.000Z</time>
      </trkpt>
      <trkpt lat="42.41868" lon="2.2092">
        <ele>2702.1999511719</ele>
        <time>2023-07-17T14:44:05.000Z</time>
      </trkpt>
      <trkpt lat="42.41868" lon="2.2092">
        <ele>2702.3999023438</ele>
        <time>2023-07-17T14:44:07.000Z</time>
      </trkpt>
      <trkpt lat="42.41865" lon="2.20922">
        <ele>2702.6000976562</ele>
        <time>2023-07-17T14:44:17.000Z</time>
      </trkpt>
      <trkpt lat="42.41867" lon="2.20919">
        <ele>2703</ele>
        <time>2023-07-17T14:44:28.000Z</time>
      </trkpt>
      <trkpt lat="42.41865" lon="2.2092">
        <ele>2703.3999023438</ele>
        <time>2023-07-17T14:44:39.000Z</time>
      </trkpt>
      <trkpt lat="42.41865" lon="2.2092">
        <ele>2703.3999023438</ele>
        <time>2023-07-17T14:44:41.000Z</time>
      </trkpt>
      <trkpt lat="42.41865" lon="2.2092">
        <ele>2703.8000488281</ele>
        <time>2023-07-17T14:44:56.000Z</time>
      </trkpt>
      <trkpt lat="42.41865" lon="2.2092">
        <ele>2702.6000976562</ele>
        <time>2023-07-17T14:45:17.000Z</time>
      </trkpt>
      <trkpt lat="42.41866" lon="2.20919">
        <ele>2703</ele>
        <time>2023-07-17T14:45:27.000Z</time>
      </trkpt>
      <trkpt lat="42.41866" lon="2.20919">
        <ele>2703.6000976562</ele>
        <time>2023-07-17T14:45:34.000Z</time>
      </trkpt>
      <trkpt lat="42.41866" lon="2.2092">
        <ele>2704</ele>
        <time>2023-07-17T14:45:48.000Z</time>
      </trkpt>
      <trkpt lat="42.41865" lon="2.20923">
        <ele>2704</ele>
        <time>2023-07-17T14:45:58.000Z</time>
      </trkpt>
      <trkpt lat="42.41867" lon="2.20922">
        <ele>2703.6000976562</ele>
        <time>2023-07-17T14:46:07.000Z</time>
      </trkpt>
      <trkpt lat="42.41868" lon="2.20919">
        <ele>2703</ele>
        <time>2023-07-17T14:46:15.000Z</time>
      </trkpt>
      <trkpt lat="42.41867" lon="2.20919">
        <ele>2702.3999023438</ele>
        <time>2023-07-17T14:46:21.000Z</time>
      </trkpt>
      <trkpt lat="42.41866" lon="2.20919">
        <ele>2702.3999023438</ele>
        <time>2023-07-17T14:46:26.000Z</time>
      </trkpt>
      <trkpt lat="42.41866" lon="2.20917">
        <ele>2702.1999511719</ele>
        <time>2023-07-17T14:46:37.000Z</time>
      </trkpt>
      <trkpt lat="42.41867" lon="2.20919">
        <ele>2702.1999511719</ele>
        <time>2023-07-17T14:46:46.000Z</time>
      </trkpt>
      <trkpt lat="42.41866" lon="2.20917">
        <ele>2702.3999023438</ele>
        <time>2023-07-17T14:46:55.000Z</time>
      </trkpt>
      <trkpt lat="42.41864" lon="2.20919">
        <ele>2702.1999511719</ele>
        <time>2023-07-17T14:47:04.000Z</time>
      </trkpt>
      <trkpt lat="42.41868" lon="2.20918">
        <ele>2701.8000488281</ele>
        <time>2023-07-17T14:47:21.000Z</time>
      </trkpt>
      <trkpt lat="42.41866" lon="2.2092">
        <ele>2701.8000488281</ele>
        <time>2023-07-17T14:47:30.000Z</time>
      </trkpt>
      <trkpt lat="42.41868" lon="2.20918">
        <ele>2701.8000488281</ele>
        <time>2023-07-17T14:47:36.000Z</time>
      </trkpt>
      <trkpt lat="42.41867" lon="2.20918">
        <ele>2702</ele>
        <time>2023-07-17T14:47:44.000Z</time>
      </trkpt>
      <trkpt lat="42.41868" lon="2.20919">
        <ele>2702.3999023438</ele>
        <time>2023-07-17T14:47:50.000Z</time>
      </trkpt>
      <trkpt lat="42.4187" lon="2.20916">
        <ele>2702</ele>
        <time>2023-07-17T14:48:00.000Z</time>
      </trkpt>
      <trkpt lat="42.4187" lon="2.20917">
        <ele>2702</ele>
        <time>2023-07-17T14:48:08.000Z</time>
      </trkpt>
      <trkpt lat="42.41865" lon="2.2092">
        <ele>2701.8000488281</ele>
        <time>2023-07-17T14:48:17.000Z</time>
      </trkpt>
      <trkpt lat="42.41869" lon="2.20917">
        <ele>2702.1999511719</ele>
        <time>2023-07-17T14:48:29.000Z</time>
      </trkpt>
      <trkpt lat="42.4187" lon="2.20915">
        <ele>2702.3999023438</ele>
        <time>2023-07-17T14:48:43.000Z</time>
      </trkpt>
      <trkpt lat="42.41872" lon="2.20914">
        <ele>2702.8000488281</ele>
        <time>2023-07-17T14:48:53.000Z</time>
      </trkpt>
      <trkpt lat="42.41865" lon="2.20919">
        <ele>2703</ele>
        <time>2023-07-17T14:49:01.000Z</time>
      </trkpt>
      <trkpt lat="42.41868" lon="2.20917">
        <ele>2703.1999511719</ele>
        <time>2023-07-17T14:49:09.000Z</time>
      </trkpt>
      <trkpt lat="42.41868" lon="2.20917">
        <ele>2703.3999023438</ele>
        <time>2023-07-17T14:49:11.000Z</time>
      </trkpt>
      <trkpt lat="42.41866" lon="2.20919">
        <ele>2703.6000976562</ele>
        <time>2023-07-17T14:49:17.000Z</time>
      </trkpt>
      <trkpt lat="42.41869" lon="2.20917">
        <ele>2703.8000488281</ele>
        <time>2023-07-17T14:49:25.000Z</time>
      </trkpt>
      <trkpt lat="42.4187" lon="2.20914">
        <ele>2704</ele>
        <time>2023-07-17T14:49:31.000Z</time>
      </trkpt>
      <trkpt lat="42.41869" lon="2.20913">
        <ele>2704.1999511719</ele>
        <time>2023-07-17T14:49:39.000Z</time>
      </trkpt>
      <trkpt lat="42.41869" lon="2.20914">
        <ele>2704.3999023438</ele>
        <time>2023-07-17T14:49:42.000Z</time>
      </trkpt>
      <trkpt lat="42.41869" lon="2.20913">
        <ele>2704.3999023438</ele>
        <time>2023-07-17T14:49:47.000Z</time>
      </trkpt>
      <trkpt lat="42.41867" lon="2.20915">
        <ele>2703.3999023438</ele>
        <time>2023-07-17T14:49:54.000Z</time>
      </trkpt>
      <trkpt lat="42.41867" lon="2.20915">
        <ele>2703.1999511719</ele>
        <time>2023-07-17T14:49:56.000Z</time>
      </trkpt>
      <trkpt lat="42.4187" lon="2.20915">
        <ele>2702.8000488281</ele>
        <time>2023-07-17T14:50:03.000Z</time>
      </trkpt>
      <trkpt lat="42.41871" lon="2.20914">
        <ele>2702.3999023438</ele>
        <time>2023-07-17T14:50:12.000Z</time>
      </trkpt>
      <trkpt lat="42.41871" lon="2.20914">
        <ele>2702.3999023438</ele>
        <time>2023-07-17T14:50:13.000Z</time>
      </trkpt>
      <trkpt lat="42.41869" lon="2.20916">
        <ele>2702.1999511719</ele>
        <time>2023-07-17T14:50:21.000Z</time>
      </trkpt>
      <trkpt lat="42.41871" lon="2.20913">
        <ele>2702.1999511719</ele>
        <time>2023-07-17T14:50:31.000Z</time>
      </trkpt>
      <trkpt lat="42.41869" lon="2.20917">
        <ele>2702</ele>
        <time>2023-07-17T14:50:39.000Z</time>
      </trkpt>
      <trkpt lat="42.41871" lon="2.20915">
        <ele>2702</ele>
        <time>2023-07-17T14:50:46.000Z</time>
      </trkpt>
      <trkpt lat="42.4187" lon="2.20916">
        <ele>2701.8000488281</ele>
        <time>2023-07-17T14:50:55.000Z</time>
      </trkpt>
      <trkpt lat="42.41874" lon="2.20917">
        <ele>2702.3999023438</ele>
        <time>2023-07-17T14:51:03.000Z</time>
      </trkpt>
      <trkpt lat="42.4187" lon="2.20916">
        <ele>2702.8000488281</ele>
        <time>2023-07-17T14:51:10.000Z</time>
      </trkpt>
      <trkpt lat="42.41867" lon="2.20918">
        <ele>2703</ele>
        <time>2023-07-17T14:51:18.000Z</time>
      </trkpt>
      <trkpt lat="42.41866" lon="2.20917">
        <ele>2703</ele>
        <time>2023-07-17T14:51:26.000Z</time>
      </trkpt>
      <trkpt lat="42.41868" lon="2.20918">
        <ele>2703.1999511719</ele>
        <time>2023-07-17T14:51:32.000Z</time>
      </trkpt>
      <trkpt lat="42.41868" lon="2.20918">
        <ele>2703.3999023438</ele>
        <time>2023-07-17T14:51:37.000Z</time>
      </trkpt>
      <trkpt lat="42.41867" lon="2.20918">
        <ele>2703.3999023438</ele>
        <time>2023-07-17T14:51:39.000Z</time>
      </trkpt>
      <trkpt lat="42.41864" lon="2.20918">
        <ele>2703.3999023438</ele>
        <time>2023-07-17T14:51:50.000Z</time>
      </trkpt>
      <trkpt lat="42.41865" lon="2.20919">
        <ele>2703.3999023438</ele>
        <time>2023-07-17T14:51:59.000Z</time>
      </trkpt>
      <trkpt lat="42.41866" lon="2.2092">
        <ele>2703.3999023438</ele>
        <time>2023-07-17T14:52:07.000Z</time>
      </trkpt>
      <trkpt lat="42.41868" lon="2.20921">
        <ele>2703.1999511719</ele>
        <time>2023-07-17T14:52:23.000Z</time>
      </trkpt>
      <trkpt lat="42.41867" lon="2.20916">
        <ele>2702.8000488281</ele>
        <time>2023-07-17T14:52:30.000Z</time>
      </trkpt>
      <trkpt lat="42.41864" lon="2.20917">
        <ele>2702.1999511719</ele>
        <time>2023-07-17T14:52:38.000Z</time>
      </trkpt>
      <trkpt lat="42.41863" lon="2.20918">
        <ele>2702.1999511719</ele>
        <time>2023-07-17T14:52:41.000Z</time>
      </trkpt>
      <trkpt lat="42.41866" lon="2.20916">
        <ele>2701.8000488281</ele>
        <time>2023-07-17T14:52:47.000Z</time>
      </trkpt>
      <trkpt lat="42.41869" lon="2.20919">
        <ele>2702.8000488281</ele>
        <time>2023-07-17T14:52:56.000Z</time>
      </trkpt>
      <trkpt lat="42.41868" lon="2.2092">
        <ele>2702.6000976562</ele>
        <time>2023-07-17T14:53:02.000Z</time>
      </trkpt>
      <trkpt lat="42.41866" lon="2.2092">
        <ele>2702.1999511719</ele>
        <time>2023-07-17T14:53:09.000Z</time>
      </trkpt>
      <trkpt lat="42.41865" lon="2.20922">
        <ele>2702.3999023438</ele>
        <time>2023-07-17T14:53:17.000Z</time>
      </trkpt>
      <trkpt lat="42.41867" lon="2.20918">
        <ele>2702.1999511719</ele>
        <time>2023-07-17T14:53:26.000Z</time>
      </trkpt>
      <trkpt lat="42.4187" lon="2.20918">
        <ele>2702.1999511719</ele>
        <time>2023-07-17T14:53:36.000Z</time>
      </trkpt>
      <trkpt lat="42.41869" lon="2.2092">
        <ele>2702</ele>
        <time>2023-07-17T14:53:45.000Z</time>
      </trkpt>
      <trkpt lat="42.41866" lon="2.20918">
        <ele>2702</ele>
        <time>2023-07-17T14:53:52.000Z</time>
      </trkpt>
      <trkpt lat="42.41866" lon="2.20919">
        <ele>2702.1999511719</ele>
        <time>2023-07-17T14:54:02.000Z</time>
      </trkpt>
      <trkpt lat="42.41865" lon="2.2092">
        <ele>2702.6000976562</ele>
        <time>2023-07-17T14:54:11.000Z</time>
      </trkpt>
      <trkpt lat="42.41865" lon="2.20922">
        <ele>2702.8000488281</ele>
        <time>2023-07-17T14:54:19.000Z</time>
      </trkpt>
      <trkpt lat="42.41866" lon="2.2092">
        <ele>2703.1999511719</ele>
        <time>2023-07-17T14:54:29.000Z</time>
      </trkpt>
      <trkpt lat="42.41868" lon="2.20921">
        <ele>2703.3999023438</ele>
        <time>2023-07-17T14:54:36.000Z</time>
      </trkpt>
      <trkpt lat="42.41867" lon="2.20922">
        <ele>2703.3999023438</ele>
        <time>2023-07-17T14:54:38.000Z</time>
      </trkpt>
      <trkpt lat="42.41864" lon="2.20919">
        <ele>2703.3999023438</ele>
        <time>2023-07-17T14:54:45.000Z</time>
      </trkpt>
      <trkpt lat="42.41866" lon="2.20916">
        <ele>2703.6000976562</ele>
        <time>2023-07-17T14:54:54.000Z</time>
      </trkpt>
      <trkpt lat="42.41867" lon="2.20919">
        <ele>2703.6000976562</ele>
        <time>2023-07-17T14:55:00.000Z</time>
      </trkpt>
      <trkpt lat="42.41866" lon="2.2092">
        <ele>2703.8000488281</ele>
        <time>2023-07-17T14:55:09.000Z</time>
      </trkpt>
      <trkpt lat="42.41866" lon="2.20917">
        <ele>2704</ele>
        <time>2023-07-17T14:55:16.000Z</time>
      </trkpt>
      <trkpt lat="42.41866" lon="2.2092">
        <ele>2704</ele>
        <time>2023-07-17T14:55:23.000Z</time>
      </trkpt>
      <trkpt lat="42.41867" lon="2.20917">
        <ele>2703.8000488281</ele>
        <time>2023-07-17T14:55:29.000Z</time>
      </trkpt>
      <trkpt lat="42.41868" lon="2.20921">
        <ele>2703.8000488281</ele>
        <time>2023-07-17T14:55:36.000Z</time>
      </trkpt>
      <trkpt lat="42.41865" lon="2.20922">
        <ele>2704</ele>
        <time>2023-07-17T14:55:44.000Z</time>
      </trkpt>
      <trkpt lat="42.41866" lon="2.20919">
        <ele>2703.8000488281</ele>
        <time>2023-07-17T14:55:51.000Z</time>
      </trkpt>
      <trkpt lat="42.41866" lon="2.2092">
        <ele>2703.6000976562</ele>
        <time>2023-07-17T14:55:58.000Z</time>
      </trkpt>
      <trkpt lat="42.41867" lon="2.20921">
        <ele>2703.3999023438</ele>
        <time>2023-07-17T14:56:06.000Z</time>
      </trkpt>
      <trkpt lat="42.41863" lon="2.20916">
        <ele>2702.3999023438</ele>
        <time>2023-07-17T14:56:15.000Z</time>
      </trkpt>
      <trkpt lat="42.41864" lon="2.20917">
        <ele>2702.3999023438</ele>
        <time>2023-07-17T14:56:17.000Z</time>
      </trkpt>
      <trkpt lat="42.41864" lon="2.20918">
        <ele>2702.1999511719</ele>
        <time>2023-07-17T14:56:22.000Z</time>
      </trkpt>
      <trkpt lat="42.4186" lon="2.20915">
        <ele>2702</ele>
        <time>2023-07-17T14:56:27.000Z</time>
      </trkpt>
      <trkpt lat="42.41853" lon="2.20909">
        <ele>2702.1999511719</ele>
        <time>2023-07-17T14:56:36.000Z</time>
      </trkpt>
      <trkpt lat="42.41849" lon="2.20903">
        <ele>2702.3999023438</ele>
        <time>2023-07-17T14:56:43.000Z</time>
      </trkpt>
      <trkpt lat="42.41844" lon="2.20899">
        <ele>2703.1999511719</ele>
        <time>2023-07-17T14:56:51.000Z</time>
      </trkpt>
      <trkpt lat="42.41844" lon="2.20899">
        <ele>2703.3999023438</ele>
        <time>2023-07-17T14:56:52.000Z</time>
      </trkpt>
      <trkpt lat="42.41843" lon="2.20897">
        <ele>2704.3999023438</ele>
        <time>2023-07-17T14:56:58.000Z</time>
      </trkpt>
      <trkpt lat="42.41841" lon="2.20895">
        <ele>2705</ele>
        <time>2023-07-17T14:57:05.000Z</time>
      </trkpt>
      <trkpt lat="42.41837" lon="2.20893">
        <ele>2705.6000976562</ele>
        <time>2023-07-17T14:57:12.000Z</time>
      </trkpt>
      <trkpt lat="42.41835" lon="2.20893">
        <ele>2705.8000488281</ele>
        <time>2023-07-17T14:57:14.000Z</time>
      </trkpt>
      <trkpt lat="42.4183" lon="2.20889">
        <ele>2706.6000976562</ele>
        <time>2023-07-17T14:57:22.000Z</time>
      </trkpt>
      <trkpt lat="42.41824" lon="2.20886">
        <ele>2707.8000488281</ele>
        <time>2023-07-17T14:57:30.000Z</time>
      </trkpt>
      <trkpt lat="42.41823" lon="2.20885">
        <ele>2708.1999511719</ele>
        <time>2023-07-17T14:57:33.000Z</time>
      </trkpt>
      <trkpt lat="42.41821" lon="2.20881">
        <ele>2709</ele>
        <time>2023-07-17T14:57:39.000Z</time>
      </trkpt>
      <trkpt lat="42.4182" lon="2.20881">
        <ele>2709</ele>
        <time>2023-07-17T14:57:40.000Z</time>
      </trkpt>
      <trkpt lat="42.41816" lon="2.20877">
        <ele>2710</ele>
        <time>2023-07-17T14:57:47.000Z</time>
      </trkpt>
      <trkpt lat="42.41814" lon="2.20877">
        <ele>2710.3999023438</ele>
        <time>2023-07-17T14:57:50.000Z</time>
      </trkpt>
      <trkpt lat="42.4181" lon="2.20875">
        <ele>2711.1999511719</ele>
        <time>2023-07-17T14:57:56.000Z</time>
      </trkpt>
      <trkpt lat="42.41807" lon="2.20874">
        <ele>2711.3999023438</ele>
        <time>2023-07-17T14:58:01.000Z</time>
      </trkpt>
      <trkpt lat="42.41802" lon="2.20873">
        <ele>2712</ele>
        <time>2023-07-17T14:58:11.000Z</time>
      </trkpt>
      <trkpt lat="42.41801" lon="2.20874">
        <ele>2712.1999511719</ele>
        <time>2023-07-17T14:58:13.000Z</time>
      </trkpt>
      <trkpt lat="42.41796" lon="2.20876">
        <ele>2712.8000488281</ele>
        <time>2023-07-17T14:58:19.000Z</time>
      </trkpt>
      <trkpt lat="42.41794" lon="2.20875">
        <ele>2713.1999511719</ele>
        <time>2023-07-17T14:58:27.000Z</time>
      </trkpt>
      <trkpt lat="42.41794" lon="2.20875">
        <ele>2713.3999023438</ele>
        <time>2023-07-17T14:58:28.000Z</time>
      </trkpt>
      <trkpt lat="42.41794" lon="2.20872">
        <ele>2714.3999023438</ele>
        <time>2023-07-17T14:58:34.000Z</time>
      </trkpt>
      <trkpt lat="42.41793" lon="2.20871">
        <ele>2714.6000976562</ele>
        <time>2023-07-17T14:58:35.000Z</time>
      </trkpt>
      <trkpt lat="42.41788" lon="2.20869">
        <ele>2715.3999023438</ele>
        <time>2023-07-17T14:58:41.000Z</time>
      </trkpt>
      <trkpt lat="42.41786" lon="2.2087">
        <ele>2715.8000488281</ele>
        <time>2023-07-17T14:58:44.000Z</time>
      </trkpt>
      <trkpt lat="42.41784" lon="2.20869">
        <ele>2716.1999511719</ele>
        <time>2023-07-17T14:58:48.000Z</time>
      </trkpt>
      <trkpt lat="42.41781" lon="2.2087">
        <ele>2716.8000488281</ele>
        <time>2023-07-17T14:58:54.000Z</time>
      </trkpt>
      <trkpt lat="42.41776" lon="2.20871">
        <ele>2717.8000488281</ele>
        <time>2023-07-17T14:59:03.000Z</time>
      </trkpt>
      <trkpt lat="42.41776" lon="2.20871">
        <ele>2718</ele>
        <time>2023-07-17T14:59:05.000Z</time>
      </trkpt>
      <trkpt lat="42.41775" lon="2.2087">
        <ele>2718.8000488281</ele>
        <time>2023-07-17T14:59:12.000Z</time>
      </trkpt>
      <trkpt lat="42.41775" lon="2.2087">
        <ele>2719</ele>
        <time>2023-07-17T14:59:13.000Z</time>
      </trkpt>
      <trkpt lat="42.41773" lon="2.20868">
        <ele>2719.6000976562</ele>
        <time>2023-07-17T14:59:20.000Z</time>
      </trkpt>
      <trkpt lat="42.41773" lon="2.20869">
        <ele>2720.1999511719</ele>
        <time>2023-07-17T14:59:23.000Z</time>
      </trkpt>
      <trkpt lat="42.4177" lon="2.20866">
        <ele>2720.6000976562</ele>
        <time>2023-07-17T14:59:28.000Z</time>
      </trkpt>
      <trkpt lat="42.41768" lon="2.20864">
        <ele>2721.1999511719</ele>
        <time>2023-07-17T14:59:33.000Z</time>
      </trkpt>
      <trkpt lat="42.41768" lon="2.20864">
        <ele>2721.3999023438</ele>
        <time>2023-07-17T14:59:35.000Z</time>
      </trkpt>
      <trkpt lat="42.41766" lon="2.20864">
        <ele>2722</ele>
        <time>2023-07-17T14:59:43.000Z</time>
      </trkpt>
      <trkpt lat="42.41762" lon="2.20863">
        <ele>2722.1999511719</ele>
        <time>2023-07-17T14:59:49.000Z</time>
      </trkpt>
      <trkpt lat="42.4176" lon="2.20864">
        <ele>2722.6000976562</ele>
        <time>2023-07-17T14:59:52.000Z</time>
      </trkpt>
      <trkpt lat="42.41758" lon="2.20864">
        <ele>2723.1999511719</ele>
        <time>2023-07-17T14:59:57.000Z</time>
      </trkpt>
      <trkpt lat="42.41754" lon="2.20864">
        <ele>2724</ele>
        <time>2023-07-17T15:00:02.000Z</time>
      </trkpt>
      <trkpt lat="42.41753" lon="2.20863">
        <ele>2724.1999511719</ele>
        <time>2023-07-17T15:00:05.000Z</time>
      </trkpt>
      <trkpt lat="42.41753" lon="2.20864">
        <ele>2724.8000488281</ele>
        <time>2023-07-17T15:00:10.000Z</time>
      </trkpt>
      <trkpt lat="42.41751" lon="2.20866">
        <ele>2724.8000488281</ele>
        <time>2023-07-17T15:00:18.000Z</time>
      </trkpt>
      <trkpt lat="42.41749" lon="2.20866">
        <ele>2725.3999023438</ele>
        <time>2023-07-17T15:00:24.000Z</time>
      </trkpt>
      <trkpt lat="42.41748" lon="2.20865">
        <ele>2725.6000976562</ele>
        <time>2023-07-17T15:00:25.000Z</time>
      </trkpt>
      <trkpt lat="42.41747" lon="2.20865">
        <ele>2726.3999023438</ele>
        <time>2023-07-17T15:00:31.000Z</time>
      </trkpt>
      <trkpt lat="42.41747" lon="2.20865">
        <ele>2726.8000488281</ele>
        <time>2023-07-17T15:00:33.000Z</time>
      </trkpt>
      <trkpt lat="42.41742" lon="2.20866">
        <ele>2727.1999511719</ele>
        <time>2023-07-17T15:00:43.000Z</time>
      </trkpt>
      <trkpt lat="42.41739" lon="2.20867">
        <ele>2727.3999023438</ele>
        <time>2023-07-17T15:00:47.000Z</time>
      </trkpt>
      <trkpt lat="42.41735" lon="2.20868">
        <ele>2727.8000488281</ele>
        <time>2023-07-17T15:00:51.000Z</time>
      </trkpt>
      <trkpt lat="42.4173" lon="2.20868">
        <ele>2728.6000976562</ele>
        <time>2023-07-17T15:01:00.000Z</time>
      </trkpt>
      <trkpt lat="42.41729" lon="2.2087">
        <ele>2729.1999511719</ele>
        <time>2023-07-17T15:01:10.000Z</time>
      </trkpt>
      <trkpt lat="42.41725" lon="2.20869">
        <ele>2729.3999023438</ele>
        <time>2023-07-17T15:01:18.000Z</time>
      </trkpt>
      <trkpt lat="42.41725" lon="2.20869">
        <ele>2729.6000976562</ele>
        <time>2023-07-17T15:01:21.000Z</time>
      </trkpt>
      <trkpt lat="42.41724" lon="2.20873">
        <ele>2730</ele>
        <time>2023-07-17T15:01:26.000Z</time>
      </trkpt>
      <trkpt lat="42.4172" lon="2.20875">
        <ele>2730.6000976562</ele>
        <time>2023-07-17T15:01:35.000Z</time>
      </trkpt>
      <trkpt lat="42.41719" lon="2.20875">
        <ele>2730.6000976562</ele>
        <time>2023-07-17T15:01:37.000Z</time>
      </trkpt>
      <trkpt lat="42.41719" lon="2.20875">
        <ele>2730.6000976562</ele>
        <time>2023-07-17T15:01:38.000Z</time>
      </trkpt>
      <trkpt lat="42.41719" lon="2.20872">
        <ele>2730.8000488281</ele>
        <time>2023-07-17T15:01:49.000Z</time>
      </trkpt>
      <trkpt lat="42.41707" lon="2.2088">
        <ele>2732.8000488281</ele>
        <time>2023-07-17T15:02:10.000Z</time>
      </trkpt>
      <trkpt lat="42.41705" lon="2.20876">
        <ele>2733.3999023438</ele>
        <time>2023-07-17T15:02:20.000Z</time>
      </trkpt>
      <trkpt lat="42.41689" lon="2.20886">
        <ele>2735</ele>
        <time>2023-07-17T15:02:36.000Z</time>
      </trkpt>
      <trkpt lat="42.41687" lon="2.20886">
        <ele>2735.3999023438</ele>
        <time>2023-07-17T15:02:38.000Z</time>
      </trkpt>
      <trkpt lat="42.41684" lon="2.20887">
        <ele>2736.1999511719</ele>
        <time>2023-07-17T15:02:42.000Z</time>
      </trkpt>
      <trkpt lat="42.41681" lon="2.2089">
        <ele>2737.1999511719</ele>
        <time>2023-07-17T15:02:50.000Z</time>
      </trkpt>
      <trkpt lat="42.41679" lon="2.20893">
        <ele>2737.6000976562</ele>
        <time>2023-07-17T15:02:53.000Z</time>
      </trkpt>
      <trkpt lat="42.41675" lon="2.209">
        <ele>2737.8000488281</ele>
        <time>2023-07-17T15:03:02.000Z</time>
      </trkpt>
      <trkpt lat="42.41661" lon="2.20902">
        <ele>2741.1999511719</ele>
        <time>2023-07-17T15:03:34.000Z</time>
      </trkpt>
      <trkpt lat="42.4166" lon="2.20901">
        <ele>2741.6000976562</ele>
        <time>2023-07-17T15:03:36.000Z</time>
      </trkpt>
      <trkpt lat="42.41658" lon="2.20903">
        <ele>2742.8000488281</ele>
        <time>2023-07-17T15:03:43.000Z</time>
      </trkpt>
      <trkpt lat="42.41635" lon="2.20918">
        <ele>2748.1999511719</ele>
        <time>2023-07-17T15:04:23.000Z</time>
      </trkpt>
      <trkpt lat="42.41635" lon="2.20918">
        <ele>2747.6000976562</ele>
        <time>2023-07-17T15:04:31.000Z</time>
      </trkpt>
      <trkpt lat="42.41634" lon="2.20916">
        <ele>2747.8000488281</ele>
        <time>2023-07-17T15:04:41.000Z</time>
      </trkpt>
      <trkpt lat="42.41631" lon="2.20919">
        <ele>2749</ele>
        <time>2023-07-17T15:04:48.000Z</time>
      </trkpt>
      <trkpt lat="42.41631" lon="2.20919">
        <ele>2749.1999511719</ele>
        <time>2023-07-17T15:04:49.000Z</time>
      </trkpt>
      <trkpt lat="42.41626" lon="2.20924">
        <ele>2750.3999023438</ele>
        <time>2023-07-17T15:04:54.000Z</time>
      </trkpt>
      <trkpt lat="42.41626" lon="2.20925">
        <ele>2750.6000976562</ele>
        <time>2023-07-17T15:04:55.000Z</time>
      </trkpt>
      <trkpt lat="42.41623" lon="2.20928">
        <ele>2751.6000976562</ele>
        <time>2023-07-17T15:05:01.000Z</time>
      </trkpt>
      <trkpt lat="42.41623" lon="2.20928">
        <ele>2751.6000976562</ele>
        <time>2023-07-17T15:05:02.000Z</time>
      </trkpt>
      <trkpt lat="42.41619" lon="2.20932">
        <ele>2752.3999023438</ele>
        <time>2023-07-17T15:05:10.000Z</time>
      </trkpt>
      <trkpt lat="42.41619" lon="2.20933">
        <ele>2752.6000976562</ele>
        <time>2023-07-17T15:05:12.000Z</time>
      </trkpt>
      <trkpt lat="42.41617" lon="2.20939">
        <ele>2753.8000488281</ele>
        <time>2023-07-17T15:05:16.000Z</time>
      </trkpt>
      <trkpt lat="42.41615" lon="2.20941">
        <ele>2754.8000488281</ele>
        <time>2023-07-17T15:05:18.000Z</time>
      </trkpt>
      <trkpt lat="42.41614" lon="2.20943">
        <ele>2755</ele>
        <time>2023-07-17T15:05:19.000Z</time>
      </trkpt>
      <trkpt lat="42.41612" lon="2.20946">
        <ele>2756.1999511719</ele>
        <time>2023-07-17T15:05:23.000Z</time>
      </trkpt>
      <trkpt lat="42.41609" lon="2.2095">
        <ele>2756.1999511719</ele>
        <time>2023-07-17T15:05:31.000Z</time>
      </trkpt>
      <trkpt lat="42.41607" lon="2.20953">
        <ele>2757.1999511719</ele>
        <time>2023-07-17T15:05:37.000Z</time>
      </trkpt>
      <trkpt lat="42.41607" lon="2.20953">
        <ele>2757.1999511719</ele>
        <time>2023-07-17T15:05:38.000Z</time>
      </trkpt>
      <trkpt lat="42.41603" lon="2.20956">
        <ele>2758.1999511719</ele>
        <time>2023-07-17T15:05:47.000Z</time>
      </trkpt>
      <trkpt lat="42.41602" lon="2.20958">
        <ele>2758.1999511719</ele>
        <time>2023-07-17T15:05:48.000Z</time>
      </trkpt>
      <trkpt lat="42.416" lon="2.20962">
        <ele>2759</ele>
        <time>2023-07-17T15:05:54.000Z</time>
      </trkpt>
      <trkpt lat="42.416" lon="2.20963">
        <ele>2759.3999023438</ele>
        <time>2023-07-17T15:05:56.000Z</time>
      </trkpt>
      <trkpt lat="42.41601" lon="2.20963">
        <ele>2759.8000488281</ele>
        <time>2023-07-17T15:06:00.000Z</time>
      </trkpt>
      <trkpt lat="42.416" lon="2.20968">
        <ele>2760.3999023438</ele>
        <time>2023-07-17T15:06:05.000Z</time>
      </trkpt>
      <trkpt lat="42.416" lon="2.20968">
        <ele>2760.6000976562</ele>
        <time>2023-07-17T15:06:07.000Z</time>
      </trkpt>
      <trkpt lat="42.41598" lon="2.20968">
        <ele>2761.3999023438</ele>
        <time>2023-07-17T15:06:14.000Z</time>
      </trkpt>
      <trkpt lat="42.41597" lon="2.20969">
        <ele>2761.3999023438</ele>
        <time>2023-07-17T15:06:15.000Z</time>
      </trkpt>
      <trkpt lat="42.41595" lon="2.20973">
        <ele>2761.8000488281</ele>
        <time>2023-07-17T15:06:20.000Z</time>
      </trkpt>
      <trkpt lat="42.41591" lon="2.20979">
        <ele>2762.6000976562</ele>
        <time>2023-07-17T15:06:26.000Z</time>
      </trkpt>
      <trkpt lat="42.4159" lon="2.2098">
        <ele>2762.8000488281</ele>
        <time>2023-07-17T15:06:29.000Z</time>
      </trkpt>
      <trkpt lat="42.41589" lon="2.20981">
        <ele>2763.6000976562</ele>
        <time>2023-07-17T15:06:33.000Z</time>
      </trkpt>
      <trkpt lat="42.41587" lon="2.20985">
        <ele>2764.1999511719</ele>
        <time>2023-07-17T15:06:37.000Z</time>
      </trkpt>
      <trkpt lat="42.41585" lon="2.20987">
        <ele>2764.6000976562</ele>
        <time>2023-07-17T15:06:40.000Z</time>
      </trkpt>
      <trkpt lat="42.41586" lon="2.20986">
        <ele>2764.8000488281</ele>
        <time>2023-07-17T15:06:44.000Z</time>
      </trkpt>
      <trkpt lat="42.41585" lon="2.20989">
        <ele>2765.6000976562</ele>
        <time>2023-07-17T15:06:50.000Z</time>
      </trkpt>
      <trkpt lat="42.41584" lon="2.20989">
        <ele>2766.6000976562</ele>
        <time>2023-07-17T15:06:54.000Z</time>
      </trkpt>
      <trkpt lat="42.4158" lon="2.20993">
        <ele>2767.1999511719</ele>
        <time>2023-07-17T15:07:01.000Z</time>
      </trkpt>
      <trkpt lat="42.4158" lon="2.20994">
        <ele>2767.6000976562</ele>
        <time>2023-07-17T15:07:03.000Z</time>
      </trkpt>
      <trkpt lat="42.41578" lon="2.20995">
        <ele>2768.8000488281</ele>
        <time>2023-07-17T15:07:06.000Z</time>
      </trkpt>
      <trkpt lat="42.41577" lon="2.20995">
        <ele>2769.1999511719</ele>
        <time>2023-07-17T15:07:08.000Z</time>
      </trkpt>
      <trkpt lat="42.41574" lon="2.21001">
        <ele>2769.8000488281</ele>
        <time>2023-07-17T15:07:18.000Z</time>
      </trkpt>
      <trkpt lat="42.41573" lon="2.21001">
        <ele>2769.8000488281</ele>
        <time>2023-07-17T15:07:20.000Z</time>
      </trkpt>
      <trkpt lat="42.41569" lon="2.21005">
        <ele>2770.6000976562</ele>
        <time>2023-07-17T15:07:28.000Z</time>
      </trkpt>
      <trkpt lat="42.41569" lon="2.21004">
        <ele>2771</ele>
        <time>2023-07-17T15:07:31.000Z</time>
      </trkpt>
      <trkpt lat="42.41569" lon="2.21001">
        <ele>2771.1999511719</ele>
        <time>2023-07-17T15:07:36.000Z</time>
      </trkpt>
      <trkpt lat="42.41568" lon="2.20996">
        <ele>2771.8000488281</ele>
        <time>2023-07-17T15:07:43.000Z</time>
      </trkpt>
      <trkpt lat="42.41567" lon="2.20993">
        <ele>2772</ele>
        <time>2023-07-17T15:07:46.000Z</time>
      </trkpt>
      <trkpt lat="42.41566" lon="2.20989">
        <ele>2772.6000976562</ele>
        <time>2023-07-17T15:07:49.000Z</time>
      </trkpt>
      <trkpt lat="42.41565" lon="2.20988">
        <ele>2773.1999511719</ele>
        <time>2023-07-17T15:07:53.000Z</time>
      </trkpt>
      <trkpt lat="42.41564" lon="2.20986">
        <ele>2773.6000976562</ele>
        <time>2023-07-17T15:07:55.000Z</time>
      </trkpt>
      <trkpt lat="42.41561" lon="2.20983">
        <ele>2774.1999511719</ele>
        <time>2023-07-17T15:08:02.000Z</time>
      </trkpt>
      <trkpt lat="42.41561" lon="2.20983">
        <ele>2774.3999023438</ele>
        <time>2023-07-17T15:08:03.000Z</time>
      </trkpt>
      <trkpt lat="42.41562" lon="2.20976">
        <ele>2775.1999511719</ele>
        <time>2023-07-17T15:08:10.000Z</time>
      </trkpt>
      <trkpt lat="42.41562" lon="2.20975">
        <ele>2775.3999023438</ele>
        <time>2023-07-17T15:08:11.000Z</time>
      </trkpt>
      <trkpt lat="42.41561" lon="2.20971">
        <ele>2776.1999511719</ele>
        <time>2023-07-17T15:08:17.000Z</time>
      </trkpt>
      <trkpt lat="42.4156" lon="2.20972">
        <ele>2776.3999023438</ele>
        <time>2023-07-17T15:08:18.000Z</time>
      </trkpt>
      <trkpt lat="42.41559" lon="2.20969">
        <ele>2777.1999511719</ele>
        <time>2023-07-17T15:08:23.000Z</time>
      </trkpt>
      <trkpt lat="42.41559" lon="2.20966">
        <ele>2777.3999023438</ele>
        <time>2023-07-17T15:08:26.000Z</time>
      </trkpt>
      <trkpt lat="42.41558" lon="2.2096">
        <ele>2778.1999511719</ele>
        <time>2023-07-17T15:08:30.000Z</time>
      </trkpt>
      <trkpt lat="42.41558" lon="2.20958">
        <ele>2778.6000976562</ele>
        <time>2023-07-17T15:08:32.000Z</time>
      </trkpt>
      <trkpt lat="42.41558" lon="2.20951">
        <ele>2779</ele>
        <time>2023-07-17T15:08:37.000Z</time>
      </trkpt>
      <trkpt lat="42.4156" lon="2.20943">
        <ele>2778.8000488281</ele>
        <time>2023-07-17T15:08:44.000Z</time>
      </trkpt>
      <trkpt lat="42.41561" lon="2.20936">
        <ele>2779</ele>
        <time>2023-07-17T15:08:51.000Z</time>
      </trkpt>
      <trkpt lat="42.41559" lon="2.20927">
        <ele>2779.3999023438</ele>
        <time>2023-07-17T15:08:58.000Z</time>
      </trkpt>
      <trkpt lat="42.41558" lon="2.20926">
        <ele>2779.6000976562</ele>
        <time>2023-07-17T15:08:59.000Z</time>
      </trkpt>
      <trkpt lat="42.41557" lon="2.20921">
        <ele>2780.3999023438</ele>
        <time>2023-07-17T15:09:04.000Z</time>
      </trkpt>
      <trkpt lat="42.41557" lon="2.2092">
        <ele>2780.6000976562</ele>
        <time>2023-07-17T15:09:05.000Z</time>
      </trkpt>
      <trkpt lat="42.41557" lon="2.20916">
        <ele>2782</ele>
        <time>2023-07-17T15:09:08.000Z</time>
      </trkpt>
      <trkpt lat="42.41557" lon="2.20915">
        <ele>2782.1999511719</ele>
        <time>2023-07-17T15:09:10.000Z</time>
      </trkpt>
      <trkpt lat="42.41557" lon="2.20911">
        <ele>2783</ele>
        <time>2023-07-17T15:09:16.000Z</time>
      </trkpt>
      <trkpt lat="42.41558" lon="2.20908">
        <ele>2783</ele>
        <time>2023-07-17T15:09:19.000Z</time>
      </trkpt>
      <trkpt lat="42.41564" lon="2.20902">
        <ele>2782.1999511719</ele>
        <time>2023-07-17T15:09:27.000Z</time>
      </trkpt>
      <trkpt lat="42.41561" lon="2.20902">
        <ele>2781.1999511719</ele>
        <time>2023-07-17T15:09:43.000Z</time>
      </trkpt>
      <trkpt lat="42.41562" lon="2.20903">
        <ele>2781.8000488281</ele>
        <time>2023-07-17T15:09:53.000Z</time>
      </trkpt>
      <trkpt lat="42.41566" lon="2.20903">
        <ele>2781.1999511719</ele>
        <time>2023-07-17T15:10:11.000Z</time>
      </trkpt>
      <trkpt lat="42.41562" lon="2.20908">
        <ele>2780.8000488281</ele>
        <time>2023-07-17T15:10:24.000Z</time>
      </trkpt>
      <trkpt lat="42.41563" lon="2.20908">
        <ele>2781.1999511719</ele>
        <time>2023-07-17T15:10:33.000Z</time>
      </trkpt>
      <trkpt lat="42.41562" lon="2.20908">
        <ele>2781</ele>
        <time>2023-07-17T15:10:45.000Z</time>
      </trkpt>
      <trkpt lat="42.41557" lon="2.2091">
        <ele>2780</ele>
        <time>2023-07-17T15:10:57.000Z</time>
      </trkpt>
      <trkpt lat="42.41556" lon="2.2091">
        <ele>2780</ele>
        <time>2023-07-17T15:11:00.000Z</time>
      </trkpt>
      <trkpt lat="42.41555" lon="2.20911">
        <ele>2779.8000488281</ele>
        <time>2023-07-17T15:11:04.000Z</time>
      </trkpt>
      <trkpt lat="42.41554" lon="2.2091">
        <ele>2780.1999511719</ele>
        <time>2023-07-17T15:11:17.000Z</time>
      </trkpt>
      <trkpt lat="42.41555" lon="2.20909">
        <ele>2780</ele>
        <time>2023-07-17T15:11:25.000Z</time>
      </trkpt>
      <trkpt lat="42.41558" lon="2.20905">
        <ele>2779.6000976562</ele>
        <time>2023-07-17T15:11:33.000Z</time>
      </trkpt>
      <trkpt lat="42.41562" lon="2.20905">
        <ele>2779.8000488281</ele>
        <time>2023-07-17T15:11:40.000Z</time>
      </trkpt>
      <trkpt lat="42.41562" lon="2.2091">
        <ele>2779.6000976562</ele>
        <time>2023-07-17T15:11:58.000Z</time>
      </trkpt>
      <trkpt lat="42.41561" lon="2.20908">
        <ele>2779.6000976562</ele>
        <time>2023-07-17T15:12:07.000Z</time>
      </trkpt>
      <trkpt lat="42.4156" lon="2.20908">
        <ele>2779.3999023438</ele>
        <time>2023-07-17T15:12:15.000Z</time>
      </trkpt>
      <trkpt lat="42.4156" lon="2.20908">
        <ele>2779</ele>
        <time>2023-07-17T15:12:24.000Z</time>
      </trkpt>
      <trkpt lat="42.41561" lon="2.20908">
        <ele>2779</ele>
        <time>2023-07-17T15:12:25.000Z</time>
      </trkpt>
      <trkpt lat="42.41561" lon="2.20907">
        <ele>2778.3999023438</ele>
        <time>2023-07-17T15:12:33.000Z</time>
      </trkpt>
      <trkpt lat="42.41563" lon="2.20905">
        <ele>2778.6000976562</ele>
        <time>2023-07-17T15:12:42.000Z</time>
      </trkpt>
      <trkpt lat="42.41559" lon="2.20909">
        <ele>2779.1999511719</ele>
        <time>2023-07-17T15:12:55.000Z</time>
      </trkpt>
      <trkpt lat="42.41558" lon="2.20909">
        <ele>2779.3999023438</ele>
        <time>2023-07-17T15:13:04.000Z</time>
      </trkpt>
      <trkpt lat="42.41559" lon="2.20904">
        <ele>2779.1999511719</ele>
        <time>2023-07-17T15:13:11.000Z</time>
      </trkpt>
      <trkpt lat="42.41559" lon="2.20903">
        <ele>2779.3999023438</ele>
        <time>2023-07-17T15:13:18.000Z</time>
      </trkpt>
      <trkpt lat="42.41559" lon="2.20905">
        <ele>2779</ele>
        <time>2023-07-17T15:13:24.000Z</time>
      </trkpt>
      <trkpt lat="42.41558" lon="2.20901">
        <ele>2778.3999023438</ele>
        <time>2023-07-17T15:13:39.000Z</time>
      </trkpt>
      <trkpt lat="42.41562" lon="2.20893">
        <ele>2777.8000488281</ele>
        <time>2023-07-17T15:13:45.000Z</time>
      </trkpt>
      <trkpt lat="42.41569" lon="2.20883">
        <ele>2776.8000488281</ele>
        <time>2023-07-17T15:13:53.000Z</time>
      </trkpt>
      <trkpt lat="42.4157" lon="2.2088">
        <ele>2776.6000976562</ele>
        <time>2023-07-17T15:13:55.000Z</time>
      </trkpt>
      <trkpt lat="42.41575" lon="2.20872">
        <ele>2776.3999023438</ele>
        <time>2023-07-17T15:14:02.000Z</time>
      </trkpt>
      <trkpt lat="42.41583" lon="2.20862">
        <ele>2776.3999023438</ele>
        <time>2023-07-17T15:14:14.000Z</time>
      </trkpt>
      <trkpt lat="42.41586" lon="2.20848">
        <ele>2776</ele>
        <time>2023-07-17T15:14:22.000Z</time>
      </trkpt>
      <trkpt lat="42.41593" lon="2.20832">
        <ele>2775.6000976562</ele>
        <time>2023-07-17T15:14:30.000Z</time>
      </trkpt>
      <trkpt lat="42.41593" lon="2.20831">
        <ele>2775.6000976562</ele>
        <time>2023-07-17T15:14:31.000Z</time>
      </trkpt>
      <trkpt lat="42.41593" lon="2.20831">
        <ele>2775.3999023438</ele>
        <time>2023-07-17T15:14:37.000Z</time>
      </trkpt>
      <trkpt lat="42.41592" lon="2.20833">
        <ele>2775.6000976562</ele>
        <time>2023-07-17T15:14:40.000Z</time>
      </trkpt>
      <trkpt lat="42.41588" lon="2.20835">
        <ele>2775.6000976562</ele>
        <time>2023-07-17T15:14:45.000Z</time>
      </trkpt>
      <trkpt lat="42.41588" lon="2.20831">
        <ele>2775.1999511719</ele>
        <time>2023-07-17T15:14:51.000Z</time>
      </trkpt>
      <trkpt lat="42.41591" lon="2.20818">
        <ele>2775.1999511719</ele>
        <time>2023-07-17T15:14:59.000Z</time>
      </trkpt>
      <trkpt lat="42.41594" lon="2.20804">
        <ele>2775</ele>
        <time>2023-07-17T15:15:07.000Z</time>
      </trkpt>
      <trkpt lat="42.41596" lon="2.20794">
        <ele>2775.1999511719</ele>
        <time>2023-07-17T15:15:14.000Z</time>
      </trkpt>
      <trkpt lat="42.41601" lon="2.20781">
        <ele>2775.1999511719</ele>
        <time>2023-07-17T15:15:22.000Z</time>
      </trkpt>
      <trkpt lat="42.41604" lon="2.20772">
        <ele>2775.3999023438</ele>
        <time>2023-07-17T15:15:29.000Z</time>
      </trkpt>
      <trkpt lat="42.41607" lon="2.2076">
        <ele>2774.8000488281</ele>
        <time>2023-07-17T15:15:37.000Z</time>
      </trkpt>
      <trkpt lat="42.41609" lon="2.20753">
        <ele>2774.6000976562</ele>
        <time>2023-07-17T15:15:41.000Z</time>
      </trkpt>
      <trkpt lat="42.41611" lon="2.20749">
        <ele>2774.1999511719</ele>
        <time>2023-07-17T15:15:44.000Z</time>
      </trkpt>
      <trkpt lat="42.41614" lon="2.20738">
        <ele>2775.3999023438</ele>
        <time>2023-07-17T15:15:53.000Z</time>
      </trkpt>
      <trkpt lat="42.41614" lon="2.20736">
        <ele>2775.8000488281</ele>
        <time>2023-07-17T15:15:55.000Z</time>
      </trkpt>
      <trkpt lat="42.41617" lon="2.2073">
        <ele>2776.1999511719</ele>
        <time>2023-07-17T15:16:00.000Z</time>
      </trkpt>
      <trkpt lat="42.41619" lon="2.20728">
        <ele>2776.8000488281</ele>
        <time>2023-07-17T15:16:05.000Z</time>
      </trkpt>
      <trkpt lat="42.41621" lon="2.20726">
        <ele>2777.3999023438</ele>
        <time>2023-07-17T15:16:08.000Z</time>
      </trkpt>
      <trkpt lat="42.41623" lon="2.20724">
        <ele>2777.8000488281</ele>
        <time>2023-07-17T15:16:11.000Z</time>
      </trkpt>
      <trkpt lat="42.41625" lon="2.20721">
        <ele>2778.6000976562</ele>
        <time>2023-07-17T15:16:16.000Z</time>
      </trkpt>
      <trkpt lat="42.41625" lon="2.20718">
        <ele>2779</ele>
        <time>2023-07-17T15:16:20.000Z</time>
      </trkpt>
      <trkpt lat="42.41627" lon="2.20714">
        <ele>2780</ele>
        <time>2023-07-17T15:16:24.000Z</time>
      </trkpt>
      <trkpt lat="42.41627" lon="2.20713">
        <ele>2780</ele>
        <time>2023-07-17T15:16:25.000Z</time>
      </trkpt>
      <trkpt lat="42.41629" lon="2.20708">
        <ele>2780.1999511719</ele>
        <time>2023-07-17T15:16:31.000Z</time>
      </trkpt>
      <trkpt lat="42.41632" lon="2.20702">
        <ele>2780.1999511719</ele>
        <time>2023-07-17T15:16:37.000Z</time>
      </trkpt>
      <trkpt lat="42.41635" lon="2.20696">
        <ele>2780.3999023438</ele>
        <time>2023-07-17T15:16:43.000Z</time>
      </trkpt>
      <trkpt lat="42.41638" lon="2.20688">
        <ele>2781.1999511719</ele>
        <time>2023-07-17T15:16:50.000Z</time>
      </trkpt>
      <trkpt lat="42.41638" lon="2.20685">
        <ele>2781.1999511719</ele>
        <time>2023-07-17T15:16:52.000Z</time>
      </trkpt>
      <trkpt lat="42.41642" lon="2.20678">
        <ele>2781.8000488281</ele>
        <time>2023-07-17T15:17:02.000Z</time>
      </trkpt>
      <trkpt lat="42.41645" lon="2.20667">
        <ele>2781.6000976562</ele>
        <time>2023-07-17T15:17:10.000Z</time>
      </trkpt>
      <trkpt lat="42.41647" lon="2.20661">
        <ele>2782.1999511719</ele>
        <time>2023-07-17T15:17:16.000Z</time>
      </trkpt>
      <trkpt lat="42.41647" lon="2.2066">
        <ele>2782.1999511719</ele>
        <time>2023-07-17T15:17:17.000Z</time>
      </trkpt>
      <trkpt lat="42.41647" lon="2.20657">
        <ele>2783.1999511719</ele>
        <time>2023-07-17T15:17:24.000Z</time>
      </trkpt>
      <trkpt lat="42.41648" lon="2.20657">
        <ele>2783.1999511719</ele>
        <time>2023-07-17T15:17:25.000Z</time>
      </trkpt>
      <trkpt lat="42.4165" lon="2.20652">
        <ele>2784.1999511719</ele>
        <time>2023-07-17T15:17:31.000Z</time>
      </trkpt>
      <trkpt lat="42.41653" lon="2.20648">
        <ele>2784.3999023438</ele>
        <time>2023-07-17T15:17:33.000Z</time>
      </trkpt>
      <trkpt lat="42.41657" lon="2.20638">
        <ele>2784.6000976562</ele>
        <time>2023-07-17T15:17:39.000Z</time>
      </trkpt>
      <trkpt lat="42.41658" lon="2.20629">
        <ele>2785.1999511719</ele>
        <time>2023-07-17T15:17:47.000Z</time>
      </trkpt>
      <trkpt lat="42.41659" lon="2.20627">
        <ele>2785.1999511719</ele>
        <time>2023-07-17T15:17:48.000Z</time>
      </trkpt>
      <trkpt lat="42.41659" lon="2.20618">
        <ele>2785.6000976562</ele>
        <time>2023-07-17T15:17:54.000Z</time>
      </trkpt>
      <trkpt lat="42.41661" lon="2.20611">
        <ele>2785.3999023438</ele>
        <time>2023-07-17T15:18:02.000Z</time>
      </trkpt>
      <trkpt lat="42.41664" lon="2.20603">
        <ele>2785</ele>
        <time>2023-07-17T15:18:09.000Z</time>
      </trkpt>
      <trkpt lat="42.41668" lon="2.2059">
        <ele>2786</ele>
        <time>2023-07-17T15:18:18.000Z</time>
      </trkpt>
      <trkpt lat="42.41668" lon="2.20585">
        <ele>2786.3999023438</ele>
        <time>2023-07-17T15:18:22.000Z</time>
      </trkpt>
      <trkpt lat="42.4167" lon="2.20577">
        <ele>2786.1999511719</ele>
        <time>2023-07-17T15:18:27.000Z</time>
      </trkpt>
      <trkpt lat="42.41674" lon="2.20566">
        <ele>2785.8000488281</ele>
        <time>2023-07-17T15:18:35.000Z</time>
      </trkpt>
      <trkpt lat="42.41678" lon="2.20553">
        <ele>2785.8000488281</ele>
        <time>2023-07-17T15:18:43.000Z</time>
      </trkpt>
      <trkpt lat="42.41681" lon="2.20541">
        <ele>2786.3999023438</ele>
        <time>2023-07-17T15:18:51.000Z</time>
      </trkpt>
      <trkpt lat="42.41684" lon="2.2053">
        <ele>2786.3999023438</ele>
        <time>2023-07-17T15:18:59.000Z</time>
      </trkpt>
      <trkpt lat="42.41688" lon="2.20517">
        <ele>2786.6000976562</ele>
        <time>2023-07-17T15:19:08.000Z</time>
      </trkpt>
      <trkpt lat="42.4169" lon="2.20505">
        <ele>2785.8000488281</ele>
        <time>2023-07-17T15:19:16.000Z</time>
      </trkpt>
      <trkpt lat="42.4169" lon="2.20492">
        <ele>2785.3999023438</ele>
        <time>2023-07-17T15:19:24.000Z</time>
      </trkpt>
      <trkpt lat="42.41689" lon="2.20487">
        <ele>2785.3999023438</ele>
        <time>2023-07-17T15:19:27.000Z</time>
      </trkpt>
      <trkpt lat="42.41689" lon="2.2048">
        <ele>2785</ele>
        <time>2023-07-17T15:19:31.000Z</time>
      </trkpt>
      <trkpt lat="42.4169" lon="2.20467">
        <ele>2784.8000488281</ele>
        <time>2023-07-17T15:19:38.000Z</time>
      </trkpt>
      <trkpt lat="42.41692" lon="2.20454">
        <ele>2784.8000488281</ele>
        <time>2023-07-17T15:19:46.000Z</time>
      </trkpt>
      <trkpt lat="42.41694" lon="2.2044">
        <ele>2784.3999023438</ele>
        <time>2023-07-17T15:19:54.000Z</time>
      </trkpt>
      <trkpt lat="42.41694" lon="2.20427">
        <ele>2785</ele>
        <time>2023-07-17T15:20:03.000Z</time>
      </trkpt>
      <trkpt lat="42.41693" lon="2.2041">
        <ele>2785</ele>
        <time>2023-07-17T15:20:13.000Z</time>
      </trkpt>
      <trkpt lat="42.41693" lon="2.20398">
        <ele>2785.1999511719</ele>
        <time>2023-07-17T15:20:22.000Z</time>
      </trkpt>
      <trkpt lat="42.41691" lon="2.20382">
        <ele>2785.8000488281</ele>
        <time>2023-07-17T15:20:31.000Z</time>
      </trkpt>
      <trkpt lat="42.41692" lon="2.2037">
        <ele>2786.3999023438</ele>
        <time>2023-07-17T15:20:38.000Z</time>
      </trkpt>
      <trkpt lat="42.41692" lon="2.20368">
        <ele>2787</ele>
        <time>2023-07-17T15:20:41.000Z</time>
      </trkpt>
      <trkpt lat="42.41693" lon="2.20366">
        <ele>2787.3999023438</ele>
        <time>2023-07-17T15:20:45.000Z</time>
      </trkpt>
      <trkpt lat="42.41692" lon="2.20366">
        <ele>2788</ele>
        <time>2023-07-17T15:20:49.000Z</time>
      </trkpt>
      <trkpt lat="42.41692" lon="2.20366">
        <ele>2788.6000976562</ele>
        <time>2023-07-17T15:20:54.000Z</time>
      </trkpt>
      <trkpt lat="42.41691" lon="2.20363">
        <ele>2789</ele>
        <time>2023-07-17T15:20:58.000Z</time>
      </trkpt>
      <trkpt lat="42.41692" lon="2.20362">
        <ele>2789.6000976562</ele>
        <time>2023-07-17T15:21:07.000Z</time>
      </trkpt>
      <trkpt lat="42.41693" lon="2.20362">
        <ele>2789.8000488281</ele>
        <time>2023-07-17T15:21:08.000Z</time>
      </trkpt>
      <trkpt lat="42.41695" lon="2.20363">
        <ele>2790.1999511719</ele>
        <time>2023-07-17T15:21:17.000Z</time>
      </trkpt>
      <trkpt lat="42.41692" lon="2.20366">
        <ele>2790.3999023438</ele>
        <time>2023-07-17T15:21:24.000Z</time>
      </trkpt>
      <trkpt lat="42.41693" lon="2.20365">
        <ele>2790.1999511719</ele>
        <time>2023-07-17T15:21:31.000Z</time>
      </trkpt>
      <trkpt lat="42.4169" lon="2.20367">
        <ele>2789.8000488281</ele>
        <time>2023-07-17T15:21:42.000Z</time>
      </trkpt>
      <trkpt lat="42.41692" lon="2.20363">
        <ele>2789.6000976562</ele>
        <time>2023-07-17T15:21:49.000Z</time>
      </trkpt>
      <trkpt lat="42.4169" lon="2.20361">
        <ele>2788.8000488281</ele>
        <time>2023-07-17T15:21:57.000Z</time>
      </trkpt>
      <trkpt lat="42.41691" lon="2.20361">
        <ele>2788.6000976562</ele>
        <time>2023-07-17T15:22:04.000Z</time>
      </trkpt>
      <trkpt lat="42.41691" lon="2.20365">
        <ele>2788.6000976562</ele>
        <time>2023-07-17T15:22:12.000Z</time>
      </trkpt>
      <trkpt lat="42.41692" lon="2.20363">
        <ele>2788.3999023438</ele>
        <time>2023-07-17T15:22:22.000Z</time>
      </trkpt>
      <trkpt lat="42.41692" lon="2.20363">
        <ele>2788.1999511719</ele>
        <time>2023-07-17T15:22:31.000Z</time>
      </trkpt>
      <trkpt lat="42.41693" lon="2.20363">
        <ele>2787.8000488281</ele>
        <time>2023-07-17T15:22:42.000Z</time>
      </trkpt>
      <trkpt lat="42.41693" lon="2.20363">
        <ele>2787.3999023438</ele>
        <time>2023-07-17T15:22:43.000Z</time>
      </trkpt>
      <trkpt lat="42.41695" lon="2.20359">
        <ele>2787.6000976562</ele>
        <time>2023-07-17T15:22:52.000Z</time>
      </trkpt>
      <trkpt lat="42.41695" lon="2.20359">
        <ele>2787.1999511719</ele>
        <time>2023-07-17T15:23:00.000Z</time>
      </trkpt>
      <trkpt lat="42.41693" lon="2.20361">
        <ele>2786</ele>
        <time>2023-07-17T15:23:08.000Z</time>
      </trkpt>
      <trkpt lat="42.41691" lon="2.20361">
        <ele>2787.1999511719</ele>
        <time>2023-07-17T15:23:15.000Z</time>
      </trkpt>
      <trkpt lat="42.41691" lon="2.20361">
        <ele>2788.6000976562</ele>
        <time>2023-07-17T15:23:16.000Z</time>
      </trkpt>
      <trkpt lat="42.41689" lon="2.20361">
        <ele>2788.1999511719</ele>
        <time>2023-07-17T15:23:26.000Z</time>
      </trkpt>
      <trkpt lat="42.41688" lon="2.20358">
        <ele>2787.6000976562</ele>
        <time>2023-07-17T15:23:33.000Z</time>
      </trkpt>
      <trkpt lat="42.41688" lon="2.20357">
        <ele>2787.3999023438</ele>
        <time>2023-07-17T15:23:34.000Z</time>
      </trkpt>
      <trkpt lat="42.41685" lon="2.20349">
        <ele>2786.3999023438</ele>
        <time>2023-07-17T15:23:41.000Z</time>
      </trkpt>
      <trkpt lat="42.41684" lon="2.20348">
        <ele>2786.1999511719</ele>
        <time>2023-07-17T15:23:42.000Z</time>
      </trkpt>
      <trkpt lat="42.4168" lon="2.20336">
        <ele>2787.6000976562</ele>
        <time>2023-07-17T15:23:50.000Z</time>
      </trkpt>
      <trkpt lat="42.4168" lon="2.20335">
        <ele>2788.1999511719</ele>
        <time>2023-07-17T15:23:51.000Z</time>
      </trkpt>
      <trkpt lat="42.41679" lon="2.20332">
        <ele>2788.6000976562</ele>
        <time>2023-07-17T15:23:53.000Z</time>
      </trkpt>
      <trkpt lat="42.41677" lon="2.20321">
        <ele>2789</ele>
        <time>2023-07-17T15:24:00.000Z</time>
      </trkpt>
      <trkpt lat="42.41676" lon="2.2031">
        <ele>2788.1999511719</ele>
        <time>2023-07-17T15:24:08.000Z</time>
      </trkpt>
      <trkpt lat="42.41672" lon="2.203">
        <ele>2789.3999023438</ele>
        <time>2023-07-17T15:24:16.000Z</time>
      </trkpt>
      <trkpt lat="42.41671" lon="2.20299">
        <ele>2789.8000488281</ele>
        <time>2023-07-17T15:24:17.000Z</time>
      </trkpt>
      <trkpt lat="42.41665" lon="2.2029">
        <ele>2790.6000976562</ele>
        <time>2023-07-17T15:24:25.000Z</time>
      </trkpt>
      <trkpt lat="42.41661" lon="2.20281">
        <ele>2790.6000976562</ele>
        <time>2023-07-17T15:24:33.000Z</time>
      </trkpt>
      <trkpt lat="42.4166" lon="2.2028">
        <ele>2790.8000488281</ele>
        <time>2023-07-17T15:24:34.000Z</time>
      </trkpt>
      <trkpt lat="42.41657" lon="2.20271">
        <ele>2791.8000488281</ele>
        <time>2023-07-17T15:24:42.000Z</time>
      </trkpt>
      <trkpt lat="42.41657" lon="2.2027">
        <ele>2791.8000488281</ele>
        <time>2023-07-17T15:24:43.000Z</time>
      </trkpt>
      <trkpt lat="42.41651" lon="2.2026">
        <ele>2791.8000488281</ele>
        <time>2023-07-17T15:24:51.000Z</time>
      </trkpt>
      <trkpt lat="42.4165" lon="2.20249">
        <ele>2791</ele>
        <time>2023-07-17T15:24:59.000Z</time>
      </trkpt>
      <trkpt lat="42.41649" lon="2.2024">
        <ele>2792</ele>
        <time>2023-07-17T15:25:07.000Z</time>
      </trkpt>
      <trkpt lat="42.41648" lon="2.20234">
        <ele>2792.8000488281</ele>
        <time>2023-07-17T15:25:13.000Z</time>
      </trkpt>
      <trkpt lat="42.41648" lon="2.2023">
        <ele>2793.8000488281</ele>
        <time>2023-07-17T15:25:17.000Z</time>
      </trkpt>
      <trkpt lat="42.41648" lon="2.20228">
        <ele>2794</ele>
        <time>2023-07-17T15:25:18.000Z</time>
      </trkpt>
      <trkpt lat="42.41646" lon="2.20219">
        <ele>2795.3999023438</ele>
        <time>2023-07-17T15:25:26.000Z</time>
      </trkpt>
      <trkpt lat="42.41646" lon="2.20215">
        <ele>2796.3999023438</ele>
        <time>2023-07-17T15:25:29.000Z</time>
      </trkpt>
      <trkpt lat="42.41644" lon="2.20213">
        <ele>2797</ele>
        <time>2023-07-17T15:25:33.000Z</time>
      </trkpt>
      <trkpt lat="42.41642" lon="2.2021">
        <ele>2797.6000976562</ele>
        <time>2023-07-17T15:25:38.000Z</time>
      </trkpt>
      <trkpt lat="42.41641" lon="2.20207">
        <ele>2798.6000976562</ele>
        <time>2023-07-17T15:25:40.000Z</time>
      </trkpt>
      <trkpt lat="42.41637" lon="2.20196">
        <ele>2799</ele>
        <time>2023-07-17T15:25:50.000Z</time>
      </trkpt>
      <trkpt lat="42.41634" lon="2.20194">
        <ele>2799.8000488281</ele>
        <time>2023-07-17T15:25:53.000Z</time>
      </trkpt>
      <trkpt lat="42.41632" lon="2.20191">
        <ele>2800.3999023438</ele>
        <time>2023-07-17T15:25:58.000Z</time>
      </trkpt>
      <trkpt lat="42.41633" lon="2.2019">
        <ele>2800.8000488281</ele>
        <time>2023-07-17T15:26:00.000Z</time>
      </trkpt>
      <trkpt lat="42.41633" lon="2.20186">
        <ele>2802</ele>
        <time>2023-07-17T15:26:04.000Z</time>
      </trkpt>
      <trkpt lat="42.41632" lon="2.20186">
        <ele>2802.3999023438</ele>
        <time>2023-07-17T15:26:05.000Z</time>
      </trkpt>
      <trkpt lat="42.41628" lon="2.20179">
        <ele>2803</ele>
        <time>2023-07-17T15:26:13.000Z</time>
      </trkpt>
      <trkpt lat="42.41624" lon="2.20168">
        <ele>2804</ele>
        <time>2023-07-17T15:26:22.000Z</time>
      </trkpt>
      <trkpt lat="42.41622" lon="2.20165">
        <ele>2804.1999511719</ele>
        <time>2023-07-17T15:26:26.000Z</time>
      </trkpt>
      <trkpt lat="42.4162" lon="2.20159">
        <ele>2804.6000976562</ele>
        <time>2023-07-17T15:26:31.000Z</time>
      </trkpt>
      <trkpt lat="42.41621" lon="2.20152">
        <ele>2804.3999023438</ele>
        <time>2023-07-17T15:26:39.000Z</time>
      </trkpt>
      <trkpt lat="42.41622" lon="2.20142">
        <ele>2803</ele>
        <time>2023-07-17T15:26:49.000Z</time>
      </trkpt>
      <trkpt lat="42.41622" lon="2.20134">
        <ele>2801.8000488281</ele>
        <time>2023-07-17T15:26:57.000Z</time>
      </trkpt>
      <trkpt lat="42.41622" lon="2.20132">
        <ele>2801.6000976562</ele>
        <time>2023-07-17T15:26:58.000Z</time>
      </trkpt>
      <trkpt lat="42.41624" lon="2.20121">
        <ele>2801</ele>
        <time>2023-07-17T15:27:07.000Z</time>
      </trkpt>
      <trkpt lat="42.41627" lon="2.20115">
        <ele>2801</ele>
        <time>2023-07-17T15:27:14.000Z</time>
      </trkpt>
      <trkpt lat="42.41628" lon="2.2011">
        <ele>2801.6000976562</ele>
        <time>2023-07-17T15:27:22.000Z</time>
      </trkpt>
      <trkpt lat="42.41626" lon="2.20112">
        <ele>2802.1999511719</ele>
        <time>2023-07-17T15:27:30.000Z</time>
      </trkpt>
      <trkpt lat="42.41629" lon="2.20104">
        <ele>2802.6000976562</ele>
        <time>2023-07-17T15:27:36.000Z</time>
      </trkpt>
      <trkpt lat="42.4163" lon="2.20103">
        <ele>2802.8000488281</ele>
        <time>2023-07-17T15:27:37.000Z</time>
      </trkpt>
      <trkpt lat="42.41633" lon="2.20096">
        <ele>2803.6000976562</ele>
        <time>2023-07-17T15:27:41.000Z</time>
      </trkpt>
      <trkpt lat="42.41635" lon="2.2009">
        <ele>2803.8000488281</ele>
        <time>2023-07-17T15:27:47.000Z</time>
      </trkpt>
      <trkpt lat="42.41639" lon="2.2008">
        <ele>2802.6000976562</ele>
        <time>2023-07-17T15:27:55.000Z</time>
      </trkpt>
      <trkpt lat="42.41641" lon="2.20072">
        <ele>2803.1999511719</ele>
        <time>2023-07-17T15:28:03.000Z</time>
      </trkpt>
      <trkpt lat="42.41643" lon="2.20065">
        <ele>2803.6000976562</ele>
        <time>2023-07-17T15:28:10.000Z</time>
      </trkpt>
      <trkpt lat="42.41647" lon="2.20058">
        <ele>2803.3999023438</ele>
        <time>2023-07-17T15:28:18.000Z</time>
      </trkpt>
      <trkpt lat="42.41649" lon="2.20058">
        <ele>2802.6000976562</ele>
        <time>2023-07-17T15:28:23.000Z</time>
      </trkpt>
      <trkpt lat="42.41649" lon="2.20059">
        <ele>2802.6000976562</ele>
        <time>2023-07-17T15:28:25.000Z</time>
      </trkpt>
      <trkpt lat="42.41649" lon="2.2006">
        <ele>2802</ele>
        <time>2023-07-17T15:28:35.000Z</time>
      </trkpt>
      <trkpt lat="42.41649" lon="2.2006">
        <ele>2801.8000488281</ele>
        <time>2023-07-17T15:28:37.000Z</time>
      </trkpt>
      <trkpt lat="42.41646" lon="2.20061">
        <ele>2801.3999023438</ele>
        <time>2023-07-17T15:28:43.000Z</time>
      </trkpt>
      <trkpt lat="42.41646" lon="2.20059">
        <ele>2800.3999023438</ele>
        <time>2023-07-17T15:28:45.000Z</time>
      </trkpt>
      <trkpt lat="42.41645" lon="2.20058">
        <ele>2800.3999023438</ele>
        <time>2023-07-17T15:28:52.000Z</time>
      </trkpt>
      <trkpt lat="42.41646" lon="2.20059">
        <ele>2800.3999023438</ele>
        <time>2023-07-17T15:29:02.000Z</time>
      </trkpt>
      <trkpt lat="42.41647" lon="2.2006">
        <ele>2800.8000488281</ele>
        <time>2023-07-17T15:29:11.000Z</time>
      </trkpt>
      <trkpt lat="42.41647" lon="2.20059">
        <ele>2800</ele>
        <time>2023-07-17T15:29:17.000Z</time>
      </trkpt>
      <trkpt lat="42.41647" lon="2.20058">
        <ele>2799.1999511719</ele>
        <time>2023-07-17T15:29:20.000Z</time>
      </trkpt>
      <trkpt lat="42.41647" lon="2.20057">
        <ele>2798.8000488281</ele>
        <time>2023-07-17T15:29:22.000Z</time>
      </trkpt>
      <trkpt lat="42.41644" lon="2.20056">
        <ele>2800.6000976562</ele>
        <time>2023-07-17T15:29:28.000Z</time>
      </trkpt>
      <trkpt lat="42.41643" lon="2.20057">
        <ele>2800.8000488281</ele>
        <time>2023-07-17T15:29:29.000Z</time>
      </trkpt>
      <trkpt lat="42.41641" lon="2.20063">
        <ele>2798.8000488281</ele>
        <time>2023-07-17T15:29:35.000Z</time>
      </trkpt>
      <trkpt lat="42.41641" lon="2.20063">
        <ele>2797.8000488281</ele>
        <time>2023-07-17T15:29:37.000Z</time>
      </trkpt>
      <trkpt lat="42.41642" lon="2.20062">
        <ele>2797.6000976562</ele>
        <time>2023-07-17T15:29:42.000Z</time>
      </trkpt>
      <trkpt lat="42.41641" lon="2.20061">
        <ele>2796</ele>
        <time>2023-07-17T15:29:48.000Z</time>
      </trkpt>
      <trkpt lat="42.41642" lon="2.20061">
        <ele>2795.8000488281</ele>
        <time>2023-07-17T15:29:51.000Z</time>
      </trkpt>
      <trkpt lat="42.41643" lon="2.2006">
        <ele>2797.8000488281</ele>
        <time>2023-07-17T15:29:56.000Z</time>
      </trkpt>
      <trkpt lat="42.41645" lon="2.20059">
        <ele>2798.6000976562</ele>
        <time>2023-07-17T15:29:59.000Z</time>
      </trkpt>
      <trkpt lat="42.41646" lon="2.20058">
        <ele>2799.1999511719</ele>
        <time>2023-07-17T15:30:01.000Z</time>
      </trkpt>
      <trkpt lat="42.41648" lon="2.20056">
        <ele>2799.8000488281</ele>
        <time>2023-07-17T15:30:06.000Z</time>
      </trkpt>
      <trkpt lat="42.41648" lon="2.20056">
        <ele>2800.3999023438</ele>
        <time>2023-07-17T15:30:10.000Z</time>
      </trkpt>
      <trkpt lat="42.41648" lon="2.20056">
        <ele>2800.1999511719</ele>
        <time>2023-07-17T15:30:14.000Z</time>
      </trkpt>
      <trkpt lat="42.41647" lon="2.20055">
        <ele>2799.1999511719</ele>
        <time>2023-07-17T15:30:19.000Z</time>
      </trkpt>
      <trkpt lat="42.41647" lon="2.20053">
        <ele>2798.8000488281</ele>
        <time>2023-07-17T15:30:23.000Z</time>
      </trkpt>
      <trkpt lat="42.41646" lon="2.20051">
        <ele>2798.1999511719</ele>
        <time>2023-07-17T15:30:26.000Z</time>
      </trkpt>
      <trkpt lat="42.41647" lon="2.20045">
        <ele>2797.8000488281</ele>
        <time>2023-07-17T15:30:30.000Z</time>
      </trkpt>
      <trkpt lat="42.41647" lon="2.20035">
        <ele>2798.1999511719</ele>
        <time>2023-07-17T15:30:39.000Z</time>
      </trkpt>
      <trkpt lat="42.41651" lon="2.20023">
        <ele>2799.1999511719</ele>
        <time>2023-07-17T15:30:48.000Z</time>
      </trkpt>
      <trkpt lat="42.41651" lon="2.20023">
        <ele>2799.3999023438</ele>
        <time>2023-07-17T15:30:49.000Z</time>
      </trkpt>
      <trkpt lat="42.41651" lon="2.20015">
        <ele>2798.3999023438</ele>
        <time>2023-07-17T15:30:56.000Z</time>
      </trkpt>
      <trkpt lat="42.41651" lon="2.20014">
        <ele>2798.3999023438</ele>
        <time>2023-07-17T15:30:57.000Z</time>
      </trkpt>
      <trkpt lat="42.41651" lon="2.20011">
        <ele>2799.3999023438</ele>
        <time>2023-07-17T15:31:00.000Z</time>
      </trkpt>
      <trkpt lat="42.41651" lon="2.20003">
        <ele>2800</ele>
        <time>2023-07-17T15:31:05.000Z</time>
      </trkpt>
      <trkpt lat="42.4165" lon="2.19996">
        <ele>2800.3999023438</ele>
        <time>2023-07-17T15:31:09.000Z</time>
      </trkpt>
      <trkpt lat="42.4165" lon="2.1999">
        <ele>2800.6000976562</ele>
        <time>2023-07-17T15:31:13.000Z</time>
      </trkpt>
      <trkpt lat="42.41649" lon="2.19977">
        <ele>2801.1999511719</ele>
        <time>2023-07-17T15:31:21.000Z</time>
      </trkpt>
      <trkpt lat="42.4165" lon="2.1997">
        <ele>2800.3999023438</ele>
        <time>2023-07-17T15:31:29.000Z</time>
      </trkpt>
      <trkpt lat="42.41651" lon="2.19972">
        <ele>2800.1999511719</ele>
        <time>2023-07-17T15:31:32.000Z</time>
      </trkpt>
      <trkpt lat="42.4165" lon="2.19972">
        <ele>2800.1999511719</ele>
        <time>2023-07-17T15:31:35.000Z</time>
      </trkpt>
      <trkpt lat="42.4165" lon="2.19973">
        <ele>2800.1999511719</ele>
        <time>2023-07-17T15:31:36.000Z</time>
      </trkpt>
      <trkpt lat="42.41649" lon="2.19975">
        <ele>2799.3999023438</ele>
        <time>2023-07-17T15:31:43.000Z</time>
      </trkpt>
      <trkpt lat="42.41649" lon="2.19975">
        <ele>2799.3999023438</ele>
        <time>2023-07-17T15:31:44.000Z</time>
      </trkpt>
      <trkpt lat="42.41648" lon="2.19975">
        <ele>2798.8000488281</ele>
        <time>2023-07-17T15:31:54.000Z</time>
      </trkpt>
      <trkpt lat="42.4165" lon="2.19969">
        <ele>2798.1999511719</ele>
        <time>2023-07-17T15:31:59.000Z</time>
      </trkpt>
      <trkpt lat="42.4165" lon="2.19967">
        <ele>2797.3999023438</ele>
        <time>2023-07-17T15:32:02.000Z</time>
      </trkpt>
      <trkpt lat="42.4165" lon="2.19967">
        <ele>2797.1999511719</ele>
        <time>2023-07-17T15:32:03.000Z</time>
      </trkpt>
      <trkpt lat="42.41653" lon="2.19962">
        <ele>2796</ele>
        <time>2023-07-17T15:32:08.000Z</time>
      </trkpt>
      <trkpt lat="42.41658" lon="2.19955">
        <ele>2795</ele>
        <time>2023-07-17T15:32:14.000Z</time>
      </trkpt>
      <trkpt lat="42.41657" lon="2.19955">
        <ele>2794.6000976562</ele>
        <time>2023-07-17T15:32:15.000Z</time>
      </trkpt>
      <trkpt lat="42.41657" lon="2.19955">
        <ele>2794</ele>
        <time>2023-07-17T15:32:17.000Z</time>
      </trkpt>
      <trkpt lat="42.41655" lon="2.19955">
        <ele>2792.6000976562</ele>
        <time>2023-07-17T15:32:22.000Z</time>
      </trkpt>
      <trkpt lat="42.41656" lon="2.19953">
        <ele>2791.1999511719</ele>
        <time>2023-07-17T15:32:24.000Z</time>
      </trkpt>
      <trkpt lat="42.41665" lon="2.19942">
        <ele>2790.1999511719</ele>
        <time>2023-07-17T15:32:32.000Z</time>
      </trkpt>
      <trkpt lat="42.41664" lon="2.19942">
        <ele>2790</ele>
        <time>2023-07-17T15:32:33.000Z</time>
      </trkpt>
      <trkpt lat="42.41663" lon="2.19941">
        <ele>2789.3999023438</ele>
        <time>2023-07-17T15:32:36.000Z</time>
      </trkpt>
      <trkpt lat="42.41662" lon="2.1994">
        <ele>2789</ele>
        <time>2023-07-17T15:32:37.000Z</time>
      </trkpt>
      <trkpt lat="42.41661" lon="2.19938">
        <ele>2788.6000976562</ele>
        <time>2023-07-17T15:32:38.000Z</time>
      </trkpt>
      <trkpt lat="42.41661" lon="2.19937">
        <ele>2788.3999023438</ele>
        <time>2023-07-17T15:32:39.000Z</time>
      </trkpt>
      <trkpt lat="42.41662" lon="2.19936">
        <ele>2788.3999023438</ele>
        <time>2023-07-17T15:32:40.000Z</time>
      </trkpt>
      <trkpt lat="42.41663" lon="2.19932">
        <ele>2787.8000488281</ele>
        <time>2023-07-17T15:32:45.000Z</time>
      </trkpt>
      <trkpt lat="42.41663" lon="2.19932">
        <ele>2787.1999511719</ele>
        <time>2023-07-17T15:32:46.000Z</time>
      </trkpt>
      <trkpt lat="42.41664" lon="2.1993">
        <ele>2786.8000488281</ele>
        <time>2023-07-17T15:32:51.000Z</time>
      </trkpt>
      <trkpt lat="42.41664" lon="2.1993">
        <ele>2786.6000976562</ele>
        <time>2023-07-17T15:32:52.000Z</time>
      </trkpt>
      <trkpt lat="42.41663" lon="2.19929">
        <ele>2785.6000976562</ele>
        <time>2023-07-17T15:32:56.000Z</time>
      </trkpt>
      <trkpt lat="42.41665" lon="2.19927">
        <ele>2784.3999023438</ele>
        <time>2023-07-17T15:32:59.000Z</time>
      </trkpt>
      <trkpt lat="42.41672" lon="2.19919">
        <ele>2783.8000488281</ele>
        <time>2023-07-17T15:33:06.000Z</time>
      </trkpt>
      <trkpt lat="42.41677" lon="2.19915">
        <ele>2783.1999511719</ele>
        <time>2023-07-17T15:33:11.000Z</time>
      </trkpt>
      <trkpt lat="42.4168" lon="2.19912">
        <ele>2782.8000488281</ele>
        <time>2023-07-17T15:33:14.000Z</time>
      </trkpt>
      <trkpt lat="42.41681" lon="2.19911">
        <ele>2782.1999511719</ele>
        <time>2023-07-17T15:33:16.000Z</time>
      </trkpt>
      <trkpt lat="42.41682" lon="2.19907">
        <ele>2781</ele>
        <time>2023-07-17T15:33:21.000Z</time>
      </trkpt>
      <trkpt lat="42.41682" lon="2.19907">
        <ele>2780.6000976562</ele>
        <time>2023-07-17T15:33:22.000Z</time>
      </trkpt>
      <trkpt lat="42.41682" lon="2.19908">
        <ele>2780.1999511719</ele>
        <time>2023-07-17T15:33:26.000Z</time>
      </trkpt>
      <trkpt lat="42.41681" lon="2.19907">
        <ele>2780.1999511719</ele>
        <time>2023-07-17T15:33:31.000Z</time>
      </trkpt>
      <trkpt lat="42.41684" lon="2.19904">
        <ele>2780</ele>
        <time>2023-07-17T15:33:39.000Z</time>
      </trkpt>
      <trkpt lat="42.41688" lon="2.19902">
        <ele>2778.6000976562</ele>
        <time>2023-07-17T15:33:45.000Z</time>
      </trkpt>
      <trkpt lat="42.41689" lon="2.199">
        <ele>2778</ele>
        <time>2023-07-17T15:33:47.000Z</time>
      </trkpt>
      <trkpt lat="42.4169" lon="2.19899">
        <ele>2777.3999023438</ele>
        <time>2023-07-17T15:33:49.000Z</time>
      </trkpt>
      <trkpt lat="42.4169" lon="2.19896">
        <ele>2776</ele>
        <time>2023-07-17T15:33:52.000Z</time>
      </trkpt>
      <trkpt lat="42.41691" lon="2.19894">
        <ele>2775</ele>
        <time>2023-07-17T15:33:54.000Z</time>
      </trkpt>
      <trkpt lat="42.41691" lon="2.19893">
        <ele>2774.6000976562</ele>
        <time>2023-07-17T15:33:55.000Z</time>
      </trkpt>
      <trkpt lat="42.41691" lon="2.19892">
        <ele>2773.6000976562</ele>
        <time>2023-07-17T15:33:56.000Z</time>
      </trkpt>
      <trkpt lat="42.41692" lon="2.1989">
        <ele>2772.3999023438</ele>
        <time>2023-07-17T15:33:58.000Z</time>
      </trkpt>
      <trkpt lat="42.41693" lon="2.19884">
        <ele>2771.6000976562</ele>
        <time>2023-07-17T15:34:04.000Z</time>
      </trkpt>
      <trkpt lat="42.41694" lon="2.19882">
        <ele>2771.3999023438</ele>
        <time>2023-07-17T15:34:06.000Z</time>
      </trkpt>
      <trkpt lat="42.41697" lon="2.19876">
        <ele>2770.6000976562</ele>
        <time>2023-07-17T15:34:13.000Z</time>
      </trkpt>
      <trkpt lat="42.41697" lon="2.19875">
        <ele>2770</ele>
        <time>2023-07-17T15:34:14.000Z</time>
      </trkpt>
      <trkpt lat="42.41702" lon="2.19868">
        <ele>2768.6000976562</ele>
        <time>2023-07-17T15:34:19.000Z</time>
      </trkpt>
      <trkpt lat="42.41702" lon="2.19866">
        <ele>2768</ele>
        <time>2023-07-17T15:34:21.000Z</time>
      </trkpt>
      <trkpt lat="42.41703" lon="2.19864">
        <ele>2767.3999023438</ele>
        <time>2023-07-17T15:34:23.000Z</time>
      </trkpt>
      <trkpt lat="42.41706" lon="2.19859">
        <ele>2767</ele>
        <time>2023-07-17T15:34:28.000Z</time>
      </trkpt>
      <trkpt lat="42.41709" lon="2.19852">
        <ele>2766.6000976562</ele>
        <time>2023-07-17T15:34:37.000Z</time>
      </trkpt>
      <trkpt lat="42.41709" lon="2.1985">
        <ele>2766.3999023438</ele>
        <time>2023-07-17T15:34:39.000Z</time>
      </trkpt>
      <trkpt lat="42.41711" lon="2.19847">
        <ele>2765.1999511719</ele>
        <time>2023-07-17T15:34:43.000Z</time>
      </trkpt>
      <trkpt lat="42.41712" lon="2.19845">
        <ele>2764.8000488281</ele>
        <time>2023-07-17T15:34:45.000Z</time>
      </trkpt>
      <trkpt lat="42.41716" lon="2.19843">
        <ele>2764.1999511719</ele>
        <time>2023-07-17T15:34:48.000Z</time>
      </trkpt>
      <trkpt lat="42.4172" lon="2.19841">
        <ele>2763</ele>
        <time>2023-07-17T15:34:52.000Z</time>
      </trkpt>
      <trkpt lat="42.41723" lon="2.19839">
        <ele>2762</ele>
        <time>2023-07-17T15:34:56.000Z</time>
      </trkpt>
      <trkpt lat="42.41726" lon="2.19836">
        <ele>2761</ele>
        <time>2023-07-17T15:35:01.000Z</time>
      </trkpt>
      <trkpt lat="42.41727" lon="2.19835">
        <ele>2760.6000976562</ele>
        <time>2023-07-17T15:35:02.000Z</time>
      </trkpt>
      <trkpt lat="42.41728" lon="2.19833">
        <ele>2759.6000976562</ele>
        <time>2023-07-17T15:35:04.000Z</time>
      </trkpt>
      <trkpt lat="42.4173" lon="2.19829">
        <ele>2757.8000488281</ele>
        <time>2023-07-17T15:35:07.000Z</time>
      </trkpt>
      <trkpt lat="42.41732" lon="2.19826">
        <ele>2757.1999511719</ele>
        <time>2023-07-17T15:35:09.000Z</time>
      </trkpt>
      <trkpt lat="42.41732" lon="2.19824">
        <ele>2756.8000488281</ele>
        <time>2023-07-17T15:35:11.000Z</time>
      </trkpt>
      <trkpt lat="42.41732" lon="2.19815">
        <ele>2756.1999511719</ele>
        <time>2023-07-17T15:35:17.000Z</time>
      </trkpt>
      <trkpt lat="42.41733" lon="2.19809">
        <ele>2755.6000976562</ele>
        <time>2023-07-17T15:35:21.000Z</time>
      </trkpt>
      <trkpt lat="42.41734" lon="2.19806">
        <ele>2754.1999511719</ele>
        <time>2023-07-17T15:35:23.000Z</time>
      </trkpt>
      <trkpt lat="42.41735" lon="2.19803">
        <ele>2753</ele>
        <time>2023-07-17T15:35:25.000Z</time>
      </trkpt>
      <trkpt lat="42.41735" lon="2.19802">
        <ele>2752.8000488281</ele>
        <time>2023-07-17T15:35:26.000Z</time>
      </trkpt>
      <trkpt lat="42.41745" lon="2.19798">
        <ele>2753.6000976562</ele>
        <time>2023-07-17T15:35:34.000Z</time>
      </trkpt>
      <trkpt lat="42.41747" lon="2.19794">
        <ele>2752</ele>
        <time>2023-07-17T15:35:39.000Z</time>
      </trkpt>
      <trkpt lat="42.41747" lon="2.19791">
        <ele>2750</ele>
        <time>2023-07-17T15:35:41.000Z</time>
      </trkpt>
      <trkpt lat="42.41746" lon="2.1979">
        <ele>2749.3999023438</ele>
        <time>2023-07-17T15:35:42.000Z</time>
      </trkpt>
      <trkpt lat="42.41746" lon="2.19788">
        <ele>2748.6000976562</ele>
        <time>2023-07-17T15:35:43.000Z</time>
      </trkpt>
      <trkpt lat="42.41746" lon="2.19785">
        <ele>2747.3999023438</ele>
        <time>2023-07-17T15:35:45.000Z</time>
      </trkpt>
      <trkpt lat="42.41749" lon="2.19781">
        <ele>2746.8000488281</ele>
        <time>2023-07-17T15:35:49.000Z</time>
      </trkpt>
      <trkpt lat="42.41751" lon="2.19774">
        <ele>2746.8000488281</ele>
        <time>2023-07-17T15:35:55.000Z</time>
      </trkpt>
      <trkpt lat="42.41751" lon="2.19772">
        <ele>2745.8000488281</ele>
        <time>2023-07-17T15:35:56.000Z</time>
      </trkpt>
      <trkpt lat="42.41754" lon="2.19764">
        <ele>2744.8000488281</ele>
        <time>2023-07-17T15:36:01.000Z</time>
      </trkpt>
      <trkpt lat="42.41754" lon="2.1976">
        <ele>2744.1999511719</ele>
        <time>2023-07-17T15:36:04.000Z</time>
      </trkpt>
      <trkpt lat="42.41755" lon="2.19757">
        <ele>2743.8000488281</ele>
        <time>2023-07-17T15:36:06.000Z</time>
      </trkpt>
      <trkpt lat="42.41758" lon="2.19748">
        <ele>2743.3999023438</ele>
        <time>2023-07-17T15:36:13.000Z</time>
      </trkpt>
      <trkpt lat="42.41759" lon="2.19745">
        <ele>2742.6000976562</ele>
        <time>2023-07-17T15:36:15.000Z</time>
      </trkpt>
      <trkpt lat="42.41761" lon="2.19733">
        <ele>2742.3999023438</ele>
        <time>2023-07-17T15:36:22.000Z</time>
      </trkpt>
      <trkpt lat="42.41764" lon="2.1972">
        <ele>2741</ele>
        <time>2023-07-17T15:36:29.000Z</time>
      </trkpt>
      <trkpt lat="42.41763" lon="2.19717">
        <ele>2739.1999511719</ele>
        <time>2023-07-17T15:36:31.000Z</time>
      </trkpt>
      <trkpt lat="42.41765" lon="2.19705">
        <ele>2739.8000488281</ele>
        <time>2023-07-17T15:36:38.000Z</time>
      </trkpt>
      <trkpt lat="42.41771" lon="2.19693">
        <ele>2738.1999511719</ele>
        <time>2023-07-17T15:36:46.000Z</time>
      </trkpt>
      <trkpt lat="42.41771" lon="2.19692">
        <ele>2738</ele>
        <time>2023-07-17T15:36:47.000Z</time>
      </trkpt>
      <trkpt lat="42.41776" lon="2.19682">
        <ele>2737</ele>
        <time>2023-07-17T15:36:54.000Z</time>
      </trkpt>
      <trkpt lat="42.41777" lon="2.1968">
        <ele>2736.8000488281</ele>
        <time>2023-07-17T15:36:56.000Z</time>
      </trkpt>
      <trkpt lat="42.41778" lon="2.19678">
        <ele>2735.8000488281</ele>
        <time>2023-07-17T15:36:58.000Z</time>
      </trkpt>
      <trkpt lat="42.41779" lon="2.19675">
        <ele>2734.1999511719</ele>
        <time>2023-07-17T15:37:00.000Z</time>
      </trkpt>
      <trkpt lat="42.41782" lon="2.1967">
        <ele>2733.6000976562</ele>
        <time>2023-07-17T15:37:04.000Z</time>
      </trkpt>
      <trkpt lat="42.41782" lon="2.19655">
        <ele>2734.6000976562</ele>
        <time>2023-07-17T15:37:13.000Z</time>
      </trkpt>
      <trkpt lat="42.41784" lon="2.19647">
        <ele>2733.1999511719</ele>
        <time>2023-07-17T15:37:18.000Z</time>
      </trkpt>
      <trkpt lat="42.41785" lon="2.19644">
        <ele>2732.8000488281</ele>
        <time>2023-07-17T15:37:20.000Z</time>
      </trkpt>
      <trkpt lat="42.41787" lon="2.19638">
        <ele>2732</ele>
        <time>2023-07-17T15:37:24.000Z</time>
      </trkpt>
      <trkpt lat="42.41789" lon="2.19632">
        <ele>2731.1999511719</ele>
        <time>2023-07-17T15:37:28.000Z</time>
      </trkpt>
      <trkpt lat="42.4179" lon="2.19631">
        <ele>2730.8000488281</ele>
        <time>2023-07-17T15:37:29.000Z</time>
      </trkpt>
      <trkpt lat="42.41792" lon="2.19627">
        <ele>2729.3999023438</ele>
        <time>2023-07-17T15:37:31.000Z</time>
      </trkpt>
      <trkpt lat="42.41796" lon="2.19622">
        <ele>2728.8000488281</ele>
        <time>2023-07-17T15:37:35.000Z</time>
      </trkpt>
      <trkpt lat="42.41797" lon="2.19619">
        <ele>2728.3999023438</ele>
        <time>2023-07-17T15:37:38.000Z</time>
      </trkpt>
      <trkpt lat="42.41799" lon="2.19613">
        <ele>2727.8000488281</ele>
        <time>2023-07-17T15:37:44.000Z</time>
      </trkpt>
      <trkpt lat="42.418" lon="2.19609">
        <ele>2727.3999023438</ele>
        <time>2023-07-17T15:37:46.000Z</time>
      </trkpt>
      <trkpt lat="42.41801" lon="2.19606">
        <ele>2726.3999023438</ele>
        <time>2023-07-17T15:37:48.000Z</time>
      </trkpt>
      <trkpt lat="42.41802" lon="2.196">
        <ele>2725.1999511719</ele>
        <time>2023-07-17T15:37:51.000Z</time>
      </trkpt>
      <trkpt lat="42.41803" lon="2.19596">
        <ele>2724.1999511719</ele>
        <time>2023-07-17T15:37:54.000Z</time>
      </trkpt>
      <trkpt lat="42.41804" lon="2.19594">
        <ele>2723.3999023438</ele>
        <time>2023-07-17T15:37:56.000Z</time>
      </trkpt>
      <trkpt lat="42.41805" lon="2.19592">
        <ele>2723</ele>
        <time>2023-07-17T15:37:58.000Z</time>
      </trkpt>
      <trkpt lat="42.41809" lon="2.19587">
        <ele>2722</ele>
        <time>2023-07-17T15:38:03.000Z</time>
      </trkpt>
      <trkpt lat="42.41809" lon="2.19586">
        <ele>2721.6000976562</ele>
        <time>2023-07-17T15:38:04.000Z</time>
      </trkpt>
      <trkpt lat="42.41811" lon="2.1958">
        <ele>2720.3999023438</ele>
        <time>2023-07-17T15:38:08.000Z</time>
      </trkpt>
      <trkpt lat="42.41813" lon="2.19572">
        <ele>2719.3999023438</ele>
        <time>2023-07-17T15:38:12.000Z</time>
      </trkpt>
      <trkpt lat="42.41813" lon="2.19571">
        <ele>2719</ele>
        <time>2023-07-17T15:38:13.000Z</time>
      </trkpt>
      <trkpt lat="42.41815" lon="2.19565">
        <ele>2718.3999023438</ele>
        <time>2023-07-17T15:38:18.000Z</time>
      </trkpt>
      <trkpt lat="42.41816" lon="2.19561">
        <ele>2718</ele>
        <time>2023-07-17T15:38:22.000Z</time>
      </trkpt>
      <trkpt lat="42.41819" lon="2.19553">
        <ele>2717.1999511719</ele>
        <time>2023-07-17T15:38:27.000Z</time>
      </trkpt>
      <trkpt lat="42.4182" lon="2.19541">
        <ele>2717.3999023438</ele>
        <time>2023-07-17T15:38:35.000Z</time>
      </trkpt>
      <trkpt lat="42.41821" lon="2.19535">
        <ele>2717</ele>
        <time>2023-07-17T15:38:38.000Z</time>
      </trkpt>
      <trkpt lat="42.41824" lon="2.19527">
        <ele>2715</ele>
        <time>2023-07-17T15:38:43.000Z</time>
      </trkpt>
      <trkpt lat="42.41826" lon="2.19524">
        <ele>2714.6000976562</ele>
        <time>2023-07-17T15:38:45.000Z</time>
      </trkpt>
      <trkpt lat="42.41831" lon="2.19513">
        <ele>2714.6000976562</ele>
        <time>2023-07-17T15:38:52.000Z</time>
      </trkpt>
      <trkpt lat="42.41835" lon="2.19503">
        <ele>2716</ele>
        <time>2023-07-17T15:39:02.000Z</time>
      </trkpt>
      <trkpt lat="42.41835" lon="2.19502">
        <ele>2716</ele>
        <time>2023-07-17T15:39:03.000Z</time>
      </trkpt>
      <trkpt lat="42.41836" lon="2.19495">
        <ele>2717.1999511719</ele>
        <time>2023-07-17T15:39:10.000Z</time>
      </trkpt>
      <trkpt lat="42.41837" lon="2.19494">
        <ele>2717.3999023438</ele>
        <time>2023-07-17T15:39:11.000Z</time>
      </trkpt>
      <trkpt lat="42.41838" lon="2.19489">
        <ele>2718.3999023438</ele>
        <time>2023-07-17T15:39:16.000Z</time>
      </trkpt>
      <trkpt lat="42.41839" lon="2.19487">
        <ele>2718.6000976562</ele>
        <time>2023-07-17T15:39:18.000Z</time>
      </trkpt>
      <trkpt lat="42.41841" lon="2.19483">
        <ele>2719.3999023438</ele>
        <time>2023-07-17T15:39:23.000Z</time>
      </trkpt>
      <trkpt lat="42.41843" lon="2.19481">
        <ele>2720.1999511719</ele>
        <time>2023-07-17T15:39:27.000Z</time>
      </trkpt>
      <trkpt lat="42.41843" lon="2.1948">
        <ele>2720.6000976562</ele>
        <time>2023-07-17T15:39:28.000Z</time>
      </trkpt>
      <trkpt lat="42.41844" lon="2.19473">
        <ele>2721.1999511719</ele>
        <time>2023-07-17T15:39:34.000Z</time>
      </trkpt>
      <trkpt lat="42.41845" lon="2.19469">
        <ele>2721.6000976562</ele>
        <time>2023-07-17T15:39:37.000Z</time>
      </trkpt>
      <trkpt lat="42.41845" lon="2.19465">
        <ele>2722.8000488281</ele>
        <time>2023-07-17T15:39:42.000Z</time>
      </trkpt>
      <trkpt lat="42.41846" lon="2.19463">
        <ele>2724.1999511719</ele>
        <time>2023-07-17T15:39:45.000Z</time>
      </trkpt>
      <trkpt lat="42.41847" lon="2.19461">
        <ele>2724.1999511719</ele>
        <time>2023-07-17T15:39:49.000Z</time>
      </trkpt>
      <trkpt lat="42.4185" lon="2.19452">
        <ele>2724.3999023438</ele>
        <time>2023-07-17T15:39:57.000Z</time>
      </trkpt>
      <trkpt lat="42.41851" lon="2.19445">
        <ele>2725</ele>
        <time>2023-07-17T15:40:04.000Z</time>
      </trkpt>
      <trkpt lat="42.41851" lon="2.1944">
        <ele>2725.1999511719</ele>
        <time>2023-07-17T15:40:07.000Z</time>
      </trkpt>
      <trkpt lat="42.41851" lon="2.19433">
        <ele>2725.8000488281</ele>
        <time>2023-07-17T15:40:13.000Z</time>
      </trkpt>
      <trkpt lat="42.41851" lon="2.19432">
        <ele>2726.1999511719</ele>
        <time>2023-07-17T15:40:15.000Z</time>
      </trkpt>
      <trkpt lat="42.41849" lon="2.19426">
        <ele>2727.3999023438</ele>
        <time>2023-07-17T15:40:21.000Z</time>
      </trkpt>
      <trkpt lat="42.41848" lon="2.19421">
        <ele>2728.3999023438</ele>
        <time>2023-07-17T15:40:27.000Z</time>
      </trkpt>
      <trkpt lat="42.41848" lon="2.1942">
        <ele>2728.6000976562</ele>
        <time>2023-07-17T15:40:28.000Z</time>
      </trkpt>
      <trkpt lat="42.41846" lon="2.19413">
        <ele>2729.8000488281</ele>
        <time>2023-07-17T15:40:35.000Z</time>
      </trkpt>
      <trkpt lat="42.41846" lon="2.19407">
        <ele>2730.8000488281</ele>
        <time>2023-07-17T15:40:41.000Z</time>
      </trkpt>
      <trkpt lat="42.41845" lon="2.19406">
        <ele>2731</ele>
        <time>2023-07-17T15:40:43.000Z</time>
      </trkpt>
      <trkpt lat="42.41844" lon="2.19397">
        <ele>2731.6000976562</ele>
        <time>2023-07-17T15:40:51.000Z</time>
      </trkpt>
      <trkpt lat="42.41844" lon="2.19393">
        <ele>2732</ele>
        <time>2023-07-17T15:40:54.000Z</time>
      </trkpt>
      <trkpt lat="42.41844" lon="2.19389">
        <ele>2733</ele>
        <time>2023-07-17T15:40:59.000Z</time>
      </trkpt>
      <trkpt lat="42.41844" lon="2.19387">
        <ele>2733.3999023438</ele>
        <time>2023-07-17T15:41:01.000Z</time>
      </trkpt>
      <trkpt lat="42.41844" lon="2.1938">
        <ele>2734.1999511719</ele>
        <time>2023-07-17T15:41:08.000Z</time>
      </trkpt>
      <trkpt lat="42.41844" lon="2.19379">
        <ele>2734.3999023438</ele>
        <time>2023-07-17T15:41:09.000Z</time>
      </trkpt>
      <trkpt lat="42.41843" lon="2.19377">
        <ele>2735.6000976562</ele>
        <time>2023-07-17T15:41:12.000Z</time>
      </trkpt>
      <trkpt lat="42.41843" lon="2.19373">
        <ele>2736.8000488281</ele>
        <time>2023-07-17T15:41:16.000Z</time>
      </trkpt>
      <trkpt lat="42.41843" lon="2.1937">
        <ele>2737.3999023438</ele>
        <time>2023-07-17T15:41:19.000Z</time>
      </trkpt>
      <trkpt lat="42.41843" lon="2.19366">
        <ele>2738</ele>
        <time>2023-07-17T15:41:23.000Z</time>
      </trkpt>
      <trkpt lat="42.41843" lon="2.19362">
        <ele>2738.6000976562</ele>
        <time>2023-07-17T15:41:27.000Z</time>
      </trkpt>
      <trkpt lat="42.41842" lon="2.19361">
        <ele>2739</ele>
        <time>2023-07-17T15:41:28.000Z</time>
      </trkpt>
      <trkpt lat="42.4184" lon="2.19353">
        <ele>2739.8000488281</ele>
        <time>2023-07-17T15:41:37.000Z</time>
      </trkpt>
      <trkpt lat="42.4184" lon="2.19351">
        <ele>2740</ele>
        <time>2023-07-17T15:41:39.000Z</time>
      </trkpt>
      <trkpt lat="42.41839" lon="2.19342">
        <ele>2740</ele>
        <time>2023-07-17T15:41:48.000Z</time>
      </trkpt>
      <trkpt lat="42.41839" lon="2.19337">
        <ele>2741.1999511719</ele>
        <time>2023-07-17T15:41:53.000Z</time>
      </trkpt>
      <trkpt lat="42.41839" lon="2.19333">
        <ele>2741.1999511719</ele>
        <time>2023-07-17T15:41:57.000Z</time>
      </trkpt>
      <trkpt lat="42.41839" lon="2.19327">
        <ele>2742.1999511719</ele>
        <time>2023-07-17T15:42:04.000Z</time>
      </trkpt>
      <trkpt lat="42.41839" lon="2.19324">
        <ele>2742.6000976562</ele>
        <time>2023-07-17T15:42:06.000Z</time>
      </trkpt>
      <trkpt lat="42.4184" lon="2.19318">
        <ele>2743.3999023438</ele>
        <time>2023-07-17T15:42:11.000Z</time>
      </trkpt>
      <trkpt lat="42.41841" lon="2.19313">
        <ele>2743.1999511719</ele>
        <time>2023-07-17T15:42:18.000Z</time>
      </trkpt>
      <trkpt lat="42.4184" lon="2.19306">
        <ele>2744.8000488281</ele>
        <time>2023-07-17T15:42:24.000Z</time>
      </trkpt>
      <trkpt lat="42.4184" lon="2.19305">
        <ele>2745.1999511719</ele>
        <time>2023-07-17T15:42:25.000Z</time>
      </trkpt>
      <trkpt lat="42.41841" lon="2.19298">
        <ele>2745.3999023438</ele>
        <time>2023-07-17T15:42:34.000Z</time>
      </trkpt>
      <trkpt lat="42.41841" lon="2.19293">
        <ele>2746</ele>
        <time>2023-07-17T15:42:39.000Z</time>
      </trkpt>
      <trkpt lat="42.41841" lon="2.19292">
        <ele>2746</ele>
        <time>2023-07-17T15:42:40.000Z</time>
      </trkpt>
      <trkpt lat="42.41839" lon="2.19289">
        <ele>2747</ele>
        <time>2023-07-17T15:42:48.000Z</time>
      </trkpt>
      <trkpt lat="42.41838" lon="2.19289">
        <ele>2747</ele>
        <time>2023-07-17T15:42:49.000Z</time>
      </trkpt>
      <trkpt lat="42.41836" lon="2.19284">
        <ele>2748</ele>
        <time>2023-07-17T15:42:56.000Z</time>
      </trkpt>
      <trkpt lat="42.41838" lon="2.19277">
        <ele>2748.6000976562</ele>
        <time>2023-07-17T15:43:04.000Z</time>
      </trkpt>
      <trkpt lat="42.41839" lon="2.19274">
        <ele>2749.1999511719</ele>
        <time>2023-07-17T15:43:09.000Z</time>
      </trkpt>
      <trkpt lat="42.41838" lon="2.19276">
        <ele>2749.6000976562</ele>
        <time>2023-07-17T15:43:13.000Z</time>
      </trkpt>
      <trkpt lat="42.41838" lon="2.19273">
        <ele>2749.6000976562</ele>
        <time>2023-07-17T15:43:19.000Z</time>
      </trkpt>
      <trkpt lat="42.41839" lon="2.19271">
        <ele>2750.3999023438</ele>
        <time>2023-07-17T15:43:23.000Z</time>
      </trkpt>
      <trkpt lat="42.41839" lon="2.19269">
        <ele>2750.8000488281</ele>
        <time>2023-07-17T15:43:25.000Z</time>
      </trkpt>
      <trkpt lat="42.41839" lon="2.19268">
        <ele>2751.3999023438</ele>
        <time>2023-07-17T15:43:28.000Z</time>
      </trkpt>
      <trkpt lat="42.41838" lon="2.19265">
        <ele>2751.8000488281</ele>
        <time>2023-07-17T15:43:31.000Z</time>
      </trkpt>
      <trkpt lat="42.41838" lon="2.19262">
        <ele>2752.6000976562</ele>
        <time>2023-07-17T15:43:36.000Z</time>
      </trkpt>
      <trkpt lat="42.41838" lon="2.19259">
        <ele>2753.1999511719</ele>
        <time>2023-07-17T15:43:40.000Z</time>
      </trkpt>
      <trkpt lat="42.41839" lon="2.19257">
        <ele>2754</ele>
        <time>2023-07-17T15:43:42.000Z</time>
      </trkpt>
      <trkpt lat="42.41839" lon="2.19253">
        <ele>2754.8000488281</ele>
        <time>2023-07-17T15:43:47.000Z</time>
      </trkpt>
      <trkpt lat="42.41839" lon="2.19252">
        <ele>2755</ele>
        <time>2023-07-17T15:43:48.000Z</time>
      </trkpt>
      <trkpt lat="42.4184" lon="2.19245">
        <ele>2756.1999511719</ele>
        <time>2023-07-17T15:43:55.000Z</time>
      </trkpt>
      <trkpt lat="42.41838" lon="2.1924">
        <ele>2756.8000488281</ele>
        <time>2023-07-17T15:44:03.000Z</time>
      </trkpt>
      <trkpt lat="42.41837" lon="2.19237">
        <ele>2757.1999511719</ele>
        <time>2023-07-17T15:44:08.000Z</time>
      </trkpt>
      <trkpt lat="42.41837" lon="2.19237">
        <ele>2757.3999023438</ele>
        <time>2023-07-17T15:44:10.000Z</time>
      </trkpt>
      <trkpt lat="42.41836" lon="2.19229">
        <ele>2758.1999511719</ele>
        <time>2023-07-17T15:44:19.000Z</time>
      </trkpt>
      <trkpt lat="42.41835" lon="2.19222">
        <ele>2759</ele>
        <time>2023-07-17T15:44:27.000Z</time>
      </trkpt>
      <trkpt lat="42.41835" lon="2.19222">
        <ele>2759.3999023438</ele>
        <time>2023-07-17T15:44:28.000Z</time>
      </trkpt>
      <trkpt lat="42.41835" lon="2.19216">
        <ele>2759.6000976562</ele>
        <time>2023-07-17T15:44:35.000Z</time>
      </trkpt>
      <trkpt lat="42.41836" lon="2.1921">
        <ele>2760.6000976562</ele>
        <time>2023-07-17T15:44:44.000Z</time>
      </trkpt>
      <trkpt lat="42.41836" lon="2.1921">
        <ele>2760.6000976562</ele>
        <time>2023-07-17T15:44:45.000Z</time>
      </trkpt>
      <trkpt lat="42.41835" lon="2.19203">
        <ele>2761.6000976562</ele>
        <time>2023-07-17T15:44:52.000Z</time>
      </trkpt>
      <trkpt lat="42.41835" lon="2.19203">
        <ele>2761.8000488281</ele>
        <time>2023-07-17T15:44:53.000Z</time>
      </trkpt>
      <trkpt lat="42.41833" lon="2.19201">
        <ele>2762.8000488281</ele>
        <time>2023-07-17T15:44:58.000Z</time>
      </trkpt>
      <trkpt lat="42.41832" lon="2.19198">
        <ele>2763.3999023438</ele>
        <time>2023-07-17T15:45:02.000Z</time>
      </trkpt>
      <trkpt lat="42.41832" lon="2.19197">
        <ele>2763.8000488281</ele>
        <time>2023-07-17T15:45:04.000Z</time>
      </trkpt>
      <trkpt lat="42.41831" lon="2.19195">
        <ele>2764.6000976562</ele>
        <time>2023-07-17T15:45:08.000Z</time>
      </trkpt>
      <trkpt lat="42.4183" lon="2.1919">
        <ele>2764.8000488281</ele>
        <time>2023-07-17T15:45:12.000Z</time>
      </trkpt>
      <trkpt lat="42.41829" lon="2.19187">
        <ele>2765.8000488281</ele>
        <time>2023-07-17T15:45:17.000Z</time>
      </trkpt>
      <trkpt lat="42.41828" lon="2.19186">
        <ele>2765.8000488281</ele>
        <time>2023-07-17T15:45:18.000Z</time>
      </trkpt>
      <trkpt lat="42.41827" lon="2.19181">
        <ele>2766.8000488281</ele>
        <time>2023-07-17T15:45:26.000Z</time>
      </trkpt>
      <trkpt lat="42.41827" lon="2.1918">
        <ele>2766.8000488281</ele>
        <time>2023-07-17T15:45:28.000Z</time>
      </trkpt>
      <trkpt lat="42.41827" lon="2.19176">
        <ele>2767.6000976562</ele>
        <time>2023-07-17T15:45:33.000Z</time>
      </trkpt>
      <trkpt lat="42.41827" lon="2.19175">
        <ele>2768</ele>
        <time>2023-07-17T15:45:35.000Z</time>
      </trkpt>
      <trkpt lat="42.41828" lon="2.19172">
        <ele>2768.6000976562</ele>
        <time>2023-07-17T15:45:40.000Z</time>
      </trkpt>
      <trkpt lat="42.41829" lon="2.1917">
        <ele>2769</ele>
        <time>2023-07-17T15:45:42.000Z</time>
      </trkpt>
      <trkpt lat="42.4183" lon="2.19166">
        <ele>2769.8000488281</ele>
        <time>2023-07-17T15:45:47.000Z</time>
      </trkpt>
      <trkpt lat="42.4183" lon="2.19164">
        <ele>2770</ele>
        <time>2023-07-17T15:45:49.000Z</time>
      </trkpt>
      <trkpt lat="42.4183" lon="2.19161">
        <ele>2770.6000976562</ele>
        <time>2023-07-17T15:45:54.000Z</time>
      </trkpt>
      <trkpt lat="42.41829" lon="2.19157">
        <ele>2771.1999511719</ele>
        <time>2023-07-17T15:45:57.000Z</time>
      </trkpt>
      <trkpt lat="42.41829" lon="2.19155">
        <ele>2771.6000976562</ele>
        <time>2023-07-17T15:46:01.000Z</time>
      </trkpt>
      <trkpt lat="42.41828" lon="2.19151">
        <ele>2772.1999511719</ele>
        <time>2023-07-17T15:46:06.000Z</time>
      </trkpt>
      <trkpt lat="42.41827" lon="2.1915">
        <ele>2772.3999023438</ele>
        <time>2023-07-17T15:46:07.000Z</time>
      </trkpt>
      <trkpt lat="42.41825" lon="2.19146">
        <ele>2773.3999023438</ele>
        <time>2023-07-17T15:46:15.000Z</time>
      </trkpt>
      <trkpt lat="42.41825" lon="2.19142">
        <ele>2774.3999023438</ele>
        <time>2023-07-17T15:46:23.000Z</time>
      </trkpt>
      <trkpt lat="42.41825" lon="2.1914">
        <ele>2774.6000976562</ele>
        <time>2023-07-17T15:46:24.000Z</time>
      </trkpt>
      <trkpt lat="42.41824" lon="2.19135">
        <ele>2775.3999023438</ele>
        <time>2023-07-17T15:46:29.000Z</time>
      </trkpt>
      <trkpt lat="42.41824" lon="2.19134">
        <ele>2775.6000976562</ele>
        <time>2023-07-17T15:46:31.000Z</time>
      </trkpt>
      <trkpt lat="42.41822" lon="2.1913">
        <ele>2776.6000976562</ele>
        <time>2023-07-17T15:46:38.000Z</time>
      </trkpt>
      <trkpt lat="42.41821" lon="2.19129">
        <ele>2776.6000976562</ele>
        <time>2023-07-17T15:46:39.000Z</time>
      </trkpt>
      <trkpt lat="42.41819" lon="2.19125">
        <ele>2777.6000976562</ele>
        <time>2023-07-17T15:46:45.000Z</time>
      </trkpt>
      <trkpt lat="42.41818" lon="2.19124">
        <ele>2777.8000488281</ele>
        <time>2023-07-17T15:46:46.000Z</time>
      </trkpt>
      <trkpt lat="42.41816" lon="2.19119">
        <ele>2778.6000976562</ele>
        <time>2023-07-17T15:46:52.000Z</time>
      </trkpt>
      <trkpt lat="42.41816" lon="2.19117">
        <ele>2779.3999023438</ele>
        <time>2023-07-17T15:46:54.000Z</time>
      </trkpt>
      <trkpt lat="42.41818" lon="2.19116">
        <ele>2779.8000488281</ele>
        <time>2023-07-17T15:46:56.000Z</time>
      </trkpt>
      <trkpt lat="42.4182" lon="2.19113">
        <ele>2780.6000976562</ele>
        <time>2023-07-17T15:47:01.000Z</time>
      </trkpt>
      <trkpt lat="42.41817" lon="2.19106">
        <ele>2780.8000488281</ele>
        <time>2023-07-17T15:47:08.000Z</time>
      </trkpt>
      <trkpt lat="42.41816" lon="2.19103">
        <ele>2781</ele>
        <time>2023-07-17T15:47:10.000Z</time>
      </trkpt>
      <trkpt lat="42.41811" lon="2.191">
        <ele>2781.6000976562</ele>
        <time>2023-07-17T15:47:16.000Z</time>
      </trkpt>
      <trkpt lat="42.4181" lon="2.191">
        <ele>2782.1999511719</ele>
        <time>2023-07-17T15:47:17.000Z</time>
      </trkpt>
      <trkpt lat="42.41807" lon="2.19097">
        <ele>2783.6000976562</ele>
        <time>2023-07-17T15:47:20.000Z</time>
      </trkpt>
      <trkpt lat="42.41805" lon="2.19096">
        <ele>2784.1999511719</ele>
        <time>2023-07-17T15:47:23.000Z</time>
      </trkpt>
      <trkpt lat="42.41803" lon="2.19094">
        <ele>2784.6000976562</ele>
        <time>2023-07-17T15:47:25.000Z</time>
      </trkpt>
      <trkpt lat="42.418" lon="2.19092">
        <ele>2785.8000488281</ele>
        <time>2023-07-17T15:47:30.000Z</time>
      </trkpt>
      <trkpt lat="42.41797" lon="2.19087">
        <ele>2787.3999023438</ele>
        <time>2023-07-17T15:47:38.000Z</time>
      </trkpt>
      <trkpt lat="42.41798" lon="2.19087">
        <ele>2787.8000488281</ele>
        <time>2023-07-17T15:47:39.000Z</time>
      </trkpt>
      <trkpt lat="42.41797" lon="2.19083">
        <ele>2787.6000976562</ele>
        <time>2023-07-17T15:47:47.000Z</time>
      </trkpt>
      <trkpt lat="42.41793" lon="2.19074">
        <ele>2786.6000976562</ele>
        <time>2023-07-17T15:47:58.000Z</time>
      </trkpt>
      <trkpt lat="42.41792" lon="2.1907">
        <ele>2786.1999511719</ele>
        <time>2023-07-17T15:48:01.000Z</time>
      </trkpt>
      <trkpt lat="42.4179" lon="2.19063">
        <ele>2785.1999511719</ele>
        <time>2023-07-17T15:48:07.000Z</time>
      </trkpt>
      <trkpt lat="42.41787" lon="2.19058">
        <ele>2783.6000976562</ele>
        <time>2023-07-17T15:48:11.000Z</time>
      </trkpt>
      <trkpt lat="42.41784" lon="2.19052">
        <ele>2783.1999511719</ele>
        <time>2023-07-17T15:48:16.000Z</time>
      </trkpt>
      <trkpt lat="42.41779" lon="2.19044">
        <ele>2783.1999511719</ele>
        <time>2023-07-17T15:48:22.000Z</time>
      </trkpt>
      <trkpt lat="42.41772" lon="2.19037">
        <ele>2784.6000976562</ele>
        <time>2023-07-17T15:48:30.000Z</time>
      </trkpt>
      <trkpt lat="42.4177" lon="2.19036">
        <ele>2784.8000488281</ele>
        <time>2023-07-17T15:48:32.000Z</time>
      </trkpt>
      <trkpt lat="42.41764" lon="2.19031">
        <ele>2785.3999023438</ele>
        <time>2023-07-17T15:48:38.000Z</time>
      </trkpt>
      <trkpt lat="42.41758" lon="2.19022">
        <ele>2785.3999023438</ele>
        <time>2023-07-17T15:48:47.000Z</time>
      </trkpt>
      <trkpt lat="42.41753" lon="2.19012">
        <ele>2785.8000488281</ele>
        <time>2023-07-17T15:48:54.000Z</time>
      </trkpt>
      <trkpt lat="42.41752" lon="2.1901">
        <ele>2785.8000488281</ele>
        <time>2023-07-17T15:48:55.000Z</time>
      </trkpt>
      <trkpt lat="42.4175" lon="2.18998">
        <ele>2785</ele>
        <time>2023-07-17T15:49:03.000Z</time>
      </trkpt>
      <trkpt lat="42.4175" lon="2.18996">
        <ele>2784.8000488281</ele>
        <time>2023-07-17T15:49:05.000Z</time>
      </trkpt>
      <trkpt lat="42.41749" lon="2.18988">
        <ele>2784.8000488281</ele>
        <time>2023-07-17T15:49:11.000Z</time>
      </trkpt>
      <trkpt lat="42.41749" lon="2.18982">
        <ele>2785</ele>
        <time>2023-07-17T15:49:18.000Z</time>
      </trkpt>
      <trkpt lat="42.41749" lon="2.18976">
        <ele>2785.1999511719</ele>
        <time>2023-07-17T15:49:27.000Z</time>
      </trkpt>
      <trkpt lat="42.41747" lon="2.18977">
        <ele>2785.8000488281</ele>
        <time>2023-07-17T15:49:35.000Z</time>
      </trkpt>
      <trkpt lat="42.41744" lon="2.18976">
        <ele>2787.1999511719</ele>
        <time>2023-07-17T15:49:41.000Z</time>
      </trkpt>
      <trkpt lat="42.41744" lon="2.18975">
        <ele>2787.6000976562</ele>
        <time>2023-07-17T15:49:43.000Z</time>
      </trkpt>
      <trkpt lat="42.41744" lon="2.18974">
        <ele>2787.3999023438</ele>
        <time>2023-07-17T15:49:51.000Z</time>
      </trkpt>
      <trkpt lat="42.41744" lon="2.18977">
        <ele>2787.6000976562</ele>
        <time>2023-07-17T15:50:00.000Z</time>
      </trkpt>
      <trkpt lat="42.41744" lon="2.18979">
        <ele>2788</ele>
        <time>2023-07-17T15:50:07.000Z</time>
      </trkpt>
      <trkpt lat="42.41745" lon="2.18979">
        <ele>2788.1999511719</ele>
        <time>2023-07-17T15:50:18.000Z</time>
      </trkpt>
      <trkpt lat="42.41744" lon="2.18973">
        <ele>2787.3999023438</ele>
        <time>2023-07-17T15:50:26.000Z</time>
      </trkpt>
      <trkpt lat="42.41744" lon="2.1897">
        <ele>2786.6000976562</ele>
        <time>2023-07-17T15:50:33.000Z</time>
      </trkpt>
      <trkpt lat="42.41743" lon="2.18969">
        <ele>2788</ele>
        <time>2023-07-17T15:50:42.000Z</time>
      </trkpt>
      <trkpt lat="42.41744" lon="2.1897">
        <ele>2788.3999023438</ele>
        <time>2023-07-17T15:50:43.000Z</time>
      </trkpt>
      <trkpt lat="42.41745" lon="2.18973">
        <ele>2788</ele>
        <time>2023-07-17T15:50:55.000Z</time>
      </trkpt>
      <trkpt lat="42.41747" lon="2.18975">
        <ele>2787.6000976562</ele>
        <time>2023-07-17T15:51:06.000Z</time>
      </trkpt>
      <trkpt lat="42.41748" lon="2.18974">
        <ele>2787.3999023438</ele>
        <time>2023-07-17T15:51:08.000Z</time>
      </trkpt>
      <trkpt lat="42.4175" lon="2.18972">
        <ele>2786.3999023438</ele>
        <time>2023-07-17T15:51:12.000Z</time>
      </trkpt>
      <trkpt lat="42.41751" lon="2.18971">
        <ele>2786</ele>
        <time>2023-07-17T15:51:13.000Z</time>
      </trkpt>
      <trkpt lat="42.41753" lon="2.18966">
        <ele>2785.6000976562</ele>
        <time>2023-07-17T15:51:19.000Z</time>
      </trkpt>
      <trkpt lat="42.41753" lon="2.18961">
        <ele>2786</ele>
        <time>2023-07-17T15:51:26.000Z</time>
      </trkpt>
      <trkpt lat="42.41754" lon="2.18953">
        <ele>2786.3999023438</ele>
        <time>2023-07-17T15:51:35.000Z</time>
      </trkpt>
      <trkpt lat="42.41757" lon="2.18946">
        <ele>2786.8000488281</ele>
        <time>2023-07-17T15:51:43.000Z</time>
      </trkpt>
      <trkpt lat="42.41761" lon="2.18936">
        <ele>2787.1999511719</ele>
        <time>2023-07-17T15:51:51.000Z</time>
      </trkpt>
      <trkpt lat="42.41761" lon="2.18933">
        <ele>2787.3999023438</ele>
        <time>2023-07-17T15:51:54.000Z</time>
      </trkpt>
      <trkpt lat="42.4176" lon="2.1893">
        <ele>2787.8000488281</ele>
        <time>2023-07-17T15:51:59.000Z</time>
      </trkpt>
      <trkpt lat="42.41761" lon="2.18929">
        <ele>2788.3999023438</ele>
        <time>2023-07-17T15:52:07.000Z</time>
      </trkpt>
      <trkpt lat="42.41762" lon="2.18928">
        <ele>2788.6000976562</ele>
        <time>2023-07-17T15:52:08.000Z</time>
      </trkpt>
      <trkpt lat="42.4176" lon="2.1893">
        <ele>2788.3999023438</ele>
        <time>2023-07-17T15:52:15.000Z</time>
      </trkpt>
      <trkpt lat="42.41761" lon="2.1893">
        <ele>2788</ele>
        <time>2023-07-17T15:52:21.000Z</time>
      </trkpt>
      <trkpt lat="42.41762" lon="2.18927">
        <ele>2788.8000488281</ele>
        <time>2023-07-17T15:52:27.000Z</time>
      </trkpt>
      <trkpt lat="42.41759" lon="2.18926">
        <ele>2787.1999511719</ele>
        <time>2023-07-17T15:52:34.000Z</time>
      </trkpt>
      <trkpt lat="42.41758" lon="2.18919">
        <ele>2786.1999511719</ele>
        <time>2023-07-17T15:52:41.000Z</time>
      </trkpt>
      <trkpt lat="42.41756" lon="2.1891">
        <ele>2786.6000976562</ele>
        <time>2023-07-17T15:52:50.000Z</time>
      </trkpt>
      <trkpt lat="42.41759" lon="2.18903">
        <ele>2787</ele>
        <time>2023-07-17T15:52:59.000Z</time>
      </trkpt>
      <trkpt lat="42.41762" lon="2.18899">
        <ele>2787</ele>
        <time>2023-07-17T15:53:07.000Z</time>
      </trkpt>
      <trkpt lat="42.41762" lon="2.18897">
        <ele>2786.6000976562</ele>
        <time>2023-07-17T15:53:14.000Z</time>
      </trkpt>
      <trkpt lat="42.41763" lon="2.18893">
        <ele>2786.1999511719</ele>
        <time>2023-07-17T15:53:18.000Z</time>
      </trkpt>
      <trkpt lat="42.41764" lon="2.18892">
        <ele>2786</ele>
        <time>2023-07-17T15:53:20.000Z</time>
      </trkpt>
      <trkpt lat="42.41764" lon="2.18888">
        <ele>2785.1999511719</ele>
        <time>2023-07-17T15:53:25.000Z</time>
      </trkpt>
      <trkpt lat="42.41764" lon="2.18886">
        <ele>2785</ele>
        <time>2023-07-17T15:53:27.000Z</time>
      </trkpt>
      <trkpt lat="42.41765" lon="2.18881">
        <ele>2784.3999023438</ele>
        <time>2023-07-17T15:53:34.000Z</time>
      </trkpt>
      <trkpt lat="42.41765" lon="2.1888">
        <ele>2784</ele>
        <time>2023-07-17T15:53:37.000Z</time>
      </trkpt>
      <trkpt lat="42.41768" lon="2.18875">
        <ele>2783</ele>
        <time>2023-07-17T15:53:42.000Z</time>
      </trkpt>
      <trkpt lat="42.41768" lon="2.18873">
        <ele>2782.6000976562</ele>
        <time>2023-07-17T15:53:44.000Z</time>
      </trkpt>
      <trkpt lat="42.41768" lon="2.18868">
        <ele>2782.1999511719</ele>
        <time>2023-07-17T15:53:50.000Z</time>
      </trkpt>
      <trkpt lat="42.41768" lon="2.18863">
        <ele>2782</ele>
        <time>2023-07-17T15:53:55.000Z</time>
      </trkpt>
      <trkpt lat="42.41769" lon="2.18861">
        <ele>2782</ele>
        <time>2023-07-17T15:53:57.000Z</time>
      </trkpt>
      <trkpt lat="42.41769" lon="2.18859">
        <ele>2782</ele>
        <time>2023-07-17T15:54:06.000Z</time>
      </trkpt>
      <trkpt lat="42.41768" lon="2.1886">
        <ele>2780.8000488281</ele>
        <time>2023-07-17T15:54:15.000Z</time>
      </trkpt>
      <trkpt lat="42.41766" lon="2.18861">
        <ele>2780.1999511719</ele>
        <time>2023-07-17T15:54:22.000Z</time>
      </trkpt>
      <trkpt lat="42.41766" lon="2.18862">
        <ele>2779.6000976562</ele>
        <time>2023-07-17T15:54:26.000Z</time>
      </trkpt>
      <trkpt lat="42.41765" lon="2.18863">
        <ele>2778.6000976562</ele>
        <time>2023-07-17T15:54:29.000Z</time>
      </trkpt>
      <trkpt lat="42.41765" lon="2.18862">
        <ele>2778.6000976562</ele>
        <time>2023-07-17T15:54:31.000Z</time>
      </trkpt>
      <trkpt lat="42.41766" lon="2.18864">
        <ele>2778</ele>
        <time>2023-07-17T15:54:37.000Z</time>
      </trkpt>
      <trkpt lat="42.41766" lon="2.1886">
        <ele>2777.8000488281</ele>
        <time>2023-07-17T15:54:45.000Z</time>
      </trkpt>
      <trkpt lat="42.41766" lon="2.1886">
        <ele>2777.6000976562</ele>
        <time>2023-07-17T15:54:51.000Z</time>
      </trkpt>
      <trkpt lat="42.41766" lon="2.1886">
        <ele>2777.3999023438</ele>
        <time>2023-07-17T15:54:53.000Z</time>
      </trkpt>
      <trkpt lat="42.41766" lon="2.18863">
        <ele>2777.1999511719</ele>
        <time>2023-07-17T15:54:58.000Z</time>
      </trkpt>
      <trkpt lat="42.41766" lon="2.18861">
        <ele>2776.1999511719</ele>
        <time>2023-07-17T15:55:02.000Z</time>
      </trkpt>
      <trkpt lat="42.41766" lon="2.1886">
        <ele>2775</ele>
        <time>2023-07-17T15:55:05.000Z</time>
      </trkpt>
      <trkpt lat="42.41768" lon="2.18853">
        <ele>2774.8000488281</ele>
        <time>2023-07-17T15:55:12.000Z</time>
      </trkpt>
      <trkpt lat="42.41768" lon="2.18853">
        <ele>2773.8000488281</ele>
        <time>2023-07-17T15:55:14.000Z</time>
      </trkpt>
      <trkpt lat="42.41768" lon="2.18845">
        <ele>2772.8000488281</ele>
        <time>2023-07-17T15:55:20.000Z</time>
      </trkpt>
      <trkpt lat="42.41768" lon="2.18842">
        <ele>2771.1999511719</ele>
        <time>2023-07-17T15:55:23.000Z</time>
      </trkpt>
      <trkpt lat="42.41767" lon="2.18836">
        <ele>2770.1999511719</ele>
        <time>2023-07-17T15:55:28.000Z</time>
      </trkpt>
      <trkpt lat="42.41767" lon="2.18833">
        <ele>2769</ele>
        <time>2023-07-17T15:55:30.000Z</time>
      </trkpt>
      <trkpt lat="42.41769" lon="2.18824">
        <ele>2767.8000488281</ele>
        <time>2023-07-17T15:55:37.000Z</time>
      </trkpt>
      <trkpt lat="42.41769" lon="2.18816">
        <ele>2767.1999511719</ele>
        <time>2023-07-17T15:55:43.000Z</time>
      </trkpt>
      <trkpt lat="42.41769" lon="2.18811">
        <ele>2766.8000488281</ele>
        <time>2023-07-17T15:55:46.000Z</time>
      </trkpt>
      <trkpt lat="42.41771" lon="2.18803">
        <ele>2766.1999511719</ele>
        <time>2023-07-17T15:55:51.000Z</time>
      </trkpt>
      <trkpt lat="42.41774" lon="2.18796">
        <ele>2765.6000976562</ele>
        <time>2023-07-17T15:55:56.000Z</time>
      </trkpt>
      <trkpt lat="42.41775" lon="2.18789">
        <ele>2765.1999511719</ele>
        <time>2023-07-17T15:56:00.000Z</time>
      </trkpt>
      <trkpt lat="42.41775" lon="2.18771">
        <ele>2765.3999023438</ele>
        <time>2023-07-17T15:56:10.000Z</time>
      </trkpt>
      <trkpt lat="42.41775" lon="2.1876">
        <ele>2766</ele>
        <time>2023-07-17T15:56:19.000Z</time>
      </trkpt>
      <trkpt lat="42.41777" lon="2.1875">
        <ele>2766.6000976562</ele>
        <time>2023-07-17T15:56:26.000Z</time>
      </trkpt>
      <trkpt lat="42.41778" lon="2.18749">
        <ele>2766.8000488281</ele>
        <time>2023-07-17T15:56:27.000Z</time>
      </trkpt>
      <trkpt lat="42.41779" lon="2.18738">
        <ele>2767.1999511719</ele>
        <time>2023-07-17T15:56:34.000Z</time>
      </trkpt>
      <trkpt lat="42.41778" lon="2.18727">
        <ele>2766</ele>
        <time>2023-07-17T15:56:43.000Z</time>
      </trkpt>
      <trkpt lat="42.41777" lon="2.18715">
        <ele>2766.3999023438</ele>
        <time>2023-07-17T15:56:51.000Z</time>
      </trkpt>
      <trkpt lat="42.4178" lon="2.18707">
        <ele>2767.1999511719</ele>
        <time>2023-07-17T15:56:58.000Z</time>
      </trkpt>
      <trkpt lat="42.41784" lon="2.18694">
        <ele>2766.6000976562</ele>
        <time>2023-07-17T15:57:06.000Z</time>
      </trkpt>
      <trkpt lat="42.41784" lon="2.18688">
        <ele>2767.6000976562</ele>
        <time>2023-07-17T15:57:13.000Z</time>
      </trkpt>
      <trkpt lat="42.41784" lon="2.18686">
        <ele>2768</ele>
        <time>2023-07-17T15:57:15.000Z</time>
      </trkpt>
      <trkpt lat="42.41786" lon="2.18679">
        <ele>2767.8000488281</ele>
        <time>2023-07-17T15:57:22.000Z</time>
      </trkpt>
      <trkpt lat="42.41787" lon="2.18678">
        <ele>2767.3999023438</ele>
        <time>2023-07-17T15:57:33.000Z</time>
      </trkpt>
      <trkpt lat="42.41788" lon="2.18679">
        <ele>2767.3999023438</ele>
        <time>2023-07-17T15:57:41.000Z</time>
      </trkpt>
      <trkpt lat="42.4179" lon="2.1868">
        <ele>2767.3999023438</ele>
        <time>2023-07-17T15:57:48.000Z</time>
      </trkpt>
      <trkpt lat="42.41786" lon="2.18677">
        <ele>2767.3999023438</ele>
        <time>2023-07-17T15:57:55.000Z</time>
      </trkpt>
      <trkpt lat="42.41786" lon="2.18675">
        <ele>2767.1999511719</ele>
        <time>2023-07-17T15:58:03.000Z</time>
      </trkpt>
      <trkpt lat="42.41789" lon="2.18672">
        <ele>2767.6000976562</ele>
        <time>2023-07-17T15:58:10.000Z</time>
      </trkpt>
      <trkpt lat="42.41788" lon="2.18667">
        <ele>2768.3999023438</ele>
        <time>2023-07-17T15:58:19.000Z</time>
      </trkpt>
      <trkpt lat="42.41791" lon="2.18662">
        <ele>2768.8000488281</ele>
        <time>2023-07-17T15:58:23.000Z</time>
      </trkpt>
      <trkpt lat="42.41793" lon="2.18658">
        <ele>2768.8000488281</ele>
        <time>2023-07-17T15:58:26.000Z</time>
      </trkpt>
      <trkpt lat="42.41794" lon="2.18649">
        <ele>2769.1999511719</ele>
        <time>2023-07-17T15:58:33.000Z</time>
      </trkpt>
      <trkpt lat="42.41793" lon="2.18637">
        <ele>2768.8000488281</ele>
        <time>2023-07-17T15:58:41.000Z</time>
      </trkpt>
      <trkpt lat="42.41795" lon="2.18628">
        <ele>2768.6000976562</ele>
        <time>2023-07-17T15:58:49.000Z</time>
      </trkpt>
      <trkpt lat="42.41799" lon="2.1862">
        <ele>2768</ele>
        <time>2023-07-17T15:58:55.000Z</time>
      </trkpt>
      <trkpt lat="42.41802" lon="2.18613">
        <ele>2768.8000488281</ele>
        <time>2023-07-17T15:59:02.000Z</time>
      </trkpt>
      <trkpt lat="42.41807" lon="2.18605">
        <ele>2769.3999023438</ele>
        <time>2023-07-17T15:59:08.000Z</time>
      </trkpt>
      <trkpt lat="42.4181" lon="2.18594">
        <ele>2768.8000488281</ele>
        <time>2023-07-17T15:59:15.000Z</time>
      </trkpt>
      <trkpt lat="42.41815" lon="2.18582">
        <ele>2768.8000488281</ele>
        <time>2023-07-17T15:59:23.000Z</time>
      </trkpt>
      <trkpt lat="42.41819" lon="2.18574">
        <ele>2768.1999511719</ele>
        <time>2023-07-17T15:59:30.000Z</time>
      </trkpt>
      <trkpt lat="42.41821" lon="2.18569">
        <ele>2767.6000976562</ele>
        <time>2023-07-17T15:59:34.000Z</time>
      </trkpt>
      <trkpt lat="42.41824" lon="2.18562">
        <ele>2767.8000488281</ele>
        <time>2023-07-17T15:59:39.000Z</time>
      </trkpt>
      <trkpt lat="42.41831" lon="2.18552">
        <ele>2767.8000488281</ele>
        <time>2023-07-17T15:59:47.000Z</time>
      </trkpt>
      <trkpt lat="42.41839" lon="2.18541">
        <ele>2766.6000976562</ele>
        <time>2023-07-17T15:59:55.000Z</time>
      </trkpt>
      <trkpt lat="42.41839" lon="2.18539">
        <ele>2766.6000976562</ele>
        <time>2023-07-17T15:59:56.000Z</time>
      </trkpt>
      <trkpt lat="42.41843" lon="2.18532">
        <ele>2765.6000976562</ele>
        <time>2023-07-17T16:00:02.000Z</time>
      </trkpt>
      <trkpt lat="42.41847" lon="2.18526">
        <ele>2766</ele>
        <time>2023-07-17T16:00:06.000Z</time>
      </trkpt>
      <trkpt lat="42.41851" lon="2.18519">
        <ele>2766.6000976562</ele>
        <time>2023-07-17T16:00:10.000Z</time>
      </trkpt>
      <trkpt lat="42.41853" lon="2.18515">
        <ele>2767.3999023438</ele>
        <time>2023-07-17T16:00:14.000Z</time>
      </trkpt>
      <trkpt lat="42.41856" lon="2.18511">
        <ele>2767.8000488281</ele>
        <time>2023-07-17T16:00:18.000Z</time>
      </trkpt>
      <trkpt lat="42.41859" lon="2.18506">
        <ele>2768</ele>
        <time>2023-07-17T16:00:22.000Z</time>
      </trkpt>
      <trkpt lat="42.41863" lon="2.18494">
        <ele>2768.1999511719</ele>
        <time>2023-07-17T16:00:31.000Z</time>
      </trkpt>
      <trkpt lat="42.41867" lon="2.18481">
        <ele>2768.8000488281</ele>
        <time>2023-07-17T16:00:39.000Z</time>
      </trkpt>
      <trkpt lat="42.41868" lon="2.18479">
        <ele>2769</ele>
        <time>2023-07-17T16:00:40.000Z</time>
      </trkpt>
      <trkpt lat="42.4187" lon="2.18467">
        <ele>2769.1999511719</ele>
        <time>2023-07-17T16:00:47.000Z</time>
      </trkpt>
      <trkpt lat="42.41871" lon="2.18453">
        <ele>2769</ele>
        <time>2023-07-17T16:00:55.000Z</time>
      </trkpt>
      <trkpt lat="42.41873" lon="2.18436">
        <ele>2769.1999511719</ele>
        <time>2023-07-17T16:01:06.000Z</time>
      </trkpt>
      <trkpt lat="42.41874" lon="2.18428">
        <ele>2769.8000488281</ele>
        <time>2023-07-17T16:01:11.000Z</time>
      </trkpt>
      <trkpt lat="42.41874" lon="2.18423">
        <ele>2770</ele>
        <time>2023-07-17T16:01:14.000Z</time>
      </trkpt>
      <trkpt lat="42.41875" lon="2.18412">
        <ele>2770.6000976562</ele>
        <time>2023-07-17T16:01:22.000Z</time>
      </trkpt>
      <trkpt lat="42.41875" lon="2.18399">
        <ele>2770.6000976562</ele>
        <time>2023-07-17T16:01:31.000Z</time>
      </trkpt>
      <trkpt lat="42.41875" lon="2.18396">
        <ele>2770.8000488281</ele>
        <time>2023-07-17T16:01:33.000Z</time>
      </trkpt>
      <trkpt lat="42.41876" lon="2.1839">
        <ele>2772</ele>
        <time>2023-07-17T16:01:38.000Z</time>
      </trkpt>
      <trkpt lat="42.41876" lon="2.18387">
        <ele>2772.6000976562</ele>
        <time>2023-07-17T16:01:40.000Z</time>
      </trkpt>
      <trkpt lat="42.41877" lon="2.18385">
        <ele>2773.3999023438</ele>
        <time>2023-07-17T16:01:42.000Z</time>
      </trkpt>
      <trkpt lat="42.41877" lon="2.1838">
        <ele>2774.3999023438</ele>
        <time>2023-07-17T16:01:46.000Z</time>
      </trkpt>
      <trkpt lat="42.41877" lon="2.18377">
        <ele>2774.3999023438</ele>
        <time>2023-07-17T16:01:48.000Z</time>
      </trkpt>
      <trkpt lat="42.41876" lon="2.18367">
        <ele>2774.8000488281</ele>
        <time>2023-07-17T16:01:55.000Z</time>
      </trkpt>
      <trkpt lat="42.41874" lon="2.18352">
        <ele>2775.3999023438</ele>
        <time>2023-07-17T16:02:04.000Z</time>
      </trkpt>
      <trkpt lat="42.41873" lon="2.18346">
        <ele>2775.8000488281</ele>
        <time>2023-07-17T16:02:10.000Z</time>
      </trkpt>
      <trkpt lat="42.41872" lon="2.18338">
        <ele>2775.8000488281</ele>
        <time>2023-07-17T16:02:18.000Z</time>
      </trkpt>
      <trkpt lat="42.41871" lon="2.18331">
        <ele>2776.6000976562</ele>
        <time>2023-07-17T16:02:23.000Z</time>
      </trkpt>
      <trkpt lat="42.4187" lon="2.18323">
        <ele>2777.3999023438</ele>
        <time>2023-07-17T16:02:27.000Z</time>
      </trkpt>
      <trkpt lat="42.4187" lon="2.18314">
        <ele>2777.6000976562</ele>
        <time>2023-07-17T16:02:32.000Z</time>
      </trkpt>
      <trkpt lat="42.4187" lon="2.18311">
        <ele>2778.8000488281</ele>
        <time>2023-07-17T16:02:35.000Z</time>
      </trkpt>
      <trkpt lat="42.4187" lon="2.18309">
        <ele>2778.8000488281</ele>
        <time>2023-07-17T16:02:36.000Z</time>
      </trkpt>
      <trkpt lat="42.41869" lon="2.18302">
        <ele>2779.8000488281</ele>
        <time>2023-07-17T16:02:39.000Z</time>
      </trkpt>
      <trkpt lat="42.41869" lon="2.18296">
        <ele>2780.6000976562</ele>
        <time>2023-07-17T16:02:43.000Z</time>
      </trkpt>
      <trkpt lat="42.41869" lon="2.18293">
        <ele>2780.8000488281</ele>
        <time>2023-07-17T16:02:45.000Z</time>
      </trkpt>
      <trkpt lat="42.41868" lon="2.18284">
        <ele>2780.1999511719</ele>
        <time>2023-07-17T16:02:51.000Z</time>
      </trkpt>
      <trkpt lat="42.41866" lon="2.18271">
        <ele>2781.1999511719</ele>
        <time>2023-07-17T16:02:59.000Z</time>
      </trkpt>
      <trkpt lat="42.41863" lon="2.18263">
        <ele>2781.1999511719</ele>
        <time>2023-07-17T16:03:06.000Z</time>
      </trkpt>
      <trkpt lat="42.41859" lon="2.18252">
        <ele>2781.8000488281</ele>
        <time>2023-07-17T16:03:14.000Z</time>
      </trkpt>
      <trkpt lat="42.41858" lon="2.18249">
        <ele>2782.8000488281</ele>
        <time>2023-07-17T16:03:17.000Z</time>
      </trkpt>
      <trkpt lat="42.41855" lon="2.18245">
        <ele>2783.3999023438</ele>
        <time>2023-07-17T16:03:21.000Z</time>
      </trkpt>
      <trkpt lat="42.41852" lon="2.18242">
        <ele>2784</ele>
        <time>2023-07-17T16:03:25.000Z</time>
      </trkpt>
      <trkpt lat="42.41849" lon="2.18237">
        <ele>2785</ele>
        <time>2023-07-17T16:03:30.000Z</time>
      </trkpt>
      <trkpt lat="42.41849" lon="2.18234">
        <ele>2785</ele>
        <time>2023-07-17T16:03:32.000Z</time>
      </trkpt>
      <trkpt lat="42.41847" lon="2.18226">
        <ele>2785</ele>
        <time>2023-07-17T16:03:37.000Z</time>
      </trkpt>
      <trkpt lat="42.41843" lon="2.18215">
        <ele>2785.6000976562</ele>
        <time>2023-07-17T16:03:45.000Z</time>
      </trkpt>
      <trkpt lat="42.41838" lon="2.182">
        <ele>2785.6000976562</ele>
        <time>2023-07-17T16:03:55.000Z</time>
      </trkpt>
      <trkpt lat="42.41837" lon="2.18188">
        <ele>2785.3999023438</ele>
        <time>2023-07-17T16:04:03.000Z</time>
      </trkpt>
      <trkpt lat="42.41836" lon="2.1818">
        <ele>2786</ele>
        <time>2023-07-17T16:04:10.000Z</time>
      </trkpt>
      <trkpt lat="42.41836" lon="2.1818">
        <ele>2786</ele>
        <time>2023-07-17T16:04:11.000Z</time>
      </trkpt>
      <trkpt lat="42.41835" lon="2.18167">
        <ele>2785.8000488281</ele>
        <time>2023-07-17T16:04:18.000Z</time>
      </trkpt>
      <trkpt lat="42.41835" lon="2.18157">
        <ele>2784.8000488281</ele>
        <time>2023-07-17T16:04:24.000Z</time>
      </trkpt>
      <trkpt lat="42.41835" lon="2.18141">
        <ele>2783.8000488281</ele>
        <time>2023-07-17T16:04:35.000Z</time>
      </trkpt>
      <trkpt lat="42.41835" lon="2.1814">
        <ele>2783.8000488281</ele>
        <time>2023-07-17T16:04:36.000Z</time>
      </trkpt>
      <trkpt lat="42.41833" lon="2.18126">
        <ele>2783.6000976562</ele>
        <time>2023-07-17T16:04:44.000Z</time>
      </trkpt>
      <trkpt lat="42.4183" lon="2.18117">
        <ele>2783.6000976562</ele>
        <time>2023-07-17T16:04:51.000Z</time>
      </trkpt>
      <trkpt lat="42.41829" lon="2.18103">
        <ele>2783.6000976562</ele>
        <time>2023-07-17T16:04:59.000Z</time>
      </trkpt>
      <trkpt lat="42.41827" lon="2.18089">
        <ele>2784.1999511719</ele>
        <time>2023-07-17T16:05:07.000Z</time>
      </trkpt>
      <trkpt lat="42.41827" lon="2.18079">
        <ele>2784.8000488281</ele>
        <time>2023-07-17T16:05:14.000Z</time>
      </trkpt>
      <trkpt lat="42.41827" lon="2.18076">
        <ele>2784.8000488281</ele>
        <time>2023-07-17T16:05:16.000Z</time>
      </trkpt>
      <trkpt lat="42.41827" lon="2.18062">
        <ele>2785.3999023438</ele>
        <time>2023-07-17T16:05:25.000Z</time>
      </trkpt>
      <trkpt lat="42.41827" lon="2.18059">
        <ele>2786</ele>
        <time>2023-07-17T16:05:28.000Z</time>
      </trkpt>
      <trkpt lat="42.41828" lon="2.18052">
        <ele>2787</ele>
        <time>2023-07-17T16:05:32.000Z</time>
      </trkpt>
      <trkpt lat="42.41829" lon="2.18048">
        <ele>2787.1999511719</ele>
        <time>2023-07-17T16:05:34.000Z</time>
      </trkpt>
      <trkpt lat="42.4183" lon="2.18038">
        <ele>2786.8000488281</ele>
        <time>2023-07-17T16:05:41.000Z</time>
      </trkpt>
      <trkpt lat="42.41834" lon="2.18022">
        <ele>2786.8000488281</ele>
        <time>2023-07-17T16:05:51.000Z</time>
      </trkpt>
      <trkpt lat="42.41838" lon="2.18011">
        <ele>2786.8000488281</ele>
        <time>2023-07-17T16:06:00.000Z</time>
      </trkpt>
      <trkpt lat="42.4184" lon="2.18007">
        <ele>2785.8000488281</ele>
        <time>2023-07-17T16:06:03.000Z</time>
      </trkpt>
      <trkpt lat="42.41843" lon="2.18">
        <ele>2784.6000976562</ele>
        <time>2023-07-17T16:06:08.000Z</time>
      </trkpt>
      <trkpt lat="42.41845" lon="2.17993">
        <ele>2783.6000976562</ele>
        <time>2023-07-17T16:06:16.000Z</time>
      </trkpt>
      <trkpt lat="42.41844" lon="2.17995">
        <ele>2783</ele>
        <time>2023-07-17T16:06:20.000Z</time>
      </trkpt>
      <trkpt lat="42.41844" lon="2.17994">
        <ele>2783</ele>
        <time>2023-07-17T16:06:29.000Z</time>
      </trkpt>
      <trkpt lat="42.41845" lon="2.17995">
        <ele>2784</ele>
        <time>2023-07-17T16:06:39.000Z</time>
      </trkpt>
      <trkpt lat="42.41845" lon="2.17995">
        <ele>2784.3999023438</ele>
        <time>2023-07-17T16:06:53.000Z</time>
      </trkpt>
      <trkpt lat="42.41846" lon="2.17992">
        <ele>2784.3999023438</ele>
        <time>2023-07-17T16:06:59.000Z</time>
      </trkpt>
      <trkpt lat="42.41847" lon="2.17994">
        <ele>2784.1999511719</ele>
        <time>2023-07-17T16:07:08.000Z</time>
      </trkpt>
      <trkpt lat="42.41846" lon="2.17993">
        <ele>2784</ele>
        <time>2023-07-17T16:07:18.000Z</time>
      </trkpt>
      <trkpt lat="42.41846" lon="2.17993">
        <ele>2784.1999511719</ele>
        <time>2023-07-17T16:07:25.000Z</time>
      </trkpt>
      <trkpt lat="42.41844" lon="2.17993">
        <ele>2784.6000976562</ele>
        <time>2023-07-17T16:07:33.000Z</time>
      </trkpt>
      <trkpt lat="42.41845" lon="2.17993">
        <ele>2784.6000976562</ele>
        <time>2023-07-17T16:07:36.000Z</time>
      </trkpt>
      <trkpt lat="42.41845" lon="2.17992">
        <ele>2784.6000976562</ele>
        <time>2023-07-17T16:07:46.000Z</time>
      </trkpt>
      <trkpt lat="42.41848" lon="2.17994">
        <ele>2784.3999023438</ele>
        <time>2023-07-17T16:07:56.000Z</time>
      </trkpt>
      <trkpt lat="42.41848" lon="2.1799">
        <ele>2784.1999511719</ele>
        <time>2023-07-17T16:08:03.000Z</time>
      </trkpt>
      <trkpt lat="42.41848" lon="2.17991">
        <ele>2785</ele>
        <time>2023-07-17T16:08:12.000Z</time>
      </trkpt>
      <trkpt lat="42.41845" lon="2.17991">
        <ele>2784.1999511719</ele>
        <time>2023-07-17T16:08:22.000Z</time>
      </trkpt>
      <trkpt lat="42.41845" lon="2.17991">
        <ele>2783.6000976562</ele>
        <time>2023-07-17T16:08:31.000Z</time>
      </trkpt>
      <trkpt lat="42.41845" lon="2.17991">
        <ele>2783.3999023438</ele>
        <time>2023-07-17T16:08:32.000Z</time>
      </trkpt>
      <trkpt lat="42.41845" lon="2.17991">
        <ele>2783</ele>
        <time>2023-07-17T16:08:38.000Z</time>
      </trkpt>
      <trkpt lat="42.41846" lon="2.17989">
        <ele>2782.3999023438</ele>
        <time>2023-07-17T16:08:41.000Z</time>
      </trkpt>
      <trkpt lat="42.41846" lon="2.17989">
        <ele>2781.8000488281</ele>
        <time>2023-07-17T16:08:48.000Z</time>
      </trkpt>
      <trkpt lat="42.41845" lon="2.1799">
        <ele>2781.1999511719</ele>
        <time>2023-07-17T16:08:55.000Z</time>
      </trkpt>
      <trkpt lat="42.41845" lon="2.1799">
        <ele>2780.8000488281</ele>
        <time>2023-07-17T16:08:58.000Z</time>
      </trkpt>
      <trkpt lat="42.41844" lon="2.17989">
        <ele>2781.1999511719</ele>
        <time>2023-07-17T16:09:09.000Z</time>
      </trkpt>
      <trkpt lat="42.41844" lon="2.1799">
        <ele>2781.8000488281</ele>
        <time>2023-07-17T16:09:18.000Z</time>
      </trkpt>
      <trkpt lat="42.41842" lon="2.17988">
        <ele>2782.1999511719</ele>
        <time>2023-07-17T16:09:26.000Z</time>
      </trkpt>
      <trkpt lat="42.41842" lon="2.17989">
        <ele>2782.3999023438</ele>
        <time>2023-07-17T16:09:29.000Z</time>
      </trkpt>
      <trkpt lat="42.41842" lon="2.17989">
        <ele>2783.3999023438</ele>
        <time>2023-07-17T16:09:35.000Z</time>
      </trkpt>
      <trkpt lat="42.41843" lon="2.17989">
        <ele>2783.6000976562</ele>
        <time>2023-07-17T16:09:37.000Z</time>
      </trkpt>
      <trkpt lat="42.41844" lon="2.17988">
        <ele>2784.6000976562</ele>
        <time>2023-07-17T16:09:43.000Z</time>
      </trkpt>
      <trkpt lat="42.41843" lon="2.17987">
        <ele>2784.3999023438</ele>
        <time>2023-07-17T16:09:48.000Z</time>
      </trkpt>
      <trkpt lat="42.41842" lon="2.17989">
        <ele>2783.1999511719</ele>
        <time>2023-07-17T16:09:51.000Z</time>
      </trkpt>
      <trkpt lat="42.41841" lon="2.1799">
        <ele>2783.1999511719</ele>
        <time>2023-07-17T16:09:57.000Z</time>
      </trkpt>
      <trkpt lat="42.41843" lon="2.17991">
        <ele>2783.1999511719</ele>
        <time>2023-07-17T16:10:04.000Z</time>
      </trkpt>
      <trkpt lat="42.41842" lon="2.17989">
        <ele>2784.3999023438</ele>
        <time>2023-07-17T16:10:15.000Z</time>
      </trkpt>
      <trkpt lat="42.41842" lon="2.17989">
        <ele>2784.3999023438</ele>
        <time>2023-07-17T16:10:16.000Z</time>
      </trkpt>
      <trkpt lat="42.41843" lon="2.1799">
        <ele>2784.3999023438</ele>
        <time>2023-07-17T16:10:22.000Z</time>
      </trkpt>
      <trkpt lat="42.41843" lon="2.17991">
        <ele>2783.1999511719</ele>
        <time>2023-07-17T16:10:26.000Z</time>
      </trkpt>
      <trkpt lat="42.41846" lon="2.1799">
        <ele>2783.1999511719</ele>
        <time>2023-07-17T16:10:34.000Z</time>
      </trkpt>
      <trkpt lat="42.41843" lon="2.1799">
        <ele>2782.6000976562</ele>
        <time>2023-07-17T16:10:43.000Z</time>
      </trkpt>
      <trkpt lat="42.41845" lon="2.17992">
        <ele>2782.3999023438</ele>
        <time>2023-07-17T16:10:50.000Z</time>
      </trkpt>
      <trkpt lat="42.41845" lon="2.17993">
        <ele>2782.1999511719</ele>
        <time>2023-07-17T16:10:53.000Z</time>
      </trkpt>
      <trkpt lat="42.41846" lon="2.17991">
        <ele>2782</ele>
        <time>2023-07-17T16:11:01.000Z</time>
      </trkpt>
      <trkpt lat="42.41847" lon="2.1799">
        <ele>2782</ele>
        <time>2023-07-17T16:11:10.000Z</time>
      </trkpt>
      <trkpt lat="42.41847" lon="2.17988">
        <ele>2783</ele>
        <time>2023-07-17T16:11:17.000Z</time>
      </trkpt>
      <trkpt lat="42.41846" lon="2.17991">
        <ele>2782.6000976562</ele>
        <time>2023-07-17T16:11:27.000Z</time>
      </trkpt>
      <trkpt lat="42.41849" lon="2.17988">
        <ele>2781.6000976562</ele>
        <time>2023-07-17T16:11:33.000Z</time>
      </trkpt>
      <trkpt lat="42.41851" lon="2.17982">
        <ele>2781.8000488281</ele>
        <time>2023-07-17T16:11:40.000Z</time>
      </trkpt>
      <trkpt lat="42.41853" lon="2.17978">
        <ele>2781</ele>
        <time>2023-07-17T16:11:44.000Z</time>
      </trkpt>
      <trkpt lat="42.41853" lon="2.17976">
        <ele>2779.8000488281</ele>
        <time>2023-07-17T16:11:47.000Z</time>
      </trkpt>
      <trkpt lat="42.41854" lon="2.17975">
        <ele>2778.8000488281</ele>
        <time>2023-07-17T16:11:50.000Z</time>
      </trkpt>
      <trkpt lat="42.41855" lon="2.17973">
        <ele>2777.3999023438</ele>
        <time>2023-07-17T16:11:54.000Z</time>
      </trkpt>
      <trkpt lat="42.41857" lon="2.17968">
        <ele>2776.3999023438</ele>
        <time>2023-07-17T16:11:58.000Z</time>
      </trkpt>
      <trkpt lat="42.41857" lon="2.17967">
        <ele>2776.3999023438</ele>
        <time>2023-07-17T16:11:59.000Z</time>
      </trkpt>
      <trkpt lat="42.41862" lon="2.17966">
        <ele>2776.8000488281</ele>
        <time>2023-07-17T16:12:06.000Z</time>
      </trkpt>
      <trkpt lat="42.41865" lon="2.17966">
        <ele>2775</ele>
        <time>2023-07-17T16:12:10.000Z</time>
      </trkpt>
      <trkpt lat="42.41867" lon="2.17966">
        <ele>2773.8000488281</ele>
        <time>2023-07-17T16:12:13.000Z</time>
      </trkpt>
      <trkpt lat="42.41868" lon="2.17966">
        <ele>2773.6000976562</ele>
        <time>2023-07-17T16:12:14.000Z</time>
      </trkpt>
      <trkpt lat="42.4187" lon="2.17965">
        <ele>2772.8000488281</ele>
        <time>2023-07-17T16:12:16.000Z</time>
      </trkpt>
      <trkpt lat="42.41871" lon="2.17964">
        <ele>2771.8000488281</ele>
        <time>2023-07-17T16:12:20.000Z</time>
      </trkpt>
      <trkpt lat="42.41871" lon="2.17964">
        <ele>2771.6000976562</ele>
        <time>2023-07-17T16:12:21.000Z</time>
      </trkpt>
      <trkpt lat="42.41874" lon="2.17962">
        <ele>2770.6000976562</ele>
        <time>2023-07-17T16:12:26.000Z</time>
      </trkpt>
      <trkpt lat="42.41876" lon="2.17961">
        <ele>2770.3999023438</ele>
        <time>2023-07-17T16:12:29.000Z</time>
      </trkpt>
      <trkpt lat="42.41878" lon="2.17961">
        <ele>2769.3999023438</ele>
        <time>2023-07-17T16:12:34.000Z</time>
      </trkpt>
      <trkpt lat="42.41879" lon="2.1796">
        <ele>2768.6000976562</ele>
        <time>2023-07-17T16:12:37.000Z</time>
      </trkpt>
      <trkpt lat="42.41879" lon="2.1796">
        <ele>2768.3999023438</ele>
        <time>2023-07-17T16:12:38.000Z</time>
      </trkpt>
      <trkpt lat="42.41881" lon="2.17959">
        <ele>2767.1999511719</ele>
        <time>2023-07-17T16:12:43.000Z</time>
      </trkpt>
      <trkpt lat="42.41882" lon="2.17958">
        <ele>2766.8000488281</ele>
        <time>2023-07-17T16:12:44.000Z</time>
      </trkpt>
      <trkpt lat="42.41883" lon="2.17957">
        <ele>2766</ele>
        <time>2023-07-17T16:12:47.000Z</time>
      </trkpt>
      <trkpt lat="42.41882" lon="2.17954">
        <ele>2765.6000976562</ele>
        <time>2023-07-17T16:12:52.000Z</time>
      </trkpt>
      <trkpt lat="42.41883" lon="2.17951">
        <ele>2764.6000976562</ele>
        <time>2023-07-17T16:12:57.000Z</time>
      </trkpt>
      <trkpt lat="42.41884" lon="2.17948">
        <ele>2763.8000488281</ele>
        <time>2023-07-17T16:13:00.000Z</time>
      </trkpt>
      <trkpt lat="42.41884" lon="2.17947">
        <ele>2763.3999023438</ele>
        <time>2023-07-17T16:13:02.000Z</time>
      </trkpt>
      <trkpt lat="42.41884" lon="2.17945">
        <ele>2762.6000976562</ele>
        <time>2023-07-17T16:13:06.000Z</time>
      </trkpt>
      <trkpt lat="42.41883" lon="2.17944">
        <ele>2762.6000976562</ele>
        <time>2023-07-17T16:13:08.000Z</time>
      </trkpt>
      <trkpt lat="42.41884" lon="2.1794">
        <ele>2763.6000976562</ele>
        <time>2023-07-17T16:13:12.000Z</time>
      </trkpt>
      <trkpt lat="42.41885" lon="2.17941">
        <ele>2762.3999023438</ele>
        <time>2023-07-17T16:13:15.000Z</time>
      </trkpt>
      <trkpt lat="42.41886" lon="2.17941">
        <ele>2761.8000488281</ele>
        <time>2023-07-17T16:13:19.000Z</time>
      </trkpt>
      <trkpt lat="42.41887" lon="2.1794">
        <ele>2761</ele>
        <time>2023-07-17T16:13:21.000Z</time>
      </trkpt>
      <trkpt lat="42.41888" lon="2.17939">
        <ele>2758.8000488281</ele>
        <time>2023-07-17T16:13:24.000Z</time>
      </trkpt>
      <trkpt lat="42.41889" lon="2.17938">
        <ele>2758.1999511719</ele>
        <time>2023-07-17T16:13:25.000Z</time>
      </trkpt>
      <trkpt lat="42.41887" lon="2.17934">
        <ele>2759</ele>
        <time>2023-07-17T16:13:33.000Z</time>
      </trkpt>
      <trkpt lat="42.41885" lon="2.17933">
        <ele>2757.6000976562</ele>
        <time>2023-07-17T16:13:37.000Z</time>
      </trkpt>
      <trkpt lat="42.41884" lon="2.17932">
        <ele>2757.1999511719</ele>
        <time>2023-07-17T16:13:40.000Z</time>
      </trkpt>
      <trkpt lat="42.41884" lon="2.17931">
        <ele>2755.8000488281</ele>
        <time>2023-07-17T16:13:42.000Z</time>
      </trkpt>
      <trkpt lat="42.41886" lon="2.17925">
        <ele>2755.3999023438</ele>
        <time>2023-07-17T16:13:48.000Z</time>
      </trkpt>
      <trkpt lat="42.41884" lon="2.1792">
        <ele>2755</ele>
        <time>2023-07-17T16:13:54.000Z</time>
      </trkpt>
      <trkpt lat="42.41884" lon="2.1792">
        <ele>2754.8000488281</ele>
        <time>2023-07-17T16:13:56.000Z</time>
      </trkpt>
      <trkpt lat="42.41884" lon="2.17919">
        <ele>2754.6000976562</ele>
        <time>2023-07-17T16:13:59.000Z</time>
      </trkpt>
      <trkpt lat="42.41884" lon="2.17919">
        <ele>2753.3999023438</ele>
        <time>2023-07-17T16:14:03.000Z</time>
      </trkpt>
      <trkpt lat="42.41885" lon="2.17919">
        <ele>2752.3999023438</ele>
        <time>2023-07-17T16:14:07.000Z</time>
      </trkpt>
      <trkpt lat="42.41885" lon="2.1792">
        <ele>2752.1999511719</ele>
        <time>2023-07-17T16:14:08.000Z</time>
      </trkpt>
      <trkpt lat="42.41886" lon="2.1792">
        <ele>2751.6000976562</ele>
        <time>2023-07-17T16:14:14.000Z</time>
      </trkpt>
      <trkpt lat="42.41888" lon="2.17915">
        <ele>2751.3999023438</ele>
        <time>2023-07-17T16:14:23.000Z</time>
      </trkpt>
      <trkpt lat="42.41889" lon="2.17914">
        <ele>2751.1999511719</ele>
        <time>2023-07-17T16:14:26.000Z</time>
      </trkpt>
      <trkpt lat="42.41891" lon="2.17912">
        <ele>2750.3999023438</ele>
        <time>2023-07-17T16:14:30.000Z</time>
      </trkpt>
      <trkpt lat="42.41894" lon="2.17909">
        <ele>2749.8000488281</ele>
        <time>2023-07-17T16:14:36.000Z</time>
      </trkpt>
      <trkpt lat="42.41894" lon="2.17908">
        <ele>2749</ele>
        <time>2023-07-17T16:14:38.000Z</time>
      </trkpt>
      <trkpt lat="42.41895" lon="2.17908">
        <ele>2748.8000488281</ele>
        <time>2023-07-17T16:14:39.000Z</time>
      </trkpt>
      <trkpt lat="42.419" lon="2.17907">
        <ele>2747.8000488281</ele>
        <time>2023-07-17T16:14:45.000Z</time>
      </trkpt>
      <trkpt lat="42.419" lon="2.17906">
        <ele>2747.6000976562</ele>
        <time>2023-07-17T16:14:46.000Z</time>
      </trkpt>
      <trkpt lat="42.41906" lon="2.1791">
        <ele>2746.3999023438</ele>
        <time>2023-07-17T16:14:53.000Z</time>
      </trkpt>
      <trkpt lat="42.41907" lon="2.17909">
        <ele>2745.1999511719</ele>
        <time>2023-07-17T16:14:57.000Z</time>
      </trkpt>
      <trkpt lat="42.41907" lon="2.17907">
        <ele>2745</ele>
        <time>2023-07-17T16:15:01.000Z</time>
      </trkpt>
      <trkpt lat="42.41909" lon="2.17908">
        <ele>2745</ele>
        <time>2023-07-17T16:15:08.000Z</time>
      </trkpt>
      <trkpt lat="42.41911" lon="2.17906">
        <ele>2743.8000488281</ele>
        <time>2023-07-17T16:15:11.000Z</time>
      </trkpt>
      <trkpt lat="42.41913" lon="2.17906">
        <ele>2742.8000488281</ele>
        <time>2023-07-17T16:15:14.000Z</time>
      </trkpt>
      <trkpt lat="42.41913" lon="2.17906">
        <ele>2742.3999023438</ele>
        <time>2023-07-17T16:15:15.000Z</time>
      </trkpt>
      <trkpt lat="42.41913" lon="2.17905">
        <ele>2741.3999023438</ele>
        <time>2023-07-17T16:15:19.000Z</time>
      </trkpt>
      <trkpt lat="42.41913" lon="2.17905">
        <ele>2741.3999023438</ele>
        <time>2023-07-17T16:15:20.000Z</time>
      </trkpt>
      <trkpt lat="42.41915" lon="2.17907">
        <ele>2742</ele>
        <time>2023-07-17T16:15:27.000Z</time>
      </trkpt>
      <trkpt lat="42.41916" lon="2.17907">
        <ele>2742</ele>
        <time>2023-07-17T16:15:28.000Z</time>
      </trkpt>
      <trkpt lat="42.4192" lon="2.17906">
        <ele>2741.6000976562</ele>
        <time>2023-07-17T16:15:34.000Z</time>
      </trkpt>
      <trkpt lat="42.4192" lon="2.17906">
        <ele>2740.3999023438</ele>
        <time>2023-07-17T16:15:35.000Z</time>
      </trkpt>
      <trkpt lat="42.41921" lon="2.17906">
        <ele>2739.1999511719</ele>
        <time>2023-07-17T16:15:37.000Z</time>
      </trkpt>
      <trkpt lat="42.41923" lon="2.17904">
        <ele>2738.3999023438</ele>
        <time>2023-07-17T16:15:41.000Z</time>
      </trkpt>
      <trkpt lat="42.41926" lon="2.17903">
        <ele>2738</ele>
        <time>2023-07-17T16:15:44.000Z</time>
      </trkpt>
      <trkpt lat="42.41929" lon="2.17903">
        <ele>2737.6000976562</ele>
        <time>2023-07-17T16:15:48.000Z</time>
      </trkpt>
      <trkpt lat="42.41931" lon="2.17903">
        <ele>2737</ele>
        <time>2023-07-17T16:15:50.000Z</time>
      </trkpt>
      <trkpt lat="42.41935" lon="2.17902">
        <ele>2736.1999511719</ele>
        <time>2023-07-17T16:15:55.000Z</time>
      </trkpt>
      <trkpt lat="42.41937" lon="2.17902">
        <ele>2736</ele>
        <time>2023-07-17T16:15:58.000Z</time>
      </trkpt>
      <trkpt lat="42.41937" lon="2.17901">
        <ele>2735.8000488281</ele>
        <time>2023-07-17T16:16:01.000Z</time>
      </trkpt>
      <trkpt lat="42.41937" lon="2.179">
        <ele>2734.6000976562</ele>
        <time>2023-07-17T16:16:02.000Z</time>
      </trkpt>
      <trkpt lat="42.41937" lon="2.179">
        <ele>2734.3999023438</ele>
        <time>2023-07-17T16:16:03.000Z</time>
      </trkpt>
      <trkpt lat="42.41938" lon="2.17899">
        <ele>2733.6000976562</ele>
        <time>2023-07-17T16:16:05.000Z</time>
      </trkpt>
      <trkpt lat="42.41938" lon="2.17897">
        <ele>2732.3999023438</ele>
        <time>2023-07-17T16:16:07.000Z</time>
      </trkpt>
      <trkpt lat="42.41938" lon="2.17894">
        <ele>2732.3999023438</ele>
        <time>2023-07-17T16:16:12.000Z</time>
      </trkpt>
      <trkpt lat="42.41938" lon="2.1789">
        <ele>2731.6000976562</ele>
        <time>2023-07-17T16:16:19.000Z</time>
      </trkpt>
      <trkpt lat="42.41938" lon="2.17889">
        <ele>2731.1999511719</ele>
        <time>2023-07-17T16:16:20.000Z</time>
      </trkpt>
      <trkpt lat="42.41936" lon="2.17886">
        <ele>2730.8000488281</ele>
        <time>2023-07-17T16:16:27.000Z</time>
      </trkpt>
      <trkpt lat="42.41936" lon="2.17884">
        <ele>2730.1999511719</ele>
        <time>2023-07-17T16:16:29.000Z</time>
      </trkpt>
      <trkpt lat="42.4194" lon="2.17881">
        <ele>2729.3999023438</ele>
        <time>2023-07-17T16:16:34.000Z</time>
      </trkpt>
      <trkpt lat="42.41941" lon="2.17882">
        <ele>2731.1999511719</ele>
        <time>2023-07-17T16:16:37.000Z</time>
      </trkpt>
      <trkpt lat="42.41941" lon="2.17881">
        <ele>2732.3999023438</ele>
        <time>2023-07-17T16:16:38.000Z</time>
      </trkpt>
      <trkpt lat="42.41941" lon="2.17881">
        <ele>2732.6000976562</ele>
        <time>2023-07-17T16:16:40.000Z</time>
      </trkpt>
      <trkpt lat="42.41941" lon="2.17879">
        <ele>2728.8000488281</ele>
        <time>2023-07-17T16:16:43.000Z</time>
      </trkpt>
      <trkpt lat="42.41941" lon="2.17877">
        <ele>2725.6000976562</ele>
        <time>2023-07-17T16:16:44.000Z</time>
      </trkpt>
      <trkpt lat="42.41942" lon="2.17877">
        <ele>2723.1999511719</ele>
        <time>2023-07-17T16:16:45.000Z</time>
      </trkpt>
      <trkpt lat="42.41942" lon="2.17876">
        <ele>2723.1999511719</ele>
        <time>2023-07-17T16:16:47.000Z</time>
      </trkpt>
      <trkpt lat="42.41943" lon="2.17875">
        <ele>2724.6000976562</ele>
        <time>2023-07-17T16:16:49.000Z</time>
      </trkpt>
      <trkpt lat="42.41945" lon="2.17874">
        <ele>2725.6000976562</ele>
        <time>2023-07-17T16:16:52.000Z</time>
      </trkpt>
      <trkpt lat="42.41948" lon="2.17876">
        <ele>2726.1999511719</ele>
        <time>2023-07-17T16:16:55.000Z</time>
      </trkpt>
      <trkpt lat="42.41951" lon="2.17874">
        <ele>2723.8000488281</ele>
        <time>2023-07-17T16:16:59.000Z</time>
      </trkpt>
      <trkpt lat="42.41952" lon="2.17874">
        <ele>2721.6000976562</ele>
        <time>2023-07-17T16:17:00.000Z</time>
      </trkpt>
      <trkpt lat="42.41952" lon="2.17874">
        <ele>2720</ele>
        <time>2023-07-17T16:17:01.000Z</time>
      </trkpt>
      <trkpt lat="42.41954" lon="2.17873">
        <ele>2719.1999511719</ele>
        <time>2023-07-17T16:17:04.000Z</time>
      </trkpt>
      <trkpt lat="42.4196" lon="2.17872">
        <ele>2718.8000488281</ele>
        <time>2023-07-17T16:17:10.000Z</time>
      </trkpt>
      <trkpt lat="42.41961" lon="2.17872">
        <ele>2718.3999023438</ele>
        <time>2023-07-17T16:17:12.000Z</time>
      </trkpt>
      <trkpt lat="42.41962" lon="2.17872">
        <ele>2717.8000488281</ele>
        <time>2023-07-17T16:17:13.000Z</time>
      </trkpt>
      <trkpt lat="42.41961" lon="2.17872">
        <ele>2717.3999023438</ele>
        <time>2023-07-17T16:17:15.000Z</time>
      </trkpt>
      <trkpt lat="42.41964" lon="2.17869">
        <ele>2716.3999023438</ele>
        <time>2023-07-17T16:17:19.000Z</time>
      </trkpt>
      <trkpt lat="42.41967" lon="2.17866">
        <ele>2715.1999511719</ele>
        <time>2023-07-17T16:17:24.000Z</time>
      </trkpt>
      <trkpt lat="42.41968" lon="2.17864">
        <ele>2715.3999023438</ele>
        <time>2023-07-17T16:17:27.000Z</time>
      </trkpt>
      <trkpt lat="42.41968" lon="2.17864">
        <ele>2715.1999511719</ele>
        <time>2023-07-17T16:17:28.000Z</time>
      </trkpt>
      <trkpt lat="42.41967" lon="2.1786">
        <ele>2712.6000976562</ele>
        <time>2023-07-17T16:17:35.000Z</time>
      </trkpt>
      <trkpt lat="42.41968" lon="2.17859">
        <ele>2711.1999511719</ele>
        <time>2023-07-17T16:17:36.000Z</time>
      </trkpt>
      <trkpt lat="42.41973" lon="2.17855">
        <ele>2710.1999511719</ele>
        <time>2023-07-17T16:17:42.000Z</time>
      </trkpt>
      <trkpt lat="42.41974" lon="2.17855">
        <ele>2710.1999511719</ele>
        <time>2023-07-17T16:17:44.000Z</time>
      </trkpt>
      <trkpt lat="42.41976" lon="2.17854">
        <ele>2708.6000976562</ele>
        <time>2023-07-17T16:17:47.000Z</time>
      </trkpt>
      <trkpt lat="42.4198" lon="2.17852">
        <ele>2707.3999023438</ele>
        <time>2023-07-17T16:17:52.000Z</time>
      </trkpt>
      <trkpt lat="42.41988" lon="2.17846">
        <ele>2706.6000976562</ele>
        <time>2023-07-17T16:18:03.000Z</time>
      </trkpt>
      <trkpt lat="42.41989" lon="2.17846">
        <ele>2706</ele>
        <time>2023-07-17T16:18:04.000Z</time>
      </trkpt>
      <trkpt lat="42.41989" lon="2.17844">
        <ele>2704.3999023438</ele>
        <time>2023-07-17T16:18:06.000Z</time>
      </trkpt>
      <trkpt lat="42.4199" lon="2.17843">
        <ele>2703.3999023438</ele>
        <time>2023-07-17T16:18:09.000Z</time>
      </trkpt>
      <trkpt lat="42.41991" lon="2.17841">
        <ele>2702.6000976562</ele>
        <time>2023-07-17T16:18:11.000Z</time>
      </trkpt>
      <trkpt lat="42.41992" lon="2.17841">
        <ele>2702</ele>
        <time>2023-07-17T16:18:12.000Z</time>
      </trkpt>
      <trkpt lat="42.41993" lon="2.17838">
        <ele>2700.3999023438</ele>
        <time>2023-07-17T16:18:14.000Z</time>
      </trkpt>
      <trkpt lat="42.41992" lon="2.17836">
        <ele>2700.1999511719</ele>
        <time>2023-07-17T16:18:15.000Z</time>
      </trkpt>
      <trkpt lat="42.41992" lon="2.17834">
        <ele>2700.1999511719</ele>
        <time>2023-07-17T16:18:17.000Z</time>
      </trkpt>
      <trkpt lat="42.41991" lon="2.17831">
        <ele>2701.6000976562</ele>
        <time>2023-07-17T16:18:19.000Z</time>
      </trkpt>
      <trkpt lat="42.41988" lon="2.17829">
        <ele>2701.1999511719</ele>
        <time>2023-07-17T16:18:26.000Z</time>
      </trkpt>
      <trkpt lat="42.41988" lon="2.17826">
        <ele>2700</ele>
        <time>2023-07-17T16:18:28.000Z</time>
      </trkpt>
      <trkpt lat="42.41988" lon="2.17825">
        <ele>2698.6000976562</ele>
        <time>2023-07-17T16:18:29.000Z</time>
      </trkpt>
      <trkpt lat="42.41988" lon="2.17822">
        <ele>2698.6000976562</ele>
        <time>2023-07-17T16:18:32.000Z</time>
      </trkpt>
      <trkpt lat="42.41986" lon="2.1782">
        <ele>2698.3999023438</ele>
        <time>2023-07-17T16:18:38.000Z</time>
      </trkpt>
      <trkpt lat="42.41984" lon="2.17818">
        <ele>2698</ele>
        <time>2023-07-17T16:18:43.000Z</time>
      </trkpt>
      <trkpt lat="42.41985" lon="2.17818">
        <ele>2697.1999511719</ele>
        <time>2023-07-17T16:18:44.000Z</time>
      </trkpt>
      <trkpt lat="42.41986" lon="2.17817">
        <ele>2694</ele>
        <time>2023-07-17T16:18:45.000Z</time>
      </trkpt>
      <trkpt lat="42.41986" lon="2.17815">
        <ele>2693.1999511719</ele>
        <time>2023-07-17T16:18:50.000Z</time>
      </trkpt>
      <trkpt lat="42.41985" lon="2.1781">
        <ele>2693.1999511719</ele>
        <time>2023-07-17T16:18:58.000Z</time>
      </trkpt>
      <trkpt lat="42.41985" lon="2.17809">
        <ele>2692.8000488281</ele>
        <time>2023-07-17T16:19:00.000Z</time>
      </trkpt>
      <trkpt lat="42.41986" lon="2.17808">
        <ele>2691.8000488281</ele>
        <time>2023-07-17T16:19:01.000Z</time>
      </trkpt>
      <trkpt lat="42.41986" lon="2.17808">
        <ele>2689.8000488281</ele>
        <time>2023-07-17T16:19:02.000Z</time>
      </trkpt>
      <trkpt lat="42.41987" lon="2.17807">
        <ele>2688.6000976562</ele>
        <time>2023-07-17T16:19:05.000Z</time>
      </trkpt>
      <trkpt lat="42.41987" lon="2.17807">
        <ele>2688.6000976562</ele>
        <time>2023-07-17T16:19:06.000Z</time>
      </trkpt>
      <trkpt lat="42.41987" lon="2.17804">
        <ele>2689.3999023438</ele>
        <time>2023-07-17T16:19:13.000Z</time>
      </trkpt>
      <trkpt lat="42.41987" lon="2.17803">
        <ele>2690</ele>
        <time>2023-07-17T16:19:14.000Z</time>
      </trkpt>
      <trkpt lat="42.41987" lon="2.178">
        <ele>2689</ele>
        <time>2023-07-17T16:19:19.000Z</time>
      </trkpt>
      <trkpt lat="42.41987" lon="2.178">
        <ele>2687.6000976562</ele>
        <time>2023-07-17T16:19:20.000Z</time>
      </trkpt>
      <trkpt lat="42.41988" lon="2.178">
        <ele>2686.1999511719</ele>
        <time>2023-07-17T16:19:21.000Z</time>
      </trkpt>
      <trkpt lat="42.41989" lon="2.17799">
        <ele>2685</ele>
        <time>2023-07-17T16:19:22.000Z</time>
      </trkpt>
      <trkpt lat="42.41991" lon="2.17799">
        <ele>2684.6000976562</ele>
        <time>2023-07-17T16:19:27.000Z</time>
      </trkpt>
      <trkpt lat="42.41988" lon="2.17796">
        <ele>2686</ele>
        <time>2023-07-17T16:19:32.000Z</time>
      </trkpt>
      <trkpt lat="42.41987" lon="2.17794">
        <ele>2686</ele>
        <time>2023-07-17T16:19:34.000Z</time>
      </trkpt>
      <trkpt lat="42.41988" lon="2.17793">
        <ele>2684</ele>
        <time>2023-07-17T16:19:37.000Z</time>
      </trkpt>
      <trkpt lat="42.41988" lon="2.17793">
        <ele>2682.8000488281</ele>
        <time>2023-07-17T16:19:38.000Z</time>
      </trkpt>
      <trkpt lat="42.41988" lon="2.17792">
        <ele>2681.3999023438</ele>
        <time>2023-07-17T16:19:40.000Z</time>
      </trkpt>
      <trkpt lat="42.41989" lon="2.17791">
        <ele>2681</ele>
        <time>2023-07-17T16:19:42.000Z</time>
      </trkpt>
      <trkpt lat="42.4199" lon="2.17785">
        <ele>2680.3999023438</ele>
        <time>2023-07-17T16:19:50.000Z</time>
      </trkpt>
      <trkpt lat="42.41991" lon="2.17785">
        <ele>2680.3999023438</ele>
        <time>2023-07-17T16:19:51.000Z</time>
      </trkpt>
      <trkpt lat="42.41992" lon="2.17783">
        <ele>2679.1999511719</ele>
        <time>2023-07-17T16:19:54.000Z</time>
      </trkpt>
      <trkpt lat="42.41992" lon="2.17783">
        <ele>2678.6000976562</ele>
        <time>2023-07-17T16:19:57.000Z</time>
      </trkpt>
      <trkpt lat="42.41993" lon="2.17781">
        <ele>2677.8000488281</ele>
        <time>2023-07-17T16:20:01.000Z</time>
      </trkpt>
      <trkpt lat="42.41994" lon="2.1778">
        <ele>2676.6000976562</ele>
        <time>2023-07-17T16:20:03.000Z</time>
      </trkpt>
      <trkpt lat="42.41995" lon="2.17779">
        <ele>2675.3999023438</ele>
        <time>2023-07-17T16:20:05.000Z</time>
      </trkpt>
      <trkpt lat="42.41996" lon="2.17776">
        <ele>2674.3999023438</ele>
        <time>2023-07-17T16:20:09.000Z</time>
      </trkpt>
      <trkpt lat="42.41996" lon="2.17775">
        <ele>2674.3999023438</ele>
        <time>2023-07-17T16:20:10.000Z</time>
      </trkpt>
      <trkpt lat="42.41996" lon="2.17767">
        <ele>2674.6000976562</ele>
        <time>2023-07-17T16:20:17.000Z</time>
      </trkpt>
      <trkpt lat="42.41999" lon="2.17764">
        <ele>2673.8000488281</ele>
        <time>2023-07-17T16:20:24.000Z</time>
      </trkpt>
      <trkpt lat="42.42" lon="2.17762">
        <ele>2673.3999023438</ele>
        <time>2023-07-17T16:20:27.000Z</time>
      </trkpt>
      <trkpt lat="42.42001" lon="2.17761">
        <ele>2672.3999023438</ele>
        <time>2023-07-17T16:20:31.000Z</time>
      </trkpt>
      <trkpt lat="42.42003" lon="2.1776">
        <ele>2671.1999511719</ele>
        <time>2023-07-17T16:20:34.000Z</time>
      </trkpt>
      <trkpt lat="42.42004" lon="2.1776">
        <ele>2669.8000488281</ele>
        <time>2023-07-17T16:20:36.000Z</time>
      </trkpt>
      <trkpt lat="42.42008" lon="2.17758">
        <ele>2669.3999023438</ele>
        <time>2023-07-17T16:20:42.000Z</time>
      </trkpt>
      <trkpt lat="42.4201" lon="2.17754">
        <ele>2668.3999023438</ele>
        <time>2023-07-17T16:20:46.000Z</time>
      </trkpt>
      <trkpt lat="42.4201" lon="2.17751">
        <ele>2667.3999023438</ele>
        <time>2023-07-17T16:20:49.000Z</time>
      </trkpt>
      <trkpt lat="42.4201" lon="2.1775">
        <ele>2667.3999023438</ele>
        <time>2023-07-17T16:20:50.000Z</time>
      </trkpt>
      <trkpt lat="42.42011" lon="2.17749">
        <ele>2666.3999023438</ele>
        <time>2023-07-17T16:20:52.000Z</time>
      </trkpt>
      <trkpt lat="42.42011" lon="2.17749">
        <ele>2665.3999023438</ele>
        <time>2023-07-17T16:20:53.000Z</time>
      </trkpt>
      <trkpt lat="42.42013" lon="2.17747">
        <ele>2664.6000976562</ele>
        <time>2023-07-17T16:20:57.000Z</time>
      </trkpt>
      <trkpt lat="42.42015" lon="2.17745">
        <ele>2663.8000488281</ele>
        <time>2023-07-17T16:21:00.000Z</time>
      </trkpt>
      <trkpt lat="42.42015" lon="2.17742">
        <ele>2663</ele>
        <time>2023-07-17T16:21:05.000Z</time>
      </trkpt>
      <trkpt lat="42.42014" lon="2.17742">
        <ele>2662.8000488281</ele>
        <time>2023-07-17T16:21:06.000Z</time>
      </trkpt>
      <trkpt lat="42.42015" lon="2.17737">
        <ele>2662</ele>
        <time>2023-07-17T16:21:11.000Z</time>
      </trkpt>
      <trkpt lat="42.42017" lon="2.17733">
        <ele>2661.8000488281</ele>
        <time>2023-07-17T16:21:16.000Z</time>
      </trkpt>
      <trkpt lat="42.42018" lon="2.17732">
        <ele>2661</ele>
        <time>2023-07-17T16:21:19.000Z</time>
      </trkpt>
      <trkpt lat="42.42019" lon="2.17731">
        <ele>2660.6000976562</ele>
        <time>2023-07-17T16:21:20.000Z</time>
      </trkpt>
      <trkpt lat="42.4202" lon="2.17725">
        <ele>2659.8000488281</ele>
        <time>2023-07-17T16:21:26.000Z</time>
      </trkpt>
      <trkpt lat="42.4202" lon="2.17725">
        <ele>2659.1999511719</ele>
        <time>2023-07-17T16:21:30.000Z</time>
      </trkpt>
      <trkpt lat="42.42022" lon="2.17727">
        <ele>2659</ele>
        <time>2023-07-17T16:21:33.000Z</time>
      </trkpt>
      <trkpt lat="42.42025" lon="2.17725">
        <ele>2657.8000488281</ele>
        <time>2023-07-17T16:21:40.000Z</time>
      </trkpt>
      <trkpt lat="42.42026" lon="2.17725">
        <ele>2657.3999023438</ele>
        <time>2023-07-17T16:21:41.000Z</time>
      </trkpt>
      <trkpt lat="42.42029" lon="2.17722">
        <ele>2656.6000976562</ele>
        <time>2023-07-17T16:21:43.000Z</time>
      </trkpt>
      <trkpt lat="42.42033" lon="2.17717">
        <ele>2655.6000976562</ele>
        <time>2023-07-17T16:21:48.000Z</time>
      </trkpt>
      <trkpt lat="42.42037" lon="2.17711">
        <ele>2655.3999023438</ele>
        <time>2023-07-17T16:21:54.000Z</time>
      </trkpt>
      <trkpt lat="42.42038" lon="2.1771">
        <ele>2655.3999023438</ele>
        <time>2023-07-17T16:21:55.000Z</time>
      </trkpt>
      <trkpt lat="42.42045" lon="2.17705">
        <ele>2655</ele>
        <time>2023-07-17T16:22:02.000Z</time>
      </trkpt>
      <trkpt lat="42.42048" lon="2.17701">
        <ele>2654.3999023438</ele>
        <time>2023-07-17T16:22:06.000Z</time>
      </trkpt>
      <trkpt lat="42.4205" lon="2.177">
        <ele>2654</ele>
        <time>2023-07-17T16:22:08.000Z</time>
      </trkpt>
      <trkpt lat="42.42056" lon="2.17698">
        <ele>2654.8000488281</ele>
        <time>2023-07-17T16:22:14.000Z</time>
      </trkpt>
      <trkpt lat="42.42057" lon="2.17698">
        <ele>2656</ele>
        <time>2023-07-17T16:22:16.000Z</time>
      </trkpt>
      <trkpt lat="42.42057" lon="2.17697">
        <ele>2657.1999511719</ele>
        <time>2023-07-17T16:22:18.000Z</time>
      </trkpt>
      <trkpt lat="42.42058" lon="2.17695">
        <ele>2657.8000488281</ele>
        <time>2023-07-17T16:22:20.000Z</time>
      </trkpt>
      <trkpt lat="42.42063" lon="2.17689">
        <ele>2656.3999023438</ele>
        <time>2023-07-17T16:22:28.000Z</time>
      </trkpt>
      <trkpt lat="42.42064" lon="2.17688">
        <ele>2655</ele>
        <time>2023-07-17T16:22:29.000Z</time>
      </trkpt>
      <trkpt lat="42.42066" lon="2.17687">
        <ele>2654</ele>
        <time>2023-07-17T16:22:31.000Z</time>
      </trkpt>
      <trkpt lat="42.42068" lon="2.17685">
        <ele>2653.8000488281</ele>
        <time>2023-07-17T16:22:35.000Z</time>
      </trkpt>
      <trkpt lat="42.42076" lon="2.17677">
        <ele>2652.3999023438</ele>
        <time>2023-07-17T16:22:43.000Z</time>
      </trkpt>
      <trkpt lat="42.42077" lon="2.17672">
        <ele>2651.1999511719</ele>
        <time>2023-07-17T16:22:46.000Z</time>
      </trkpt>
      <trkpt lat="42.42079" lon="2.17666">
        <ele>2650.1999511719</ele>
        <time>2023-07-17T16:22:50.000Z</time>
      </trkpt>
      <trkpt lat="42.4208" lon="2.17663">
        <ele>2650</ele>
        <time>2023-07-17T16:22:52.000Z</time>
      </trkpt>
      <trkpt lat="42.42084" lon="2.17656">
        <ele>2649</ele>
        <time>2023-07-17T16:22:57.000Z</time>
      </trkpt>
      <trkpt lat="42.42085" lon="2.17654">
        <ele>2648.6000976562</ele>
        <time>2023-07-17T16:22:58.000Z</time>
      </trkpt>
      <trkpt lat="42.4209" lon="2.17648">
        <ele>2648</ele>
        <time>2023-07-17T16:23:04.000Z</time>
      </trkpt>
      <trkpt lat="42.42092" lon="2.17646">
        <ele>2647.6000976562</ele>
        <time>2023-07-17T16:23:06.000Z</time>
      </trkpt>
      <trkpt lat="42.42094" lon="2.17644">
        <ele>2647</ele>
        <time>2023-07-17T16:23:08.000Z</time>
      </trkpt>
      <trkpt lat="42.42102" lon="2.17638">
        <ele>2646.6000976562</ele>
        <time>2023-07-17T16:23:13.000Z</time>
      </trkpt>
      <trkpt lat="42.42105" lon="2.17637">
        <ele>2645.8000488281</ele>
        <time>2023-07-17T16:23:17.000Z</time>
      </trkpt>
      <trkpt lat="42.42107" lon="2.17636">
        <ele>2645.1999511719</ele>
        <time>2023-07-17T16:23:19.000Z</time>
      </trkpt>
      <trkpt lat="42.42108" lon="2.17634">
        <ele>2644.8000488281</ele>
        <time>2023-07-17T16:23:21.000Z</time>
      </trkpt>
      <trkpt lat="42.42112" lon="2.17632">
        <ele>2644.3999023438</ele>
        <time>2023-07-17T16:23:26.000Z</time>
      </trkpt>
      <trkpt lat="42.42116" lon="2.1763">
        <ele>2643.6000976562</ele>
        <time>2023-07-17T16:23:30.000Z</time>
      </trkpt>
      <trkpt lat="42.42119" lon="2.17625">
        <ele>2642.6000976562</ele>
        <time>2023-07-17T16:23:34.000Z</time>
      </trkpt>
      <trkpt lat="42.42121" lon="2.17623">
        <ele>2642.3999023438</ele>
        <time>2023-07-17T16:23:35.000Z</time>
      </trkpt>
      <trkpt lat="42.42124" lon="2.17614">
        <ele>2642.3999023438</ele>
        <time>2023-07-17T16:23:41.000Z</time>
      </trkpt>
      <trkpt lat="42.42121" lon="2.17613">
        <ele>2642.6000976562</ele>
        <time>2023-07-17T16:23:48.000Z</time>
      </trkpt>
      <trkpt lat="42.42123" lon="2.17613">
        <ele>2642.3999023438</ele>
        <time>2023-07-17T16:23:56.000Z</time>
      </trkpt>
      <trkpt lat="42.42126" lon="2.17604">
        <ele>2642</ele>
        <time>2023-07-17T16:24:03.000Z</time>
      </trkpt>
      <trkpt lat="42.42132" lon="2.17596">
        <ele>2642.3999023438</ele>
        <time>2023-07-17T16:24:12.000Z</time>
      </trkpt>
      <trkpt lat="42.42137" lon="2.17589">
        <ele>2642.3999023438</ele>
        <time>2023-07-17T16:24:21.000Z</time>
      </trkpt>
      <trkpt lat="42.42138" lon="2.17585">
        <ele>2642.1999511719</ele>
        <time>2023-07-17T16:24:27.000Z</time>
      </trkpt>
      <trkpt lat="42.42143" lon="2.17581">
        <ele>2642.3999023438</ele>
        <time>2023-07-17T16:24:33.000Z</time>
      </trkpt>
      <trkpt lat="42.4215" lon="2.17573">
        <ele>2642.6000976562</ele>
        <time>2023-07-17T16:24:41.000Z</time>
      </trkpt>
      <trkpt lat="42.42154" lon="2.17564">
        <ele>2642.6000976562</ele>
        <time>2023-07-17T16:24:49.000Z</time>
      </trkpt>
      <trkpt lat="42.42157" lon="2.1756">
        <ele>2643.1999511719</ele>
        <time>2023-07-17T16:24:56.000Z</time>
      </trkpt>
      <trkpt lat="42.42165" lon="2.17552">
        <ele>2643.3999023438</ele>
        <time>2023-07-17T16:25:04.000Z</time>
      </trkpt>
      <trkpt lat="42.42168" lon="2.17549">
        <ele>2643.6000976562</ele>
        <time>2023-07-17T16:25:08.000Z</time>
      </trkpt>
      <trkpt lat="42.42171" lon="2.17546">
        <ele>2644</ele>
        <time>2023-07-17T16:25:12.000Z</time>
      </trkpt>
      <trkpt lat="42.42172" lon="2.17544">
        <ele>2644.6000976562</ele>
        <time>2023-07-17T16:25:15.000Z</time>
      </trkpt>
      <trkpt lat="42.42172" lon="2.17542">
        <ele>2644.8000488281</ele>
        <time>2023-07-17T16:25:19.000Z</time>
      </trkpt>
      <trkpt lat="42.42174" lon="2.17537">
        <ele>2645</ele>
        <time>2023-07-17T16:25:27.000Z</time>
      </trkpt>
      <trkpt lat="42.42174" lon="2.17538">
        <ele>2645.6000976562</ele>
        <time>2023-07-17T16:25:32.000Z</time>
      </trkpt>
      <trkpt lat="42.42175" lon="2.17538">
        <ele>2646.1999511719</ele>
        <time>2023-07-17T16:25:35.000Z</time>
      </trkpt>
      <trkpt lat="42.42176" lon="2.17532">
        <ele>2646.3999023438</ele>
        <time>2023-07-17T16:25:41.000Z</time>
      </trkpt>
      <trkpt lat="42.42176" lon="2.17528">
        <ele>2646.8000488281</ele>
        <time>2023-07-17T16:25:45.000Z</time>
      </trkpt>
      <trkpt lat="42.42176" lon="2.17525">
        <ele>2647.8000488281</ele>
        <time>2023-07-17T16:25:49.000Z</time>
      </trkpt>
      <trkpt lat="42.42176" lon="2.17524">
        <ele>2648</ele>
        <time>2023-07-17T16:25:50.000Z</time>
      </trkpt>
      <trkpt lat="42.42178" lon="2.17519">
        <ele>2648.8000488281</ele>
        <time>2023-07-17T16:25:57.000Z</time>
      </trkpt>
      <trkpt lat="42.42178" lon="2.17519">
        <ele>2649.1999511719</ele>
        <time>2023-07-17T16:25:59.000Z</time>
      </trkpt>
      <trkpt lat="42.42179" lon="2.17518">
        <ele>2649.3999023438</ele>
        <time>2023-07-17T16:26:03.000Z</time>
      </trkpt>
      <trkpt lat="42.42185" lon="2.17511">
        <ele>2650.1999511719</ele>
        <time>2023-07-17T16:26:12.000Z</time>
      </trkpt>
      <trkpt lat="42.42186" lon="2.17508">
        <ele>2650.1999511719</ele>
        <time>2023-07-17T16:26:14.000Z</time>
      </trkpt>
      <trkpt lat="42.42188" lon="2.17504">
        <ele>2650.3999023438</ele>
        <time>2023-07-17T16:26:19.000Z</time>
      </trkpt>
      <trkpt lat="42.42185" lon="2.17504">
        <ele>2650.1999511719</ele>
        <time>2023-07-17T16:26:27.000Z</time>
      </trkpt>
      <trkpt lat="42.42185" lon="2.17496">
        <ele>2650.8000488281</ele>
        <time>2023-07-17T16:26:33.000Z</time>
      </trkpt>
      <trkpt lat="42.42186" lon="2.17489">
        <ele>2651.1999511719</ele>
        <time>2023-07-17T16:26:39.000Z</time>
      </trkpt>
      <trkpt lat="42.42192" lon="2.1748">
        <ele>2651.6000976562</ele>
        <time>2023-07-17T16:26:49.000Z</time>
      </trkpt>
      <trkpt lat="42.42194" lon="2.17473">
        <ele>2652</ele>
        <time>2023-07-17T16:26:56.000Z</time>
      </trkpt>
      <trkpt lat="42.42194" lon="2.17473">
        <ele>2652.3999023438</ele>
        <time>2023-07-17T16:26:58.000Z</time>
      </trkpt>
      <trkpt lat="42.42194" lon="2.17469">
        <ele>2652.6000976562</ele>
        <time>2023-07-17T16:27:02.000Z</time>
      </trkpt>
      <trkpt lat="42.42194" lon="2.17465">
        <ele>2653.3999023438</ele>
        <time>2023-07-17T16:27:07.000Z</time>
      </trkpt>
      <trkpt lat="42.42195" lon="2.17462">
        <ele>2653.6000976562</ele>
        <time>2023-07-17T16:27:08.000Z</time>
      </trkpt>
      <trkpt lat="42.422" lon="2.1745">
        <ele>2653.8000488281</ele>
        <time>2023-07-17T16:27:16.000Z</time>
      </trkpt>
      <trkpt lat="42.42203" lon="2.17443">
        <ele>2653.3999023438</ele>
        <time>2023-07-17T16:27:23.000Z</time>
      </trkpt>
      <trkpt lat="42.42205" lon="2.17438">
        <ele>2653</ele>
        <time>2023-07-17T16:27:29.000Z</time>
      </trkpt>
      <trkpt lat="42.4221" lon="2.1743">
        <ele>2652.6000976562</ele>
        <time>2023-07-17T16:27:37.000Z</time>
      </trkpt>
      <trkpt lat="42.4221" lon="2.17427">
        <ele>2652.3999023438</ele>
        <time>2023-07-17T16:27:41.000Z</time>
      </trkpt>
      <trkpt lat="42.42213" lon="2.17425">
        <ele>2652.6000976562</ele>
        <time>2023-07-17T16:27:44.000Z</time>
      </trkpt>
      <trkpt lat="42.4222" lon="2.17418">
        <ele>2652</ele>
        <time>2023-07-17T16:27:51.000Z</time>
      </trkpt>
      <trkpt lat="42.42225" lon="2.17407">
        <ele>2651.8000488281</ele>
        <time>2023-07-17T16:27:59.000Z</time>
      </trkpt>
      <trkpt lat="42.42225" lon="2.17402">
        <ele>2653.8000488281</ele>
        <time>2023-07-17T16:28:02.000Z</time>
      </trkpt>
      <trkpt lat="42.42225" lon="2.17401">
        <ele>2656</ele>
        <time>2023-07-17T16:28:04.000Z</time>
      </trkpt>
      <trkpt lat="42.42226" lon="2.17397">
        <ele>2656.1999511719</ele>
        <time>2023-07-17T16:28:09.000Z</time>
      </trkpt>
      <trkpt lat="42.42231" lon="2.17389">
        <ele>2655.8000488281</ele>
        <time>2023-07-17T16:28:17.000Z</time>
      </trkpt>
      <trkpt lat="42.42232" lon="2.17382">
        <ele>2656.6000976562</ele>
        <time>2023-07-17T16:28:23.000Z</time>
      </trkpt>
      <trkpt lat="42.42233" lon="2.17381">
        <ele>2657</ele>
        <time>2023-07-17T16:28:24.000Z</time>
      </trkpt>
      <trkpt lat="42.42234" lon="2.17377">
        <ele>2658.3999023438</ele>
        <time>2023-07-17T16:28:29.000Z</time>
      </trkpt>
      <trkpt lat="42.42236" lon="2.17373">
        <ele>2659</ele>
        <time>2023-07-17T16:28:32.000Z</time>
      </trkpt>
      <trkpt lat="42.42236" lon="2.17372">
        <ele>2659.8000488281</ele>
        <time>2023-07-17T16:28:34.000Z</time>
      </trkpt>
      <trkpt lat="42.42236" lon="2.17366">
        <ele>2660.1999511719</ele>
        <time>2023-07-17T16:28:41.000Z</time>
      </trkpt>
      <trkpt lat="42.42235" lon="2.17362">
        <ele>2661.1999511719</ele>
        <time>2023-07-17T16:28:46.000Z</time>
      </trkpt>
      <trkpt lat="42.42235" lon="2.1736">
        <ele>2662.1999511719</ele>
        <time>2023-07-17T16:28:49.000Z</time>
      </trkpt>
      <trkpt lat="42.42235" lon="2.17359">
        <ele>2662.1999511719</ele>
        <time>2023-07-17T16:28:50.000Z</time>
      </trkpt>
      <trkpt lat="42.42235" lon="2.17357">
        <ele>2663.3999023438</ele>
        <time>2023-07-17T16:28:54.000Z</time>
      </trkpt>
      <trkpt lat="42.42235" lon="2.17358">
        <ele>2663.3999023438</ele>
        <time>2023-07-17T16:28:57.000Z</time>
      </trkpt>
      <trkpt lat="42.42235" lon="2.17358">
        <ele>2663.8000488281</ele>
        <time>2023-07-17T16:29:01.000Z</time>
      </trkpt>
      <trkpt lat="42.42235" lon="2.17358">
        <ele>2664.3999023438</ele>
        <time>2023-07-17T16:29:02.000Z</time>
      </trkpt>
      <trkpt lat="42.42235" lon="2.17358">
        <ele>2664.6000976562</ele>
        <time>2023-07-17T16:29:03.000Z</time>
      </trkpt>
      <trkpt lat="42.42236" lon="2.17351">
        <ele>2665</ele>
        <time>2023-07-17T16:29:08.000Z</time>
      </trkpt>
      <trkpt lat="42.42236" lon="2.17343">
        <ele>2664.6000976562</ele>
        <time>2023-07-17T16:29:15.000Z</time>
      </trkpt>
      <trkpt lat="42.42236" lon="2.17338">
        <ele>2665</ele>
        <time>2023-07-17T16:29:21.000Z</time>
      </trkpt>
      <trkpt lat="42.42237" lon="2.17339">
        <ele>2665.3999023438</ele>
        <time>2023-07-17T16:29:24.000Z</time>
      </trkpt>
      <trkpt lat="42.42237" lon="2.17343">
        <ele>2667.1999511719</ele>
        <time>2023-07-17T16:29:28.000Z</time>
      </trkpt>
      <trkpt lat="42.42236" lon="2.17342">
        <ele>2668.6000976562</ele>
        <time>2023-07-17T16:29:30.000Z</time>
      </trkpt>
      <trkpt lat="42.42236" lon="2.17341">
        <ele>2670.1999511719</ele>
        <time>2023-07-17T16:29:32.000Z</time>
      </trkpt>
      <trkpt lat="42.42236" lon="2.17337">
        <ele>2670.3999023438</ele>
        <time>2023-07-17T16:29:36.000Z</time>
      </trkpt>
      <trkpt lat="42.42236" lon="2.17333">
        <ele>2669.1999511719</ele>
        <time>2023-07-17T16:29:41.000Z</time>
      </trkpt>
      <trkpt lat="42.42236" lon="2.17333">
        <ele>2668</ele>
        <time>2023-07-17T16:29:42.000Z</time>
      </trkpt>
      <trkpt lat="42.42237" lon="2.17331">
        <ele>2666.6000976562</ele>
        <time>2023-07-17T16:29:44.000Z</time>
      </trkpt>
      <trkpt lat="42.42237" lon="2.17331">
        <ele>2666.3999023438</ele>
        <time>2023-07-17T16:29:45.000Z</time>
      </trkpt>
      <trkpt lat="42.42238" lon="2.17326">
        <ele>2667</ele>
        <time>2023-07-17T16:29:52.000Z</time>
      </trkpt>
      <trkpt lat="42.42238" lon="2.17323">
        <ele>2667.6000976562</ele>
        <time>2023-07-17T16:29:55.000Z</time>
      </trkpt>
      <trkpt lat="42.42238" lon="2.1732">
        <ele>2668.3999023438</ele>
        <time>2023-07-17T16:29:59.000Z</time>
      </trkpt>
      <trkpt lat="42.42238" lon="2.17319">
        <ele>2669</ele>
        <time>2023-07-17T16:30:01.000Z</time>
      </trkpt>
      <trkpt lat="42.4224" lon="2.17316">
        <ele>2669.1999511719</ele>
        <time>2023-07-17T16:30:06.000Z</time>
      </trkpt>
      <trkpt lat="42.4224" lon="2.17317">
        <ele>2668</ele>
        <time>2023-07-17T16:30:12.000Z</time>
      </trkpt>
      <trkpt lat="42.42239" lon="2.17317">
        <ele>2667.8000488281</ele>
        <time>2023-07-17T16:30:13.000Z</time>
      </trkpt>
      <trkpt lat="42.4224" lon="2.17318">
        <ele>2668.3999023438</ele>
        <time>2023-07-17T16:30:18.000Z</time>
      </trkpt>
      <trkpt lat="42.42239" lon="2.17313">
        <ele>2668.6000976562</ele>
        <time>2023-07-17T16:30:25.000Z</time>
      </trkpt>
      <trkpt lat="42.42238" lon="2.17308">
        <ele>2669</ele>
        <time>2023-07-17T16:30:30.000Z</time>
      </trkpt>
      <trkpt lat="42.42238" lon="2.17308">
        <ele>2669.6000976562</ele>
        <time>2023-07-17T16:30:32.000Z</time>
      </trkpt>
      <trkpt lat="42.42238" lon="2.17307">
        <ele>2670.3999023438</ele>
        <time>2023-07-17T16:30:34.000Z</time>
      </trkpt>
      <trkpt lat="42.42239" lon="2.17303">
        <ele>2670.6000976562</ele>
        <time>2023-07-17T16:30:38.000Z</time>
      </trkpt>
      <trkpt lat="42.42238" lon="2.17303">
        <ele>2671.3999023438</ele>
        <time>2023-07-17T16:30:41.000Z</time>
      </trkpt>
      <trkpt lat="42.42238" lon="2.17302">
        <ele>2672</ele>
        <time>2023-07-17T16:30:43.000Z</time>
      </trkpt>
      <trkpt lat="42.42237" lon="2.17298">
        <ele>2672.3999023438</ele>
        <time>2023-07-17T16:30:48.000Z</time>
      </trkpt>
      <trkpt lat="42.42237" lon="2.17298">
        <ele>2672.6000976562</ele>
        <time>2023-07-17T16:30:50.000Z</time>
      </trkpt>
      <trkpt lat="42.42235" lon="2.17294">
        <ele>2673.6000976562</ele>
        <time>2023-07-17T16:30:57.000Z</time>
      </trkpt>
      <trkpt lat="42.42235" lon="2.17294">
        <ele>2674</ele>
        <time>2023-07-17T16:30:58.000Z</time>
      </trkpt>
      <trkpt lat="42.42235" lon="2.17293">
        <ele>2675.8000488281</ele>
        <time>2023-07-17T16:31:00.000Z</time>
      </trkpt>
      <trkpt lat="42.42235" lon="2.17291">
        <ele>2676.8000488281</ele>
        <time>2023-07-17T16:31:02.000Z</time>
      </trkpt>
      <trkpt lat="42.42237" lon="2.17286">
        <ele>2677.3999023438</ele>
        <time>2023-07-17T16:31:08.000Z</time>
      </trkpt>
      <trkpt lat="42.42241" lon="2.17281">
        <ele>2677.6000976562</ele>
        <time>2023-07-17T16:31:18.000Z</time>
      </trkpt>
      <trkpt lat="42.42244" lon="2.17278">
        <ele>2676.8000488281</ele>
        <time>2023-07-17T16:31:26.000Z</time>
      </trkpt>
      <trkpt lat="42.42244" lon="2.17273">
        <ele>2677.3999023438</ele>
        <time>2023-07-17T16:31:34.000Z</time>
      </trkpt>
      <trkpt lat="42.42244" lon="2.17271">
        <ele>2678</ele>
        <time>2023-07-17T16:31:36.000Z</time>
      </trkpt>
      <trkpt lat="42.42246" lon="2.17268">
        <ele>2679</ele>
        <time>2023-07-17T16:31:41.000Z</time>
      </trkpt>
      <trkpt lat="42.42247" lon="2.17266">
        <ele>2679.1999511719</ele>
        <time>2023-07-17T16:31:44.000Z</time>
      </trkpt>
      <trkpt lat="42.42247" lon="2.17263">
        <ele>2680.1999511719</ele>
        <time>2023-07-17T16:31:47.000Z</time>
      </trkpt>
      <trkpt lat="42.42247" lon="2.17262">
        <ele>2680.8000488281</ele>
        <time>2023-07-17T16:31:50.000Z</time>
      </trkpt>
      <trkpt lat="42.42247" lon="2.17261">
        <ele>2681.1999511719</ele>
        <time>2023-07-17T16:31:51.000Z</time>
      </trkpt>
      <trkpt lat="42.4225" lon="2.17256">
        <ele>2681.3999023438</ele>
        <time>2023-07-17T16:31:59.000Z</time>
      </trkpt>
      <trkpt lat="42.42251" lon="2.17252">
        <ele>2681.1999511719</ele>
        <time>2023-07-17T16:32:07.000Z</time>
      </trkpt>
      <trkpt lat="42.42253" lon="2.17247">
        <ele>2682.3999023438</ele>
        <time>2023-07-17T16:32:15.000Z</time>
      </trkpt>
      <trkpt lat="42.42254" lon="2.17247">
        <ele>2683.1999511719</ele>
        <time>2023-07-17T16:32:17.000Z</time>
      </trkpt>
      <trkpt lat="42.42255" lon="2.17246">
        <ele>2683.3999023438</ele>
        <time>2023-07-17T16:32:18.000Z</time>
      </trkpt>
      <trkpt lat="42.42254" lon="2.17241">
        <ele>2684.3999023438</ele>
        <time>2023-07-17T16:32:24.000Z</time>
      </trkpt>
      <trkpt lat="42.42254" lon="2.17236">
        <ele>2684.1999511719</ele>
        <time>2023-07-17T16:32:33.000Z</time>
      </trkpt>
      <trkpt lat="42.42256" lon="2.17233">
        <ele>2683.8000488281</ele>
        <time>2023-07-17T16:32:41.000Z</time>
      </trkpt>
      <trkpt lat="42.42258" lon="2.17231">
        <ele>2685.3999023438</ele>
        <time>2023-07-17T16:32:49.000Z</time>
      </trkpt>
      <trkpt lat="42.42258" lon="2.17231">
        <ele>2685.6000976562</ele>
        <time>2023-07-17T16:32:50.000Z</time>
      </trkpt>
      <trkpt lat="42.42259" lon="2.17227">
        <ele>2686.1999511719</ele>
        <time>2023-07-17T16:32:56.000Z</time>
      </trkpt>
      <trkpt lat="42.4226" lon="2.17224">
        <ele>2686.8000488281</ele>
        <time>2023-07-17T16:33:01.000Z</time>
      </trkpt>
      <trkpt lat="42.4226" lon="2.17226">
        <ele>2687.8000488281</ele>
        <time>2023-07-17T16:33:04.000Z</time>
      </trkpt>
      <trkpt lat="42.4226" lon="2.17226">
        <ele>2688.6000976562</ele>
        <time>2023-07-17T16:33:06.000Z</time>
      </trkpt>
      <trkpt lat="42.4226" lon="2.17225">
        <ele>2689.6000976562</ele>
        <time>2023-07-17T16:33:08.000Z</time>
      </trkpt>
      <trkpt lat="42.4226" lon="2.1722">
        <ele>2690.3999023438</ele>
        <time>2023-07-17T16:33:13.000Z</time>
      </trkpt>
      <trkpt lat="42.42262" lon="2.17217">
        <ele>2690.6000976562</ele>
        <time>2023-07-17T16:33:18.000Z</time>
      </trkpt>
      <trkpt lat="42.42263" lon="2.17216">
        <ele>2690.8000488281</ele>
        <time>2023-07-17T16:33:21.000Z</time>
      </trkpt>
      <trkpt lat="42.42263" lon="2.17214">
        <ele>2691.6000976562</ele>
        <time>2023-07-17T16:33:27.000Z</time>
      </trkpt>
      <trkpt lat="42.42263" lon="2.17213">
        <ele>2691.6000976562</ele>
        <time>2023-07-17T16:33:28.000Z</time>
      </trkpt>
      <trkpt lat="42.42263" lon="2.17207">
        <ele>2691.6000976562</ele>
        <time>2023-07-17T16:33:36.000Z</time>
      </trkpt>
      <trkpt lat="42.42263" lon="2.17205">
        <ele>2693</ele>
        <time>2023-07-17T16:33:43.000Z</time>
      </trkpt>
      <trkpt lat="42.42263" lon="2.17204">
        <ele>2693.6000976562</ele>
        <time>2023-07-17T16:33:45.000Z</time>
      </trkpt>
      <trkpt lat="42.42264" lon="2.172">
        <ele>2694.1999511719</ele>
        <time>2023-07-17T16:33:53.000Z</time>
      </trkpt>
      <trkpt lat="42.42264" lon="2.17199">
        <ele>2694.6000976562</ele>
        <time>2023-07-17T16:33:54.000Z</time>
      </trkpt>
      <trkpt lat="42.42263" lon="2.17197">
        <ele>2695.3999023438</ele>
        <time>2023-07-17T16:33:56.000Z</time>
      </trkpt>
      <trkpt lat="42.42264" lon="2.17192">
        <ele>2696</ele>
        <time>2023-07-17T16:34:04.000Z</time>
      </trkpt>
      <trkpt lat="42.42264" lon="2.17192">
        <ele>2696.6000976562</ele>
        <time>2023-07-17T16:34:06.000Z</time>
      </trkpt>
      <trkpt lat="42.42266" lon="2.17189">
        <ele>2697.8000488281</ele>
        <time>2023-07-17T16:34:13.000Z</time>
      </trkpt>
      <trkpt lat="42.42267" lon="2.17187">
        <ele>2697.8000488281</ele>
        <time>2023-07-17T16:34:21.000Z</time>
      </trkpt>
      <trkpt lat="42.42268" lon="2.17181">
        <ele>2698.8000488281</ele>
        <time>2023-07-17T16:34:29.000Z</time>
      </trkpt>
      <trkpt lat="42.42268" lon="2.17179">
        <ele>2700</ele>
        <time>2023-07-17T16:34:32.000Z</time>
      </trkpt>
      <trkpt lat="42.42268" lon="2.17178">
        <ele>2700.1999511719</ele>
        <time>2023-07-17T16:34:37.000Z</time>
      </trkpt>
      <trkpt lat="42.42269" lon="2.17175">
        <ele>2701.8000488281</ele>
        <time>2023-07-17T16:34:43.000Z</time>
      </trkpt>
      <trkpt lat="42.4227" lon="2.17174">
        <ele>2702</ele>
        <time>2023-07-17T16:34:46.000Z</time>
      </trkpt>
      <trkpt lat="42.42275" lon="2.17168">
        <ele>2702.1999511719</ele>
        <time>2023-07-17T16:34:54.000Z</time>
      </trkpt>
      <trkpt lat="42.42278" lon="2.17162">
        <ele>2702.6000976562</ele>
        <time>2023-07-17T16:35:02.000Z</time>
      </trkpt>
      <trkpt lat="42.42278" lon="2.17162">
        <ele>2702.8000488281</ele>
        <time>2023-07-17T16:35:03.000Z</time>
      </trkpt>
      <trkpt lat="42.42281" lon="2.17154">
        <ele>2704</ele>
        <time>2023-07-17T16:35:12.000Z</time>
      </trkpt>
      <trkpt lat="42.42281" lon="2.1715">
        <ele>2705</ele>
        <time>2023-07-17T16:35:18.000Z</time>
      </trkpt>
      <trkpt lat="42.42281" lon="2.17149">
        <ele>2705.3999023438</ele>
        <time>2023-07-17T16:35:20.000Z</time>
      </trkpt>
      <trkpt lat="42.42281" lon="2.17147">
        <ele>2706.8000488281</ele>
        <time>2023-07-17T16:35:27.000Z</time>
      </trkpt>
      <trkpt lat="42.42283" lon="2.17143">
        <ele>2707.8000488281</ele>
        <time>2023-07-17T16:35:36.000Z</time>
      </trkpt>
      <trkpt lat="42.42284" lon="2.17143">
        <ele>2707.8000488281</ele>
        <time>2023-07-17T16:35:37.000Z</time>
      </trkpt>
      <trkpt lat="42.42285" lon="2.17139">
        <ele>2708.8000488281</ele>
        <time>2023-07-17T16:35:45.000Z</time>
      </trkpt>
      <trkpt lat="42.42286" lon="2.17133">
        <ele>2709.8000488281</ele>
        <time>2023-07-17T16:35:52.000Z</time>
      </trkpt>
      <trkpt lat="42.42286" lon="2.17131">
        <ele>2710</ele>
        <time>2023-07-17T16:35:54.000Z</time>
      </trkpt>
      <trkpt lat="42.42287" lon="2.1713">
        <ele>2711</ele>
        <time>2023-07-17T16:35:58.000Z</time>
      </trkpt>
      <trkpt lat="42.42288" lon="2.17128">
        <ele>2711.3999023438</ele>
        <time>2023-07-17T16:36:01.000Z</time>
      </trkpt>
      <trkpt lat="42.42289" lon="2.17123">
        <ele>2712.1999511719</ele>
        <time>2023-07-17T16:36:07.000Z</time>
      </trkpt>
      <trkpt lat="42.42289" lon="2.17124">
        <ele>2713</ele>
        <time>2023-07-17T16:36:09.000Z</time>
      </trkpt>
      <trkpt lat="42.42289" lon="2.17124">
        <ele>2713.1999511719</ele>
        <time>2023-07-17T16:36:10.000Z</time>
      </trkpt>
      <trkpt lat="42.42291" lon="2.17122">
        <ele>2714.1999511719</ele>
        <time>2023-07-17T16:36:18.000Z</time>
      </trkpt>
      <trkpt lat="42.42292" lon="2.17121">
        <ele>2714.3999023438</ele>
        <time>2023-07-17T16:36:19.000Z</time>
      </trkpt>
      <trkpt lat="42.42294" lon="2.17118">
        <ele>2715.1999511719</ele>
        <time>2023-07-17T16:36:26.000Z</time>
      </trkpt>
      <trkpt lat="42.42294" lon="2.17117">
        <ele>2715.3999023438</ele>
        <time>2023-07-17T16:36:28.000Z</time>
      </trkpt>
      <trkpt lat="42.42294" lon="2.17112">
        <ele>2716.1999511719</ele>
        <time>2023-07-17T16:36:34.000Z</time>
      </trkpt>
      <trkpt lat="42.42295" lon="2.17111">
        <ele>2716.3999023438</ele>
        <time>2023-07-17T16:36:35.000Z</time>
      </trkpt>
      <trkpt lat="42.42295" lon="2.17109">
        <ele>2717.6000976562</ele>
        <time>2023-07-17T16:36:39.000Z</time>
      </trkpt>
      <trkpt lat="42.42296" lon="2.17108">
        <ele>2718</ele>
        <time>2023-07-17T16:36:42.000Z</time>
      </trkpt>
      <trkpt lat="42.42296" lon="2.17108">
        <ele>2718.6000976562</ele>
        <time>2023-07-17T16:36:46.000Z</time>
      </trkpt>
      <trkpt lat="42.42296" lon="2.17107">
        <ele>2719.8000488281</ele>
        <time>2023-07-17T16:36:49.000Z</time>
      </trkpt>
      <trkpt lat="42.42297" lon="2.17106">
        <ele>2720.1999511719</ele>
        <time>2023-07-17T16:36:50.000Z</time>
      </trkpt>
      <trkpt lat="42.42297" lon="2.17104">
        <ele>2721.3999023438</ele>
        <time>2023-07-17T16:36:52.000Z</time>
      </trkpt>
      <trkpt lat="42.42299" lon="2.17099">
        <ele>2721.6000976562</ele>
        <time>2023-07-17T16:36:57.000Z</time>
      </trkpt>
      <trkpt lat="42.423" lon="2.17098">
        <ele>2722.3999023438</ele>
        <time>2023-07-17T16:37:02.000Z</time>
      </trkpt>
      <trkpt lat="42.42301" lon="2.17096">
        <ele>2723.6000976562</ele>
        <time>2023-07-17T16:37:05.000Z</time>
      </trkpt>
      <trkpt lat="42.42302" lon="2.17096">
        <ele>2723.6000976562</ele>
        <time>2023-07-17T16:37:06.000Z</time>
      </trkpt>
      <trkpt lat="42.42304" lon="2.17092">
        <ele>2724.6000976562</ele>
        <time>2023-07-17T16:37:12.000Z</time>
      </trkpt>
      <trkpt lat="42.42305" lon="2.17088">
        <ele>2724.8000488281</ele>
        <time>2023-07-17T16:37:16.000Z</time>
      </trkpt>
      <trkpt lat="42.42307" lon="2.17083">
        <ele>2725.3999023438</ele>
        <time>2023-07-17T16:37:24.000Z</time>
      </trkpt>
      <trkpt lat="42.42307" lon="2.17082">
        <ele>2725.6000976562</ele>
        <time>2023-07-17T16:37:26.000Z</time>
      </trkpt>
      <trkpt lat="42.42308" lon="2.17082">
        <ele>2726.3999023438</ele>
        <time>2023-07-17T16:37:33.000Z</time>
      </trkpt>
      <trkpt lat="42.42309" lon="2.17081">
        <ele>2726.8000488281</ele>
        <time>2023-07-17T16:37:34.000Z</time>
      </trkpt>
      <trkpt lat="42.42309" lon="2.17076">
        <ele>2727.1999511719</ele>
        <time>2023-07-17T16:37:41.000Z</time>
      </trkpt>
      <trkpt lat="42.42309" lon="2.17074">
        <ele>2727.8000488281</ele>
        <time>2023-07-17T16:37:45.000Z</time>
      </trkpt>
      <trkpt lat="42.4231" lon="2.1707">
        <ele>2728.6000976562</ele>
        <time>2023-07-17T16:37:49.000Z</time>
      </trkpt>
      <trkpt lat="42.42311" lon="2.17066">
        <ele>2728.8000488281</ele>
        <time>2023-07-17T16:37:54.000Z</time>
      </trkpt>
      <trkpt lat="42.42311" lon="2.17064">
        <ele>2729.1999511719</ele>
        <time>2023-07-17T16:37:57.000Z</time>
      </trkpt>
      <trkpt lat="42.42312" lon="2.17064">
        <ele>2730.1999511719</ele>
        <time>2023-07-17T16:38:01.000Z</time>
      </trkpt>
      <trkpt lat="42.42312" lon="2.17063">
        <ele>2731</ele>
        <time>2023-07-17T16:38:06.000Z</time>
      </trkpt>
      <trkpt lat="42.42312" lon="2.1706">
        <ele>2731.1999511719</ele>
        <time>2023-07-17T16:38:10.000Z</time>
      </trkpt>
      <trkpt lat="42.42312" lon="2.17058">
        <ele>2731.3999023438</ele>
        <time>2023-07-17T16:38:12.000Z</time>
      </trkpt>
      <trkpt lat="42.42313" lon="2.17057">
        <ele>2732</ele>
        <time>2023-07-17T16:38:19.000Z</time>
      </trkpt>
      <trkpt lat="42.42313" lon="2.17058">
        <ele>2731.6000976562</ele>
        <time>2023-07-17T16:38:31.000Z</time>
      </trkpt>
      <trkpt lat="42.42314" lon="2.17059">
        <ele>2732</ele>
        <time>2023-07-17T16:38:38.000Z</time>
      </trkpt>
      <trkpt lat="42.42314" lon="2.17058">
        <ele>2731.8000488281</ele>
        <time>2023-07-17T16:38:46.000Z</time>
      </trkpt>
      <trkpt lat="42.42313" lon="2.17058">
        <ele>2731.8000488281</ele>
        <time>2023-07-17T16:38:54.000Z</time>
      </trkpt>
      <trkpt lat="42.42313" lon="2.17058">
        <ele>2732.1999511719</ele>
        <time>2023-07-17T16:39:00.000Z</time>
      </trkpt>
      <trkpt lat="42.42313" lon="2.17059">
        <ele>2732.3999023438</ele>
        <time>2023-07-17T16:39:05.000Z</time>
      </trkpt>
      <trkpt lat="42.42314" lon="2.17056">
        <ele>2733.1999511719</ele>
        <time>2023-07-17T16:39:13.000Z</time>
      </trkpt>
      <trkpt lat="42.42314" lon="2.17055">
        <ele>2733.1999511719</ele>
        <time>2023-07-17T16:39:14.000Z</time>
      </trkpt>
      <trkpt lat="42.42316" lon="2.17048">
        <ele>2733.8000488281</ele>
        <time>2023-07-17T16:39:22.000Z</time>
      </trkpt>
      <trkpt lat="42.42317" lon="2.17048">
        <ele>2734.6000976562</ele>
        <time>2023-07-17T16:39:24.000Z</time>
      </trkpt>
      <trkpt lat="42.42318" lon="2.17046">
        <ele>2735.6000976562</ele>
        <time>2023-07-17T16:39:29.000Z</time>
      </trkpt>
      <trkpt lat="42.42319" lon="2.1704">
        <ele>2736.6000976562</ele>
        <time>2023-07-17T16:39:36.000Z</time>
      </trkpt>
      <trkpt lat="42.4232" lon="2.17039">
        <ele>2736.6000976562</ele>
        <time>2023-07-17T16:39:37.000Z</time>
      </trkpt>
      <trkpt lat="42.42324" lon="2.17033">
        <ele>2737.3999023438</ele>
        <time>2023-07-17T16:39:45.000Z</time>
      </trkpt>
      <trkpt lat="42.42324" lon="2.17032">
        <ele>2737.6000976562</ele>
        <time>2023-07-17T16:39:47.000Z</time>
      </trkpt>
      <trkpt lat="42.42326" lon="2.17032">
        <ele>2738.6000976562</ele>
        <time>2023-07-17T16:39:53.000Z</time>
      </trkpt>
      <trkpt lat="42.42327" lon="2.17031">
        <ele>2738.8000488281</ele>
        <time>2023-07-17T16:39:54.000Z</time>
      </trkpt>
      <trkpt lat="42.42329" lon="2.17028">
        <ele>2739.8000488281</ele>
        <time>2023-07-17T16:40:00.000Z</time>
      </trkpt>
      <trkpt lat="42.42329" lon="2.17027">
        <ele>2740</ele>
        <time>2023-07-17T16:40:02.000Z</time>
      </trkpt>
      <trkpt lat="42.4233" lon="2.17026">
        <ele>2740.8000488281</ele>
        <time>2023-07-17T16:40:07.000Z</time>
      </trkpt>
      <trkpt lat="42.42331" lon="2.17026">
        <ele>2741</ele>
        <time>2023-07-17T16:40:09.000Z</time>
      </trkpt>
      <trkpt lat="42.42327" lon="2.17023">
        <ele>2742</ele>
        <time>2023-07-17T16:40:17.000Z</time>
      </trkpt>
      <trkpt lat="42.42326" lon="2.17023">
        <ele>2742.3999023438</ele>
        <time>2023-07-17T16:40:18.000Z</time>
      </trkpt>
      <trkpt lat="42.42327" lon="2.17018">
        <ele>2743.1999511719</ele>
        <time>2023-07-17T16:40:23.000Z</time>
      </trkpt>
      <trkpt lat="42.42328" lon="2.17016">
        <ele>2743.6000976562</ele>
        <time>2023-07-17T16:40:26.000Z</time>
      </trkpt>
      <trkpt lat="42.42329" lon="2.17015">
        <ele>2744.3999023438</ele>
        <time>2023-07-17T16:40:30.000Z</time>
      </trkpt>
      <trkpt lat="42.4233" lon="2.17013">
        <ele>2745.1999511719</ele>
        <time>2023-07-17T16:40:34.000Z</time>
      </trkpt>
      <trkpt lat="42.4233" lon="2.17013">
        <ele>2745.3999023438</ele>
        <time>2023-07-17T16:40:35.000Z</time>
      </trkpt>
      <trkpt lat="42.42329" lon="2.17008">
        <ele>2746.6000976562</ele>
        <time>2023-07-17T16:40:44.000Z</time>
      </trkpt>
      <trkpt lat="42.42329" lon="2.17008">
        <ele>2746.8000488281</ele>
        <time>2023-07-17T16:40:45.000Z</time>
      </trkpt>
      <trkpt lat="42.42332" lon="2.17005">
        <ele>2747.8000488281</ele>
        <time>2023-07-17T16:40:52.000Z</time>
      </trkpt>
      <trkpt lat="42.42333" lon="2.17006">
        <ele>2748.3999023438</ele>
        <time>2023-07-17T16:40:54.000Z</time>
      </trkpt>
      <trkpt lat="42.42333" lon="2.17006">
        <ele>2749</ele>
        <time>2023-07-17T16:40:56.000Z</time>
      </trkpt>
      <trkpt lat="42.42332" lon="2.17005">
        <ele>2749.6000976562</ele>
        <time>2023-07-17T16:41:01.000Z</time>
      </trkpt>
      <trkpt lat="42.4233" lon="2.17002">
        <ele>2750</ele>
        <time>2023-07-17T16:41:07.000Z</time>
      </trkpt>
      <trkpt lat="42.4233" lon="2.17003">
        <ele>2750.6000976562</ele>
        <time>2023-07-17T16:41:08.000Z</time>
      </trkpt>
      <trkpt lat="42.42329" lon="2.17001">
        <ele>2751.1999511719</ele>
        <time>2023-07-17T16:41:11.000Z</time>
      </trkpt>
      <trkpt lat="42.42329" lon="2.16998">
        <ele>2752.1999511719</ele>
        <time>2023-07-17T16:41:16.000Z</time>
      </trkpt>
      <trkpt lat="42.42329" lon="2.16998">
        <ele>2752.1999511719</ele>
        <time>2023-07-17T16:41:17.000Z</time>
      </trkpt>
      <trkpt lat="42.4233" lon="2.16996">
        <ele>2753.1999511719</ele>
        <time>2023-07-17T16:41:22.000Z</time>
      </trkpt>
      <trkpt lat="42.42332" lon="2.16994">
        <ele>2753.6000976562</ele>
        <time>2023-07-17T16:41:25.000Z</time>
      </trkpt>
      <trkpt lat="42.42331" lon="2.16992">
        <ele>2754.1999511719</ele>
        <time>2023-07-17T16:41:34.000Z</time>
      </trkpt>
      <trkpt lat="42.42331" lon="2.16994">
        <ele>2754.3999023438</ele>
        <time>2023-07-17T16:41:43.000Z</time>
      </trkpt>
      <trkpt lat="42.42332" lon="2.16994">
        <ele>2755</ele>
        <time>2023-07-17T16:41:54.000Z</time>
      </trkpt>
      <trkpt lat="42.42333" lon="2.16992">
        <ele>2754.6000976562</ele>
        <time>2023-07-17T16:42:01.000Z</time>
      </trkpt>
      <trkpt lat="42.42334" lon="2.16989">
        <ele>2755.6000976562</ele>
        <time>2023-07-17T16:42:06.000Z</time>
      </trkpt>
      <trkpt lat="42.42335" lon="2.16988">
        <ele>2756.1999511719</ele>
        <time>2023-07-17T16:42:09.000Z</time>
      </trkpt>
      <trkpt lat="42.42336" lon="2.16987">
        <ele>2757</ele>
        <time>2023-07-17T16:42:10.000Z</time>
      </trkpt>
      <trkpt lat="42.42337" lon="2.16985">
        <ele>2758.1999511719</ele>
        <time>2023-07-17T16:42:13.000Z</time>
      </trkpt>
      <trkpt lat="42.42336" lon="2.16981">
        <ele>2758.8000488281</ele>
        <time>2023-07-17T16:42:18.000Z</time>
      </trkpt>
      <trkpt lat="42.42334" lon="2.16974">
        <ele>2758.1999511719</ele>
        <time>2023-07-17T16:42:24.000Z</time>
      </trkpt>
      <trkpt lat="42.42335" lon="2.16971">
        <ele>2759.3999023438</ele>
        <time>2023-07-17T16:42:29.000Z</time>
      </trkpt>
      <trkpt lat="42.42337" lon="2.16972">
        <ele>2761</ele>
        <time>2023-07-17T16:42:31.000Z</time>
      </trkpt>
      <trkpt lat="42.42337" lon="2.16972">
        <ele>2762</ele>
        <time>2023-07-17T16:42:32.000Z</time>
      </trkpt>
      <trkpt lat="42.42338" lon="2.1697">
        <ele>2762.8000488281</ele>
        <time>2023-07-17T16:42:37.000Z</time>
      </trkpt>
      <trkpt lat="42.42339" lon="2.1697">
        <ele>2763.6000976562</ele>
        <time>2023-07-17T16:42:39.000Z</time>
      </trkpt>
      <trkpt lat="42.42339" lon="2.16966">
        <ele>2763.3999023438</ele>
        <time>2023-07-17T16:42:46.000Z</time>
      </trkpt>
      <trkpt lat="42.42338" lon="2.1696">
        <ele>2765.8000488281</ele>
        <time>2023-07-17T16:42:55.000Z</time>
      </trkpt>
      <trkpt lat="42.42339" lon="2.16958">
        <ele>2767</ele>
        <time>2023-07-17T16:42:56.000Z</time>
      </trkpt>
      <trkpt lat="42.42341" lon="2.16957">
        <ele>2766.1999511719</ele>
        <time>2023-07-17T16:43:03.000Z</time>
      </trkpt>
      <trkpt lat="42.42342" lon="2.16957">
        <ele>2766.1999511719</ele>
        <time>2023-07-17T16:43:04.000Z</time>
      </trkpt>
      <trkpt lat="42.42348" lon="2.16957">
        <ele>2766.8000488281</ele>
        <time>2023-07-17T16:43:11.000Z</time>
      </trkpt>
      <trkpt lat="42.42349" lon="2.16955">
        <ele>2767.1999511719</ele>
        <time>2023-07-17T16:43:14.000Z</time>
      </trkpt>
      <trkpt lat="42.42348" lon="2.16955">
        <ele>2767.1999511719</ele>
        <time>2023-07-17T16:43:16.000Z</time>
      </trkpt>
      <trkpt lat="42.42348" lon="2.16953">
        <ele>2767</ele>
        <time>2023-07-17T16:43:23.000Z</time>
      </trkpt>
      <trkpt lat="42.42348" lon="2.16951">
        <ele>2768</ele>
        <time>2023-07-17T16:43:25.000Z</time>
      </trkpt>
      <trkpt lat="42.42348" lon="2.16951">
        <ele>2768.8000488281</ele>
        <time>2023-07-17T16:43:26.000Z</time>
      </trkpt>
      <trkpt lat="42.42349" lon="2.1695">
        <ele>2769.3999023438</ele>
        <time>2023-07-17T16:43:28.000Z</time>
      </trkpt>
      <trkpt lat="42.4235" lon="2.1695">
        <ele>2770.8000488281</ele>
        <time>2023-07-17T16:43:31.000Z</time>
      </trkpt>
      <trkpt lat="42.42351" lon="2.16953">
        <ele>2771.8000488281</ele>
        <time>2023-07-17T16:43:35.000Z</time>
      </trkpt>
      <trkpt lat="42.42354" lon="2.16953">
        <ele>2773</ele>
        <time>2023-07-17T16:43:40.000Z</time>
      </trkpt>
      <trkpt lat="42.42355" lon="2.16952">
        <ele>2774</ele>
        <time>2023-07-17T16:43:42.000Z</time>
      </trkpt>
      <trkpt lat="42.42355" lon="2.16952">
        <ele>2774.3999023438</ele>
        <time>2023-07-17T16:43:43.000Z</time>
      </trkpt>
      <trkpt lat="42.42356" lon="2.16951">
        <ele>2775.6000976562</ele>
        <time>2023-07-17T16:43:45.000Z</time>
      </trkpt>
      <trkpt lat="42.42357" lon="2.16951">
        <ele>2776.6000976562</ele>
        <time>2023-07-17T16:43:47.000Z</time>
      </trkpt>
      <trkpt lat="42.42359" lon="2.1695">
        <ele>2777.1999511719</ele>
        <time>2023-07-17T16:43:51.000Z</time>
      </trkpt>
      <trkpt lat="42.42362" lon="2.16949">
        <ele>2777.1999511719</ele>
        <time>2023-07-17T16:43:59.000Z</time>
      </trkpt>
      <trkpt lat="42.42365" lon="2.16948">
        <ele>2777</ele>
        <time>2023-07-17T16:44:08.000Z</time>
      </trkpt>
      <trkpt lat="42.42364" lon="2.16949">
        <ele>2775.6000976562</ele>
        <time>2023-07-17T16:44:15.000Z</time>
      </trkpt>
      <trkpt lat="42.42365" lon="2.16949">
        <ele>2775.6000976562</ele>
        <time>2023-07-17T16:44:17.000Z</time>
      </trkpt>
      <trkpt lat="42.42366" lon="2.16948">
        <ele>2775.6000976562</ele>
        <time>2023-07-17T16:44:26.000Z</time>
      </trkpt>
      <trkpt lat="42.42367" lon="2.16947">
        <ele>2776.3999023438</ele>
        <time>2023-07-17T16:44:34.000Z</time>
      </trkpt>
      <trkpt lat="42.42367" lon="2.16947">
        <ele>2776.8000488281</ele>
        <time>2023-07-17T16:44:35.000Z</time>
      </trkpt>
      <trkpt lat="42.42369" lon="2.16946">
        <ele>2777.8000488281</ele>
        <time>2023-07-17T16:44:38.000Z</time>
      </trkpt>
      <trkpt lat="42.42372" lon="2.16944">
        <ele>2778.8000488281</ele>
        <time>2023-07-17T16:44:43.000Z</time>
      </trkpt>
      <trkpt lat="42.42375" lon="2.16944">
        <ele>2779.8000488281</ele>
        <time>2023-07-17T16:44:50.000Z</time>
      </trkpt>
      <trkpt lat="42.42376" lon="2.16943">
        <ele>2780.1999511719</ele>
        <time>2023-07-17T16:44:52.000Z</time>
      </trkpt>
      <trkpt lat="42.42376" lon="2.16943">
        <ele>2781.1999511719</ele>
        <time>2023-07-17T16:44:54.000Z</time>
      </trkpt>
      <trkpt lat="42.42378" lon="2.1694">
        <ele>2781.6000976562</ele>
        <time>2023-07-17T16:45:00.000Z</time>
      </trkpt>
      <trkpt lat="42.42381" lon="2.16938">
        <ele>2782.3999023438</ele>
        <time>2023-07-17T16:45:04.000Z</time>
      </trkpt>
      <trkpt lat="42.42384" lon="2.16936">
        <ele>2783.3999023438</ele>
        <time>2023-07-17T16:45:08.000Z</time>
      </trkpt>
      <trkpt lat="42.42385" lon="2.16936">
        <ele>2783.8000488281</ele>
        <time>2023-07-17T16:45:10.000Z</time>
      </trkpt>
      <trkpt lat="42.42386" lon="2.16936">
        <ele>2784.1999511719</ele>
        <time>2023-07-17T16:45:13.000Z</time>
      </trkpt>
      <trkpt lat="42.42386" lon="2.16936">
        <ele>2784.6000976562</ele>
        <time>2023-07-17T16:45:15.000Z</time>
      </trkpt>
      <trkpt lat="42.42387" lon="2.16935">
        <ele>2784.6000976562</ele>
        <time>2023-07-17T16:45:16.000Z</time>
      </trkpt>
      <trkpt lat="42.42386" lon="2.16933">
        <ele>2785.1999511719</ele>
        <time>2023-07-17T16:45:24.000Z</time>
      </trkpt>
      <trkpt lat="42.42385" lon="2.16933">
        <ele>2785.6000976562</ele>
        <time>2023-07-17T16:45:26.000Z</time>
      </trkpt>
      <trkpt lat="42.42386" lon="2.1693">
        <ele>2786.3999023438</ele>
        <time>2023-07-17T16:45:34.000Z</time>
      </trkpt>
      <trkpt lat="42.42387" lon="2.16929">
        <ele>2786.1999511719</ele>
        <time>2023-07-17T16:45:42.000Z</time>
      </trkpt>
      <trkpt lat="42.42389" lon="2.16928">
        <ele>2786.6000976562</ele>
        <time>2023-07-17T16:45:49.000Z</time>
      </trkpt>
      <trkpt lat="42.4239" lon="2.16928">
        <ele>2786.6000976562</ele>
        <time>2023-07-17T16:45:51.000Z</time>
      </trkpt>
      <trkpt lat="42.42391" lon="2.16926">
        <ele>2787</ele>
        <time>2023-07-17T16:45:57.000Z</time>
      </trkpt>
      <trkpt lat="42.42393" lon="2.16924">
        <ele>2787.8000488281</ele>
        <time>2023-07-17T16:46:02.000Z</time>
      </trkpt>
      <trkpt lat="42.42395" lon="2.16921">
        <ele>2788.3999023438</ele>
        <time>2023-07-17T16:46:06.000Z</time>
      </trkpt>
      <trkpt lat="42.42395" lon="2.1692">
        <ele>2788.8000488281</ele>
        <time>2023-07-17T16:46:08.000Z</time>
      </trkpt>
      <trkpt lat="42.42396" lon="2.16918">
        <ele>2789.3999023438</ele>
        <time>2023-07-17T16:46:14.000Z</time>
      </trkpt>
      <trkpt lat="42.42397" lon="2.16918">
        <ele>2790.1999511719</ele>
        <time>2023-07-17T16:46:17.000Z</time>
      </trkpt>
      <trkpt lat="42.42399" lon="2.16916">
        <ele>2791</ele>
        <time>2023-07-17T16:46:23.000Z</time>
      </trkpt>
      <trkpt lat="42.42399" lon="2.16916">
        <ele>2791.1999511719</ele>
        <time>2023-07-17T16:46:24.000Z</time>
      </trkpt>
      <trkpt lat="42.424" lon="2.16913">
        <ele>2791.6000976562</ele>
        <time>2023-07-17T16:46:31.000Z</time>
      </trkpt>
      <trkpt lat="42.42402" lon="2.16909">
        <ele>2792.3999023438</ele>
        <time>2023-07-17T16:46:39.000Z</time>
      </trkpt>
      <trkpt lat="42.42403" lon="2.1691">
        <ele>2792.3999023438</ele>
        <time>2023-07-17T16:46:41.000Z</time>
      </trkpt>
      <trkpt lat="42.42404" lon="2.16909">
        <ele>2793.6000976562</ele>
        <time>2023-07-17T16:46:45.000Z</time>
      </trkpt>
      <trkpt lat="42.42406" lon="2.16907">
        <ele>2793.8000488281</ele>
        <time>2023-07-17T16:46:49.000Z</time>
      </trkpt>
      <trkpt lat="42.42409" lon="2.16905">
        <ele>2794.6000976562</ele>
        <time>2023-07-17T16:46:57.000Z</time>
      </trkpt>
      <trkpt lat="42.42409" lon="2.16903">
        <ele>2795.8000488281</ele>
        <time>2023-07-17T16:47:04.000Z</time>
      </trkpt>
      <trkpt lat="42.4241" lon="2.16904">
        <ele>2795.8000488281</ele>
        <time>2023-07-17T16:47:13.000Z</time>
      </trkpt>
      <trkpt lat="42.4241" lon="2.16903">
        <ele>2795.6000976562</ele>
        <time>2023-07-17T16:47:21.000Z</time>
      </trkpt>
      <trkpt lat="42.4241" lon="2.16898">
        <ele>2796</ele>
        <time>2023-07-17T16:47:28.000Z</time>
      </trkpt>
      <trkpt lat="42.42412" lon="2.16897">
        <ele>2796.8000488281</ele>
        <time>2023-07-17T16:47:32.000Z</time>
      </trkpt>
      <trkpt lat="42.42414" lon="2.16896">
        <ele>2797.3999023438</ele>
        <time>2023-07-17T16:47:36.000Z</time>
      </trkpt>
      <trkpt lat="42.42415" lon="2.16895">
        <ele>2798</ele>
        <time>2023-07-17T16:47:39.000Z</time>
      </trkpt>
      <trkpt lat="42.42416" lon="2.16889">
        <ele>2798.8000488281</ele>
        <time>2023-07-17T16:47:44.000Z</time>
      </trkpt>
      <trkpt lat="42.42416" lon="2.16888">
        <ele>2799.1999511719</ele>
        <time>2023-07-17T16:47:45.000Z</time>
      </trkpt>
      <trkpt lat="42.42416" lon="2.16886">
        <ele>2800.1999511719</ele>
        <time>2023-07-17T16:47:49.000Z</time>
      </trkpt>
      <trkpt lat="42.42417" lon="2.16886">
        <ele>2801.1999511719</ele>
        <time>2023-07-17T16:47:53.000Z</time>
      </trkpt>
      <trkpt lat="42.42418" lon="2.16886">
        <ele>2801.6000976562</ele>
        <time>2023-07-17T16:47:54.000Z</time>
      </trkpt>
      <trkpt lat="42.42421" lon="2.16884">
        <ele>2802.8000488281</ele>
        <time>2023-07-17T16:48:00.000Z</time>
      </trkpt>
      <trkpt lat="42.42423" lon="2.16882">
        <ele>2804.1999511719</ele>
        <time>2023-07-17T16:48:07.000Z</time>
      </trkpt>
      <trkpt lat="42.42423" lon="2.16882">
        <ele>2804.3999023438</ele>
        <time>2023-07-17T16:48:09.000Z</time>
      </trkpt>
      <trkpt lat="42.42423" lon="2.16883">
        <ele>2805.1999511719</ele>
        <time>2023-07-17T16:48:12.000Z</time>
      </trkpt>
      <trkpt lat="42.42425" lon="2.16883">
        <ele>2806</ele>
        <time>2023-07-17T16:48:16.000Z</time>
      </trkpt>
      <trkpt lat="42.42425" lon="2.16884">
        <ele>2804.6000976562</ele>
        <time>2023-07-17T16:48:25.000Z</time>
      </trkpt>
      <trkpt lat="42.42425" lon="2.16883">
        <ele>2804.1999511719</ele>
        <time>2023-07-17T16:48:29.000Z</time>
      </trkpt>
      <trkpt lat="42.42423" lon="2.16884">
        <ele>2803.1999511719</ele>
        <time>2023-07-17T16:48:34.000Z</time>
      </trkpt>
      <trkpt lat="42.42422" lon="2.16884">
        <ele>2802</ele>
        <time>2023-07-17T16:48:40.000Z</time>
      </trkpt>
      <trkpt lat="42.42422" lon="2.16883">
        <ele>2802</ele>
        <time>2023-07-17T16:48:43.000Z</time>
      </trkpt>
      <trkpt lat="42.42422" lon="2.16882">
        <ele>2802.1999511719</ele>
        <time>2023-07-17T16:48:48.000Z</time>
      </trkpt>
      <trkpt lat="42.42421" lon="2.16878">
        <ele>2802.6000976562</ele>
        <time>2023-07-17T16:48:56.000Z</time>
      </trkpt>
      <trkpt lat="42.42425" lon="2.16878">
        <ele>2803.1999511719</ele>
        <time>2023-07-17T16:49:03.000Z</time>
      </trkpt>
      <trkpt lat="42.42425" lon="2.16877">
        <ele>2803.3999023438</ele>
        <time>2023-07-17T16:49:04.000Z</time>
      </trkpt>
      <trkpt lat="42.42424" lon="2.16874">
        <ele>2804.3999023438</ele>
        <time>2023-07-17T16:49:09.000Z</time>
      </trkpt>
      <trkpt lat="42.42425" lon="2.16875">
        <ele>2804.6000976562</ele>
        <time>2023-07-17T16:49:10.000Z</time>
      </trkpt>
      <trkpt lat="42.42426" lon="2.16874">
        <ele>2805.3999023438</ele>
        <time>2023-07-17T16:49:12.000Z</time>
      </trkpt>
      <trkpt lat="42.42428" lon="2.16873">
        <ele>2806.3999023438</ele>
        <time>2023-07-17T16:49:19.000Z</time>
      </trkpt>
      <trkpt lat="42.42429" lon="2.16872">
        <ele>2806.3999023438</ele>
        <time>2023-07-17T16:49:20.000Z</time>
      </trkpt>
      <trkpt lat="42.42429" lon="2.1687">
        <ele>2807.6000976562</ele>
        <time>2023-07-17T16:49:25.000Z</time>
      </trkpt>
      <trkpt lat="42.42429" lon="2.16869">
        <ele>2807.6000976562</ele>
        <time>2023-07-17T16:49:26.000Z</time>
      </trkpt>
      <trkpt lat="42.4243" lon="2.16867">
        <ele>2809.1999511719</ele>
        <time>2023-07-17T16:49:31.000Z</time>
      </trkpt>
      <trkpt lat="42.4243" lon="2.16867">
        <ele>2809.3999023438</ele>
        <time>2023-07-17T16:49:34.000Z</time>
      </trkpt>
      <trkpt lat="42.42432" lon="2.16865">
        <ele>2810.1999511719</ele>
        <time>2023-07-17T16:49:38.000Z</time>
      </trkpt>
      <trkpt lat="42.42434" lon="2.16865">
        <ele>2809.6000976562</ele>
        <time>2023-07-17T16:49:44.000Z</time>
      </trkpt>
      <trkpt lat="42.42434" lon="2.16869">
        <ele>2809.8000488281</ele>
        <time>2023-07-17T16:49:54.000Z</time>
      </trkpt>
      <trkpt lat="42.42437" lon="2.16862">
        <ele>2810.6000976562</ele>
        <time>2023-07-17T16:50:03.000Z</time>
      </trkpt>
      <trkpt lat="42.42437" lon="2.16861">
        <ele>2811.6000976562</ele>
        <time>2023-07-17T16:50:05.000Z</time>
      </trkpt>
      <trkpt lat="42.42437" lon="2.1686">
        <ele>2812.6000976562</ele>
        <time>2023-07-17T16:50:08.000Z</time>
      </trkpt>
      <trkpt lat="42.42437" lon="2.1686">
        <ele>2813</ele>
        <time>2023-07-17T16:50:11.000Z</time>
      </trkpt>
      <trkpt lat="42.42433" lon="2.1686">
        <ele>2813.6000976562</ele>
        <time>2023-07-17T16:50:18.000Z</time>
      </trkpt>
      <trkpt lat="42.42432" lon="2.16859">
        <ele>2813.6000976562</ele>
        <time>2023-07-17T16:50:19.000Z</time>
      </trkpt>
      <trkpt lat="42.42432" lon="2.16857">
        <ele>2814.8000488281</ele>
        <time>2023-07-17T16:50:22.000Z</time>
      </trkpt>
      <trkpt lat="42.42433" lon="2.16857">
        <ele>2816.1999511719</ele>
        <time>2023-07-17T16:50:24.000Z</time>
      </trkpt>
      <trkpt lat="42.42434" lon="2.16856">
        <ele>2816.3999023438</ele>
        <time>2023-07-17T16:50:26.000Z</time>
      </trkpt>
      <trkpt lat="42.42438" lon="2.16853">
        <ele>2816</ele>
        <time>2023-07-17T16:50:33.000Z</time>
      </trkpt>
      <trkpt lat="42.4244" lon="2.16849">
        <ele>2817.1999511719</ele>
        <time>2023-07-17T16:50:41.000Z</time>
      </trkpt>
      <trkpt lat="42.42442" lon="2.16851">
        <ele>2817.3999023438</ele>
        <time>2023-07-17T16:50:47.000Z</time>
      </trkpt>
      <trkpt lat="42.42441" lon="2.16849">
        <ele>2816.6000976562</ele>
        <time>2023-07-17T16:50:56.000Z</time>
      </trkpt>
      <trkpt lat="42.42438" lon="2.16845">
        <ele>2816.3999023438</ele>
        <time>2023-07-17T16:51:05.000Z</time>
      </trkpt>
      <trkpt lat="42.4244" lon="2.16846">
        <ele>2818.1999511719</ele>
        <time>2023-07-17T16:51:10.000Z</time>
      </trkpt>
      <trkpt lat="42.42441" lon="2.16847">
        <ele>2818.3999023438</ele>
        <time>2023-07-17T16:51:14.000Z</time>
      </trkpt>
      <trkpt lat="42.42444" lon="2.16844">
        <ele>2819.6000976562</ele>
        <time>2023-07-17T16:51:20.000Z</time>
      </trkpt>
      <trkpt lat="42.42445" lon="2.16843">
        <ele>2820.1999511719</ele>
        <time>2023-07-17T16:51:21.000Z</time>
      </trkpt>
      <trkpt lat="42.42446" lon="2.16842">
        <ele>2820.6000976562</ele>
        <time>2023-07-17T16:51:22.000Z</time>
      </trkpt>
      <trkpt lat="42.42448" lon="2.16835">
        <ele>2820.1999511719</ele>
        <time>2023-07-17T16:51:29.000Z</time>
      </trkpt>
      <trkpt lat="42.42453" lon="2.16833">
        <ele>2821.6000976562</ele>
        <time>2023-07-17T16:51:36.000Z</time>
      </trkpt>
      <trkpt lat="42.42456" lon="2.16832">
        <ele>2822.6000976562</ele>
        <time>2023-07-17T16:51:41.000Z</time>
      </trkpt>
      <trkpt lat="42.42456" lon="2.16831">
        <ele>2823.6000976562</ele>
        <time>2023-07-17T16:51:43.000Z</time>
      </trkpt>
      <trkpt lat="42.42457" lon="2.1683">
        <ele>2823.8000488281</ele>
        <time>2023-07-17T16:51:45.000Z</time>
      </trkpt>
      <trkpt lat="42.42458" lon="2.16827">
        <ele>2824.8000488281</ele>
        <time>2023-07-17T16:51:51.000Z</time>
      </trkpt>
      <trkpt lat="42.42458" lon="2.16826">
        <ele>2824.8000488281</ele>
        <time>2023-07-17T16:51:52.000Z</time>
      </trkpt>
      <trkpt lat="42.4246" lon="2.16828">
        <ele>2825</ele>
        <time>2023-07-17T16:52:02.000Z</time>
      </trkpt>
      <trkpt lat="42.4246" lon="2.16827">
        <ele>2825</ele>
        <time>2023-07-17T16:52:10.000Z</time>
      </trkpt>
      <trkpt lat="42.42459" lon="2.16825">
        <ele>2825.1999511719</ele>
        <time>2023-07-17T16:52:17.000Z</time>
      </trkpt>
      <trkpt lat="42.42461" lon="2.16822">
        <ele>2825.8000488281</ele>
        <time>2023-07-17T16:52:21.000Z</time>
      </trkpt>
      <trkpt lat="42.42462" lon="2.1682">
        <ele>2826.6000976562</ele>
        <time>2023-07-17T16:52:25.000Z</time>
      </trkpt>
      <trkpt lat="42.42462" lon="2.16819">
        <ele>2827</ele>
        <time>2023-07-17T16:52:26.000Z</time>
      </trkpt>
      <trkpt lat="42.42463" lon="2.1682">
        <ele>2828.6000976562</ele>
        <time>2023-07-17T16:52:32.000Z</time>
      </trkpt>
      <trkpt lat="42.42464" lon="2.16819">
        <ele>2829</ele>
        <time>2023-07-17T16:52:33.000Z</time>
      </trkpt>
      <trkpt lat="42.42464" lon="2.16816">
        <ele>2829.6000976562</ele>
        <time>2023-07-17T16:52:40.000Z</time>
      </trkpt>
      <trkpt lat="42.42464" lon="2.16816">
        <ele>2830</ele>
        <time>2023-07-17T16:52:42.000Z</time>
      </trkpt>
      <trkpt lat="42.42463" lon="2.16815">
        <ele>2830.6000976562</ele>
        <time>2023-07-17T16:52:45.000Z</time>
      </trkpt>
      <trkpt lat="42.42463" lon="2.16815">
        <ele>2831.6000976562</ele>
        <time>2023-07-17T16:52:48.000Z</time>
      </trkpt>
      <trkpt lat="42.42463" lon="2.16815">
        <ele>2831.8000488281</ele>
        <time>2023-07-17T16:52:49.000Z</time>
      </trkpt>
      <trkpt lat="42.42464" lon="2.16813">
        <ele>2832.8000488281</ele>
        <time>2023-07-17T16:52:54.000Z</time>
      </trkpt>
      <trkpt lat="42.42464" lon="2.16812">
        <ele>2833.3999023438</ele>
        <time>2023-07-17T16:52:57.000Z</time>
      </trkpt>
      <trkpt lat="42.42464" lon="2.16812">
        <ele>2833.8000488281</ele>
        <time>2023-07-17T16:52:58.000Z</time>
      </trkpt>
      <trkpt lat="42.42463" lon="2.16811">
        <ele>2834.8000488281</ele>
        <time>2023-07-17T16:53:01.000Z</time>
      </trkpt>
      <trkpt lat="42.42461" lon="2.1681">
        <ele>2835.1999511719</ele>
        <time>2023-07-17T16:53:05.000Z</time>
      </trkpt>
      <trkpt lat="42.42464" lon="2.16804">
        <ele>2835.6000976562</ele>
        <time>2023-07-17T16:53:13.000Z</time>
      </trkpt>
      <trkpt lat="42.42465" lon="2.16804">
        <ele>2835.8000488281</ele>
        <time>2023-07-17T16:53:18.000Z</time>
      </trkpt>
      <trkpt lat="42.42465" lon="2.16804">
        <ele>2835.8000488281</ele>
        <time>2023-07-17T16:53:21.000Z</time>
      </trkpt>
      <trkpt lat="42.42467" lon="2.16806">
        <ele>2835</ele>
        <time>2023-07-17T16:53:29.000Z</time>
      </trkpt>
      <trkpt lat="42.42466" lon="2.16805">
        <ele>2834.8000488281</ele>
        <time>2023-07-17T16:53:32.000Z</time>
      </trkpt>
      <trkpt lat="42.42466" lon="2.16805">
        <ele>2834.6000976562</ele>
        <time>2023-07-17T16:53:35.000Z</time>
      </trkpt>
      <trkpt lat="42.42467" lon="2.16802">
        <ele>2836</ele>
        <time>2023-07-17T16:53:42.000Z</time>
      </trkpt>
      <trkpt lat="42.42468" lon="2.16801">
        <ele>2837.1999511719</ele>
        <time>2023-07-17T16:53:46.000Z</time>
      </trkpt>
      <trkpt lat="42.4247" lon="2.16801">
        <ele>2838.1999511719</ele>
        <time>2023-07-17T16:53:49.000Z</time>
      </trkpt>
      <trkpt lat="42.4247" lon="2.168">
        <ele>2838.3999023438</ele>
        <time>2023-07-17T16:53:50.000Z</time>
      </trkpt>
      <trkpt lat="42.4247" lon="2.16798">
        <ele>2839.3999023438</ele>
        <time>2023-07-17T16:53:55.000Z</time>
      </trkpt>
      <trkpt lat="42.42471" lon="2.16797">
        <ele>2840.8000488281</ele>
        <time>2023-07-17T16:53:57.000Z</time>
      </trkpt>
      <trkpt lat="42.42471" lon="2.16796">
        <ele>2841.1999511719</ele>
        <time>2023-07-17T16:53:58.000Z</time>
      </trkpt>
      <trkpt lat="42.42473" lon="2.16791">
        <ele>2841.1999511719</ele>
        <time>2023-07-17T16:54:08.000Z</time>
      </trkpt>
      <trkpt lat="42.42475" lon="2.16789">
        <ele>2841.1999511719</ele>
        <time>2023-07-17T16:54:15.000Z</time>
      </trkpt>
      <trkpt lat="42.42475" lon="2.16786">
        <ele>2842</ele>
        <time>2023-07-17T16:54:18.000Z</time>
      </trkpt>
      <trkpt lat="42.42477" lon="2.16783">
        <ele>2842.3999023438</ele>
        <time>2023-07-17T16:54:23.000Z</time>
      </trkpt>
      <trkpt lat="42.42479" lon="2.16779">
        <ele>2842.6000976562</ele>
        <time>2023-07-17T16:54:33.000Z</time>
      </trkpt>
      <trkpt lat="42.42481" lon="2.16778">
        <ele>2843</ele>
        <time>2023-07-17T16:54:37.000Z</time>
      </trkpt>
      <trkpt lat="42.42482" lon="2.16779">
        <ele>2843.8000488281</ele>
        <time>2023-07-17T16:54:41.000Z</time>
      </trkpt>
      <trkpt lat="42.42483" lon="2.16779">
        <ele>2844</ele>
        <time>2023-07-17T16:54:43.000Z</time>
      </trkpt>
      <trkpt lat="42.42484" lon="2.16778">
        <ele>2844.8000488281</ele>
        <time>2023-07-17T16:54:48.000Z</time>
      </trkpt>
      <trkpt lat="42.42482" lon="2.16777">
        <ele>2845</ele>
        <time>2023-07-17T16:54:54.000Z</time>
      </trkpt>
      <trkpt lat="42.42485" lon="2.16771">
        <ele>2844.6000976562</ele>
        <time>2023-07-17T16:55:01.000Z</time>
      </trkpt>
      <trkpt lat="42.42487" lon="2.16767">
        <ele>2845</ele>
        <time>2023-07-17T16:55:09.000Z</time>
      </trkpt>
      <trkpt lat="42.42487" lon="2.16767">
        <ele>2845.1999511719</ele>
        <time>2023-07-17T16:55:10.000Z</time>
      </trkpt>
      <trkpt lat="42.42489" lon="2.16767">
        <ele>2846.1999511719</ele>
        <time>2023-07-17T16:55:15.000Z</time>
      </trkpt>
      <trkpt lat="42.42489" lon="2.16768">
        <ele>2847</ele>
        <time>2023-07-17T16:55:16.000Z</time>
      </trkpt>
      <trkpt lat="42.42488" lon="2.16768">
        <ele>2847.8000488281</ele>
        <time>2023-07-17T16:55:17.000Z</time>
      </trkpt>
      <trkpt lat="42.42488" lon="2.16768">
        <ele>2849.8000488281</ele>
        <time>2023-07-17T16:55:19.000Z</time>
      </trkpt>
      <trkpt lat="42.42487" lon="2.16768">
        <ele>2850.1999511719</ele>
        <time>2023-07-17T16:55:21.000Z</time>
      </trkpt>
      <trkpt lat="42.42486" lon="2.16767">
        <ele>2850.6000976562</ele>
        <time>2023-07-17T16:55:24.000Z</time>
      </trkpt>
      <trkpt lat="42.42485" lon="2.16767">
        <ele>2851.1999511719</ele>
        <time>2023-07-17T16:55:25.000Z</time>
      </trkpt>
      <trkpt lat="42.42486" lon="2.16767">
        <ele>2852.3999023438</ele>
        <time>2023-07-17T16:55:27.000Z</time>
      </trkpt>
      <trkpt lat="42.42485" lon="2.16769">
        <ele>2851.8000488281</ele>
        <time>2023-07-17T16:55:34.000Z</time>
      </trkpt>
      <trkpt lat="42.42485" lon="2.16769">
        <ele>2850.8000488281</ele>
        <time>2023-07-17T16:55:36.000Z</time>
      </trkpt>
      <trkpt lat="42.42486" lon="2.16769">
        <ele>2849.6000976562</ele>
        <time>2023-07-17T16:55:38.000Z</time>
      </trkpt>
      <trkpt lat="42.42488" lon="2.16769">
        <ele>2849.1999511719</ele>
        <time>2023-07-17T16:55:43.000Z</time>
      </trkpt>
      <trkpt lat="42.42487" lon="2.16767">
        <ele>2848.6000976562</ele>
        <time>2023-07-17T16:55:47.000Z</time>
      </trkpt>
      <trkpt lat="42.42488" lon="2.16767">
        <ele>2848.3999023438</ele>
        <time>2023-07-17T16:55:55.000Z</time>
      </trkpt>
      <trkpt lat="42.42488" lon="2.16767">
        <ele>2848.6000976562</ele>
        <time>2023-07-17T16:56:04.000Z</time>
      </trkpt>
      <trkpt lat="42.42489" lon="2.16766">
        <ele>2847.8000488281</ele>
        <time>2023-07-17T16:56:12.000Z</time>
      </trkpt>
      <trkpt lat="42.4249" lon="2.16766">
        <ele>2848</ele>
        <time>2023-07-17T16:56:19.000Z</time>
      </trkpt>
      <trkpt lat="42.42489" lon="2.16766">
        <ele>2848</ele>
        <time>2023-07-17T16:56:28.000Z</time>
      </trkpt>
      <trkpt lat="42.42489" lon="2.16766">
        <ele>2847.3999023438</ele>
        <time>2023-07-17T16:56:30.000Z</time>
      </trkpt>
      <trkpt lat="42.42488" lon="2.16767">
        <ele>2846.8000488281</ele>
        <time>2023-07-17T16:56:36.000Z</time>
      </trkpt>
      <trkpt lat="42.42486" lon="2.16766">
        <ele>2847</ele>
        <time>2023-07-17T16:56:44.000Z</time>
      </trkpt>
      <trkpt lat="42.42489" lon="2.16766">
        <ele>2848</ele>
        <time>2023-07-17T16:56:55.000Z</time>
      </trkpt>
      <trkpt lat="42.42489" lon="2.16767">
        <ele>2847.1999511719</ele>
        <time>2023-07-17T16:57:05.000Z</time>
      </trkpt>
      <trkpt lat="42.42489" lon="2.16768">
        <ele>2846.8000488281</ele>
        <time>2023-07-17T16:57:13.000Z</time>
      </trkpt>
      <trkpt lat="42.42491" lon="2.16769">
        <ele>2846</ele>
        <time>2023-07-17T16:57:16.000Z</time>
      </trkpt>
      <trkpt lat="42.42492" lon="2.1677">
        <ele>2846</ele>
        <time>2023-07-17T16:57:21.000Z</time>
      </trkpt>
      <trkpt lat="42.42493" lon="2.16769">
        <ele>2846.6000976562</ele>
        <time>2023-07-17T16:57:29.000Z</time>
      </trkpt>
      <trkpt lat="42.42492" lon="2.16769">
        <ele>2847</ele>
        <time>2023-07-17T16:57:34.000Z</time>
      </trkpt>
      <trkpt lat="42.42491" lon="2.16769">
        <ele>2848</ele>
        <time>2023-07-17T16:57:35.000Z</time>
      </trkpt>
      <trkpt lat="42.4249" lon="2.16766">
        <ele>2848.6000976562</ele>
        <time>2023-07-17T16:57:42.000Z</time>
      </trkpt>
      <trkpt lat="42.4249" lon="2.16769">
        <ele>2847.8000488281</ele>
        <time>2023-07-17T16:57:51.000Z</time>
      </trkpt>
      <trkpt lat="42.42488" lon="2.16769">
        <ele>2849.1999511719</ele>
        <time>2023-07-17T16:58:00.000Z</time>
      </trkpt>
      <trkpt lat="42.42487" lon="2.16768">
        <ele>2849.1999511719</ele>
        <time>2023-07-17T16:58:01.000Z</time>
      </trkpt>
      <trkpt lat="42.42487" lon="2.16766">
        <ele>2849.3999023438</ele>
        <time>2023-07-17T16:58:09.000Z</time>
      </trkpt>
      <trkpt lat="42.42488" lon="2.16766">
        <ele>2848.8000488281</ele>
        <time>2023-07-17T16:58:20.000Z</time>
      </trkpt>
      <trkpt lat="42.42486" lon="2.16767">
        <ele>2848.1999511719</ele>
        <time>2023-07-17T16:58:30.000Z</time>
      </trkpt>
      <trkpt lat="42.42486" lon="2.16766">
        <ele>2848.1999511719</ele>
        <time>2023-07-17T16:58:36.000Z</time>
      </trkpt>
      <trkpt lat="42.42485" lon="2.16767">
        <ele>2848.1999511719</ele>
        <time>2023-07-17T16:58:38.000Z</time>
      </trkpt>
      <trkpt lat="42.42485" lon="2.16769">
        <ele>2849.3999023438</ele>
        <time>2023-07-17T16:58:43.000Z</time>
      </trkpt>
      <trkpt lat="42.42487" lon="2.16768">
        <ele>2850</ele>
        <time>2023-07-17T16:58:47.000Z</time>
      </trkpt>
      <trkpt lat="42.42486" lon="2.16767">
        <ele>2848.6000976562</ele>
        <time>2023-07-17T16:58:56.000Z</time>
      </trkpt>
      <trkpt lat="42.42486" lon="2.16766">
        <ele>2847.8000488281</ele>
        <time>2023-07-17T16:59:01.000Z</time>
      </trkpt>
      <trkpt lat="42.42485" lon="2.16766">
        <ele>2846.8000488281</ele>
        <time>2023-07-17T16:59:05.000Z</time>
      </trkpt>
      <trkpt lat="42.42486" lon="2.16764">
        <ele>2846</ele>
        <time>2023-07-17T16:59:13.000Z</time>
      </trkpt>
      <trkpt lat="42.42488" lon="2.16767">
        <ele>2846</ele>
        <time>2023-07-17T16:59:21.000Z</time>
      </trkpt>
      <trkpt lat="42.42489" lon="2.16767">
        <ele>2845.6000976562</ele>
        <time>2023-07-17T16:59:24.000Z</time>
      </trkpt>
      <trkpt lat="42.4249" lon="2.16767">
        <ele>2847.1999511719</ele>
        <time>2023-07-17T16:59:28.000Z</time>
      </trkpt>
      <trkpt lat="42.4249" lon="2.16767">
        <ele>2848.6000976562</ele>
        <time>2023-07-17T16:59:29.000Z</time>
      </trkpt>
      <trkpt lat="42.4249" lon="2.16767">
        <ele>2849.8000488281</ele>
        <time>2023-07-17T16:59:30.000Z</time>
      </trkpt>
      <trkpt lat="42.4249" lon="2.16766">
        <ele>2851</ele>
        <time>2023-07-17T16:59:31.000Z</time>
      </trkpt>
      <trkpt lat="42.4249" lon="2.16763">
        <ele>2851</ele>
        <time>2023-07-17T16:59:38.000Z</time>
      </trkpt>
      <trkpt lat="42.4249" lon="2.16765">
        <ele>2850.3999023438</ele>
        <time>2023-07-17T16:59:47.000Z</time>
      </trkpt>
      <trkpt lat="42.42489" lon="2.16765">
        <ele>2849.6000976562</ele>
        <time>2023-07-17T16:59:53.000Z</time>
      </trkpt>
      <trkpt lat="42.42489" lon="2.16766">
        <ele>2849</ele>
        <time>2023-07-17T16:59:56.000Z</time>
      </trkpt>
      <trkpt lat="42.42489" lon="2.16766">
        <ele>2848.1999511719</ele>
        <time>2023-07-17T17:00:00.000Z</time>
      </trkpt>
      <trkpt lat="42.42491" lon="2.16766">
        <ele>2847.6000976562</ele>
        <time>2023-07-17T17:00:05.000Z</time>
      </trkpt>
      <trkpt lat="42.42491" lon="2.16767">
        <ele>2847.1999511719</ele>
        <time>2023-07-17T17:00:08.000Z</time>
      </trkpt>
      <trkpt lat="42.42489" lon="2.16767">
        <ele>2846.1999511719</ele>
        <time>2023-07-17T17:00:15.000Z</time>
      </trkpt>
      <trkpt lat="42.42489" lon="2.16766">
        <ele>2846.8000488281</ele>
        <time>2023-07-17T17:00:23.000Z</time>
      </trkpt>
      <trkpt lat="42.42489" lon="2.16767">
        <ele>2848.3999023438</ele>
        <time>2023-07-17T17:00:30.000Z</time>
      </trkpt>
      <trkpt lat="42.4249" lon="2.16768">
        <ele>2849.3999023438</ele>
        <time>2023-07-17T17:00:32.000Z</time>
      </trkpt>
      <trkpt lat="42.42491" lon="2.16767">
        <ele>2849.6000976562</ele>
        <time>2023-07-17T17:00:41.000Z</time>
      </trkpt>
      <trkpt lat="42.4249" lon="2.16766">
        <ele>2848</ele>
        <time>2023-07-17T17:00:47.000Z</time>
      </trkpt>
      <trkpt lat="42.4249" lon="2.16766">
        <ele>2847.3999023438</ele>
        <time>2023-07-17T17:00:48.000Z</time>
      </trkpt>
      <trkpt lat="42.4249" lon="2.16766">
        <ele>2847</ele>
        <time>2023-07-17T17:00:50.000Z</time>
      </trkpt>
      <trkpt lat="42.42489" lon="2.16765">
        <ele>2846.1999511719</ele>
        <time>2023-07-17T17:00:55.000Z</time>
      </trkpt>
      <trkpt lat="42.4249" lon="2.16764">
        <ele>2847.1999511719</ele>
        <time>2023-07-17T17:01:02.000Z</time>
      </trkpt>
      <trkpt lat="42.42489" lon="2.16766">
        <ele>2847.6000976562</ele>
        <time>2023-07-17T17:01:09.000Z</time>
      </trkpt>
      <trkpt lat="42.42489" lon="2.16766">
        <ele>2845.8000488281</ele>
        <time>2023-07-17T17:01:16.000Z</time>
      </trkpt>
      <trkpt lat="42.42489" lon="2.16765">
        <ele>2845.8000488281</ele>
        <time>2023-07-17T17:01:17.000Z</time>
      </trkpt>
      <trkpt lat="42.42488" lon="2.16767">
        <ele>2845.6000976562</ele>
        <time>2023-07-17T17:01:25.000Z</time>
      </trkpt>
      <trkpt lat="42.42489" lon="2.16763">
        <ele>2846.6000976562</ele>
        <time>2023-07-17T17:01:34.000Z</time>
      </trkpt>
      <trkpt lat="42.42489" lon="2.16763">
        <ele>2847.1999511719</ele>
        <time>2023-07-17T17:01:35.000Z</time>
      </trkpt>
      <trkpt lat="42.42487" lon="2.16766">
        <ele>2848</ele>
        <time>2023-07-17T17:01:40.000Z</time>
      </trkpt>
      <trkpt lat="42.42489" lon="2.16768">
        <ele>2846.8000488281</ele>
        <time>2023-07-17T17:01:45.000Z</time>
      </trkpt>
      <trkpt lat="42.4249" lon="2.16767">
        <ele>2847</ele>
        <time>2023-07-17T17:01:50.000Z</time>
      </trkpt>
      <trkpt lat="42.42485" lon="2.16763">
        <ele>2846.6000976562</ele>
        <time>2023-07-17T17:01:58.000Z</time>
      </trkpt>
      <trkpt lat="42.42482" lon="2.16762">
        <ele>2846.1999511719</ele>
        <time>2023-07-17T17:02:00.000Z</time>
      </trkpt>
      <trkpt lat="42.42478" lon="2.16762">
        <ele>2845</ele>
        <time>2023-07-17T17:02:06.000Z</time>
      </trkpt>
      <trkpt lat="42.42473" lon="2.16761">
        <ele>2843.8000488281</ele>
        <time>2023-07-17T17:02:10.000Z</time>
      </trkpt>
      <trkpt lat="42.42471" lon="2.16762">
        <ele>2843.6000976562</ele>
        <time>2023-07-17T17:02:13.000Z</time>
      </trkpt>
      <trkpt lat="42.42465" lon="2.16759">
        <ele>2843.6000976562</ele>
        <time>2023-07-17T17:02:20.000Z</time>
      </trkpt>
      <trkpt lat="42.4246" lon="2.16757">
        <ele>2843.8000488281</ele>
        <time>2023-07-17T17:02:25.000Z</time>
      </trkpt>
      <trkpt lat="42.42454" lon="2.16754">
        <ele>2844</ele>
        <time>2023-07-17T17:02:32.000Z</time>
      </trkpt>
      <trkpt lat="42.42452" lon="2.16751">
        <ele>2842.6000976562</ele>
        <time>2023-07-17T17:02:39.000Z</time>
      </trkpt>
      <trkpt lat="42.42451" lon="2.1675">
        <ele>2841.1999511719</ele>
        <time>2023-07-17T17:02:41.000Z</time>
      </trkpt>
      <trkpt lat="42.42448" lon="2.16747">
        <ele>2841.1999511719</ele>
        <time>2023-07-17T17:02:46.000Z</time>
      </trkpt>
      <trkpt lat="42.42447" lon="2.16745">
        <ele>2842.3999023438</ele>
        <time>2023-07-17T17:02:53.000Z</time>
      </trkpt>
      <trkpt lat="42.42446" lon="2.16745">
        <ele>2842.6000976562</ele>
        <time>2023-07-17T17:02:54.000Z</time>
      </trkpt>
      <trkpt lat="42.42445" lon="2.16744">
        <ele>2841.1999511719</ele>
        <time>2023-07-17T17:02:59.000Z</time>
      </trkpt>
      <trkpt lat="42.42445" lon="2.16745">
        <ele>2841</ele>
        <time>2023-07-17T17:03:02.000Z</time>
      </trkpt>
      <trkpt lat="42.4244" lon="2.16745">
        <ele>2840.6000976562</ele>
        <time>2023-07-17T17:03:09.000Z</time>
      </trkpt>
      <trkpt lat="42.42434" lon="2.16743">
        <ele>2840.3999023438</ele>
        <time>2023-07-17T17:03:16.000Z</time>
      </trkpt>
      <trkpt lat="42.4243" lon="2.16741">
        <ele>2840.3999023438</ele>
        <time>2023-07-17T17:03:22.000Z</time>
      </trkpt>
      <trkpt lat="42.42426" lon="2.16739">
        <ele>2840.1999511719</ele>
        <time>2023-07-17T17:03:28.000Z</time>
      </trkpt>
      <trkpt lat="42.42421" lon="2.16738">
        <ele>2840.8000488281</ele>
        <time>2023-07-17T17:03:34.000Z</time>
      </trkpt>
      <trkpt lat="42.42419" lon="2.1674">
        <ele>2842.6000976562</ele>
        <time>2023-07-17T17:03:39.000Z</time>
      </trkpt>
      <trkpt lat="42.42418" lon="2.16741">
        <ele>2843.1999511719</ele>
        <time>2023-07-17T17:03:42.000Z</time>
      </trkpt>
      <trkpt lat="42.42418" lon="2.1674">
        <ele>2841.3999023438</ele>
        <time>2023-07-17T17:03:48.000Z</time>
      </trkpt>
      <trkpt lat="42.42419" lon="2.16738">
        <ele>2841.1999511719</ele>
        <time>2023-07-17T17:03:50.000Z</time>
      </trkpt>
      <trkpt lat="42.42419" lon="2.16738">
        <ele>2840.3999023438</ele>
        <time>2023-07-17T17:03:55.000Z</time>
      </trkpt>
      <trkpt lat="42.42419" lon="2.16737">
        <ele>2840.1999511719</ele>
        <time>2023-07-17T17:03:59.000Z</time>
      </trkpt>
      <trkpt lat="42.4242" lon="2.16737">
        <ele>2840.6000976562</ele>
        <time>2023-07-17T17:04:07.000Z</time>
      </trkpt>
      <trkpt lat="42.42418" lon="2.16739">
        <ele>2840.6000976562</ele>
        <time>2023-07-17T17:04:14.000Z</time>
      </trkpt>
      <trkpt lat="42.42418" lon="2.1674">
        <ele>2840.3999023438</ele>
        <time>2023-07-17T17:04:22.000Z</time>
      </trkpt>
      <trkpt lat="42.42419" lon="2.16741">
        <ele>2841.6000976562</ele>
        <time>2023-07-17T17:04:25.000Z</time>
      </trkpt>
      <trkpt lat="42.42419" lon="2.16739">
        <ele>2840.3999023438</ele>
        <time>2023-07-17T17:04:31.000Z</time>
      </trkpt>
      <trkpt lat="42.42418" lon="2.16737">
        <ele>2839.1999511719</ele>
        <time>2023-07-17T17:04:34.000Z</time>
      </trkpt>
      <trkpt lat="42.42419" lon="2.16734">
        <ele>2838.3999023438</ele>
        <time>2023-07-17T17:04:38.000Z</time>
      </trkpt>
      <trkpt lat="42.42417" lon="2.16739">
        <ele>2838.3999023438</ele>
        <time>2023-07-17T17:04:44.000Z</time>
      </trkpt>
      <trkpt lat="42.42415" lon="2.16743">
        <ele>2838.1999511719</ele>
        <time>2023-07-17T17:04:50.000Z</time>
      </trkpt>
      <trkpt lat="42.42415" lon="2.16743">
        <ele>2838</ele>
        <time>2023-07-17T17:04:52.000Z</time>
      </trkpt>
      <trkpt lat="42.42417" lon="2.16741">
        <ele>2838</ele>
        <time>2023-07-17T17:04:58.000Z</time>
      </trkpt>
      <trkpt lat="42.42417" lon="2.16742">
        <ele>2838.1999511719</ele>
        <time>2023-07-17T17:05:06.000Z</time>
      </trkpt>
      <trkpt lat="42.4242" lon="2.16738">
        <ele>2838.1999511719</ele>
        <time>2023-07-17T17:05:13.000Z</time>
      </trkpt>
      <trkpt lat="42.42423" lon="2.16732">
        <ele>2838.3999023438</ele>
        <time>2023-07-17T17:05:21.000Z</time>
      </trkpt>
      <trkpt lat="42.42428" lon="2.16728">
        <ele>2838.1999511719</ele>
        <time>2023-07-17T17:05:29.000Z</time>
      </trkpt>
      <trkpt lat="42.42433" lon="2.1672">
        <ele>2838</ele>
        <time>2023-07-17T17:05:37.000Z</time>
      </trkpt>
      <trkpt lat="42.42432" lon="2.1672">
        <ele>2837.1999511719</ele>
        <time>2023-07-17T17:05:44.000Z</time>
      </trkpt>
      <trkpt lat="42.42432" lon="2.1672">
        <ele>2836.6000976562</ele>
        <time>2023-07-17T17:05:45.000Z</time>
      </trkpt>
      <trkpt lat="42.4243" lon="2.16718">
        <ele>2836</ele>
        <time>2023-07-17T17:05:51.000Z</time>
      </trkpt>
      <trkpt lat="42.42426" lon="2.16715">
        <ele>2837.8000488281</ele>
        <time>2023-07-17T17:05:57.000Z</time>
      </trkpt>
      <trkpt lat="42.42426" lon="2.16715">
        <ele>2838</ele>
        <time>2023-07-17T17:05:58.000Z</time>
      </trkpt>
      <trkpt lat="42.42422" lon="2.16711">
        <ele>2837.1999511719</ele>
        <time>2023-07-17T17:06:04.000Z</time>
      </trkpt>
      <trkpt lat="42.42421" lon="2.1671">
        <ele>2836.6000976562</ele>
        <time>2023-07-17T17:06:09.000Z</time>
      </trkpt>
      <trkpt lat="42.42421" lon="2.16707">
        <ele>2836</ele>
        <time>2023-07-17T17:06:17.000Z</time>
      </trkpt>
      <trkpt lat="42.4242" lon="2.16708">
        <ele>2836.1999511719</ele>
        <time>2023-07-17T17:06:24.000Z</time>
      </trkpt>
      <trkpt lat="42.42421" lon="2.16707">
        <ele>2837</ele>
        <time>2023-07-17T17:06:32.000Z</time>
      </trkpt>
      <trkpt lat="42.42421" lon="2.16708">
        <ele>2835.8000488281</ele>
        <time>2023-07-17T17:06:39.000Z</time>
      </trkpt>
      <trkpt lat="42.42424" lon="2.16708">
        <ele>2836.1999511719</ele>
        <time>2023-07-17T17:06:48.000Z</time>
      </trkpt>
      <trkpt lat="42.42424" lon="2.16707">
        <ele>2835.3999023438</ele>
        <time>2023-07-17T17:06:50.000Z</time>
      </trkpt>
      <trkpt lat="42.42426" lon="2.16704">
        <ele>2835.6000976562</ele>
        <time>2023-07-17T17:06:56.000Z</time>
      </trkpt>
      <trkpt lat="42.42427" lon="2.16703">
        <ele>2833.1999511719</ele>
        <time>2023-07-17T17:06:58.000Z</time>
      </trkpt>
      <trkpt lat="42.42428" lon="2.16702">
        <ele>2831.3999023438</ele>
        <time>2023-07-17T17:06:59.000Z</time>
      </trkpt>
      <trkpt lat="42.42429" lon="2.167">
        <ele>2830.3999023438</ele>
        <time>2023-07-17T17:07:03.000Z</time>
      </trkpt>
      <trkpt lat="42.42429" lon="2.16694">
        <ele>2831</ele>
        <time>2023-07-17T17:07:11.000Z</time>
      </trkpt>
      <trkpt lat="42.42429" lon="2.1669">
        <ele>2830.6000976562</ele>
        <time>2023-07-17T17:07:19.000Z</time>
      </trkpt>
      <trkpt lat="42.42429" lon="2.16686">
        <ele>2831</ele>
        <time>2023-07-17T17:07:26.000Z</time>
      </trkpt>
      <trkpt lat="42.42429" lon="2.16685">
        <ele>2830</ele>
        <time>2023-07-17T17:07:28.000Z</time>
      </trkpt>
      <trkpt lat="42.42427" lon="2.16684">
        <ele>2829.6000976562</ele>
        <time>2023-07-17T17:07:34.000Z</time>
      </trkpt>
      <trkpt lat="42.42426" lon="2.1668">
        <ele>2829</ele>
        <time>2023-07-17T17:07:38.000Z</time>
      </trkpt>
      <trkpt lat="42.42424" lon="2.16677">
        <ele>2828.3999023438</ele>
        <time>2023-07-17T17:07:41.000Z</time>
      </trkpt>
      <trkpt lat="42.42422" lon="2.16674">
        <ele>2827.8000488281</ele>
        <time>2023-07-17T17:07:44.000Z</time>
      </trkpt>
      <trkpt lat="42.42421" lon="2.16673">
        <ele>2826.6000976562</ele>
        <time>2023-07-17T17:07:46.000Z</time>
      </trkpt>
      <trkpt lat="42.42421" lon="2.16672">
        <ele>2825.6000976562</ele>
        <time>2023-07-17T17:07:50.000Z</time>
      </trkpt>
      <trkpt lat="42.42421" lon="2.16672">
        <ele>2825.1999511719</ele>
        <time>2023-07-17T17:07:53.000Z</time>
      </trkpt>
      <trkpt lat="42.4242" lon="2.16674">
        <ele>2825</ele>
        <time>2023-07-17T17:08:00.000Z</time>
      </trkpt>
      <trkpt lat="42.42418" lon="2.16673">
        <ele>2824.6000976562</ele>
        <time>2023-07-17T17:08:06.000Z</time>
      </trkpt>
      <trkpt lat="42.42416" lon="2.16673">
        <ele>2824.3999023438</ele>
        <time>2023-07-17T17:08:08.000Z</time>
      </trkpt>
      <trkpt lat="42.42413" lon="2.16673">
        <ele>2824</ele>
        <time>2023-07-17T17:08:15.000Z</time>
      </trkpt>
      <trkpt lat="42.4241" lon="2.16673">
        <ele>2823.6000976562</ele>
        <time>2023-07-17T17:08:23.000Z</time>
      </trkpt>
      <trkpt lat="42.42406" lon="2.16675">
        <ele>2823.3999023438</ele>
        <time>2023-07-17T17:08:30.000Z</time>
      </trkpt>
      <trkpt lat="42.42404" lon="2.16674">
        <ele>2822.8000488281</ele>
        <time>2023-07-17T17:08:35.000Z</time>
      </trkpt>
      <trkpt lat="42.42404" lon="2.16674">
        <ele>2822.3999023438</ele>
        <time>2023-07-17T17:08:36.000Z</time>
      </trkpt>
      <trkpt lat="42.424" lon="2.16674">
        <ele>2821.3999023438</ele>
        <time>2023-07-17T17:08:43.000Z</time>
      </trkpt>
      <trkpt lat="42.42397" lon="2.16677">
        <ele>2821.6000976562</ele>
        <time>2023-07-17T17:08:48.000Z</time>
      </trkpt>
      <trkpt lat="42.4239" lon="2.16676">
        <ele>2821</ele>
        <time>2023-07-17T17:08:55.000Z</time>
      </trkpt>
      <trkpt lat="42.42389" lon="2.16676">
        <ele>2820.1999511719</ele>
        <time>2023-07-17T17:08:57.000Z</time>
      </trkpt>
      <trkpt lat="42.42385" lon="2.16676">
        <ele>2820.1999511719</ele>
        <time>2023-07-17T17:09:02.000Z</time>
      </trkpt>
      <trkpt lat="42.4238" lon="2.16676">
        <ele>2820</ele>
        <time>2023-07-17T17:09:09.000Z</time>
      </trkpt>
      <trkpt lat="42.42377" lon="2.16676">
        <ele>2819</ele>
        <time>2023-07-17T17:09:15.000Z</time>
      </trkpt>
      <trkpt lat="42.42375" lon="2.16677">
        <ele>2817.8000488281</ele>
        <time>2023-07-17T17:09:18.000Z</time>
      </trkpt>
      <trkpt lat="42.42368" lon="2.16672">
        <ele>2817.1999511719</ele>
        <time>2023-07-17T17:09:26.000Z</time>
      </trkpt>
      <trkpt lat="42.42367" lon="2.16669">
        <ele>2816.8000488281</ele>
        <time>2023-07-17T17:09:28.000Z</time>
      </trkpt>
      <trkpt lat="42.42366" lon="2.16668">
        <ele>2815.8000488281</ele>
        <time>2023-07-17T17:09:30.000Z</time>
      </trkpt>
      <trkpt lat="42.42363" lon="2.16664">
        <ele>2815.3999023438</ele>
        <time>2023-07-17T17:09:34.000Z</time>
      </trkpt>
      <trkpt lat="42.42361" lon="2.16662">
        <ele>2814.6000976562</ele>
        <time>2023-07-17T17:09:37.000Z</time>
      </trkpt>
      <trkpt lat="42.42359" lon="2.1666">
        <ele>2813.8000488281</ele>
        <time>2023-07-17T17:09:40.000Z</time>
      </trkpt>
      <trkpt lat="42.42358" lon="2.16659">
        <ele>2813.3999023438</ele>
        <time>2023-07-17T17:09:41.000Z</time>
      </trkpt>
      <trkpt lat="42.42355" lon="2.16658">
        <ele>2812.8000488281</ele>
        <time>2023-07-17T17:09:46.000Z</time>
      </trkpt>
      <trkpt lat="42.4235" lon="2.16655">
        <ele>2812.8000488281</ele>
        <time>2023-07-17T17:09:53.000Z</time>
      </trkpt>
      <trkpt lat="42.42345" lon="2.16651">
        <ele>2812.3999023438</ele>
        <time>2023-07-17T17:09:58.000Z</time>
      </trkpt>
      <trkpt lat="42.42345" lon="2.16651">
        <ele>2812.1999511719</ele>
        <time>2023-07-17T17:10:00.000Z</time>
      </trkpt>
      <trkpt lat="42.4234" lon="2.16647">
        <ele>2811.3999023438</ele>
        <time>2023-07-17T17:10:08.000Z</time>
      </trkpt>
      <trkpt lat="42.4234" lon="2.16647">
        <ele>2811.3999023438</ele>
        <time>2023-07-17T17:10:09.000Z</time>
      </trkpt>
      <trkpt lat="42.42334" lon="2.16647">
        <ele>2810.1999511719</ele>
        <time>2023-07-17T17:10:14.000Z</time>
      </trkpt>
      <trkpt lat="42.42332" lon="2.16648">
        <ele>2810.1999511719</ele>
        <time>2023-07-17T17:10:16.000Z</time>
      </trkpt>
      <trkpt lat="42.42327" lon="2.16654">
        <ele>2810</ele>
        <time>2023-07-17T17:10:23.000Z</time>
      </trkpt>
      <trkpt lat="42.42322" lon="2.1666">
        <ele>2809.6000976562</ele>
        <time>2023-07-17T17:10:31.000Z</time>
      </trkpt>
      <trkpt lat="42.42322" lon="2.16659">
        <ele>2809.3999023438</ele>
        <time>2023-07-17T17:10:40.000Z</time>
      </trkpt>
      <trkpt lat="42.42322" lon="2.16659">
        <ele>2809.1999511719</ele>
        <time>2023-07-17T17:10:42.000Z</time>
      </trkpt>
      <trkpt lat="42.42321" lon="2.16658">
        <ele>2808.8000488281</ele>
        <time>2023-07-17T17:10:46.000Z</time>
      </trkpt>
      <trkpt lat="42.42322" lon="2.16657">
        <ele>2808.8000488281</ele>
        <time>2023-07-17T17:10:49.000Z</time>
      </trkpt>
      <trkpt lat="42.42321" lon="2.1666">
        <ele>2809.1999511719</ele>
        <time>2023-07-17T17:10:56.000Z</time>
      </trkpt>
      <trkpt lat="42.4232" lon="2.16657">
        <ele>2809</ele>
        <time>2023-07-17T17:11:05.000Z</time>
      </trkpt>
      <trkpt lat="42.4232" lon="2.16657">
        <ele>2809</ele>
        <time>2023-07-17T17:11:16.000Z</time>
      </trkpt>
      <trkpt lat="42.42322" lon="2.16653">
        <ele>2809</ele>
        <time>2023-07-17T17:11:25.000Z</time>
      </trkpt>
      <trkpt lat="42.42322" lon="2.16651">
        <ele>2810.1999511719</ele>
        <time>2023-07-17T17:11:32.000Z</time>
      </trkpt>
      <trkpt lat="42.42323" lon="2.1665">
        <ele>2810.1999511719</ele>
        <time>2023-07-17T17:11:33.000Z</time>
      </trkpt>
      <trkpt lat="42.42323" lon="2.16649">
        <ele>2810</ele>
        <time>2023-07-17T17:11:39.000Z</time>
      </trkpt>
      <trkpt lat="42.42323" lon="2.16652">
        <ele>2810.1999511719</ele>
        <time>2023-07-17T17:11:47.000Z</time>
      </trkpt>
      <trkpt lat="42.42324" lon="2.16652">
        <ele>2810.3999023438</ele>
        <time>2023-07-17T17:11:58.000Z</time>
      </trkpt>
      <trkpt lat="42.42326" lon="2.16651">
        <ele>2810.8000488281</ele>
        <time>2023-07-17T17:12:07.000Z</time>
      </trkpt>
      <trkpt lat="42.42331" lon="2.16647">
        <ele>2810.8000488281</ele>
        <time>2023-07-17T17:12:14.000Z</time>
      </trkpt>
      <trkpt lat="42.42325" lon="2.16649">
        <ele>2810.8000488281</ele>
        <time>2023-07-17T17:12:24.000Z</time>
      </trkpt>
      <trkpt lat="42.42325" lon="2.1665">
        <ele>2811.6000976562</ele>
        <time>2023-07-17T17:12:28.000Z</time>
      </trkpt>
      <trkpt lat="42.42325" lon="2.1665">
        <ele>2811.6000976562</ele>
        <time>2023-07-17T17:12:31.000Z</time>
      </trkpt>
      <trkpt lat="42.42326" lon="2.16653">
        <ele>2811.8000488281</ele>
        <time>2023-07-17T17:12:41.000Z</time>
      </trkpt>
      <trkpt lat="42.42326" lon="2.16651">
        <ele>2812</ele>
        <time>2023-07-17T17:12:49.000Z</time>
      </trkpt>
      <trkpt lat="42.42324" lon="2.16644">
        <ele>2811.8000488281</ele>
        <time>2023-07-17T17:12:58.000Z</time>
      </trkpt>
      <trkpt lat="42.42323" lon="2.1664">
        <ele>2811.1999511719</ele>
        <time>2023-07-17T17:13:06.000Z</time>
      </trkpt>
      <trkpt lat="42.42322" lon="2.16637">
        <ele>2810.3999023438</ele>
        <time>2023-07-17T17:13:09.000Z</time>
      </trkpt>
      <trkpt lat="42.42322" lon="2.16633">
        <ele>2809.8000488281</ele>
        <time>2023-07-17T17:13:14.000Z</time>
      </trkpt>
      <trkpt lat="42.42323" lon="2.16627">
        <ele>2809.3999023438</ele>
        <time>2023-07-17T17:13:21.000Z</time>
      </trkpt>
      <trkpt lat="42.42323" lon="2.16626">
        <ele>2809</ele>
        <time>2023-07-17T17:13:22.000Z</time>
      </trkpt>
      <trkpt lat="42.42325" lon="2.16625">
        <ele>2808.1999511719</ele>
        <time>2023-07-17T17:13:25.000Z</time>
      </trkpt>
      <trkpt lat="42.42328" lon="2.16623">
        <ele>2807.1999511719</ele>
        <time>2023-07-17T17:13:29.000Z</time>
      </trkpt>
      <trkpt lat="42.4233" lon="2.16621">
        <ele>2806.1999511719</ele>
        <time>2023-07-17T17:13:36.000Z</time>
      </trkpt>
      <trkpt lat="42.4233" lon="2.16612">
        <ele>2805.1999511719</ele>
        <time>2023-07-17T17:13:45.000Z</time>
      </trkpt>
      <trkpt lat="42.4233" lon="2.1661">
        <ele>2804.8000488281</ele>
        <time>2023-07-17T17:13:46.000Z</time>
      </trkpt>
      <trkpt lat="42.4233" lon="2.16608">
        <ele>2804</ele>
        <time>2023-07-17T17:13:50.000Z</time>
      </trkpt>
      <trkpt lat="42.4233" lon="2.16607">
        <ele>2804</ele>
        <time>2023-07-17T17:13:52.000Z</time>
      </trkpt>
      <trkpt lat="42.42329" lon="2.16601">
        <ele>2802.8000488281</ele>
        <time>2023-07-17T17:13:57.000Z</time>
      </trkpt>
      <trkpt lat="42.42329" lon="2.16598">
        <ele>2802.8000488281</ele>
        <time>2023-07-17T17:14:00.000Z</time>
      </trkpt>
      <trkpt lat="42.42326" lon="2.16591">
        <ele>2802</ele>
        <time>2023-07-17T17:14:08.000Z</time>
      </trkpt>
      <trkpt lat="42.42325" lon="2.16588">
        <ele>2801.6000976562</ele>
        <time>2023-07-17T17:14:12.000Z</time>
      </trkpt>
      <trkpt lat="42.42324" lon="2.16582">
        <ele>2800.6000976562</ele>
        <time>2023-07-17T17:14:17.000Z</time>
      </trkpt>
      <trkpt lat="42.42323" lon="2.16579">
        <ele>2799.8000488281</ele>
        <time>2023-07-17T17:14:19.000Z</time>
      </trkpt>
      <trkpt lat="42.42323" lon="2.16579">
        <ele>2799.6000976562</ele>
        <time>2023-07-17T17:14:20.000Z</time>
      </trkpt>
      <trkpt lat="42.42321" lon="2.1657">
        <ele>2799.1999511719</ele>
        <time>2023-07-17T17:14:27.000Z</time>
      </trkpt>
      <trkpt lat="42.4232" lon="2.16566">
        <ele>2798.3999023438</ele>
        <time>2023-07-17T17:14:30.000Z</time>
      </trkpt>
      <trkpt lat="42.42317" lon="2.16562">
        <ele>2797.6000976562</ele>
        <time>2023-07-17T17:14:35.000Z</time>
      </trkpt>
      <trkpt lat="42.42314" lon="2.16558">
        <ele>2797.3999023438</ele>
        <time>2023-07-17T17:14:39.000Z</time>
      </trkpt>
      <trkpt lat="42.42314" lon="2.16556">
        <ele>2796</ele>
        <time>2023-07-17T17:14:41.000Z</time>
      </trkpt>
      <trkpt lat="42.42314" lon="2.16556">
        <ele>2795.6000976562</ele>
        <time>2023-07-17T17:14:42.000Z</time>
      </trkpt>
      <trkpt lat="42.42313" lon="2.16555">
        <ele>2794.6000976562</ele>
        <time>2023-07-17T17:14:44.000Z</time>
      </trkpt>
      <trkpt lat="42.42313" lon="2.16553">
        <ele>2793.3999023438</ele>
        <time>2023-07-17T17:14:46.000Z</time>
      </trkpt>
      <trkpt lat="42.4231" lon="2.16548">
        <ele>2792.1999511719</ele>
        <time>2023-07-17T17:14:50.000Z</time>
      </trkpt>
      <trkpt lat="42.42309" lon="2.16547">
        <ele>2792</ele>
        <time>2023-07-17T17:14:51.000Z</time>
      </trkpt>
      <trkpt lat="42.42308" lon="2.16545">
        <ele>2791.1999511719</ele>
        <time>2023-07-17T17:14:54.000Z</time>
      </trkpt>
      <trkpt lat="42.42307" lon="2.16542">
        <ele>2790.6000976562</ele>
        <time>2023-07-17T17:14:57.000Z</time>
      </trkpt>
      <trkpt lat="42.42305" lon="2.16536">
        <ele>2789.8000488281</ele>
        <time>2023-07-17T17:15:00.000Z</time>
      </trkpt>
      <trkpt lat="42.42306" lon="2.16534">
        <ele>2789.6000976562</ele>
        <time>2023-07-17T17:15:03.000Z</time>
      </trkpt>
      <trkpt lat="42.42306" lon="2.16528">
        <ele>2788.8000488281</ele>
        <time>2023-07-17T17:15:11.000Z</time>
      </trkpt>
      <trkpt lat="42.42306" lon="2.16527">
        <ele>2788.3999023438</ele>
        <time>2023-07-17T17:15:12.000Z</time>
      </trkpt>
      <trkpt lat="42.42306" lon="2.1652">
        <ele>2787.3999023438</ele>
        <time>2023-07-17T17:15:18.000Z</time>
      </trkpt>
      <trkpt lat="42.42303" lon="2.16516">
        <ele>2787.3999023438</ele>
        <time>2023-07-17T17:15:22.000Z</time>
      </trkpt>
      <trkpt lat="42.42302" lon="2.16515">
        <ele>2786.3999023438</ele>
        <time>2023-07-17T17:15:24.000Z</time>
      </trkpt>
      <trkpt lat="42.42301" lon="2.16513">
        <ele>2786</ele>
        <time>2023-07-17T17:15:26.000Z</time>
      </trkpt>
      <trkpt lat="42.42299" lon="2.16508">
        <ele>2784.8000488281</ele>
        <time>2023-07-17T17:15:32.000Z</time>
      </trkpt>
      <trkpt lat="42.42298" lon="2.16505">
        <ele>2784.6000976562</ele>
        <time>2023-07-17T17:15:34.000Z</time>
      </trkpt>
      <trkpt lat="42.42296" lon="2.16501">
        <ele>2783.6000976562</ele>
        <time>2023-07-17T17:15:39.000Z</time>
      </trkpt>
      <trkpt lat="42.42294" lon="2.16497">
        <ele>2783</ele>
        <time>2023-07-17T17:15:43.000Z</time>
      </trkpt>
      <trkpt lat="42.42294" lon="2.16496">
        <ele>2782.3999023438</ele>
        <time>2023-07-17T17:15:44.000Z</time>
      </trkpt>
      <trkpt lat="42.42293" lon="2.16492">
        <ele>2781</ele>
        <time>2023-07-17T17:15:49.000Z</time>
      </trkpt>
      <trkpt lat="42.42292" lon="2.1649">
        <ele>2780.1999511719</ele>
        <time>2023-07-17T17:15:51.000Z</time>
      </trkpt>
      <trkpt lat="42.42291" lon="2.16488">
        <ele>2780</ele>
        <time>2023-07-17T17:15:52.000Z</time>
      </trkpt>
      <trkpt lat="42.42287" lon="2.16482">
        <ele>2780.3999023438</ele>
        <time>2023-07-17T17:15:58.000Z</time>
      </trkpt>
      <trkpt lat="42.42286" lon="2.16477">
        <ele>2778.8000488281</ele>
        <time>2023-07-17T17:16:02.000Z</time>
      </trkpt>
      <trkpt lat="42.42285" lon="2.16475">
        <ele>2778.3999023438</ele>
        <time>2023-07-17T17:16:04.000Z</time>
      </trkpt>
      <trkpt lat="42.42283" lon="2.16469">
        <ele>2777.8000488281</ele>
        <time>2023-07-17T17:16:11.000Z</time>
      </trkpt>
      <trkpt lat="42.42284" lon="2.16467">
        <ele>2777.8000488281</ele>
        <time>2023-07-17T17:16:12.000Z</time>
      </trkpt>
      <trkpt lat="42.42285" lon="2.16465">
        <ele>2776.3999023438</ele>
        <time>2023-07-17T17:16:14.000Z</time>
      </trkpt>
      <trkpt lat="42.42284" lon="2.16459">
        <ele>2776.3999023438</ele>
        <time>2023-07-17T17:16:19.000Z</time>
      </trkpt>
      <trkpt lat="42.42281" lon="2.16451">
        <ele>2775</ele>
        <time>2023-07-17T17:16:24.000Z</time>
      </trkpt>
      <trkpt lat="42.4228" lon="2.16449">
        <ele>2773.8000488281</ele>
        <time>2023-07-17T17:16:26.000Z</time>
      </trkpt>
      <trkpt lat="42.42279" lon="2.16448">
        <ele>2773.1999511719</ele>
        <time>2023-07-17T17:16:27.000Z</time>
      </trkpt>
      <trkpt lat="42.42278" lon="2.16446">
        <ele>2772.1999511719</ele>
        <time>2023-07-17T17:16:29.000Z</time>
      </trkpt>
      <trkpt lat="42.42275" lon="2.16436">
        <ele>2770.6000976562</ele>
        <time>2023-07-17T17:16:37.000Z</time>
      </trkpt>
      <trkpt lat="42.42275" lon="2.16426">
        <ele>2769.3999023438</ele>
        <time>2023-07-17T17:16:43.000Z</time>
      </trkpt>
      <trkpt lat="42.42275" lon="2.16424">
        <ele>2768.3999023438</ele>
        <time>2023-07-17T17:16:45.000Z</time>
      </trkpt>
      <trkpt lat="42.42275" lon="2.16423">
        <ele>2767.8000488281</ele>
        <time>2023-07-17T17:16:46.000Z</time>
      </trkpt>
      <trkpt lat="42.42274" lon="2.16422">
        <ele>2767.1999511719</ele>
        <time>2023-07-17T17:16:47.000Z</time>
      </trkpt>
      <trkpt lat="42.42273" lon="2.16412">
        <ele>2765.8000488281</ele>
        <time>2023-07-17T17:16:54.000Z</time>
      </trkpt>
      <trkpt lat="42.42273" lon="2.16403">
        <ele>2764.6000976562</ele>
        <time>2023-07-17T17:16:59.000Z</time>
      </trkpt>
      <trkpt lat="42.42273" lon="2.164">
        <ele>2764.3999023438</ele>
        <time>2023-07-17T17:17:01.000Z</time>
      </trkpt>
      <trkpt lat="42.42271" lon="2.1639">
        <ele>2763.6000976562</ele>
        <time>2023-07-17T17:17:06.000Z</time>
      </trkpt>
      <trkpt lat="42.42271" lon="2.16389">
        <ele>2762.6000976562</ele>
        <time>2023-07-17T17:17:08.000Z</time>
      </trkpt>
      <trkpt lat="42.42271" lon="2.16387">
        <ele>2762</ele>
        <time>2023-07-17T17:17:09.000Z</time>
      </trkpt>
      <trkpt lat="42.42271" lon="2.16382">
        <ele>2760.6000976562</ele>
        <time>2023-07-17T17:17:13.000Z</time>
      </trkpt>
      <trkpt lat="42.42271" lon="2.1638">
        <ele>2759.3999023438</ele>
        <time>2023-07-17T17:17:15.000Z</time>
      </trkpt>
      <trkpt lat="42.42271" lon="2.1638">
        <ele>2758.1999511719</ele>
        <time>2023-07-17T17:17:17.000Z</time>
      </trkpt>
      <trkpt lat="42.42272" lon="2.16377">
        <ele>2757.6000976562</ele>
        <time>2023-07-17T17:17:21.000Z</time>
      </trkpt>
      <trkpt lat="42.42274" lon="2.16373">
        <ele>2757.3999023438</ele>
        <time>2023-07-17T17:17:28.000Z</time>
      </trkpt>
      <trkpt lat="42.42274" lon="2.16372">
        <ele>2757.1999511719</ele>
        <time>2023-07-17T17:17:30.000Z</time>
      </trkpt>
      <trkpt lat="42.42274" lon="2.16369">
        <ele>2756</ele>
        <time>2023-07-17T17:17:32.000Z</time>
      </trkpt>
      <trkpt lat="42.42274" lon="2.16367">
        <ele>2754.8000488281</ele>
        <time>2023-07-17T17:17:35.000Z</time>
      </trkpt>
      <trkpt lat="42.42273" lon="2.16361">
        <ele>2753.6000976562</ele>
        <time>2023-07-17T17:17:41.000Z</time>
      </trkpt>
      <trkpt lat="42.42273" lon="2.16357">
        <ele>2752.1999511719</ele>
        <time>2023-07-17T17:17:45.000Z</time>
      </trkpt>
      <trkpt lat="42.42274" lon="2.16352">
        <ele>2751</ele>
        <time>2023-07-17T17:17:50.000Z</time>
      </trkpt>
      <trkpt lat="42.42275" lon="2.16345">
        <ele>2750.6000976562</ele>
        <time>2023-07-17T17:17:55.000Z</time>
      </trkpt>
      <trkpt lat="42.42274" lon="2.16341">
        <ele>2750</ele>
        <time>2023-07-17T17:17:59.000Z</time>
      </trkpt>
      <trkpt lat="42.42274" lon="2.16338">
        <ele>2748.8000488281</ele>
        <time>2023-07-17T17:18:02.000Z</time>
      </trkpt>
      <trkpt lat="42.42274" lon="2.16337">
        <ele>2748.6000976562</ele>
        <time>2023-07-17T17:18:03.000Z</time>
      </trkpt>
      <trkpt lat="42.42274" lon="2.16332">
        <ele>2747.6000976562</ele>
        <time>2023-07-17T17:18:08.000Z</time>
      </trkpt>
      <trkpt lat="42.42274" lon="2.16332">
        <ele>2747</ele>
        <time>2023-07-17T17:18:10.000Z</time>
      </trkpt>
      <trkpt lat="42.42273" lon="2.16331">
        <ele>2746.6000976562</ele>
        <time>2023-07-17T17:18:11.000Z</time>
      </trkpt>
      <trkpt lat="42.42274" lon="2.16326">
        <ele>2746</ele>
        <time>2023-07-17T17:18:16.000Z</time>
      </trkpt>
      <trkpt lat="42.42274" lon="2.16326">
        <ele>2745.6000976562</ele>
        <time>2023-07-17T17:18:17.000Z</time>
      </trkpt>
      <trkpt lat="42.42274" lon="2.16324">
        <ele>2745</ele>
        <time>2023-07-17T17:18:18.000Z</time>
      </trkpt>
      <trkpt lat="42.42274" lon="2.16323">
        <ele>2744.3999023438</ele>
        <time>2023-07-17T17:18:19.000Z</time>
      </trkpt>
      <trkpt lat="42.42274" lon="2.1632">
        <ele>2742.8000488281</ele>
        <time>2023-07-17T17:18:21.000Z</time>
      </trkpt>
      <trkpt lat="42.42275" lon="2.16316">
        <ele>2741.8000488281</ele>
        <time>2023-07-17T17:18:24.000Z</time>
      </trkpt>
      <trkpt lat="42.42274" lon="2.16312">
        <ele>2740.6000976562</ele>
        <time>2023-07-17T17:18:29.000Z</time>
      </trkpt>
      <trkpt lat="42.42274" lon="2.1631">
        <ele>2740.1999511719</ele>
        <time>2023-07-17T17:18:31.000Z</time>
      </trkpt>
      <trkpt lat="42.42274" lon="2.16308">
        <ele>2739.6000976562</ele>
        <time>2023-07-17T17:18:34.000Z</time>
      </trkpt>
      <trkpt lat="42.42274" lon="2.16307">
        <ele>2738.3999023438</ele>
        <time>2023-07-17T17:18:37.000Z</time>
      </trkpt>
      <trkpt lat="42.42274" lon="2.16307">
        <ele>2738.1999511719</ele>
        <time>2023-07-17T17:18:38.000Z</time>
      </trkpt>
      <trkpt lat="42.42276" lon="2.16303">
        <ele>2737.3999023438</ele>
        <time>2023-07-17T17:18:42.000Z</time>
      </trkpt>
      <trkpt lat="42.42277" lon="2.16301">
        <ele>2736.6000976562</ele>
        <time>2023-07-17T17:18:45.000Z</time>
      </trkpt>
      <trkpt lat="42.42278" lon="2.16301">
        <ele>2736.3999023438</ele>
        <time>2023-07-17T17:18:47.000Z</time>
      </trkpt>
      <trkpt lat="42.42279" lon="2.16298">
        <ele>2735.1999511719</ele>
        <time>2023-07-17T17:18:51.000Z</time>
      </trkpt>
      <trkpt lat="42.42278" lon="2.16298">
        <ele>2734.8000488281</ele>
        <time>2023-07-17T17:18:53.000Z</time>
      </trkpt>
      <trkpt lat="42.42276" lon="2.16294">
        <ele>2734.1999511719</ele>
        <time>2023-07-17T17:18:56.000Z</time>
      </trkpt>
      <trkpt lat="42.42274" lon="2.16291">
        <ele>2734</ele>
        <time>2023-07-17T17:19:00.000Z</time>
      </trkpt>
      <trkpt lat="42.42271" lon="2.16282">
        <ele>2734.3999023438</ele>
        <time>2023-07-17T17:19:07.000Z</time>
      </trkpt>
      <trkpt lat="42.4227" lon="2.16272">
        <ele>2733.8000488281</ele>
        <time>2023-07-17T17:19:15.000Z</time>
      </trkpt>
      <trkpt lat="42.42273" lon="2.16273">
        <ele>2733.6000976562</ele>
        <time>2023-07-17T17:19:21.000Z</time>
      </trkpt>
      <trkpt lat="42.42275" lon="2.16271">
        <ele>2733</ele>
        <time>2023-07-17T17:19:25.000Z</time>
      </trkpt>
      <trkpt lat="42.42274" lon="2.16267">
        <ele>2732.6000976562</ele>
        <time>2023-07-17T17:19:28.000Z</time>
      </trkpt>
      <trkpt lat="42.42273" lon="2.16264">
        <ele>2731.8000488281</ele>
        <time>2023-07-17T17:19:31.000Z</time>
      </trkpt>
      <trkpt lat="42.42276" lon="2.16258">
        <ele>2731</ele>
        <time>2023-07-17T17:19:38.000Z</time>
      </trkpt>
      <trkpt lat="42.42279" lon="2.16256">
        <ele>2730.8000488281</ele>
        <time>2023-07-17T17:19:40.000Z</time>
      </trkpt>
      <trkpt lat="42.42278" lon="2.16255">
        <ele>2729.8000488281</ele>
        <time>2023-07-17T17:19:44.000Z</time>
      </trkpt>
      <trkpt lat="42.42278" lon="2.16254">
        <ele>2729.3999023438</ele>
        <time>2023-07-17T17:19:45.000Z</time>
      </trkpt>
      <trkpt lat="42.42276" lon="2.16252">
        <ele>2728.3999023438</ele>
        <time>2023-07-17T17:19:49.000Z</time>
      </trkpt>
      <trkpt lat="42.42275" lon="2.16251">
        <ele>2728</ele>
        <time>2023-07-17T17:19:51.000Z</time>
      </trkpt>
      <trkpt lat="42.42274" lon="2.16249">
        <ele>2727.1999511719</ele>
        <time>2023-07-17T17:19:55.000Z</time>
      </trkpt>
      <trkpt lat="42.4227" lon="2.16243">
        <ele>2727</ele>
        <time>2023-07-17T17:20:02.000Z</time>
      </trkpt>
      <trkpt lat="42.42269" lon="2.1624">
        <ele>2726.1999511719</ele>
        <time>2023-07-17T17:20:05.000Z</time>
      </trkpt>
      <trkpt lat="42.42267" lon="2.16234">
        <ele>2728</ele>
        <time>2023-07-17T17:20:09.000Z</time>
      </trkpt>
      <trkpt lat="42.42264" lon="2.16228">
        <ele>2729.1999511719</ele>
        <time>2023-07-17T17:20:15.000Z</time>
      </trkpt>
      <trkpt lat="42.42264" lon="2.16223">
        <ele>2730.1999511719</ele>
        <time>2023-07-17T17:20:18.000Z</time>
      </trkpt>
      <trkpt lat="42.42263" lon="2.16221">
        <ele>2730.1999511719</ele>
        <time>2023-07-17T17:20:19.000Z</time>
      </trkpt>
      <trkpt lat="42.42262" lon="2.16209">
        <ele>2731.3999023438</ele>
        <time>2023-07-17T17:20:25.000Z</time>
      </trkpt>
      <trkpt lat="42.42262" lon="2.16207">
        <ele>2731.3999023438</ele>
        <time>2023-07-17T17:20:26.000Z</time>
      </trkpt>
      <trkpt lat="42.4226" lon="2.16192">
        <ele>2731.3999023438</ele>
        <time>2023-07-17T17:20:35.000Z</time>
      </trkpt>
      <trkpt lat="42.4226" lon="2.16186">
        <ele>2732.3999023438</ele>
        <time>2023-07-17T17:20:39.000Z</time>
      </trkpt>
      <trkpt lat="42.4226" lon="2.16186">
        <ele>2734.1999511719</ele>
        <time>2023-07-17T17:20:40.000Z</time>
      </trkpt>
      <trkpt lat="42.4226" lon="2.16179">
        <ele>2733.1999511719</ele>
        <time>2023-07-17T17:20:45.000Z</time>
      </trkpt>
      <trkpt lat="42.4226" lon="2.16175">
        <ele>2733</ele>
        <time>2023-07-17T17:20:47.000Z</time>
      </trkpt>
      <trkpt lat="42.4226" lon="2.16169">
        <ele>2734.1999511719</ele>
        <time>2023-07-17T17:20:51.000Z</time>
      </trkpt>
      <trkpt lat="42.42261" lon="2.1617">
        <ele>2734.3999023438</ele>
        <time>2023-07-17T17:20:53.000Z</time>
      </trkpt>
      <trkpt lat="42.4226" lon="2.16167">
        <ele>2733.1999511719</ele>
        <time>2023-07-17T17:20:57.000Z</time>
      </trkpt>
      <trkpt lat="42.42259" lon="2.16165">
        <ele>2728.8000488281</ele>
        <time>2023-07-17T17:20:58.000Z</time>
      </trkpt>
      <trkpt lat="42.42258" lon="2.16161">
        <ele>2728</ele>
        <time>2023-07-17T17:21:00.000Z</time>
      </trkpt>
      <trkpt lat="42.42255" lon="2.16146">
        <ele>2728.1999511719</ele>
        <time>2023-07-17T17:21:08.000Z</time>
      </trkpt>
      <trkpt lat="42.42255" lon="2.16135">
        <ele>2729.8000488281</ele>
        <time>2023-07-17T17:21:15.000Z</time>
      </trkpt>
      <trkpt lat="42.42256" lon="2.16134">
        <ele>2728.6000976562</ele>
        <time>2023-07-17T17:21:22.000Z</time>
      </trkpt>
      <trkpt lat="42.42256" lon="2.16133">
        <ele>2727.6000976562</ele>
        <time>2023-07-17T17:21:24.000Z</time>
      </trkpt>
      <trkpt lat="42.42256" lon="2.1613">
        <ele>2726</ele>
        <time>2023-07-17T17:21:26.000Z</time>
      </trkpt>
      <trkpt lat="42.42256" lon="2.16128">
        <ele>2725.8000488281</ele>
        <time>2023-07-17T17:21:28.000Z</time>
      </trkpt>
      <trkpt lat="42.42256" lon="2.16125">
        <ele>2724.3999023438</ele>
        <time>2023-07-17T17:21:31.000Z</time>
      </trkpt>
      <trkpt lat="42.42255" lon="2.16122">
        <ele>2724</ele>
        <time>2023-07-17T17:21:34.000Z</time>
      </trkpt>
      <trkpt lat="42.42255" lon="2.16121">
        <ele>2723.3999023438</ele>
        <time>2023-07-17T17:21:37.000Z</time>
      </trkpt>
      <trkpt lat="42.42255" lon="2.1612">
        <ele>2722.1999511719</ele>
        <time>2023-07-17T17:21:38.000Z</time>
      </trkpt>
      <trkpt lat="42.42255" lon="2.1612">
        <ele>2721.1999511719</ele>
        <time>2023-07-17T17:21:40.000Z</time>
      </trkpt>
      <trkpt lat="42.42255" lon="2.16119">
        <ele>2721</ele>
        <time>2023-07-17T17:21:42.000Z</time>
      </trkpt>
      <trkpt lat="42.42254" lon="2.16126">
        <ele>2722.3999023438</ele>
        <time>2023-07-17T17:21:50.000Z</time>
      </trkpt>
      <trkpt lat="42.42257" lon="2.1612">
        <ele>2722.6000976562</ele>
        <time>2023-07-17T17:21:58.000Z</time>
      </trkpt>
      <trkpt lat="42.42255" lon="2.1611">
        <ele>2721.3999023438</ele>
        <time>2023-07-17T17:22:03.000Z</time>
      </trkpt>
      <trkpt lat="42.42254" lon="2.16103">
        <ele>2722.8000488281</ele>
        <time>2023-07-17T17:22:08.000Z</time>
      </trkpt>
      <trkpt lat="42.42254" lon="2.16102">
        <ele>2723.6000976562</ele>
        <time>2023-07-17T17:22:09.000Z</time>
      </trkpt>
      <trkpt lat="42.42252" lon="2.16094">
        <ele>2723</ele>
        <time>2023-07-17T17:22:16.000Z</time>
      </trkpt>
      <trkpt lat="42.42249" lon="2.16085">
        <ele>2723.1999511719</ele>
        <time>2023-07-17T17:22:24.000Z</time>
      </trkpt>
      <trkpt lat="42.42248" lon="2.16079">
        <ele>2723.1999511719</ele>
        <time>2023-07-17T17:22:31.000Z</time>
      </trkpt>
      <trkpt lat="42.42246" lon="2.16068">
        <ele>2722.1999511719</ele>
        <time>2023-07-17T17:22:39.000Z</time>
      </trkpt>
      <trkpt lat="42.42241" lon="2.16056">
        <ele>2724.1999511719</ele>
        <time>2023-07-17T17:22:46.000Z</time>
      </trkpt>
      <trkpt lat="42.42241" lon="2.16044">
        <ele>2723.6000976562</ele>
        <time>2023-07-17T17:22:54.000Z</time>
      </trkpt>
      <trkpt lat="42.4224" lon="2.1604">
        <ele>2723</ele>
        <time>2023-07-17T17:22:57.000Z</time>
      </trkpt>
      <trkpt lat="42.42238" lon="2.16031">
        <ele>2724.1999511719</ele>
        <time>2023-07-17T17:23:03.000Z</time>
      </trkpt>
      <trkpt lat="42.42236" lon="2.16016">
        <ele>2724.6000976562</ele>
        <time>2023-07-17T17:23:13.000Z</time>
      </trkpt>
      <trkpt lat="42.42235" lon="2.16003">
        <ele>2723.8000488281</ele>
        <time>2023-07-17T17:23:22.000Z</time>
      </trkpt>
      <trkpt lat="42.42235" lon="2.15993">
        <ele>2723</ele>
        <time>2023-07-17T17:23:28.000Z</time>
      </trkpt>
      <trkpt lat="42.42235" lon="2.1599">
        <ele>2723</ele>
        <time>2023-07-17T17:23:31.000Z</time>
      </trkpt>
      <trkpt lat="42.42234" lon="2.15982">
        <ele>2723.3999023438</ele>
        <time>2023-07-17T17:23:37.000Z</time>
      </trkpt>
      <trkpt lat="42.42235" lon="2.15972">
        <ele>2723.6000976562</ele>
        <time>2023-07-17T17:23:44.000Z</time>
      </trkpt>
      <trkpt lat="42.42235" lon="2.15963">
        <ele>2723.6000976562</ele>
        <time>2023-07-17T17:23:53.000Z</time>
      </trkpt>
      <trkpt lat="42.42232" lon="2.15952">
        <ele>2723.8000488281</ele>
        <time>2023-07-17T17:24:01.000Z</time>
      </trkpt>
      <trkpt lat="42.42231" lon="2.15947">
        <ele>2724</ele>
        <time>2023-07-17T17:24:04.000Z</time>
      </trkpt>
      <trkpt lat="42.4223" lon="2.15942">
        <ele>2724.6000976562</ele>
        <time>2023-07-17T17:24:09.000Z</time>
      </trkpt>
      <trkpt lat="42.4223" lon="2.15932">
        <ele>2725</ele>
        <time>2023-07-17T17:24:18.000Z</time>
      </trkpt>
      <trkpt lat="42.42229" lon="2.15924">
        <ele>2726.1999511719</ele>
        <time>2023-07-17T17:24:25.000Z</time>
      </trkpt>
      <trkpt lat="42.42228" lon="2.15922">
        <ele>2727</ele>
        <time>2023-07-17T17:24:31.000Z</time>
      </trkpt>
      <trkpt lat="42.42228" lon="2.15921">
        <ele>2727.3999023438</ele>
        <time>2023-07-17T17:24:33.000Z</time>
      </trkpt>
      <trkpt lat="42.42227" lon="2.15913">
        <ele>2728</ele>
        <time>2023-07-17T17:24:39.000Z</time>
      </trkpt>
      <trkpt lat="42.42226" lon="2.15912">
        <ele>2728.3999023438</ele>
        <time>2023-07-17T17:24:43.000Z</time>
      </trkpt>
      <trkpt lat="42.42227" lon="2.15908">
        <ele>2728.6000976562</ele>
        <time>2023-07-17T17:24:47.000Z</time>
      </trkpt>
      <trkpt lat="42.42227" lon="2.15901">
        <ele>2728.8000488281</ele>
        <time>2023-07-17T17:24:56.000Z</time>
      </trkpt>
      <trkpt lat="42.42227" lon="2.15893">
        <ele>2729.1999511719</ele>
        <time>2023-07-17T17:25:02.000Z</time>
      </trkpt>
      <trkpt lat="42.42227" lon="2.15891">
        <ele>2729.3999023438</ele>
        <time>2023-07-17T17:25:04.000Z</time>
      </trkpt>
      <trkpt lat="42.42229" lon="2.15882">
        <ele>2730</ele>
        <time>2023-07-17T17:25:12.000Z</time>
      </trkpt>
      <trkpt lat="42.42231" lon="2.15881">
        <ele>2730.6000976562</ele>
        <time>2023-07-17T17:25:14.000Z</time>
      </trkpt>
      <trkpt lat="42.42234" lon="2.15872">
        <ele>2731</ele>
        <time>2023-07-17T17:25:21.000Z</time>
      </trkpt>
      <trkpt lat="42.42237" lon="2.15864">
        <ele>2731.1999511719</ele>
        <time>2023-07-17T17:25:28.000Z</time>
      </trkpt>
      <trkpt lat="42.42237" lon="2.15861">
        <ele>2731.6000976562</ele>
        <time>2023-07-17T17:25:31.000Z</time>
      </trkpt>
      <trkpt lat="42.42238" lon="2.15858">
        <ele>2732</ele>
        <time>2023-07-17T17:25:35.000Z</time>
      </trkpt>
      <trkpt lat="42.42241" lon="2.15849">
        <ele>2732.1999511719</ele>
        <time>2023-07-17T17:25:43.000Z</time>
      </trkpt>
      <trkpt lat="42.42243" lon="2.15844">
        <ele>2732.8000488281</ele>
        <time>2023-07-17T17:25:46.000Z</time>
      </trkpt>
      <trkpt lat="42.42244" lon="2.15838">
        <ele>2734.3999023438</ele>
        <time>2023-07-17T17:25:50.000Z</time>
      </trkpt>
      <trkpt lat="42.42244" lon="2.15836">
        <ele>2735.1999511719</ele>
        <time>2023-07-17T17:25:52.000Z</time>
      </trkpt>
      <trkpt lat="42.42244" lon="2.15833">
        <ele>2735.3999023438</ele>
        <time>2023-07-17T17:25:54.000Z</time>
      </trkpt>
      <trkpt lat="42.42245" lon="2.15826">
        <ele>2735</ele>
        <time>2023-07-17T17:26:01.000Z</time>
      </trkpt>
      <trkpt lat="42.42245" lon="2.15823">
        <ele>2734.3999023438</ele>
        <time>2023-07-17T17:26:04.000Z</time>
      </trkpt>
      <trkpt lat="42.42244" lon="2.15817">
        <ele>2733.8000488281</ele>
        <time>2023-07-17T17:26:09.000Z</time>
      </trkpt>
      <trkpt lat="42.42243" lon="2.1581">
        <ele>2733.1999511719</ele>
        <time>2023-07-17T17:26:14.000Z</time>
      </trkpt>
      <trkpt lat="42.4224" lon="2.15802">
        <ele>2733.8000488281</ele>
        <time>2023-07-17T17:26:22.000Z</time>
      </trkpt>
      <trkpt lat="42.4224" lon="2.15796">
        <ele>2734</ele>
        <time>2023-07-17T17:26:28.000Z</time>
      </trkpt>
      <trkpt lat="42.42241" lon="2.15797">
        <ele>2734.3999023438</ele>
        <time>2023-07-17T17:26:33.000Z</time>
      </trkpt>
      <trkpt lat="42.42241" lon="2.15796">
        <ele>2734.6000976562</ele>
        <time>2023-07-17T17:26:35.000Z</time>
      </trkpt>
      <trkpt lat="42.42242" lon="2.15785">
        <ele>2734.3999023438</ele>
        <time>2023-07-17T17:26:41.000Z</time>
      </trkpt>
      <trkpt lat="42.42246" lon="2.15776">
        <ele>2735.1999511719</ele>
        <time>2023-07-17T17:26:49.000Z</time>
      </trkpt>
      <trkpt lat="42.42246" lon="2.15767">
        <ele>2733.1999511719</ele>
        <time>2023-07-17T17:26:55.000Z</time>
      </trkpt>
      <trkpt lat="42.42246" lon="2.15763">
        <ele>2732.1999511719</ele>
        <time>2023-07-17T17:26:58.000Z</time>
      </trkpt>
      <trkpt lat="42.42247" lon="2.15762">
        <ele>2732</ele>
        <time>2023-07-17T17:26:59.000Z</time>
      </trkpt>
      <trkpt lat="42.42248" lon="2.15756">
        <ele>2731</ele>
        <time>2023-07-17T17:27:03.000Z</time>
      </trkpt>
      <trkpt lat="42.42249" lon="2.15754">
        <ele>2730.1999511719</ele>
        <time>2023-07-17T17:27:05.000Z</time>
      </trkpt>
      <trkpt lat="42.42249" lon="2.15752">
        <ele>2730</ele>
        <time>2023-07-17T17:27:07.000Z</time>
      </trkpt>
      <trkpt lat="42.4225" lon="2.15743">
        <ele>2729</ele>
        <time>2023-07-17T17:27:14.000Z</time>
      </trkpt>
      <trkpt lat="42.4225" lon="2.1574">
        <ele>2727.6000976562</ele>
        <time>2023-07-17T17:27:17.000Z</time>
      </trkpt>
      <trkpt lat="42.42249" lon="2.15734">
        <ele>2726.8000488281</ele>
        <time>2023-07-17T17:27:22.000Z</time>
      </trkpt>
      <trkpt lat="42.42249" lon="2.1573">
        <ele>2726.6000976562</ele>
        <time>2023-07-17T17:27:24.000Z</time>
      </trkpt>
      <trkpt lat="42.42249" lon="2.15725">
        <ele>2725.3999023438</ele>
        <time>2023-07-17T17:27:28.000Z</time>
      </trkpt>
      <trkpt lat="42.42248" lon="2.15723">
        <ele>2725</ele>
        <time>2023-07-17T17:27:30.000Z</time>
      </trkpt>
      <trkpt lat="42.42247" lon="2.15718">
        <ele>2724.1999511719</ele>
        <time>2023-07-17T17:27:35.000Z</time>
      </trkpt>
      <trkpt lat="42.42246" lon="2.15714">
        <ele>2722.3999023438</ele>
        <time>2023-07-17T17:27:38.000Z</time>
      </trkpt>
      <trkpt lat="42.42245" lon="2.15711">
        <ele>2722.1999511719</ele>
        <time>2023-07-17T17:27:40.000Z</time>
      </trkpt>
      <trkpt lat="42.42245" lon="2.15699">
        <ele>2721.6000976562</ele>
        <time>2023-07-17T17:27:50.000Z</time>
      </trkpt>
      <trkpt lat="42.42245" lon="2.15698">
        <ele>2721.3999023438</ele>
        <time>2023-07-17T17:27:51.000Z</time>
      </trkpt>
      <trkpt lat="42.42244" lon="2.15695">
        <ele>2720.3999023438</ele>
        <time>2023-07-17T17:27:54.000Z</time>
      </trkpt>
      <trkpt lat="42.42244" lon="2.15693">
        <ele>2720.1999511719</ele>
        <time>2023-07-17T17:27:56.000Z</time>
      </trkpt>
      <trkpt lat="42.42243" lon="2.15688">
        <ele>2719.1999511719</ele>
        <time>2023-07-17T17:28:00.000Z</time>
      </trkpt>
      <trkpt lat="42.42243" lon="2.15685">
        <ele>2718.1999511719</ele>
        <time>2023-07-17T17:28:03.000Z</time>
      </trkpt>
      <trkpt lat="42.42243" lon="2.15683">
        <ele>2717.6000976562</ele>
        <time>2023-07-17T17:28:05.000Z</time>
      </trkpt>
      <trkpt lat="42.42242" lon="2.15678">
        <ele>2717</ele>
        <time>2023-07-17T17:28:09.000Z</time>
      </trkpt>
      <trkpt lat="42.42242" lon="2.15674">
        <ele>2716.6000976562</ele>
        <time>2023-07-17T17:28:13.000Z</time>
      </trkpt>
      <trkpt lat="42.42242" lon="2.15666">
        <ele>2716.3999023438</ele>
        <time>2023-07-17T17:28:22.000Z</time>
      </trkpt>
      <trkpt lat="42.42241" lon="2.15661">
        <ele>2716</ele>
        <time>2023-07-17T17:28:25.000Z</time>
      </trkpt>
      <trkpt lat="42.42238" lon="2.15652">
        <ele>2715.3999023438</ele>
        <time>2023-07-17T17:28:32.000Z</time>
      </trkpt>
      <trkpt lat="42.42238" lon="2.1565">
        <ele>2715</ele>
        <time>2023-07-17T17:28:33.000Z</time>
      </trkpt>
      <trkpt lat="42.42236" lon="2.15641">
        <ele>2714.1999511719</ele>
        <time>2023-07-17T17:28:40.000Z</time>
      </trkpt>
      <trkpt lat="42.42234" lon="2.15636">
        <ele>2713.8000488281</ele>
        <time>2023-07-17T17:28:44.000Z</time>
      </trkpt>
      <trkpt lat="42.42233" lon="2.15633">
        <ele>2712.8000488281</ele>
        <time>2023-07-17T17:28:48.000Z</time>
      </trkpt>
      <trkpt lat="42.4223" lon="2.15629">
        <ele>2711.8000488281</ele>
        <time>2023-07-17T17:28:52.000Z</time>
      </trkpt>
      <trkpt lat="42.42229" lon="2.15625">
        <ele>2710.8000488281</ele>
        <time>2023-07-17T17:28:55.000Z</time>
      </trkpt>
      <trkpt lat="42.42228" lon="2.15622">
        <ele>2710.6000976562</ele>
        <time>2023-07-17T17:28:57.000Z</time>
      </trkpt>
      <trkpt lat="42.42225" lon="2.15613">
        <ele>2709.8000488281</ele>
        <time>2023-07-17T17:29:05.000Z</time>
      </trkpt>
      <trkpt lat="42.42225" lon="2.15612">
        <ele>2709.6000976562</ele>
        <time>2023-07-17T17:29:06.000Z</time>
      </trkpt>
      <trkpt lat="42.42222" lon="2.15607">
        <ele>2708.6000976562</ele>
        <time>2023-07-17T17:29:10.000Z</time>
      </trkpt>
      <trkpt lat="42.42222" lon="2.15606">
        <ele>2708.3999023438</ele>
        <time>2023-07-17T17:29:11.000Z</time>
      </trkpt>
      <trkpt lat="42.42221" lon="2.15599">
        <ele>2709.1999511719</ele>
        <time>2023-07-17T17:29:19.000Z</time>
      </trkpt>
      <trkpt lat="42.4222" lon="2.15594">
        <ele>2709.6000976562</ele>
        <time>2023-07-17T17:29:22.000Z</time>
      </trkpt>
      <trkpt lat="42.42216" lon="2.15581">
        <ele>2710.1999511719</ele>
        <time>2023-07-17T17:29:30.000Z</time>
      </trkpt>
      <trkpt lat="42.42211" lon="2.15567">
        <ele>2709.8000488281</ele>
        <time>2023-07-17T17:29:40.000Z</time>
      </trkpt>
      <trkpt lat="42.4221" lon="2.15551">
        <ele>2709.3999023438</ele>
        <time>2023-07-17T17:29:49.000Z</time>
      </trkpt>
      <trkpt lat="42.42207" lon="2.15541">
        <ele>2708.3999023438</ele>
        <time>2023-07-17T17:29:56.000Z</time>
      </trkpt>
      <trkpt lat="42.42206" lon="2.15537">
        <ele>2708.1999511719</ele>
        <time>2023-07-17T17:29:59.000Z</time>
      </trkpt>
      <trkpt lat="42.42205" lon="2.15529">
        <ele>2707.1999511719</ele>
        <time>2023-07-17T17:30:06.000Z</time>
      </trkpt>
      <trkpt lat="42.42204" lon="2.15526">
        <ele>2706.6000976562</ele>
        <time>2023-07-17T17:30:08.000Z</time>
      </trkpt>
      <trkpt lat="42.42203" lon="2.1552">
        <ele>2706</ele>
        <time>2023-07-17T17:30:12.000Z</time>
      </trkpt>
      <trkpt lat="42.42202" lon="2.15518">
        <ele>2705.6000976562</ele>
        <time>2023-07-17T17:30:14.000Z</time>
      </trkpt>
      <trkpt lat="42.42201" lon="2.15518">
        <ele>2705.8000488281</ele>
        <time>2023-07-17T17:30:22.000Z</time>
      </trkpt>
      <trkpt lat="42.42201" lon="2.15518">
        <ele>2705.8000488281</ele>
        <time>2023-07-17T17:30:23.000Z</time>
      </trkpt>
      <trkpt lat="42.42202" lon="2.15519">
        <ele>2705.6000976562</ele>
        <time>2023-07-17T17:30:29.000Z</time>
      </trkpt>
      <trkpt lat="42.42199" lon="2.15507">
        <ele>2706</ele>
        <time>2023-07-17T17:30:36.000Z</time>
      </trkpt>
      <trkpt lat="42.42197" lon="2.15498">
        <ele>2704.6000976562</ele>
        <time>2023-07-17T17:30:42.000Z</time>
      </trkpt>
      <trkpt lat="42.42195" lon="2.15494">
        <ele>2704.3999023438</ele>
        <time>2023-07-17T17:30:44.000Z</time>
      </trkpt>
      <trkpt lat="42.42192" lon="2.15484">
        <ele>2703.6000976562</ele>
        <time>2023-07-17T17:30:50.000Z</time>
      </trkpt>
      <trkpt lat="42.42191" lon="2.15481">
        <ele>2703.3999023438</ele>
        <time>2023-07-17T17:30:52.000Z</time>
      </trkpt>
      <trkpt lat="42.42188" lon="2.15473">
        <ele>2702.6000976562</ele>
        <time>2023-07-17T17:30:58.000Z</time>
      </trkpt>
      <trkpt lat="42.42187" lon="2.15468">
        <ele>2701.8000488281</ele>
        <time>2023-07-17T17:31:02.000Z</time>
      </trkpt>
      <trkpt lat="42.42186" lon="2.15467">
        <ele>2701.3999023438</ele>
        <time>2023-07-17T17:31:04.000Z</time>
      </trkpt>
      <trkpt lat="42.42185" lon="2.15453">
        <ele>2701.3999023438</ele>
        <time>2023-07-17T17:31:13.000Z</time>
      </trkpt>
      <trkpt lat="42.42184" lon="2.15449">
        <ele>2701</ele>
        <time>2023-07-17T17:31:19.000Z</time>
      </trkpt>
      <trkpt lat="42.42184" lon="2.1545">
        <ele>2701</ele>
        <time>2023-07-17T17:31:20.000Z</time>
      </trkpt>
      <trkpt lat="42.42185" lon="2.1545">
        <ele>2701.3999023438</ele>
        <time>2023-07-17T17:31:27.000Z</time>
      </trkpt>
      <trkpt lat="42.42186" lon="2.15438">
        <ele>2700.6000976562</ele>
        <time>2023-07-17T17:31:34.000Z</time>
      </trkpt>
      <trkpt lat="42.42185" lon="2.15437">
        <ele>2700.3999023438</ele>
        <time>2023-07-17T17:31:35.000Z</time>
      </trkpt>
      <trkpt lat="42.42186" lon="2.15437">
        <ele>2700.3999023438</ele>
        <time>2023-07-17T17:31:43.000Z</time>
      </trkpt>
      <trkpt lat="42.42185" lon="2.15441">
        <ele>2700.6000976562</ele>
        <time>2023-07-17T17:31:49.000Z</time>
      </trkpt>
      <trkpt lat="42.42184" lon="2.15437">
        <ele>2700.8000488281</ele>
        <time>2023-07-17T17:31:55.000Z</time>
      </trkpt>
      <trkpt lat="42.42184" lon="2.1543">
        <ele>2701.3999023438</ele>
        <time>2023-07-17T17:31:59.000Z</time>
      </trkpt>
      <trkpt lat="42.42184" lon="2.15429">
        <ele>2702.1999511719</ele>
        <time>2023-07-17T17:32:02.000Z</time>
      </trkpt>
      <trkpt lat="42.42184" lon="2.15428">
        <ele>2702.6000976562</ele>
        <time>2023-07-17T17:32:03.000Z</time>
      </trkpt>
      <trkpt lat="42.42184" lon="2.15422">
        <ele>2703.6000976562</ele>
        <time>2023-07-17T17:32:08.000Z</time>
      </trkpt>
      <trkpt lat="42.42184" lon="2.15421">
        <ele>2703.6000976562</ele>
        <time>2023-07-17T17:32:09.000Z</time>
      </trkpt>
      <trkpt lat="42.42184" lon="2.15408">
        <ele>2704</ele>
        <time>2023-07-17T17:32:17.000Z</time>
      </trkpt>
      <trkpt lat="42.42182" lon="2.15403">
        <ele>2702.6000976562</ele>
        <time>2023-07-17T17:32:23.000Z</time>
      </trkpt>
      <trkpt lat="42.42181" lon="2.15401">
        <ele>2702.3999023438</ele>
        <time>2023-07-17T17:32:25.000Z</time>
      </trkpt>
      <trkpt lat="42.42182" lon="2.15398">
        <ele>2702</ele>
        <time>2023-07-17T17:32:32.000Z</time>
      </trkpt>
      <trkpt lat="42.42182" lon="2.15402">
        <ele>2701.6000976562</ele>
        <time>2023-07-17T17:32:36.000Z</time>
      </trkpt>
      <trkpt lat="42.42182" lon="2.15402">
        <ele>2701.3999023438</ele>
        <time>2023-07-17T17:32:39.000Z</time>
      </trkpt>
      <trkpt lat="42.42181" lon="2.15405">
        <ele>2700.8000488281</ele>
        <time>2023-07-17T17:32:51.000Z</time>
      </trkpt>
      <trkpt lat="42.42181" lon="2.15405">
        <ele>2701.1999511719</ele>
        <time>2023-07-17T17:33:01.000Z</time>
      </trkpt>
      <trkpt lat="42.4218" lon="2.15404">
        <ele>2701.3999023438</ele>
        <time>2023-07-17T17:33:11.000Z</time>
      </trkpt>
      <trkpt lat="42.42182" lon="2.15403">
        <ele>2701</ele>
        <time>2023-07-17T17:33:19.000Z</time>
      </trkpt>
      <trkpt lat="42.42183" lon="2.15411">
        <ele>2700.8000488281</ele>
        <time>2023-07-17T17:33:26.000Z</time>
      </trkpt>
      <trkpt lat="42.42182" lon="2.15418">
        <ele>2701.3999023438</ele>
        <time>2023-07-17T17:33:32.000Z</time>
      </trkpt>
      <trkpt lat="42.42182" lon="2.15428">
        <ele>2702.3999023438</ele>
        <time>2023-07-17T17:33:39.000Z</time>
      </trkpt>
      <trkpt lat="42.42183" lon="2.15432">
        <ele>2701.3999023438</ele>
        <time>2023-07-17T17:33:45.000Z</time>
      </trkpt>
      <trkpt lat="42.42183" lon="2.15434">
        <ele>2701.3999023438</ele>
        <time>2023-07-17T17:33:49.000Z</time>
      </trkpt>
      <trkpt lat="42.42183" lon="2.15437">
        <ele>2701.3999023438</ele>
        <time>2023-07-17T17:33:53.000Z</time>
      </trkpt>
      <trkpt lat="42.42182" lon="2.15446">
        <ele>2701.6000976562</ele>
        <time>2023-07-17T17:33:59.000Z</time>
      </trkpt>
      <trkpt lat="42.42181" lon="2.15452">
        <ele>2702</ele>
        <time>2023-07-17T17:34:07.000Z</time>
      </trkpt>
      <trkpt lat="42.42183" lon="2.1545">
        <ele>2702.3999023438</ele>
        <time>2023-07-17T17:34:14.000Z</time>
      </trkpt>
      <trkpt lat="42.42181" lon="2.1545">
        <ele>2702.3999023438</ele>
        <time>2023-07-17T17:34:25.000Z</time>
      </trkpt>
      <trkpt lat="42.42178" lon="2.1545">
        <ele>2702.3999023438</ele>
        <time>2023-07-17T17:34:32.000Z</time>
      </trkpt>
      <trkpt lat="42.42175" lon="2.15449">
        <ele>2702.6000976562</ele>
        <time>2023-07-17T17:34:36.000Z</time>
      </trkpt>
      <trkpt lat="42.42175" lon="2.15446">
        <ele>2702.8000488281</ele>
        <time>2023-07-17T17:34:39.000Z</time>
      </trkpt>
      <trkpt lat="42.42173" lon="2.15444">
        <ele>2703.6000976562</ele>
        <time>2023-07-17T17:34:45.000Z</time>
      </trkpt>
      <trkpt lat="42.42173" lon="2.15443">
        <ele>2704.1999511719</ele>
        <time>2023-07-17T17:34:47.000Z</time>
      </trkpt>
      <trkpt lat="42.4217" lon="2.15439">
        <ele>2705</ele>
        <time>2023-07-17T17:34:51.000Z</time>
      </trkpt>
      <trkpt lat="42.42169" lon="2.15439">
        <ele>2705.3999023438</ele>
        <time>2023-07-17T17:34:54.000Z</time>
      </trkpt>
      <trkpt lat="42.4217" lon="2.15437">
        <ele>2706</ele>
        <time>2023-07-17T17:34:57.000Z</time>
      </trkpt>
      <trkpt lat="42.42169" lon="2.15433">
        <ele>2707</ele>
        <time>2023-07-17T17:35:01.000Z</time>
      </trkpt>
      <trkpt lat="42.42169" lon="2.15432">
        <ele>2707</ele>
        <time>2023-07-17T17:35:02.000Z</time>
      </trkpt>
      <trkpt lat="42.42166" lon="2.15429">
        <ele>2708.3999023438</ele>
        <time>2023-07-17T17:35:10.000Z</time>
      </trkpt>
      <trkpt lat="42.42165" lon="2.15427">
        <ele>2709.3999023438</ele>
        <time>2023-07-17T17:35:14.000Z</time>
      </trkpt>
      <trkpt lat="42.42165" lon="2.15427">
        <ele>2709.6000976562</ele>
        <time>2023-07-17T17:35:16.000Z</time>
      </trkpt>
      <trkpt lat="42.4216" lon="2.1542">
        <ele>2709.3999023438</ele>
        <time>2023-07-17T17:35:25.000Z</time>
      </trkpt>
      <trkpt lat="42.42157" lon="2.15413">
        <ele>2710</ele>
        <time>2023-07-17T17:35:32.000Z</time>
      </trkpt>
      <trkpt lat="42.42157" lon="2.15404">
        <ele>2709.6000976562</ele>
        <time>2023-07-17T17:35:40.000Z</time>
      </trkpt>
      <trkpt lat="42.42157" lon="2.15392">
        <ele>2709</ele>
        <time>2023-07-17T17:35:47.000Z</time>
      </trkpt>
      <trkpt lat="42.42156" lon="2.15383">
        <ele>2708.6000976562</ele>
        <time>2023-07-17T17:35:55.000Z</time>
      </trkpt>
      <trkpt lat="42.42159" lon="2.15374">
        <ele>2708.3999023438</ele>
        <time>2023-07-17T17:36:02.000Z</time>
      </trkpt>
      <trkpt lat="42.42161" lon="2.15367">
        <ele>2708</ele>
        <time>2023-07-17T17:36:05.000Z</time>
      </trkpt>
      <trkpt lat="42.42162" lon="2.1536">
        <ele>2707.1999511719</ele>
        <time>2023-07-17T17:36:10.000Z</time>
      </trkpt>
      <trkpt lat="42.42161" lon="2.15357">
        <ele>2706.6000976562</ele>
        <time>2023-07-17T17:36:12.000Z</time>
      </trkpt>
      <trkpt lat="42.4216" lon="2.15354">
        <ele>2706</ele>
        <time>2023-07-17T17:36:15.000Z</time>
      </trkpt>
      <trkpt lat="42.42158" lon="2.1535">
        <ele>2704.8000488281</ele>
        <time>2023-07-17T17:36:19.000Z</time>
      </trkpt>
      <trkpt lat="42.42157" lon="2.15348">
        <ele>2704.3999023438</ele>
        <time>2023-07-17T17:36:21.000Z</time>
      </trkpt>
      <trkpt lat="42.42155" lon="2.15339">
        <ele>2704.8000488281</ele>
        <time>2023-07-17T17:36:28.000Z</time>
      </trkpt>
      <trkpt lat="42.42154" lon="2.15331">
        <ele>2703.8000488281</ele>
        <time>2023-07-17T17:36:35.000Z</time>
      </trkpt>
      <trkpt lat="42.42153" lon="2.15319">
        <ele>2703.8000488281</ele>
        <time>2023-07-17T17:36:43.000Z</time>
      </trkpt>
      <trkpt lat="42.42151" lon="2.1531">
        <ele>2704.1999511719</ele>
        <time>2023-07-17T17:36:51.000Z</time>
      </trkpt>
      <trkpt lat="42.42151" lon="2.15306">
        <ele>2703.3999023438</ele>
        <time>2023-07-17T17:36:54.000Z</time>
      </trkpt>
      <trkpt lat="42.42151" lon="2.15302">
        <ele>2702.3999023438</ele>
        <time>2023-07-17T17:36:58.000Z</time>
      </trkpt>
      <trkpt lat="42.42149" lon="2.15291">
        <ele>2701</ele>
        <time>2023-07-17T17:37:08.000Z</time>
      </trkpt>
      <trkpt lat="42.42149" lon="2.1529">
        <ele>2700</ele>
        <time>2023-07-17T17:37:09.000Z</time>
      </trkpt>
      <trkpt lat="42.42147" lon="2.15287">
        <ele>2698.8000488281</ele>
        <time>2023-07-17T17:37:12.000Z</time>
      </trkpt>
      <trkpt lat="42.42146" lon="2.15281">
        <ele>2698</ele>
        <time>2023-07-17T17:37:16.000Z</time>
      </trkpt>
      <trkpt lat="42.42145" lon="2.15279">
        <ele>2697.6000976562</ele>
        <time>2023-07-17T17:37:17.000Z</time>
      </trkpt>
      <trkpt lat="42.42141" lon="2.15262">
        <ele>2698</ele>
        <time>2023-07-17T17:37:27.000Z</time>
      </trkpt>
      <trkpt lat="42.42138" lon="2.15251">
        <ele>2697</ele>
        <time>2023-07-17T17:37:36.000Z</time>
      </trkpt>
      <trkpt lat="42.42138" lon="2.15248">
        <ele>2696.6000976562</ele>
        <time>2023-07-17T17:37:39.000Z</time>
      </trkpt>
      <trkpt lat="42.42138" lon="2.15243">
        <ele>2696.1999511719</ele>
        <time>2023-07-17T17:37:43.000Z</time>
      </trkpt>
      <trkpt lat="42.42139" lon="2.15229">
        <ele>2695.8000488281</ele>
        <time>2023-07-17T17:37:51.000Z</time>
      </trkpt>
      <trkpt lat="42.42139" lon="2.15224">
        <ele>2695.6000976562</ele>
        <time>2023-07-17T17:37:53.000Z</time>
      </trkpt>
      <trkpt lat="42.42136" lon="2.15213">
        <ele>2694.6000976562</ele>
        <time>2023-07-17T17:37:59.000Z</time>
      </trkpt>
      <trkpt lat="42.42136" lon="2.15212">
        <ele>2694.6000976562</ele>
        <time>2023-07-17T17:38:00.000Z</time>
      </trkpt>
      <trkpt lat="42.42131" lon="2.15201">
        <ele>2695</ele>
        <time>2023-07-17T17:38:08.000Z</time>
      </trkpt>
      <trkpt lat="42.42127" lon="2.15186">
        <ele>2693.6000976562</ele>
        <time>2023-07-17T17:38:19.000Z</time>
      </trkpt>
      <trkpt lat="42.42125" lon="2.1517">
        <ele>2693</ele>
        <time>2023-07-17T17:38:28.000Z</time>
      </trkpt>
      <trkpt lat="42.42124" lon="2.15161">
        <ele>2693.8000488281</ele>
        <time>2023-07-17T17:38:35.000Z</time>
      </trkpt>
      <trkpt lat="42.42121" lon="2.1515">
        <ele>2692.3999023438</ele>
        <time>2023-07-17T17:38:43.000Z</time>
      </trkpt>
      <trkpt lat="42.42121" lon="2.15148">
        <ele>2692.3999023438</ele>
        <time>2023-07-17T17:38:44.000Z</time>
      </trkpt>
      <trkpt lat="42.4212" lon="2.15135">
        <ele>2691.6000976562</ele>
        <time>2023-07-17T17:38:52.000Z</time>
      </trkpt>
      <trkpt lat="42.4212" lon="2.15134">
        <ele>2691.3999023438</ele>
        <time>2023-07-17T17:38:53.000Z</time>
      </trkpt>
      <trkpt lat="42.42117" lon="2.15122">
        <ele>2690.8000488281</ele>
        <time>2023-07-17T17:39:03.000Z</time>
      </trkpt>
      <trkpt lat="42.42117" lon="2.1512">
        <ele>2690.3999023438</ele>
        <time>2023-07-17T17:39:05.000Z</time>
      </trkpt>
      <trkpt lat="42.42114" lon="2.15112">
        <ele>2689.3999023438</ele>
        <time>2023-07-17T17:39:11.000Z</time>
      </trkpt>
      <trkpt lat="42.42114" lon="2.1511">
        <ele>2689</ele>
        <time>2023-07-17T17:39:12.000Z</time>
      </trkpt>
      <trkpt lat="42.42112" lon="2.15108">
        <ele>2687.3999023438</ele>
        <time>2023-07-17T17:39:14.000Z</time>
      </trkpt>
      <trkpt lat="42.42111" lon="2.15107">
        <ele>2686.3999023438</ele>
        <time>2023-07-17T17:39:16.000Z</time>
      </trkpt>
      <trkpt lat="42.42111" lon="2.15103">
        <ele>2685.8000488281</ele>
        <time>2023-07-17T17:39:20.000Z</time>
      </trkpt>
      <trkpt lat="42.4211" lon="2.15098">
        <ele>2685.3999023438</ele>
        <time>2023-07-17T17:39:23.000Z</time>
      </trkpt>
      <trkpt lat="42.42109" lon="2.15095">
        <ele>2684.1999511719</ele>
        <time>2023-07-17T17:39:26.000Z</time>
      </trkpt>
      <trkpt lat="42.42109" lon="2.15092">
        <ele>2683.6000976562</ele>
        <time>2023-07-17T17:39:30.000Z</time>
      </trkpt>
      <trkpt lat="42.42108" lon="2.15082">
        <ele>2683.8000488281</ele>
        <time>2023-07-17T17:39:38.000Z</time>
      </trkpt>
      <trkpt lat="42.42107" lon="2.15077">
        <ele>2682.8000488281</ele>
        <time>2023-07-17T17:39:42.000Z</time>
      </trkpt>
      <trkpt lat="42.42105" lon="2.15069">
        <ele>2681.8000488281</ele>
        <time>2023-07-17T17:39:50.000Z</time>
      </trkpt>
      <trkpt lat="42.42103" lon="2.15061">
        <ele>2680.6000976562</ele>
        <time>2023-07-17T17:39:56.000Z</time>
      </trkpt>
      <trkpt lat="42.42103" lon="2.15057">
        <ele>2680.6000976562</ele>
        <time>2023-07-17T17:39:59.000Z</time>
      </trkpt>
      <trkpt lat="42.42103" lon="2.15049">
        <ele>2679.3999023438</ele>
        <time>2023-07-17T17:40:06.000Z</time>
      </trkpt>
      <trkpt lat="42.42103" lon="2.15048">
        <ele>2679</ele>
        <time>2023-07-17T17:40:07.000Z</time>
      </trkpt>
      <trkpt lat="42.42103" lon="2.15044">
        <ele>2678.3999023438</ele>
        <time>2023-07-17T17:40:11.000Z</time>
      </trkpt>
      <trkpt lat="42.42104" lon="2.15041">
        <ele>2677.1999511719</ele>
        <time>2023-07-17T17:40:14.000Z</time>
      </trkpt>
      <trkpt lat="42.42104" lon="2.15037">
        <ele>2676</ele>
        <time>2023-07-17T17:40:17.000Z</time>
      </trkpt>
      <trkpt lat="42.42104" lon="2.15035">
        <ele>2675.8000488281</ele>
        <time>2023-07-17T17:40:18.000Z</time>
      </trkpt>
      <trkpt lat="42.42106" lon="2.15027">
        <ele>2674.8000488281</ele>
        <time>2023-07-17T17:40:23.000Z</time>
      </trkpt>
      <trkpt lat="42.42107" lon="2.15021">
        <ele>2674.8000488281</ele>
        <time>2023-07-17T17:40:26.000Z</time>
      </trkpt>
      <trkpt lat="42.42111" lon="2.15009">
        <ele>2674.1999511719</ele>
        <time>2023-07-17T17:40:35.000Z</time>
      </trkpt>
      <trkpt lat="42.42112" lon="2.15007">
        <ele>2673.8000488281</ele>
        <time>2023-07-17T17:40:37.000Z</time>
      </trkpt>
      <trkpt lat="42.42113" lon="2.15005">
        <ele>2673.3999023438</ele>
        <time>2023-07-17T17:40:42.000Z</time>
      </trkpt>
      <trkpt lat="42.42112" lon="2.15007">
        <ele>2673.1999511719</ele>
        <time>2023-07-17T17:40:49.000Z</time>
      </trkpt>
      <trkpt lat="42.42117" lon="2.15006">
        <ele>2673.3999023438</ele>
        <time>2023-07-17T17:40:55.000Z</time>
      </trkpt>
      <trkpt lat="42.42121" lon="2.15004">
        <ele>2672.8000488281</ele>
        <time>2023-07-17T17:40:58.000Z</time>
      </trkpt>
      <trkpt lat="42.42119" lon="2.15003">
        <ele>2672.1999511719</ele>
        <time>2023-07-17T17:41:01.000Z</time>
      </trkpt>
      <trkpt lat="42.42115" lon="2.14997">
        <ele>2672</ele>
        <time>2023-07-17T17:41:07.000Z</time>
      </trkpt>
      <trkpt lat="42.42114" lon="2.14999">
        <ele>2672.6000976562</ele>
        <time>2023-07-17T17:41:14.000Z</time>
      </trkpt>
      <trkpt lat="42.42118" lon="2.15003">
        <ele>2673.1999511719</ele>
        <time>2023-07-17T17:41:22.000Z</time>
      </trkpt>
      <trkpt lat="42.42117" lon="2.15002">
        <ele>2673.1999511719</ele>
        <time>2023-07-17T17:41:29.000Z</time>
      </trkpt>
      <trkpt lat="42.42117" lon="2.15001">
        <ele>2672</ele>
        <time>2023-07-17T17:41:39.000Z</time>
      </trkpt>
      <trkpt lat="42.42117" lon="2.15001">
        <ele>2671.6000976562</ele>
        <time>2023-07-17T17:41:42.000Z</time>
      </trkpt>
      <trkpt lat="42.42117" lon="2.15001">
        <ele>2671.6000976562</ele>
        <time>2023-07-17T17:41:51.000Z</time>
      </trkpt>
      <trkpt lat="42.42117" lon="2.15001">
        <ele>2672.1999511719</ele>
        <time>2023-07-17T17:42:07.000Z</time>
      </trkpt>
      <trkpt lat="42.42117" lon="2.15001">
        <ele>2671.8000488281</ele>
        <time>2023-07-17T17:42:23.000Z</time>
      </trkpt>
      <trkpt lat="42.42116" lon="2.15001">
        <ele>2671.3999023438</ele>
        <time>2023-07-17T17:42:39.000Z</time>
      </trkpt>
      <trkpt lat="42.42114" lon="2.15">
        <ele>2671.8000488281</ele>
        <time>2023-07-17T17:42:51.000Z</time>
      </trkpt>
      <trkpt lat="42.42115" lon="2.15001">
        <ele>2672</ele>
        <time>2023-07-17T17:42:58.000Z</time>
      </trkpt>
      <trkpt lat="42.4212" lon="2.15002">
        <ele>2672.1999511719</ele>
        <time>2023-07-17T17:43:04.000Z</time>
      </trkpt>
      <trkpt lat="42.4212" lon="2.14996">
        <ele>2671</ele>
        <time>2023-07-17T17:43:12.000Z</time>
      </trkpt>
      <trkpt lat="42.42119" lon="2.14992">
        <ele>2670.3999023438</ele>
        <time>2023-07-17T17:43:15.000Z</time>
      </trkpt>
      <trkpt lat="42.4212" lon="2.14987">
        <ele>2669.6000976562</ele>
        <time>2023-07-17T17:43:19.000Z</time>
      </trkpt>
      <trkpt lat="42.42121" lon="2.14987">
        <ele>2669.3999023438</ele>
        <time>2023-07-17T17:43:21.000Z</time>
      </trkpt>
      <trkpt lat="42.42124" lon="2.14984">
        <ele>2668.1999511719</ele>
        <time>2023-07-17T17:43:26.000Z</time>
      </trkpt>
      <trkpt lat="42.42126" lon="2.1498">
        <ele>2667</ele>
        <time>2023-07-17T17:43:31.000Z</time>
      </trkpt>
      <trkpt lat="42.42128" lon="2.14979">
        <ele>2666.3999023438</ele>
        <time>2023-07-17T17:43:34.000Z</time>
      </trkpt>
      <trkpt lat="42.42129" lon="2.14979">
        <ele>2665.8000488281</ele>
        <time>2023-07-17T17:43:36.000Z</time>
      </trkpt>
      <trkpt lat="42.42135" lon="2.14979">
        <ele>2664.8000488281</ele>
        <time>2023-07-17T17:43:41.000Z</time>
      </trkpt>
      <trkpt lat="42.42134" lon="2.14978">
        <ele>2664</ele>
        <time>2023-07-17T17:43:44.000Z</time>
      </trkpt>
      <trkpt lat="42.42134" lon="2.14976">
        <ele>2663.6000976562</ele>
        <time>2023-07-17T17:43:46.000Z</time>
      </trkpt>
      <trkpt lat="42.42136" lon="2.14971">
        <ele>2662.3999023438</ele>
        <time>2023-07-17T17:43:51.000Z</time>
      </trkpt>
      <trkpt lat="42.42136" lon="2.14967">
        <ele>2661.1999511719</ele>
        <time>2023-07-17T17:43:56.000Z</time>
      </trkpt>
      <trkpt lat="42.42137" lon="2.14964">
        <ele>2660.1999511719</ele>
        <time>2023-07-17T17:43:59.000Z</time>
      </trkpt>
      <trkpt lat="42.42138" lon="2.14962">
        <ele>2659.8000488281</ele>
        <time>2023-07-17T17:44:01.000Z</time>
      </trkpt>
      <trkpt lat="42.42139" lon="2.1496">
        <ele>2659.1999511719</ele>
        <time>2023-07-17T17:44:04.000Z</time>
      </trkpt>
      <trkpt lat="42.42142" lon="2.14956">
        <ele>2658.1999511719</ele>
        <time>2023-07-17T17:44:09.000Z</time>
      </trkpt>
      <trkpt lat="42.42143" lon="2.14955">
        <ele>2658</ele>
        <time>2023-07-17T17:44:10.000Z</time>
      </trkpt>
      <trkpt lat="42.42146" lon="2.14954">
        <ele>2656.8000488281</ele>
        <time>2023-07-17T17:44:14.000Z</time>
      </trkpt>
      <trkpt lat="42.4215" lon="2.14953">
        <ele>2655.6000976562</ele>
        <time>2023-07-17T17:44:17.000Z</time>
      </trkpt>
      <trkpt lat="42.42151" lon="2.14953">
        <ele>2655.3999023438</ele>
        <time>2023-07-17T17:44:18.000Z</time>
      </trkpt>
      <trkpt lat="42.42152" lon="2.14952">
        <ele>2654.6000976562</ele>
        <time>2023-07-17T17:44:20.000Z</time>
      </trkpt>
      <trkpt lat="42.42152" lon="2.14951">
        <ele>2653.3999023438</ele>
        <time>2023-07-17T17:44:23.000Z</time>
      </trkpt>
      <trkpt lat="42.42153" lon="2.14951">
        <ele>2653</ele>
        <time>2023-07-17T17:44:25.000Z</time>
      </trkpt>
      <trkpt lat="42.42155" lon="2.14952">
        <ele>2652.6000976562</ele>
        <time>2023-07-17T17:44:31.000Z</time>
      </trkpt>
      <trkpt lat="42.42157" lon="2.14952">
        <ele>2652.3999023438</ele>
        <time>2023-07-17T17:44:33.000Z</time>
      </trkpt>
      <trkpt lat="42.42161" lon="2.14954">
        <ele>2651.1999511719</ele>
        <time>2023-07-17T17:44:37.000Z</time>
      </trkpt>
      <trkpt lat="42.42162" lon="2.14954">
        <ele>2650.3999023438</ele>
        <time>2023-07-17T17:44:39.000Z</time>
      </trkpt>
      <trkpt lat="42.42163" lon="2.14954">
        <ele>2650</ele>
        <time>2023-07-17T17:44:40.000Z</time>
      </trkpt>
      <trkpt lat="42.42165" lon="2.14952">
        <ele>2648.8000488281</ele>
        <time>2023-07-17T17:44:44.000Z</time>
      </trkpt>
      <trkpt lat="42.42167" lon="2.14951">
        <ele>2648</ele>
        <time>2023-07-17T17:44:47.000Z</time>
      </trkpt>
      <trkpt lat="42.42167" lon="2.14951">
        <ele>2647.6000976562</ele>
        <time>2023-07-17T17:44:48.000Z</time>
      </trkpt>
      <trkpt lat="42.4217" lon="2.14948">
        <ele>2646.1999511719</ele>
        <time>2023-07-17T17:44:52.000Z</time>
      </trkpt>
      <trkpt lat="42.42171" lon="2.14947">
        <ele>2646</ele>
        <time>2023-07-17T17:44:53.000Z</time>
      </trkpt>
      <trkpt lat="42.42173" lon="2.14945">
        <ele>2645.1999511719</ele>
        <time>2023-07-17T17:44:55.000Z</time>
      </trkpt>
      <trkpt lat="42.42177" lon="2.14942">
        <ele>2644.1999511719</ele>
        <time>2023-07-17T17:44:59.000Z</time>
      </trkpt>
      <trkpt lat="42.42177" lon="2.14942">
        <ele>2644</ele>
        <time>2023-07-17T17:45:00.000Z</time>
      </trkpt>
      <trkpt lat="42.4218" lon="2.14939">
        <ele>2642.6000976562</ele>
        <time>2023-07-17T17:45:04.000Z</time>
      </trkpt>
      <trkpt lat="42.42184" lon="2.14936">
        <ele>2641.3999023438</ele>
        <time>2023-07-17T17:45:08.000Z</time>
      </trkpt>
      <trkpt lat="42.42187" lon="2.14933">
        <ele>2640.1999511719</ele>
        <time>2023-07-17T17:45:11.000Z</time>
      </trkpt>
      <trkpt lat="42.4219" lon="2.14931">
        <ele>2639</ele>
        <time>2023-07-17T17:45:15.000Z</time>
      </trkpt>
      <trkpt lat="42.42191" lon="2.14931">
        <ele>2638.6000976562</ele>
        <time>2023-07-17T17:45:16.000Z</time>
      </trkpt>
      <trkpt lat="42.42193" lon="2.14929">
        <ele>2637.8000488281</ele>
        <time>2023-07-17T17:45:19.000Z</time>
      </trkpt>
      <trkpt lat="42.42197" lon="2.14928">
        <ele>2636.8000488281</ele>
        <time>2023-07-17T17:45:23.000Z</time>
      </trkpt>
      <trkpt lat="42.42198" lon="2.14928">
        <ele>2636.3999023438</ele>
        <time>2023-07-17T17:45:24.000Z</time>
      </trkpt>
      <trkpt lat="42.422" lon="2.14928">
        <ele>2635.6000976562</ele>
        <time>2023-07-17T17:45:27.000Z</time>
      </trkpt>
      <trkpt lat="42.42203" lon="2.14927">
        <ele>2634.3999023438</ele>
        <time>2023-07-17T17:45:31.000Z</time>
      </trkpt>
      <trkpt lat="42.42204" lon="2.14927">
        <ele>2633.8000488281</ele>
        <time>2023-07-17T17:45:33.000Z</time>
      </trkpt>
      <trkpt lat="42.42206" lon="2.14926">
        <ele>2633.1999511719</ele>
        <time>2023-07-17T17:45:35.000Z</time>
      </trkpt>
      <trkpt lat="42.42209" lon="2.14926">
        <ele>2632</ele>
        <time>2023-07-17T17:45:39.000Z</time>
      </trkpt>
      <trkpt lat="42.42211" lon="2.14924">
        <ele>2630.8000488281</ele>
        <time>2023-07-17T17:45:42.000Z</time>
      </trkpt>
      <trkpt lat="42.42214" lon="2.14922">
        <ele>2629.8000488281</ele>
        <time>2023-07-17T17:45:46.000Z</time>
      </trkpt>
      <trkpt lat="42.42215" lon="2.14918">
        <ele>2628.3999023438</ele>
        <time>2023-07-17T17:45:50.000Z</time>
      </trkpt>
      <trkpt lat="42.42217" lon="2.14914">
        <ele>2627.1999511719</ele>
        <time>2023-07-17T17:45:54.000Z</time>
      </trkpt>
      <trkpt lat="42.42218" lon="2.14909">
        <ele>2625.8000488281</ele>
        <time>2023-07-17T17:45:58.000Z</time>
      </trkpt>
      <trkpt lat="42.42219" lon="2.14908">
        <ele>2625.6000976562</ele>
        <time>2023-07-17T17:45:59.000Z</time>
      </trkpt>
      <trkpt lat="42.4222" lon="2.14906">
        <ele>2624.8000488281</ele>
        <time>2023-07-17T17:46:01.000Z</time>
      </trkpt>
      <trkpt lat="42.42223" lon="2.14901">
        <ele>2623.6000976562</ele>
        <time>2023-07-17T17:46:05.000Z</time>
      </trkpt>
      <trkpt lat="42.42224" lon="2.14896">
        <ele>2622.1999511719</ele>
        <time>2023-07-17T17:46:09.000Z</time>
      </trkpt>
      <trkpt lat="42.42225" lon="2.14893">
        <ele>2621.6000976562</ele>
        <time>2023-07-17T17:46:12.000Z</time>
      </trkpt>
      <trkpt lat="42.42226" lon="2.1489">
        <ele>2621.1999511719</ele>
        <time>2023-07-17T17:46:14.000Z</time>
      </trkpt>
      <trkpt lat="42.42228" lon="2.14887">
        <ele>2620</ele>
        <time>2023-07-17T17:46:17.000Z</time>
      </trkpt>
      <trkpt lat="42.42229" lon="2.14885">
        <ele>2619.3999023438</ele>
        <time>2023-07-17T17:46:19.000Z</time>
      </trkpt>
      <trkpt lat="42.4223" lon="2.14884">
        <ele>2619</ele>
        <time>2023-07-17T17:46:21.000Z</time>
      </trkpt>
      <trkpt lat="42.42233" lon="2.1488">
        <ele>2617.6000976562</ele>
        <time>2023-07-17T17:46:25.000Z</time>
      </trkpt>
      <trkpt lat="42.42236" lon="2.14875">
        <ele>2616.1999511719</ele>
        <time>2023-07-17T17:46:29.000Z</time>
      </trkpt>
      <trkpt lat="42.42237" lon="2.14875">
        <ele>2615.8000488281</ele>
        <time>2023-07-17T17:46:30.000Z</time>
      </trkpt>
      <trkpt lat="42.42238" lon="2.14874">
        <ele>2615</ele>
        <time>2023-07-17T17:46:32.000Z</time>
      </trkpt>
      <trkpt lat="42.42241" lon="2.14872">
        <ele>2614</ele>
        <time>2023-07-17T17:46:35.000Z</time>
      </trkpt>
      <trkpt lat="42.42244" lon="2.14869">
        <ele>2613</ele>
        <time>2023-07-17T17:46:38.000Z</time>
      </trkpt>
      <trkpt lat="42.42247" lon="2.14866">
        <ele>2611.8000488281</ele>
        <time>2023-07-17T17:46:42.000Z</time>
      </trkpt>
      <trkpt lat="42.42251" lon="2.14863">
        <ele>2610.6000976562</ele>
        <time>2023-07-17T17:46:45.000Z</time>
      </trkpt>
      <trkpt lat="42.42252" lon="2.14862">
        <ele>2610.3999023438</ele>
        <time>2023-07-17T17:46:46.000Z</time>
      </trkpt>
      <trkpt lat="42.42254" lon="2.1486">
        <ele>2609.3999023438</ele>
        <time>2023-07-17T17:46:49.000Z</time>
      </trkpt>
      <trkpt lat="42.42254" lon="2.14858">
        <ele>2608.3999023438</ele>
        <time>2023-07-17T17:46:53.000Z</time>
      </trkpt>
      <trkpt lat="42.42255" lon="2.14858">
        <ele>2608</ele>
        <time>2023-07-17T17:46:55.000Z</time>
      </trkpt>
      <trkpt lat="42.42258" lon="2.14855">
        <ele>2607.1999511719</ele>
        <time>2023-07-17T17:46:59.000Z</time>
      </trkpt>
      <trkpt lat="42.4226" lon="2.14854">
        <ele>2606.8000488281</ele>
        <time>2023-07-17T17:47:03.000Z</time>
      </trkpt>
      <trkpt lat="42.42264" lon="2.14851">
        <ele>2606</ele>
        <time>2023-07-17T17:47:08.000Z</time>
      </trkpt>
      <trkpt lat="42.42265" lon="2.14851">
        <ele>2605.8000488281</ele>
        <time>2023-07-17T17:47:09.000Z</time>
      </trkpt>
      <trkpt lat="42.42267" lon="2.14848">
        <ele>2604.8000488281</ele>
        <time>2023-07-17T17:47:14.000Z</time>
      </trkpt>
      <trkpt lat="42.42267" lon="2.14848">
        <ele>2604.6000976562</ele>
        <time>2023-07-17T17:47:15.000Z</time>
      </trkpt>
      <trkpt lat="42.42267" lon="2.1485">
        <ele>2603.8000488281</ele>
        <time>2023-07-17T17:47:20.000Z</time>
      </trkpt>
      <trkpt lat="42.42267" lon="2.14852">
        <ele>2603.3999023438</ele>
        <time>2023-07-17T17:47:22.000Z</time>
      </trkpt>
      <trkpt lat="42.42266" lon="2.1486">
        <ele>2602.6000976562</ele>
        <time>2023-07-17T17:47:27.000Z</time>
      </trkpt>
      <trkpt lat="42.42266" lon="2.14865">
        <ele>2601.6000976562</ele>
        <time>2023-07-17T17:47:30.000Z</time>
      </trkpt>
      <trkpt lat="42.42266" lon="2.14866">
        <ele>2601.3999023438</ele>
        <time>2023-07-17T17:47:31.000Z</time>
      </trkpt>
      <trkpt lat="42.42271" lon="2.1487">
        <ele>2600.1999511719</ele>
        <time>2023-07-17T17:47:36.000Z</time>
      </trkpt>
      <trkpt lat="42.42273" lon="2.14871">
        <ele>2600</ele>
        <time>2023-07-17T17:47:37.000Z</time>
      </trkpt>
      <trkpt lat="42.42276" lon="2.14872">
        <ele>2599.1999511719</ele>
        <time>2023-07-17T17:47:41.000Z</time>
      </trkpt>
      <trkpt lat="42.42279" lon="2.14876">
        <ele>2598</ele>
        <time>2023-07-17T17:47:45.000Z</time>
      </trkpt>
      <trkpt lat="42.42286" lon="2.14879">
        <ele>2596.8000488281</ele>
        <time>2023-07-17T17:47:52.000Z</time>
      </trkpt>
      <trkpt lat="42.42287" lon="2.14878">
        <ele>2596.8000488281</ele>
        <time>2023-07-17T17:47:53.000Z</time>
      </trkpt>
      <trkpt lat="42.4229" lon="2.14875">
        <ele>2595.6000976562</ele>
        <time>2023-07-17T17:47:58.000Z</time>
      </trkpt>
      <trkpt lat="42.42291" lon="2.14871">
        <ele>2595.1999511719</ele>
        <time>2023-07-17T17:48:01.000Z</time>
      </trkpt>
      <trkpt lat="42.42293" lon="2.14867">
        <ele>2594.6000976562</ele>
        <time>2023-07-17T17:48:05.000Z</time>
      </trkpt>
      <trkpt lat="42.42295" lon="2.14864">
        <ele>2593.6000976562</ele>
        <time>2023-07-17T17:48:09.000Z</time>
      </trkpt>
      <trkpt lat="42.42296" lon="2.14864">
        <ele>2593.3999023438</ele>
        <time>2023-07-17T17:48:10.000Z</time>
      </trkpt>
      <trkpt lat="42.42299" lon="2.14863">
        <ele>2592.3999023438</ele>
        <time>2023-07-17T17:48:14.000Z</time>
      </trkpt>
      <trkpt lat="42.423" lon="2.14861">
        <ele>2591.3999023438</ele>
        <time>2023-07-17T17:48:17.000Z</time>
      </trkpt>
      <trkpt lat="42.42301" lon="2.14861">
        <ele>2590.8000488281</ele>
        <time>2023-07-17T17:48:19.000Z</time>
      </trkpt>
      <trkpt lat="42.42303" lon="2.14861">
        <ele>2590.1999511719</ele>
        <time>2023-07-17T17:48:22.000Z</time>
      </trkpt>
      <trkpt lat="42.42304" lon="2.14864">
        <ele>2589.6000976562</ele>
        <time>2023-07-17T17:48:26.000Z</time>
      </trkpt>
      <trkpt lat="42.42304" lon="2.14865">
        <ele>2589</ele>
        <time>2023-07-17T17:48:28.000Z</time>
      </trkpt>
      <trkpt lat="42.42306" lon="2.14872">
        <ele>2588</ele>
        <time>2023-07-17T17:48:32.000Z</time>
      </trkpt>
      <trkpt lat="42.42307" lon="2.14873">
        <ele>2587.8000488281</ele>
        <time>2023-07-17T17:48:33.000Z</time>
      </trkpt>
      <trkpt lat="42.4231" lon="2.14876">
        <ele>2586.8000488281</ele>
        <time>2023-07-17T17:48:36.000Z</time>
      </trkpt>
      <trkpt lat="42.42311" lon="2.14875">
        <ele>2586.6000976562</ele>
        <time>2023-07-17T17:48:37.000Z</time>
      </trkpt>
      <trkpt lat="42.42312" lon="2.14875">
        <ele>2586</ele>
        <time>2023-07-17T17:48:39.000Z</time>
      </trkpt>
      <trkpt lat="42.42314" lon="2.14874">
        <ele>2585.6000976562</ele>
        <time>2023-07-17T17:48:42.000Z</time>
      </trkpt>
      <trkpt lat="42.42318" lon="2.1487">
        <ele>2584.3999023438</ele>
        <time>2023-07-17T17:48:47.000Z</time>
      </trkpt>
      <trkpt lat="42.42319" lon="2.14869">
        <ele>2584.1999511719</ele>
        <time>2023-07-17T17:48:48.000Z</time>
      </trkpt>
      <trkpt lat="42.42321" lon="2.14867">
        <ele>2583.1999511719</ele>
        <time>2023-07-17T17:48:51.000Z</time>
      </trkpt>
      <trkpt lat="42.42324" lon="2.14864">
        <ele>2582.1999511719</ele>
        <time>2023-07-17T17:48:56.000Z</time>
      </trkpt>
      <trkpt lat="42.42325" lon="2.14862">
        <ele>2581.6000976562</ele>
        <time>2023-07-17T17:48:58.000Z</time>
      </trkpt>
      <trkpt lat="42.42326" lon="2.1486">
        <ele>2581</ele>
        <time>2023-07-17T17:49:00.000Z</time>
      </trkpt>
      <trkpt lat="42.42328" lon="2.14857">
        <ele>2580</ele>
        <time>2023-07-17T17:49:04.000Z</time>
      </trkpt>
      <trkpt lat="42.4233" lon="2.14854">
        <ele>2579.1999511719</ele>
        <time>2023-07-17T17:49:07.000Z</time>
      </trkpt>
      <trkpt lat="42.42331" lon="2.14853">
        <ele>2579</ele>
        <time>2023-07-17T17:49:08.000Z</time>
      </trkpt>
      <trkpt lat="42.42333" lon="2.14847">
        <ele>2577.6000976562</ele>
        <time>2023-07-17T17:49:13.000Z</time>
      </trkpt>
      <trkpt lat="42.42334" lon="2.14847">
        <ele>2577.1999511719</ele>
        <time>2023-07-17T17:49:14.000Z</time>
      </trkpt>
      <trkpt lat="42.42337" lon="2.14844">
        <ele>2576.6000976562</ele>
        <time>2023-07-17T17:49:18.000Z</time>
      </trkpt>
      <trkpt lat="42.42339" lon="2.14842">
        <ele>2575.6000976562</ele>
        <time>2023-07-17T17:49:22.000Z</time>
      </trkpt>
      <trkpt lat="42.4234" lon="2.14842">
        <ele>2575.1999511719</ele>
        <time>2023-07-17T17:49:23.000Z</time>
      </trkpt>
      <trkpt lat="42.42342" lon="2.14841">
        <ele>2574.1999511719</ele>
        <time>2023-07-17T17:49:27.000Z</time>
      </trkpt>
      <trkpt lat="42.42345" lon="2.14841">
        <ele>2573.3999023438</ele>
        <time>2023-07-17T17:49:30.000Z</time>
      </trkpt>
      <trkpt lat="42.42346" lon="2.14841">
        <ele>2573</ele>
        <time>2023-07-17T17:49:31.000Z</time>
      </trkpt>
      <trkpt lat="42.42348" lon="2.1484">
        <ele>2571.8000488281</ele>
        <time>2023-07-17T17:49:36.000Z</time>
      </trkpt>
      <trkpt lat="42.42349" lon="2.14838">
        <ele>2570.8000488281</ele>
        <time>2023-07-17T17:49:39.000Z</time>
      </trkpt>
      <trkpt lat="42.4235" lon="2.14837">
        <ele>2570.6000976562</ele>
        <time>2023-07-17T17:49:40.000Z</time>
      </trkpt>
      <trkpt lat="42.42352" lon="2.14835">
        <ele>2569.8000488281</ele>
        <time>2023-07-17T17:49:45.000Z</time>
      </trkpt>
      <trkpt lat="42.42354" lon="2.14833">
        <ele>2569.6000976562</ele>
        <time>2023-07-17T17:49:47.000Z</time>
      </trkpt>
      <trkpt lat="42.42357" lon="2.1483">
        <ele>2568.1999511719</ele>
        <time>2023-07-17T17:49:51.000Z</time>
      </trkpt>
      <trkpt lat="42.42359" lon="2.14829">
        <ele>2567.8000488281</ele>
        <time>2023-07-17T17:49:54.000Z</time>
      </trkpt>
      <trkpt lat="42.42359" lon="2.14828">
        <ele>2567.1999511719</ele>
        <time>2023-07-17T17:49:56.000Z</time>
      </trkpt>
      <trkpt lat="42.42363" lon="2.14823">
        <ele>2566.8000488281</ele>
        <time>2023-07-17T17:50:01.000Z</time>
      </trkpt>
      <trkpt lat="42.42365" lon="2.14819">
        <ele>2566</ele>
        <time>2023-07-17T17:50:04.000Z</time>
      </trkpt>
      <trkpt lat="42.42368" lon="2.14815">
        <ele>2564.8000488281</ele>
        <time>2023-07-17T17:50:08.000Z</time>
      </trkpt>
      <trkpt lat="42.42368" lon="2.14813">
        <ele>2564.6000976562</ele>
        <time>2023-07-17T17:50:09.000Z</time>
      </trkpt>
      <trkpt lat="42.42371" lon="2.14809">
        <ele>2563.6000976562</ele>
        <time>2023-07-17T17:50:14.000Z</time>
      </trkpt>
      <trkpt lat="42.42372" lon="2.14808">
        <ele>2563.3999023438</ele>
        <time>2023-07-17T17:50:15.000Z</time>
      </trkpt>
      <trkpt lat="42.42377" lon="2.14802">
        <ele>2562.3999023438</ele>
        <time>2023-07-17T17:50:21.000Z</time>
      </trkpt>
      <trkpt lat="42.42379" lon="2.148">
        <ele>2561.6000976562</ele>
        <time>2023-07-17T17:50:24.000Z</time>
      </trkpt>
      <trkpt lat="42.4238" lon="2.14799">
        <ele>2561.3999023438</ele>
        <time>2023-07-17T17:50:26.000Z</time>
      </trkpt>
      <trkpt lat="42.42383" lon="2.14797">
        <ele>2560.1999511719</ele>
        <time>2023-07-17T17:50:31.000Z</time>
      </trkpt>
      <trkpt lat="42.42386" lon="2.14794">
        <ele>2559</ele>
        <time>2023-07-17T17:50:35.000Z</time>
      </trkpt>
      <trkpt lat="42.42386" lon="2.14793">
        <ele>2558.3999023438</ele>
        <time>2023-07-17T17:50:37.000Z</time>
      </trkpt>
      <trkpt lat="42.42387" lon="2.14793">
        <ele>2557.8000488281</ele>
        <time>2023-07-17T17:50:39.000Z</time>
      </trkpt>
      <trkpt lat="42.4239" lon="2.1479">
        <ele>2556.8000488281</ele>
        <time>2023-07-17T17:50:44.000Z</time>
      </trkpt>
      <trkpt lat="42.42392" lon="2.14786">
        <ele>2555.6000976562</ele>
        <time>2023-07-17T17:50:51.000Z</time>
      </trkpt>
      <trkpt lat="42.42393" lon="2.14785">
        <ele>2555.1999511719</ele>
        <time>2023-07-17T17:50:52.000Z</time>
      </trkpt>
      <trkpt lat="42.42395" lon="2.14783">
        <ele>2554.3999023438</ele>
        <time>2023-07-17T17:50:55.000Z</time>
      </trkpt>
      <trkpt lat="42.42398" lon="2.14778">
        <ele>2553.1999511719</ele>
        <time>2023-07-17T17:51:01.000Z</time>
      </trkpt>
      <trkpt lat="42.42401" lon="2.14775">
        <ele>2552</ele>
        <time>2023-07-17T17:51:05.000Z</time>
      </trkpt>
      <trkpt lat="42.42403" lon="2.14773">
        <ele>2551</ele>
        <time>2023-07-17T17:51:08.000Z</time>
      </trkpt>
      <trkpt lat="42.42404" lon="2.14772">
        <ele>2550.8000488281</ele>
        <time>2023-07-17T17:51:09.000Z</time>
      </trkpt>
      <trkpt lat="42.42405" lon="2.1477">
        <ele>2549.6000976562</ele>
        <time>2023-07-17T17:51:13.000Z</time>
      </trkpt>
      <trkpt lat="42.42406" lon="2.14767">
        <ele>2549.1999511719</ele>
        <time>2023-07-17T17:51:15.000Z</time>
      </trkpt>
      <trkpt lat="42.42407" lon="2.14765">
        <ele>2548.8000488281</ele>
        <time>2023-07-17T17:51:17.000Z</time>
      </trkpt>
      <trkpt lat="42.42407" lon="2.14764">
        <ele>2548.6000976562</ele>
        <time>2023-07-17T17:51:18.000Z</time>
      </trkpt>
      <trkpt lat="42.4241" lon="2.14761">
        <ele>2547.3999023438</ele>
        <time>2023-07-17T17:51:22.000Z</time>
      </trkpt>
      <trkpt lat="42.4241" lon="2.14758">
        <ele>2546.3999023438</ele>
        <time>2023-07-17T17:51:25.000Z</time>
      </trkpt>
      <trkpt lat="42.4241" lon="2.14757">
        <ele>2546.1999511719</ele>
        <time>2023-07-17T17:51:26.000Z</time>
      </trkpt>
      <trkpt lat="42.42411" lon="2.14754">
        <ele>2545</ele>
        <time>2023-07-17T17:51:29.000Z</time>
      </trkpt>
      <trkpt lat="42.42412" lon="2.1475">
        <ele>2543.6000976562</ele>
        <time>2023-07-17T17:51:33.000Z</time>
      </trkpt>
      <trkpt lat="42.42412" lon="2.14748">
        <ele>2543.1999511719</ele>
        <time>2023-07-17T17:51:34.000Z</time>
      </trkpt>
      <trkpt lat="42.42412" lon="2.14746">
        <ele>2542.1999511719</ele>
        <time>2023-07-17T17:51:36.000Z</time>
      </trkpt>
      <trkpt lat="42.42414" lon="2.14741">
        <ele>2541</ele>
        <time>2023-07-17T17:51:40.000Z</time>
      </trkpt>
      <trkpt lat="42.42416" lon="2.14738">
        <ele>2540.3999023438</ele>
        <time>2023-07-17T17:51:43.000Z</time>
      </trkpt>
      <trkpt lat="42.42416" lon="2.14736">
        <ele>2539.8000488281</ele>
        <time>2023-07-17T17:51:45.000Z</time>
      </trkpt>
      <trkpt lat="42.42418" lon="2.14738">
        <ele>2539.1999511719</ele>
        <time>2023-07-17T17:51:48.000Z</time>
      </trkpt>
      <trkpt lat="42.42419" lon="2.1474">
        <ele>2539</ele>
        <time>2023-07-17T17:51:50.000Z</time>
      </trkpt>
      <trkpt lat="42.42419" lon="2.14742">
        <ele>2538.8000488281</ele>
        <time>2023-07-17T17:51:51.000Z</time>
      </trkpt>
      <trkpt lat="42.42424" lon="2.14746">
        <ele>2537.6000976562</ele>
        <time>2023-07-17T17:51:56.000Z</time>
      </trkpt>
      <trkpt lat="42.42426" lon="2.14749">
        <ele>2536.8000488281</ele>
        <time>2023-07-17T17:51:59.000Z</time>
      </trkpt>
      <trkpt lat="42.42427" lon="2.1475">
        <ele>2536.6000976562</ele>
        <time>2023-07-17T17:52:00.000Z</time>
      </trkpt>
      <trkpt lat="42.42431" lon="2.14751">
        <ele>2535.3999023438</ele>
        <time>2023-07-17T17:52:04.000Z</time>
      </trkpt>
      <trkpt lat="42.42431" lon="2.14751">
        <ele>2535.1999511719</ele>
        <time>2023-07-17T17:52:05.000Z</time>
      </trkpt>
      <trkpt lat="42.4243" lon="2.14749">
        <ele>2534.3999023438</ele>
        <time>2023-07-17T17:52:08.000Z</time>
      </trkpt>
      <trkpt lat="42.42429" lon="2.14748">
        <ele>2534.1999511719</ele>
        <time>2023-07-17T17:52:09.000Z</time>
      </trkpt>
      <trkpt lat="42.42431" lon="2.14745">
        <ele>2533.8000488281</ele>
        <time>2023-07-17T17:52:12.000Z</time>
      </trkpt>
      <trkpt lat="42.42432" lon="2.14744">
        <ele>2533.1999511719</ele>
        <time>2023-07-17T17:52:14.000Z</time>
      </trkpt>
      <trkpt lat="42.42435" lon="2.14745">
        <ele>2532.3999023438</ele>
        <time>2023-07-17T17:52:19.000Z</time>
      </trkpt>
      <trkpt lat="42.42435" lon="2.14746">
        <ele>2532</ele>
        <time>2023-07-17T17:52:20.000Z</time>
      </trkpt>
      <trkpt lat="42.42438" lon="2.1475">
        <ele>2531.1999511719</ele>
        <time>2023-07-17T17:52:24.000Z</time>
      </trkpt>
      <trkpt lat="42.42439" lon="2.1475">
        <ele>2531</ele>
        <time>2023-07-17T17:52:25.000Z</time>
      </trkpt>
      <trkpt lat="42.42443" lon="2.14752">
        <ele>2529.6000976562</ele>
        <time>2023-07-17T17:52:30.000Z</time>
      </trkpt>
      <trkpt lat="42.42444" lon="2.14751">
        <ele>2529.1999511719</ele>
        <time>2023-07-17T17:52:32.000Z</time>
      </trkpt>
      <trkpt lat="42.42444" lon="2.14748">
        <ele>2528.8000488281</ele>
        <time>2023-07-17T17:52:34.000Z</time>
      </trkpt>
      <trkpt lat="42.42444" lon="2.14746">
        <ele>2528.6000976562</ele>
        <time>2023-07-17T17:52:35.000Z</time>
      </trkpt>
      <trkpt lat="42.42444" lon="2.14741">
        <ele>2527.8000488281</ele>
        <time>2023-07-17T17:52:39.000Z</time>
      </trkpt>
      <trkpt lat="42.42444" lon="2.1474">
        <ele>2527.3999023438</ele>
        <time>2023-07-17T17:52:40.000Z</time>
      </trkpt>
      <trkpt lat="42.42445" lon="2.14737">
        <ele>2526.3999023438</ele>
        <time>2023-07-17T17:52:45.000Z</time>
      </trkpt>
      <trkpt lat="42.42446" lon="2.14736">
        <ele>2525.8000488281</ele>
        <time>2023-07-17T17:52:47.000Z</time>
      </trkpt>
      <trkpt lat="42.42447" lon="2.14735">
        <ele>2525.3999023438</ele>
        <time>2023-07-17T17:52:50.000Z</time>
      </trkpt>
      <trkpt lat="42.42449" lon="2.14731">
        <ele>2524.3999023438</ele>
        <time>2023-07-17T17:52:54.000Z</time>
      </trkpt>
      <trkpt lat="42.4245" lon="2.14725">
        <ele>2523.3999023438</ele>
        <time>2023-07-17T17:52:58.000Z</time>
      </trkpt>
      <trkpt lat="42.42451" lon="2.14718">
        <ele>2522.6000976562</ele>
        <time>2023-07-17T17:53:02.000Z</time>
      </trkpt>
      <trkpt lat="42.42452" lon="2.14715">
        <ele>2522.3999023438</ele>
        <time>2023-07-17T17:53:04.000Z</time>
      </trkpt>
      <trkpt lat="42.42453" lon="2.14711">
        <ele>2521.1999511719</ele>
        <time>2023-07-17T17:53:08.000Z</time>
      </trkpt>
      <trkpt lat="42.42454" lon="2.14709">
        <ele>2521</ele>
        <time>2023-07-17T17:53:10.000Z</time>
      </trkpt>
      <trkpt lat="42.42454" lon="2.14703">
        <ele>2520</ele>
        <time>2023-07-17T17:53:14.000Z</time>
      </trkpt>
      <trkpt lat="42.42453" lon="2.14698">
        <ele>2519.1999511719</ele>
        <time>2023-07-17T17:53:17.000Z</time>
      </trkpt>
      <trkpt lat="42.42453" lon="2.14697">
        <ele>2518.8000488281</ele>
        <time>2023-07-17T17:53:19.000Z</time>
      </trkpt>
      <trkpt lat="42.42453" lon="2.1469">
        <ele>2517.6000976562</ele>
        <time>2023-07-17T17:53:25.000Z</time>
      </trkpt>
      <trkpt lat="42.42453" lon="2.14687">
        <ele>2517.3999023438</ele>
        <time>2023-07-17T17:53:26.000Z</time>
      </trkpt>
      <trkpt lat="42.42454" lon="2.14682">
        <ele>2516.3999023438</ele>
        <time>2023-07-17T17:53:30.000Z</time>
      </trkpt>
      <trkpt lat="42.42455" lon="2.1468">
        <ele>2516.1999511719</ele>
        <time>2023-07-17T17:53:31.000Z</time>
      </trkpt>
      <trkpt lat="42.42457" lon="2.14683">
        <ele>2515.8000488281</ele>
        <time>2023-07-17T17:53:33.000Z</time>
      </trkpt>
      <trkpt lat="42.4246" lon="2.1469">
        <ele>2515.3999023438</ele>
        <time>2023-07-17T17:53:37.000Z</time>
      </trkpt>
      <trkpt lat="42.42463" lon="2.14694">
        <ele>2514.8000488281</ele>
        <time>2023-07-17T17:53:40.000Z</time>
      </trkpt>
      <trkpt lat="42.42464" lon="2.14697">
        <ele>2514.1999511719</ele>
        <time>2023-07-17T17:53:43.000Z</time>
      </trkpt>
      <trkpt lat="42.42467" lon="2.147">
        <ele>2513.1999511719</ele>
        <time>2023-07-17T17:53:47.000Z</time>
      </trkpt>
      <trkpt lat="42.4247" lon="2.14704">
        <ele>2512.1999511719</ele>
        <time>2023-07-17T17:53:52.000Z</time>
      </trkpt>
      <trkpt lat="42.42475" lon="2.1471">
        <ele>2511.3999023438</ele>
        <time>2023-07-17T17:53:57.000Z</time>
      </trkpt>
      <trkpt lat="42.42476" lon="2.14712">
        <ele>2511</ele>
        <time>2023-07-17T17:53:58.000Z</time>
      </trkpt>
      <trkpt lat="42.4248" lon="2.14715">
        <ele>2509.8000488281</ele>
        <time>2023-07-17T17:54:02.000Z</time>
      </trkpt>
      <trkpt lat="42.42482" lon="2.14717">
        <ele>2509.3999023438</ele>
        <time>2023-07-17T17:54:05.000Z</time>
      </trkpt>
      <trkpt lat="42.42486" lon="2.14723">
        <ele>2508.8000488281</ele>
        <time>2023-07-17T17:54:09.000Z</time>
      </trkpt>
      <trkpt lat="42.42486" lon="2.14727">
        <ele>2508.1999511719</ele>
        <time>2023-07-17T17:54:14.000Z</time>
      </trkpt>
      <trkpt lat="42.42488" lon="2.1473">
        <ele>2507.3999023438</ele>
        <time>2023-07-17T17:54:17.000Z</time>
      </trkpt>
      <trkpt lat="42.42492" lon="2.14738">
        <ele>2506.3999023438</ele>
        <time>2023-07-17T17:54:22.000Z</time>
      </trkpt>
      <trkpt lat="42.42494" lon="2.1474">
        <ele>2505.8000488281</ele>
        <time>2023-07-17T17:54:24.000Z</time>
      </trkpt>
      <trkpt lat="42.42501" lon="2.14745">
        <ele>2505.3999023438</ele>
        <time>2023-07-17T17:54:30.000Z</time>
      </trkpt>
      <trkpt lat="42.42504" lon="2.1474">
        <ele>2505.3999023438</ele>
        <time>2023-07-17T17:54:37.000Z</time>
      </trkpt>
      <trkpt lat="42.42504" lon="2.14739">
        <ele>2505.1999511719</ele>
        <time>2023-07-17T17:54:38.000Z</time>
      </trkpt>
      <trkpt lat="42.42505" lon="2.14731">
        <ele>2504</ele>
        <time>2023-07-17T17:54:44.000Z</time>
      </trkpt>
      <trkpt lat="42.42506" lon="2.14727">
        <ele>2502.8000488281</ele>
        <time>2023-07-17T17:54:47.000Z</time>
      </trkpt>
      <trkpt lat="42.42507" lon="2.14723">
        <ele>2501.6000976562</ele>
        <time>2023-07-17T17:54:51.000Z</time>
      </trkpt>
      <trkpt lat="42.42508" lon="2.1472">
        <ele>2500.6000976562</ele>
        <time>2023-07-17T17:54:55.000Z</time>
      </trkpt>
      <trkpt lat="42.42508" lon="2.14721">
        <ele>2500</ele>
        <time>2023-07-17T17:54:57.000Z</time>
      </trkpt>
      <trkpt lat="42.42508" lon="2.14719">
        <ele>2499.3999023438</ele>
        <time>2023-07-17T17:55:03.000Z</time>
      </trkpt>
      <trkpt lat="42.42508" lon="2.1472">
        <ele>2499.1999511719</ele>
        <time>2023-07-17T17:55:09.000Z</time>
      </trkpt>
      <trkpt lat="42.4251" lon="2.1472">
        <ele>2499</ele>
        <time>2023-07-17T17:55:17.000Z</time>
      </trkpt>
      <trkpt lat="42.42513" lon="2.14716">
        <ele>2498.6000976562</ele>
        <time>2023-07-17T17:55:23.000Z</time>
      </trkpt>
      <trkpt lat="42.42513" lon="2.14715">
        <ele>2498.3999023438</ele>
        <time>2023-07-17T17:55:24.000Z</time>
      </trkpt>
      <trkpt lat="42.42512" lon="2.14707">
        <ele>2497</ele>
        <time>2023-07-17T17:55:30.000Z</time>
      </trkpt>
      <trkpt lat="42.42512" lon="2.14703">
        <ele>2496.6000976562</ele>
        <time>2023-07-17T17:55:32.000Z</time>
      </trkpt>
      <trkpt lat="42.42511" lon="2.147">
        <ele>2496</ele>
        <time>2023-07-17T17:55:34.000Z</time>
      </trkpt>
      <trkpt lat="42.42509" lon="2.14699">
        <ele>2495.3999023438</ele>
        <time>2023-07-17T17:55:38.000Z</time>
      </trkpt>
      <trkpt lat="42.42507" lon="2.14701">
        <ele>2495.3999023438</ele>
        <time>2023-07-17T17:55:45.000Z</time>
      </trkpt>
      <trkpt lat="42.42506" lon="2.14693">
        <ele>2495.3999023438</ele>
        <time>2023-07-17T17:55:56.000Z</time>
      </trkpt>
      <trkpt lat="42.42505" lon="2.14702">
        <ele>2495.3999023438</ele>
        <time>2023-07-17T17:56:02.000Z</time>
      </trkpt>
      <trkpt lat="42.42506" lon="2.14702">
        <ele>2495.3999023438</ele>
        <time>2023-07-17T17:56:07.000Z</time>
      </trkpt>
      <trkpt lat="42.42506" lon="2.14701">
        <ele>2495.6000976562</ele>
        <time>2023-07-17T17:56:08.000Z</time>
      </trkpt>
      <trkpt lat="42.42507" lon="2.14696">
        <ele>2495.3999023438</ele>
        <time>2023-07-17T17:56:15.000Z</time>
      </trkpt>
      <trkpt lat="42.42508" lon="2.14697">
        <ele>2495.1999511719</ele>
        <time>2023-07-17T17:56:22.000Z</time>
      </trkpt>
      <trkpt lat="42.42509" lon="2.14693">
        <ele>2494.8000488281</ele>
        <time>2023-07-17T17:56:27.000Z</time>
      </trkpt>
      <trkpt lat="42.4251" lon="2.1469">
        <ele>2494.1999511719</ele>
        <time>2023-07-17T17:56:30.000Z</time>
      </trkpt>
      <trkpt lat="42.4251" lon="2.14687">
        <ele>2493.8000488281</ele>
        <time>2023-07-17T17:56:32.000Z</time>
      </trkpt>
      <trkpt lat="42.42511" lon="2.14682">
        <ele>2492.6000976562</ele>
        <time>2023-07-17T17:56:37.000Z</time>
      </trkpt>
      <trkpt lat="42.42511" lon="2.14681">
        <ele>2492.3999023438</ele>
        <time>2023-07-17T17:56:38.000Z</time>
      </trkpt>
      <trkpt lat="42.42513" lon="2.14678">
        <ele>2491.6000976562</ele>
        <time>2023-07-17T17:56:42.000Z</time>
      </trkpt>
      <trkpt lat="42.42513" lon="2.14676">
        <ele>2491.3999023438</ele>
        <time>2023-07-17T17:56:43.000Z</time>
      </trkpt>
      <trkpt lat="42.42513" lon="2.14673">
        <ele>2490.8000488281</ele>
        <time>2023-07-17T17:56:45.000Z</time>
      </trkpt>
      <trkpt lat="42.42513" lon="2.14671">
        <ele>2490.3999023438</ele>
        <time>2023-07-17T17:56:46.000Z</time>
      </trkpt>
      <trkpt lat="42.42512" lon="2.14667">
        <ele>2489.3999023438</ele>
        <time>2023-07-17T17:56:49.000Z</time>
      </trkpt>
      <trkpt lat="42.42511" lon="2.14664">
        <ele>2489</ele>
        <time>2023-07-17T17:56:52.000Z</time>
      </trkpt>
      <trkpt lat="42.42511" lon="2.14659">
        <ele>2488.3999023438</ele>
        <time>2023-07-17T17:56:55.000Z</time>
      </trkpt>
      <trkpt lat="42.42511" lon="2.14652">
        <ele>2487.3999023438</ele>
        <time>2023-07-17T17:57:00.000Z</time>
      </trkpt>
      <trkpt lat="42.42511" lon="2.14649">
        <ele>2487.1999511719</ele>
        <time>2023-07-17T17:57:02.000Z</time>
      </trkpt>
      <trkpt lat="42.42511" lon="2.14645">
        <ele>2486.1999511719</ele>
        <time>2023-07-17T17:57:06.000Z</time>
      </trkpt>
      <trkpt lat="42.42511" lon="2.1464">
        <ele>2485</ele>
        <time>2023-07-17T17:57:10.000Z</time>
      </trkpt>
      <trkpt lat="42.42511" lon="2.14638">
        <ele>2484.6000976562</ele>
        <time>2023-07-17T17:57:11.000Z</time>
      </trkpt>
      <trkpt lat="42.4251" lon="2.14634">
        <ele>2483.8000488281</ele>
        <time>2023-07-17T17:57:14.000Z</time>
      </trkpt>
      <trkpt lat="42.4251" lon="2.14627">
        <ele>2482.6000976562</ele>
        <time>2023-07-17T17:57:19.000Z</time>
      </trkpt>
      <trkpt lat="42.42511" lon="2.14626">
        <ele>2482.1999511719</ele>
        <time>2023-07-17T17:57:20.000Z</time>
      </trkpt>
      <trkpt lat="42.42511" lon="2.14623">
        <ele>2481.3999023438</ele>
        <time>2023-07-17T17:57:22.000Z</time>
      </trkpt>
      <trkpt lat="42.4251" lon="2.14618">
        <ele>2480.1999511719</ele>
        <time>2023-07-17T17:57:27.000Z</time>
      </trkpt>
      <trkpt lat="42.4251" lon="2.14616">
        <ele>2479.8000488281</ele>
        <time>2023-07-17T17:57:29.000Z</time>
      </trkpt>
      <trkpt lat="42.4251" lon="2.1461">
        <ele>2479</ele>
        <time>2023-07-17T17:57:33.000Z</time>
      </trkpt>
      <trkpt lat="42.4251" lon="2.14608">
        <ele>2478.3999023438</ele>
        <time>2023-07-17T17:57:35.000Z</time>
      </trkpt>
      <trkpt lat="42.4251" lon="2.14605">
        <ele>2477.8000488281</ele>
        <time>2023-07-17T17:57:37.000Z</time>
      </trkpt>
      <trkpt lat="42.42511" lon="2.146">
        <ele>2476.8000488281</ele>
        <time>2023-07-17T17:57:41.000Z</time>
      </trkpt>
      <trkpt lat="42.42512" lon="2.14597">
        <ele>2476.1999511719</ele>
        <time>2023-07-17T17:57:43.000Z</time>
      </trkpt>
      <trkpt lat="42.42512" lon="2.14594">
        <ele>2475.8000488281</ele>
        <time>2023-07-17T17:57:45.000Z</time>
      </trkpt>
      <trkpt lat="42.42514" lon="2.1459">
        <ele>2474.3999023438</ele>
        <time>2023-07-17T17:57:49.000Z</time>
      </trkpt>
      <trkpt lat="42.42516" lon="2.14584">
        <ele>2473.1999511719</ele>
        <time>2023-07-17T17:57:54.000Z</time>
      </trkpt>
      <trkpt lat="42.42518" lon="2.14579">
        <ele>2472</ele>
        <time>2023-07-17T17:57:58.000Z</time>
      </trkpt>
      <trkpt lat="42.4252" lon="2.14573">
        <ele>2471</ele>
        <time>2023-07-17T17:58:03.000Z</time>
      </trkpt>
      <trkpt lat="42.42521" lon="2.14572">
        <ele>2470.6000976562</ele>
        <time>2023-07-17T17:58:04.000Z</time>
      </trkpt>
      <trkpt lat="42.42523" lon="2.14567">
        <ele>2469.8000488281</ele>
        <time>2023-07-17T17:58:07.000Z</time>
      </trkpt>
      <trkpt lat="42.42525" lon="2.14559">
        <ele>2468.8000488281</ele>
        <time>2023-07-17T17:58:12.000Z</time>
      </trkpt>
      <trkpt lat="42.42525" lon="2.14558">
        <ele>2468.6000976562</ele>
        <time>2023-07-17T17:58:13.000Z</time>
      </trkpt>
      <trkpt lat="42.42528" lon="2.1455">
        <ele>2467.6000976562</ele>
        <time>2023-07-17T17:58:19.000Z</time>
      </trkpt>
      <trkpt lat="42.42528" lon="2.14549">
        <ele>2467.3999023438</ele>
        <time>2023-07-17T17:58:20.000Z</time>
      </trkpt>
      <trkpt lat="42.4253" lon="2.14542">
        <ele>2466.6000976562</ele>
        <time>2023-07-17T17:58:24.000Z</time>
      </trkpt>
      <trkpt lat="42.4253" lon="2.14536">
        <ele>2465.8000488281</ele>
        <time>2023-07-17T17:58:29.000Z</time>
      </trkpt>
      <trkpt lat="42.4253" lon="2.14534">
        <ele>2465.3999023438</ele>
        <time>2023-07-17T17:58:30.000Z</time>
      </trkpt>
      <trkpt lat="42.42531" lon="2.14529">
        <ele>2464.1999511719</ele>
        <time>2023-07-17T17:58:34.000Z</time>
      </trkpt>
      <trkpt lat="42.42531" lon="2.14525">
        <ele>2463.8000488281</ele>
        <time>2023-07-17T17:58:37.000Z</time>
      </trkpt>
      <trkpt lat="42.42533" lon="2.1452">
        <ele>2462.8000488281</ele>
        <time>2023-07-17T17:58:40.000Z</time>
      </trkpt>
      <trkpt lat="42.42534" lon="2.14514">
        <ele>2461.6000976562</ele>
        <time>2023-07-17T17:58:45.000Z</time>
      </trkpt>
      <trkpt lat="42.42536" lon="2.14505">
        <ele>2460.6000976562</ele>
        <time>2023-07-17T17:58:51.000Z</time>
      </trkpt>
      <trkpt lat="42.42537" lon="2.14502">
        <ele>2460</ele>
        <time>2023-07-17T17:58:54.000Z</time>
      </trkpt>
      <trkpt lat="42.42539" lon="2.145">
        <ele>2459.3999023438</ele>
        <time>2023-07-17T17:58:56.000Z</time>
      </trkpt>
      <trkpt lat="42.42541" lon="2.14495">
        <ele>2458.3999023438</ele>
        <time>2023-07-17T17:59:00.000Z</time>
      </trkpt>
      <trkpt lat="42.42542" lon="2.14494">
        <ele>2458</ele>
        <time>2023-07-17T17:59:01.000Z</time>
      </trkpt>
      <trkpt lat="42.42543" lon="2.14491">
        <ele>2457</ele>
        <time>2023-07-17T17:59:04.000Z</time>
      </trkpt>
      <trkpt lat="42.42543" lon="2.14485">
        <ele>2455.8000488281</ele>
        <time>2023-07-17T17:59:08.000Z</time>
      </trkpt>
      <trkpt lat="42.42543" lon="2.14484">
        <ele>2455.3999023438</ele>
        <time>2023-07-17T17:59:09.000Z</time>
      </trkpt>
      <trkpt lat="42.42543" lon="2.14479">
        <ele>2454.6000976562</ele>
        <time>2023-07-17T17:59:13.000Z</time>
      </trkpt>
      <trkpt lat="42.42543" lon="2.14473">
        <ele>2453.3999023438</ele>
        <time>2023-07-17T17:59:18.000Z</time>
      </trkpt>
      <trkpt lat="42.42543" lon="2.14471">
        <ele>2453.1999511719</ele>
        <time>2023-07-17T17:59:19.000Z</time>
      </trkpt>
      <trkpt lat="42.42544" lon="2.14467">
        <ele>2452.1999511719</ele>
        <time>2023-07-17T17:59:22.000Z</time>
      </trkpt>
      <trkpt lat="42.42546" lon="2.14461">
        <ele>2451.1999511719</ele>
        <time>2023-07-17T17:59:26.000Z</time>
      </trkpt>
      <trkpt lat="42.42547" lon="2.14459">
        <ele>2450.6000976562</ele>
        <time>2023-07-17T17:59:28.000Z</time>
      </trkpt>
      <trkpt lat="42.42548" lon="2.14457">
        <ele>2450</ele>
        <time>2023-07-17T17:59:30.000Z</time>
      </trkpt>
      <trkpt lat="42.42551" lon="2.14453">
        <ele>2448.8000488281</ele>
        <time>2023-07-17T17:59:34.000Z</time>
      </trkpt>
      <trkpt lat="42.42552" lon="2.1445">
        <ele>2447.6000976562</ele>
        <time>2023-07-17T17:59:37.000Z</time>
      </trkpt>
      <trkpt lat="42.42553" lon="2.14449">
        <ele>2447.1999511719</ele>
        <time>2023-07-17T17:59:38.000Z</time>
      </trkpt>
      <trkpt lat="42.42554" lon="2.14445">
        <ele>2446.3999023438</ele>
        <time>2023-07-17T17:59:42.000Z</time>
      </trkpt>
      <trkpt lat="42.42555" lon="2.14442">
        <ele>2445</ele>
        <time>2023-07-17T17:59:45.000Z</time>
      </trkpt>
      <trkpt lat="42.42559" lon="2.14431">
        <ele>2443.6000976562</ele>
        <time>2023-07-17T17:59:56.000Z</time>
      </trkpt>
      <trkpt lat="42.42559" lon="2.1443">
        <ele>2443.3999023438</ele>
        <time>2023-07-17T17:59:57.000Z</time>
      </trkpt>
      <trkpt lat="42.4256" lon="2.14426">
        <ele>2442.3999023438</ele>
        <time>2023-07-17T17:59:59.000Z</time>
      </trkpt>
      <trkpt lat="42.42561" lon="2.14417">
        <ele>2441.1999511719</ele>
        <time>2023-07-17T18:00:04.000Z</time>
      </trkpt>
      <trkpt lat="42.42561" lon="2.14417">
        <ele>2440.8000488281</ele>
        <time>2023-07-17T18:00:05.000Z</time>
      </trkpt>
      <trkpt lat="42.42562" lon="2.14413">
        <ele>2440</ele>
        <time>2023-07-17T18:00:08.000Z</time>
      </trkpt>
      <trkpt lat="42.42562" lon="2.14407">
        <ele>2439</ele>
        <time>2023-07-17T18:00:13.000Z</time>
      </trkpt>
      <trkpt lat="42.42562" lon="2.14406">
        <ele>2438.8000488281</ele>
        <time>2023-07-17T18:00:14.000Z</time>
      </trkpt>
      <trkpt lat="42.42563" lon="2.14398">
        <ele>2437.6000976562</ele>
        <time>2023-07-17T18:00:19.000Z</time>
      </trkpt>
      <trkpt lat="42.42564" lon="2.14398">
        <ele>2437</ele>
        <time>2023-07-17T18:00:22.000Z</time>
      </trkpt>
      <trkpt lat="42.42566" lon="2.14399">
        <ele>2436.3999023438</ele>
        <time>2023-07-17T18:00:29.000Z</time>
      </trkpt>
      <trkpt lat="42.42567" lon="2.14397">
        <ele>2436</ele>
        <time>2023-07-17T18:00:31.000Z</time>
      </trkpt>
      <trkpt lat="42.42567" lon="2.14394">
        <ele>2435.3999023438</ele>
        <time>2023-07-17T18:00:34.000Z</time>
      </trkpt>
      <trkpt lat="42.42568" lon="2.14391">
        <ele>2434</ele>
        <time>2023-07-17T18:00:37.000Z</time>
      </trkpt>
      <trkpt lat="42.42568" lon="2.14389">
        <ele>2433.6000976562</ele>
        <time>2023-07-17T18:00:39.000Z</time>
      </trkpt>
      <trkpt lat="42.42569" lon="2.14385">
        <ele>2432.8000488281</ele>
        <time>2023-07-17T18:00:42.000Z</time>
      </trkpt>
      <trkpt lat="42.42569" lon="2.1438">
        <ele>2432</ele>
        <time>2023-07-17T18:00:46.000Z</time>
      </trkpt>
      <trkpt lat="42.42568" lon="2.14374">
        <ele>2431.8000488281</ele>
        <time>2023-07-17T18:00:52.000Z</time>
      </trkpt>
      <trkpt lat="42.42568" lon="2.1437">
        <ele>2430.1999511719</ele>
        <time>2023-07-17T18:00:56.000Z</time>
      </trkpt>
      <trkpt lat="42.42567" lon="2.14368">
        <ele>2429</ele>
        <time>2023-07-17T18:00:58.000Z</time>
      </trkpt>
      <trkpt lat="42.42567" lon="2.14366">
        <ele>2427.8000488281</ele>
        <time>2023-07-17T18:01:01.000Z</time>
      </trkpt>
      <trkpt lat="42.42567" lon="2.14363">
        <ele>2427.1999511719</ele>
        <time>2023-07-17T18:01:04.000Z</time>
      </trkpt>
      <trkpt lat="42.42568" lon="2.14361">
        <ele>2426.6000976562</ele>
        <time>2023-07-17T18:01:07.000Z</time>
      </trkpt>
      <trkpt lat="42.4257" lon="2.14356">
        <ele>2425.6000976562</ele>
        <time>2023-07-17T18:01:12.000Z</time>
      </trkpt>
      <trkpt lat="42.42571" lon="2.14351">
        <ele>2424.6000976562</ele>
        <time>2023-07-17T18:01:17.000Z</time>
      </trkpt>
      <trkpt lat="42.4257" lon="2.14349">
        <ele>2424.1999511719</ele>
        <time>2023-07-17T18:01:19.000Z</time>
      </trkpt>
      <trkpt lat="42.42571" lon="2.14349">
        <ele>2424</ele>
        <time>2023-07-17T18:01:20.000Z</time>
      </trkpt>
      <trkpt lat="42.42572" lon="2.14348">
        <ele>2423.6000976562</ele>
        <time>2023-07-17T18:01:24.000Z</time>
      </trkpt>
      <trkpt lat="42.42572" lon="2.14348">
        <ele>2423.3999023438</ele>
        <time>2023-07-17T18:01:25.000Z</time>
      </trkpt>
      <trkpt lat="42.42571" lon="2.14347">
        <ele>2422.8000488281</ele>
        <time>2023-07-17T18:01:31.000Z</time>
      </trkpt>
      <trkpt lat="42.42571" lon="2.14344">
        <ele>2422.1999511719</ele>
        <time>2023-07-17T18:01:33.000Z</time>
      </trkpt>
      <trkpt lat="42.42572" lon="2.1434">
        <ele>2421.6000976562</ele>
        <time>2023-07-17T18:01:38.000Z</time>
      </trkpt>
      <trkpt lat="42.42572" lon="2.14339">
        <ele>2421.1999511719</ele>
        <time>2023-07-17T18:01:39.000Z</time>
      </trkpt>
      <trkpt lat="42.42576" lon="2.14338">
        <ele>2420.6000976562</ele>
        <time>2023-07-17T18:01:44.000Z</time>
      </trkpt>
      <trkpt lat="42.42577" lon="2.14336">
        <ele>2420</ele>
        <time>2023-07-17T18:01:47.000Z</time>
      </trkpt>
      <trkpt lat="42.42577" lon="2.14331">
        <ele>2419.1999511719</ele>
        <time>2023-07-17T18:01:52.000Z</time>
      </trkpt>
      <trkpt lat="42.42578" lon="2.14331">
        <ele>2419</ele>
        <time>2023-07-17T18:01:53.000Z</time>
      </trkpt>
      <trkpt lat="42.42578" lon="2.14328">
        <ele>2417.8000488281</ele>
        <time>2023-07-17T18:01:57.000Z</time>
      </trkpt>
      <trkpt lat="42.42579" lon="2.14327">
        <ele>2417.6000976562</ele>
        <time>2023-07-17T18:01:58.000Z</time>
      </trkpt>
      <trkpt lat="42.4258" lon="2.14324">
        <ele>2416.8000488281</ele>
        <time>2023-07-17T18:02:02.000Z</time>
      </trkpt>
      <trkpt lat="42.42581" lon="2.1432">
        <ele>2415.6000976562</ele>
        <time>2023-07-17T18:02:06.000Z</time>
      </trkpt>
      <trkpt lat="42.42582" lon="2.14318">
        <ele>2415.1999511719</ele>
        <time>2023-07-17T18:02:08.000Z</time>
      </trkpt>
      <trkpt lat="42.42582" lon="2.14317">
        <ele>2414.3999023438</ele>
        <time>2023-07-17T18:02:11.000Z</time>
      </trkpt>
      <trkpt lat="42.42581" lon="2.14313">
        <ele>2413.3999023438</ele>
        <time>2023-07-17T18:02:15.000Z</time>
      </trkpt>
      <trkpt lat="42.42582" lon="2.14306">
        <ele>2412.1999511719</ele>
        <time>2023-07-17T18:02:20.000Z</time>
      </trkpt>
      <trkpt lat="42.42582" lon="2.14301">
        <ele>2411.1999511719</ele>
        <time>2023-07-17T18:02:23.000Z</time>
      </trkpt>
      <trkpt lat="42.42581" lon="2.14299">
        <ele>2411</ele>
        <time>2023-07-17T18:02:24.000Z</time>
      </trkpt>
      <trkpt lat="42.4258" lon="2.14294">
        <ele>2409.8000488281</ele>
        <time>2023-07-17T18:02:28.000Z</time>
      </trkpt>
      <trkpt lat="42.4258" lon="2.14288">
        <ele>2408.8000488281</ele>
        <time>2023-07-17T18:02:32.000Z</time>
      </trkpt>
      <trkpt lat="42.42578" lon="2.14281">
        <ele>2407.8000488281</ele>
        <time>2023-07-17T18:02:37.000Z</time>
      </trkpt>
      <trkpt lat="42.42577" lon="2.14278">
        <ele>2406.8000488281</ele>
        <time>2023-07-17T18:02:41.000Z</time>
      </trkpt>
      <trkpt lat="42.42577" lon="2.14277">
        <ele>2406.6000976562</ele>
        <time>2023-07-17T18:02:42.000Z</time>
      </trkpt>
      <trkpt lat="42.42577" lon="2.14271">
        <ele>2405.3999023438</ele>
        <time>2023-07-17T18:02:47.000Z</time>
      </trkpt>
      <trkpt lat="42.42577" lon="2.1427">
        <ele>2405</ele>
        <time>2023-07-17T18:02:49.000Z</time>
      </trkpt>
      <trkpt lat="42.42576" lon="2.14268">
        <ele>2404.3999023438</ele>
        <time>2023-07-17T18:02:51.000Z</time>
      </trkpt>
      <trkpt lat="42.42577" lon="2.14262">
        <ele>2403.1999511719</ele>
        <time>2023-07-17T18:02:57.000Z</time>
      </trkpt>
      <trkpt lat="42.42578" lon="2.14261">
        <ele>2403</ele>
        <time>2023-07-17T18:02:58.000Z</time>
      </trkpt>
      <trkpt lat="42.42578" lon="2.14258">
        <ele>2402.1999511719</ele>
        <time>2023-07-17T18:03:00.000Z</time>
      </trkpt>
      <trkpt lat="42.42578" lon="2.14253">
        <ele>2401</ele>
        <time>2023-07-17T18:03:05.000Z</time>
      </trkpt>
      <trkpt lat="42.42579" lon="2.14248">
        <ele>2400</ele>
        <time>2023-07-17T18:03:09.000Z</time>
      </trkpt>
      <trkpt lat="42.42579" lon="2.14243">
        <ele>2398.6000976562</ele>
        <time>2023-07-17T18:03:13.000Z</time>
      </trkpt>
      <trkpt lat="42.4258" lon="2.1424">
        <ele>2397.6000976562</ele>
        <time>2023-07-17T18:03:17.000Z</time>
      </trkpt>
      <trkpt lat="42.4258" lon="2.14239">
        <ele>2397.1999511719</ele>
        <time>2023-07-17T18:03:18.000Z</time>
      </trkpt>
      <trkpt lat="42.4258" lon="2.14235">
        <ele>2396.3999023438</ele>
        <time>2023-07-17T18:03:21.000Z</time>
      </trkpt>
      <trkpt lat="42.42579" lon="2.14228">
        <ele>2395.3999023438</ele>
        <time>2023-07-17T18:03:26.000Z</time>
      </trkpt>
      <trkpt lat="42.42579" lon="2.14227">
        <ele>2395.1999511719</ele>
        <time>2023-07-17T18:03:27.000Z</time>
      </trkpt>
      <trkpt lat="42.42579" lon="2.14223">
        <ele>2394.1999511719</ele>
        <time>2023-07-17T18:03:30.000Z</time>
      </trkpt>
      <trkpt lat="42.42579" lon="2.14218">
        <ele>2393</ele>
        <time>2023-07-17T18:03:34.000Z</time>
      </trkpt>
      <trkpt lat="42.42578" lon="2.14215">
        <ele>2392</ele>
        <time>2023-07-17T18:03:38.000Z</time>
      </trkpt>
      <trkpt lat="42.42577" lon="2.14212">
        <ele>2390.8000488281</ele>
        <time>2023-07-17T18:03:41.000Z</time>
      </trkpt>
      <trkpt lat="42.42577" lon="2.14211">
        <ele>2390.6000976562</ele>
        <time>2023-07-17T18:03:42.000Z</time>
      </trkpt>
      <trkpt lat="42.42576" lon="2.14202">
        <ele>2389.6000976562</ele>
        <time>2023-07-17T18:03:48.000Z</time>
      </trkpt>
      <trkpt lat="42.42575" lon="2.14199">
        <ele>2389</ele>
        <time>2023-07-17T18:03:50.000Z</time>
      </trkpt>
      <trkpt lat="42.42574" lon="2.14195">
        <ele>2388.3999023438</ele>
        <time>2023-07-17T18:03:53.000Z</time>
      </trkpt>
      <trkpt lat="42.42571" lon="2.1419">
        <ele>2387.1999511719</ele>
        <time>2023-07-17T18:03:58.000Z</time>
      </trkpt>
      <trkpt lat="42.42571" lon="2.1419">
        <ele>2387</ele>
        <time>2023-07-17T18:03:59.000Z</time>
      </trkpt>
      <trkpt lat="42.4257" lon="2.14187">
        <ele>2385.6000976562</ele>
        <time>2023-07-17T18:04:02.000Z</time>
      </trkpt>
      <trkpt lat="42.42571" lon="2.14185">
        <ele>2384.3999023438</ele>
        <time>2023-07-17T18:04:06.000Z</time>
      </trkpt>
      <trkpt lat="42.42571" lon="2.14183">
        <ele>2384.3999023438</ele>
        <time>2023-07-17T18:04:07.000Z</time>
      </trkpt>
      <trkpt lat="42.42573" lon="2.14182">
        <ele>2383.1999511719</ele>
        <time>2023-07-17T18:04:12.000Z</time>
      </trkpt>
      <trkpt lat="42.42574" lon="2.1418">
        <ele>2382.8000488281</ele>
        <time>2023-07-17T18:04:14.000Z</time>
      </trkpt>
      <trkpt lat="42.42577" lon="2.14177">
        <ele>2381.8000488281</ele>
        <time>2023-07-17T18:04:17.000Z</time>
      </trkpt>
      <trkpt lat="42.42578" lon="2.14173">
        <ele>2381</ele>
        <time>2023-07-17T18:04:21.000Z</time>
      </trkpt>
      <trkpt lat="42.42578" lon="2.14171">
        <ele>2380.6000976562</ele>
        <time>2023-07-17T18:04:23.000Z</time>
      </trkpt>
      <trkpt lat="42.42579" lon="2.14164">
        <ele>2379.3999023438</ele>
        <time>2023-07-17T18:04:28.000Z</time>
      </trkpt>
      <trkpt lat="42.42579" lon="2.1416">
        <ele>2378.3999023438</ele>
        <time>2023-07-17T18:04:32.000Z</time>
      </trkpt>
      <trkpt lat="42.42579" lon="2.14155">
        <ele>2378</ele>
        <time>2023-07-17T18:04:36.000Z</time>
      </trkpt>
      <trkpt lat="42.42581" lon="2.1415">
        <ele>2377.3999023438</ele>
        <time>2023-07-17T18:04:39.000Z</time>
      </trkpt>
      <trkpt lat="42.42582" lon="2.14145">
        <ele>2376</ele>
        <time>2023-07-17T18:04:43.000Z</time>
      </trkpt>
      <trkpt lat="42.42583" lon="2.14142">
        <ele>2375.6000976562</ele>
        <time>2023-07-17T18:04:45.000Z</time>
      </trkpt>
      <trkpt lat="42.42583" lon="2.14139">
        <ele>2375</ele>
        <time>2023-07-17T18:04:48.000Z</time>
      </trkpt>
      <trkpt lat="42.42585" lon="2.14136">
        <ele>2373.8000488281</ele>
        <time>2023-07-17T18:04:52.000Z</time>
      </trkpt>
      <trkpt lat="42.42586" lon="2.14134">
        <ele>2373.1999511719</ele>
        <time>2023-07-17T18:04:54.000Z</time>
      </trkpt>
      <trkpt lat="42.42588" lon="2.14131">
        <ele>2372.6000976562</ele>
        <time>2023-07-17T18:04:57.000Z</time>
      </trkpt>
      <trkpt lat="42.42591" lon="2.14125">
        <ele>2371.8000488281</ele>
        <time>2023-07-17T18:05:03.000Z</time>
      </trkpt>
      <trkpt lat="42.42591" lon="2.14124">
        <ele>2371.6000976562</ele>
        <time>2023-07-17T18:05:04.000Z</time>
      </trkpt>
      <trkpt lat="42.42593" lon="2.14121">
        <ele>2370.3999023438</ele>
        <time>2023-07-17T18:05:08.000Z</time>
      </trkpt>
      <trkpt lat="42.42596" lon="2.14119">
        <ele>2369.3999023438</ele>
        <time>2023-07-17T18:05:12.000Z</time>
      </trkpt>
      <trkpt lat="42.42596" lon="2.14118">
        <ele>2369.1999511719</ele>
        <time>2023-07-17T18:05:13.000Z</time>
      </trkpt>
      <trkpt lat="42.42598" lon="2.14116">
        <ele>2368.1999511719</ele>
        <time>2023-07-17T18:05:15.000Z</time>
      </trkpt>
      <trkpt lat="42.42598" lon="2.14112">
        <ele>2367.8000488281</ele>
        <time>2023-07-17T18:05:17.000Z</time>
      </trkpt>
      <trkpt lat="42.42597" lon="2.1411">
        <ele>2366.8000488281</ele>
        <time>2023-07-17T18:05:20.000Z</time>
      </trkpt>
      <trkpt lat="42.42596" lon="2.14104">
        <ele>2365.8000488281</ele>
        <time>2023-07-17T18:05:24.000Z</time>
      </trkpt>
      <trkpt lat="42.42595" lon="2.14101">
        <ele>2364.8000488281</ele>
        <time>2023-07-17T18:05:27.000Z</time>
      </trkpt>
      <trkpt lat="42.42595" lon="2.14101">
        <ele>2364.6000976562</ele>
        <time>2023-07-17T18:05:28.000Z</time>
      </trkpt>
      <trkpt lat="42.42594" lon="2.14098">
        <ele>2363.3999023438</ele>
        <time>2023-07-17T18:05:31.000Z</time>
      </trkpt>
      <trkpt lat="42.42597" lon="2.14095">
        <ele>2362.3999023438</ele>
        <time>2023-07-17T18:05:35.000Z</time>
      </trkpt>
      <trkpt lat="42.42599" lon="2.14094">
        <ele>2361</ele>
        <time>2023-07-17T18:05:38.000Z</time>
      </trkpt>
      <trkpt lat="42.42599" lon="2.14089">
        <ele>2359.8000488281</ele>
        <time>2023-07-17T18:05:43.000Z</time>
      </trkpt>
      <trkpt lat="42.42598" lon="2.14082">
        <ele>2358.6000976562</ele>
        <time>2023-07-17T18:05:50.000Z</time>
      </trkpt>
      <trkpt lat="42.42601" lon="2.14075">
        <ele>2357.1999511719</ele>
        <time>2023-07-17T18:05:56.000Z</time>
      </trkpt>
      <trkpt lat="42.42602" lon="2.14072">
        <ele>2356.6000976562</ele>
        <time>2023-07-17T18:05:59.000Z</time>
      </trkpt>
      <trkpt lat="42.42602" lon="2.1407">
        <ele>2356</ele>
        <time>2023-07-17T18:06:01.000Z</time>
      </trkpt>
      <trkpt lat="42.42602" lon="2.14069">
        <ele>2355.3999023438</ele>
        <time>2023-07-17T18:06:07.000Z</time>
      </trkpt>
      <trkpt lat="42.42602" lon="2.14073">
        <ele>2355.6000976562</ele>
        <time>2023-07-17T18:06:16.000Z</time>
      </trkpt>
      <trkpt lat="42.42603" lon="2.14074">
        <ele>2355.6000976562</ele>
        <time>2023-07-17T18:06:25.000Z</time>
      </trkpt>
      <trkpt lat="42.42603" lon="2.14063">
        <ele>2355.1999511719</ele>
        <time>2023-07-17T18:06:36.000Z</time>
      </trkpt>
      <trkpt lat="42.42603" lon="2.14061">
        <ele>2355</ele>
        <time>2023-07-17T18:06:38.000Z</time>
      </trkpt>
      <trkpt lat="42.42604" lon="2.14054">
        <ele>2354</ele>
        <time>2023-07-17T18:06:45.000Z</time>
      </trkpt>
      <trkpt lat="42.42604" lon="2.14053">
        <ele>2353.8000488281</ele>
        <time>2023-07-17T18:06:46.000Z</time>
      </trkpt>
      <trkpt lat="42.42606" lon="2.1405">
        <ele>2353</ele>
        <time>2023-07-17T18:06:50.000Z</time>
      </trkpt>
      <trkpt lat="42.42607" lon="2.14049">
        <ele>2351.8000488281</ele>
        <time>2023-07-17T18:06:51.000Z</time>
      </trkpt>
      <trkpt lat="42.42608" lon="2.14045">
        <ele>2351.3999023438</ele>
        <time>2023-07-17T18:06:53.000Z</time>
      </trkpt>
      <trkpt lat="42.42603" lon="2.14038">
        <ele>2351.1999511719</ele>
        <time>2023-07-17T18:06:58.000Z</time>
      </trkpt>
      <trkpt lat="42.42601" lon="2.14031">
        <ele>2351.6000976562</ele>
        <time>2023-07-17T18:07:06.000Z</time>
      </trkpt>
      <trkpt lat="42.426" lon="2.14029">
        <ele>2351.6000976562</ele>
        <time>2023-07-17T18:07:13.000Z</time>
      </trkpt>
      <trkpt lat="42.42599" lon="2.14019">
        <ele>2351</ele>
        <time>2023-07-17T18:07:21.000Z</time>
      </trkpt>
      <trkpt lat="42.42599" lon="2.14009">
        <ele>2351.1999511719</ele>
        <time>2023-07-17T18:07:29.000Z</time>
      </trkpt>
      <trkpt lat="42.42595" lon="2.13999">
        <ele>2350.8000488281</ele>
        <time>2023-07-17T18:07:37.000Z</time>
      </trkpt>
      <trkpt lat="42.42594" lon="2.13999">
        <ele>2350.8000488281</ele>
        <time>2023-07-17T18:07:38.000Z</time>
      </trkpt>
      <trkpt lat="42.42593" lon="2.1399">
        <ele>2350.1999511719</ele>
        <time>2023-07-17T18:07:46.000Z</time>
      </trkpt>
      <trkpt lat="42.42592" lon="2.13983">
        <ele>2350.3999023438</ele>
        <time>2023-07-17T18:07:52.000Z</time>
      </trkpt>
      <trkpt lat="42.42592" lon="2.13976">
        <ele>2350.6000976562</ele>
        <time>2023-07-17T18:07:59.000Z</time>
      </trkpt>
      <trkpt lat="42.42593" lon="2.13974">
        <ele>2350.8000488281</ele>
        <time>2023-07-17T18:08:08.000Z</time>
      </trkpt>
      <trkpt lat="42.42595" lon="2.13966">
        <ele>2350.6000976562</ele>
        <time>2023-07-17T18:08:15.000Z</time>
      </trkpt>
      <trkpt lat="42.42598" lon="2.13954">
        <ele>2350</ele>
        <time>2023-07-17T18:08:23.000Z</time>
      </trkpt>
      <trkpt lat="42.426" lon="2.13949">
        <ele>2349.6000976562</ele>
        <time>2023-07-17T18:08:27.000Z</time>
      </trkpt>
      <trkpt lat="42.426" lon="2.13946">
        <ele>2349.1999511719</ele>
        <time>2023-07-17T18:08:30.000Z</time>
      </trkpt>
      <trkpt lat="42.426" lon="2.13938">
        <ele>2348.6000976562</ele>
        <time>2023-07-17T18:08:35.000Z</time>
      </trkpt>
      <trkpt lat="42.426" lon="2.13938">
        <ele>2348.3999023438</ele>
        <time>2023-07-17T18:08:37.000Z</time>
      </trkpt>
      <trkpt lat="42.426" lon="2.13938">
        <ele>2348</ele>
        <time>2023-07-17T18:08:38.000Z</time>
      </trkpt>
      <trkpt lat="42.42597" lon="2.13942">
        <ele>2348</ele>
        <time>2023-07-17T18:08:46.000Z</time>
      </trkpt>
      <trkpt lat="42.42597" lon="2.13939">
        <ele>2348.8000488281</ele>
        <time>2023-07-17T18:08:53.000Z</time>
      </trkpt>
      <trkpt lat="42.42597" lon="2.13939">
        <ele>2347.3999023438</ele>
        <time>2023-07-17T18:08:57.000Z</time>
      </trkpt>
      <trkpt lat="42.42598" lon="2.13942">
        <ele>2346.8000488281</ele>
        <time>2023-07-17T18:09:02.000Z</time>
      </trkpt>
      <trkpt lat="42.42601" lon="2.13936">
        <ele>2347</ele>
        <time>2023-07-17T18:09:09.000Z</time>
      </trkpt>
      <trkpt lat="42.42602" lon="2.13933">
        <ele>2346.1999511719</ele>
        <time>2023-07-17T18:09:14.000Z</time>
      </trkpt>
      <trkpt lat="42.42602" lon="2.1393">
        <ele>2346.1999511719</ele>
        <time>2023-07-17T18:09:16.000Z</time>
      </trkpt>
      <trkpt lat="42.426" lon="2.13923">
        <ele>2346.1999511719</ele>
        <time>2023-07-17T18:09:22.000Z</time>
      </trkpt>
      <trkpt lat="42.42601" lon="2.13915">
        <ele>2345.8000488281</ele>
        <time>2023-07-17T18:09:30.000Z</time>
      </trkpt>
      <trkpt lat="42.42602" lon="2.13905">
        <ele>2345.1999511719</ele>
        <time>2023-07-17T18:09:37.000Z</time>
      </trkpt>
      <trkpt lat="42.42602" lon="2.13901">
        <ele>2345</ele>
        <time>2023-07-17T18:09:40.000Z</time>
      </trkpt>
      <trkpt lat="42.42604" lon="2.13889">
        <ele>2344.1999511719</ele>
        <time>2023-07-17T18:09:47.000Z</time>
      </trkpt>
      <trkpt lat="42.42604" lon="2.13887">
        <ele>2344.1999511719</ele>
        <time>2023-07-17T18:09:48.000Z</time>
      </trkpt>
      <trkpt lat="42.42605" lon="2.13877">
        <ele>2343.3999023438</ele>
        <time>2023-07-17T18:09:55.000Z</time>
      </trkpt>
      <trkpt lat="42.42605" lon="2.13876">
        <ele>2343.1999511719</ele>
        <time>2023-07-17T18:09:56.000Z</time>
      </trkpt>
      <trkpt lat="42.42606" lon="2.13875">
        <ele>2343.1999511719</ele>
        <time>2023-07-17T18:09:58.000Z</time>
      </trkpt>
      <trkpt lat="42.42606" lon="2.13871">
        <ele>2342.8000488281</ele>
        <time>2023-07-17T18:10:01.000Z</time>
      </trkpt>
      <trkpt lat="42.42607" lon="2.13871">
        <ele>2342.3999023438</ele>
        <time>2023-07-17T18:10:09.000Z</time>
      </trkpt>
      <trkpt lat="42.42606" lon="2.13867">
        <ele>2342.6000976562</ele>
        <time>2023-07-17T18:10:17.000Z</time>
      </trkpt>
      <trkpt lat="42.42607" lon="2.13864">
        <ele>2342</ele>
        <time>2023-07-17T18:10:21.000Z</time>
      </trkpt>
      <trkpt lat="42.42607" lon="2.13863">
        <ele>2341.8000488281</ele>
        <time>2023-07-17T18:10:23.000Z</time>
      </trkpt>
      <trkpt lat="42.42608" lon="2.13862">
        <ele>2341.1999511719</ele>
        <time>2023-07-17T18:10:30.000Z</time>
      </trkpt>
      <trkpt lat="42.42608" lon="2.13857">
        <ele>2341</ele>
        <time>2023-07-17T18:10:35.000Z</time>
      </trkpt>
      <trkpt lat="42.42608" lon="2.13856">
        <ele>2340.8000488281</ele>
        <time>2023-07-17T18:10:36.000Z</time>
      </trkpt>
      <trkpt lat="42.4261" lon="2.13845">
        <ele>2339.8000488281</ele>
        <time>2023-07-17T18:10:43.000Z</time>
      </trkpt>
      <trkpt lat="42.42611" lon="2.13842">
        <ele>2339.1999511719</ele>
        <time>2023-07-17T18:10:48.000Z</time>
      </trkpt>
      <trkpt lat="42.42612" lon="2.13841">
        <ele>2338.8000488281</ele>
        <time>2023-07-17T18:10:50.000Z</time>
      </trkpt>
      <trkpt lat="42.42614" lon="2.13838">
        <ele>2338.3999023438</ele>
        <time>2023-07-17T18:10:55.000Z</time>
      </trkpt>
      <trkpt lat="42.42617" lon="2.1384">
        <ele>2338.6000976562</ele>
        <time>2023-07-17T18:11:03.000Z</time>
      </trkpt>
      <trkpt lat="42.42618" lon="2.13839">
        <ele>2338.3999023438</ele>
        <time>2023-07-17T18:11:10.000Z</time>
      </trkpt>
      <trkpt lat="42.42623" lon="2.13844">
        <ele>2338.1999511719</ele>
        <time>2023-07-17T18:11:18.000Z</time>
      </trkpt>
      <trkpt lat="42.42628" lon="2.13838">
        <ele>2338.1999511719</ele>
        <time>2023-07-17T18:11:25.000Z</time>
      </trkpt>
      <trkpt lat="42.42631" lon="2.13837">
        <ele>2339.1999511719</ele>
        <time>2023-07-17T18:11:32.000Z</time>
      </trkpt>
      <trkpt lat="42.42635" lon="2.13835">
        <ele>2339.8000488281</ele>
        <time>2023-07-17T18:11:37.000Z</time>
      </trkpt>
      <trkpt lat="42.42635" lon="2.13834">
        <ele>2339.8000488281</ele>
        <time>2023-07-17T18:11:38.000Z</time>
      </trkpt>
      <trkpt lat="42.42635" lon="2.13831">
        <ele>2339.8000488281</ele>
        <time>2023-07-17T18:11:44.000Z</time>
      </trkpt>
      <trkpt lat="42.42634" lon="2.13833">
        <ele>2339.8000488281</ele>
        <time>2023-07-17T18:11:50.000Z</time>
      </trkpt>
      <trkpt lat="42.42634" lon="2.13834">
        <ele>2339.3999023438</ele>
        <time>2023-07-17T18:11:58.000Z</time>
      </trkpt>
      <trkpt lat="42.42637" lon="2.13835">
        <ele>2340</ele>
        <time>2023-07-17T18:12:06.000Z</time>
      </trkpt>
      <trkpt lat="42.42632" lon="2.13828">
        <ele>2340</ele>
        <time>2023-07-17T18:12:12.000Z</time>
      </trkpt>
      <trkpt lat="42.42634" lon="2.1383">
        <ele>2340</ele>
        <time>2023-07-17T18:12:20.000Z</time>
      </trkpt>
      <trkpt lat="42.42637" lon="2.13822">
        <ele>2339.8000488281</ele>
        <time>2023-07-17T18:12:28.000Z</time>
      </trkpt>
      <trkpt lat="42.42639" lon="2.13814">
        <ele>2339.1999511719</ele>
        <time>2023-07-17T18:12:34.000Z</time>
      </trkpt>
      <trkpt lat="42.42641" lon="2.13815">
        <ele>2338.8000488281</ele>
        <time>2023-07-17T18:12:41.000Z</time>
      </trkpt>
      <trkpt lat="42.42641" lon="2.13816">
        <ele>2338.8000488281</ele>
        <time>2023-07-17T18:12:42.000Z</time>
      </trkpt>
      <trkpt lat="42.42638" lon="2.1381">
        <ele>2338.8000488281</ele>
        <time>2023-07-17T18:12:48.000Z</time>
      </trkpt>
      <trkpt lat="42.42637" lon="2.13802">
        <ele>2338.6000976562</ele>
        <time>2023-07-17T18:12:54.000Z</time>
      </trkpt>
      <trkpt lat="42.42634" lon="2.13796">
        <ele>2338.1999511719</ele>
        <time>2023-07-17T18:13:00.000Z</time>
      </trkpt>
      <trkpt lat="42.42631" lon="2.13793">
        <ele>2337.6000976562</ele>
        <time>2023-07-17T18:13:06.000Z</time>
      </trkpt>
      <trkpt lat="42.42632" lon="2.13792">
        <ele>2337.3999023438</ele>
        <time>2023-07-17T18:13:07.000Z</time>
      </trkpt>
      <trkpt lat="42.42631" lon="2.13791">
        <ele>2336.6000976562</ele>
        <time>2023-07-17T18:13:12.000Z</time>
      </trkpt>
      <trkpt lat="42.42631" lon="2.13792">
        <ele>2336.3999023438</ele>
        <time>2023-07-17T18:13:13.000Z</time>
      </trkpt>
      <trkpt lat="42.4263" lon="2.13793">
        <ele>2336.1999511719</ele>
        <time>2023-07-17T18:13:15.000Z</time>
      </trkpt>
      <trkpt lat="42.42629" lon="2.13793">
        <ele>2335.8000488281</ele>
        <time>2023-07-17T18:13:17.000Z</time>
      </trkpt>
      <trkpt lat="42.42628" lon="2.13792">
        <ele>2335.6000976562</ele>
        <time>2023-07-17T18:13:18.000Z</time>
      </trkpt>
      <trkpt lat="42.42623" lon="2.13793">
        <ele>2335</ele>
        <time>2023-07-17T18:13:22.000Z</time>
      </trkpt>
      <trkpt lat="42.42621" lon="2.13789">
        <ele>2335</ele>
        <time>2023-07-17T18:13:29.000Z</time>
      </trkpt>
      <trkpt lat="42.42619" lon="2.13784">
        <ele>2335.1999511719</ele>
        <time>2023-07-17T18:13:34.000Z</time>
      </trkpt>
      <trkpt lat="42.42618" lon="2.13771">
        <ele>2336</ele>
        <time>2023-07-17T18:13:42.000Z</time>
      </trkpt>
      <trkpt lat="42.42616" lon="2.13769">
        <ele>2336.6000976562</ele>
        <time>2023-07-17T18:13:47.000Z</time>
      </trkpt>
      <trkpt lat="42.42616" lon="2.13767">
        <ele>2336.8000488281</ele>
        <time>2023-07-17T18:13:50.000Z</time>
      </trkpt>
      <trkpt lat="42.42615" lon="2.13751">
        <ele>2337.6000976562</ele>
        <time>2023-07-17T18:14:01.000Z</time>
      </trkpt>
      <trkpt lat="42.42615" lon="2.1375">
        <ele>2337.6000976562</ele>
        <time>2023-07-17T18:14:02.000Z</time>
      </trkpt>
      <trkpt lat="42.42615" lon="2.13742">
        <ele>2338</ele>
        <time>2023-07-17T18:14:08.000Z</time>
      </trkpt>
      <trkpt lat="42.42614" lon="2.13731">
        <ele>2338.1999511719</ele>
        <time>2023-07-17T18:14:15.000Z</time>
      </trkpt>
      <trkpt lat="42.42616" lon="2.13722">
        <ele>2338.8000488281</ele>
        <time>2023-07-17T18:14:22.000Z</time>
      </trkpt>
      <trkpt lat="42.42618" lon="2.13719">
        <ele>2339</ele>
        <time>2023-07-17T18:14:25.000Z</time>
      </trkpt>
      <trkpt lat="42.42622" lon="2.13715">
        <ele>2340</ele>
        <time>2023-07-17T18:14:28.000Z</time>
      </trkpt>
      <trkpt lat="42.42623" lon="2.13713">
        <ele>2340.1999511719</ele>
        <time>2023-07-17T18:14:30.000Z</time>
      </trkpt>
      <trkpt lat="42.42627" lon="2.13707">
        <ele>2340.6000976562</ele>
        <time>2023-07-17T18:14:37.000Z</time>
      </trkpt>
      <trkpt lat="42.4263" lon="2.13702">
        <ele>2338.8000488281</ele>
        <time>2023-07-17T18:14:43.000Z</time>
      </trkpt>
      <trkpt lat="42.4263" lon="2.13702">
        <ele>2338.8000488281</ele>
        <time>2023-07-17T18:14:44.000Z</time>
      </trkpt>
      <trkpt lat="42.42634" lon="2.13694">
        <ele>2338.6000976562</ele>
        <time>2023-07-17T18:14:52.000Z</time>
      </trkpt>
      <trkpt lat="42.42635" lon="2.13694">
        <ele>2338.3999023438</ele>
        <time>2023-07-17T18:15:01.000Z</time>
      </trkpt>
      <trkpt lat="42.42633" lon="2.13695">
        <ele>2338.3999023438</ele>
        <time>2023-07-17T18:15:09.000Z</time>
      </trkpt>
      <trkpt lat="42.4263" lon="2.13697">
        <ele>2338.3999023438</ele>
        <time>2023-07-17T18:15:15.000Z</time>
      </trkpt>
      <trkpt lat="42.42624" lon="2.13705">
        <ele>2338.1999511719</ele>
        <time>2023-07-17T18:15:24.000Z</time>
      </trkpt>
      <trkpt lat="42.42622" lon="2.13711">
        <ele>2338</ele>
        <time>2023-07-17T18:15:32.000Z</time>
      </trkpt>
      <trkpt lat="42.42622" lon="2.13711">
        <ele>2338</ele>
        <time>2023-07-17T18:15:33.000Z</time>
      </trkpt>
      <trkpt lat="42.42623" lon="2.13714">
        <ele>2338</ele>
        <time>2023-07-17T18:15:37.000Z</time>
      </trkpt>
      <trkpt lat="42.42623" lon="2.13716">
        <ele>2337.8000488281</ele>
        <time>2023-07-17T18:15:39.000Z</time>
      </trkpt>
      <trkpt lat="42.42622" lon="2.13718">
        <ele>2337.1999511719</ele>
        <time>2023-07-17T18:15:44.000Z</time>
      </trkpt>
      <trkpt lat="42.42621" lon="2.1372">
        <ele>2336.6000976562</ele>
        <time>2023-07-17T18:15:47.000Z</time>
      </trkpt>
      <trkpt lat="42.42619" lon="2.13722">
        <ele>2336</ele>
        <time>2023-07-17T18:15:51.000Z</time>
      </trkpt>
      <trkpt lat="42.42616" lon="2.13732">
        <ele>2335.8000488281</ele>
        <time>2023-07-17T18:15:58.000Z</time>
      </trkpt>
      <trkpt lat="42.42614" lon="2.1374">
        <ele>2336.1999511719</ele>
        <time>2023-07-17T18:16:07.000Z</time>
      </trkpt>
      <trkpt lat="42.42613" lon="2.13751">
        <ele>2336.1999511719</ele>
        <time>2023-07-17T18:16:14.000Z</time>
      </trkpt>
      <trkpt lat="42.42612" lon="2.13765">
        <ele>2336.1999511719</ele>
        <time>2023-07-17T18:16:24.000Z</time>
      </trkpt>
      <trkpt lat="42.42612" lon="2.13774">
        <ele>2335.6000976562</ele>
        <time>2023-07-17T18:16:30.000Z</time>
      </trkpt>
      <trkpt lat="42.42612" lon="2.13776">
        <ele>2335.6000976562</ele>
        <time>2023-07-17T18:16:32.000Z</time>
      </trkpt>
      <trkpt lat="42.42611" lon="2.13787">
        <ele>2335.6000976562</ele>
        <time>2023-07-17T18:16:39.000Z</time>
      </trkpt>
      <trkpt lat="42.42612" lon="2.13793">
        <ele>2335.1999511719</ele>
        <time>2023-07-17T18:16:45.000Z</time>
      </trkpt>
      <trkpt lat="42.42609" lon="2.13799">
        <ele>2334.8000488281</ele>
        <time>2023-07-17T18:16:52.000Z</time>
      </trkpt>
      <trkpt lat="42.42603" lon="2.13804">
        <ele>2335.8000488281</ele>
        <time>2023-07-17T18:17:01.000Z</time>
      </trkpt>
      <trkpt lat="42.42603" lon="2.13811">
        <ele>2336.1999511719</ele>
        <time>2023-07-17T18:17:09.000Z</time>
      </trkpt>
      <trkpt lat="42.42605" lon="2.13815">
        <ele>2336.1999511719</ele>
        <time>2023-07-17T18:17:17.000Z</time>
      </trkpt>
      <trkpt lat="42.42606" lon="2.13823">
        <ele>2336.3999023438</ele>
        <time>2023-07-17T18:17:23.000Z</time>
      </trkpt>
      <trkpt lat="42.42609" lon="2.13828">
        <ele>2336.6000976562</ele>
        <time>2023-07-17T18:17:28.000Z</time>
      </trkpt>
      <trkpt lat="42.4261" lon="2.13829">
        <ele>2336.8000488281</ele>
        <time>2023-07-17T18:17:29.000Z</time>
      </trkpt>
      <trkpt lat="42.42613" lon="2.13839">
        <ele>2337.3999023438</ele>
        <time>2023-07-17T18:17:36.000Z</time>
      </trkpt>
      <trkpt lat="42.42613" lon="2.13843">
        <ele>2337.8000488281</ele>
        <time>2023-07-17T18:17:39.000Z</time>
      </trkpt>
      <trkpt lat="42.42614" lon="2.13847">
        <ele>2337.8000488281</ele>
        <time>2023-07-17T18:17:42.000Z</time>
      </trkpt>
      <trkpt lat="42.42617" lon="2.13853">
        <ele>2338.1999511719</ele>
        <time>2023-07-17T18:17:50.000Z</time>
      </trkpt>
      <trkpt lat="42.42617" lon="2.13848">
        <ele>2337.6000976562</ele>
        <time>2023-07-17T18:17:58.000Z</time>
      </trkpt>
      <trkpt lat="42.42617" lon="2.13843">
        <ele>2337.6000976562</ele>
        <time>2023-07-17T18:18:06.000Z</time>
      </trkpt>
      <trkpt lat="42.42615" lon="2.13833">
        <ele>2337.6000976562</ele>
        <time>2023-07-17T18:18:14.000Z</time>
      </trkpt>
      <trkpt lat="42.42613" lon="2.13825">
        <ele>2336.8000488281</ele>
        <time>2023-07-17T18:18:20.000Z</time>
      </trkpt>
      <trkpt lat="42.42613" lon="2.13824">
        <ele>2336.6000976562</ele>
        <time>2023-07-17T18:18:21.000Z</time>
      </trkpt>
      <trkpt lat="42.42614" lon="2.13811">
        <ele>2336</ele>
        <time>2023-07-17T18:18:30.000Z</time>
      </trkpt>
      <trkpt lat="42.42617" lon="2.13806">
        <ele>2335.6000976562</ele>
        <time>2023-07-17T18:18:35.000Z</time>
      </trkpt>
      <trkpt lat="42.42618" lon="2.13806">
        <ele>2335.6000976562</ele>
        <time>2023-07-17T18:18:36.000Z</time>
      </trkpt>
      <trkpt lat="42.4262" lon="2.13807">
        <ele>2335.1999511719</ele>
        <time>2023-07-17T18:18:38.000Z</time>
      </trkpt>
      <trkpt lat="42.42626" lon="2.13811">
        <ele>2335</ele>
        <time>2023-07-17T18:18:45.000Z</time>
      </trkpt>
      <trkpt lat="42.42631" lon="2.13806">
        <ele>2336</ele>
        <time>2023-07-17T18:18:52.000Z</time>
      </trkpt>
      <trkpt lat="42.42633" lon="2.13807">
        <ele>2336.8000488281</ele>
        <time>2023-07-17T18:18:56.000Z</time>
      </trkpt>
      <trkpt lat="42.42635" lon="2.13808">
        <ele>2337</ele>
        <time>2023-07-17T18:18:59.000Z</time>
      </trkpt>
      <trkpt lat="42.42636" lon="2.13811">
        <ele>2337.1999511719</ele>
        <time>2023-07-17T18:19:06.000Z</time>
      </trkpt>
      <trkpt lat="42.42636" lon="2.13813">
        <ele>2337.1999511719</ele>
        <time>2023-07-17T18:19:08.000Z</time>
      </trkpt>
    </trkseg>
  </trk>
</gpx>